<?xml version='1.0' encoding='UTF-8'?><gpx version="1.1" creator="JPX - https://github.com/jenetics/jpx" xmlns="http://www.topografix.com/GPX/1/1"><trk><trkseg><trkpt lat="42.52126028297901" lon="11.279850089234364"><ele>7.999999999999999</ele><time>2026-04-18T08:12:56.998Z</time></trkpt><trkpt lat="42.52115509092685" lon="11.27989093399421"><ele>8.0</ele><time>2026-04-18T08:12:59Z</time></trkpt><trkpt lat="42.521099630550346" lon="11.2799486567959"><ele>8.0</ele><time>2026-04-18T08:13:01Z</time></trkpt><trkpt lat="42.52108520743755" lon="11.280095963613435"><ele>8.0</ele><time>2026-04-18T08:13:11Z</time></trkpt><trkpt lat="42.52111114130517" lon="11.280186927736537"><ele>7.999999999999999</ele><time>2026-04-18T08:13:12Z</time></trkpt><trkpt lat="42.5211385011112" lon="11.28029515165852"><ele>8.0</ele><time>2026-04-18T08:13:13Z</time></trkpt><trkpt lat="42.52117012962932" lon="11.28042664241888"><ele>8.0</ele><time>2026-04-18T08:13:14Z</time></trkpt><trkpt lat="42.52119729109316" lon="11.280563244048219"><ele>8.0</ele><time>2026-04-18T08:13:15Z</time></trkpt><trkpt lat="42.52123782221482" lon="11.280716472818623"><ele>8.0</ele><time>2026-04-18T08:13:16Z</time></trkpt><trkpt lat="42.52127832279602" lon="11.280870103894774"><ele>8.0</ele><time>2026-04-18T08:13:17Z</time></trkpt><trkpt lat="42.52132010809091" lon="11.28103389560686"><ele>8.0</ele><time>2026-04-18T08:13:18Z</time></trkpt><trkpt lat="42.521360723376404" lon="11.281205496274723"><ele>8.0</ele><time>2026-04-18T08:13:19Z</time></trkpt><trkpt lat="42.5214025764497" lon="11.281392485636957"><ele>8.0</ele><time>2026-04-18T08:13:20Z</time></trkpt><trkpt lat="42.52144543839216" lon="11.281580195030084"><ele>8.0</ele><time>2026-04-18T08:13:21Z</time></trkpt><trkpt lat="42.52149029730725" lon="11.28176811496691"><ele>8.0</ele><time>2026-04-18T08:13:22Z</time></trkpt><trkpt lat="42.52153848340213" lon="11.28196217081658"><ele>8.0</ele><time>2026-04-18T08:13:23Z</time></trkpt><trkpt lat="42.5215882700812" lon="11.282163201047872"><ele>8.0</ele><time>2026-04-18T08:13:24Z</time></trkpt><trkpt lat="42.52164116048076" lon="11.282374525202833"><ele>8.666666666666666</ele><time>2026-04-18T08:13:25Z</time></trkpt><trkpt lat="42.52169361468256" lon="11.282581907863106"><ele>9.333333333333334</ele><time>2026-04-18T08:13:26Z</time></trkpt><trkpt lat="42.52174671644862" lon="11.28280454519405"><ele>10.0</ele><time>2026-04-18T08:13:27Z</time></trkpt><trkpt lat="42.521798403251395" lon="11.283029808334483"><ele>10.0</ele><time>2026-04-18T08:13:28Z</time></trkpt><trkpt lat="42.521853364517305" lon="11.283245005568629"><ele>10.0</ele><time>2026-04-18T08:13:29Z</time></trkpt><trkpt lat="42.52190756735361" lon="11.283462532947917"><ele>10.0</ele><time>2026-04-18T08:13:30Z</time></trkpt><trkpt lat="42.521959645575876" lon="11.28367877912536"><ele>10.0</ele><time>2026-04-18T08:13:31Z</time></trkpt><trkpt lat="42.52201135000348" lon="11.28389875650596"><ele>10.0</ele><time>2026-04-18T08:13:32Z</time></trkpt><trkpt lat="42.52206485720366" lon="11.284119169230058"><ele>10.0</ele><time>2026-04-18T08:13:33Z</time></trkpt><trkpt lat="42.5221158197591" lon="11.28433740326269"><ele>10.0</ele><time>2026-04-18T08:13:34Z</time></trkpt><trkpt lat="42.52217052083652" lon="11.284553615001935"><ele>10.0</ele><time>2026-04-18T08:13:35Z</time></trkpt><trkpt lat="42.52222452427083" lon="11.284770785998145"><ele>10.0</ele><time>2026-04-18T08:13:36Z</time></trkpt><trkpt lat="42.52227867378396" lon="11.284988522558205"><ele>10.666666666666668</ele><time>2026-04-18T08:13:37Z</time></trkpt><trkpt lat="42.52233151580582" lon="11.285208790236616"><ele>11.333333333333334</ele><time>2026-04-18T08:13:38Z</time></trkpt><trkpt lat="42.52238595073574" lon="11.285435415074591"><ele>12.0</ele><time>2026-04-18T08:13:39Z</time></trkpt><trkpt lat="42.522442605577886" lon="11.285667552533072"><ele>12.0</ele><time>2026-04-18T08:13:40Z</time></trkpt><trkpt lat="42.52249875623826" lon="11.285905258355495"><ele>12.0</ele><time>2026-04-18T08:13:40.999Z</time></trkpt><trkpt lat="42.52255582744095" lon="11.286136833846458"><ele>12.0</ele><time>2026-04-18T08:13:41.999Z</time></trkpt><trkpt lat="42.522615844083035" lon="11.28637110939057"><ele>11.0</ele><time>2026-04-18T08:13:42.999Z</time></trkpt><trkpt lat="42.52267333930314" lon="11.286601758147444"><ele>10.0</ele><time>2026-04-18T08:13:43.999Z</time></trkpt><trkpt lat="42.52273108996454" lon="11.286831205887747"><ele>9.0</ele><time>2026-04-18T08:13:44.999Z</time></trkpt><trkpt lat="42.522786590638546" lon="11.287059718887644"><ele>9.333333333333334</ele><time>2026-04-18T08:13:45.999Z</time></trkpt><trkpt lat="42.52283962969687" lon="11.287280321244783"><ele>9.666666666666668</ele><time>2026-04-18T08:13:46.999Z</time></trkpt><trkpt lat="42.522893992345175" lon="11.287502029558274"><ele>10.0</ele><time>2026-04-18T08:13:47.999Z</time></trkpt><trkpt lat="42.52294742694587" lon="11.287724225950624"><ele>10.666666666666668</ele><time>2026-04-18T08:13:48.999Z</time></trkpt><trkpt lat="42.523001508126804" lon="11.287942459399613"><ele>11.333333333333334</ele><time>2026-04-18T08:13:49.999Z</time></trkpt><trkpt lat="42.52305226915236" lon="11.288161265038056"><ele>12.0</ele><time>2026-04-18T08:13:50.999Z</time></trkpt><trkpt lat="42.523107255095084" lon="11.288379756841941"><ele>12.0</ele><time>2026-04-18T08:13:51.999Z</time></trkpt><trkpt lat="42.523158509822885" lon="11.288598048449643"><ele>12.0</ele><time>2026-04-18T08:13:52.999Z</time></trkpt><trkpt lat="42.523210067954594" lon="11.288816352989082"><ele>12.0</ele><time>2026-04-18T08:13:53.999Z</time></trkpt><trkpt lat="42.523262651530274" lon="11.289034994316905"><ele>12.0</ele><time>2026-04-18T08:13:54.999Z</time></trkpt><trkpt lat="42.52331363817839" lon="11.28925095367692"><ele>12.0</ele><time>2026-04-18T08:13:55.999Z</time></trkpt><trkpt lat="42.52336585860636" lon="11.289469893311493"><ele>12.0</ele><time>2026-04-18T08:13:56.999Z</time></trkpt><trkpt lat="42.523415758672904" lon="11.289687301026811"><ele>12.666666666666668</ele><time>2026-04-18T08:13:57.999Z</time></trkpt><trkpt lat="42.523468547066955" lon="11.289888697470138"><ele>13.333333333333334</ele><time>2026-04-18T08:13:58.999Z</time></trkpt><trkpt lat="42.52350608870594" lon="11.290087616140603"><ele>14.0</ele><time>2026-04-18T08:13:59.999Z</time></trkpt><trkpt lat="42.52357221537647" lon="11.290299210036986"><ele>14.0</ele><time>2026-04-18T08:14:00.999Z</time></trkpt><trkpt lat="42.52361112918615" lon="11.290519618574331"><ele>14.0</ele><time>2026-04-18T08:14:01.999Z</time></trkpt><trkpt lat="42.52367845824977" lon="11.290726781562046"><ele>14.0</ele><time>2026-04-18T08:14:02.999Z</time></trkpt><trkpt lat="42.523723961828324" lon="11.290931539891316"><ele>13.666666666666668</ele><time>2026-04-18T08:14:03.999Z</time></trkpt><trkpt lat="42.523763441310926" lon="11.291145913995745"><ele>13.333333333333332</ele><time>2026-04-18T08:14:04.999Z</time></trkpt><trkpt lat="42.523814204889824" lon="11.291354027738327"><ele>13.0</ele><time>2026-04-18T08:14:05.999Z</time></trkpt><trkpt lat="42.52386681470226" lon="11.29156971041722"><ele>14.0</ele><time>2026-04-18T08:14:06.999Z</time></trkpt><trkpt lat="42.52391854283857" lon="11.291781778528259"><ele>15.0</ele><time>2026-04-18T08:14:07.999Z</time></trkpt><trkpt lat="42.52396933936412" lon="11.291990027340168"><ele>16.0</ele><time>2026-04-18T08:14:08.999Z</time></trkpt><trkpt lat="42.52401987298905" lon="11.29219719835197"><ele>16.333333333333332</ele><time>2026-04-18T08:14:09.999Z</time></trkpt><trkpt lat="42.52407365149631" lon="11.292413535565464"><ele>16.666666666666668</ele><time>2026-04-18T08:14:10.999Z</time></trkpt><trkpt lat="42.52412784051531" lon="11.292631178152828"><ele>17.0</ele><time>2026-04-18T08:14:11.999Z</time></trkpt><trkpt lat="42.524179392686285" lon="11.292838229778232"><ele>17.0</ele><time>2026-04-18T08:14:12.999Z</time></trkpt><trkpt lat="42.52422866012152" lon="11.293037008775718"><ele>17.0</ele><time>2026-04-18T08:14:13.999Z</time></trkpt><trkpt lat="42.52429067090573" lon="11.293230603337971"><ele>17.0</ele><time>2026-04-18T08:14:14.999Z</time></trkpt><trkpt lat="42.5243329953906" lon="11.293403974372998"><ele>17.0</ele><time>2026-04-18T08:14:15.999Z</time></trkpt><trkpt lat="42.52437179434723" lon="11.293574082968066"><ele>17.0</ele><time>2026-04-18T08:14:16.999Z</time></trkpt><trkpt lat="42.524406975327196" lon="11.293717123277721"><ele>17.0</ele><time>2026-04-18T08:14:17.999Z</time></trkpt><trkpt lat="42.52443862296624" lon="11.293848942665491"><ele>17.0</ele><time>2026-04-18T08:14:18.999Z</time></trkpt><trkpt lat="42.52446353280755" lon="11.29396263648826"><ele>17.0</ele><time>2026-04-18T08:14:19.999Z</time></trkpt><trkpt lat="42.52447520341167" lon="11.29405099820172"><ele>17.0</ele><time>2026-04-18T08:14:20.999Z</time></trkpt><trkpt lat="42.52440950212453" lon="11.294186978554944"><ele>17.0</ele><time>2026-04-18T08:14:22.999Z</time></trkpt><trkpt lat="42.524337911386" lon="11.294221221734869"><ele>17.0</ele><time>2026-04-18T08:14:23.999Z</time></trkpt><trkpt lat="42.524252152894945" lon="11.29425951884265"><ele>17.0</ele><time>2026-04-18T08:14:24.999Z</time></trkpt><trkpt lat="42.52417045444189" lon="11.294307630727944"><ele>17.0</ele><time>2026-04-18T08:14:25.999Z</time></trkpt><trkpt lat="42.52408673283169" lon="11.294367646112196"><ele>17.0</ele><time>2026-04-18T08:14:26.999Z</time></trkpt><trkpt lat="42.524000758854235" lon="11.294438801432673"><ele>17.0</ele><time>2026-04-18T08:14:27.999Z</time></trkpt><trkpt lat="42.52390617847499" lon="11.294508611562605"><ele>17.0</ele><time>2026-04-18T08:14:28.999Z</time></trkpt><trkpt lat="42.52380152026806" lon="11.294579205699701"><ele>17.0</ele><time>2026-04-18T08:14:29.999Z</time></trkpt><trkpt lat="42.523693550798654" lon="11.294655495199851"><ele>17.0</ele><time>2026-04-18T08:14:30.999Z</time></trkpt><trkpt lat="42.52357837998552" lon="11.294740133534871"><ele>17.0</ele><time>2026-04-18T08:14:31.999Z</time></trkpt><trkpt lat="42.523460254403425" lon="11.294826486938293"><ele>17.0</ele><time>2026-04-18T08:14:32.999Z</time></trkpt><trkpt lat="42.52333620835554" lon="11.294905611179093"><ele>17.0</ele><time>2026-04-18T08:14:33.999Z</time></trkpt><trkpt lat="42.52321510962933" lon="11.294993854342424"><ele>17.0</ele><time>2026-04-18T08:14:34.999Z</time></trkpt><trkpt lat="42.52309876154235" lon="11.29508517480749"><ele>17.0</ele><time>2026-04-18T08:14:35.999Z</time></trkpt><trkpt lat="42.52297226821743" lon="11.295198021523092"><ele>17.0</ele><time>2026-04-18T08:14:36.999Z</time></trkpt><trkpt lat="42.522860904054674" lon="11.295332811439058"><ele>17.0</ele><time>2026-04-18T08:14:37.999Z</time></trkpt><trkpt lat="42.52275729178617" lon="11.29548581931988"><ele>17.333333333333336</ele><time>2026-04-18T08:14:38.999Z</time></trkpt><trkpt lat="42.52265439376632" lon="11.29566137370337"><ele>17.666666666666668</ele><time>2026-04-18T08:14:39.999Z</time></trkpt><trkpt lat="42.52254022889169" lon="11.295814884184672"><ele>18.0</ele><time>2026-04-18T08:14:40.999Z</time></trkpt><trkpt lat="42.52244356918815" lon="11.295977336149999"><ele>18.0</ele><time>2026-04-18T08:14:41.999Z</time></trkpt><trkpt lat="42.52235551326543" lon="11.296158929755444"><ele>18.0</ele><time>2026-04-18T08:14:42.999Z</time></trkpt><trkpt lat="42.52224762175571" lon="11.296323358878992"><ele>18.0</ele><time>2026-04-18T08:14:43.999Z</time></trkpt><trkpt lat="42.52214702205913" lon="11.296506753013345"><ele>17.666666666666668</ele><time>2026-04-18T08:14:44.999Z</time></trkpt><trkpt lat="42.52203156135875" lon="11.296689797950094"><ele>17.333333333333336</ele><time>2026-04-18T08:14:45.999Z</time></trkpt><trkpt lat="42.52192683071527" lon="11.296875850571364"><ele>17.0</ele><time>2026-04-18T08:14:46.999Z</time></trkpt><trkpt lat="42.5218188900635" lon="11.297053907210046"><ele>17.0</ele><time>2026-04-18T08:14:47.999Z</time></trkpt><trkpt lat="42.52170738725796" lon="11.297232194737036"><ele>17.0</ele><time>2026-04-18T08:14:48.999Z</time></trkpt><trkpt lat="42.521598935338424" lon="11.297410899587309"><ele>17.0</ele><time>2026-04-18T08:14:49.999Z</time></trkpt><trkpt lat="42.52148951079184" lon="11.297594392868973"><ele>17.0</ele><time>2026-04-18T08:14:50.999Z</time></trkpt><trkpt lat="42.52137855342065" lon="11.297773446794285"><ele>17.0</ele><time>2026-04-18T08:14:51.999Z</time></trkpt><trkpt lat="42.52126944630414" lon="11.297941966614427"><ele>17.0</ele><time>2026-04-18T08:14:52.999Z</time></trkpt><trkpt lat="42.521129865851115" lon="11.298107088167955"><ele>16.333333333333336</ele><time>2026-04-18T08:14:53.999Z</time></trkpt><trkpt lat="42.520992137724484" lon="11.298255357505273"><ele>15.666666666666668</ele><time>2026-04-18T08:14:54.999Z</time></trkpt><trkpt lat="42.52084627623054" lon="11.298397643191711"><ele>15.0</ele><time>2026-04-18T08:14:55.999Z</time></trkpt><trkpt lat="42.52070265157428" lon="11.298537924339707"><ele>15.0</ele><time>2026-04-18T08:14:56.999Z</time></trkpt><trkpt lat="42.5205526618574" lon="11.29868664591096"><ele>15.0</ele><time>2026-04-18T08:14:57.999Z</time></trkpt><trkpt lat="42.520406955450675" lon="11.298832392108524"><ele>15.0</ele><time>2026-04-18T08:14:58.999Z</time></trkpt><trkpt lat="42.52025484896984" lon="11.298985678323142"><ele>15.666666666666668</ele><time>2026-04-18T08:14:59.999Z</time></trkpt><trkpt lat="42.52011235615425" lon="11.299133902401472"><ele>16.333333333333336</ele><time>2026-04-18T08:15:00.999Z</time></trkpt><trkpt lat="42.519960254265676" lon="11.299288381349276"><ele>17.0</ele><time>2026-04-18T08:15:01.999Z</time></trkpt><trkpt lat="42.519817097469364" lon="11.299436784830306"><ele>17.0</ele><time>2026-04-18T08:15:02.999Z</time></trkpt><trkpt lat="42.519668150895455" lon="11.29959122927966"><ele>17.0</ele><time>2026-04-18T08:15:04Z</time></trkpt><trkpt lat="42.519513953716086" lon="11.299738756817002"><ele>17.0</ele><time>2026-04-18T08:15:05Z</time></trkpt><trkpt lat="42.51936754122332" lon="11.299886329806233"><ele>17.0</ele><time>2026-04-18T08:15:05.999Z</time></trkpt><trkpt lat="42.51922090383152" lon="11.30003936650757"><ele>17.0</ele><time>2026-04-18T08:15:07Z</time></trkpt><trkpt lat="42.51906781514723" lon="11.30019697991376"><ele>17.0</ele><time>2026-04-18T08:15:08Z</time></trkpt><trkpt lat="42.51892341983686" lon="11.300360515907569"><ele>17.0</ele><time>2026-04-18T08:15:09Z</time></trkpt><trkpt lat="42.51878115726115" lon="11.300533338826003"><ele>17.0</ele><time>2026-04-18T08:15:10Z</time></trkpt><trkpt lat="42.518641616087" lon="11.30071442140505"><ele>17.0</ele><time>2026-04-18T08:15:11Z</time></trkpt><trkpt lat="42.51850609899575" lon="11.30089611504568"><ele>17.0</ele><time>2026-04-18T08:15:12Z</time></trkpt><trkpt lat="42.518372223165" lon="11.301079984787433"><ele>17.0</ele><time>2026-04-18T08:15:13Z</time></trkpt><trkpt lat="42.51823918456354" lon="11.301261290778207"><ele>17.0</ele><time>2026-04-18T08:15:14Z</time></trkpt><trkpt lat="42.51812316760349" lon="11.301462987438853"><ele>17.0</ele><time>2026-04-18T08:15:15Z</time></trkpt><trkpt lat="42.51800364363486" lon="11.301661043328167"><ele>17.0</ele><time>2026-04-18T08:15:16Z</time></trkpt><trkpt lat="42.51787424177283" lon="11.301853026708024"><ele>17.0</ele><time>2026-04-18T08:15:17Z</time></trkpt><trkpt lat="42.51774800054892" lon="11.302052333816727"><ele>16.333333333333336</ele><time>2026-04-18T08:15:18Z</time></trkpt><trkpt lat="42.517622597368245" lon="11.302248604182864"><ele>15.666666666666668</ele><time>2026-04-18T08:15:19Z</time></trkpt><trkpt lat="42.51749621101502" lon="11.302451289570353"><ele>15.0</ele><time>2026-04-18T08:15:20Z</time></trkpt><trkpt lat="42.51737101713322" lon="11.30265504597289"><ele>15.0</ele><time>2026-04-18T08:15:21Z</time></trkpt><trkpt lat="42.51724447670999" lon="11.302857944758498"><ele>15.0</ele><time>2026-04-18T08:15:22Z</time></trkpt><trkpt lat="42.517117994957935" lon="11.303058703623005"><ele>15.0</ele><time>2026-04-18T08:15:23Z</time></trkpt><trkpt lat="42.51698897844439" lon="11.303258030340174"><ele>15.666666666666668</ele><time>2026-04-18T08:15:24Z</time></trkpt><trkpt lat="42.516862598623895" lon="11.30345382024221"><ele>16.333333333333336</ele><time>2026-04-18T08:15:25Z</time></trkpt><trkpt lat="42.51673798732605" lon="11.303646393327055"><ele>17.0</ele><time>2026-04-18T08:15:26Z</time></trkpt><trkpt lat="42.51661386765671" lon="11.303842608829518"><ele>17.0</ele><time>2026-04-18T08:15:27Z</time></trkpt><trkpt lat="42.51649088759557" lon="11.304031183454368"><ele>17.0</ele><time>2026-04-18T08:15:28Z</time></trkpt><trkpt lat="42.51636831904145" lon="11.304225288195102"><ele>17.0</ele><time>2026-04-18T08:15:29Z</time></trkpt><trkpt lat="42.51624340267962" lon="11.304416185352371"><ele>16.333333333333336</ele><time>2026-04-18T08:15:30Z</time></trkpt><trkpt lat="42.516118792879034" lon="11.304605405483292"><ele>15.666666666666668</ele><time>2026-04-18T08:15:31Z</time></trkpt><trkpt lat="42.515985797120074" lon="11.304801350117117"><ele>15.0</ele><time>2026-04-18T08:15:32Z</time></trkpt><trkpt lat="42.51584840120389" lon="11.304992590711958"><ele>14.333333333333332</ele><time>2026-04-18T08:15:33Z</time></trkpt><trkpt lat="42.515711776225025" lon="11.305178566854021"><ele>13.666666666666666</ele><time>2026-04-18T08:15:34Z</time></trkpt><trkpt lat="42.51558215119955" lon="11.30535113898958"><ele>13.0</ele><time>2026-04-18T08:15:35Z</time></trkpt><trkpt lat="42.51546328169006" lon="11.305512233407857"><ele>11.666666666666666</ele><time>2026-04-18T08:15:36Z</time></trkpt><trkpt lat="42.515337649222126" lon="11.30568248446484"><ele>10.333333333333332</ele><time>2026-04-18T08:15:37Z</time></trkpt><trkpt lat="42.515206545050134" lon="11.305859511235127"><ele>9.0</ele><time>2026-04-18T08:15:38Z</time></trkpt><trkpt lat="42.51507718062895" lon="11.306034259918643"><ele>9.0</ele><time>2026-04-18T08:15:39Z</time></trkpt><trkpt lat="42.51494833277633" lon="11.306205774204184"><ele>9.0</ele><time>2026-04-18T08:15:39.999Z</time></trkpt><trkpt lat="42.51482365049001" lon="11.306380273962038"><ele>9.0</ele><time>2026-04-18T08:15:40.999Z</time></trkpt><trkpt lat="42.51470109892919" lon="11.30655847427436"><ele>9.0</ele><time>2026-04-18T08:15:41.999Z</time></trkpt><trkpt lat="42.51457131330901" lon="11.306736769751904"><ele>9.0</ele><time>2026-04-18T08:15:42.999Z</time></trkpt><trkpt lat="42.514440334518916" lon="11.306921517138838"><ele>9.0</ele><time>2026-04-18T08:15:43.999Z</time></trkpt><trkpt lat="42.51431001313514" lon="11.307121010296102"><ele>8.666666666666666</ele><time>2026-04-18T08:15:44.999Z</time></trkpt><trkpt lat="42.514177430034394" lon="11.307321133819135"><ele>8.333333333333332</ele><time>2026-04-18T08:15:45.999Z</time></trkpt><trkpt lat="42.5140464120465" lon="11.307517588778422"><ele>8.0</ele><time>2026-04-18T08:15:46.999Z</time></trkpt><trkpt lat="42.51392003409348" lon="11.307716885755072"><ele>8.0</ele><time>2026-04-18T08:15:47.999Z</time></trkpt><trkpt lat="42.513778312222904" lon="11.307924956578285"><ele>8.0</ele><time>2026-04-18T08:15:48.999Z</time></trkpt><trkpt lat="42.51364595810781" lon="11.308120785012118"><ele>8.0</ele><time>2026-04-18T08:15:49.999Z</time></trkpt><trkpt lat="42.513509304127055" lon="11.308324069866458"><ele>8.0</ele><time>2026-04-18T08:15:50.999Z</time></trkpt><trkpt lat="42.513375576143936" lon="11.308528557263788"><ele>8.0</ele><time>2026-04-18T08:15:51.999Z</time></trkpt><trkpt lat="42.51324450086913" lon="11.308728089012037"><ele>8.0</ele><time>2026-04-18T08:15:52.999Z</time></trkpt><trkpt lat="42.513111960669754" lon="11.308931747623848"><ele>8.333333333333332</ele><time>2026-04-18T08:15:53.999Z</time></trkpt><trkpt lat="42.51298480760024" lon="11.309119369637635"><ele>8.666666666666666</ele><time>2026-04-18T08:15:54.999Z</time></trkpt><trkpt lat="42.51285660449824" lon="11.309306499822094"><ele>9.0</ele><time>2026-04-18T08:15:55.999Z</time></trkpt><trkpt lat="42.51272868343123" lon="11.309492541812112"><ele>8.333333333333334</ele><time>2026-04-18T08:15:56.999Z</time></trkpt><trkpt lat="42.51260045773581" lon="11.309677681738894"><ele>7.666666666666667</ele><time>2026-04-18T08:15:57.999Z</time></trkpt><trkpt lat="42.51248075577747" lon="11.309865219646763"><ele>7.0</ele><time>2026-04-18T08:15:58.999Z</time></trkpt><trkpt lat="42.51237827206907" lon="11.310073940473004"><ele>7.0</ele><time>2026-04-18T08:15:59.999Z</time></trkpt><trkpt lat="42.51230655159101" lon="11.310286660375178"><ele>7.0</ele><time>2026-04-18T08:16:00.999Z</time></trkpt><trkpt lat="42.51225791203201" lon="11.310533792500328"><ele>7.0</ele><time>2026-04-18T08:16:01.999Z</time></trkpt><trkpt lat="42.51222373160005" lon="11.310778815092641"><ele>7.0</ele><time>2026-04-18T08:16:02.999Z</time></trkpt><trkpt lat="42.51216336452517" lon="11.311024628631065"><ele>7.0</ele><time>2026-04-18T08:16:03.999Z</time></trkpt><trkpt lat="42.51211943579205" lon="11.31125592034311"><ele>7.0</ele><time>2026-04-18T08:16:04.999Z</time></trkpt><trkpt lat="42.51207304464476" lon="11.311496614736809"><ele>8.333333333333334</ele><time>2026-04-18T08:16:05.999Z</time></trkpt><trkpt lat="42.5120317129175" lon="11.311723847518781"><ele>9.666666666666666</ele><time>2026-04-18T08:16:06.999Z</time></trkpt><trkpt lat="42.51199105113971" lon="11.311947579223864"><ele>11.0</ele><time>2026-04-18T08:16:07.999Z</time></trkpt><trkpt lat="42.51195168387169" lon="11.312158951292982"><ele>11.0</ele><time>2026-04-18T08:16:08.999Z</time></trkpt><trkpt lat="42.5119154763895" lon="11.312354691977319"><ele>11.0</ele><time>2026-04-18T08:16:09.999Z</time></trkpt><trkpt lat="42.511885088989864" lon="11.312518968800832"><ele>11.0</ele><time>2026-04-18T08:16:10.999Z</time></trkpt><trkpt lat="42.51185735733865" lon="11.312670550887262"><ele>11.0</ele><time>2026-04-18T08:16:11.999Z</time></trkpt><trkpt lat="42.511832558765235" lon="11.312818818666466"><ele>11.0</ele><time>2026-04-18T08:16:12.999Z</time></trkpt><trkpt lat="42.5118240388409" lon="11.312963342994152"><ele>11.0</ele><time>2026-04-18T08:16:13.999Z</time></trkpt><trkpt lat="42.51179684333997" lon="11.313097935025088"><ele>11.0</ele><time>2026-04-18T08:16:14.999Z</time></trkpt><trkpt lat="42.51179362583288" lon="11.313247482866759"><ele>11.0</ele><time>2026-04-18T08:16:15.999Z</time></trkpt><trkpt lat="42.511722384358826" lon="11.313384366231059"><ele>11.0</ele><time>2026-04-18T08:16:16.999Z</time></trkpt><trkpt lat="42.511687022291916" lon="11.313543050642984"><ele>11.0</ele><time>2026-04-18T08:16:17.999Z</time></trkpt><trkpt lat="42.511651660651" lon="11.313705387939944"><ele>11.0</ele><time>2026-04-18T08:16:18.999Z</time></trkpt><trkpt lat="42.511613261502625" lon="11.313856987544254"><ele>11.0</ele><time>2026-04-18T08:16:19.999Z</time></trkpt><trkpt lat="42.51156732218233" lon="11.313998549803308"><ele>11.0</ele><time>2026-04-18T08:16:20.999Z</time></trkpt><trkpt lat="42.51152488101111" lon="11.314119800860205"><ele>11.0</ele><time>2026-04-18T08:16:21.999Z</time></trkpt><trkpt lat="42.51148194022906" lon="11.314235745203913"><ele>11.0</ele><time>2026-04-18T08:16:22.999Z</time></trkpt><trkpt lat="42.51144126637988" lon="11.314345098093861"><ele>11.0</ele><time>2026-04-18T08:16:23.999Z</time></trkpt><trkpt lat="42.51141615239749" lon="11.314458652102166"><ele>11.0</ele><time>2026-04-18T08:16:24.999Z</time></trkpt><trkpt lat="42.51138096625281" lon="11.314548578466429"><ele>11.0</ele><time>2026-04-18T08:16:25.999Z</time></trkpt><trkpt lat="42.51134719219771" lon="11.314637089517841"><ele>11.0</ele><time>2026-04-18T08:16:26.999Z</time></trkpt><trkpt lat="42.51130891893364" lon="11.314734491781604"><ele>11.0</ele><time>2026-04-18T08:16:27.999Z</time></trkpt><trkpt lat="42.511267875877145" lon="11.314836739199315"><ele>11.0</ele><time>2026-04-18T08:16:28.999Z</time></trkpt><trkpt lat="42.511226626860626" lon="11.314939969757235"><ele>11.0</ele><time>2026-04-18T08:16:29.999Z</time></trkpt><trkpt lat="42.511185632223494" lon="11.315045869259341"><ele>11.0</ele><time>2026-04-18T08:16:30.999Z</time></trkpt><trkpt lat="42.51115304537082" lon="11.315143036524036"><ele>11.0</ele><time>2026-04-18T08:16:31.999Z</time></trkpt><trkpt lat="42.51112109731769" lon="11.315237262093572"><ele>11.0</ele><time>2026-04-18T08:16:32.999Z</time></trkpt><trkpt lat="42.511092400135205" lon="11.315319005420653"><ele>11.0</ele><time>2026-04-18T08:16:33.999Z</time></trkpt><trkpt lat="42.511064655449296" lon="11.315400599376499"><ele>11.0</ele><time>2026-04-18T08:16:34.999Z</time></trkpt><trkpt lat="42.51103040791348" lon="11.315491693905832"><ele>11.0</ele><time>2026-04-18T08:16:35.999Z</time></trkpt><trkpt lat="42.51100075659343" lon="11.31557710054517"><ele>11.0</ele><time>2026-04-18T08:16:36.999Z</time></trkpt><trkpt lat="42.510968915531045" lon="11.315651616546418"><ele>11.0</ele><time>2026-04-18T08:16:37.999Z</time></trkpt><trkpt lat="42.51094366813043" lon="11.315732185478764"><ele>11.0</ele><time>2026-04-18T08:16:38.999Z</time></trkpt><trkpt lat="42.51090805327323" lon="11.315809357997404"><ele>11.0</ele><time>2026-04-18T08:16:39.999Z</time></trkpt><trkpt lat="42.51087832673865" lon="11.315902292032218"><ele>11.0</ele><time>2026-04-18T08:16:40.999Z</time></trkpt><trkpt lat="42.510851368208066" lon="11.315986220325556"><ele>11.0</ele><time>2026-04-18T08:16:41.999Z</time></trkpt><trkpt lat="42.51080716177375" lon="11.316069840460885"><ele>11.0</ele><time>2026-04-18T08:16:42.999Z</time></trkpt><trkpt lat="42.51077841344442" lon="11.316148276815015"><ele>11.0</ele><time>2026-04-18T08:16:43.999Z</time></trkpt><trkpt lat="42.51074129461618" lon="11.316242797305776"><ele>11.0</ele><time>2026-04-18T08:16:44.999Z</time></trkpt><trkpt lat="42.51070728152487" lon="11.316325556384719"><ele>11.0</ele><time>2026-04-18T08:16:45.999Z</time></trkpt><trkpt lat="42.51067459818605" lon="11.316402313541367"><ele>11.0</ele><time>2026-04-18T08:16:46.999Z</time></trkpt><trkpt lat="42.510636977275226" lon="11.316483183634153"><ele>11.0</ele><time>2026-04-18T08:16:47.999Z</time></trkpt><trkpt lat="42.51059467962867" lon="11.316568417446293"><ele>11.0</ele><time>2026-04-18T08:16:48.999Z</time></trkpt><trkpt lat="42.51055291356794" lon="11.31664980772351"><ele>11.0</ele><time>2026-04-18T08:16:49.999Z</time></trkpt><trkpt lat="42.51051086940118" lon="11.316724538760722"><ele>11.0</ele><time>2026-04-18T08:16:50.999Z</time></trkpt><trkpt lat="42.51046477302691" lon="11.31680118136158"><ele>11.0</ele><time>2026-04-18T08:16:51.999Z</time></trkpt><trkpt lat="42.510420939138214" lon="11.31687239659715"><ele>11.0</ele><time>2026-04-18T08:16:52.999Z</time></trkpt><trkpt lat="42.51036309675152" lon="11.316966370935734"><ele>11.0</ele><time>2026-04-18T08:16:53.999Z</time></trkpt><trkpt lat="42.51029655393247" lon="11.317074480681407"><ele>11.0</ele><time>2026-04-18T08:16:54.999Z</time></trkpt><trkpt lat="42.51025309010742" lon="11.317144824836213"><ele>11.0</ele><time>2026-04-18T08:16:55.999Z</time></trkpt><trkpt lat="42.51017779736778" lon="11.317267490662855"><ele>11.0</ele><time>2026-04-18T08:16:57.999Z</time></trkpt><trkpt lat="42.51009559889266" lon="11.317402085680015"><ele>11.0</ele><time>2026-04-18T08:16:59.999Z</time></trkpt><trkpt lat="42.51005369001785" lon="11.317470708935469"><ele>10.666666666666666</ele><time>2026-04-18T08:17:00.999Z</time></trkpt><trkpt lat="42.50997820687051" lon="11.317627325641766"><ele>10.333333333333332</ele><time>2026-04-18T08:17:02.999Z</time></trkpt><trkpt lat="42.50993345814635" lon="11.317700663787788"><ele>10.0</ele><time>2026-04-18T08:17:03.999Z</time></trkpt><trkpt lat="42.50987669483801" lon="11.31775900925134"><ele>9.666666666666666</ele><time>2026-04-18T08:17:04.999Z</time></trkpt><trkpt lat="42.50983130922104" lon="11.317833481363017"><ele>9.333333333333334</ele><time>2026-04-18T08:17:05.999Z</time></trkpt><trkpt lat="42.509790648481406" lon="11.31790043478433"><ele>9.0</ele><time>2026-04-18T08:17:06.999Z</time></trkpt><trkpt lat="42.50974588495923" lon="11.317974144018546"><ele>9.000000000000002</ele><time>2026-04-18T08:17:07.999Z</time></trkpt><trkpt lat="42.50969145563888" lon="11.318063769284253"><ele>9.0</ele><time>2026-04-18T08:17:08.999Z</time></trkpt><trkpt lat="42.50963912197917" lon="11.318150639713183"><ele>9.0</ele><time>2026-04-18T08:17:10Z</time></trkpt><trkpt lat="42.509596763358324" lon="11.318221403071613"><ele>9.0</ele><time>2026-04-18T08:17:11Z</time></trkpt><trkpt lat="42.509556690877844" lon="11.318288307182426"><ele>9.0</ele><time>2026-04-18T08:17:12Z</time></trkpt><trkpt lat="42.509512333568374" lon="11.318360027117878"><ele>9.000000000000002</ele><time>2026-04-18T08:17:13Z</time></trkpt><trkpt lat="42.509462813236446" lon="11.318435478643101"><ele>9.0</ele><time>2026-04-18T08:17:14Z</time></trkpt><trkpt lat="42.50941925293556" lon="11.318499693364283"><ele>9.166666666666666</ele><time>2026-04-18T08:17:15Z</time></trkpt><trkpt lat="42.509370030068986" lon="11.318568969555455"><ele>9.333333333333334</ele><time>2026-04-18T08:17:16Z</time></trkpt><trkpt lat="42.509329679394" lon="11.318647581513675"><ele>9.5</ele><time>2026-04-18T08:17:17Z</time></trkpt><trkpt lat="42.50927174779376" lon="11.318717150708807"><ele>9.666666666666668</ele><time>2026-04-18T08:17:18Z</time></trkpt><trkpt lat="42.50920245681151" lon="11.318766561199814"><ele>9.833333333333334</ele><time>2026-04-18T08:17:19Z</time></trkpt><trkpt lat="42.50913213755758" lon="11.318841185710491"><ele>10.0</ele><time>2026-04-18T08:17:20Z</time></trkpt><trkpt lat="42.50905265159743" lon="11.318923736535451"><ele>10.0</ele><time>2026-04-18T08:17:21Z</time></trkpt><trkpt lat="42.50896048727693" lon="11.319018139310977"><ele>10.0</ele><time>2026-04-18T08:17:22Z</time></trkpt><trkpt lat="42.508857750314995" lon="11.31912337152624"><ele>10.0</ele><time>2026-04-18T08:17:23Z</time></trkpt><trkpt lat="42.50875894981112" lon="11.319252097261154"><ele>10.0</ele><time>2026-04-18T08:17:24Z</time></trkpt><trkpt lat="42.50864022144236" lon="11.31935557944142"><ele>10.0</ele><time>2026-04-18T08:17:25Z</time></trkpt><trkpt lat="42.508526662854415" lon="11.3194733662995"><ele>10.0</ele><time>2026-04-18T08:17:26Z</time></trkpt><trkpt lat="42.50841068367022" lon="11.319593118551673"><ele>10.0</ele><time>2026-04-18T08:17:27Z</time></trkpt><trkpt lat="42.50828823895946" lon="11.319719136912253"><ele>10.0</ele><time>2026-04-18T08:17:28Z</time></trkpt><trkpt lat="42.508168735500796" lon="11.319843253121505"><ele>10.333333333333334</ele><time>2026-04-18T08:17:29Z</time></trkpt><trkpt lat="42.50804644607705" lon="11.31996953947415"><ele>10.666666666666666</ele><time>2026-04-18T08:17:30Z</time></trkpt><trkpt lat="42.50792221364811" lon="11.320094917356181"><ele>11.0</ele><time>2026-04-18T08:17:31Z</time></trkpt><trkpt lat="42.507803134547245" lon="11.320212948953955"><ele>11.0</ele><time>2026-04-18T08:17:32Z</time></trkpt><trkpt lat="42.50768882589906" lon="11.32033284827099"><ele>11.0</ele><time>2026-04-18T08:17:33Z</time></trkpt><trkpt lat="42.50758614098456" lon="11.320435522284923"><ele>11.0</ele><time>2026-04-18T08:17:34Z</time></trkpt><trkpt lat="42.50747955445263" lon="11.320543359439492"><ele>11.0</ele><time>2026-04-18T08:17:35Z</time></trkpt><trkpt lat="42.50737571265245" lon="11.320648965404999"><ele>11.25</ele><time>2026-04-18T08:17:36Z</time></trkpt><trkpt lat="42.50728564461269" lon="11.32076023118707"><ele>11.5</ele><time>2026-04-18T08:17:37Z</time></trkpt><trkpt lat="42.507205958358995" lon="11.320884947688588"><ele>11.75</ele><time>2026-04-18T08:17:38Z</time></trkpt><trkpt lat="42.50712923418432" lon="11.321033593472503"><ele>12.0</ele><time>2026-04-18T08:17:39Z</time></trkpt><trkpt lat="42.50706684723789" lon="11.321177343209577"><ele>12.0</ele><time>2026-04-18T08:17:40Z</time></trkpt><trkpt lat="42.50700212776842" lon="11.321333189051165"><ele>12.0</ele><time>2026-04-18T08:17:41Z</time></trkpt><trkpt lat="42.50692673983415" lon="11.321514305501454"><ele>12.0</ele><time>2026-04-18T08:17:42Z</time></trkpt><trkpt lat="42.50682444243812" lon="11.3216721047539"><ele>12.0</ele><time>2026-04-18T08:17:43Z</time></trkpt><trkpt lat="42.50675530199196" lon="11.321782311134394"><ele>11.75</ele><time>2026-04-18T08:17:44Z</time></trkpt><trkpt lat="42.506664445156815" lon="11.321910720566839"><ele>11.5</ele><time>2026-04-18T08:17:45Z</time></trkpt><trkpt lat="42.50656972989493" lon="11.322044545787818"><ele>11.25</ele><time>2026-04-18T08:17:46Z</time></trkpt><trkpt lat="42.506485091509475" lon="11.322189985325638"><ele>11.0</ele><time>2026-04-18T08:17:47Z</time></trkpt><trkpt lat="42.50638229701402" lon="11.32231801803683"><ele>10.75</ele><time>2026-04-18T08:17:48Z</time></trkpt><trkpt lat="42.506274407954486" lon="11.322437050936989"><ele>10.5</ele><time>2026-04-18T08:17:49Z</time></trkpt><trkpt lat="42.506159296902815" lon="11.322559717485255"><ele>10.25</ele><time>2026-04-18T08:17:50Z</time></trkpt><trkpt lat="42.50604129793245" lon="11.322684478809196"><ele>10.0</ele><time>2026-04-18T08:17:51Z</time></trkpt><trkpt lat="42.505918858773974" lon="11.322805156278474"><ele>10.0</ele><time>2026-04-18T08:17:52Z</time></trkpt><trkpt lat="42.50578874315119" lon="11.322910505818953"><ele>10.0</ele><time>2026-04-18T08:17:53Z</time></trkpt><trkpt lat="42.50566356001221" lon="11.323025511860246"><ele>10.0</ele><time>2026-04-18T08:17:54Z</time></trkpt><trkpt lat="42.505540837316936" lon="11.323138773140542"><ele>10.0</ele><time>2026-04-18T08:17:55Z</time></trkpt><trkpt lat="42.505436368864856" lon="11.323256809004057"><ele>10.0</ele><time>2026-04-18T08:17:56Z</time></trkpt><trkpt lat="42.50533228516197" lon="11.323389633204037"><ele>10.0</ele><time>2026-04-18T08:17:57Z</time></trkpt><trkpt lat="42.50521037161975" lon="11.323501303041548"><ele>10.0</ele><time>2026-04-18T08:17:58Z</time></trkpt><trkpt lat="42.505079814924045" lon="11.323615434951202"><ele>10.5</ele><time>2026-04-18T08:17:58.999Z</time></trkpt><trkpt lat="42.50495897002828" lon="11.323726384287658"><ele>11.0</ele><time>2026-04-18T08:17:59.999Z</time></trkpt><trkpt lat="42.5048443548008" lon="11.323828235683962"><ele>11.5</ele><time>2026-04-18T08:18:00.999Z</time></trkpt><trkpt lat="42.5047287355691" lon="11.323862585656721"><ele>12.0</ele><time>2026-04-18T08:18:01.999Z</time></trkpt><trkpt lat="42.50461273443435" lon="11.323872056626847"><ele>12.0</ele><time>2026-04-18T08:18:02.999Z</time></trkpt><trkpt lat="42.504484537451454" lon="11.323880954328294"><ele>12.0</ele><time>2026-04-18T08:18:03.999Z</time></trkpt><trkpt lat="42.50435282203546" lon="11.323900050006214"><ele>12.0</ele><time>2026-04-18T08:18:04.999Z</time></trkpt><trkpt lat="42.50422122844343" lon="11.323892983810378"><ele>12.0</ele><time>2026-04-18T08:18:05.999Z</time></trkpt><trkpt lat="42.50408598745148" lon="11.32390573568363"><ele>12.0</ele><time>2026-04-18T08:18:06.999Z</time></trkpt><trkpt lat="42.503988068521366" lon="11.323918143333893"><ele>12.0</ele><time>2026-04-18T08:18:07.999Z</time></trkpt><trkpt lat="42.50388905606629" lon="11.323933469881837"><ele>12.0</ele><time>2026-04-18T08:18:08.999Z</time></trkpt><trkpt lat="42.50378619407778" lon="11.32398018706337"><ele>12.0</ele><time>2026-04-18T08:18:09.999Z</time></trkpt><trkpt lat="42.50370361519195" lon="11.324044642729621"><ele>12.0</ele><time>2026-04-18T08:18:10.999Z</time></trkpt><trkpt lat="42.503635952128526" lon="11.32412353272476"><ele>11.8</ele><time>2026-04-18T08:18:11.999Z</time></trkpt><trkpt lat="42.50357991931271" lon="11.324197892091123"><ele>11.6</ele><time>2026-04-18T08:18:12.999Z</time></trkpt><trkpt lat="42.50351838516947" lon="11.324258876211697"><ele>11.4</ele><time>2026-04-18T08:18:13.999Z</time></trkpt><trkpt lat="42.503398717936385" lon="11.324269278198349"><ele>11.200000000000001</ele><time>2026-04-18T08:18:16.999Z</time></trkpt><trkpt lat="42.50333877261532" lon="11.32418444090934"><ele>11.0</ele><time>2026-04-18T08:18:18.999Z</time></trkpt><trkpt lat="42.503244389758656" lon="11.324104113745998"><ele>11.0</ele><time>2026-04-18T08:18:20.999Z</time></trkpt><trkpt lat="42.503164616677914" lon="11.324088898955704"><ele>11.0</ele><time>2026-04-18T08:18:22.999Z</time></trkpt><trkpt lat="42.50312228512555" lon="11.324208330387412"><ele>11.0</ele><time>2026-04-18T08:18:24.999Z</time></trkpt><trkpt lat="42.50308275073692" lon="11.324317481938504"><ele>11.0</ele><time>2026-04-18T08:18:25.999Z</time></trkpt><trkpt lat="42.503050504502" lon="11.324418240107216"><ele>11.0</ele><time>2026-04-18T08:18:26.999Z</time></trkpt><trkpt lat="42.50301004006022" lon="11.324519489696478"><ele>11.0</ele><time>2026-04-18T08:18:27.999Z</time></trkpt><trkpt lat="42.50294306799222" lon="11.324590765520684"><ele>11.0</ele><time>2026-04-18T08:18:28.999Z</time></trkpt><trkpt lat="42.50286941796836" lon="11.324649943571664"><ele>11.0</ele><time>2026-04-18T08:18:29.999Z</time></trkpt><trkpt lat="42.502790679371834" lon="11.32472599823297"><ele>11.0</ele><time>2026-04-18T08:18:30.999Z</time></trkpt><trkpt lat="42.502719095535085" lon="11.32480190506688"><ele>11.0</ele><time>2026-04-18T08:18:31.999Z</time></trkpt><trkpt lat="42.50263793376386" lon="11.324875463430732"><ele>11.0</ele><time>2026-04-18T08:18:32.999Z</time></trkpt><trkpt lat="42.502559643470136" lon="11.324947016429975"><ele>11.0</ele><time>2026-04-18T08:18:33.999Z</time></trkpt><trkpt lat="42.50247184818732" lon="11.325026837465995"><ele>11.0</ele><time>2026-04-18T08:18:34.999Z</time></trkpt><trkpt lat="42.502378613923106" lon="11.325114521299035"><ele>11.0</ele><time>2026-04-18T08:18:35.999Z</time></trkpt><trkpt lat="42.50228833890056" lon="11.32520731602227"><ele>11.0</ele><time>2026-04-18T08:18:36.999Z</time></trkpt><trkpt lat="42.502212492810386" lon="11.325316704364434"><ele>11.0</ele><time>2026-04-18T08:18:37.999Z</time></trkpt><trkpt lat="42.50215009033694" lon="11.325425748125523"><ele>11.4</ele><time>2026-04-18T08:18:38.999Z</time></trkpt><trkpt lat="42.502076254551156" lon="11.325523965317567"><ele>11.8</ele><time>2026-04-18T08:18:39.999Z</time></trkpt><trkpt lat="42.502010130325345" lon="11.32563791905468"><ele>12.200000000000001</ele><time>2026-04-18T08:18:40.999Z</time></trkpt><trkpt lat="42.50192933440654" lon="11.325729611596865"><ele>12.600000000000001</ele><time>2026-04-18T08:18:41.999Z</time></trkpt><trkpt lat="42.501851929667964" lon="11.325826187381685"><ele>13.0</ele><time>2026-04-18T08:18:42.999Z</time></trkpt><trkpt lat="42.50178150463125" lon="11.325924811158277"><ele>12.999999999999998</ele><time>2026-04-18T08:18:43.999Z</time></trkpt><trkpt lat="42.501724726523925" lon="11.326011224731456"><ele>13.0</ele><time>2026-04-18T08:18:44.999Z</time></trkpt><trkpt lat="42.50167128328199" lon="11.326102684668282"><ele>13.0</ele><time>2026-04-18T08:18:45.999Z</time></trkpt><trkpt lat="42.501615807262276" lon="11.326189665697612"><ele>13.0</ele><time>2026-04-18T08:18:46.999Z</time></trkpt><trkpt lat="42.50156409923331" lon="11.326272662595153"><ele>12.999999999999998</ele><time>2026-04-18T08:18:47.999Z</time></trkpt><trkpt lat="42.50150761289656" lon="11.326364189760373"><ele>13.0</ele><time>2026-04-18T08:18:48.999Z</time></trkpt><trkpt lat="42.50144310324977" lon="11.32646387091335"><ele>13.0</ele><time>2026-04-18T08:18:49.999Z</time></trkpt><trkpt lat="42.501380587649415" lon="11.326562776253247"><ele>13.0</ele><time>2026-04-18T08:18:50.999Z</time></trkpt><trkpt lat="42.50132738299647" lon="11.32664148993182"><ele>13.0</ele><time>2026-04-18T08:18:51.999Z</time></trkpt><trkpt lat="42.50124299494658" lon="11.326722031352967"><ele>13.0</ele><time>2026-04-18T08:18:53.999Z</time></trkpt><trkpt lat="42.50116186439594" lon="11.326727093486214"><ele>13.0</ele><time>2026-04-18T08:18:55.999Z</time></trkpt><trkpt lat="42.50105765385045" lon="11.326757705333732"><ele>12.999999999999998</ele><time>2026-04-18T08:18:57.999Z</time></trkpt><trkpt lat="42.50093959111604" lon="11.326786582308348"><ele>13.0</ele><time>2026-04-18T08:18:59.999Z</time></trkpt><trkpt lat="42.500863570958956" lon="11.326810042714605"><ele>13.0</ele><time>2026-04-18T08:19:00.999Z</time></trkpt><trkpt lat="42.500785700049626" lon="11.326838136594647"><ele>13.0</ele><time>2026-04-18T08:19:01.999Z</time></trkpt><trkpt lat="42.50070852281466" lon="11.326860270365271"><ele>12.999999999999998</ele><time>2026-04-18T08:19:02.999Z</time></trkpt><trkpt lat="42.500619789048805" lon="11.326877641338603"><ele>13.0</ele><time>2026-04-18T08:19:03.999Z</time></trkpt><trkpt lat="42.500530808493444" lon="11.326900898095701"><ele>13.0</ele><time>2026-04-18T08:19:04.999Z</time></trkpt><trkpt lat="42.500440156702105" lon="11.326924138979694"><ele>13.0</ele><time>2026-04-18T08:19:05.999Z</time></trkpt><trkpt lat="42.50034377423587" lon="11.326951376608594"><ele>13.0</ele><time>2026-04-18T08:19:06.999Z</time></trkpt><trkpt lat="42.50024794907939" lon="11.326974214026595"><ele>13.0</ele><time>2026-04-18T08:19:07.999Z</time></trkpt><trkpt lat="42.500150073205184" lon="11.326998047290978"><ele>13.0</ele><time>2026-04-18T08:19:08.999Z</time></trkpt><trkpt lat="42.50005905431636" lon="11.327021835524892"><ele>12.666666666666666</ele><time>2026-04-18T08:19:09.999Z</time></trkpt><trkpt lat="42.49997966811078" lon="11.327046120646923"><ele>12.333333333333332</ele><time>2026-04-18T08:19:10.999Z</time></trkpt><trkpt lat="42.499907835747344" lon="11.327056702349521"><ele>12.0</ele><time>2026-04-18T08:19:11.999Z</time></trkpt><trkpt lat="42.49979535151969" lon="11.327085015421972"><ele>11.666666666666666</ele><time>2026-04-18T08:19:13.999Z</time></trkpt><trkpt lat="42.499723833249554" lon="11.327108830705178"><ele>11.333333333333332</ele><time>2026-04-18T08:19:15Z</time></trkpt><trkpt lat="42.49964842137128" lon="11.32713173097167"><ele>11.0</ele><time>2026-04-18T08:19:16Z</time></trkpt><trkpt lat="42.49956272208679" lon="11.327148835875828"><ele>11.833333333333332</ele><time>2026-04-18T08:19:17Z</time></trkpt><trkpt lat="42.49946391083758" lon="11.327168740354827"><ele>12.666666666666666</ele><time>2026-04-18T08:19:18Z</time></trkpt><trkpt lat="42.49937020747302" lon="11.327185562197737"><ele>13.5</ele><time>2026-04-18T08:19:19Z</time></trkpt><trkpt lat="42.49928265988198" lon="11.327208583985659"><ele>14.333333333333332</ele><time>2026-04-18T08:19:20Z</time></trkpt><trkpt lat="42.4992048167846" lon="11.32722923737112"><ele>15.166666666666666</ele><time>2026-04-18T08:19:21Z</time></trkpt><trkpt lat="42.49912156287002" lon="11.327243213732844"><ele>16.0</ele><time>2026-04-18T08:19:22Z</time></trkpt><trkpt lat="42.499029350758576" lon="11.327267241292196"><ele>16.0</ele><time>2026-04-18T08:19:23Z</time></trkpt><trkpt lat="42.498935742341935" lon="11.327294787090183"><ele>16.0</ele><time>2026-04-18T08:19:24Z</time></trkpt><trkpt lat="42.49884729176773" lon="11.327317687387813"><ele>16.0</ele><time>2026-04-18T08:19:25Z</time></trkpt><trkpt lat="42.498757176272214" lon="11.327337438927414"><ele>16.0</ele><time>2026-04-18T08:19:26Z</time></trkpt><trkpt lat="42.49866998120294" lon="11.327362740334344"><ele>16.0</ele><time>2026-04-18T08:19:27Z</time></trkpt><trkpt lat="42.498577077928125" lon="11.327386171427714"><ele>16.166666666666664</ele><time>2026-04-18T08:19:28Z</time></trkpt><trkpt lat="42.49849033032155" lon="11.327408197637853"><ele>16.333333333333332</ele><time>2026-04-18T08:19:29Z</time></trkpt><trkpt lat="42.49840077124567" lon="11.327435789056574"><ele>16.5</ele><time>2026-04-18T08:19:30Z</time></trkpt><trkpt lat="42.49833394528391" lon="11.327460991291039"><ele>16.666666666666668</ele><time>2026-04-18T08:19:31Z</time></trkpt><trkpt lat="42.498249046070555" lon="11.327479410872586"><ele>16.833333333333336</ele><time>2026-04-18T08:19:32Z</time></trkpt><trkpt lat="42.498173958234574" lon="11.32750226576363"><ele>17.0</ele><time>2026-04-18T08:19:33Z</time></trkpt><trkpt lat="42.4980579571813" lon="11.327540815571767"><ele>17.0</ele><time>2026-04-18T08:19:35Z</time></trkpt><trkpt lat="42.49799021952615" lon="11.327559195385659"><ele>17.0</ele><time>2026-04-18T08:19:36Z</time></trkpt><trkpt lat="42.49789462533061" lon="11.327582844263933"><ele>17.0</ele><time>2026-04-18T08:19:37Z</time></trkpt><trkpt lat="42.49779086381346" lon="11.327608189192363"><ele>17.0</ele><time>2026-04-18T08:19:38Z</time></trkpt><trkpt lat="42.497691726013144" lon="11.327632404817699"><ele>17.0</ele><time>2026-04-18T08:19:39Z</time></trkpt><trkpt lat="42.49758465997483" lon="11.327658556924714"><ele>16.8</ele><time>2026-04-18T08:19:40Z</time></trkpt><trkpt lat="42.497481961484624" lon="11.327683642196092"><ele>16.6</ele><time>2026-04-18T08:19:41Z</time></trkpt><trkpt lat="42.49739010082704" lon="11.327706080196322"><ele>16.400000000000002</ele><time>2026-04-18T08:19:42Z</time></trkpt><trkpt lat="42.49729823139314" lon="11.327728520366955"><ele>16.2</ele><time>2026-04-18T08:19:43Z</time></trkpt><trkpt lat="42.49721026900861" lon="11.327750006157878"><ele>16.0</ele><time>2026-04-18T08:19:44Z</time></trkpt><trkpt lat="42.497119271624214" lon="11.327772233260637"><ele>15.999999999999998</ele><time>2026-04-18T08:19:45Z</time></trkpt><trkpt lat="42.497040930854304" lon="11.327791368967384"><ele>16.0</ele><time>2026-04-18T08:19:46Z</time></trkpt><trkpt lat="42.49696883243984" lon="11.327808979876231"><ele>16.0</ele><time>2026-04-18T08:19:47Z</time></trkpt><trkpt lat="42.4968997576924" lon="11.327826240283045"><ele>16.0</ele><time>2026-04-18T08:19:48Z</time></trkpt><trkpt lat="42.49683738141083" lon="11.327857484649545"><ele>15.999999999999998</ele><time>2026-04-18T08:19:49Z</time></trkpt><trkpt lat="42.49671005873099" lon="11.327857591451876"><ele>16.0</ele><time>2026-04-18T08:19:51Z</time></trkpt><trkpt lat="42.49663567535472" lon="11.327882202336694"><ele>16.0</ele><time>2026-04-18T08:19:52Z</time></trkpt><trkpt lat="42.496552394738664" lon="11.327907891954485"><ele>16.0</ele><time>2026-04-18T08:19:53Z</time></trkpt><trkpt lat="42.49648520381379" lon="11.327932636932728"><ele>16.0</ele><time>2026-04-18T08:19:54Z</time></trkpt><trkpt lat="42.496385918562424" lon="11.32796315126133"><ele>16.0</ele><time>2026-04-18T08:19:56Z</time></trkpt><trkpt lat="42.49626701818488" lon="11.327987464115473"><ele>16.0</ele><time>2026-04-18T08:19:58Z</time></trkpt><trkpt lat="42.49617948554465" lon="11.328021175019087"><ele>16.2</ele><time>2026-04-18T08:20:00Z</time></trkpt><trkpt lat="42.49607528395055" lon="11.32803815878737"><ele>16.400000000000002</ele><time>2026-04-18T08:20:02Z</time></trkpt><trkpt lat="42.49596524733696" lon="11.328067207908553"><ele>16.6</ele><time>2026-04-18T08:20:04Z</time></trkpt><trkpt lat="42.49589883058976" lon="11.328084741627748"><ele>16.8</ele><time>2026-04-18T08:20:06Z</time></trkpt><trkpt lat="42.4958072841497" lon="11.328108909466442"><ele>17.0</ele><time>2026-04-18T08:20:08Z</time></trkpt><trkpt lat="42.49572908795655" lon="11.32815007197425"><ele>17.0</ele><time>2026-04-18T08:20:10Z</time></trkpt><trkpt lat="42.495664663618484" lon="11.328146560619"><ele>17.0</ele><time>2026-04-18T08:20:12Z</time></trkpt><trkpt lat="42.4955410427771" lon="11.328175653525516"><ele>17.0</ele><time>2026-04-18T08:20:14Z</time></trkpt><trkpt lat="42.49547213086544" lon="11.32819173529329"><ele>17.0</ele><time>2026-04-18T08:20:15Z</time></trkpt><trkpt lat="42.49538347461472" lon="11.328211718465074"><ele>17.0</ele><time>2026-04-18T08:20:16Z</time></trkpt><trkpt lat="42.495282509180306" lon="11.328241175081088"><ele>16.8</ele><time>2026-04-18T08:20:17Z</time></trkpt><trkpt lat="42.49518826885795" lon="11.328273950298277"><ele>16.6</ele><time>2026-04-18T08:20:18Z</time></trkpt><trkpt lat="42.495108984733854" lon="11.328301846045429"><ele>16.400000000000002</ele><time>2026-04-18T08:20:19Z</time></trkpt><trkpt lat="42.49504508162171" lon="11.328323609694255"><ele>16.2</ele><time>2026-04-18T08:20:20Z</time></trkpt><trkpt lat="42.494917113412065" lon="11.32834533610095"><ele>16.0</ele><time>2026-04-18T08:20:22Z</time></trkpt><trkpt lat="42.49484257587211" lon="11.328387375719679"><ele>16.0</ele><time>2026-04-18T08:20:23Z</time></trkpt><trkpt lat="42.494766147749445" lon="11.328394059204921"><ele>16.0</ele><time>2026-04-18T08:20:23.999Z</time></trkpt><trkpt lat="42.49467084075769" lon="11.328420469676908"><ele>16.0</ele><time>2026-04-18T08:20:24.999Z</time></trkpt><trkpt lat="42.49456230156055" lon="11.328449319992991"><ele>16.0</ele><time>2026-04-18T08:20:25.999Z</time></trkpt><trkpt lat="42.494462100750184" lon="11.328484977641095"><ele>16.0</ele><time>2026-04-18T08:20:26.999Z</time></trkpt><trkpt lat="42.49435187378909" lon="11.328521078513377"><ele>17.0</ele><time>2026-04-18T08:20:27.999Z</time></trkpt><trkpt lat="42.49424382053497" lon="11.328543843929891"><ele>18.0</ele><time>2026-04-18T08:20:28.999Z</time></trkpt><trkpt lat="42.494137890710746" lon="11.328563599572831"><ele>19.0</ele><time>2026-04-18T08:20:29.999Z</time></trkpt><trkpt lat="42.49406252679962" lon="11.328619331793917"><ele>20.0</ele><time>2026-04-18T08:20:30.999Z</time></trkpt><trkpt lat="42.49398295492226" lon="11.328661585402706"><ele>21.0</ele><time>2026-04-18T08:20:31.999Z</time></trkpt><trkpt lat="42.49391172028255" lon="11.328677177134344"><ele>21.0</ele><time>2026-04-18T08:20:32.999Z</time></trkpt><trkpt lat="42.493831997813594" lon="11.328716075771252"><ele>21.0</ele><time>2026-04-18T08:20:33.999Z</time></trkpt><trkpt lat="42.49374754822697" lon="11.328752436442628"><ele>21.0</ele><time>2026-04-18T08:20:34.999Z</time></trkpt><trkpt lat="42.49364032237842" lon="11.32879834617424"><ele>21.0</ele><time>2026-04-18T08:20:35.999Z</time></trkpt><trkpt lat="42.49352807215169" lon="11.32884640712936"><ele>21.0</ele><time>2026-04-18T08:20:36.999Z</time></trkpt><trkpt lat="42.493421918820964" lon="11.328891857750504"><ele>20.75</ele><time>2026-04-18T08:20:37.999Z</time></trkpt><trkpt lat="42.493308024198335" lon="11.328942751426624"><ele>20.5</ele><time>2026-04-18T08:20:38.999Z</time></trkpt><trkpt lat="42.49319539455484" lon="11.328994430474946"><ele>20.25</ele><time>2026-04-18T08:20:39.999Z</time></trkpt><trkpt lat="42.49308171634027" lon="11.329046590546092"><ele>20.0</ele><time>2026-04-18T08:20:40.999Z</time></trkpt><trkpt lat="42.492968168328545" lon="11.329098690871609"><ele>20.5</ele><time>2026-04-18T08:20:41.999Z</time></trkpt><trkpt lat="42.49285405024728" lon="11.329151052825916"><ele>21.0</ele><time>2026-04-18T08:20:42.999Z</time></trkpt><trkpt lat="42.492740101996766" lon="11.329203336759072"><ele>21.5</ele><time>2026-04-18T08:20:43.999Z</time></trkpt><trkpt lat="42.49264418226775" lon="11.329247348466195"><ele>22.0</ele><time>2026-04-18T08:20:44.999Z</time></trkpt><trkpt lat="42.492481363870006" lon="11.329320640099464"><ele>22.0</ele><time>2026-04-18T08:20:45.999Z</time></trkpt><trkpt lat="42.492381392599626" lon="11.329365064276613"><ele>22.0</ele><time>2026-04-18T08:20:46.999Z</time></trkpt><trkpt lat="42.49229125586648" lon="11.329405118294176"><ele>22.0</ele><time>2026-04-18T08:20:47.999Z</time></trkpt><trkpt lat="42.49220774355959" lon="11.32944116703743"><ele>22.0</ele><time>2026-04-18T08:20:48.999Z</time></trkpt><trkpt lat="42.49213305149446" lon="11.329494303237436"><ele>22.0</ele><time>2026-04-18T08:20:49.999Z</time></trkpt><trkpt lat="42.492048829087956" lon="11.329534954519334"><ele>22.0</ele><time>2026-04-18T08:20:50.999Z</time></trkpt><trkpt lat="42.491955068152315" lon="11.329586784267894"><ele>22.0</ele><time>2026-04-18T08:20:51.999Z</time></trkpt><trkpt lat="42.4918557325964" lon="11.32964355940423"><ele>22.0</ele><time>2026-04-18T08:20:52.999Z</time></trkpt><trkpt lat="42.49174758297376" lon="11.329692894841159"><ele>22.0</ele><time>2026-04-18T08:20:53.999Z</time></trkpt><trkpt lat="42.4916336796624" lon="11.329747577555523"><ele>22.0</ele><time>2026-04-18T08:20:54.999Z</time></trkpt><trkpt lat="42.49152067674243" lon="11.329803566165708"><ele>22.200000000000003</ele><time>2026-04-18T08:20:55.999Z</time></trkpt><trkpt lat="42.49140670882945" lon="11.329854706022472"><ele>22.4</ele><time>2026-04-18T08:20:56.999Z</time></trkpt><trkpt lat="42.49129381292085" lon="11.329907850742336"><ele>22.6</ele><time>2026-04-18T08:20:57.999Z</time></trkpt><trkpt lat="42.49119377254153" lon="11.329960974479048"><ele>22.799999999999997</ele><time>2026-04-18T08:20:58.999Z</time></trkpt><trkpt lat="42.491093496800545" lon="11.329988315904323"><ele>23.0</ele><time>2026-04-18T08:20:59.999Z</time></trkpt><trkpt lat="42.491009186941234" lon="11.3300279298342"><ele>23.0</ele><time>2026-04-18T08:21:00.999Z</time></trkpt><trkpt lat="42.49091911147" lon="11.330070252777944"><ele>23.0</ele><time>2026-04-18T08:21:01.999Z</time></trkpt><trkpt lat="42.49084135406203" lon="11.330106787909939"><ele>23.0</ele><time>2026-04-18T08:21:02.999Z</time></trkpt><trkpt lat="42.490762426125464" lon="11.330143873068513"><ele>23.0</ele><time>2026-04-18T08:21:03.999Z</time></trkpt><trkpt lat="42.49068421529838" lon="11.330180621276511"><ele>23.0</ele><time>2026-04-18T08:21:04.999Z</time></trkpt><trkpt lat="42.49060536090952" lon="11.330217671877577"><ele>23.0</ele><time>2026-04-18T08:21:05.999Z</time></trkpt><trkpt lat="42.490517408080855" lon="11.330258997465489"><ele>24.2</ele><time>2026-04-18T08:21:06.999Z</time></trkpt><trkpt lat="42.49041858513969" lon="11.330305430541967"><ele>25.4</ele><time>2026-04-18T08:21:07.999Z</time></trkpt><trkpt lat="42.490322226377224" lon="11.330348840535574"><ele>26.599999999999998</ele><time>2026-04-18T08:21:08.999Z</time></trkpt><trkpt lat="42.49023443159088" lon="11.330388073398533"><ele>27.799999999999997</ele><time>2026-04-18T08:21:09.999Z</time></trkpt><trkpt lat="42.49013240864352" lon="11.330433151620543"><ele>29.0</ele><time>2026-04-18T08:21:10.999Z</time></trkpt><trkpt lat="42.49005564170212" lon="11.330467050607895"><ele>29.0</ele><time>2026-04-18T08:21:11.999Z</time></trkpt><trkpt lat="42.48998412743742" lon="11.330498195847715"><ele>29.0</ele><time>2026-04-18T08:21:12.999Z</time></trkpt><trkpt lat="42.489920707899316" lon="11.330525428578751"><ele>29.0</ele><time>2026-04-18T08:21:13.999Z</time></trkpt><trkpt lat="42.489811709814845" lon="11.330572232973024"><ele>29.0</ele><time>2026-04-18T08:21:15.999Z</time></trkpt><trkpt lat="42.48987575591633" lon="11.330993777311457"><ele>28.0</ele><time>2026-04-18T08:21:17.999Z</time></trkpt><trkpt lat="42.48990329337491" lon="11.331137389716348"><ele>27.0</ele><time>2026-04-18T08:21:18.999Z</time></trkpt><trkpt lat="42.48993962594519" lon="11.331297309634648"><ele>26.0</ele><time>2026-04-18T08:21:19.999Z</time></trkpt><trkpt lat="42.48998064503332" lon="11.331460521663452"><ele>25.0</ele><time>2026-04-18T08:21:21Z</time></trkpt><trkpt lat="42.49001536993961" lon="11.331632594840173"><ele>25.0</ele><time>2026-04-18T08:21:22Z</time></trkpt><trkpt lat="42.49004437797687" lon="11.33181488613633"><ele>25.0</ele><time>2026-04-18T08:21:23Z</time></trkpt><trkpt lat="42.49007504302914" lon="11.332008609458896"><ele>25.0</ele><time>2026-04-18T08:21:24Z</time></trkpt><trkpt lat="42.490103164026074" lon="11.332229310032437"><ele>25.0</ele><time>2026-04-18T08:21:25Z</time></trkpt><trkpt lat="42.490130256439215" lon="11.33244390425975"><ele>25.0</ele><time>2026-04-18T08:21:26Z</time></trkpt><trkpt lat="42.49015747217977" lon="11.33266683519128"><ele>25.0</ele><time>2026-04-18T08:21:27Z</time></trkpt><trkpt lat="42.490191950227235" lon="11.332920916431762"><ele>25.0</ele><time>2026-04-18T08:21:28Z</time></trkpt><trkpt lat="42.49023084752792" lon="11.333171749899519"><ele>24.0</ele><time>2026-04-18T08:21:29Z</time></trkpt><trkpt lat="42.490260902956834" lon="11.333387919239186"><ele>23.0</ele><time>2026-04-18T08:21:30Z</time></trkpt><trkpt lat="42.490288031787486" lon="11.333595029981728"><ele>22.0</ele><time>2026-04-18T08:21:31Z</time></trkpt><trkpt lat="42.49031904025034" lon="11.333798720063475"><ele>21.75</ele><time>2026-04-18T08:21:32Z</time></trkpt><trkpt lat="42.49034566787269" lon="11.333997171015335"><ele>21.5</ele><time>2026-04-18T08:21:33Z</time></trkpt><trkpt lat="42.49037227515713" lon="11.334195366443607"><ele>21.25</ele><time>2026-04-18T08:21:34Z</time></trkpt><trkpt lat="42.49039603800366" lon="11.33439072774789"><ele>21.0</ele><time>2026-04-18T08:21:35Z</time></trkpt><trkpt lat="42.49041876973294" lon="11.334581262319787"><ele>20.0</ele><time>2026-04-18T08:21:36Z</time></trkpt><trkpt lat="42.49044607918415" lon="11.334769661977703"><ele>19.0</ele><time>2026-04-18T08:21:37Z</time></trkpt><trkpt lat="42.49046700901664" lon="11.334943669914882"><ele>18.0</ele><time>2026-04-18T08:21:38Z</time></trkpt><trkpt lat="42.49049564744395" lon="11.335105861815602"><ele>17.0</ele><time>2026-04-18T08:21:39Z</time></trkpt><trkpt lat="42.490523495923306" lon="11.335272225547605"><ele>17.0</ele><time>2026-04-18T08:21:40Z</time></trkpt><trkpt lat="42.49055040329187" lon="11.335430663113701"><ele>17.0</ele><time>2026-04-18T08:21:41Z</time></trkpt><trkpt lat="42.490583767580965" lon="11.335591987135123"><ele>17.0</ele><time>2026-04-18T08:21:42Z</time></trkpt><trkpt lat="42.490630296421855" lon="11.335756851206469"><ele>17.0</ele><time>2026-04-18T08:21:43Z</time></trkpt><trkpt lat="42.49067963853587" lon="11.335936692233364"><ele>17.5</ele><time>2026-04-18T08:21:44Z</time></trkpt><trkpt lat="42.490709887096905" lon="11.33612470019165"><ele>18.0</ele><time>2026-04-18T08:21:45Z</time></trkpt><trkpt lat="42.49074479719944" lon="11.336318190526292"><ele>18.5</ele><time>2026-04-18T08:21:46Z</time></trkpt><trkpt lat="42.4907778572668" lon="11.336515119178522"><ele>19.0</ele><time>2026-04-18T08:21:47Z</time></trkpt><trkpt lat="42.490810060253644" lon="11.336714514982464"><ele>19.0</ele><time>2026-04-18T08:21:48Z</time></trkpt><trkpt lat="42.490838409202645" lon="11.33691700747394"><ele>19.0</ele><time>2026-04-18T08:21:49Z</time></trkpt><trkpt lat="42.490864744577735" lon="11.337116691332891"><ele>19.0</ele><time>2026-04-18T08:21:50Z</time></trkpt><trkpt lat="42.49088717199803" lon="11.337313329546642"><ele>19.0</ele><time>2026-04-18T08:21:51Z</time></trkpt><trkpt lat="42.49092041964514" lon="11.3375024525305"><ele>19.5</ele><time>2026-04-18T08:21:52Z</time></trkpt><trkpt lat="42.49094097217949" lon="11.337681935944387"><ele>20.0</ele><time>2026-04-18T08:21:53Z</time></trkpt><trkpt lat="42.49096149988745" lon="11.33784809721904"><ele>20.5</ele><time>2026-04-18T08:21:54Z</time></trkpt><trkpt lat="42.490981433148356" lon="11.33801808534058"><ele>21.0</ele><time>2026-04-18T08:21:55Z</time></trkpt><trkpt lat="42.49101041145028" lon="11.33818599329224"><ele>21.0</ele><time>2026-04-18T08:21:56Z</time></trkpt><trkpt lat="42.49103722322652" lon="11.338349270472262"><ele>21.0</ele><time>2026-04-18T08:21:57Z</time></trkpt><trkpt lat="42.49105544542702" lon="11.33851663736381"><ele>21.0</ele><time>2026-04-18T08:21:58Z</time></trkpt><trkpt lat="42.49108228246565" lon="11.338684053333619"><ele>21.0</ele><time>2026-04-18T08:21:59Z</time></trkpt><trkpt lat="42.4911114144779" lon="11.338863443449727"><ele>20.5</ele><time>2026-04-18T08:22:00Z</time></trkpt><trkpt lat="42.49113543653304" lon="11.339045998090619"><ele>20.0</ele><time>2026-04-18T08:22:01Z</time></trkpt><trkpt lat="42.49115174695403" lon="11.339234423156606"><ele>19.5</ele><time>2026-04-18T08:22:02Z</time></trkpt><trkpt lat="42.49116153141079" lon="11.33942465458322"><ele>19.0</ele><time>2026-04-18T08:22:03Z</time></trkpt><trkpt lat="42.49116485591035" lon="11.339615819252343"><ele>18.8</ele><time>2026-04-18T08:22:04Z</time></trkpt><trkpt lat="42.4911800538011" lon="11.339779138467208"><ele>18.599999999999998</ele><time>2026-04-18T08:22:05Z</time></trkpt><trkpt lat="42.49117418477697" lon="11.339922916485977"><ele>18.4</ele><time>2026-04-18T08:22:06Z</time></trkpt><trkpt lat="42.49114715175343" lon="11.340051831061372"><ele>18.2</ele><time>2026-04-18T08:22:07Z</time></trkpt><trkpt lat="42.49109509906973" lon="11.340142603387308"><ele>18.0</ele><time>2026-04-18T08:22:08Z</time></trkpt><trkpt lat="42.490997073833356" lon="11.340226076391305"><ele>18.0</ele><time>2026-04-18T08:22:09Z</time></trkpt><trkpt lat="42.490886207544" lon="11.340324969374068"><ele>18.0</ele><time>2026-04-18T08:22:10Z</time></trkpt><trkpt lat="42.49075717015847" lon="11.340458159897402"><ele>18.0</ele><time>2026-04-18T08:22:11Z</time></trkpt><trkpt lat="42.49064565977512" lon="11.340599434768771"><ele>18.0</ele><time>2026-04-18T08:22:12Z</time></trkpt><trkpt lat="42.490516365599966" lon="11.340757566924681"><ele>18.25</ele><time>2026-04-18T08:22:13Z</time></trkpt><trkpt lat="42.49039755547729" lon="11.34089109847603"><ele>18.5</ele><time>2026-04-18T08:22:14Z</time></trkpt><trkpt lat="42.49029339654353" lon="11.341021263901764"><ele>18.75</ele><time>2026-04-18T08:22:15Z</time></trkpt><trkpt lat="42.49021450451562" lon="11.341125711128894"><ele>19.0</ele><time>2026-04-18T08:22:16Z</time></trkpt><trkpt lat="42.490120771037915" lon="11.34120166639868"><ele>19.0</ele><time>2026-04-18T08:22:17Z</time></trkpt><trkpt lat="42.48999995594587" lon="11.34126241000948"><ele>19.0</ele><time>2026-04-18T08:22:18Z</time></trkpt><trkpt lat="42.48987167406192" lon="11.341345584829938"><ele>19.0</ele><time>2026-04-18T08:22:19Z</time></trkpt><trkpt lat="42.4897397689554" lon="11.341475482031326"><ele>19.0</ele><time>2026-04-18T08:22:20Z</time></trkpt><trkpt lat="42.489611793912104" lon="11.341629540706625"><ele>19.75</ele><time>2026-04-18T08:22:21Z</time></trkpt><trkpt lat="42.48951600233886" lon="11.341782918717135"><ele>20.5</ele><time>2026-04-18T08:22:22Z</time></trkpt><trkpt lat="42.489430269519026" lon="11.34192200377651"><ele>21.25</ele><time>2026-04-18T08:22:23Z</time></trkpt><trkpt lat="42.48932630719777" lon="11.342057240409222"><ele>22.0</ele><time>2026-04-18T08:22:24Z</time></trkpt><trkpt lat="42.489204590105096" lon="11.342201504745061"><ele>22.666666666666664</ele><time>2026-04-18T08:22:25Z</time></trkpt><trkpt lat="42.489075355772364" lon="11.34234679310748"><ele>23.333333333333332</ele><time>2026-04-18T08:22:26Z</time></trkpt><trkpt lat="42.4889644499054" lon="11.342480745066332"><ele>24.0</ele><time>2026-04-18T08:22:27Z</time></trkpt><trkpt lat="42.488850546436545" lon="11.342623995504217"><ele>23.333333333333332</ele><time>2026-04-18T08:22:28Z</time></trkpt><trkpt lat="42.48871066798007" lon="11.342792631298808"><ele>22.666666666666664</ele><time>2026-04-18T08:22:29Z</time></trkpt><trkpt lat="42.488640305168246" lon="11.342896743395348"><ele>22.0</ele><time>2026-04-18T08:22:30Z</time></trkpt><trkpt lat="42.48852496405252" lon="11.343046699865612"><ele>22.75</ele><time>2026-04-18T08:22:31Z</time></trkpt><trkpt lat="42.488421716697786" lon="11.343185505191485"><ele>23.5</ele><time>2026-04-18T08:22:32Z</time></trkpt><trkpt lat="42.488317907496665" lon="11.34330292244055"><ele>24.25</ele><time>2026-04-18T08:22:33Z</time></trkpt><trkpt lat="42.4882227022667" lon="11.343411460604356"><ele>25.0</ele><time>2026-04-18T08:22:34Z</time></trkpt><trkpt lat="42.48814332145948" lon="11.34352607224398"><ele>25.0</ele><time>2026-04-18T08:22:35Z</time></trkpt><trkpt lat="42.48806498683987" lon="11.34362282394489"><ele>25.0</ele><time>2026-04-18T08:22:36Z</time></trkpt><trkpt lat="42.488005119415305" lon="11.343719102772452"><ele>25.0</ele><time>2026-04-18T08:22:36.999Z</time></trkpt><trkpt lat="42.4879619980152" lon="11.343833316787359"><ele>25.0</ele><time>2026-04-18T08:22:37.999Z</time></trkpt><trkpt lat="42.48792850307672" lon="11.343975730408706"><ele>25.0</ele><time>2026-04-18T08:22:38.999Z</time></trkpt><trkpt lat="42.48791080900616" lon="11.344147383570576"><ele>25.0</ele><time>2026-04-18T08:22:39.999Z</time></trkpt><trkpt lat="42.48790034802326" lon="11.344333960372106"><ele>25.0</ele><time>2026-04-18T08:22:40.999Z</time></trkpt><trkpt lat="42.487877577421706" lon="11.344526898960886"><ele>25.0</ele><time>2026-04-18T08:22:41.999Z</time></trkpt><trkpt lat="42.48785023927963" lon="11.344717159750953"><ele>25.0</ele><time>2026-04-18T08:22:42.999Z</time></trkpt><trkpt lat="42.487832683586085" lon="11.34491631505427"><ele>25.0</ele><time>2026-04-18T08:22:43.999Z</time></trkpt><trkpt lat="42.487836950816714" lon="11.345123048132107"><ele>25.0</ele><time>2026-04-18T08:22:44.999Z</time></trkpt><trkpt lat="42.487850156500734" lon="11.345339937843411"><ele>25.0</ele><time>2026-04-18T08:22:45.999Z</time></trkpt><trkpt lat="42.48787480489741" lon="11.345555198295104"><ele>25.75</ele><time>2026-04-18T08:22:46.999Z</time></trkpt><trkpt lat="42.48788699259157" lon="11.345748872101021"><ele>26.5</ele><time>2026-04-18T08:22:47.999Z</time></trkpt><trkpt lat="42.487894864084105" lon="11.345938163974466"><ele>27.25</ele><time>2026-04-18T08:22:48.999Z</time></trkpt><trkpt lat="42.487891607134145" lon="11.346114581295426"><ele>28.0</ele><time>2026-04-18T08:22:49.999Z</time></trkpt><trkpt lat="42.48786319575176" lon="11.346281118707047"><ele>28.500000000000004</ele><time>2026-04-18T08:22:50.999Z</time></trkpt><trkpt lat="42.48783395304393" lon="11.346433698979759"><ele>29.0</ele><time>2026-04-18T08:22:51.999Z</time></trkpt><trkpt lat="42.487807112662026" lon="11.346557450767827"><ele>29.5</ele><time>2026-04-18T08:22:52.999Z</time></trkpt><trkpt lat="42.487797048491174" lon="11.346677142241496"><ele>30.0</ele><time>2026-04-18T08:22:53.999Z</time></trkpt><trkpt lat="42.487797927192666" lon="11.346778425382201"><ele>30.500000000000004</ele><time>2026-04-18T08:22:54.999Z</time></trkpt><trkpt lat="42.48781593285955" lon="11.346871502213402"><ele>31.0</ele><time>2026-04-18T08:22:55.999Z</time></trkpt><trkpt lat="42.48784340231187" lon="11.34697862033543"><ele>31.000000000000004</ele><time>2026-04-18T08:22:56.999Z</time></trkpt><trkpt lat="42.48787076495055" lon="11.347092278356728"><ele>31.0</ele><time>2026-04-18T08:22:57.999Z</time></trkpt><trkpt lat="42.48789463405861" lon="11.347209187455894"><ele>31.0</ele><time>2026-04-18T08:22:58.999Z</time></trkpt><trkpt lat="42.48791220028588" lon="11.347326903352487"><ele>31.0</ele><time>2026-04-18T08:22:59.999Z</time></trkpt><trkpt lat="42.48791458106578" lon="11.347446770486684"><ele>31.000000000000004</ele><time>2026-04-18T08:23:00.999Z</time></trkpt><trkpt lat="42.48790666885234" lon="11.34756492323297"><ele>31.0</ele><time>2026-04-18T08:23:01.999Z</time></trkpt><trkpt lat="42.48790076432341" lon="11.347685259640201"><ele>31.333333333333336</ele><time>2026-04-18T08:23:02.999Z</time></trkpt><trkpt lat="42.487891343423414" lon="11.347805821935639"><ele>31.666666666666668</ele><time>2026-04-18T08:23:03.999Z</time></trkpt><trkpt lat="42.48789545662914" lon="11.347927675202154"><ele>32.0</ele><time>2026-04-18T08:23:04.999Z</time></trkpt><trkpt lat="42.487906992606995" lon="11.348043106938944"><ele>32.333333333333336</ele><time>2026-04-18T08:23:05.999Z</time></trkpt><trkpt lat="42.487925278554826" lon="11.348162594281442"><ele>32.666666666666664</ele><time>2026-04-18T08:23:06.999Z</time></trkpt><trkpt lat="42.48795018892514" lon="11.348280535759846"><ele>33.0</ele><time>2026-04-18T08:23:07.999Z</time></trkpt><trkpt lat="42.48795205818411" lon="11.348400313964918"><ele>33.166666666666664</ele><time>2026-04-18T08:23:08.999Z</time></trkpt><trkpt lat="42.4879571469825" lon="11.348516991362695"><ele>33.333333333333336</ele><time>2026-04-18T08:23:09.999Z</time></trkpt><trkpt lat="42.48796283802847" lon="11.348629404677554"><ele>33.5</ele><time>2026-04-18T08:23:10.999Z</time></trkpt><trkpt lat="42.48798580895895" lon="11.348744990865228"><ele>33.66666666666667</ele><time>2026-04-18T08:23:11.999Z</time></trkpt><trkpt lat="42.488005125044" lon="11.348858470098055"><ele>33.833333333333336</ele><time>2026-04-18T08:23:12.999Z</time></trkpt><trkpt lat="42.48803183406234" lon="11.348970920330796"><ele>34.0</ele><time>2026-04-18T08:23:13.999Z</time></trkpt><trkpt lat="42.488076036410185" lon="11.349072966767913"><ele>34.0</ele><time>2026-04-18T08:23:14.999Z</time></trkpt><trkpt lat="42.48813245294012" lon="11.349167879978097"><ele>34.0</ele><time>2026-04-18T08:23:15.999Z</time></trkpt><trkpt lat="42.488145833364555" lon="11.349283270522841"><ele>34.0</ele><time>2026-04-18T08:23:16.999Z</time></trkpt><trkpt lat="42.488160779371206" lon="11.349384223917765"><ele>34.0</ele><time>2026-04-18T08:23:17.999Z</time></trkpt><trkpt lat="42.48816700286749" lon="11.349475370568772"><ele>34.0</ele><time>2026-04-18T08:23:18.999Z</time></trkpt><trkpt lat="42.48817948154976" lon="11.349574955210196"><ele>34.0</ele><time>2026-04-18T08:23:19.999Z</time></trkpt><trkpt lat="42.488200433152436" lon="11.349660317452571"><ele>33.4</ele><time>2026-04-18T08:23:20.999Z</time></trkpt><trkpt lat="42.48824910681761" lon="11.349750338397515"><ele>32.8</ele><time>2026-04-18T08:23:21.999Z</time></trkpt><trkpt lat="42.48834261785362" lon="11.349809932300579"><ele>32.2</ele><time>2026-04-18T08:23:22.999Z</time></trkpt><trkpt lat="42.4884281400413" lon="11.349879579712962"><ele>31.6</ele><time>2026-04-18T08:23:23.999Z</time></trkpt><trkpt lat="42.48852477093431" lon="11.34993979723768"><ele>31.0</ele><time>2026-04-18T08:23:24.999Z</time></trkpt><trkpt lat="42.48861721693112" lon="11.350018283910675"><ele>31.0</ele><time>2026-04-18T08:23:25.999Z</time></trkpt><trkpt lat="42.48871679758058" lon="11.350099922835916"><ele>31.0</ele><time>2026-04-18T08:23:27Z</time></trkpt><trkpt lat="42.48882520777518" lon="11.350180611028549"><ele>31.0</ele><time>2026-04-18T08:23:28Z</time></trkpt><trkpt lat="42.48893783818752" lon="11.350265196052192"><ele>31.0</ele><time>2026-04-18T08:23:29Z</time></trkpt><trkpt lat="42.489044193004936" lon="11.350352899833672"><ele>30.75</ele><time>2026-04-18T08:23:30Z</time></trkpt><trkpt lat="42.489160262992264" lon="11.350432929090294"><ele>30.5</ele><time>2026-04-18T08:23:31Z</time></trkpt><trkpt lat="42.48928062818228" lon="11.350505940399936"><ele>30.25</ele><time>2026-04-18T08:23:32Z</time></trkpt><trkpt lat="42.48938462952029" lon="11.350574788946549"><ele>30.0</ele><time>2026-04-18T08:23:33Z</time></trkpt><trkpt lat="42.48948439431791" lon="11.350643378636974"><ele>29.8</ele><time>2026-04-18T08:23:34Z</time></trkpt><trkpt lat="42.489584051343876" lon="11.350709733247195"><ele>29.6</ele><time>2026-04-18T08:23:35Z</time></trkpt><trkpt lat="42.48968433109092" lon="11.350772723866534"><ele>29.4</ele><time>2026-04-18T08:23:36Z</time></trkpt><trkpt lat="42.48976500904475" lon="11.350857207566609"><ele>29.2</ele><time>2026-04-18T08:23:37Z</time></trkpt><trkpt lat="42.48984447456933" lon="11.350933598657777"><ele>29.0</ele><time>2026-04-18T08:23:38Z</time></trkpt><trkpt lat="42.48988533990455" lon="11.351035692188582"><ele>28.75</ele><time>2026-04-18T08:23:39Z</time></trkpt><trkpt lat="42.489941105575525" lon="11.351148581119617"><ele>28.5</ele><time>2026-04-18T08:23:40Z</time></trkpt><trkpt lat="42.49000625448529" lon="11.35127456620586"><ele>28.25</ele><time>2026-04-18T08:23:41Z</time></trkpt><trkpt lat="42.49009278953575" lon="11.351399790084946"><ele>28.0</ele><time>2026-04-18T08:23:42Z</time></trkpt><trkpt lat="42.49019262617776" lon="11.351504863124624"><ele>28.599999999999998</ele><time>2026-04-18T08:23:43Z</time></trkpt><trkpt lat="42.49025253480968" lon="11.351628799260292"><ele>29.199999999999996</ele><time>2026-04-18T08:23:44Z</time></trkpt><trkpt lat="42.4903287797333" lon="11.351738039594684"><ele>29.8</ele><time>2026-04-18T08:23:45Z</time></trkpt><trkpt lat="42.490419286899666" lon="11.351817009643302"><ele>30.4</ele><time>2026-04-18T08:23:46Z</time></trkpt><trkpt lat="42.49049511882066" lon="11.351916474047012"><ele>31.0</ele><time>2026-04-18T08:23:47Z</time></trkpt><trkpt lat="42.490566348889786" lon="11.352020493367876"><ele>29.75</ele><time>2026-04-18T08:23:48Z</time></trkpt><trkpt lat="42.490627193267095" lon="11.352139614585004"><ele>28.5</ele><time>2026-04-18T08:23:49Z</time></trkpt><trkpt lat="42.490677149487034" lon="11.352287223785414"><ele>27.25</ele><time>2026-04-18T08:23:50Z</time></trkpt><trkpt lat="42.490719352576384" lon="11.352435482823397"><ele>26.0</ele><time>2026-04-18T08:23:51Z</time></trkpt><trkpt lat="42.4907655677618" lon="11.352584246559614"><ele>26.0</ele><time>2026-04-18T08:23:52Z</time></trkpt><trkpt lat="42.49080697562898" lon="11.352733535744"><ele>26.0</ele><time>2026-04-18T08:23:53Z</time></trkpt><trkpt lat="42.490845318584924" lon="11.352863715800606"><ele>26.0</ele><time>2026-04-18T08:23:54Z</time></trkpt><trkpt lat="42.490868059641336" lon="11.35301136771876"><ele>26.0</ele><time>2026-04-18T08:23:55Z</time></trkpt><trkpt lat="42.49089257489486" lon="11.353160653310725"><ele>26.0</ele><time>2026-04-18T08:23:56Z</time></trkpt><trkpt lat="42.490912740311074" lon="11.353308917092633"><ele>26.0</ele><time>2026-04-18T08:23:57Z</time></trkpt><trkpt lat="42.4909454365144" lon="11.353437131978028"><ele>26.0</ele><time>2026-04-18T08:23:58Z</time></trkpt><trkpt lat="42.490969206760475" lon="11.353553386357659"><ele>26.0</ele><time>2026-04-18T08:23:59Z</time></trkpt><trkpt lat="42.49098209475648" lon="11.353682969089373"><ele>26.0</ele><time>2026-04-18T08:24:00Z</time></trkpt><trkpt lat="42.49100734118833" lon="11.353791785389657"><ele>26.0</ele><time>2026-04-18T08:24:01Z</time></trkpt><trkpt lat="42.49102722401193" lon="11.353899957922874"><ele>25.999999999999996</ele><time>2026-04-18T08:24:02Z</time></trkpt><trkpt lat="42.491046706062946" lon="11.354017346949224"><ele>26.0</ele><time>2026-04-18T08:24:03Z</time></trkpt><trkpt lat="42.491052113411705" lon="11.354126900209565"><ele>26.0</ele><time>2026-04-18T08:24:04Z</time></trkpt><trkpt lat="42.49108265679265" lon="11.354225035687648"><ele>26.0</ele><time>2026-04-18T08:24:05Z</time></trkpt><trkpt lat="42.49109953473089" lon="11.354373601604486"><ele>25.999999999999996</ele><time>2026-04-18T08:24:07Z</time></trkpt><trkpt lat="42.491126702813375" lon="11.354463851381748"><ele>26.0</ele><time>2026-04-18T08:24:09Z</time></trkpt><trkpt lat="42.491131571530246" lon="11.354565001777926"><ele>25.999999999999996</ele><time>2026-04-18T08:24:11Z</time></trkpt><trkpt lat="42.49109536147732" lon="11.354637606276594"><ele>26.0</ele><time>2026-04-18T08:24:12Z</time></trkpt><trkpt lat="42.491046430607675" lon="11.35472181968061"><ele>26.0</ele><time>2026-04-18T08:24:13Z</time></trkpt><trkpt lat="42.49099601409612" lon="11.354819890150502"><ele>26.0</ele><time>2026-04-18T08:24:14Z</time></trkpt><trkpt lat="42.49094086528019" lon="11.35493446897913"><ele>25.999999999999996</ele><time>2026-04-18T08:24:15Z</time></trkpt><trkpt lat="42.490884173996044" lon="11.355059985028769"><ele>26.0</ele><time>2026-04-18T08:24:16Z</time></trkpt><trkpt lat="42.49081926200722" lon="11.355197432244829"><ele>25.75</ele><time>2026-04-18T08:24:17Z</time></trkpt><trkpt lat="42.49074830585124" lon="11.355342946264535"><ele>25.5</ele><time>2026-04-18T08:24:18Z</time></trkpt><trkpt lat="42.49067768025923" lon="11.35548955533434"><ele>25.25</ele><time>2026-04-18T08:24:19Z</time></trkpt><trkpt lat="42.49060730788226" lon="11.355635684705698"><ele>25.0</ele><time>2026-04-18T08:24:20Z</time></trkpt><trkpt lat="42.49053138645126" lon="11.355794943459644"><ele>25.0</ele><time>2026-04-18T08:24:21Z</time></trkpt><trkpt lat="42.490451412878244" lon="11.35595928645217"><ele>25.0</ele><time>2026-04-18T08:24:22Z</time></trkpt><trkpt lat="42.490369097519" lon="11.356130576015653"><ele>25.0</ele><time>2026-04-18T08:24:23Z</time></trkpt><trkpt lat="42.49029302782611" lon="11.356288769938498"><ele>25.0</ele><time>2026-04-18T08:24:24Z</time></trkpt><trkpt lat="42.490216055713994" lon="11.356453024084207"><ele>26.666666666666668</ele><time>2026-04-18T08:24:25Z</time></trkpt><trkpt lat="42.49013569902977" lon="11.3566238169256"><ele>28.333333333333336</ele><time>2026-04-18T08:24:26Z</time></trkpt><trkpt lat="42.490051270216554" lon="11.356793447811706"><ele>30.0</ele><time>2026-04-18T08:24:27Z</time></trkpt><trkpt lat="42.489964127384816" lon="11.356969022483376"><ele>30.0</ele><time>2026-04-18T08:24:28Z</time></trkpt><trkpt lat="42.48987410682055" lon="11.357155477816839"><ele>30.0</ele><time>2026-04-18T08:24:29Z</time></trkpt><trkpt lat="42.489782545812865" lon="11.357351602717477"><ele>30.0</ele><time>2026-04-18T08:24:30Z</time></trkpt><trkpt lat="42.48968611152535" lon="11.357548033155627"><ele>30.666666666666664</ele><time>2026-04-18T08:24:31Z</time></trkpt><trkpt lat="42.48958830059474" lon="11.35774153930481"><ele>31.333333333333332</ele><time>2026-04-18T08:24:32Z</time></trkpt><trkpt lat="42.48949854062607" lon="11.357928852207806"><ele>32.0</ele><time>2026-04-18T08:24:33Z</time></trkpt><trkpt lat="42.48941069792439" lon="11.35812111481478"><ele>32.33333333333333</ele><time>2026-04-18T08:24:34Z</time></trkpt><trkpt lat="42.48931993102265" lon="11.358318292916698"><ele>32.666666666666664</ele><time>2026-04-18T08:24:35Z</time></trkpt><trkpt lat="42.48922421303608" lon="11.358510787582592"><ele>33.0</ele><time>2026-04-18T08:24:36Z</time></trkpt><trkpt lat="42.48912709943406" lon="11.358699323973534"><ele>32.666666666666664</ele><time>2026-04-18T08:24:37Z</time></trkpt><trkpt lat="42.48903259970235" lon="11.358894740200588"><ele>32.33333333333333</ele><time>2026-04-18T08:24:38Z</time></trkpt><trkpt lat="42.488937415243626" lon="11.359099732435702"><ele>32.0</ele><time>2026-04-18T08:24:39Z</time></trkpt><trkpt lat="42.488839217904" lon="11.359300189292576"><ele>33.0</ele><time>2026-04-18T08:24:40Z</time></trkpt><trkpt lat="42.488742292247025" lon="11.359499458965084"><ele>34.0</ele><time>2026-04-18T08:24:41Z</time></trkpt><trkpt lat="42.48865120910822" lon="11.359688821097073"><ele>35.0</ele><time>2026-04-18T08:24:42Z</time></trkpt><trkpt lat="42.48855801317146" lon="11.359889495684738"><ele>35.0</ele><time>2026-04-18T08:24:43Z</time></trkpt><trkpt lat="42.488458490128956" lon="11.36008495926999"><ele>35.0</ele><time>2026-04-18T08:24:44Z</time></trkpt><trkpt lat="42.48835858103731" lon="11.360287408604279"><ele>35.0</ele><time>2026-04-18T08:24:45Z</time></trkpt><trkpt lat="42.48826514826716" lon="11.360487621048616"><ele>34.33333333333333</ele><time>2026-04-18T08:24:46Z</time></trkpt><trkpt lat="42.48817094954848" lon="11.360682446019634"><ele>33.666666666666664</ele><time>2026-04-18T08:24:47Z</time></trkpt><trkpt lat="42.488078569924824" lon="11.360869521731754"><ele>33.0</ele><time>2026-04-18T08:24:48Z</time></trkpt><trkpt lat="42.487987431377285" lon="11.361053364562302"><ele>33.333333333333336</ele><time>2026-04-18T08:24:49Z</time></trkpt><trkpt lat="42.487893192251576" lon="11.361240831133738"><ele>33.66666666666667</ele><time>2026-04-18T08:24:49.999Z</time></trkpt><trkpt lat="42.48780436878245" lon="11.361431674141537"><ele>34.0</ele><time>2026-04-18T08:24:50.999Z</time></trkpt><trkpt lat="42.48771037813455" lon="11.361615845073093"><ele>33.0</ele><time>2026-04-18T08:24:51.999Z</time></trkpt><trkpt lat="42.48761978509679" lon="11.36180789055479"><ele>32.0</ele><time>2026-04-18T08:24:52.999Z</time></trkpt><trkpt lat="42.48752760183004" lon="11.361998934439933"><ele>31.0</ele><time>2026-04-18T08:24:53.999Z</time></trkpt><trkpt lat="42.48743376593373" lon="11.362198898166719"><ele>30.666666666666668</ele><time>2026-04-18T08:24:54.999Z</time></trkpt><trkpt lat="42.487336641145134" lon="11.362387511125974"><ele>30.333333333333336</ele><time>2026-04-18T08:24:55.999Z</time></trkpt><trkpt lat="42.48724026962977" lon="11.362582832048028"><ele>30.0</ele><time>2026-04-18T08:24:56.999Z</time></trkpt><trkpt lat="42.48714287114631" lon="11.362776337432376"><ele>30.0</ele><time>2026-04-18T08:24:57.999Z</time></trkpt><trkpt lat="42.48704832875643" lon="11.362973381512564"><ele>30.0</ele><time>2026-04-18T08:24:58.999Z</time></trkpt><trkpt lat="42.48695198062147" lon="11.36316694251476"><ele>30.0</ele><time>2026-04-18T08:24:59.999Z</time></trkpt><trkpt lat="42.48685513558294" lon="11.363366577729577"><ele>30.0</ele><time>2026-04-18T08:25:00.999Z</time></trkpt><trkpt lat="42.48675761615171" lon="11.363566528851177"><ele>30.0</ele><time>2026-04-18T08:25:01.999Z</time></trkpt><trkpt lat="42.486659622852265" lon="11.363767047436665"><ele>30.0</ele><time>2026-04-18T08:25:02.999Z</time></trkpt><trkpt lat="42.486563682692655" lon="11.363966368317355"><ele>30.0</ele><time>2026-04-18T08:25:03.999Z</time></trkpt><trkpt lat="42.48646834203376" lon="11.364159699586999"><ele>30.0</ele><time>2026-04-18T08:25:04.999Z</time></trkpt><trkpt lat="42.48637267268862" lon="11.364347854877106"><ele>30.0</ele><time>2026-04-18T08:25:05.999Z</time></trkpt><trkpt lat="42.4862810495619" lon="11.364538637191751"><ele>30.0</ele><time>2026-04-18T08:25:06.999Z</time></trkpt><trkpt lat="42.486186937664165" lon="11.36472880115953"><ele>30.0</ele><time>2026-04-18T08:25:07.999Z</time></trkpt><trkpt lat="42.486095508258366" lon="11.364918013246733"><ele>30.0</ele><time>2026-04-18T08:25:08.999Z</time></trkpt><trkpt lat="42.48600162870618" lon="11.365113634643077"><ele>30.0</ele><time>2026-04-18T08:25:09.999Z</time></trkpt><trkpt lat="42.48590984171282" lon="11.365310576138501"><ele>30.0</ele><time>2026-04-18T08:25:10.999Z</time></trkpt><trkpt lat="42.48581527201159" lon="11.365508723746997"><ele>30.0</ele><time>2026-04-18T08:25:11.999Z</time></trkpt><trkpt lat="42.48571564142651" lon="11.365702714340985"><ele>30.333333333333336</ele><time>2026-04-18T08:25:12.999Z</time></trkpt><trkpt lat="42.48562030567339" lon="11.365901860924021"><ele>30.666666666666668</ele><time>2026-04-18T08:25:13.999Z</time></trkpt><trkpt lat="42.48552138197942" lon="11.366099265070257"><ele>31.0</ele><time>2026-04-18T08:25:14.999Z</time></trkpt><trkpt lat="42.48542599958446" lon="11.366296786614493"><ele>32.0</ele><time>2026-04-18T08:25:15.999Z</time></trkpt><trkpt lat="42.48532601055681" lon="11.3664874063426"><ele>33.0</ele><time>2026-04-18T08:25:16.999Z</time></trkpt><trkpt lat="42.48522836247525" lon="11.366685979037223"><ele>34.0</ele><time>2026-04-18T08:25:17.999Z</time></trkpt><trkpt lat="42.48512928568044" lon="11.36688180627753"><ele>34.0</ele><time>2026-04-18T08:25:18.999Z</time></trkpt><trkpt lat="42.48503855150652" lon="11.367091545387687"><ele>34.0</ele><time>2026-04-18T08:25:19.999Z</time></trkpt><trkpt lat="42.48494019345297" lon="11.367289267432678"><ele>34.0</ele><time>2026-04-18T08:25:20.999Z</time></trkpt><trkpt lat="42.48483883064605" lon="11.367490379234297"><ele>33.66666666666667</ele><time>2026-04-18T08:25:21.999Z</time></trkpt><trkpt lat="42.48473715677462" lon="11.367695005327265"><ele>33.333333333333336</ele><time>2026-04-18T08:25:22.999Z</time></trkpt><trkpt lat="42.48463071271897" lon="11.367898844817132"><ele>33.0</ele><time>2026-04-18T08:25:23.999Z</time></trkpt><trkpt lat="42.48452950809346" lon="11.368125053912175"><ele>33.666666666666664</ele><time>2026-04-18T08:25:24.999Z</time></trkpt><trkpt lat="42.48442452818178" lon="11.368338710332015"><ele>34.33333333333333</ele><time>2026-04-18T08:25:25.999Z</time></trkpt><trkpt lat="42.48432035378584" lon="11.368542256522066"><ele>35.0</ele><time>2026-04-18T08:25:26.999Z</time></trkpt><trkpt lat="42.48421693108034" lon="11.368748237847194"><ele>35.0</ele><time>2026-04-18T08:25:27.999Z</time></trkpt><trkpt lat="42.484117028666034" lon="11.368958268326235"><ele>35.0</ele><time>2026-04-18T08:25:28.999Z</time></trkpt><trkpt lat="42.484013935734566" lon="11.369169471823442"><ele>35.0</ele><time>2026-04-18T08:25:29.999Z</time></trkpt><trkpt lat="42.48390968942695" lon="11.36936800169086"><ele>35.0</ele><time>2026-04-18T08:25:30.999Z</time></trkpt><trkpt lat="42.48381056858403" lon="11.369583601038634"><ele>35.0</ele><time>2026-04-18T08:25:31.999Z</time></trkpt><trkpt lat="42.48371142584083" lon="11.369786117190337"><ele>35.0</ele><time>2026-04-18T08:25:33Z</time></trkpt><trkpt lat="42.48361363769214" lon="11.369992765926712"><ele>35.33333333333333</ele><time>2026-04-18T08:25:34Z</time></trkpt><trkpt lat="42.48351363582272" lon="11.370184776717103"><ele>35.666666666666664</ele><time>2026-04-18T08:25:35Z</time></trkpt><trkpt lat="42.48341337453049" lon="11.3703844327809"><ele>36.0</ele><time>2026-04-18T08:25:36Z</time></trkpt><trkpt lat="42.48331518568049" lon="11.370574537008133"><ele>36.0</ele><time>2026-04-18T08:25:37Z</time></trkpt><trkpt lat="42.48322141234825" lon="11.370775587660368"><ele>36.0</ele><time>2026-04-18T08:25:38Z</time></trkpt><trkpt lat="42.48312725029908" lon="11.370973090334045"><ele>36.0</ele><time>2026-04-18T08:25:39Z</time></trkpt><trkpt lat="42.48303165224396" lon="11.371179964956525"><ele>37.0</ele><time>2026-04-18T08:25:40Z</time></trkpt><trkpt lat="42.482931385680864" lon="11.37137009044038"><ele>38.0</ele><time>2026-04-18T08:25:41Z</time></trkpt><trkpt lat="42.48282724621122" lon="11.371568773574866"><ele>39.0</ele><time>2026-04-18T08:25:42Z</time></trkpt><trkpt lat="42.48272954999503" lon="11.371787788170334"><ele>40.0</ele><time>2026-04-18T08:25:43Z</time></trkpt><trkpt lat="42.482643451916054" lon="11.372010238806814"><ele>41.0</ele><time>2026-04-18T08:25:44Z</time></trkpt><trkpt lat="42.48256599834548" lon="11.37224655119899"><ele>42.0</ele><time>2026-04-18T08:25:45Z</time></trkpt><trkpt lat="42.48249624543701" lon="11.372485093137733"><ele>43.0</ele><time>2026-04-18T08:25:46Z</time></trkpt><trkpt lat="42.482409005430206" lon="11.372718164708033"><ele>44.0</ele><time>2026-04-18T08:25:47Z</time></trkpt><trkpt lat="42.48234944401093" lon="11.372949278274522"><ele>45.0</ele><time>2026-04-18T08:25:48Z</time></trkpt><trkpt lat="42.482274827071535" lon="11.373172684526468"><ele>45.333333333333336</ele><time>2026-04-18T08:25:49Z</time></trkpt><trkpt lat="42.48220222756356" lon="11.373392936169"><ele>45.66666666666667</ele><time>2026-04-18T08:25:50Z</time></trkpt><trkpt lat="42.482126794960315" lon="11.373619262003471"><ele>46.0</ele><time>2026-04-18T08:25:51Z</time></trkpt><trkpt lat="42.482053000806964" lon="11.373836022692918"><ele>48.333333333333336</ele><time>2026-04-18T08:25:52Z</time></trkpt><trkpt lat="42.48197064575351" lon="11.374049565811317"><ele>50.66666666666667</ele><time>2026-04-18T08:25:53Z</time></trkpt><trkpt lat="42.48185414017393" lon="11.374239998294078"><ele>53.0</ele><time>2026-04-18T08:25:54Z</time></trkpt><trkpt lat="42.48174668744636" lon="11.37443195362269"><ele>53.0</ele><time>2026-04-18T08:25:55Z</time></trkpt><trkpt lat="42.481647535460226" lon="11.374632264391039"><ele>53.0</ele><time>2026-04-18T08:25:56Z</time></trkpt><trkpt lat="42.481525938544294" lon="11.374798981800796"><ele>53.0</ele><time>2026-04-18T08:25:57Z</time></trkpt><trkpt lat="42.48142595884256" lon="11.375003301348652"><ele>52.333333333333336</ele><time>2026-04-18T08:25:58Z</time></trkpt><trkpt lat="42.48131720673792" lon="11.375187872859268"><ele>51.66666666666667</ele><time>2026-04-18T08:25:59Z</time></trkpt><trkpt lat="42.481208189524274" lon="11.37536552621518"><ele>51.0</ele><time>2026-04-18T08:26:00Z</time></trkpt><trkpt lat="42.48109659090226" lon="11.375547986824582"><ele>53.0</ele><time>2026-04-18T08:26:01Z</time></trkpt><trkpt lat="42.480990562134586" lon="11.37572831754004"><ele>55.0</ele><time>2026-04-18T08:26:02Z</time></trkpt><trkpt lat="42.48088380010353" lon="11.375903274546031"><ele>57.0</ele><time>2026-04-18T08:26:03Z</time></trkpt><trkpt lat="42.48077505593236" lon="11.376086061435453"><ele>57.0</ele><time>2026-04-18T08:26:04Z</time></trkpt><trkpt lat="42.48066894115131" lon="11.376278111362668"><ele>57.0</ele><time>2026-04-18T08:26:05Z</time></trkpt><trkpt lat="42.48057285432046" lon="11.376476284703473"><ele>57.0</ele><time>2026-04-18T08:26:06Z</time></trkpt><trkpt lat="42.48048540808576" lon="11.376699225278408"><ele>57.66666666666667</ele><time>2026-04-18T08:26:07Z</time></trkpt><trkpt lat="42.4804094633301" lon="11.376928487590842"><ele>58.333333333333336</ele><time>2026-04-18T08:26:08Z</time></trkpt><trkpt lat="42.48033450432541" lon="11.377164886557901"><ele>59.0</ele><time>2026-04-18T08:26:09Z</time></trkpt><trkpt lat="42.48023762344308" lon="11.37738203190411"><ele>57.66666666666667</ele><time>2026-04-18T08:26:10Z</time></trkpt><trkpt lat="42.48015080362936" lon="11.377598850230086"><ele>56.33333333333333</ele><time>2026-04-18T08:26:11Z</time></trkpt><trkpt lat="42.48006036371499" lon="11.377815209824055"><ele>55.0</ele><time>2026-04-18T08:26:12Z</time></trkpt><trkpt lat="42.479977105489475" lon="11.378047979444581"><ele>54.0</ele><time>2026-04-18T08:26:13Z</time></trkpt><trkpt lat="42.47987685687831" lon="11.378254992654082"><ele>53.0</ele><time>2026-04-18T08:26:14Z</time></trkpt><trkpt lat="42.47978144859292" lon="11.37846899085851"><ele>52.0</ele><time>2026-04-18T08:26:15Z</time></trkpt><trkpt lat="42.47967009587051" lon="11.378670435405482"><ele>52.33333333333333</ele><time>2026-04-18T08:26:16Z</time></trkpt><trkpt lat="42.479573249631265" lon="11.378877352865498"><ele>52.66666666666667</ele><time>2026-04-18T08:26:17Z</time></trkpt><trkpt lat="42.479474438412446" lon="11.379087446867185"><ele>53.0</ele><time>2026-04-18T08:26:18Z</time></trkpt><trkpt lat="42.479379578538975" lon="11.379292045829272"><ele>53.0</ele><time>2026-04-18T08:26:19Z</time></trkpt><trkpt lat="42.47928955768657" lon="11.379490377399497"><ele>53.0</ele><time>2026-04-18T08:26:20Z</time></trkpt><trkpt lat="42.479198876259474" lon="11.37969286037898"><ele>53.0</ele><time>2026-04-18T08:26:21Z</time></trkpt><trkpt lat="42.47912599493999" lon="11.37989658660794"><ele>51.0</ele><time>2026-04-18T08:26:22Z</time></trkpt><trkpt lat="42.47905894935326" lon="11.380080552063484"><ele>49.0</ele><time>2026-04-18T08:26:23Z</time></trkpt><trkpt lat="42.479023788410736" lon="11.380297796123951"><ele>47.0</ele><time>2026-04-18T08:26:24Z</time></trkpt><trkpt lat="42.47901350361134" lon="11.38053368322657"><ele>43.33333333333333</ele><time>2026-04-18T08:26:25Z</time></trkpt><trkpt lat="42.47899771189468" lon="11.380768851513434"><ele>39.666666666666664</ele><time>2026-04-18T08:26:26Z</time></trkpt><trkpt lat="42.47899116118186" lon="11.381008417745669"><ele>36.0</ele><time>2026-04-18T08:26:27Z</time></trkpt><trkpt lat="42.47898448621407" lon="11.381252528213702"><ele>35.0</ele><time>2026-04-18T08:26:28Z</time></trkpt><trkpt lat="42.47897760637646" lon="11.38150413094308"><ele>34.0</ele><time>2026-04-18T08:26:29Z</time></trkpt><trkpt lat="42.47897091269848" lon="11.381748925614836"><ele>33.0</ele><time>2026-04-18T08:26:30Z</time></trkpt><trkpt lat="42.4789640853558" lon="11.381999364667145"><ele>33.75</ele><time>2026-04-18T08:26:31Z</time></trkpt><trkpt lat="42.478958716896216" lon="11.382223723358226"><ele>34.5</ele><time>2026-04-18T08:26:32Z</time></trkpt><trkpt lat="42.478954517107816" lon="11.382417613587476"><ele>35.25</ele><time>2026-04-18T08:26:33Z</time></trkpt><trkpt lat="42.478951000807236" lon="11.38257994944123"><ele>36.0</ele><time>2026-04-18T08:26:34Z</time></trkpt><trkpt lat="42.47896001314443" lon="11.382709605454401"><ele>36.0</ele><time>2026-04-18T08:26:35Z</time></trkpt><trkpt lat="42.47895454423749" lon="11.382820958711699"><ele>36.0</ele><time>2026-04-18T08:26:36Z</time></trkpt><trkpt lat="42.47895192343831" lon="11.382909378161829"><ele>36.0</ele><time>2026-04-18T08:26:37Z</time></trkpt><trkpt lat="42.47894920052138" lon="11.38301556410849"><ele>36.0</ele><time>2026-04-18T08:26:39Z</time></trkpt><trkpt lat="42.478937579959705" lon="11.383102355577696"><ele>36.0</ele><time>2026-04-18T08:26:46Z</time></trkpt><trkpt lat="42.4789413835172" lon="11.38296661434985"><ele>36.0</ele><time>2026-04-18T08:26:49Z</time></trkpt><trkpt lat="42.4789939460945" lon="11.382684842936811"><ele>36.0</ele><time>2026-04-18T08:26:51Z</time></trkpt><trkpt lat="42.4789960537408" lon="11.382524867882905"><ele>36.0</ele><time>2026-04-18T08:26:52Z</time></trkpt><trkpt lat="42.47900061753303" lon="11.38236797453049"><ele>36.0</ele><time>2026-04-18T08:26:53Z</time></trkpt><trkpt lat="42.47900580472973" lon="11.382195337631376"><ele>36.0</ele><time>2026-04-18T08:26:54Z</time></trkpt><trkpt lat="42.47900796249811" lon="11.382006797869291"><ele>36.0</ele><time>2026-04-18T08:26:55Z</time></trkpt><trkpt lat="42.47900927032087" lon="11.381805661794125"><ele>36.0</ele><time>2026-04-18T08:26:56Z</time></trkpt><trkpt lat="42.47901814234491" lon="11.381605757490478"><ele>36.0</ele><time>2026-04-18T08:26:57Z</time></trkpt><trkpt lat="42.47902585039535" lon="11.381414893687491"><ele>36.0</ele><time>2026-04-18T08:26:58Z</time></trkpt><trkpt lat="42.47902877703485" lon="11.38122877943518"><ele>36.0</ele><time>2026-04-18T08:26:59Z</time></trkpt><trkpt lat="42.47903518076271" lon="11.381049377449074"><ele>36.0</ele><time>2026-04-18T08:27:00Z</time></trkpt><trkpt lat="42.47905181658036" lon="11.380882143976436"><ele>36.0</ele><time>2026-04-18T08:27:00.999Z</time></trkpt><trkpt lat="42.479042818613564" lon="11.380625947062251"><ele>36.0</ele><time>2026-04-18T08:27:01.999Z</time></trkpt><trkpt lat="42.47904865002112" lon="11.380481829880507"><ele>37.0</ele><time>2026-04-18T08:27:02.999Z</time></trkpt><trkpt lat="42.47905471121776" lon="11.380388290315931"><ele>38.0</ele><time>2026-04-18T08:27:03.999Z</time></trkpt><trkpt lat="42.47887587870147" lon="11.380371170855954"><ele>39.0</ele><time>2026-04-18T08:27:08.999Z</time></trkpt><trkpt lat="42.47881923378755" lon="11.380412731345412"><ele>40.0</ele><time>2026-04-18T08:27:09.999Z</time></trkpt><trkpt lat="42.47876419837331" lon="11.380474740339602"><ele>41.0</ele><time>2026-04-18T08:27:10.999Z</time></trkpt><trkpt lat="42.47871338771107" lon="11.380536822652585"><ele>41.0</ele><time>2026-04-18T08:27:11.999Z</time></trkpt><trkpt lat="42.478660019445016" lon="11.38059858041581"><ele>41.0</ele><time>2026-04-18T08:27:12.999Z</time></trkpt><trkpt lat="42.47858263726558" lon="11.38065466648573"><ele>41.0</ele><time>2026-04-18T08:27:13.999Z</time></trkpt><trkpt lat="42.478500247825316" lon="11.380720876687036"><ele>41.0</ele><time>2026-04-18T08:27:14.999Z</time></trkpt><trkpt lat="42.47841871485545" lon="11.380792439596718"><ele>41.0</ele><time>2026-04-18T08:27:15.999Z</time></trkpt><trkpt lat="42.478330983859124" lon="11.380849295589766"><ele>41.0</ele><time>2026-04-18T08:27:16.999Z</time></trkpt><trkpt lat="42.47822370694198" lon="11.380891234871521"><ele>41.0</ele><time>2026-04-18T08:27:17.999Z</time></trkpt><trkpt lat="42.4781176037272" lon="11.380950986266342"><ele>41.0</ele><time>2026-04-18T08:27:18.999Z</time></trkpt><trkpt lat="42.47801318268884" lon="11.380993333523916"><ele>41.0</ele><time>2026-04-18T08:27:19.999Z</time></trkpt><trkpt lat="42.47791137659151" lon="11.381019769841489"><ele>41.0</ele><time>2026-04-18T08:27:20.999Z</time></trkpt><trkpt lat="42.47780214189034" lon="11.381040057058222"><ele>41.0</ele><time>2026-04-18T08:27:21.999Z</time></trkpt><trkpt lat="42.47769205049958" lon="11.381052848060872"><ele>42.0</ele><time>2026-04-18T08:27:22.999Z</time></trkpt><trkpt lat="42.47757418270218" lon="11.381063431515502"><ele>43.0</ele><time>2026-04-18T08:27:23.999Z</time></trkpt><trkpt lat="42.47745147401264" lon="11.381048729684574"><ele>44.0</ele><time>2026-04-18T08:27:24.999Z</time></trkpt><trkpt lat="42.47733272878544" lon="11.381025148218072"><ele>45.0</ele><time>2026-04-18T08:27:25.999Z</time></trkpt><trkpt lat="42.477219352089655" lon="11.381003936739308"><ele>45.0</ele><time>2026-04-18T08:27:26.999Z</time></trkpt><trkpt lat="42.47711070329834" lon="11.380968443437391"><ele>45.0</ele><time>2026-04-18T08:27:27.999Z</time></trkpt><trkpt lat="42.47701996315162" lon="11.38091188009206"><ele>45.0</ele><time>2026-04-18T08:27:28.999Z</time></trkpt><trkpt lat="42.476896984633825" lon="11.38090736307752"><ele>45.0</ele><time>2026-04-18T08:27:29.999Z</time></trkpt><trkpt lat="42.47674849153425" lon="11.380870390082201"><ele>45.5</ele><time>2026-04-18T08:27:30.999Z</time></trkpt><trkpt lat="42.47662795188401" lon="11.380839416351828"><ele>46.0</ele><time>2026-04-18T08:27:31.999Z</time></trkpt><trkpt lat="42.47650780858513" lon="11.380831486965228"><ele>46.5</ele><time>2026-04-18T08:27:32.999Z</time></trkpt><trkpt lat="42.476399682791616" lon="11.380821242866004"><ele>47.0</ele><time>2026-04-18T08:27:33.999Z</time></trkpt><trkpt lat="42.47628837928262" lon="11.380819184965631"><ele>46.0</ele><time>2026-04-18T08:27:34.999Z</time></trkpt><trkpt lat="42.47616402432737" lon="11.380855382944917"><ele>45.0</ele><time>2026-04-18T08:27:35.999Z</time></trkpt><trkpt lat="42.47604408603935" lon="11.380913040013382"><ele>44.0</ele><time>2026-04-18T08:27:36.999Z</time></trkpt><trkpt lat="42.47592011310679" lon="11.380984377969504"><ele>43.0</ele><time>2026-04-18T08:27:38Z</time></trkpt><trkpt lat="42.4757994886308" lon="11.381039985184946"><ele>43.0</ele><time>2026-04-18T08:27:39Z</time></trkpt><trkpt lat="42.47567327405049" lon="11.38110029192779"><ele>43.0</ele><time>2026-04-18T08:27:40Z</time></trkpt><trkpt lat="42.47554453091163" lon="11.381131121792667"><ele>43.0</ele><time>2026-04-18T08:27:41Z</time></trkpt><trkpt lat="42.47540959636179" lon="11.381134023209675"><ele>43.0</ele><time>2026-04-18T08:27:42Z</time></trkpt><trkpt lat="42.47527012796655" lon="11.381141228651238"><ele>42.75</ele><time>2026-04-18T08:27:43Z</time></trkpt><trkpt lat="42.47513925620473" lon="11.381148839452868"><ele>42.5</ele><time>2026-04-18T08:27:44Z</time></trkpt><trkpt lat="42.475021596576184" lon="11.381156157547828"><ele>42.25</ele><time>2026-04-18T08:27:45Z</time></trkpt><trkpt lat="42.47489663008858" lon="11.381124186379816"><ele>42.0</ele><time>2026-04-18T08:27:46Z</time></trkpt><trkpt lat="42.474813110936694" lon="11.38108721880033"><ele>42.0</ele><time>2026-04-18T08:27:47Z</time></trkpt><trkpt lat="42.47470098503296" lon="11.381025023616338"><ele>42.0</ele><time>2026-04-18T08:27:48Z</time></trkpt><trkpt lat="42.474583082157324" lon="11.380982147519756"><ele>42.0</ele><time>2026-04-18T08:27:49Z</time></trkpt><trkpt lat="42.474460276802276" lon="11.380965317722449"><ele>42.0</ele><time>2026-04-18T08:27:50Z</time></trkpt><trkpt lat="42.474316907261226" lon="11.38096700553467"><ele>43.0</ele><time>2026-04-18T08:27:51Z</time></trkpt><trkpt lat="42.47418911261836" lon="11.380970994217792"><ele>44.0</ele><time>2026-04-18T08:27:52Z</time></trkpt><trkpt lat="42.47405979501543" lon="11.38098786427299"><ele>45.0</ele><time>2026-04-18T08:27:53Z</time></trkpt><trkpt lat="42.47393150840178" lon="11.381020963744184"><ele>46.0</ele><time>2026-04-18T08:27:54Z</time></trkpt><trkpt lat="42.4737916729376" lon="11.381060218752557"><ele>46.5</ele><time>2026-04-18T08:27:55Z</time></trkpt><trkpt lat="42.473666400250714" lon="11.38107555039859"><ele>47.0</ele><time>2026-04-18T08:27:56Z</time></trkpt><trkpt lat="42.47354672364011" lon="11.381069153601619"><ele>47.5</ele><time>2026-04-18T08:27:57Z</time></trkpt><trkpt lat="42.47341341797022" lon="11.381037309718922"><ele>48.0</ele><time>2026-04-18T08:27:58Z</time></trkpt><trkpt lat="42.47328132575466" lon="11.38099380650058"><ele>48.0</ele><time>2026-04-18T08:27:59Z</time></trkpt><trkpt lat="42.4731601919084" lon="11.380943531141947"><ele>48.0</ele><time>2026-04-18T08:28:00Z</time></trkpt><trkpt lat="42.47304960436619" lon="11.38088624277538"><ele>48.0</ele><time>2026-04-18T08:28:01Z</time></trkpt><trkpt lat="42.472933817571466" lon="11.380810063652705"><ele>48.0</ele><time>2026-04-18T08:28:02Z</time></trkpt><trkpt lat="42.472823784151004" lon="11.380749377955105"><ele>47.2</ele><time>2026-04-18T08:28:03Z</time></trkpt><trkpt lat="42.472731070045306" lon="11.380711308065738"><ele>46.4</ele><time>2026-04-18T08:28:04Z</time></trkpt><trkpt lat="42.472643219894366" lon="11.380701828435322"><ele>45.6</ele><time>2026-04-18T08:28:05Z</time></trkpt><trkpt lat="42.47255360980196" lon="11.380726739885542"><ele>44.800000000000004</ele><time>2026-04-18T08:28:06Z</time></trkpt><trkpt lat="42.472443872724604" lon="11.380773833085009"><ele>44.0</ele><time>2026-04-18T08:28:07Z</time></trkpt><trkpt lat="42.47232878772669" lon="11.38080979646594"><ele>44.0</ele><time>2026-04-18T08:28:08Z</time></trkpt><trkpt lat="42.472222073396665" lon="11.380832955574398"><ele>44.0</ele><time>2026-04-18T08:28:09Z</time></trkpt><trkpt lat="42.47215019299318" lon="11.38082612920308"><ele>44.0</ele><time>2026-04-18T08:28:10Z</time></trkpt><trkpt lat="42.47208901134194" lon="11.380859417194225"><ele>44.0</ele><time>2026-04-18T08:28:11Z</time></trkpt><trkpt lat="42.471969350952556" lon="11.380878375765098"><ele>44.0</ele><time>2026-04-18T08:28:13Z</time></trkpt><trkpt lat="42.47190231804116" lon="11.38088047619052"><ele>44.0</ele><time>2026-04-18T08:28:14Z</time></trkpt><trkpt lat="42.471818253308506" lon="11.38087494812838"><ele>44.0</ele><time>2026-04-18T08:28:15Z</time></trkpt><trkpt lat="42.47173358586874" lon="11.380871490383289"><ele>44.0</ele><time>2026-04-18T08:28:16Z</time></trkpt><trkpt lat="42.471654081047454" lon="11.380876046939479"><ele>44.0</ele><time>2026-04-18T08:28:17Z</time></trkpt><trkpt lat="42.471572836921766" lon="11.380886546580651"><ele>44.0</ele><time>2026-04-18T08:28:18Z</time></trkpt><trkpt lat="42.47150412220312" lon="11.38089899429645"><ele>44.0</ele><time>2026-04-18T08:28:19Z</time></trkpt><trkpt lat="42.47143209399453" lon="11.380889371078949"><ele>44.0</ele><time>2026-04-18T08:28:20Z</time></trkpt><trkpt lat="42.471359133581686" lon="11.380892879664588"><ele>44.166666666666664</ele><time>2026-04-18T08:28:21Z</time></trkpt><trkpt lat="42.47127207644788" lon="11.380922281915387"><ele>44.33333333333333</ele><time>2026-04-18T08:28:22Z</time></trkpt><trkpt lat="42.471203943431654" lon="11.380962222195421"><ele>44.5</ele><time>2026-04-18T08:28:23Z</time></trkpt><trkpt lat="42.47113494610311" lon="11.3810179652163"><ele>44.666666666666664</ele><time>2026-04-18T08:28:24Z</time></trkpt><trkpt lat="42.471058423777315" lon="11.381075726951812"><ele>44.833333333333336</ele><time>2026-04-18T08:28:25Z</time></trkpt><trkpt lat="42.470972890127044" lon="11.381131439489877"><ele>45.0</ele><time>2026-04-18T08:28:26Z</time></trkpt><trkpt lat="42.470895700669466" lon="11.381166122656259"><ele>45.0</ele><time>2026-04-18T08:28:27Z</time></trkpt><trkpt lat="42.47081398494979" lon="11.381202174359139"><ele>45.0</ele><time>2026-04-18T08:28:28Z</time></trkpt><trkpt lat="42.47073118801343" lon="11.381258244425252"><ele>45.0</ele><time>2026-04-18T08:28:29Z</time></trkpt><trkpt lat="42.470654380669004" lon="11.381308074772292"><ele>45.0</ele><time>2026-04-18T08:28:30Z</time></trkpt><trkpt lat="42.470582158895205" lon="11.381361681232296"><ele>45.0</ele><time>2026-04-18T08:28:31Z</time></trkpt><trkpt lat="42.47050425300376" lon="11.381410006845075"><ele>45.0</ele><time>2026-04-18T08:28:32Z</time></trkpt><trkpt lat="42.47042470284488" lon="11.38147187704674"><ele>45.166666666666664</ele><time>2026-04-18T08:28:33Z</time></trkpt><trkpt lat="42.47034949479812" lon="11.381545024487597"><ele>45.333333333333336</ele><time>2026-04-18T08:28:34Z</time></trkpt><trkpt lat="42.47028045628816" lon="11.381605972039267"><ele>45.5</ele><time>2026-04-18T08:28:35Z</time></trkpt><trkpt lat="42.47022205012009" lon="11.38168315051925"><ele>45.66666666666667</ele><time>2026-04-18T08:28:36Z</time></trkpt><trkpt lat="42.47016243205722" lon="11.381777454197827"><ele>45.833333333333336</ele><time>2026-04-18T08:28:37Z</time></trkpt><trkpt lat="42.47011880071922" lon="11.381885143751955"><ele>46.0</ele><time>2026-04-18T08:28:38Z</time></trkpt><trkpt lat="42.470080227705665" lon="11.3819722482863"><ele>46.0</ele><time>2026-04-18T08:28:39Z</time></trkpt><trkpt lat="42.47003530442247" lon="11.382077013797058"><ele>46.0</ele><time>2026-04-18T08:28:41Z</time></trkpt><trkpt lat="42.46999289762415" lon="11.382154322458275"><ele>46.0</ele><time>2026-04-18T08:28:44Z</time></trkpt><trkpt lat="42.46995653437308" lon="11.38225937121328"><ele>46.0</ele><time>2026-04-18T08:28:46Z</time></trkpt><trkpt lat="42.469895438230665" lon="11.38237151871464"><ele>46.0</ele><time>2026-04-18T08:28:48Z</time></trkpt><trkpt lat="42.469860604793276" lon="11.38248082125108"><ele>46.0</ele><time>2026-04-18T08:28:50Z</time></trkpt><trkpt lat="42.46984231607918" lon="11.382565066055875"><ele>45.0</ele><time>2026-04-18T08:28:52Z</time></trkpt><trkpt lat="42.46980969587044" lon="11.382694393946652"><ele>44.0</ele><time>2026-04-18T08:28:54Z</time></trkpt><trkpt lat="42.469763702879675" lon="11.382824364226332"><ele>43.0</ele><time>2026-04-18T08:28:56Z</time></trkpt><trkpt lat="42.46975054605086" lon="11.38294261063092"><ele>42.0</ele><time>2026-04-18T08:28:58Z</time></trkpt><trkpt lat="42.469749727495" lon="11.383035048897794"><ele>41.0</ele><time>2026-04-18T08:29:07Z</time></trkpt><trkpt lat="42.469752722684156" lon="11.383129267380511"><ele>40.0</ele><time>2026-04-18T08:29:10Z</time></trkpt><trkpt lat="42.46975537015549" lon="11.383221689405783"><ele>39.833333333333336</ele><time>2026-04-18T08:29:12Z</time></trkpt><trkpt lat="42.46976579153387" lon="11.38331238094703"><ele>39.66666666666667</ele><time>2026-04-18T08:29:14Z</time></trkpt><trkpt lat="42.46976401478198" lon="11.383404428285758"><ele>39.5</ele><time>2026-04-18T08:29:16Z</time></trkpt><trkpt lat="42.469794040367425" lon="11.383519758335634"><ele>39.333333333333336</ele><time>2026-04-18T08:29:18Z</time></trkpt><trkpt lat="42.46980735456292" lon="11.383681097187077"><ele>39.166666666666664</ele><time>2026-04-18T08:29:19.999Z</time></trkpt><trkpt lat="42.469811239026015" lon="11.383812554115513"><ele>39.0</ele><time>2026-04-18T08:29:21.999Z</time></trkpt><trkpt lat="42.46981260600833" lon="11.383942710120811"><ele>39.5</ele><time>2026-04-18T08:29:23.999Z</time></trkpt><trkpt lat="42.469799930799944" lon="11.384090108259498"><ele>40.0</ele><time>2026-04-18T08:29:25.999Z</time></trkpt><trkpt lat="42.469784002391584" lon="11.384192564747018"><ele>40.5</ele><time>2026-04-18T08:29:27.999Z</time></trkpt><trkpt lat="42.46976701690269" lon="11.384282724041718"><ele>41.0</ele><time>2026-04-18T08:29:28.999Z</time></trkpt><trkpt lat="42.46974372435544" lon="11.38437156790642"><ele>41.5</ele><time>2026-04-18T08:29:29.999Z</time></trkpt><trkpt lat="42.46971632012683" lon="11.38445259214758"><ele>42.0</ele><time>2026-04-18T08:29:30.999Z</time></trkpt><trkpt lat="42.469681289018226" lon="11.384537881629388"><ele>42.0</ele><time>2026-04-18T08:29:31.999Z</time></trkpt><trkpt lat="42.46966729812388" lon="11.384644340007174"><ele>42.0</ele><time>2026-04-18T08:29:33.999Z</time></trkpt><trkpt lat="42.46963704939871" lon="11.384799429815557"><ele>42.0</ele><time>2026-04-18T08:29:36.999Z</time></trkpt><trkpt lat="42.46961326632255" lon="11.384894110743216"><ele>42.0</ele><time>2026-04-18T08:29:37.999Z</time></trkpt><trkpt lat="42.469619053896956" lon="11.384980348201022"><ele>42.0</ele><time>2026-04-18T08:29:38.999Z</time></trkpt><trkpt lat="42.46962294274559" lon="11.385080138447078"><ele>42.0</ele><time>2026-04-18T08:29:39.999Z</time></trkpt><trkpt lat="42.469632753007865" lon="11.385191983953694"><ele>41.8</ele><time>2026-04-18T08:29:41.999Z</time></trkpt><trkpt lat="42.46964639062282" lon="11.385308703328866"><ele>41.6</ele><time>2026-04-18T08:29:44Z</time></trkpt><trkpt lat="42.469659111863436" lon="11.385428738851314"><ele>41.4</ele><time>2026-04-18T08:29:46Z</time></trkpt><trkpt lat="42.46965282671774" lon="11.385566434794544"><ele>41.199999999999996</ele><time>2026-04-18T08:29:48Z</time></trkpt><trkpt lat="42.46966347599189" lon="11.385703653623134"><ele>41.0</ele><time>2026-04-18T08:29:50Z</time></trkpt><trkpt lat="42.469658409195446" lon="11.385820089407256"><ele>41.0</ele><time>2026-04-18T08:29:52Z</time></trkpt><trkpt lat="42.4696584188088" lon="11.385974841881696"><ele>41.0</ele><time>2026-04-18T08:29:54Z</time></trkpt><trkpt lat="42.46965081822244" lon="11.386068517625015"><ele>41.0</ele><time>2026-04-18T08:29:55Z</time></trkpt><trkpt lat="42.46963878781869" lon="11.386161841031164"><ele>41.0</ele><time>2026-04-18T08:29:56Z</time></trkpt><trkpt lat="42.4696121738118" lon="11.386319437762376"><ele>41.0</ele><time>2026-04-18T08:29:58Z</time></trkpt><trkpt lat="42.469566663125704" lon="11.386461254572097"><ele>41.5</ele><time>2026-04-18T08:30:00Z</time></trkpt><trkpt lat="42.46951811317608" lon="11.386618827833402"><ele>42.0</ele><time>2026-04-18T08:30:02Z</time></trkpt><trkpt lat="42.46947369821706" lon="11.386701538400054"><ele>42.5</ele><time>2026-04-18T08:30:03Z</time></trkpt><trkpt lat="42.46943251983089" lon="11.386776832125234"><ele>43.0</ele><time>2026-04-18T08:30:04Z</time></trkpt><trkpt lat="42.46938375080706" lon="11.386856678862477"><ele>43.5</ele><time>2026-04-18T08:30:05Z</time></trkpt><trkpt lat="42.469319172167026" lon="11.386940485795328"><ele>44.0</ele><time>2026-04-18T08:30:06Z</time></trkpt><trkpt lat="42.469259304562996" lon="11.387005163934228"><ele>44.0</ele><time>2026-04-18T08:30:07Z</time></trkpt><trkpt lat="42.46919657436458" lon="11.387073148252583"><ele>44.0</ele><time>2026-04-18T08:30:08Z</time></trkpt><trkpt lat="42.46912537529655" lon="11.38714704699313"><ele>44.0</ele><time>2026-04-18T08:30:09Z</time></trkpt><trkpt lat="42.46906651374852" lon="11.387214256423702"><ele>44.0</ele><time>2026-04-18T08:30:10Z</time></trkpt><trkpt lat="42.46897901805809" lon="11.387328280159807"><ele>44.0</ele><time>2026-04-18T08:30:12Z</time></trkpt><trkpt lat="42.46892406391093" lon="11.387396193683818"><ele>44.0</ele><time>2026-04-18T08:30:13Z</time></trkpt><trkpt lat="42.46886439211127" lon="11.387470865761362"><ele>44.0</ele><time>2026-04-18T08:30:14Z</time></trkpt><trkpt lat="42.46879785429035" lon="11.387527403451209"><ele>44.0</ele><time>2026-04-18T08:30:15Z</time></trkpt><trkpt lat="42.468743394273936" lon="11.387592752727912"><ele>44.0</ele><time>2026-04-18T08:30:16Z</time></trkpt><trkpt lat="42.468695020939194" lon="11.387667929059173"><ele>44.0</ele><time>2026-04-18T08:30:17Z</time></trkpt><trkpt lat="42.468638567274034" lon="11.387752116944368"><ele>44.0</ele><time>2026-04-18T08:30:18Z</time></trkpt><trkpt lat="42.468588909307606" lon="11.387831548279804"><ele>44.0</ele><time>2026-04-18T08:30:19Z</time></trkpt><trkpt lat="42.4684910534215" lon="11.387925313491507"><ele>44.0</ele><time>2026-04-18T08:30:21Z</time></trkpt><trkpt lat="42.46840299616772" lon="11.388069413635273"><ele>44.0</ele><time>2026-04-18T08:30:23Z</time></trkpt><trkpt lat="42.46834354465954" lon="11.388166874033177"><ele>44.0</ele><time>2026-04-18T08:30:24Z</time></trkpt><trkpt lat="42.46829023836422" lon="11.388258181173017"><ele>44.0</ele><time>2026-04-18T08:30:25Z</time></trkpt><trkpt lat="42.46822505421014" lon="11.388335103799829"><ele>44.0</ele><time>2026-04-18T08:30:26Z</time></trkpt><trkpt lat="42.468150644409405" lon="11.388420536489026"><ele>44.0</ele><time>2026-04-18T08:30:27Z</time></trkpt><trkpt lat="42.468085719345375" lon="11.388502717571978"><ele>44.0</ele><time>2026-04-18T08:30:28Z</time></trkpt><trkpt lat="42.468019163674974" lon="11.38857005805306"><ele>44.0</ele><time>2026-04-18T08:30:29Z</time></trkpt><trkpt lat="42.46795788282301" lon="11.38863360439555"><ele>44.0</ele><time>2026-04-18T08:30:30Z</time></trkpt><trkpt lat="42.467848154741894" lon="11.388714443251542"><ele>44.0</ele><time>2026-04-18T08:30:32Z</time></trkpt><trkpt lat="42.467763188426545" lon="11.388753366773003"><ele>45.6</ele><time>2026-04-18T08:30:34Z</time></trkpt><trkpt lat="42.46765049976409" lon="11.388802723801579"><ele>47.2</ele><time>2026-04-18T08:30:36Z</time></trkpt><trkpt lat="42.46755052360729" lon="11.388890499619317"><ele>48.800000000000004</ele><time>2026-04-18T08:30:38Z</time></trkpt><trkpt lat="42.46748315134932" lon="11.388941367278955"><ele>50.400000000000006</ele><time>2026-04-18T08:30:39Z</time></trkpt><trkpt lat="42.46740880414745" lon="11.389008879811541"><ele>52.0</ele><time>2026-04-18T08:30:40Z</time></trkpt><trkpt lat="42.467331492771514" lon="11.38908140502781"><ele>51.99999999999999</ele><time>2026-04-18T08:30:41Z</time></trkpt><trkpt lat="42.46725503363785" lon="11.389135670350742"><ele>52.0</ele><time>2026-04-18T08:30:42Z</time></trkpt><trkpt lat="42.467181799317814" lon="11.389185815164456"><ele>52.0</ele><time>2026-04-18T08:30:43Z</time></trkpt><trkpt lat="42.46711076495596" lon="11.389238986120894"><ele>52.0</ele><time>2026-04-18T08:30:44Z</time></trkpt><trkpt lat="42.46702047266015" lon="11.38927375127472"><ele>51.99999999999999</ele><time>2026-04-18T08:30:45Z</time></trkpt><trkpt lat="42.46692625833282" lon="11.389320836781096"><ele>52.0</ele><time>2026-04-18T08:30:46Z</time></trkpt><trkpt lat="42.46684860014627" lon="11.389362834853303"><ele>52.2</ele><time>2026-04-18T08:30:47Z</time></trkpt><trkpt lat="42.466748939002905" lon="11.389419059805514"><ele>52.400000000000006</ele><time>2026-04-18T08:30:49Z</time></trkpt><trkpt lat="42.466670133268934" lon="11.389418919348568"><ele>52.599999999999994</ele><time>2026-04-18T08:30:50Z</time></trkpt><trkpt lat="42.46657073828884" lon="11.389554793486887"><ele>52.8</ele><time>2026-04-18T08:30:52Z</time></trkpt><trkpt lat="42.46650257343733" lon="11.38963259185498"><ele>53.0</ele><time>2026-04-18T08:30:53Z</time></trkpt><trkpt lat="42.466430680425916" lon="11.389705762259476"><ele>53.0</ele><time>2026-04-18T08:30:54Z</time></trkpt><trkpt lat="42.46636027852128" lon="11.389773578734529"><ele>53.0</ele><time>2026-04-18T08:30:55Z</time></trkpt><trkpt lat="42.4662741275879" lon="11.38985656591846"><ele>53.0</ele><time>2026-04-18T08:30:56Z</time></trkpt><trkpt lat="42.46619297955874" lon="11.389934733794576"><ele>53.0</ele><time>2026-04-18T08:30:57Z</time></trkpt><trkpt lat="42.46610844305998" lon="11.390015780737068"><ele>53.0</ele><time>2026-04-18T08:30:58Z</time></trkpt><trkpt lat="42.466022565172494" lon="11.39009757658749"><ele>52.5</ele><time>2026-04-18T08:30:59Z</time></trkpt><trkpt lat="42.465918841832995" lon="11.390195465408567"><ele>52.0</ele><time>2026-04-18T08:31:00Z</time></trkpt><trkpt lat="42.46582453944914" lon="11.39030799821473"><ele>51.5</ele><time>2026-04-18T08:31:01Z</time></trkpt><trkpt lat="42.465729042704254" lon="11.390394067999848"><ele>51.0</ele><time>2026-04-18T08:31:02Z</time></trkpt><trkpt lat="42.46562479324282" lon="11.390493556514095"><ele>50.5</ele><time>2026-04-18T08:31:03Z</time></trkpt><trkpt lat="42.465528381499006" lon="11.390581817954676"><ele>50.0</ele><time>2026-04-18T08:31:04Z</time></trkpt><trkpt lat="42.465423532071156" lon="11.390687456540617"><ele>49.5</ele><time>2026-04-18T08:31:05Z</time></trkpt><trkpt lat="42.465323769480094" lon="11.390785832331941"><ele>49.0</ele><time>2026-04-18T08:31:06Z</time></trkpt><trkpt lat="42.465226967885044" lon="11.390881357823279"><ele>49.0</ele><time>2026-04-18T08:31:07Z</time></trkpt><trkpt lat="42.465136386441735" lon="11.390975096013646"><ele>49.0</ele><time>2026-04-18T08:31:08Z</time></trkpt><trkpt lat="42.465044857247534" lon="11.391072913942605"><ele>49.0</ele><time>2026-04-18T08:31:09Z</time></trkpt><trkpt lat="42.46495197909814" lon="11.391168820214526"><ele>49.0</ele><time>2026-04-18T08:31:10Z</time></trkpt><trkpt lat="42.464863573701464" lon="11.391278765862506"><ele>49.75</ele><time>2026-04-18T08:31:11Z</time></trkpt><trkpt lat="42.464788076526446" lon="11.391400986349844"><ele>50.5</ele><time>2026-04-18T08:31:12Z</time></trkpt><trkpt lat="42.46469434529958" lon="11.39149576778048"><ele>51.25</ele><time>2026-04-18T08:31:13Z</time></trkpt><trkpt lat="42.464612806369324" lon="11.391622341392287"><ele>52.0</ele><time>2026-04-18T08:31:14Z</time></trkpt><trkpt lat="42.464525003643374" lon="11.391730880407488"><ele>50.5</ele><time>2026-04-18T08:31:15Z</time></trkpt><trkpt lat="42.46442401108044" lon="11.391816465094267"><ele>49.0</ele><time>2026-04-18T08:31:16Z</time></trkpt><trkpt lat="42.464327713474816" lon="11.391912343382195"><ele>47.5</ele><time>2026-04-18T08:31:17Z</time></trkpt><trkpt lat="42.46423730673355" lon="11.392021366630992"><ele>46.0</ele><time>2026-04-18T08:31:18Z</time></trkpt><trkpt lat="42.46413526499916" lon="11.392106861158092"><ele>46.0</ele><time>2026-04-18T08:31:19Z</time></trkpt><trkpt lat="42.464029316707744" lon="11.392195222333925"><ele>46.0</ele><time>2026-04-18T08:31:20Z</time></trkpt><trkpt lat="42.46391971769835" lon="11.392285434474465"><ele>46.0</ele><time>2026-04-18T08:31:21Z</time></trkpt><trkpt lat="42.463815372780935" lon="11.39237328964963"><ele>46.0</ele><time>2026-04-18T08:31:22Z</time></trkpt><trkpt lat="42.46371572090814" lon="11.392458953412484"><ele>46.0</ele><time>2026-04-18T08:31:23Z</time></trkpt><trkpt lat="42.4636078783752" lon="11.392560216618067"><ele>46.0</ele><time>2026-04-18T08:31:24Z</time></trkpt><trkpt lat="42.46350406584459" lon="11.392659549085305"><ele>46.0</ele><time>2026-04-18T08:31:25Z</time></trkpt><trkpt lat="42.463410935809556" lon="11.392746951852116"><ele>46.0</ele><time>2026-04-18T08:31:26Z</time></trkpt><trkpt lat="42.463304076407134" lon="11.392837734251744"><ele>46.0</ele><time>2026-04-18T08:31:27Z</time></trkpt><trkpt lat="42.46320057294348" lon="11.392924985278887"><ele>46.0</ele><time>2026-04-18T08:31:27.999Z</time></trkpt><trkpt lat="42.46309232271118" lon="11.393012012354282"><ele>46.0</ele><time>2026-04-18T08:31:28.999Z</time></trkpt><trkpt lat="42.462983595132755" lon="11.393091964828129"><ele>46.0</ele><time>2026-04-18T08:31:29.999Z</time></trkpt><trkpt lat="42.46287874860152" lon="11.393166231294542"><ele>45.8</ele><time>2026-04-18T08:31:30.999Z</time></trkpt><trkpt lat="42.462785400459936" lon="11.393235826221265"><ele>45.599999999999994</ele><time>2026-04-18T08:31:31.999Z</time></trkpt><trkpt lat="42.462693604162915" lon="11.39329628840891"><ele>45.4</ele><time>2026-04-18T08:31:32.999Z</time></trkpt><trkpt lat="42.46259823359689" lon="11.393369709277819"><ele>45.2</ele><time>2026-04-18T08:31:33.999Z</time></trkpt><trkpt lat="42.462516034739565" lon="11.39346428204366"><ele>45.0</ele><time>2026-04-18T08:31:34.999Z</time></trkpt><trkpt lat="42.4624431411378" lon="11.393578123236562"><ele>45.0</ele><time>2026-04-18T08:31:35.999Z</time></trkpt><trkpt lat="42.46238870898703" lon="11.393672926830392"><ele>45.0</ele><time>2026-04-18T08:31:36.999Z</time></trkpt><trkpt lat="42.46234202617579" lon="11.39374873037122"><ele>45.0</ele><time>2026-04-18T08:31:37.999Z</time></trkpt><trkpt lat="42.46229595265786" lon="11.393870561131552"><ele>45.0</ele><time>2026-04-18T08:31:39.999Z</time></trkpt><trkpt lat="42.4622591793488" lon="11.393993491428754"><ele>45.0</ele><time>2026-04-18T08:31:43.999Z</time></trkpt><trkpt lat="42.46222778129075" lon="11.394074711643563"><ele>45.0</ele><time>2026-04-18T08:31:44.999Z</time></trkpt><trkpt lat="42.462195950330006" lon="11.39416505391033"><ele>45.0</ele><time>2026-04-18T08:31:45.999Z</time></trkpt><trkpt lat="42.46214705806888" lon="11.39424745146875"><ele>45.0</ele><time>2026-04-18T08:31:46.999Z</time></trkpt><trkpt lat="42.46211946937855" lon="11.39434424119633"><ele>45.0</ele><time>2026-04-18T08:31:47.999Z</time></trkpt><trkpt lat="42.462077996367874" lon="11.394457994547945"><ele>45.0</ele><time>2026-04-18T08:31:49Z</time></trkpt><trkpt lat="42.462033583733174" lon="11.394581123001444"><ele>45.0</ele><time>2026-04-18T08:31:50Z</time></trkpt><trkpt lat="42.46197401710369" lon="11.394691471047391"><ele>45.8</ele><time>2026-04-18T08:31:51Z</time></trkpt><trkpt lat="42.46193571109815" lon="11.394832099567113"><ele>46.6</ele><time>2026-04-18T08:31:52Z</time></trkpt><trkpt lat="42.461882831853224" lon="11.394958470511078"><ele>47.400000000000006</ele><time>2026-04-18T08:31:53Z</time></trkpt><trkpt lat="42.46182909721916" lon="11.395084110995718"><ele>48.2</ele><time>2026-04-18T08:31:54Z</time></trkpt><trkpt lat="42.461772772579636" lon="11.395213898800353"><ele>49.0</ele><time>2026-04-18T08:31:55Z</time></trkpt><trkpt lat="42.461718062577305" lon="11.395355686884997"><ele>49.0</ele><time>2026-04-18T08:31:56Z</time></trkpt><trkpt lat="42.46166448926167" lon="11.395481176187836"><ele>49.0</ele><time>2026-04-18T08:31:57Z</time></trkpt><trkpt lat="42.46160318659491" lon="11.395611159602174"><ele>49.0</ele><time>2026-04-18T08:31:58Z</time></trkpt><trkpt lat="42.461559861934774" lon="11.39573678647709"><ele>49.0</ele><time>2026-04-18T08:31:59Z</time></trkpt><trkpt lat="42.461504880271455" lon="11.395874763430491"><ele>49.0</ele><time>2026-04-18T08:32:00Z</time></trkpt><trkpt lat="42.46143531105123" lon="11.395994007840669"><ele>49.6</ele><time>2026-04-18T08:32:01Z</time></trkpt><trkpt lat="42.46139017605498" lon="11.396103891174162"><ele>50.2</ele><time>2026-04-18T08:32:02Z</time></trkpt><trkpt lat="42.461348224297794" lon="11.396207019406182"><ele>50.800000000000004</ele><time>2026-04-18T08:32:03Z</time></trkpt><trkpt lat="42.46129688885196" lon="11.396333717954233"><ele>51.400000000000006</ele><time>2026-04-18T08:32:04Z</time></trkpt><trkpt lat="42.46124733351458" lon="11.396456022888458"><ele>52.0</ele><time>2026-04-18T08:32:05Z</time></trkpt><trkpt lat="42.46119938662737" lon="11.39657435818502"><ele>54.0</ele><time>2026-04-18T08:32:06Z</time></trkpt><trkpt lat="42.461153756173076" lon="11.396686976337964"><ele>56.0</ele><time>2026-04-18T08:32:07Z</time></trkpt><trkpt lat="42.4611077351071" lon="11.396800558654016"><ele>58.0</ele><time>2026-04-18T08:32:08Z</time></trkpt><trkpt lat="42.461061244657984" lon="11.396917355118418"><ele>60.0</ele><time>2026-04-18T08:32:09Z</time></trkpt><trkpt lat="42.461009602542" lon="11.39705081875328"><ele>62.0</ele><time>2026-04-18T08:32:10Z</time></trkpt><trkpt lat="42.46096232556107" lon="11.397173001124326"><ele>62.8</ele><time>2026-04-18T08:32:11Z</time></trkpt><trkpt lat="42.460919920094234" lon="11.397280293835248"><ele>63.6</ele><time>2026-04-18T08:32:12Z</time></trkpt><trkpt lat="42.46087129157244" lon="11.39739740823225"><ele>64.39999999999999</ele><time>2026-04-18T08:32:13Z</time></trkpt><trkpt lat="42.460821272244225" lon="11.397513853270354"><ele>65.2</ele><time>2026-04-18T08:32:14Z</time></trkpt><trkpt lat="42.46076726521865" lon="11.397638007706753"><ele>66.0</ele><time>2026-04-18T08:32:15Z</time></trkpt><trkpt lat="42.46071651883682" lon="11.397754666409167"><ele>66.0</ele><time>2026-04-18T08:32:16Z</time></trkpt><trkpt lat="42.46066489571615" lon="11.397875930762806"><ele>66.0</ele><time>2026-04-18T08:32:17Z</time></trkpt><trkpt lat="42.460613802269144" lon="11.398001445082702"><ele>66.0</ele><time>2026-04-18T08:32:18Z</time></trkpt><trkpt lat="42.460565005491084" lon="11.398131981085665"><ele>66.0</ele><time>2026-04-18T08:32:19Z</time></trkpt><trkpt lat="42.46051883159143" lon="11.398255933133422"><ele>66.0</ele><time>2026-04-18T08:32:20Z</time></trkpt><trkpt lat="42.46047662669834" lon="11.398369230561551"><ele>66.0</ele><time>2026-04-18T08:32:21Z</time></trkpt><trkpt lat="42.460439278358976" lon="11.39849812865397"><ele>66.0</ele><time>2026-04-18T08:32:22Z</time></trkpt><trkpt lat="42.46038877846609" lon="11.398619175510266"><ele>66.0</ele><time>2026-04-18T08:32:23Z</time></trkpt><trkpt lat="42.460340463115415" lon="11.398744356067189"><ele>66.0</ele><time>2026-04-18T08:32:24Z</time></trkpt><trkpt lat="42.4603007741864" lon="11.39887855546339"><ele>66.0</ele><time>2026-04-18T08:32:25Z</time></trkpt><trkpt lat="42.460262756457546" lon="11.399037750185897"><ele>66.0</ele><time>2026-04-18T08:32:26Z</time></trkpt><trkpt lat="42.46021670009811" lon="11.399187917116203"><ele>66.0</ele><time>2026-04-18T08:32:27Z</time></trkpt><trkpt lat="42.46018508168594" lon="11.399307103758176"><ele>66.0</ele><time>2026-04-18T08:32:28Z</time></trkpt><trkpt lat="42.460149603813086" lon="11.399415165747037"><ele>66.0</ele><time>2026-04-18T08:32:29Z</time></trkpt><trkpt lat="42.46011476072638" lon="11.399501647823792"><ele>66.0</ele><time>2026-04-18T08:32:30Z</time></trkpt><trkpt lat="42.46009706524489" lon="11.399616425221934"><ele>66.2</ele><time>2026-04-18T08:32:31Z</time></trkpt><trkpt lat="42.46004807593249" lon="11.399733864160966"><ele>66.39999999999999</ele><time>2026-04-18T08:32:32Z</time></trkpt><trkpt lat="42.460006853829036" lon="11.399877411796032"><ele>66.6</ele><time>2026-04-18T08:32:33Z</time></trkpt><trkpt lat="42.45997275859953" lon="11.400017582119157"><ele>66.8</ele><time>2026-04-18T08:32:34Z</time></trkpt><trkpt lat="42.459935897358974" lon="11.400156154492624"><ele>67.0</ele><time>2026-04-18T08:32:35Z</time></trkpt><trkpt lat="42.45989957138965" lon="11.400263739954257"><ele>67.0</ele><time>2026-04-18T08:32:36Z</time></trkpt><trkpt lat="42.45986456561129" lon="11.400379121168648"><ele>67.0</ele><time>2026-04-18T08:32:37Z</time></trkpt><trkpt lat="42.4598334305942" lon="11.400483320173768"><ele>67.0</ele><time>2026-04-18T08:32:38Z</time></trkpt><trkpt lat="42.45979638361256" lon="11.400562990022825"><ele>67.0</ele><time>2026-04-18T08:32:39Z</time></trkpt><trkpt lat="42.45977431665875" lon="11.400683709631727"><ele>67.0</ele><time>2026-04-18T08:32:40Z</time></trkpt><trkpt lat="42.45974884933213" lon="11.400777781627276"><ele>67.0</ele><time>2026-04-18T08:32:41Z</time></trkpt><trkpt lat="42.45974040100126" lon="11.400897127198064"><ele>67.0</ele><time>2026-04-18T08:32:42Z</time></trkpt><trkpt lat="42.45974736434173" lon="11.40101647224944"><ele>67.0</ele><time>2026-04-18T08:32:43Z</time></trkpt><trkpt lat="42.45976449346791" lon="11.401150288448733"><ele>67.0</ele><time>2026-04-18T08:32:44Z</time></trkpt><trkpt lat="42.45977288157511" lon="11.40127498036308"><ele>67.0</ele><time>2026-04-18T08:32:45Z</time></trkpt><trkpt lat="42.45974634410774" lon="11.401401298406117"><ele>67.0</ele><time>2026-04-18T08:32:46Z</time></trkpt><trkpt lat="42.45969567556455" lon="11.401517942399083"><ele>67.0</ele><time>2026-04-18T08:32:47Z</time></trkpt><trkpt lat="42.45967059202784" lon="11.401650158725676"><ele>67.0</ele><time>2026-04-18T08:32:48Z</time></trkpt><trkpt lat="42.45965233097057" lon="11.40177710331121"><ele>67.0</ele><time>2026-04-18T08:32:49Z</time></trkpt><trkpt lat="42.4596391726589" lon="11.401899859603349"><ele>67.0</ele><time>2026-04-18T08:32:50Z</time></trkpt><trkpt lat="42.45962556133101" lon="11.40202592208519"><ele>67.0</ele><time>2026-04-18T08:32:51Z</time></trkpt><trkpt lat="42.45960580000942" lon="11.402148327228014"><ele>65.4</ele><time>2026-04-18T08:32:52Z</time></trkpt><trkpt lat="42.45957416454421" lon="11.402257053135187"><ele>63.800000000000004</ele><time>2026-04-18T08:32:53Z</time></trkpt><trkpt lat="42.45953428794987" lon="11.402365520758705"><ele>62.2</ele><time>2026-04-18T08:32:54Z</time></trkpt><trkpt lat="42.45948946159172" lon="11.402484334262418"><ele>60.6</ele><time>2026-04-18T08:32:55Z</time></trkpt><trkpt lat="42.45946178017806" lon="11.40260402361938"><ele>59.0</ele><time>2026-04-18T08:32:56Z</time></trkpt><trkpt lat="42.45941155580102" lon="11.402724419910696"><ele>59.0</ele><time>2026-04-18T08:32:57Z</time></trkpt><trkpt lat="42.459363117981134" lon="11.402851244113323"><ele>59.00000000000001</ele><time>2026-04-18T08:32:58Z</time></trkpt><trkpt lat="42.45930896155109" lon="11.402973578774098"><ele>59.00000000000001</ele><time>2026-04-18T08:32:59Z</time></trkpt><trkpt lat="42.459254327361855" lon="11.40310605742969"><ele>59.0</ele><time>2026-04-18T08:33:00Z</time></trkpt><trkpt lat="42.459203770801636" lon="11.403237677560513"><ele>59.0</ele><time>2026-04-18T08:33:01Z</time></trkpt><trkpt lat="42.459146312982" lon="11.403373866611682"><ele>59.6</ele><time>2026-04-18T08:33:02Z</time></trkpt><trkpt lat="42.45909320864837" lon="11.40350565448839"><ele>60.2</ele><time>2026-04-18T08:33:03Z</time></trkpt><trkpt lat="42.45904181373317" lon="11.403640121005"><ele>60.800000000000004</ele><time>2026-04-18T08:33:04Z</time></trkpt><trkpt lat="42.45898844230744" lon="11.403770909884967"><ele>61.400000000000006</ele><time>2026-04-18T08:33:05Z</time></trkpt><trkpt lat="42.45893974108482" lon="11.403905122551873"><ele>62.0</ele><time>2026-04-18T08:33:06Z</time></trkpt><trkpt lat="42.45888806563859" lon="11.404048144125323"><ele>61.25</ele><time>2026-04-18T08:33:07Z</time></trkpt><trkpt lat="42.4588322890655" lon="11.40419556884267"><ele>60.5</ele><time>2026-04-18T08:33:08Z</time></trkpt><trkpt lat="42.458771319716014" lon="11.404350143263075"><ele>59.75</ele><time>2026-04-18T08:33:09Z</time></trkpt><trkpt lat="42.4587043546318" lon="11.404509546294861"><ele>59.0</ele><time>2026-04-18T08:33:10Z</time></trkpt><trkpt lat="42.45864420073338" lon="11.404670789297066"><ele>59.0</ele><time>2026-04-18T08:33:11Z</time></trkpt><trkpt lat="42.458587547223054" lon="11.404820965121887"><ele>59.0</ele><time>2026-04-18T08:33:12Z</time></trkpt><trkpt lat="42.458528178079824" lon="11.40496585387318"><ele>59.0</ele><time>2026-04-18T08:33:13Z</time></trkpt><trkpt lat="42.45846676355149" lon="11.40511632251182"><ele>59.0</ele><time>2026-04-18T08:33:14Z</time></trkpt><trkpt lat="42.458413989286434" lon="11.40526956090888"><ele>59.0</ele><time>2026-04-18T08:33:15Z</time></trkpt><trkpt lat="42.458374292622736" lon="11.405433139210688"><ele>59.0</ele><time>2026-04-18T08:33:16Z</time></trkpt><trkpt lat="42.45834475922585" lon="11.405603961737985"><ele>59.0</ele><time>2026-04-18T08:33:17Z</time></trkpt><trkpt lat="42.45831262930142" lon="11.405781639113291"><ele>59.0</ele><time>2026-04-18T08:33:18Z</time></trkpt><trkpt lat="42.45824619745608" lon="11.405931790063084"><ele>59.6</ele><time>2026-04-18T08:33:19Z</time></trkpt><trkpt lat="42.458192845460296" lon="11.40608131519901"><ele>60.2</ele><time>2026-04-18T08:33:20Z</time></trkpt><trkpt lat="42.45814813127272" lon="11.406187110923502"><ele>60.800000000000004</ele><time>2026-04-18T08:33:21Z</time></trkpt><trkpt lat="42.45806808725209" lon="11.406293072372502"><ele>61.400000000000006</ele><time>2026-04-18T08:33:23Z</time></trkpt><trkpt lat="42.45794505984797" lon="11.406302751157845"><ele>62.0</ele><time>2026-04-18T08:33:25Z</time></trkpt><trkpt lat="42.45784383980973" lon="11.406345811856696"><ele>62.6</ele><time>2026-04-18T08:33:26Z</time></trkpt><trkpt lat="42.457747721979246" lon="11.406383484964495"><ele>63.2</ele><time>2026-04-18T08:33:27Z</time></trkpt><trkpt lat="42.45767026689032" lon="11.406412349350278"><ele>63.8</ele><time>2026-04-18T08:33:28Z</time></trkpt><trkpt lat="42.457565003104435" lon="11.406433598625243"><ele>64.4</ele><time>2026-04-18T08:33:30Z</time></trkpt><trkpt lat="42.457534752809394" lon="11.406634962124526"><ele>65.0</ele><time>2026-04-18T08:33:32Z</time></trkpt><trkpt lat="42.45750244591837" lon="11.406736539962337"><ele>65.0</ele><time>2026-04-18T08:33:33Z</time></trkpt><trkpt lat="42.457488665190766" lon="11.406846080626805"><ele>65.0</ele><time>2026-04-18T08:33:34Z</time></trkpt><trkpt lat="42.45748046963267" lon="11.406961138889681"><ele>65.0</ele><time>2026-04-18T08:33:35Z</time></trkpt><trkpt lat="42.45747897542434" lon="11.407085547089482"><ele>65.0</ele><time>2026-04-18T08:33:36Z</time></trkpt><trkpt lat="42.45748243534384" lon="11.407218087285287"><ele>65.0</ele><time>2026-04-18T08:33:36.999Z</time></trkpt><trkpt lat="42.45748394584374" lon="11.40733912933832"><ele>65.0</ele><time>2026-04-18T08:33:37.999Z</time></trkpt><trkpt lat="42.45747956270031" lon="11.40745271800875"><ele>65.8</ele><time>2026-04-18T08:33:38.999Z</time></trkpt><trkpt lat="42.457460900430306" lon="11.407575638033151"><ele>66.6</ele><time>2026-04-18T08:33:39.999Z</time></trkpt><trkpt lat="42.457424199344565" lon="11.407681201510288"><ele>67.4</ele><time>2026-04-18T08:33:40.999Z</time></trkpt><trkpt lat="42.45738075073326" lon="11.407795417301964"><ele>68.2</ele><time>2026-04-18T08:33:41.999Z</time></trkpt><trkpt lat="42.45733596832626" lon="11.407918059402268"><ele>69.0</ele><time>2026-04-18T08:33:42.999Z</time></trkpt><trkpt lat="42.457313899398386" lon="11.408017614898231"><ele>70.0</ele><time>2026-04-18T08:33:43.999Z</time></trkpt><trkpt lat="42.45735670103786" lon="11.408148614362565"><ele>71.0</ele><time>2026-04-18T08:33:44.999Z</time></trkpt><trkpt lat="42.45742680456679" lon="11.40825327048814"><ele>72.0</ele><time>2026-04-18T08:33:45.999Z</time></trkpt><trkpt lat="42.4574773007628" lon="11.408369624913732"><ele>73.0</ele><time>2026-04-18T08:33:46.999Z</time></trkpt><trkpt lat="42.45753162930316" lon="11.40849477571771"><ele>74.0</ele><time>2026-04-18T08:33:47.999Z</time></trkpt><trkpt lat="42.45758797952536" lon="11.408622065224396"><ele>74.0</ele><time>2026-04-18T08:33:48.999Z</time></trkpt><trkpt lat="42.457651260694846" lon="11.40876388753738"><ele>74.0</ele><time>2026-04-18T08:33:49.999Z</time></trkpt><trkpt lat="42.45771337492144" lon="11.408899940360076"><ele>74.0</ele><time>2026-04-18T08:33:50.999Z</time></trkpt><trkpt lat="42.45777449582035" lon="11.409028555740946"><ele>74.0</ele><time>2026-04-18T08:33:51.999Z</time></trkpt><trkpt lat="42.4578408967615" lon="11.409163082365993"><ele>74.60000000000001</ele><time>2026-04-18T08:33:52.999Z</time></trkpt><trkpt lat="42.457905331167524" lon="11.40930017535889"><ele>75.2</ele><time>2026-04-18T08:33:53.999Z</time></trkpt><trkpt lat="42.45796456082745" lon="11.409425416185405"><ele>75.80000000000001</ele><time>2026-04-18T08:33:55Z</time></trkpt><trkpt lat="42.45802798236538" lon="11.409532411125038"><ele>76.4</ele><time>2026-04-18T08:33:56Z</time></trkpt><trkpt lat="42.45809809955457" lon="11.409607507388555"><ele>77.0</ele><time>2026-04-18T08:33:57Z</time></trkpt><trkpt lat="42.45819129138116" lon="11.409670598134396"><ele>79.2</ele><time>2026-04-18T08:33:58Z</time></trkpt><trkpt lat="42.45829229058954" lon="11.409726032974149"><ele>81.4</ele><time>2026-04-18T08:33:59Z</time></trkpt><trkpt lat="42.458391955304236" lon="11.409781791989346"><ele>83.60000000000001</ele><time>2026-04-18T08:34:00Z</time></trkpt><trkpt lat="42.45849201725561" lon="11.409837773264163"><ele>85.80000000000001</ele><time>2026-04-18T08:34:01Z</time></trkpt><trkpt lat="42.45859374308958" lon="11.40989479623421"><ele>88.0</ele><time>2026-04-18T08:34:02Z</time></trkpt><trkpt lat="42.45868400044752" lon="11.409947308064202"><ele>88.0</ele><time>2026-04-18T08:34:03Z</time></trkpt><trkpt lat="42.458765154106864" lon="11.409995378123408"><ele>88.0</ele><time>2026-04-18T08:34:04Z</time></trkpt><trkpt lat="42.45884435870865" lon="11.410042293835868"><ele>88.0</ele><time>2026-04-18T08:34:05Z</time></trkpt><trkpt lat="42.458912581616076" lon="11.410091429520106"><ele>88.0</ele><time>2026-04-18T08:34:06Z</time></trkpt><trkpt lat="42.45902064922876" lon="11.410129190926973"><ele>88.0</ele><time>2026-04-18T08:34:08Z</time></trkpt><trkpt lat="42.45907589950975" lon="11.410171962893163"><ele>88.0</ele><time>2026-04-18T08:34:09Z</time></trkpt><trkpt lat="42.459135802256704" lon="11.410251128838835"><ele>87.0</ele><time>2026-04-18T08:34:10Z</time></trkpt><trkpt lat="42.459194767676046" lon="11.410344388439592"><ele>86.0</ele><time>2026-04-18T08:34:11Z</time></trkpt><trkpt lat="42.45924940731443" lon="11.410436006232535"><ele>85.0</ele><time>2026-04-18T08:34:12Z</time></trkpt><trkpt lat="42.459317403354355" lon="11.410544213151926"><ele>84.0</ele><time>2026-04-18T08:34:13Z</time></trkpt><trkpt lat="42.45938924906949" lon="11.410658157114305"><ele>83.0</ele><time>2026-04-18T08:34:14Z</time></trkpt><trkpt lat="42.45947054516636" lon="11.410785705557466"><ele>83.75</ele><time>2026-04-18T08:34:15Z</time></trkpt><trkpt lat="42.45954113084197" lon="11.410935950271845"><ele>84.5</ele><time>2026-04-18T08:34:16Z</time></trkpt><trkpt lat="42.45963714822169" lon="11.411054357034025"><ele>85.25</ele><time>2026-04-18T08:34:17Z</time></trkpt><trkpt lat="42.45970233032659" lon="11.411196297924526"><ele>86.0</ele><time>2026-04-18T08:34:18Z</time></trkpt><trkpt lat="42.45978376028106" lon="11.411341551033578"><ele>87.75</ele><time>2026-04-18T08:34:19Z</time></trkpt><trkpt lat="42.45987204711292" lon="11.411477995109816"><ele>89.5</ele><time>2026-04-18T08:34:20Z</time></trkpt><trkpt lat="42.459922764948594" lon="11.411649278617261"><ele>91.25</ele><time>2026-04-18T08:34:21Z</time></trkpt><trkpt lat="42.45996927148862" lon="11.411819424092155"><ele>93.0</ele><time>2026-04-18T08:34:22Z</time></trkpt><trkpt lat="42.46001574705454" lon="11.411993849264439"><ele>95.0</ele><time>2026-04-18T08:34:23Z</time></trkpt><trkpt lat="42.46006222700092" lon="11.412174290765071"><ele>97.0</ele><time>2026-04-18T08:34:24Z</time></trkpt><trkpt lat="42.4601106011155" lon="11.41236689899846"><ele>99.0</ele><time>2026-04-18T08:34:25Z</time></trkpt><trkpt lat="42.46016206852577" lon="11.412562501081739"><ele>101.0</ele><time>2026-04-18T08:34:26Z</time></trkpt><trkpt lat="42.460221879347685" lon="11.412762923807865"><ele>101.0</ele><time>2026-04-18T08:34:27Z</time></trkpt><trkpt lat="42.460296663351706" lon="11.41294948539218"><ele>101.0</ele><time>2026-04-18T08:34:28Z</time></trkpt><trkpt lat="42.4603575453381" lon="11.413124652617732"><ele>101.0</ele><time>2026-04-18T08:34:29Z</time></trkpt><trkpt lat="42.460432257294016" lon="11.41329292990074"><ele>101.0</ele><time>2026-04-18T08:34:30Z</time></trkpt><trkpt lat="42.46050826720399" lon="11.413466883404366"><ele>100.25</ele><time>2026-04-18T08:34:31Z</time></trkpt><trkpt lat="42.46056744453074" lon="11.413649532202735"><ele>99.5</ele><time>2026-04-18T08:34:32Z</time></trkpt><trkpt lat="42.46062469655914" lon="11.413834468268378"><ele>98.75</ele><time>2026-04-18T08:34:33Z</time></trkpt><trkpt lat="42.46066023484597" lon="11.414028465810933"><ele>98.0</ele><time>2026-04-18T08:34:34Z</time></trkpt><trkpt lat="42.460678594970396" lon="11.414233723181447"><ele>99.5</ele><time>2026-04-18T08:34:35Z</time></trkpt><trkpt lat="42.460685623852996" lon="11.414433881953588"><ele>101.0</ele><time>2026-04-18T08:34:36Z</time></trkpt><trkpt lat="42.4606858612611" lon="11.414635662914732"><ele>102.5</ele><time>2026-04-18T08:34:37Z</time></trkpt><trkpt lat="42.46066133246417" lon="11.414818352814095"><ele>104.0</ele><time>2026-04-18T08:34:38Z</time></trkpt><trkpt lat="42.46061380505386" lon="11.414972603222152"><ele>104.25</ele><time>2026-04-18T08:34:39Z</time></trkpt><trkpt lat="42.460523962998884" lon="11.41510650868668"><ele>104.5</ele><time>2026-04-18T08:34:40Z</time></trkpt><trkpt lat="42.46042269163543" lon="11.415230830807776"><ele>104.75</ele><time>2026-04-18T08:34:41Z</time></trkpt><trkpt lat="42.460316683857634" lon="11.415369539174655"><ele>105.0</ele><time>2026-04-18T08:34:42Z</time></trkpt><trkpt lat="42.460184824868584" lon="11.415480256055725"><ele>108.33333333333334</ele><time>2026-04-18T08:34:43Z</time></trkpt><trkpt lat="42.46006448352974" lon="11.415602012239486"><ele>111.66666666666667</ele><time>2026-04-18T08:34:44Z</time></trkpt><trkpt lat="42.45994125372336" lon="11.415730764579244"><ele>115.0</ele><time>2026-04-18T08:34:45Z</time></trkpt><trkpt lat="42.45982182467885" lon="11.415856592557157"><ele>115.0</ele><time>2026-04-18T08:34:46Z</time></trkpt><trkpt lat="42.459702291754084" lon="11.415982114281878"><ele>115.0</ele><time>2026-04-18T08:34:47Z</time></trkpt><trkpt lat="42.45958282884525" lon="11.416103295293217"><ele>115.0</ele><time>2026-04-18T08:34:48Z</time></trkpt><trkpt lat="42.45945676652809" lon="11.416217818901131"><ele>116.66666666666667</ele><time>2026-04-18T08:34:49Z</time></trkpt><trkpt lat="42.459323639479415" lon="11.416319145322184"><ele>118.33333333333334</ele><time>2026-04-18T08:34:50Z</time></trkpt><trkpt lat="42.45918781326914" lon="11.416410824600172"><ele>120.0</ele><time>2026-04-18T08:34:51Z</time></trkpt><trkpt lat="42.45906222269196" lon="11.416510516611133"><ele>121.25</ele><time>2026-04-18T08:34:52Z</time></trkpt><trkpt lat="42.4589409318088" lon="11.416621517196866"><ele>122.5</ele><time>2026-04-18T08:34:53Z</time></trkpt><trkpt lat="42.45883331967654" lon="11.41675397445083"><ele>123.75</ele><time>2026-04-18T08:34:54Z</time></trkpt><trkpt lat="42.45874144397451" lon="11.41692068667576"><ele>125.0</ele><time>2026-04-18T08:34:55Z</time></trkpt><trkpt lat="42.458650817103276" lon="11.417110979129212"><ele>127.0</ele><time>2026-04-18T08:34:56Z</time></trkpt><trkpt lat="42.45856404259645" lon="11.417302649252294"><ele>129.0</ele><time>2026-04-18T08:34:57Z</time></trkpt><trkpt lat="42.458469783043604" lon="11.417496874348783"><ele>131.0</ele><time>2026-04-18T08:34:58Z</time></trkpt><trkpt lat="42.45837749790277" lon="11.417683824353434"><ele>131.0</ele><time>2026-04-18T08:34:59Z</time></trkpt><trkpt lat="42.45828114825701" lon="11.417866959369736"><ele>131.0</ele><time>2026-04-18T08:35:00Z</time></trkpt><trkpt lat="42.45817830642098" lon="11.41804153107695"><ele>131.0</ele><time>2026-04-18T08:35:01Z</time></trkpt><trkpt lat="42.458071780784536" lon="11.418209251952662"><ele>132.33333333333331</ele><time>2026-04-18T08:35:02Z</time></trkpt><trkpt lat="42.45795885387632" lon="11.418382060969554"><ele>133.66666666666666</ele><time>2026-04-18T08:35:03Z</time></trkpt><trkpt lat="42.45784542959835" lon="11.418556816957798"><ele>135.0</ele><time>2026-04-18T08:35:04Z</time></trkpt><trkpt lat="42.45773161352768" lon="11.418739877044743"><ele>138.33333333333334</ele><time>2026-04-18T08:35:05Z</time></trkpt><trkpt lat="42.45762471177969" lon="11.418917714768753"><ele>141.66666666666669</ele><time>2026-04-18T08:35:06Z</time></trkpt><trkpt lat="42.45751559260062" lon="11.419094480025672"><ele>145.0</ele><time>2026-04-18T08:35:07Z</time></trkpt><trkpt lat="42.45741747046566" lon="11.419272122811684"><ele>145.0</ele><time>2026-04-18T08:35:08Z</time></trkpt><trkpt lat="42.45732492801018" lon="11.419458293260655"><ele>145.0</ele><time>2026-04-18T08:35:09Z</time></trkpt><trkpt lat="42.45724185179444" lon="11.419654215206089"><ele>145.0</ele><time>2026-04-18T08:35:10Z</time></trkpt><trkpt lat="42.45716433514675" lon="11.419859190452893"><ele>145.33333333333334</ele><time>2026-04-18T08:35:11Z</time></trkpt><trkpt lat="42.4570905706825" lon="11.420067043660778"><ele>145.66666666666666</ele><time>2026-04-18T08:35:12Z</time></trkpt><trkpt lat="42.45701252453584" lon="11.420268839028003"><ele>146.0</ele><time>2026-04-18T08:35:13Z</time></trkpt><trkpt lat="42.45693118377971" lon="11.42047529835028"><ele>146.66666666666666</ele><time>2026-04-18T08:35:14Z</time></trkpt><trkpt lat="42.456853852680716" lon="11.420676012478106"><ele>147.33333333333334</ele><time>2026-04-18T08:35:15Z</time></trkpt><trkpt lat="42.456779667895375" lon="11.420875782734775"><ele>148.0</ele><time>2026-04-18T08:35:16Z</time></trkpt><trkpt lat="42.45668993874748" lon="11.421066296609169"><ele>148.0</ele><time>2026-04-18T08:35:17Z</time></trkpt><trkpt lat="42.45661830782199" lon="11.421279725860561"><ele>148.0</ele><time>2026-04-18T08:35:18Z</time></trkpt><trkpt lat="42.456507877804725" lon="11.421457367640716"><ele>148.0</ele><time>2026-04-18T08:35:19Z</time></trkpt><trkpt lat="42.456422485801326" lon="11.421653724443441"><ele>149.0</ele><time>2026-04-18T08:35:20Z</time></trkpt><trkpt lat="42.45632483907493" lon="11.421830973639535"><ele>150.0</ele><time>2026-04-18T08:35:21Z</time></trkpt><trkpt lat="42.45623064199317" lon="11.422012695766941"><ele>151.0</ele><time>2026-04-18T08:35:22Z</time></trkpt><trkpt lat="42.45614301853904" lon="11.42219819631095"><ele>151.0</ele><time>2026-04-18T08:35:23Z</time></trkpt><trkpt lat="42.456071580004846" lon="11.422387263214791"><ele>151.0</ele><time>2026-04-18T08:35:24Z</time></trkpt><trkpt lat="42.456016912499294" lon="11.422554689494966"><ele>151.0</ele><time>2026-04-18T08:35:25Z</time></trkpt><trkpt lat="42.455949599077016" lon="11.422704487953757"><ele>151.0</ele><time>2026-04-18T08:35:26Z</time></trkpt><trkpt lat="42.455900985199776" lon="11.422843067890264"><ele>151.0</ele><time>2026-04-18T08:35:27Z</time></trkpt><trkpt lat="42.45584709621702" lon="11.422965705630006"><ele>151.0</ele><time>2026-04-18T08:35:28Z</time></trkpt><trkpt lat="42.455790443317504" lon="11.423086963170613"><ele>151.0</ele><time>2026-04-18T08:35:29Z</time></trkpt><trkpt lat="42.45569428581685" lon="11.423185943227002"><ele>151.0</ele><time>2026-04-18T08:35:30Z</time></trkpt><trkpt lat="42.455574128787056" lon="11.423229569323423"><ele>152.0</ele><time>2026-04-18T08:35:31Z</time></trkpt><trkpt lat="42.45545482469191" lon="11.423276473576873"><ele>153.0</ele><time>2026-04-18T08:35:32Z</time></trkpt><trkpt lat="42.455329786309065" lon="11.423331247360942"><ele>154.0</ele><time>2026-04-18T08:35:33Z</time></trkpt><trkpt lat="42.4552036483646" lon="11.423368221532222"><ele>155.0</ele><time>2026-04-18T08:35:34Z</time></trkpt><trkpt lat="42.45508002692141" lon="11.423406690290273"><ele>155.25</ele><time>2026-04-18T08:35:35Z</time></trkpt><trkpt lat="42.45495316685788" lon="11.423443127406571"><ele>155.5</ele><time>2026-04-18T08:35:36Z</time></trkpt><trkpt lat="42.454823311972504" lon="11.423487320650718"><ele>155.75</ele><time>2026-04-18T08:35:37Z</time></trkpt><trkpt lat="42.45468867428717" lon="11.423537411281094"><ele>156.0</ele><time>2026-04-18T08:35:38Z</time></trkpt><trkpt lat="42.45454474318865" lon="11.423587239328343"><ele>157.4</ele><time>2026-04-18T08:35:39Z</time></trkpt><trkpt lat="42.45441236404811" lon="11.42363131642604"><ele>158.8</ele><time>2026-04-18T08:35:40Z</time></trkpt><trkpt lat="42.45430760423197" lon="11.423668149840548"><ele>160.20000000000002</ele><time>2026-04-18T08:35:41Z</time></trkpt><trkpt lat="42.45422315318536" lon="11.423696509875912"><ele>161.6</ele><time>2026-04-18T08:35:42Z</time></trkpt><trkpt lat="42.454148664154424" lon="11.423720223022526"><ele>163.0</ele><time>2026-04-18T08:35:43Z</time></trkpt><trkpt lat="42.45404999632875" lon="11.423757750940776"><ele>163.60000000000002</ele><time>2026-04-18T08:35:45Z</time></trkpt><trkpt lat="42.45408902188929" lon="11.42393743032067"><ele>164.20000000000002</ele><time>2026-04-18T08:35:47.999Z</time></trkpt><trkpt lat="42.45416295291469" lon="11.423971786266074"><ele>164.8</ele><time>2026-04-18T08:35:48.999Z</time></trkpt><trkpt lat="42.4542471161262" lon="11.424011247377875"><ele>165.4</ele><time>2026-04-18T08:35:49.999Z</time></trkpt><trkpt lat="42.45434676236683" lon="11.424030959340326"><ele>166.0</ele><time>2026-04-18T08:35:50.999Z</time></trkpt><trkpt lat="42.4544423818933" lon="11.424039064023317"><ele>166.0</ele><time>2026-04-18T08:35:51.999Z</time></trkpt><trkpt lat="42.45454440685968" lon="11.424038079335967"><ele>166.0</ele><time>2026-04-18T08:35:52.999Z</time></trkpt><trkpt lat="42.45465219061235" lon="11.424034684218553"><ele>166.0</ele><time>2026-04-18T08:35:53.999Z</time></trkpt><trkpt lat="42.45475847317729" lon="11.42402731674568"><ele>166.0</ele><time>2026-04-18T08:35:54.999Z</time></trkpt><trkpt lat="42.454858896483636" lon="11.424046608816242"><ele>166.0</ele><time>2026-04-18T08:35:55.999Z</time></trkpt><trkpt lat="42.45495506197693" lon="11.424115182422883"><ele>166.4</ele><time>2026-04-18T08:35:56.999Z</time></trkpt><trkpt lat="42.45504203058042" lon="11.424174426907506"><ele>166.8</ele><time>2026-04-18T08:35:57.999Z</time></trkpt><trkpt lat="42.45512571627091" lon="11.42423852306347"><ele>167.20000000000002</ele><time>2026-04-18T08:35:58.999Z</time></trkpt><trkpt lat="42.45521039744933" lon="11.424307765248182"><ele>167.60000000000002</ele><time>2026-04-18T08:35:59.999Z</time></trkpt><trkpt lat="42.45528996109453" lon="11.424381676487329"><ele>168.0</ele><time>2026-04-18T08:36:01Z</time></trkpt><trkpt lat="42.4553713175146" lon="11.424457514839746"><ele>168.0</ele><time>2026-04-18T08:36:02.001Z</time></trkpt><trkpt lat="42.4554509076215" lon="11.424533425267816"><ele>168.0</ele><time>2026-04-18T08:36:03Z</time></trkpt><trkpt lat="42.45552550747299" lon="11.424608501127267"><ele>168.0</ele><time>2026-04-18T08:36:04Z</time></trkpt><trkpt lat="42.45559873923358" lon="11.424682125049793"><ele>168.0</ele><time>2026-04-18T08:36:05.001Z</time></trkpt><trkpt lat="42.455662803546495" lon="11.42475102899951"><ele>168.0</ele><time>2026-04-18T08:36:06Z</time></trkpt><trkpt lat="42.45572119009471" lon="11.424821020068018"><ele>168.0</ele><time>2026-04-18T08:36:07Z</time></trkpt><trkpt lat="42.45578555533837" lon="11.42490246620641"><ele>169.0</ele><time>2026-04-18T08:36:08Z</time></trkpt><trkpt lat="42.455863939448946" lon="11.42498826691284"><ele>170.0</ele><time>2026-04-18T08:36:09Z</time></trkpt><trkpt lat="42.4559520378997" lon="11.425066772906376"><ele>171.0</ele><time>2026-04-18T08:36:10Z</time></trkpt><trkpt lat="42.45603890489545" lon="11.425137196040358"><ele>172.0</ele><time>2026-04-18T08:36:11Z</time></trkpt><trkpt lat="42.45612054482244" lon="11.425213132481828"><ele>173.0</ele><time>2026-04-18T08:36:12Z</time></trkpt><trkpt lat="42.45619591802226" lon="11.42529790094975"><ele>173.0</ele><time>2026-04-18T08:36:13Z</time></trkpt><trkpt lat="42.45626385974114" lon="11.425367236339937"><ele>173.0</ele><time>2026-04-18T08:36:14Z</time></trkpt><trkpt lat="42.4563157729966" lon="11.425443264438323"><ele>173.0</ele><time>2026-04-18T08:36:15Z</time></trkpt><trkpt lat="42.456376713770005" lon="11.425494677721518"><ele>173.0</ele><time>2026-04-18T08:36:16Z</time></trkpt><trkpt lat="42.456406057442244" lon="11.42561039157821"><ele>173.0</ele><time>2026-04-18T08:36:17Z</time></trkpt><trkpt lat="42.45643448790198" lon="11.425724609804975"><ele>173.0</ele><time>2026-04-18T08:36:18Z</time></trkpt><trkpt lat="42.45648951035555" lon="11.425819102182867"><ele>173.60000000000002</ele><time>2026-04-18T08:36:19Z</time></trkpt><trkpt lat="42.45654353711137" lon="11.425917760547074"><ele>174.20000000000002</ele><time>2026-04-18T08:36:20Z</time></trkpt><trkpt lat="42.45659510747928" lon="11.42603593737105"><ele>174.8</ele><time>2026-04-18T08:36:21Z</time></trkpt><trkpt lat="42.45665648234249" lon="11.426143085677785"><ele>175.4</ele><time>2026-04-18T08:36:22Z</time></trkpt><trkpt lat="42.45671755095821" lon="11.426262370292354"><ele>176.0</ele><time>2026-04-18T08:36:23Z</time></trkpt><trkpt lat="42.45677285991297" lon="11.426392616345666"><ele>176.0</ele><time>2026-04-18T08:36:24Z</time></trkpt><trkpt lat="42.45682118389379" lon="11.426523334023097"><ele>176.0</ele><time>2026-04-18T08:36:25Z</time></trkpt><trkpt lat="42.456873595077155" lon="11.426645899553318"><ele>176.0</ele><time>2026-04-18T08:36:26Z</time></trkpt><trkpt lat="42.4569247807268" lon="11.426792503972289"><ele>176.0</ele><time>2026-04-18T08:36:27Z</time></trkpt><trkpt lat="42.45696658419523" lon="11.426932176051864"><ele>176.0</ele><time>2026-04-18T08:36:28Z</time></trkpt><trkpt lat="42.45699655732223" lon="11.427072547664219"><ele>175.60000000000002</ele><time>2026-04-18T08:36:29Z</time></trkpt><trkpt lat="42.45701865363847" lon="11.42721811283605"><ele>175.2</ele><time>2026-04-18T08:36:30Z</time></trkpt><trkpt lat="42.45703411958196" lon="11.427368104133652"><ele>174.8</ele><time>2026-04-18T08:36:31Z</time></trkpt><trkpt lat="42.45703864366441" lon="11.427506659038427"><ele>174.39999999999998</ele><time>2026-04-18T08:36:32Z</time></trkpt><trkpt lat="42.4570530452666" lon="11.427641582595184"><ele>174.0</ele><time>2026-04-18T08:36:33Z</time></trkpt><trkpt lat="42.45706668557793" lon="11.427745107339867"><ele>174.0</ele><time>2026-04-18T08:36:34Z</time></trkpt><trkpt lat="42.457075873517724" lon="11.427844862155611"><ele>174.0</ele><time>2026-04-18T08:36:35Z</time></trkpt><trkpt lat="42.45708574253217" lon="11.427939017853285"><ele>174.0</ele><time>2026-04-18T08:36:36Z</time></trkpt><trkpt lat="42.45710330650196" lon="11.428076898199965"><ele>174.0</ele><time>2026-04-18T08:36:38Z</time></trkpt><trkpt lat="42.457114074329844" lon="11.428239932735439"><ele>174.0</ele><time>2026-04-18T08:36:40Z</time></trkpt><trkpt lat="42.457103251685474" lon="11.428350249045092"><ele>173.39999999999998</ele><time>2026-04-18T08:36:41Z</time></trkpt><trkpt lat="42.45708330351279" lon="11.428468147145884"><ele>172.8</ele><time>2026-04-18T08:36:42Z</time></trkpt><trkpt lat="42.457074797177725" lon="11.428603302818967"><ele>172.2</ele><time>2026-04-18T08:36:43Z</time></trkpt><trkpt lat="42.457049596762005" lon="11.428734388025966"><ele>171.60000000000002</ele><time>2026-04-18T08:36:44Z</time></trkpt><trkpt lat="42.457037345596675" lon="11.428862712023953"><ele>171.0</ele><time>2026-04-18T08:36:45Z</time></trkpt><trkpt lat="42.4570418857009" lon="11.428999246894708"><ele>171.0</ele><time>2026-04-18T08:36:46Z</time></trkpt><trkpt lat="42.45705815825029" lon="11.4291268111612"><ele>171.0</ele><time>2026-04-18T08:36:47Z</time></trkpt><trkpt lat="42.45704960316435" lon="11.429229407106817"><ele>171.0</ele><time>2026-04-18T08:36:48Z</time></trkpt><trkpt lat="42.45706741650103" lon="11.429338792774526"><ele>171.0</ele><time>2026-04-18T08:36:49Z</time></trkpt><trkpt lat="42.4571083907334" lon="11.429425150759092"><ele>171.0</ele><time>2026-04-18T08:36:50Z</time></trkpt><trkpt lat="42.45712841257616" lon="11.42953248096257"><ele>171.0</ele><time>2026-04-18T08:36:51Z</time></trkpt><trkpt lat="42.45716112213158" lon="11.429620530387165"><ele>171.20000000000002</ele><time>2026-04-18T08:36:52Z</time></trkpt><trkpt lat="42.45722089498399" lon="11.429678589240655"><ele>171.4</ele><time>2026-04-18T08:36:53Z</time></trkpt><trkpt lat="42.45724963706131" lon="11.429772351422505"><ele>171.6</ele><time>2026-04-18T08:36:54Z</time></trkpt><trkpt lat="42.457284806510984" lon="11.429856768634805"><ele>171.8</ele><time>2026-04-18T08:36:55Z</time></trkpt><trkpt lat="42.45740188590205" lon="11.42996716905578"><ele>172.0</ele><time>2026-04-18T08:36:57Z</time></trkpt><trkpt lat="42.45750323426039" lon="11.430014152249335"><ele>172.0</ele><time>2026-04-18T08:36:58Z</time></trkpt><trkpt lat="42.4576177146322" lon="11.429999495240043"><ele>172.0</ele><time>2026-04-18T08:36:59Z</time></trkpt><trkpt lat="42.45773392520913" lon="11.429982440260641"><ele>172.0</ele><time>2026-04-18T08:37:00Z</time></trkpt><trkpt lat="42.457839029730444" lon="11.42996413082523"><ele>172.0</ele><time>2026-04-18T08:37:01Z</time></trkpt><trkpt lat="42.457934532581476" lon="11.429934600971695"><ele>172.0</ele><time>2026-04-18T08:37:02Z</time></trkpt><trkpt lat="42.45800578989664" lon="11.429900964968931"><ele>172.0</ele><time>2026-04-18T08:37:03Z</time></trkpt><trkpt lat="42.45808465870945" lon="11.429870341282152"><ele>172.0</ele><time>2026-04-18T08:37:04Z</time></trkpt><trkpt lat="42.45815491574361" lon="11.429850314937442"><ele>172.0</ele><time>2026-04-18T08:37:05Z</time></trkpt><trkpt lat="42.45826648600831" lon="11.429832241243481"><ele>172.0</ele><time>2026-04-18T08:37:07Z</time></trkpt><trkpt lat="42.458380048318226" lon="11.429809075621781"><ele>172.0</ele><time>2026-04-18T08:37:09Z</time></trkpt><trkpt lat="42.45845101338284" lon="11.429835843995226"><ele>172.0</ele><time>2026-04-18T08:37:10Z</time></trkpt><trkpt lat="42.45852271596529" lon="11.429858989895088"><ele>172.0</ele><time>2026-04-18T08:37:11Z</time></trkpt><trkpt lat="42.45864440351534" lon="11.42993685394153"><ele>172.0</ele><time>2026-04-18T08:37:13Z</time></trkpt><trkpt lat="42.45868478179789" lon="11.43001520708968"><ele>172.0</ele><time>2026-04-18T08:37:14Z</time></trkpt><trkpt lat="42.45868646711339" lon="11.430166722901985"><ele>172.0</ele><time>2026-04-18T08:37:16Z</time></trkpt><trkpt lat="42.45868374789458" lon="11.430268829704634"><ele>172.0</ele><time>2026-04-18T08:37:17Z</time></trkpt><trkpt lat="42.45866965306624" lon="11.430380488553313"><ele>172.0</ele><time>2026-04-18T08:37:18Z</time></trkpt><trkpt lat="42.45864241735339" lon="11.430460892441854"><ele>172.0</ele><time>2026-04-18T08:37:19Z</time></trkpt><trkpt lat="42.45864416376737" lon="11.430608212009124"><ele>172.0</ele><time>2026-04-18T08:37:21Z</time></trkpt><trkpt lat="42.45868764243133" lon="11.430673393817234"><ele>172.0</ele><time>2026-04-18T08:37:22Z</time></trkpt><trkpt lat="42.4587272158918" lon="11.43077184712591"><ele>172.0</ele><time>2026-04-18T08:37:23Z</time></trkpt><trkpt lat="42.45876242665455" lon="11.430880410114636"><ele>174.16666666666669</ele><time>2026-04-18T08:37:24Z</time></trkpt><trkpt lat="42.458797916837696" lon="11.430988825993293"><ele>176.33333333333334</ele><time>2026-04-18T08:37:25Z</time></trkpt><trkpt lat="42.45883046416839" lon="11.431091433537796"><ele>178.5</ele><time>2026-04-18T08:37:26Z</time></trkpt><trkpt lat="42.458855336521154" lon="11.431186089345884"><ele>180.66666666666666</ele><time>2026-04-18T08:37:27Z</time></trkpt><trkpt lat="42.45889505043338" lon="11.431271693746577"><ele>182.83333333333331</ele><time>2026-04-18T08:37:28Z</time></trkpt><trkpt lat="42.45894639682184" lon="11.431340031401346"><ele>185.0</ele><time>2026-04-18T08:37:29Z</time></trkpt><trkpt lat="42.4590226269298" lon="11.431384400727595"><ele>185.2</ele><time>2026-04-18T08:37:30Z</time></trkpt><trkpt lat="42.459085411615554" lon="11.43139949109206"><ele>185.4</ele><time>2026-04-18T08:37:31Z</time></trkpt><trkpt lat="42.459172523433665" lon="11.43144464512748"><ele>185.60000000000002</ele><time>2026-04-18T08:37:32Z</time></trkpt><trkpt lat="42.45925236727957" lon="11.431450846707973"><ele>185.8</ele><time>2026-04-18T08:37:33Z</time></trkpt><trkpt lat="42.45937685398709" lon="11.431506577911302"><ele>186.0</ele><time>2026-04-18T08:37:35Z</time></trkpt><trkpt lat="42.45948918401324" lon="11.431633505531531"><ele>186.0</ele><time>2026-04-18T08:37:37Z</time></trkpt><trkpt lat="42.45955199670359" lon="11.43172073006263"><ele>186.0</ele><time>2026-04-18T08:37:38Z</time></trkpt><trkpt lat="42.45961088679477" lon="11.431813895915823"><ele>186.0</ele><time>2026-04-18T08:37:39Z</time></trkpt><trkpt lat="42.45966953704769" lon="11.431901441498534"><ele>186.0</ele><time>2026-04-18T08:37:40Z</time></trkpt><trkpt lat="42.45972276820938" lon="11.431978642870442"><ele>186.0</ele><time>2026-04-18T08:37:41Z</time></trkpt><trkpt lat="42.45976893720891" lon="11.432041725461596"><ele>186.0</ele><time>2026-04-18T08:37:42Z</time></trkpt><trkpt lat="42.459820667814505" lon="11.432108289034524"><ele>189.25</ele><time>2026-04-18T08:37:43Z</time></trkpt><trkpt lat="42.45987787382005" lon="11.432181898944116"><ele>192.5</ele><time>2026-04-18T08:37:44Z</time></trkpt><trkpt lat="42.45996201556516" lon="11.432290170756094"><ele>195.75</ele><time>2026-04-18T08:37:46Z</time></trkpt><trkpt lat="42.4600487411135" lon="11.432401767387384"><ele>199.0</ele><time>2026-04-18T08:37:48Z</time></trkpt><trkpt lat="42.46019461032318" lon="11.432331830310622"><ele>198.99999999999997</ele><time>2026-04-18T08:37:49Z</time></trkpt><trkpt lat="42.46027287113379" lon="11.432389768605589"><ele>199.0</ele><time>2026-04-18T08:37:49.999Z</time></trkpt><trkpt lat="42.460332819627006" lon="11.432441099205622"><ele>199.0</ele><time>2026-04-18T08:37:50.999Z</time></trkpt><trkpt lat="42.46041003614161" lon="11.432479733312526"><ele>199.0</ele><time>2026-04-18T08:37:51.999Z</time></trkpt><trkpt lat="42.46046964839823" lon="11.432530414257963"><ele>198.99999999999997</ele><time>2026-04-18T08:37:52.999Z</time></trkpt><trkpt lat="42.46053714881001" lon="11.432591752017208"><ele>199.0</ele><time>2026-04-18T08:37:53.999Z</time></trkpt><trkpt lat="42.46059564576532" lon="11.43264588537833"><ele>200.49999999999997</ele><time>2026-04-18T08:37:54.999Z</time></trkpt><trkpt lat="42.46065580392864" lon="11.432693577758467"><ele>202.0</ele><time>2026-04-18T08:37:55.999Z</time></trkpt><trkpt lat="42.46070741786091" lon="11.432743555490068"><ele>203.5</ele><time>2026-04-18T08:37:56.999Z</time></trkpt><trkpt lat="42.46077108504912" lon="11.432808509974207"><ele>205.0</ele><time>2026-04-18T08:37:57.999Z</time></trkpt><trkpt lat="42.46085344017013" lon="11.432887590772742"><ele>206.49999999999997</ele><time>2026-04-18T08:37:58.999Z</time></trkpt><trkpt lat="42.460935837456226" lon="11.432950829279488"><ele>208.0</ele><time>2026-04-18T08:37:59.999Z</time></trkpt><trkpt lat="42.4610237300532" lon="11.433006013515772"><ele>210.49999999999997</ele><time>2026-04-18T08:38:00.999Z</time></trkpt><trkpt lat="42.46111315436128" lon="11.433061917987061"><ele>213.0</ele><time>2026-04-18T08:38:01.999Z</time></trkpt><trkpt lat="42.46118697065782" lon="11.433110647975804"><ele>215.5</ele><time>2026-04-18T08:38:02.999Z</time></trkpt><trkpt lat="42.461270072647224" lon="11.433150535574917"><ele>218.0</ele><time>2026-04-18T08:38:03.999Z</time></trkpt><trkpt lat="42.461349817040414" lon="11.433214650624086"><ele>220.49999999999997</ele><time>2026-04-18T08:38:04.999Z</time></trkpt><trkpt lat="42.46142424227975" lon="11.433276857537765"><ele>223.0</ele><time>2026-04-18T08:38:06Z</time></trkpt><trkpt lat="42.46148416839316" lon="11.433342296620184"><ele>222.99999999999997</ele><time>2026-04-18T08:38:07Z</time></trkpt><trkpt lat="42.46155382237482" lon="11.433422170444981"><ele>223.0</ele><time>2026-04-18T08:38:08Z</time></trkpt><trkpt lat="42.46162065478716" lon="11.433492681852396"><ele>223.0</ele><time>2026-04-18T08:38:09Z</time></trkpt><trkpt lat="42.461685459740686" lon="11.433574458308588"><ele>223.0</ele><time>2026-04-18T08:38:10Z</time></trkpt><trkpt lat="42.46175947396288" lon="11.433649915497138"><ele>222.99999999999997</ele><time>2026-04-18T08:38:11Z</time></trkpt><trkpt lat="42.46182791665812" lon="11.433701943548359"><ele>223.0</ele><time>2026-04-18T08:38:12Z</time></trkpt><trkpt lat="42.461889089901874" lon="11.43375358078138"><ele>222.99999999999997</ele><time>2026-04-18T08:38:13Z</time></trkpt><trkpt lat="42.46195888081933" lon="11.43378644304066"><ele>223.0</ele><time>2026-04-18T08:38:14Z</time></trkpt><trkpt lat="42.462022237020534" lon="11.43378271653802"><ele>223.0</ele><time>2026-04-18T08:38:15Z</time></trkpt><trkpt lat="42.462098395013484" lon="11.433801126960905"><ele>223.0</ele><time>2026-04-18T08:38:16Z</time></trkpt><trkpt lat="42.4621811544029" lon="11.433814660026675"><ele>222.99999999999997</ele><time>2026-04-18T08:38:17Z</time></trkpt><trkpt lat="42.4622645407631" lon="11.433814891607064"><ele>223.0</ele><time>2026-04-18T08:38:18Z</time></trkpt><trkpt lat="42.462345128587245" lon="11.433826341950748"><ele>227.66666666666666</ele><time>2026-04-18T08:38:19Z</time></trkpt><trkpt lat="42.46240993467028" lon="11.433822124938718"><ele>232.33333333333331</ele><time>2026-04-18T08:38:20Z</time></trkpt><trkpt lat="42.46248046888327" lon="11.433861390789117"><ele>237.0</ele><time>2026-04-18T08:38:22Z</time></trkpt><trkpt lat="42.46248739346154" lon="11.433947807090087"><ele>241.66666666666669</ele><time>2026-04-18T08:38:24Z</time></trkpt><trkpt lat="42.46241631914472" lon="11.434006009580031"><ele>246.33333333333334</ele><time>2026-04-18T08:38:25.999Z</time></trkpt><trkpt lat="42.462340193830265" lon="11.434043388700774"><ele>251.0</ele><time>2026-04-18T08:38:26.999Z</time></trkpt><trkpt lat="42.46226448576433" lon="11.434093701154318"><ele>251.00000000000003</ele><time>2026-04-18T08:38:27.999Z</time></trkpt><trkpt lat="42.46220472005931" lon="11.434164457046021"><ele>251.0</ele><time>2026-04-18T08:38:28.999Z</time></trkpt><trkpt lat="42.46216362991513" lon="11.43424122574567"><ele>251.0</ele><time>2026-04-18T08:38:29.999Z</time></trkpt><trkpt lat="42.462135691945996" lon="11.43433536004822"><ele>251.0</ele><time>2026-04-18T08:38:30.999Z</time></trkpt><trkpt lat="42.462115222160854" lon="11.434432888909992"><ele>251.00000000000003</ele><time>2026-04-18T08:38:31.999Z</time></trkpt><trkpt lat="42.462106831636746" lon="11.434544465371127"><ele>251.0</ele><time>2026-04-18T08:38:32.999Z</time></trkpt><trkpt lat="42.46210228142475" lon="11.434660624376932"><ele>251.50000000000003</ele><time>2026-04-18T08:38:33.998Z</time></trkpt><trkpt lat="42.46211756786665" lon="11.434750838688094"><ele>252.0</ele><time>2026-04-18T08:38:34.998Z</time></trkpt><trkpt lat="42.46216038503408" lon="11.434827297974879"><ele>252.5</ele><time>2026-04-18T08:38:36.998Z</time></trkpt><trkpt lat="42.46209022198503" lon="11.434844023111294"><ele>253.0</ele><time>2026-04-18T08:38:48.998Z</time></trkpt><trkpt lat="42.46199630554491" lon="11.434814628655877"><ele>253.50000000000003</ele><time>2026-04-18T08:38:50.998Z</time></trkpt><trkpt lat="42.46192747165624" lon="11.434812666543337"><ele>254.0</ele><time>2026-04-18T08:38:51.998Z</time></trkpt><trkpt lat="42.46184607489338" lon="11.43477109163442"><ele>254.0</ele><time>2026-04-18T08:38:52.998Z</time></trkpt><trkpt lat="42.4617595093813" lon="11.434766709561488"><ele>253.99999999999997</ele><time>2026-04-18T08:38:53.998Z</time></trkpt><trkpt lat="42.4616567923076" lon="11.434769031374438"><ele>253.99999999999997</ele><time>2026-04-18T08:38:54.998Z</time></trkpt><trkpt lat="42.46154249989837" lon="11.434767002330025"><ele>254.0</ele><time>2026-04-18T08:38:55.997Z</time></trkpt><trkpt lat="42.46142743701484" lon="11.434783451132775"><ele>254.0</ele><time>2026-04-18T08:38:56.997Z</time></trkpt><trkpt lat="42.46133114261051" lon="11.434778328583132"><ele>255.39999999999998</ele><time>2026-04-18T08:38:57.997Z</time></trkpt><trkpt lat="42.46123825799545" lon="11.434776326269713"><ele>256.79999999999995</ele><time>2026-04-18T08:38:58.997Z</time></trkpt><trkpt lat="42.46115256612112" lon="11.434776725910915"><ele>258.20000000000005</ele><time>2026-04-18T08:38:59.997Z</time></trkpt><trkpt lat="42.46106950276289" lon="11.434827968759826"><ele>259.6</ele><time>2026-04-18T08:39:00.997Z</time></trkpt><trkpt lat="42.461004052372765" lon="11.434933682547188"><ele>261.0</ele><time>2026-04-18T08:39:01.997Z</time></trkpt><trkpt lat="42.46093123419706" lon="11.43503142184262"><ele>261.0</ele><time>2026-04-18T08:39:02.997Z</time></trkpt><trkpt lat="42.460848232939625" lon="11.435089577693866"><ele>261.0</ele><time>2026-04-18T08:39:03.997Z</time></trkpt><trkpt lat="42.46075367860988" lon="11.435152732875519"><ele>261.0</ele><time>2026-04-18T08:39:04.997Z</time></trkpt><trkpt lat="42.46066183907429" lon="11.435205539722299"><ele>261.0</ele><time>2026-04-18T08:39:05.997Z</time></trkpt><trkpt lat="42.46055798104223" lon="11.43524845841038"><ele>261.0</ele><time>2026-04-18T08:39:06.997Z</time></trkpt><trkpt lat="42.46046777929326" lon="11.435303657260755"><ele>260.2</ele><time>2026-04-18T08:39:07.997Z</time></trkpt><trkpt lat="42.460379920351656" lon="11.435339190221203"><ele>259.40000000000003</ele><time>2026-04-18T08:39:08.997Z</time></trkpt><trkpt lat="42.460288309312354" lon="11.435396142154472"><ele>258.6</ele><time>2026-04-18T08:39:09.997Z</time></trkpt><trkpt lat="42.46020334352542" lon="11.43543999819243"><ele>257.8</ele><time>2026-04-18T08:39:10.997Z</time></trkpt><trkpt lat="42.460108344056344" lon="11.43550045490324"><ele>257.0</ele><time>2026-04-18T08:39:11.997Z</time></trkpt><trkpt lat="42.46002321969967" lon="11.435553714688188"><ele>257.0</ele><time>2026-04-18T08:39:12.997Z</time></trkpt><trkpt lat="42.4599520001283" lon="11.435605834419603"><ele>257.0</ele><time>2026-04-18T08:39:13.997Z</time></trkpt><trkpt lat="42.459883421225925" lon="11.43566785971513"><ele>257.0</ele><time>2026-04-18T08:39:14.997Z</time></trkpt><trkpt lat="42.45981703189138" lon="11.43575347997774"><ele>257.0</ele><time>2026-04-18T08:39:15.997Z</time></trkpt><trkpt lat="42.4597592049175" lon="11.435832626862027"><ele>257.0</ele><time>2026-04-18T08:39:16.997Z</time></trkpt><trkpt lat="42.45968632695222" lon="11.435891866795059"><ele>257.0</ele><time>2026-04-18T08:39:17.997Z</time></trkpt><trkpt lat="42.45961507336053" lon="11.435981092956299"><ele>257.0</ele><time>2026-04-18T08:39:18.997Z</time></trkpt><trkpt lat="42.459533121656875" lon="11.436043505539994"><ele>257.0</ele><time>2026-04-18T08:39:19.997Z</time></trkpt><trkpt lat="42.459467367194684" lon="11.436120090719212"><ele>257.0</ele><time>2026-04-18T08:39:20.997Z</time></trkpt><trkpt lat="42.45939475972006" lon="11.43619921745205"><ele>257.0</ele><time>2026-04-18T08:39:21.997Z</time></trkpt><trkpt lat="42.45932091694169" lon="11.436303051646256"><ele>257.0</ele><time>2026-04-18T08:39:22.997Z</time></trkpt><trkpt lat="42.45924389613728" lon="11.436379368038075"><ele>258.0</ele><time>2026-04-18T08:39:23.997Z</time></trkpt><trkpt lat="42.45917673150732" lon="11.43646542062827"><ele>259.0</ele><time>2026-04-18T08:39:24.997Z</time></trkpt><trkpt lat="42.459103614485116" lon="11.4365464550363"><ele>260.0</ele><time>2026-04-18T08:39:25.997Z</time></trkpt><trkpt lat="42.459021636272816" lon="11.4366586249161"><ele>261.0</ele><time>2026-04-18T08:39:26.997Z</time></trkpt><trkpt lat="42.458919047424004" lon="11.4367450799862"><ele>262.0</ele><time>2026-04-18T08:39:27.997Z</time></trkpt><trkpt lat="42.45882903920961" lon="11.43683517565949"><ele>261.4</ele><time>2026-04-18T08:39:28.997Z</time></trkpt><trkpt lat="42.458768435224265" lon="11.43692465325538"><ele>260.79999999999995</ele><time>2026-04-18T08:39:29.997Z</time></trkpt><trkpt lat="42.45869835204117" lon="11.436972785903594"><ele>260.2</ele><time>2026-04-18T08:39:30.997Z</time></trkpt><trkpt lat="42.45862780628828" lon="11.437061776704194"><ele>259.59999999999997</ele><time>2026-04-18T08:39:31.997Z</time></trkpt><trkpt lat="42.45856395689785" lon="11.43716305280669"><ele>259.0</ele><time>2026-04-18T08:39:32.997Z</time></trkpt><trkpt lat="42.45850945344525" lon="11.43726842502887"><ele>259.0</ele><time>2026-04-18T08:39:33.997Z</time></trkpt><trkpt lat="42.45845499327672" lon="11.43742115995017"><ele>259.0</ele><time>2026-04-18T08:39:34.997Z</time></trkpt><trkpt lat="42.45838547481031" lon="11.437577415292559"><ele>259.0</ele><time>2026-04-18T08:39:35.997Z</time></trkpt><trkpt lat="42.45832250818963" lon="11.437739211223588"><ele>259.0</ele><time>2026-04-18T08:39:36.997Z</time></trkpt><trkpt lat="42.45825436367427" lon="11.43790638653508"><ele>258.0</ele><time>2026-04-18T08:39:37.997Z</time></trkpt><trkpt lat="42.45818802231317" lon="11.438056858882856"><ele>257.0</ele><time>2026-04-18T08:39:38.997Z</time></trkpt><trkpt lat="42.45812469532122" lon="11.438189782216703"><ele>255.99999999999997</ele><time>2026-04-18T08:39:39.997Z</time></trkpt><trkpt lat="42.45808000928829" lon="11.438311083482342"><ele>255.0</ele><time>2026-04-18T08:39:40.997Z</time></trkpt><trkpt lat="42.45802070177207" lon="11.4384162954927"><ele>254.0</ele><time>2026-04-18T08:39:41.997Z</time></trkpt><trkpt lat="42.45797805724284" lon="11.43851054732845"><ele>252.16666666666669</ele><time>2026-04-18T08:39:42.997Z</time></trkpt><trkpt lat="42.457929015881334" lon="11.438605099101315"><ele>250.33333333333334</ele><time>2026-04-18T08:39:43.997Z</time></trkpt><trkpt lat="42.457894470309235" lon="11.438720344824679"><ele>248.5</ele><time>2026-04-18T08:39:44.997Z</time></trkpt><trkpt lat="42.45785574265748" lon="11.43882864385153"><ele>246.66666666666669</ele><time>2026-04-18T08:39:45.997Z</time></trkpt><trkpt lat="42.45781210525798" lon="11.43893746193596"><ele>244.83333333333334</ele><time>2026-04-18T08:39:46.997Z</time></trkpt><trkpt lat="42.457780676889065" lon="11.43902745607003"><ele>243.0</ele><time>2026-04-18T08:39:47.997Z</time></trkpt><trkpt lat="42.45772744737069" lon="11.439118514486163"><ele>243.0</ele><time>2026-04-18T08:39:48.997Z</time></trkpt><trkpt lat="42.457708063568056" lon="11.439210532919676"><ele>243.0</ele><time>2026-04-18T08:39:49.997Z</time></trkpt><trkpt lat="42.4576794304711" lon="11.43929388632942"><ele>243.0</ele><time>2026-04-18T08:39:50.997Z</time></trkpt><trkpt lat="42.45764044217646" lon="11.439379302026783"><ele>243.0</ele><time>2026-04-18T08:39:51.997Z</time></trkpt><trkpt lat="42.45761718726098" lon="11.43945907384022"><ele>243.0</ele><time>2026-04-18T08:39:52.997Z</time></trkpt><trkpt lat="42.457572091361605" lon="11.439579209263464"><ele>243.0</ele><time>2026-04-18T08:39:54.997Z</time></trkpt><trkpt lat="42.457491582859475" lon="11.439615715570433"><ele>243.0</ele><time>2026-04-18T08:39:57.997Z</time></trkpt><trkpt lat="42.45737965538783" lon="11.439571170550058"><ele>243.0</ele><time>2026-04-18T08:39:59.997Z</time></trkpt><trkpt lat="42.45730884770601" lon="11.439526572932031"><ele>243.0</ele><time>2026-04-18T08:40:00.997Z</time></trkpt><trkpt lat="42.45724518381858" lon="11.439484401773218"><ele>243.0</ele><time>2026-04-18T08:40:01.997Z</time></trkpt><trkpt lat="42.45718292029713" lon="11.439414983078684"><ele>243.0</ele><time>2026-04-18T08:40:02.997Z</time></trkpt><trkpt lat="42.457125584003144" lon="11.439353238273746"><ele>243.0</ele><time>2026-04-18T08:40:03.997Z</time></trkpt><trkpt lat="42.45707423534823" lon="11.439300286243553"><ele>239.0</ele><time>2026-04-18T08:40:04.997Z</time></trkpt><trkpt lat="42.457022266970675" lon="11.439222595513032"><ele>235.0</ele><time>2026-04-18T08:40:05.997Z</time></trkpt><trkpt lat="42.45695632080601" lon="11.439109093366408"><ele>231.0</ele><time>2026-04-18T08:40:06.997Z</time></trkpt><trkpt lat="42.456897562678186" lon="11.439006516605613"><ele>227.0</ele><time>2026-04-18T08:40:07.997Z</time></trkpt><trkpt lat="42.45681876968505" lon="11.438906111906892"><ele>223.0</ele><time>2026-04-18T08:40:08.997Z</time></trkpt><trkpt lat="42.45675683945205" lon="11.438800029598015"><ele>222.33333333333331</ele><time>2026-04-18T08:40:09.997Z</time></trkpt><trkpt lat="42.45668492036522" lon="11.43870562500911"><ele>221.66666666666666</ele><time>2026-04-18T08:40:10.997Z</time></trkpt><trkpt lat="42.45662159621675" lon="11.438619634613707"><ele>221.0</ele><time>2026-04-18T08:40:11.998Z</time></trkpt><trkpt lat="42.45656919372054" lon="11.438551336315891"><ele>220.33333333333331</ele><time>2026-04-18T08:40:12.998Z</time></trkpt><trkpt lat="42.45651368020066" lon="11.43849549771727"><ele>219.66666666666666</ele><time>2026-04-18T08:40:13.998Z</time></trkpt><trkpt lat="42.456441221434744" lon="11.438406021131412"><ele>219.0</ele><time>2026-04-18T08:40:15.998Z</time></trkpt><trkpt lat="42.45635327155796" lon="11.43832775487162"><ele>215.6</ele><time>2026-04-18T08:40:17.999Z</time></trkpt><trkpt lat="42.45625533761359" lon="11.438274543195973"><ele>212.2</ele><time>2026-04-18T08:40:19.999Z</time></trkpt><trkpt lat="42.45618823444733" lon="11.438280836602749"><ele>208.79999999999998</ele><time>2026-04-18T08:40:20.999Z</time></trkpt><trkpt lat="42.456105141531815" lon="11.438326752922883"><ele>205.39999999999998</ele><time>2026-04-18T08:40:22.999Z</time></trkpt><trkpt lat="42.45604335914514" lon="11.438349425480276"><ele>202.0</ele><time>2026-04-18T08:40:24.999Z</time></trkpt><trkpt lat="42.45596834951049" lon="11.43848941436382"><ele>202.0</ele><time>2026-04-18T08:40:27Z</time></trkpt><trkpt lat="42.45593937361798" lon="11.438601871883918"><ele>202.0</ele><time>2026-04-18T08:40:28Z</time></trkpt><trkpt lat="42.45590989973214" lon="11.43872745611766"><ele>202.0</ele><time>2026-04-18T08:40:29Z</time></trkpt><trkpt lat="42.45587936596106" lon="11.438868728478681"><ele>202.0</ele><time>2026-04-18T08:40:30Z</time></trkpt><trkpt lat="42.45584400101704" lon="11.439017515450837"><ele>202.0</ele><time>2026-04-18T08:40:31Z</time></trkpt><trkpt lat="42.45580372383927" lon="11.439182287896335"><ele>202.75</ele><time>2026-04-18T08:40:32Z</time></trkpt><trkpt lat="42.45576416180794" lon="11.439344134696224"><ele>203.5</ele><time>2026-04-18T08:40:33Z</time></trkpt><trkpt lat="42.45571504919626" lon="11.439545052570177"><ele>204.25</ele><time>2026-04-18T08:40:34Z</time></trkpt><trkpt lat="42.455669897392234" lon="11.43972976696094"><ele>205.0</ele><time>2026-04-18T08:40:35Z</time></trkpt><trkpt lat="42.4556419260243" lon="11.439913958275188"><ele>205.5</ele><time>2026-04-18T08:40:36Z</time></trkpt><trkpt lat="42.45558723679345" lon="11.440067928419753"><ele>206.0</ele><time>2026-04-18T08:40:37Z</time></trkpt><trkpt lat="42.455550194804374" lon="11.44021946578717"><ele>206.5</ele><time>2026-04-18T08:40:38Z</time></trkpt><trkpt lat="42.45551579400277" lon="11.440360945824683"><ele>207.0</ele><time>2026-04-18T08:40:39Z</time></trkpt><trkpt lat="42.455485210421834" lon="11.440487229705257"><ele>206.2</ele><time>2026-04-18T08:40:40Z</time></trkpt><trkpt lat="42.455455311256976" lon="11.44061875304974"><ele>205.39999999999998</ele><time>2026-04-18T08:40:41Z</time></trkpt><trkpt lat="42.45544170226314" lon="11.440754200314819"><ele>204.60000000000002</ele><time>2026-04-18T08:40:42Z</time></trkpt><trkpt lat="42.455432700144954" lon="11.440895392915271"><ele>203.8</ele><time>2026-04-18T08:40:43Z</time></trkpt><trkpt lat="42.45542139802669" lon="11.441041741890377"><ele>203.0</ele><time>2026-04-18T08:40:44Z</time></trkpt><trkpt lat="42.45543461535936" lon="11.441220375389182"><ele>200.66666666666669</ele><time>2026-04-18T08:40:45Z</time></trkpt><trkpt lat="42.455455852318075" lon="11.441419497636772"><ele>198.33333333333331</ele><time>2026-04-18T08:40:46Z</time></trkpt><trkpt lat="42.45547751105618" lon="11.44162070189914"><ele>196.0</ele><time>2026-04-18T08:40:47Z</time></trkpt><trkpt lat="42.45549906945797" lon="11.441823787071325"><ele>196.0</ele><time>2026-04-18T08:40:48Z</time></trkpt><trkpt lat="42.45551982648733" lon="11.442020735640229"><ele>196.0</ele><time>2026-04-18T08:40:49Z</time></trkpt><trkpt lat="42.45553766512819" lon="11.442215137273376"><ele>196.0</ele><time>2026-04-18T08:40:50Z</time></trkpt><trkpt lat="42.455551703319514" lon="11.442393881693937"><ele>196.0</ele><time>2026-04-18T08:40:51Z</time></trkpt><trkpt lat="42.45556448114261" lon="11.442569856629515"><ele>195.0</ele><time>2026-04-18T08:40:52Z</time></trkpt><trkpt lat="42.45557537545385" lon="11.442732071891749"><ele>194.0</ele><time>2026-04-18T08:40:53Z</time></trkpt><trkpt lat="42.4555866700896" lon="11.442897968284278"><ele>193.0</ele><time>2026-04-18T08:40:54Z</time></trkpt><trkpt lat="42.45559713713477" lon="11.443050180908232"><ele>192.0</ele><time>2026-04-18T08:40:55Z</time></trkpt><trkpt lat="42.455607658156104" lon="11.443203178498301"><ele>191.2</ele><time>2026-04-18T08:40:56Z</time></trkpt><trkpt lat="42.45561983804884" lon="11.443360275333974"><ele>190.39999999999998</ele><time>2026-04-18T08:40:57Z</time></trkpt><trkpt lat="42.45563120464877" lon="11.443502829766361"><ele>189.60000000000002</ele><time>2026-04-18T08:40:58Z</time></trkpt><trkpt lat="42.4556423002931" lon="11.443641986466158"><ele>188.8</ele><time>2026-04-18T08:40:59Z</time></trkpt><trkpt lat="42.45565741935309" lon="11.443801605405971"><ele>188.0</ele><time>2026-04-18T08:41:00Z</time></trkpt><trkpt lat="42.455673090622305" lon="11.44397448240703"><ele>186.5</ele><time>2026-04-18T08:41:01Z</time></trkpt><trkpt lat="42.455688686462295" lon="11.444146527784131"><ele>185.0</ele><time>2026-04-18T08:41:02Z</time></trkpt><trkpt lat="42.455700934114496" lon="11.444325243353347"><ele>183.5</ele><time>2026-04-18T08:41:03Z</time></trkpt><trkpt lat="42.45571217387636" lon="11.444483681226647"><ele>182.0</ele><time>2026-04-18T08:41:04Z</time></trkpt><trkpt lat="42.455723717996015" lon="11.444646326601816"><ele>181.39999999999998</ele><time>2026-04-18T08:41:05Z</time></trkpt><trkpt lat="42.4557340049861" lon="11.444791260296821"><ele>180.79999999999998</ele><time>2026-04-18T08:41:06Z</time></trkpt><trkpt lat="42.45574556953518" lon="11.444937299286371"><ele>180.2</ele><time>2026-04-18T08:41:07Z</time></trkpt><trkpt lat="42.45575679410778" lon="11.44507826347923"><ele>179.6</ele><time>2026-04-18T08:41:08Z</time></trkpt><trkpt lat="42.45577023308457" lon="11.445209747795959"><ele>179.0</ele><time>2026-04-18T08:41:09Z</time></trkpt><trkpt lat="42.45578330360167" lon="11.445345005591657"><ele>177.6</ele><time>2026-04-18T08:41:10Z</time></trkpt><trkpt lat="42.455798080470764" lon="11.445497921333079"><ele>176.2</ele><time>2026-04-18T08:41:11Z</time></trkpt><trkpt lat="42.45581174237015" lon="11.445645711384644"><ele>174.79999999999998</ele><time>2026-04-18T08:41:12Z</time></trkpt><trkpt lat="42.455823619005514" lon="11.445783933220357"><ele>173.39999999999998</ele><time>2026-04-18T08:41:13Z</time></trkpt><trkpt lat="42.455834681536615" lon="11.445913538636967"><ele>172.0</ele><time>2026-04-18T08:41:14Z</time></trkpt><trkpt lat="42.45584568548134" lon="11.44604584254328"><ele>172.0</ele><time>2026-04-18T08:41:15Z</time></trkpt><trkpt lat="42.45585729808051" lon="11.446185464474887"><ele>172.0</ele><time>2026-04-18T08:41:16Z</time></trkpt><trkpt lat="42.45586971093695" lon="11.446334708198478"><ele>172.0</ele><time>2026-04-18T08:41:17Z</time></trkpt><trkpt lat="42.45588191463745" lon="11.446474782090329"><ele>172.0</ele><time>2026-04-18T08:41:18Z</time></trkpt><trkpt lat="42.455894054721185" lon="11.446613305893612"><ele>172.0</ele><time>2026-04-18T08:41:19Z</time></trkpt><trkpt lat="42.45590375870888" lon="11.446741036553247"><ele>171.6</ele><time>2026-04-18T08:41:20Z</time></trkpt><trkpt lat="42.45591220094151" lon="11.446861613730455"><ele>171.2</ele><time>2026-04-18T08:41:21Z</time></trkpt><trkpt lat="42.4559235147086" lon="11.447007601909526"><ele>170.8</ele><time>2026-04-18T08:41:22Z</time></trkpt><trkpt lat="42.45593533124603" lon="11.447143768455541"><ele>170.4</ele><time>2026-04-18T08:41:23Z</time></trkpt><trkpt lat="42.455946902313286" lon="11.447270464397041"><ele>170.0</ele><time>2026-04-18T08:41:24Z</time></trkpt><trkpt lat="42.45595866972835" lon="11.447399310145656"><ele>168.6</ele><time>2026-04-18T08:41:25Z</time></trkpt><trkpt lat="42.45597021007846" lon="11.447541298191451"><ele>167.2</ele><time>2026-04-18T08:41:26Z</time></trkpt><trkpt lat="42.455979610674035" lon="11.447679457025648"><ele>165.8</ele><time>2026-04-18T08:41:27Z</time></trkpt><trkpt lat="42.455988847831094" lon="11.447814753279197"><ele>164.4</ele><time>2026-04-18T08:41:28Z</time></trkpt><trkpt lat="42.45599737026912" lon="11.447939032364527"><ele>163.0</ele><time>2026-04-18T08:41:29Z</time></trkpt><trkpt lat="42.456006099944275" lon="11.44806633352237"><ele>160.6</ele><time>2026-04-18T08:41:30Z</time></trkpt><trkpt lat="42.45601721926486" lon="11.448198209804929"><ele>158.20000000000002</ele><time>2026-04-18T08:41:31Z</time></trkpt><trkpt lat="42.45602918713873" lon="11.448333482192375"><ele>155.8</ele><time>2026-04-18T08:41:32Z</time></trkpt><trkpt lat="42.45604164311653" lon="11.44847361199231"><ele>153.4</ele><time>2026-04-18T08:41:33Z</time></trkpt><trkpt lat="42.45605453022155" lon="11.44861859197988"><ele>151.0</ele><time>2026-04-18T08:41:34Z</time></trkpt><trkpt lat="42.45606739218062" lon="11.448763289048891"><ele>149.2</ele><time>2026-04-18T08:41:35Z</time></trkpt><trkpt lat="42.456080177077354" lon="11.448907119149457"><ele>147.39999999999998</ele><time>2026-04-18T08:41:36Z</time></trkpt><trkpt lat="42.45610404902463" lon="11.449044161399913"><ele>145.6</ele><time>2026-04-18T08:41:37Z</time></trkpt><trkpt lat="42.45611888839972" lon="11.44917968457614"><ele>143.79999999999998</ele><time>2026-04-18T08:41:38Z</time></trkpt><trkpt lat="42.45612876451698" lon="11.44931870632167"><ele>142.0</ele><time>2026-04-18T08:41:39Z</time></trkpt><trkpt lat="42.456123754039815" lon="11.44946776178561"><ele>142.0</ele><time>2026-04-18T08:41:40Z</time></trkpt><trkpt lat="42.456133325948144" lon="11.449602850879321"><ele>142.0</ele><time>2026-04-18T08:41:41Z</time></trkpt><trkpt lat="42.456142635918916" lon="11.449742829659725"><ele>142.0</ele><time>2026-04-18T08:41:42Z</time></trkpt><trkpt lat="42.45616741039819" lon="11.449891420642846"><ele>142.0</ele><time>2026-04-18T08:41:43Z</time></trkpt><trkpt lat="42.45617483450512" lon="11.450039421309423"><ele>142.0</ele><time>2026-04-18T08:41:44Z</time></trkpt><trkpt lat="42.45618767957868" lon="11.450177950976723"><ele>140.79999999999998</ele><time>2026-04-18T08:41:45Z</time></trkpt><trkpt lat="42.456199419978745" lon="11.450303551615722"><ele>139.6</ele><time>2026-04-18T08:41:46Z</time></trkpt><trkpt lat="42.456211385675935" lon="11.450433599799977"><ele>138.39999999999998</ele><time>2026-04-18T08:41:47Z</time></trkpt><trkpt lat="42.45621031010456" lon="11.45056004841283"><ele>137.2</ele><time>2026-04-18T08:41:48Z</time></trkpt><trkpt lat="42.4562339057158" lon="11.450692862950849"><ele>136.0</ele><time>2026-04-18T08:41:49Z</time></trkpt><trkpt lat="42.456244968539984" lon="11.45082795307827"><ele>134.83333333333334</ele><time>2026-04-18T08:41:50Z</time></trkpt><trkpt lat="42.456256689569" lon="11.450945979141856"><ele>133.66666666666669</ele><time>2026-04-18T08:41:51Z</time></trkpt><trkpt lat="42.4562703601164" lon="11.451058554188283"><ele>132.5</ele><time>2026-04-18T08:41:52Z</time></trkpt><trkpt lat="42.45627699440377" lon="11.45116926923869"><ele>131.33333333333334</ele><time>2026-04-18T08:41:53Z</time></trkpt><trkpt lat="42.456287159050085" lon="11.451263333678062"><ele>130.16666666666666</ele><time>2026-04-18T08:41:54Z</time></trkpt><trkpt lat="42.45628912890078" lon="11.451349658690537"><ele>129.0</ele><time>2026-04-18T08:41:55Z</time></trkpt><trkpt lat="42.45630763355581" lon="11.451490548753915"><ele>127.6</ele><time>2026-04-18T08:41:57Z</time></trkpt><trkpt lat="42.45629866189064" lon="11.451575864008115"><ele>126.2</ele><time>2026-04-18T08:41:59Z</time></trkpt><trkpt lat="42.456255438901266" lon="11.451648018293662"><ele>124.79999999999998</ele><time>2026-04-18T08:42:03Z</time></trkpt><trkpt lat="42.45610226698587" lon="11.451565979356172"><ele>123.39999999999999</ele><time>2026-04-18T08:42:06Z</time></trkpt><trkpt lat="42.4560420337369" lon="11.451493644339424"><ele>122.0</ele><time>2026-04-18T08:42:07Z</time></trkpt><trkpt lat="42.4559672686091" lon="11.451425514024468"><ele>121.75</ele><time>2026-04-18T08:42:08Z</time></trkpt><trkpt lat="42.455888322155054" lon="11.45135544557033"><ele>121.5</ele><time>2026-04-18T08:42:09Z</time></trkpt><trkpt lat="42.4557937697388" lon="11.451266619552953"><ele>121.25</ele><time>2026-04-18T08:42:10Z</time></trkpt><trkpt lat="42.45569518317894" lon="11.451165427988204"><ele>121.0</ele><time>2026-04-18T08:42:11Z</time></trkpt><trkpt lat="42.455596236454255" lon="11.451066576526458"><ele>120.5</ele><time>2026-04-18T08:42:12Z</time></trkpt><trkpt lat="42.45548730741892" lon="11.450970048272204"><ele>120.0</ele><time>2026-04-18T08:42:13Z</time></trkpt><trkpt lat="42.45537165324428" lon="11.450874249687297"><ele>119.5</ele><time>2026-04-18T08:42:14Z</time></trkpt><trkpt lat="42.45524655345569" lon="11.450768185163698"><ele>119.0</ele><time>2026-04-18T08:42:15Z</time></trkpt><trkpt lat="42.45513011817051" lon="11.450649286609314"><ele>119.0</ele><time>2026-04-18T08:42:16Z</time></trkpt><trkpt lat="42.455010961052004" lon="11.450534162090307"><ele>119.0</ele><time>2026-04-18T08:42:17Z</time></trkpt><trkpt lat="42.454877692993755" lon="11.45042785349412"><ele>119.0</ele><time>2026-04-18T08:42:18.001Z</time></trkpt><trkpt lat="42.45474161198439" lon="11.45034321232999"><ele>121.0</ele><time>2026-04-18T08:42:19.001Z</time></trkpt><trkpt lat="42.45459956820543" lon="11.450283281806971"><ele>123.0</ele><time>2026-04-18T08:42:20.001Z</time></trkpt><trkpt lat="42.45444913225722" lon="11.450248849843954"><ele>125.0</ele><time>2026-04-18T08:42:21.001Z</time></trkpt><trkpt lat="42.45429355990754" lon="11.450237419332458"><ele>125.0</ele><time>2026-04-18T08:42:22.001Z</time></trkpt><trkpt lat="42.454143899271344" lon="11.45023159909433"><ele>125.0</ele><time>2026-04-18T08:42:23.001Z</time></trkpt><trkpt lat="42.45400023829863" lon="11.450242167444374"><ele>125.0</ele><time>2026-04-18T08:42:24.001Z</time></trkpt><trkpt lat="42.453855918262036" lon="11.450267197662376"><ele>125.0</ele><time>2026-04-18T08:42:25.001Z</time></trkpt><trkpt lat="42.45372331422742" lon="11.45031527845505"><ele>124.0</ele><time>2026-04-18T08:42:26.001Z</time></trkpt><trkpt lat="42.45359819560628" lon="11.45037802528817"><ele>123.0</ele><time>2026-04-18T08:42:27.001Z</time></trkpt><trkpt lat="42.45347575071719" lon="11.450472078664243"><ele>122.0</ele><time>2026-04-18T08:42:28.001Z</time></trkpt><trkpt lat="42.45336044190715" lon="11.450590905796806"><ele>121.0</ele><time>2026-04-18T08:42:29.001Z</time></trkpt><trkpt lat="42.45324366618455" lon="11.450707628896929"><ele>120.25</ele><time>2026-04-18T08:42:30.001Z</time></trkpt><trkpt lat="42.45312809187659" lon="11.450816446278655"><ele>119.5</ele><time>2026-04-18T08:42:31.001Z</time></trkpt><trkpt lat="42.45301228797583" lon="11.450918596640719"><ele>118.75</ele><time>2026-04-18T08:42:32.001Z</time></trkpt><trkpt lat="42.452899451717954" lon="11.451017986492461"><ele>118.0</ele><time>2026-04-18T08:42:33.001Z</time></trkpt><trkpt lat="42.452786990192934" lon="11.451114589561174"><ele>117.5</ele><time>2026-04-18T08:42:34.001Z</time></trkpt><trkpt lat="42.4526813228273" lon="11.451207930829058"><ele>117.0</ele><time>2026-04-18T08:42:35.001Z</time></trkpt><trkpt lat="42.452582152897364" lon="11.451294180289857"><ele>116.5</ele><time>2026-04-18T08:42:36.001Z</time></trkpt><trkpt lat="42.45248479543496" lon="11.451388476373225"><ele>116.0</ele><time>2026-04-18T08:42:37.001Z</time></trkpt><trkpt lat="42.45239615752451" lon="11.451476479924573"><ele>116.0</ele><time>2026-04-18T08:42:38.001Z</time></trkpt><trkpt lat="42.45230999934774" lon="11.451557082311961"><ele>116.0</ele><time>2026-04-18T08:42:39.001Z</time></trkpt><trkpt lat="42.45222747269498" lon="11.45163074165876"><ele>116.0</ele><time>2026-04-18T08:42:40.001Z</time></trkpt><trkpt lat="42.452148164206385" lon="11.451701863412557"><ele>116.0</ele><time>2026-04-18T08:42:41.001Z</time></trkpt><trkpt lat="42.452073168327026" lon="11.451767501873668"><ele>116.0</ele><time>2026-04-18T08:42:42.001Z</time></trkpt><trkpt lat="42.45200521827376" lon="11.451810804443435"><ele>116.0</ele><time>2026-04-18T08:42:43.001Z</time></trkpt><trkpt lat="42.451938671561905" lon="11.451848109861551"><ele>116.0</ele><time>2026-04-18T08:42:44.001Z</time></trkpt><trkpt lat="42.45187180039226" lon="11.451852155315583"><ele>116.0</ele><time>2026-04-18T08:42:45.001Z</time></trkpt><trkpt lat="42.45180172655608" lon="11.451872328232914"><ele>116.0</ele><time>2026-04-18T08:42:46.001Z</time></trkpt><trkpt lat="42.45174076194032" lon="11.452041503454746"><ele>116.0</ele><time>2026-04-18T08:42:47.001Z</time></trkpt><trkpt lat="42.45165980163817" lon="11.452151689196548"><ele>115.75</ele><time>2026-04-18T08:42:48.001Z</time></trkpt><trkpt lat="42.45157179168282" lon="11.452256888925197"><ele>115.5</ele><time>2026-04-18T08:42:49.001Z</time></trkpt><trkpt lat="42.45146534594103" lon="11.452364748313718"><ele>115.25</ele><time>2026-04-18T08:42:50.001Z</time></trkpt><trkpt lat="42.45135447653346" lon="11.452465462769602"><ele>115.0</ele><time>2026-04-18T08:42:51.001Z</time></trkpt><trkpt lat="42.45123202638309" lon="11.452593898170587"><ele>115.25</ele><time>2026-04-18T08:42:52Z</time></trkpt><trkpt lat="42.45111879061477" lon="11.452720664967494"><ele>115.5</ele><time>2026-04-18T08:42:53Z</time></trkpt><trkpt lat="42.45100744344291" lon="11.45285346957681"><ele>115.75</ele><time>2026-04-18T08:42:54Z</time></trkpt><trkpt lat="42.45090378098383" lon="11.45298992830337"><ele>116.0</ele><time>2026-04-18T08:42:55Z</time></trkpt><trkpt lat="42.45080073032387" lon="11.453147031021487"><ele>116.0</ele><time>2026-04-18T08:42:56Z</time></trkpt><trkpt lat="42.45069856163445" lon="11.45331182205015"><ele>116.0</ele><time>2026-04-18T08:42:57Z</time></trkpt><trkpt lat="42.45059201543387" lon="11.453481927258393"><ele>116.0</ele><time>2026-04-18T08:42:58Z</time></trkpt><trkpt lat="42.450484547822015" lon="11.453643001802291"><ele>117.0</ele><time>2026-04-18T08:42:59Z</time></trkpt><trkpt lat="42.45037196761573" lon="11.453808461030302"><ele>118.0</ele><time>2026-04-18T08:43:00Z</time></trkpt><trkpt lat="42.45026466332884" lon="11.453979280774487"><ele>119.0</ele><time>2026-04-18T08:43:01Z</time></trkpt><trkpt lat="42.45015408355025" lon="11.454141725852782"><ele>119.0</ele><time>2026-04-18T08:43:02Z</time></trkpt><trkpt lat="42.45004079954484" lon="11.454289145698423"><ele>119.0</ele><time>2026-04-18T08:43:03Z</time></trkpt><trkpt lat="42.44992059476523" lon="11.454433196630179"><ele>119.0</ele><time>2026-04-18T08:43:04Z</time></trkpt><trkpt lat="42.44980182473802" lon="11.454569882382147"><ele>117.66666666666666</ele><time>2026-04-18T08:43:05Z</time></trkpt><trkpt lat="42.4496782140724" lon="11.454718607178012"><ele>116.33333333333334</ele><time>2026-04-18T08:43:06Z</time></trkpt><trkpt lat="42.449554052959336" lon="11.454862435163502"><ele>115.0</ele><time>2026-04-18T08:43:07Z</time></trkpt><trkpt lat="42.44943185178859" lon="11.455012645138288"><ele>115.0</ele><time>2026-04-18T08:43:08Z</time></trkpt><trkpt lat="42.44930000254326" lon="11.455149081277312"><ele>115.0</ele><time>2026-04-18T08:43:09Z</time></trkpt><trkpt lat="42.44916677831713" lon="11.455259023543857"><ele>115.0</ele><time>2026-04-18T08:43:10Z</time></trkpt><trkpt lat="42.449017612678006" lon="11.45536477779551"><ele>114.0</ele><time>2026-04-18T08:43:11Z</time></trkpt><trkpt lat="42.44890685691468" lon="11.455468548051478"><ele>113.0</ele><time>2026-04-18T08:43:12Z</time></trkpt><trkpt lat="42.448781771377995" lon="11.455571006196063"><ele>112.0</ele><time>2026-04-18T08:43:13Z</time></trkpt><trkpt lat="42.44864629829806" lon="11.45567061500972"><ele>111.0</ele><time>2026-04-18T08:43:14Z</time></trkpt><trkpt lat="42.44850618385222" lon="11.455761249431132"><ele>109.66666666666666</ele><time>2026-04-18T08:43:15Z</time></trkpt><trkpt lat="42.44835962073582" lon="11.455857209420364"><ele>108.33333333333333</ele><time>2026-04-18T08:43:16Z</time></trkpt><trkpt lat="42.44821744091109" lon="11.455936911724407"><ele>107.0</ele><time>2026-04-18T08:43:17Z</time></trkpt><trkpt lat="42.448081291933214" lon="11.456027332643005"><ele>105.33333333333333</ele><time>2026-04-18T08:43:18Z</time></trkpt><trkpt lat="42.447938278111344" lon="11.456124081181843"><ele>103.66666666666666</ele><time>2026-04-18T08:43:19Z</time></trkpt><trkpt lat="42.447795235718026" lon="11.456222012089528"><ele>102.0</ele><time>2026-04-18T08:43:20Z</time></trkpt><trkpt lat="42.44766111607956" lon="11.456304789345833"><ele>101.25</ele><time>2026-04-18T08:43:21Z</time></trkpt><trkpt lat="42.44752859972735" lon="11.45636025824772"><ele>100.5</ele><time>2026-04-18T08:43:22Z</time></trkpt><trkpt lat="42.44738579780262" lon="11.456397947354693"><ele>99.75</ele><time>2026-04-18T08:43:23Z</time></trkpt><trkpt lat="42.44726114307135" lon="11.456420379582548"><ele>99.0</ele><time>2026-04-18T08:43:24Z</time></trkpt><trkpt lat="42.44713227323214" lon="11.456476126024583"><ele>99.33333333333334</ele><time>2026-04-18T08:43:25Z</time></trkpt><trkpt lat="42.44701052817237" lon="11.45658181735529"><ele>99.66666666666667</ele><time>2026-04-18T08:43:26Z</time></trkpt><trkpt lat="42.4468949626407" lon="11.456722500997131"><ele>100.0</ele><time>2026-04-18T08:43:27Z</time></trkpt><trkpt lat="42.44678706668288" lon="11.456870763368121"><ele>100.0</ele><time>2026-04-18T08:43:28Z</time></trkpt><trkpt lat="42.44667930977313" lon="11.457022676971954"><ele>100.0</ele><time>2026-04-18T08:43:29Z</time></trkpt><trkpt lat="42.446567889319276" lon="11.457174839612126"><ele>100.0</ele><time>2026-04-18T08:43:30Z</time></trkpt><trkpt lat="42.44645320463954" lon="11.457328606081967"><ele>100.33333333333334</ele><time>2026-04-18T08:43:31Z</time></trkpt><trkpt lat="42.44633337317592" lon="11.457475637078282"><ele>100.66666666666666</ele><time>2026-04-18T08:43:32Z</time></trkpt><trkpt lat="42.44620900836381" lon="11.457602206077386"><ele>101.0</ele><time>2026-04-18T08:43:33Z</time></trkpt><trkpt lat="42.44609298719711" lon="11.457734726576573"><ele>101.33333333333333</ele><time>2026-04-18T08:43:34Z</time></trkpt><trkpt lat="42.445976392486294" lon="11.457871372913148"><ele>101.66666666666666</ele><time>2026-04-18T08:43:35Z</time></trkpt><trkpt lat="42.44586206969297" lon="11.458016492211113"><ele>102.0</ele><time>2026-04-18T08:43:36Z</time></trkpt><trkpt lat="42.44575158814807" lon="11.458159499992476"><ele>102.0</ele><time>2026-04-18T08:43:37Z</time></trkpt><trkpt lat="42.44564604614482" lon="11.458318179517505"><ele>102.0</ele><time>2026-04-18T08:43:38Z</time></trkpt><trkpt lat="42.44553702044798" lon="11.45848544374554"><ele>102.0</ele><time>2026-04-18T08:43:39Z</time></trkpt><trkpt lat="42.44543873003785" lon="11.458653886976048"><ele>102.33333333333334</ele><time>2026-04-18T08:43:40Z</time></trkpt><trkpt lat="42.44533774104242" lon="11.45882293181531"><ele>102.66666666666667</ele><time>2026-04-18T08:43:41Z</time></trkpt><trkpt lat="42.44523082305015" lon="11.458974707112844"><ele>103.0</ele><time>2026-04-18T08:43:42Z</time></trkpt><trkpt lat="42.445143991077174" lon="11.45914928521304"><ele>103.0</ele><time>2026-04-18T08:43:43Z</time></trkpt><trkpt lat="42.445041515959105" lon="11.459280208521376"><ele>103.0</ele><time>2026-04-18T08:43:44Z</time></trkpt><trkpt lat="42.444973097317714" lon="11.459423421133444"><ele>103.0</ele><time>2026-04-18T08:43:45Z</time></trkpt><trkpt lat="42.44489193567121" lon="11.459554235691517"><ele>103.0</ele><time>2026-04-18T08:43:46Z</time></trkpt><trkpt lat="42.444820521038466" lon="11.459666297169534"><ele>103.0</ele><time>2026-04-18T08:43:47Z</time></trkpt><trkpt lat="42.44473357884419" lon="11.45976912010101"><ele>103.0</ele><time>2026-04-18T08:43:48Z</time></trkpt><trkpt lat="42.444661015442406" lon="11.459882792942857"><ele>103.0</ele><time>2026-04-18T08:43:49Z</time></trkpt><trkpt lat="42.44458570205767" lon="11.46000374296513"><ele>103.0</ele><time>2026-04-18T08:43:50Z</time></trkpt><trkpt lat="42.44451740270665" lon="11.460120517417234"><ele>102.2</ele><time>2026-04-18T08:43:51Z</time></trkpt><trkpt lat="42.44445696669631" lon="11.460238599771671"><ele>101.4</ele><time>2026-04-18T08:43:52Z</time></trkpt><trkpt lat="42.44440529496211" lon="11.46036162151618"><ele>100.60000000000001</ele><time>2026-04-18T08:43:53Z</time></trkpt><trkpt lat="42.444360087338595" lon="11.460473564944506"><ele>99.80000000000001</ele><time>2026-04-18T08:43:54Z</time></trkpt><trkpt lat="42.444320009113845" lon="11.460573870500982"><ele>99.0</ele><time>2026-04-18T08:43:55Z</time></trkpt><trkpt lat="42.44428688196876" lon="11.460662847139973"><ele>99.0</ele><time>2026-04-18T08:43:56Z</time></trkpt><trkpt lat="42.44424407572747" lon="11.46078325025355"><ele>99.0</ele><time>2026-04-18T08:43:58Z</time></trkpt><trkpt lat="42.444439981796236" lon="11.46094706706261"><ele>99.0</ele><time>2026-04-18T08:43:59Z</time></trkpt><trkpt lat="42.44453480153145" lon="11.461030819016838"><ele>99.0</ele><time>2026-04-18T08:44:00Z</time></trkpt><trkpt lat="42.444626124371915" lon="11.461111482232102"><ele>99.75</ele><time>2026-04-18T08:44:01Z</time></trkpt><trkpt lat="42.444726960975515" lon="11.461200548729375"><ele>100.5</ele><time>2026-04-18T08:44:02Z</time></trkpt><trkpt lat="42.44483648295848" lon="11.461297265214261"><ele>101.25</ele><time>2026-04-18T08:44:03Z</time></trkpt><trkpt lat="42.44493282946532" lon="11.461381801001044"><ele>102.0</ele><time>2026-04-18T08:44:04Z</time></trkpt><trkpt lat="42.445036916856886" lon="11.461477149096694"><ele>102.0</ele><time>2026-04-18T08:44:05Z</time></trkpt><trkpt lat="42.445137304119825" lon="11.461575533628762"><ele>102.0</ele><time>2026-04-18T08:44:06Z</time></trkpt><trkpt lat="42.44523132514384" lon="11.461685943338887"><ele>102.0</ele><time>2026-04-18T08:44:07Z</time></trkpt><trkpt lat="42.44534008346149" lon="11.461781940807775"><ele>102.0</ele><time>2026-04-18T08:44:08Z</time></trkpt><trkpt lat="42.445424394806736" lon="11.461918914646779"><ele>102.0</ele><time>2026-04-18T08:44:09Z</time></trkpt><trkpt lat="42.445506492124565" lon="11.46205356308174"><ele>102.0</ele><time>2026-04-18T08:44:10Z</time></trkpt><trkpt lat="42.445586672048556" lon="11.462181632037256"><ele>102.0</ele><time>2026-04-18T08:44:11Z</time></trkpt><trkpt lat="42.4456687842201" lon="11.462308883164807"><ele>102.0</ele><time>2026-04-18T08:44:12Z</time></trkpt><trkpt lat="42.4457540760887" lon="11.462439483471256"><ele>100.75</ele><time>2026-04-18T08:44:13Z</time></trkpt><trkpt lat="42.44583322915042" lon="11.46256966932902"><ele>99.5</ele><time>2026-04-18T08:44:14Z</time></trkpt><trkpt lat="42.445905570785825" lon="11.46270500502424"><ele>98.25</ele><time>2026-04-18T08:44:15Z</time></trkpt><trkpt lat="42.445952593856155" lon="11.462844944531213"><ele>97.0</ele><time>2026-04-18T08:44:16Z</time></trkpt><trkpt lat="42.44597097926699" lon="11.463003336733665"><ele>96.75</ele><time>2026-04-18T08:44:17Z</time></trkpt><trkpt lat="42.445946293323885" lon="11.463167806159744"><ele>96.5</ele><time>2026-04-18T08:44:18Z</time></trkpt><trkpt lat="42.44595266372443" lon="11.463335526320877"><ele>96.25</ele><time>2026-04-18T08:44:19Z</time></trkpt><trkpt lat="42.44597521684518" lon="11.463505142337434"><ele>96.0</ele><time>2026-04-18T08:44:20Z</time></trkpt><trkpt lat="42.4459784045856" lon="11.46367948844704"><ele>95.75</ele><time>2026-04-18T08:44:21Z</time></trkpt><trkpt lat="42.44598517352778" lon="11.46385141638795"><ele>95.5</ele><time>2026-04-18T08:44:22Z</time></trkpt><trkpt lat="42.44602376342592" lon="11.46401692545805"><ele>95.25</ele><time>2026-04-18T08:44:23.001Z</time></trkpt><trkpt lat="42.44608024370318" lon="11.464173034703274"><ele>95.0</ele><time>2026-04-18T08:44:24.001Z</time></trkpt><trkpt lat="42.44614960748413" lon="11.464320493664568"><ele>95.0</ele><time>2026-04-18T08:44:25.001Z</time></trkpt><trkpt lat="42.44621418779351" lon="11.464479842965176"><ele>95.0</ele><time>2026-04-18T08:44:26.001Z</time></trkpt><trkpt lat="42.44627434682613" lon="11.46464295566675"><ele>95.0</ele><time>2026-04-18T08:44:27.001Z</time></trkpt><trkpt lat="42.446337601633275" lon="11.464794871931904"><ele>95.0</ele><time>2026-04-18T08:44:28.001Z</time></trkpt><trkpt lat="42.44640143687513" lon="11.464955110224322"><ele>94.5</ele><time>2026-04-18T08:44:29.001Z</time></trkpt><trkpt lat="42.44647073898505" lon="11.465108041478603"><ele>94.0</ele><time>2026-04-18T08:44:30.001Z</time></trkpt><trkpt lat="42.44655139405774" lon="11.465251891638065"><ele>93.5</ele><time>2026-04-18T08:44:31.001Z</time></trkpt><trkpt lat="42.44663524234696" lon="11.465390634028557"><ele>93.0</ele><time>2026-04-18T08:44:32.001Z</time></trkpt><trkpt lat="42.446723494451774" lon="11.465525591310124"><ele>92.5</ele><time>2026-04-18T08:44:33.001Z</time></trkpt><trkpt lat="42.446816845771025" lon="11.465663833549435"><ele>92.0</ele><time>2026-04-18T08:44:34.001Z</time></trkpt><trkpt lat="42.446910232280615" lon="11.465804177808598"><ele>91.5</ele><time>2026-04-18T08:44:35.001Z</time></trkpt><trkpt lat="42.446987730855" lon="11.465956519806584"><ele>91.0</ele><time>2026-04-18T08:44:36.001Z</time></trkpt><trkpt lat="42.4470740334491" lon="11.466089945447443"><ele>88.75</ele><time>2026-04-18T08:44:37.001Z</time></trkpt><trkpt lat="42.44716679989678" lon="11.466217862348108"><ele>86.5</ele><time>2026-04-18T08:44:38.001Z</time></trkpt><trkpt lat="42.44727306126122" lon="11.466322312684895"><ele>84.25</ele><time>2026-04-18T08:44:39.001Z</time></trkpt><trkpt lat="42.44739987877017" lon="11.466372882492276"><ele>82.0</ele><time>2026-04-18T08:44:40.001Z</time></trkpt><trkpt lat="42.44753366903902" lon="11.466455265721974"><ele>81.75</ele><time>2026-04-18T08:44:41.001Z</time></trkpt><trkpt lat="42.44767409288647" lon="11.466513614389337"><ele>81.5</ele><time>2026-04-18T08:44:42.001Z</time></trkpt><trkpt lat="42.44781327619306" lon="11.466574356274075"><ele>81.25</ele><time>2026-04-18T08:44:43.001Z</time></trkpt><trkpt lat="42.44794593479476" lon="11.466631309655318"><ele>81.0</ele><time>2026-04-18T08:44:44.001Z</time></trkpt><trkpt lat="42.44807229797391" lon="11.466685540385914"><ele>80.25</ele><time>2026-04-18T08:44:45.001Z</time></trkpt><trkpt lat="42.44819471518554" lon="11.466739105000636"><ele>79.5</ele><time>2026-04-18T08:44:46.001Z</time></trkpt><trkpt lat="42.44831492723677" lon="11.466792783754322"><ele>78.75</ele><time>2026-04-18T08:44:47.001Z</time></trkpt><trkpt lat="42.448422964194634" lon="11.466842251584652"><ele>78.0</ele><time>2026-04-18T08:44:48Z</time></trkpt><trkpt lat="42.448509050980334" lon="11.466881732193592"><ele>78.0</ele><time>2026-04-18T08:44:49Z</time></trkpt><trkpt lat="42.448614751775025" lon="11.466943391440006"><ele>78.0</ele><time>2026-04-18T08:44:51Z</time></trkpt><trkpt lat="42.44869920182039" lon="11.46692221419057"><ele>78.0</ele><time>2026-04-18T08:44:52Z</time></trkpt><trkpt lat="42.44878479684186" lon="11.46687511166763"><ele>78.0</ele><time>2026-04-18T08:44:53Z</time></trkpt><trkpt lat="42.44888596614676" lon="11.466868330214497"><ele>78.0</ele><time>2026-04-18T08:44:54Z</time></trkpt><trkpt lat="42.449003085762136" lon="11.466843946872629"><ele>77.75</ele><time>2026-04-18T08:44:55Z</time></trkpt><trkpt lat="42.449126233100145" lon="11.466818701273327"><ele>77.5</ele><time>2026-04-18T08:44:56Z</time></trkpt><trkpt lat="42.44926141105766" lon="11.466789993220436"><ele>77.25</ele><time>2026-04-18T08:44:57Z</time></trkpt><trkpt lat="42.449397291193776" lon="11.466759885666674"><ele>77.0</ele><time>2026-04-18T08:44:58Z</time></trkpt><trkpt lat="42.4495364750258" lon="11.466729538001259"><ele>78.0</ele><time>2026-04-18T08:44:59Z</time></trkpt><trkpt lat="42.449691150043805" lon="11.466696832291756"><ele>79.0</ele><time>2026-04-18T08:45:00Z</time></trkpt><trkpt lat="42.44984273075792" lon="11.466645824830058"><ele>80.0</ele><time>2026-04-18T08:45:01Z</time></trkpt><trkpt lat="42.449991049321774" lon="11.46663380717782"><ele>80.0</ele><time>2026-04-18T08:45:02Z</time></trkpt><trkpt lat="42.45014444393465" lon="11.466600432860627"><ele>80.0</ele><time>2026-04-18T08:45:03Z</time></trkpt><trkpt lat="42.45029696046715" lon="11.466567249172664"><ele>80.0</ele><time>2026-04-18T08:45:04Z</time></trkpt><trkpt lat="42.45044926650571" lon="11.466513900554439"><ele>83.0</ele><time>2026-04-18T08:45:05Z</time></trkpt><trkpt lat="42.45060302219156" lon="11.466479522712833"><ele>86.0</ele><time>2026-04-18T08:45:06Z</time></trkpt><trkpt lat="42.45075757642606" lon="11.46646276476682"><ele>89.0</ele><time>2026-04-18T08:45:07Z</time></trkpt><trkpt lat="42.4509084127854" lon="11.466430146439457"><ele>89.0</ele><time>2026-04-18T08:45:08Z</time></trkpt><trkpt lat="42.45105968311612" lon="11.466400485582314"><ele>89.0</ele><time>2026-04-18T08:45:09Z</time></trkpt><trkpt lat="42.45120733135367" lon="11.46636967984049"><ele>89.0</ele><time>2026-04-18T08:45:10Z</time></trkpt><trkpt lat="42.45134314591073" lon="11.466339359336917"><ele>89.0</ele><time>2026-04-18T08:45:11Z</time></trkpt><trkpt lat="42.451483251976924" lon="11.466308080791567"><ele>90.5</ele><time>2026-04-18T08:45:12Z</time></trkpt><trkpt lat="42.45162322086298" lon="11.466276832856202"><ele>92.0</ele><time>2026-04-18T08:45:13Z</time></trkpt><trkpt lat="42.45176603074125" lon="11.466247358818517"><ele>93.5</ele><time>2026-04-18T08:45:14Z</time></trkpt><trkpt lat="42.45190862371399" lon="11.466217977525881"><ele>95.0</ele><time>2026-04-18T08:45:15Z</time></trkpt><trkpt lat="42.45204579907266" lon="11.466189712543303"><ele>96.5</ele><time>2026-04-18T08:45:16Z</time></trkpt><trkpt lat="42.45217263549992" lon="11.46616357782531"><ele>98.0</ele><time>2026-04-18T08:45:17Z</time></trkpt><trkpt lat="42.452282804101046" lon="11.466120336191755"><ele>99.5</ele><time>2026-04-18T08:45:18Z</time></trkpt><trkpt lat="42.45239616286864" lon="11.46609367569483"><ele>101.0</ele><time>2026-04-18T08:45:19Z</time></trkpt><trkpt lat="42.452487042765966" lon="11.46607344111487"><ele>100.99999999999999</ele><time>2026-04-18T08:45:20Z</time></trkpt><trkpt lat="42.4525740200966" lon="11.46606002991327"><ele>101.0</ele><time>2026-04-18T08:45:21Z</time></trkpt><trkpt lat="42.452668380921395" lon="11.466040576410226"><ele>101.0</ele><time>2026-04-18T08:45:22Z</time></trkpt><trkpt lat="42.45276522430592" lon="11.466030194860531"><ele>101.0</ele><time>2026-04-18T08:45:23Z</time></trkpt><trkpt lat="42.45285150549073" lon="11.466012722324804"><ele>100.99999999999999</ele><time>2026-04-18T08:45:24Z</time></trkpt><trkpt lat="42.45292476044477" lon="11.466003338808873"><ele>101.0</ele><time>2026-04-18T08:45:25Z</time></trkpt><trkpt lat="42.4529891493209" lon="11.466009566396927"><ele>101.19999999999999</ele><time>2026-04-18T08:45:26Z</time></trkpt><trkpt lat="42.45302904702451" lon="11.466160516893789"><ele>101.39999999999999</ele><time>2026-04-18T08:45:28Z</time></trkpt><trkpt lat="42.453040501701956" lon="11.46628138753751"><ele>101.6</ele><time>2026-04-18T08:45:29Z</time></trkpt><trkpt lat="42.453044762911794" lon="11.466411504506121"><ele>101.8</ele><time>2026-04-18T08:45:30Z</time></trkpt><trkpt lat="42.45305424138876" lon="11.46656596784446"><ele>102.0</ele><time>2026-04-18T08:45:31Z</time></trkpt><trkpt lat="42.45306525011917" lon="11.466721633395625"><ele>100.75</ele><time>2026-04-18T08:45:32Z</time></trkpt><trkpt lat="42.453076437937675" lon="11.466880661514855"><ele>99.5</ele><time>2026-04-18T08:45:33Z</time></trkpt><trkpt lat="42.45308836835495" lon="11.46705024523843"><ele>98.25</ele><time>2026-04-18T08:45:34Z</time></trkpt><trkpt lat="42.453100869181" lon="11.467227936959961"><ele>97.0</ele><time>2026-04-18T08:45:35Z</time></trkpt><trkpt lat="42.453113268210714" lon="11.467404181639353"><ele>95.75</ele><time>2026-04-18T08:45:36Z</time></trkpt><trkpt lat="42.45312609596411" lon="11.46758634438596"><ele>94.5</ele><time>2026-04-18T08:45:37Z</time></trkpt><trkpt lat="42.453139531615584" lon="11.467763370200073"><ele>93.25</ele><time>2026-04-18T08:45:38Z</time></trkpt><trkpt lat="42.453153575329964" lon="11.46794840769274"><ele>92.0</ele><time>2026-04-18T08:45:39Z</time></trkpt><trkpt lat="42.45316757174788" lon="11.468132822140742"><ele>90.75</ele><time>2026-04-18T08:45:40Z</time></trkpt><trkpt lat="42.45317945543518" lon="11.46830063841085"><ele>89.5</ele><time>2026-04-18T08:45:41Z</time></trkpt><trkpt lat="42.453191735183864" lon="11.468479618974262"><ele>88.25</ele><time>2026-04-18T08:45:42Z</time></trkpt><trkpt lat="42.45320514147172" lon="11.468675019093657"><ele>87.0</ele><time>2026-04-18T08:45:43Z</time></trkpt><trkpt lat="42.45321936546624" lon="11.468882337560487"><ele>86.33333333333333</ele><time>2026-04-18T08:45:44Z</time></trkpt><trkpt lat="42.45325384272442" lon="11.469089204549695"><ele>85.66666666666666</ele><time>2026-04-18T08:45:45Z</time></trkpt><trkpt lat="42.453277968075184" lon="11.469302994307007"><ele>85.0</ele><time>2026-04-18T08:45:46Z</time></trkpt><trkpt lat="42.45330539496798" lon="11.469512568198814"><ele>86.66666666666666</ele><time>2026-04-18T08:45:47Z</time></trkpt><trkpt lat="42.45333678714297" lon="11.469721263027353"><ele>88.33333333333333</ele><time>2026-04-18T08:45:48Z</time></trkpt><trkpt lat="42.45336991929543" lon="11.469925754744171"><ele>90.0</ele><time>2026-04-18T08:45:49Z</time></trkpt><trkpt lat="42.453402381293174" lon="11.470123894529703"><ele>90.0</ele><time>2026-04-18T08:45:50Z</time></trkpt><trkpt lat="42.453438044341006" lon="11.470321244068042"><ele>90.0</ele><time>2026-04-18T08:45:51Z</time></trkpt><trkpt lat="42.4534517103345" lon="11.47052745517466"><ele>90.0</ele><time>2026-04-18T08:45:52Z</time></trkpt><trkpt lat="42.45347838558656" lon="11.47072254661009"><ele>90.0</ele><time>2026-04-18T08:45:53Z</time></trkpt><trkpt lat="42.45350670891208" lon="11.470909389847828"><ele>90.25</ele><time>2026-04-18T08:45:54Z</time></trkpt><trkpt lat="42.45354439676574" lon="11.471101373186698"><ele>90.5</ele><time>2026-04-18T08:45:55Z</time></trkpt><trkpt lat="42.45358269282806" lon="11.471289349649984"><ele>90.75</ele><time>2026-04-18T08:45:56Z</time></trkpt><trkpt lat="42.4536215961245" lon="11.47148060855538"><ele>91.0</ele><time>2026-04-18T08:45:57Z</time></trkpt><trkpt lat="42.4536605774525" lon="11.47167247961182"><ele>91.0</ele><time>2026-04-18T08:45:58Z</time></trkpt><trkpt lat="42.45369956145383" lon="11.471864363842956"><ele>91.0</ele><time>2026-04-18T08:45:59Z</time></trkpt><trkpt lat="42.4537377787065" lon="11.472048824595209"><ele>91.0</ele><time>2026-04-18T08:46:00Z</time></trkpt><trkpt lat="42.45378096178147" lon="11.47224031795429"><ele>91.0</ele><time>2026-04-18T08:46:01Z</time></trkpt><trkpt lat="42.45382368532721" lon="11.47242568581275"><ele>94.5</ele><time>2026-04-18T08:46:02Z</time></trkpt><trkpt lat="42.4538662462895" lon="11.472611457309624"><ele>98.0</ele><time>2026-04-18T08:46:03Z</time></trkpt><trkpt lat="42.453902136098215" lon="11.472776248708936"><ele>101.5</ele><time>2026-04-18T08:46:04Z</time></trkpt><trkpt lat="42.45394440352791" lon="11.472970323389873"><ele>105.0</ele><time>2026-04-18T08:46:05Z</time></trkpt><trkpt lat="42.453983588514696" lon="11.473151512070306"><ele>105.0</ele><time>2026-04-18T08:46:06Z</time></trkpt><trkpt lat="42.45402245066908" lon="11.473334532867721"><ele>105.0</ele><time>2026-04-18T08:46:07Z</time></trkpt><trkpt lat="42.45405949129959" lon="11.473517179425537"><ele>105.0</ele><time>2026-04-18T08:46:08Z</time></trkpt><trkpt lat="42.454098134380985" lon="11.473699114325205"><ele>105.0</ele><time>2026-04-18T08:46:09Z</time></trkpt><trkpt lat="42.45413947031775" lon="11.473873039645532"><ele>105.5</ele><time>2026-04-18T08:46:10Z</time></trkpt><trkpt lat="42.45419343420625" lon="11.474043577834918"><ele>106.0</ele><time>2026-04-18T08:46:11Z</time></trkpt><trkpt lat="42.45428911202049" lon="11.474181870137148"><ele>106.5</ele><time>2026-04-18T08:46:12Z</time></trkpt><trkpt lat="42.4543683729741" lon="11.474337436086824"><ele>107.0</ele><time>2026-04-18T08:46:13Z</time></trkpt><trkpt lat="42.454464968634255" lon="11.474486004125591"><ele>106.75</ele><time>2026-04-18T08:46:14Z</time></trkpt><trkpt lat="42.454561817602226" lon="11.474627657195866"><ele>106.5</ele><time>2026-04-18T08:46:15Z</time></trkpt><trkpt lat="42.45465664220934" lon="11.474758783267923"><ele>106.25</ele><time>2026-04-18T08:46:16Z</time></trkpt><trkpt lat="42.45474694065252" lon="11.474879902318152"><ele>106.0</ele><time>2026-04-18T08:46:17Z</time></trkpt><trkpt lat="42.45483317981591" lon="11.47500023907951"><ele>106.0</ele><time>2026-04-18T08:46:17.999Z</time></trkpt><trkpt lat="42.45492538742312" lon="11.475102249004333"><ele>106.0</ele><time>2026-04-18T08:46:18.999Z</time></trkpt><trkpt lat="42.455026031536946" lon="11.475155069436596"><ele>106.0</ele><time>2026-04-18T08:46:19.999Z</time></trkpt><trkpt lat="42.45512635977024" lon="11.475201983431859"><ele>106.0</ele><time>2026-04-18T08:46:20.999Z</time></trkpt><trkpt lat="42.45523254768071" lon="11.475266400886916"><ele>106.0</ele><time>2026-04-18T08:46:21.999Z</time></trkpt><trkpt lat="42.45535296482707" lon="11.475318008218837"><ele>106.0</ele><time>2026-04-18T08:46:22.999Z</time></trkpt><trkpt lat="42.45547239869019" lon="11.47536631651877"><ele>106.0</ele><time>2026-04-18T08:46:23.999Z</time></trkpt><trkpt lat="42.45559155409349" lon="11.475414243069748"><ele>106.0</ele><time>2026-04-18T08:46:24.999Z</time></trkpt><trkpt lat="42.45571123847487" lon="11.475465740621043"><ele>106.0</ele><time>2026-04-18T08:46:25.999Z</time></trkpt><trkpt lat="42.455822504165546" lon="11.475531203777974"><ele>106.0</ele><time>2026-04-18T08:46:26.999Z</time></trkpt><trkpt lat="42.45592835080912" lon="11.475604979951372"><ele>106.0</ele><time>2026-04-18T08:46:27.999Z</time></trkpt><trkpt lat="42.45602292064021" lon="11.475675310056149"><ele>106.0</ele><time>2026-04-18T08:46:29.001Z</time></trkpt><trkpt lat="42.45611131136256" lon="11.475745887164887"><ele>106.0</ele><time>2026-04-18T08:46:30.001Z</time></trkpt><trkpt lat="42.45618925006958" lon="11.475797225761394"><ele>106.0</ele><time>2026-04-18T08:46:31.001Z</time></trkpt><trkpt lat="42.45627413587588" lon="11.475835055319786"><ele>105.66666666666667</ele><time>2026-04-18T08:46:32.001Z</time></trkpt><trkpt lat="42.45635945769732" lon="11.475829962683912"><ele>105.33333333333334</ele><time>2026-04-18T08:46:33.001Z</time></trkpt><trkpt lat="42.45643690983496" lon="11.47587174667364"><ele>105.0</ele><time>2026-04-18T08:46:34Z</time></trkpt><trkpt lat="42.45651140695234" lon="11.475894980824824"><ele>104.66666666666666</ele><time>2026-04-18T08:46:35Z</time></trkpt><trkpt lat="42.45657866359063" lon="11.475915956821794"><ele>104.33333333333333</ele><time>2026-04-18T08:46:36.001Z</time></trkpt><trkpt lat="42.45664233575332" lon="11.475917038310484"><ele>104.0</ele><time>2026-04-18T08:46:37Z</time></trkpt><trkpt lat="42.45673212856641" lon="11.475940421462354"><ele>104.0</ele><time>2026-04-18T08:46:38Z</time></trkpt><trkpt lat="42.45686833379407" lon="11.475968006006566"><ele>104.0</ele><time>2026-04-18T08:46:40Z</time></trkpt><trkpt lat="42.45697486445333" lon="11.475990562288173"><ele>104.0</ele><time>2026-04-18T08:46:41Z</time></trkpt><trkpt lat="42.45706968121408" lon="11.475976197585595"><ele>104.0</ele><time>2026-04-18T08:46:43Z</time></trkpt><trkpt lat="42.45728742860285" lon="11.476031248623482"><ele>102.83333333333333</ele><time>2026-04-18T08:46:45Z</time></trkpt><trkpt lat="42.457363337122715" lon="11.476043721587855"><ele>101.66666666666666</ele><time>2026-04-18T08:46:46Z</time></trkpt><trkpt lat="42.45744164732" lon="11.476058912935962"><ele>100.5</ele><time>2026-04-18T08:46:47Z</time></trkpt><trkpt lat="42.45752506030992" lon="11.476069542420433"><ele>99.33333333333334</ele><time>2026-04-18T08:46:48Z</time></trkpt><trkpt lat="42.457614648614374" lon="11.476080235074749"><ele>98.16666666666667</ele><time>2026-04-18T08:46:49Z</time></trkpt><trkpt lat="42.45769145748961" lon="11.476086514826454"><ele>97.0</ele><time>2026-04-18T08:46:50Z</time></trkpt><trkpt lat="42.45777599638088" lon="11.476100001624122"><ele>97.00000000000001</ele><time>2026-04-18T08:46:51Z</time></trkpt><trkpt lat="42.45784114060589" lon="11.476118289774984"><ele>97.0</ele><time>2026-04-18T08:46:52Z</time></trkpt><trkpt lat="42.45790471960906" lon="11.476126916069846"><ele>97.0</ele><time>2026-04-18T08:46:53Z</time></trkpt><trkpt lat="42.45796886889223" lon="11.476139851335521"><ele>97.0</ele><time>2026-04-18T08:46:54Z</time></trkpt><trkpt lat="42.45811033208324" lon="11.476170683975008"><ele>97.00000000000001</ele><time>2026-04-18T08:46:56Z</time></trkpt><trkpt lat="42.458198186126445" lon="11.476201385987046"><ele>97.0</ele><time>2026-04-18T08:46:57Z</time></trkpt><trkpt lat="42.4582896725567" lon="11.476221759002296"><ele>96.6</ele><time>2026-04-18T08:46:58Z</time></trkpt><trkpt lat="42.45838571658668" lon="11.476245345506657"><ele>96.19999999999999</ele><time>2026-04-18T08:46:59Z</time></trkpt><trkpt lat="42.45848953950161" lon="11.476268731997282"><ele>95.8</ele><time>2026-04-18T08:47:00Z</time></trkpt><trkpt lat="42.45859851697538" lon="11.476290719341463"><ele>95.4</ele><time>2026-04-18T08:47:01Z</time></trkpt><trkpt lat="42.45871068389112" lon="11.476306009490802"><ele>95.0</ele><time>2026-04-18T08:47:02Z</time></trkpt><trkpt lat="42.45880993170565" lon="11.476330411279228"><ele>94.66666666666667</ele><time>2026-04-18T08:47:03Z</time></trkpt><trkpt lat="42.45889508617411" lon="11.476349310434331"><ele>94.33333333333334</ele><time>2026-04-18T08:47:04Z</time></trkpt><trkpt lat="42.45896910664821" lon="11.476376611649401"><ele>94.0</ele><time>2026-04-18T08:47:05Z</time></trkpt><trkpt lat="42.459040744456125" lon="11.476390374479687"><ele>93.66666666666667</ele><time>2026-04-18T08:47:06Z</time></trkpt><trkpt lat="42.4591319804484" lon="11.476465971647553"><ele>93.33333333333333</ele><time>2026-04-18T08:47:08Z</time></trkpt><trkpt lat="42.459171525206216" lon="11.476537262232856"><ele>93.0</ele><time>2026-04-18T08:47:09Z</time></trkpt><trkpt lat="42.45921397112627" lon="11.47663173421766"><ele>93.0</ele><time>2026-04-18T08:47:10Z</time></trkpt><trkpt lat="42.45925337246221" lon="11.476737054192268"><ele>93.0</ele><time>2026-04-18T08:47:11Z</time></trkpt><trkpt lat="42.45929316129161" lon="11.476835188249158"><ele>93.0</ele><time>2026-04-18T08:47:12Z</time></trkpt><trkpt lat="42.45933602218713" lon="11.476930422568817"><ele>93.0</ele><time>2026-04-18T08:47:13Z</time></trkpt><trkpt lat="42.45937313564942" lon="11.477009640852302"><ele>93.0</ele><time>2026-04-18T08:47:14Z</time></trkpt><trkpt lat="42.459404900136214" lon="11.47709019116152"><ele>93.0</ele><time>2026-04-18T08:47:15Z</time></trkpt><trkpt lat="42.459482193980726" lon="11.477250823527015"><ele>92.83333333333333</ele><time>2026-04-18T08:47:17Z</time></trkpt><trkpt lat="42.459532754787055" lon="11.47736253206812"><ele>92.66666666666667</ele><time>2026-04-18T08:47:18Z</time></trkpt><trkpt lat="42.459570931955376" lon="11.47746285182254"><ele>92.5</ele><time>2026-04-18T08:47:19Z</time></trkpt><trkpt lat="42.45961048020365" lon="11.477561534745838"><ele>92.33333333333334</ele><time>2026-04-18T08:47:20Z</time></trkpt><trkpt lat="42.459652613359246" lon="11.477676132192759"><ele>92.16666666666667</ele><time>2026-04-18T08:47:21Z</time></trkpt><trkpt lat="42.45969609451753" lon="11.47776658092661"><ele>92.0</ele><time>2026-04-18T08:47:22Z</time></trkpt><trkpt lat="42.45973725604419" lon="11.477850273699557"><ele>92.0</ele><time>2026-04-18T08:47:23Z</time></trkpt><trkpt lat="42.45976454805906" lon="11.4779314043185"><ele>92.0</ele><time>2026-04-18T08:47:24Z</time></trkpt><trkpt lat="42.45980254834651" lon="11.47801455177541"><ele>92.0</ele><time>2026-04-18T08:47:25Z</time></trkpt><trkpt lat="42.4598425158518" lon="11.478111195716556"><ele>92.0</ele><time>2026-04-18T08:47:26Z</time></trkpt><trkpt lat="42.45987814574221" lon="11.47819555887321"><ele>92.0</ele><time>2026-04-18T08:47:27Z</time></trkpt><trkpt lat="42.45995218594203" lon="11.478348181931334"><ele>92.0</ele><time>2026-04-18T08:47:29Z</time></trkpt><trkpt lat="42.45998932893846" lon="11.47843331849187"><ele>92.0</ele><time>2026-04-18T08:47:30Z</time></trkpt><trkpt lat="42.46002575589004" lon="11.478517501131483"><ele>92.0</ele><time>2026-04-18T08:47:31Z</time></trkpt><trkpt lat="42.46007741000787" lon="11.478605229948393"><ele>92.0</ele><time>2026-04-18T08:47:32Z</time></trkpt><trkpt lat="42.46010316604249" lon="11.478690478948266"><ele>92.0</ele><time>2026-04-18T08:47:33Z</time></trkpt><trkpt lat="42.460132238891056" lon="11.478785915901955"><ele>92.0</ele><time>2026-04-18T08:47:34Z</time></trkpt><trkpt lat="42.460182691297" lon="11.478898530827394"><ele>92.0</ele><time>2026-04-18T08:47:35Z</time></trkpt><trkpt lat="42.46024022739169" lon="11.4790064805947"><ele>92.16666666666667</ele><time>2026-04-18T08:47:36Z</time></trkpt><trkpt lat="42.46029246282279" lon="11.479099384334859"><ele>92.33333333333334</ele><time>2026-04-18T08:47:37Z</time></trkpt><trkpt lat="42.46032633408968" lon="11.479186515018998"><ele>92.5</ele><time>2026-04-18T08:47:38Z</time></trkpt><trkpt lat="42.460365291418235" lon="11.479282957150682"><ele>92.66666666666667</ele><time>2026-04-18T08:47:39Z</time></trkpt><trkpt lat="42.460410379989504" lon="11.479388028163015"><ele>92.83333333333333</ele><time>2026-04-18T08:47:40Z</time></trkpt><trkpt lat="42.460456220455356" lon="11.479490406053435"><ele>93.0</ele><time>2026-04-18T08:47:41Z</time></trkpt><trkpt lat="42.46050136524297" lon="11.47957386613008"><ele>93.00000000000001</ele><time>2026-04-18T08:47:42Z</time></trkpt><trkpt lat="42.46053690109724" lon="11.479655984549009"><ele>93.0</ele><time>2026-04-18T08:47:43Z</time></trkpt><trkpt lat="42.46057313147692" lon="11.479738338878201"><ele>93.0</ele><time>2026-04-18T08:47:44Z</time></trkpt><trkpt lat="42.46060456876062" lon="11.479813841365905"><ele>93.0</ele><time>2026-04-18T08:47:45Z</time></trkpt><trkpt lat="42.46064197131508" lon="11.479909987333786"><ele>93.0</ele><time>2026-04-18T08:47:46Z</time></trkpt><trkpt lat="42.46067680180595" lon="11.479994733133303"><ele>93.00000000000001</ele><time>2026-04-18T08:47:47Z</time></trkpt><trkpt lat="42.460723803217604" lon="11.480089376127703"><ele>93.0</ele><time>2026-04-18T08:47:49Z</time></trkpt><trkpt lat="42.460778575717285" lon="11.480225668335287"><ele>93.0</ele><time>2026-04-18T08:47:51Z</time></trkpt><trkpt lat="42.46083922964044" lon="11.480382365676405"><ele>93.0</ele><time>2026-04-18T08:47:53Z</time></trkpt><trkpt lat="42.460894725333894" lon="11.480507769815688"><ele>93.0</ele><time>2026-04-18T08:47:55Z</time></trkpt><trkpt lat="42.460955360250445" lon="11.480665495566013"><ele>93.0</ele><time>2026-04-18T08:47:57Z</time></trkpt><trkpt lat="42.46101021448872" lon="11.480811694302824"><ele>92.60000000000001</ele><time>2026-04-18T08:47:59Z</time></trkpt><trkpt lat="42.46105503287672" lon="11.480933197333538"><ele>92.2</ele><time>2026-04-18T08:48:01Z</time></trkpt><trkpt lat="42.461111183684146" lon="11.481048067917534"><ele>91.8</ele><time>2026-04-18T08:48:03Z</time></trkpt><trkpt lat="42.46120527063334" lon="11.481148268495629"><ele>91.4</ele><time>2026-04-18T08:48:05Z</time></trkpt><trkpt lat="42.46129937738085" lon="11.481215438071734"><ele>91.0</ele><time>2026-04-18T08:48:07Z</time></trkpt><trkpt lat="42.461379459894395" lon="11.481263079116292"><ele>91.4</ele><time>2026-04-18T08:48:09Z</time></trkpt><trkpt lat="42.46149889094056" lon="11.481340111821071"><ele>91.8</ele><time>2026-04-18T08:48:11Z</time></trkpt><trkpt lat="42.46158130117995" lon="11.481396251162531"><ele>92.2</ele><time>2026-04-18T08:48:12Z</time></trkpt><trkpt lat="42.461669798334974" lon="11.481449926962268"><ele>92.60000000000001</ele><time>2026-04-18T08:48:13Z</time></trkpt><trkpt lat="42.46177842276943" lon="11.481518197327347"><ele>93.0</ele><time>2026-04-18T08:48:15Z</time></trkpt><trkpt lat="42.46185109567556" lon="11.481568372950292"><ele>93.0</ele><time>2026-04-18T08:48:16Z</time></trkpt><trkpt lat="42.46192365299473" lon="11.481624341183704"><ele>93.0</ele><time>2026-04-18T08:48:16.999Z</time></trkpt><trkpt lat="42.46200033842652" lon="11.481675707830814"><ele>93.0</ele><time>2026-04-18T08:48:17.999Z</time></trkpt><trkpt lat="42.462076269643795" lon="11.481718943208666"><ele>93.0</ele><time>2026-04-18T08:48:18.999Z</time></trkpt><trkpt lat="42.4621365217642" lon="11.481748402996864"><ele>93.0</ele><time>2026-04-18T08:48:19.999Z</time></trkpt><trkpt lat="42.462237148734765" lon="11.481751155464748"><ele>93.0</ele><time>2026-04-18T08:48:21.999Z</time></trkpt><trkpt lat="42.462300431427344" lon="11.48177483001448"><ele>94.0</ele><time>2026-04-18T08:48:23.999Z</time></trkpt><trkpt lat="42.46237323979828" lon="11.481801001559123"><ele>95.0</ele><time>2026-04-18T08:48:26.999Z</time></trkpt><trkpt lat="42.46246980469312" lon="11.481811845945773"><ele>96.0</ele><time>2026-04-18T08:48:29.999Z</time></trkpt><trkpt lat="42.462538292944195" lon="11.481809909777322"><ele>97.0</ele><time>2026-04-18T08:48:30.999Z</time></trkpt><trkpt lat="42.46261730063335" lon="11.481800586850783"><ele>98.0</ele><time>2026-04-18T08:48:31.999Z</time></trkpt><trkpt lat="42.46269972908586" lon="11.48176775930473"><ele>99.0</ele><time>2026-04-18T08:48:32.999Z</time></trkpt><trkpt lat="42.4627747281124" lon="11.481740721678703"><ele>99.0</ele><time>2026-04-18T08:48:34Z</time></trkpt><trkpt lat="42.462840256969145" lon="11.481725303386213"><ele>99.0</ele><time>2026-04-18T08:48:35Z</time></trkpt><trkpt lat="42.462904739728074" lon="11.481750369657687"><ele>99.0</ele><time>2026-04-18T08:48:37Z</time></trkpt><trkpt lat="42.46300530430016" lon="11.481814386986615"><ele>99.0</ele><time>2026-04-18T08:48:39Z</time></trkpt><trkpt lat="42.463065228354" lon="11.481943325845224"><ele>99.0</ele><time>2026-04-18T08:48:41Z</time></trkpt><trkpt lat="42.46308425482798" lon="11.482050468467195"><ele>99.0</ele><time>2026-04-18T08:48:43Z</time></trkpt><trkpt lat="42.463105417008734" lon="11.482180151670809"><ele>99.83333333333333</ele><time>2026-04-18T08:48:45Z</time></trkpt><trkpt lat="42.463125479269344" lon="11.482293780729496"><ele>100.66666666666666</ele><time>2026-04-18T08:48:48Z</time></trkpt><trkpt lat="42.46314400180025" lon="11.48239586054464"><ele>101.5</ele><time>2026-04-18T08:48:51Z</time></trkpt><trkpt lat="42.463165274341556" lon="11.48252287593449"><ele>102.33333333333333</ele><time>2026-04-18T08:48:53Z</time></trkpt><trkpt lat="42.46318553008197" lon="11.482647072785051"><ele>103.16666666666666</ele><time>2026-04-18T08:48:55Z</time></trkpt><trkpt lat="42.46318893559924" lon="11.482766800982054"><ele>104.0</ele><time>2026-04-18T08:48:57Z</time></trkpt><trkpt lat="42.46321944771178" lon="11.482918483689401"><ele>103.49999999999999</ele><time>2026-04-18T08:48:59Z</time></trkpt><trkpt lat="42.46322549948017" lon="11.483024737175947"><ele>103.0</ele><time>2026-04-18T08:49:00Z</time></trkpt><trkpt lat="42.463234902281606" lon="11.483122601400536"><ele>102.5</ele><time>2026-04-18T08:49:01Z</time></trkpt><trkpt lat="42.46325850731959" lon="11.483272796970875"><ele>102.0</ele><time>2026-04-18T08:49:03Z</time></trkpt><trkpt lat="42.463264910440046" lon="11.48335997389256"><ele>101.49999999999999</ele><time>2026-04-18T08:49:04Z</time></trkpt><trkpt lat="42.46328640501145" lon="11.48344227051654"><ele>101.0</ele><time>2026-04-18T08:49:05Z</time></trkpt><trkpt lat="42.46333651679076" lon="11.483601727156081"><ele>100.99999999999999</ele><time>2026-04-18T08:49:07Z</time></trkpt><trkpt lat="42.46336562349083" lon="11.483690843864192"><ele>101.0</ele><time>2026-04-18T08:49:08Z</time></trkpt><trkpt lat="42.46342670323909" lon="11.483842078466699"><ele>101.0</ele><time>2026-04-18T08:49:10Z</time></trkpt><trkpt lat="42.46346785424204" lon="11.483938101827242"><ele>101.0</ele><time>2026-04-18T08:49:11Z</time></trkpt><trkpt lat="42.46350899340779" lon="11.484021496577382"><ele>100.99999999999999</ele><time>2026-04-18T08:49:12Z</time></trkpt><trkpt lat="42.46354382313564" lon="11.484107739792321"><ele>101.0</ele><time>2026-04-18T08:49:13Z</time></trkpt><trkpt lat="42.46359544389372" lon="11.484256632404517"><ele>100.99999999999999</ele><time>2026-04-18T08:49:15Z</time></trkpt><trkpt lat="42.463645910030074" lon="11.484366005130484"><ele>101.0</ele><time>2026-04-18T08:49:17Z</time></trkpt><trkpt lat="42.46371538160951" lon="11.484447755444936"><ele>101.0</ele><time>2026-04-18T08:49:21Z</time></trkpt><trkpt lat="42.46379653965719" lon="11.484492248302342"><ele>101.0</ele><time>2026-04-18T08:49:23Z</time></trkpt><trkpt lat="42.46386206426845" lon="11.484562774557547"><ele>100.99999999999999</ele><time>2026-04-18T08:49:25Z</time></trkpt><trkpt lat="42.46391065699585" lon="11.484658040753283"><ele>101.0</ele><time>2026-04-18T08:49:27Z</time></trkpt><trkpt lat="42.46395332077847" lon="11.484778718962804"><ele>100.6</ele><time>2026-04-18T08:49:29Z</time></trkpt><trkpt lat="42.463983030257026" lon="11.484854520495139"><ele>100.19999999999999</ele><time>2026-04-18T08:49:30Z</time></trkpt><trkpt lat="42.464043703361675" lon="11.484981933028907"><ele>99.80000000000001</ele><time>2026-04-18T08:49:32Z</time></trkpt><trkpt lat="42.46412521493084" lon="11.485098442861831"><ele>99.4</ele><time>2026-04-18T08:49:34Z</time></trkpt><trkpt lat="42.46420087798844" lon="11.485229399561321"><ele>99.0</ele><time>2026-04-18T08:49:36Z</time></trkpt><trkpt lat="42.46424258574203" lon="11.485297935515472"><ele>99.0</ele><time>2026-04-18T08:49:37Z</time></trkpt><trkpt lat="42.46428242842587" lon="11.485370235087105"><ele>99.0</ele><time>2026-04-18T08:49:38Z</time></trkpt><trkpt lat="42.464338734798496" lon="11.485511985667014"><ele>99.0</ele><time>2026-04-18T08:49:40Z</time></trkpt><trkpt lat="42.46436961038453" lon="11.485655724243712"><ele>99.0</ele><time>2026-04-18T08:49:42Z</time></trkpt><trkpt lat="42.464388863763155" lon="11.485738703712668"><ele>99.0</ele><time>2026-04-18T08:49:43Z</time></trkpt><trkpt lat="42.46440725000738" lon="11.485829762395456"><ele>99.0</ele><time>2026-04-18T08:49:44Z</time></trkpt><trkpt lat="42.46443302571903" lon="11.485924568310335"><ele>99.16666666666667</ele><time>2026-04-18T08:49:45Z</time></trkpt><trkpt lat="42.46446116078209" lon="11.486006422810062"><ele>99.33333333333334</ele><time>2026-04-18T08:49:46Z</time></trkpt><trkpt lat="42.46449596754334" lon="11.486108797730354"><ele>99.5</ele><time>2026-04-18T08:49:48Z</time></trkpt><trkpt lat="42.46451141324322" lon="11.486204862687432"><ele>99.66666666666667</ele><time>2026-04-18T08:49:51Z</time></trkpt><trkpt lat="42.46461255609307" lon="11.48625165538656"><ele>99.83333333333334</ele><time>2026-04-18T08:49:55Z</time></trkpt><trkpt lat="42.4646853788867" lon="11.48627291924467"><ele>100.0</ele><time>2026-04-18T08:49:56Z</time></trkpt><trkpt lat="42.4647536790757" lon="11.486279773531486"><ele>101.16666666666667</ele><time>2026-04-18T08:49:57Z</time></trkpt><trkpt lat="42.46483312685319" lon="11.486289185828097"><ele>102.33333333333334</ele><time>2026-04-18T08:49:58Z</time></trkpt><trkpt lat="42.464921292345366" lon="11.486300138483461"><ele>103.5</ele><time>2026-04-18T08:49:59Z</time></trkpt><trkpt lat="42.46500622611125" lon="11.486309614184318"><ele>104.66666666666666</ele><time>2026-04-18T08:50:00Z</time></trkpt><trkpt lat="42.465098609337076" lon="11.486303737937305"><ele>105.83333333333333</ele><time>2026-04-18T08:50:01Z</time></trkpt><trkpt lat="42.46519841772287" lon="11.48631732677542"><ele>107.0</ele><time>2026-04-18T08:50:02Z</time></trkpt><trkpt lat="42.46529620057937" lon="11.48633125319763"><ele>107.0</ele><time>2026-04-18T08:50:03Z</time></trkpt><trkpt lat="42.46539867082737" lon="11.486350675777448"><ele>106.99999999999999</ele><time>2026-04-18T08:50:04Z</time></trkpt><trkpt lat="42.46550461375203" lon="11.48637606997009"><ele>106.99999999999999</ele><time>2026-04-18T08:50:05Z</time></trkpt><trkpt lat="42.465614571651386" lon="11.486400977047873"><ele>107.0</ele><time>2026-04-18T08:50:06Z</time></trkpt><trkpt lat="42.46571290227516" lon="11.486428351490513"><ele>107.0</ele><time>2026-04-18T08:50:07Z</time></trkpt><trkpt lat="42.46579633081028" lon="11.486463295196218"><ele>107.8</ele><time>2026-04-18T08:50:08Z</time></trkpt><trkpt lat="42.4659095923142" lon="11.486474433548194"><ele>108.6</ele><time>2026-04-18T08:50:09Z</time></trkpt><trkpt lat="42.46601934687032" lon="11.486488372510085"><ele>109.39999999999999</ele><time>2026-04-18T08:50:10Z</time></trkpt><trkpt lat="42.46612575221869" lon="11.486499381426336"><ele>110.19999999999999</ele><time>2026-04-18T08:50:11Z</time></trkpt><trkpt lat="42.46624253767721" lon="11.486522132217434"><ele>111.0</ele><time>2026-04-18T08:50:12Z</time></trkpt><trkpt lat="42.4663572555435" lon="11.486536313969491"><ele>111.5</ele><time>2026-04-18T08:50:13Z</time></trkpt><trkpt lat="42.46648375777037" lon="11.486544213301517"><ele>112.0</ele><time>2026-04-18T08:50:14Z</time></trkpt><trkpt lat="42.466611278960364" lon="11.48657845394312"><ele>112.5</ele><time>2026-04-18T08:50:14.999Z</time></trkpt><trkpt lat="42.466742378665835" lon="11.486627027378859"><ele>113.0</ele><time>2026-04-18T08:50:15.999Z</time></trkpt><trkpt lat="42.46685524576997" lon="11.486676272909648"><ele>113.0</ele><time>2026-04-18T08:50:16.999Z</time></trkpt><trkpt lat="42.46697349276131" lon="11.486728740600014"><ele>113.0</ele><time>2026-04-18T08:50:17.999Z</time></trkpt><trkpt lat="42.467125606825306" lon="11.486730690415698"><ele>113.0</ele><time>2026-04-18T08:50:18.999Z</time></trkpt><trkpt lat="42.467260931390356" lon="11.486725435358242"><ele>113.0</ele><time>2026-04-18T08:50:19.999Z</time></trkpt><trkpt lat="42.46738978297758" lon="11.486713766241646"><ele>112.5</ele><time>2026-04-18T08:50:20.999Z</time></trkpt><trkpt lat="42.46752180105655" lon="11.486713649068253"><ele>112.0</ele><time>2026-04-18T08:50:21.999Z</time></trkpt><trkpt lat="42.46764710121027" lon="11.48672442666461"><ele>111.5</ele><time>2026-04-18T08:50:22.999Z</time></trkpt><trkpt lat="42.46777087201319" lon="11.486740870746772"><ele>111.0</ele><time>2026-04-18T08:50:23.999Z</time></trkpt><trkpt lat="42.46788505870011" lon="11.486792090388525"><ele>111.75</ele><time>2026-04-18T08:50:24.999Z</time></trkpt><trkpt lat="42.46802297075067" lon="11.486841426146572"><ele>112.5</ele><time>2026-04-18T08:50:25.999Z</time></trkpt><trkpt lat="42.46814929172472" lon="11.48688287427067"><ele>113.25</ele><time>2026-04-18T08:50:26.999Z</time></trkpt><trkpt lat="42.46828068668577" lon="11.486914483565016"><ele>114.0</ele><time>2026-04-18T08:50:27.999Z</time></trkpt><trkpt lat="42.46842221263333" lon="11.486930442754243"><ele>114.0</ele><time>2026-04-18T08:50:28.999Z</time></trkpt><trkpt lat="42.4685648731046" lon="11.486979225238441"><ele>114.0</ele><time>2026-04-18T08:50:29.999Z</time></trkpt><trkpt lat="42.46869725936853" lon="11.487031841504049"><ele>114.0</ele><time>2026-04-18T08:50:30.999Z</time></trkpt><trkpt lat="42.46881229640166" lon="11.487067537999941"><ele>114.0</ele><time>2026-04-18T08:50:31.999Z</time></trkpt><trkpt lat="42.468881783376716" lon="11.487101532774764"><ele>114.80000000000001</ele><time>2026-04-18T08:50:32.999Z</time></trkpt><trkpt lat="42.468989517151186" lon="11.487165366233114"><ele>115.60000000000001</ele><time>2026-04-18T08:50:34.999Z</time></trkpt><trkpt lat="42.46906235479686" lon="11.487206522334807"><ele>116.4</ele><time>2026-04-18T08:50:35.999Z</time></trkpt><trkpt lat="42.469141367888646" lon="11.487269365288347"><ele>117.2</ele><time>2026-04-18T08:50:36.999Z</time></trkpt><trkpt lat="42.46921953618604" lon="11.487352541063366"><ele>118.0</ele><time>2026-04-18T08:50:37.999Z</time></trkpt><trkpt lat="42.4692997582573" lon="11.487458379569755"><ele>118.0</ele><time>2026-04-18T08:50:38.999Z</time></trkpt><trkpt lat="42.46938554958921" lon="11.487569393419838"><ele>118.0</ele><time>2026-04-18T08:50:40Z</time></trkpt><trkpt lat="42.469473843736296" lon="11.487674431169559"><ele>118.0</ele><time>2026-04-18T08:50:41Z</time></trkpt><trkpt lat="42.46955492162073" lon="11.48777188372236"><ele>118.0</ele><time>2026-04-18T08:50:42Z</time></trkpt><trkpt lat="42.46964022318207" lon="11.487872669547787"><ele>119.2</ele><time>2026-04-18T08:50:43Z</time></trkpt><trkpt lat="42.46971329288435" lon="11.487984570950125"><ele>120.4</ele><time>2026-04-18T08:50:44Z</time></trkpt><trkpt lat="42.46979720512243" lon="11.48805412768504"><ele>121.60000000000001</ele><time>2026-04-18T08:50:45Z</time></trkpt><trkpt lat="42.46989303801216" lon="11.488078259927306"><ele>122.80000000000001</ele><time>2026-04-18T08:50:46Z</time></trkpt><trkpt lat="42.47000117708733" lon="11.488062290862098"><ele>124.0</ele><time>2026-04-18T08:50:47Z</time></trkpt><trkpt lat="42.470113673087404" lon="11.488059765461658"><ele>124.0</ele><time>2026-04-18T08:50:48Z</time></trkpt><trkpt lat="42.470231580489425" lon="11.488039429184955"><ele>124.0</ele><time>2026-04-18T08:50:49Z</time></trkpt><trkpt lat="42.47033773050761" lon="11.488002589351462"><ele>124.0</ele><time>2026-04-18T08:50:50Z</time></trkpt><trkpt lat="42.47045208574521" lon="11.488002640339007"><ele>124.0</ele><time>2026-04-18T08:50:51Z</time></trkpt><trkpt lat="42.470556286222894" lon="11.488047232652931"><ele>123.75</ele><time>2026-04-18T08:50:52Z</time></trkpt><trkpt lat="42.47066657792189" lon="11.488084591933122"><ele>123.5</ele><time>2026-04-18T08:50:53Z</time></trkpt><trkpt lat="42.47078208849668" lon="11.488105892194811"><ele>123.25</ele><time>2026-04-18T08:50:54Z</time></trkpt><trkpt lat="42.47091239813269" lon="11.488138526696432"><ele>123.0</ele><time>2026-04-18T08:50:55Z</time></trkpt><trkpt lat="42.47106557022228" lon="11.488148619802939"><ele>123.0</ele><time>2026-04-18T08:50:56Z</time></trkpt><trkpt lat="42.47122448998152" lon="11.488132969638938"><ele>123.0</ele><time>2026-04-18T08:50:57Z</time></trkpt><trkpt lat="42.471390646592475" lon="11.488130750604208"><ele>123.0</ele><time>2026-04-18T08:50:58Z</time></trkpt><trkpt lat="42.47155875821309" lon="11.488104444689155"><ele>122.5</ele><time>2026-04-18T08:50:59Z</time></trkpt><trkpt lat="42.47170154183188" lon="11.488081112722302"><ele>122.0</ele><time>2026-04-18T08:51:00Z</time></trkpt><trkpt lat="42.471843190447004" lon="11.48807113549032"><ele>121.5</ele><time>2026-04-18T08:51:01Z</time></trkpt><trkpt lat="42.47199655249411" lon="11.488077537947278"><ele>121.0</ele><time>2026-04-18T08:51:02Z</time></trkpt><trkpt lat="42.47215568664201" lon="11.488100098078007"><ele>120.66666666666667</ele><time>2026-04-18T08:51:03Z</time></trkpt><trkpt lat="42.4723198413859" lon="11.488152952576336"><ele>120.33333333333334</ele><time>2026-04-18T08:51:04Z</time></trkpt><trkpt lat="42.47247254006883" lon="11.488189285834425"><ele>120.0</ele><time>2026-04-18T08:51:05Z</time></trkpt><trkpt lat="42.47262414823697" lon="11.488218642196257"><ele>120.0</ele><time>2026-04-18T08:51:06Z</time></trkpt><trkpt lat="42.47275781586798" lon="11.488311350057248"><ele>120.0</ele><time>2026-04-18T08:51:07Z</time></trkpt><trkpt lat="42.472885663382755" lon="11.4883589872037"><ele>120.0</ele><time>2026-04-18T08:51:08Z</time></trkpt><trkpt lat="42.47298289747786" lon="11.488412649184507"><ele>120.0</ele><time>2026-04-18T08:51:09Z</time></trkpt><trkpt lat="42.47309828226628" lon="11.488495753020903"><ele>120.25</ele><time>2026-04-18T08:51:10Z</time></trkpt><trkpt lat="42.47320465259177" lon="11.488610034187793"><ele>120.5</ele><time>2026-04-18T08:51:11Z</time></trkpt><trkpt lat="42.47331302586705" lon="11.488741084398367"><ele>120.75</ele><time>2026-04-18T08:51:12Z</time></trkpt><trkpt lat="42.47342246733627" lon="11.48888626024615"><ele>121.0</ele><time>2026-04-18T08:51:13Z</time></trkpt><trkpt lat="42.47353635104402" lon="11.489032455391694"><ele>121.0</ele><time>2026-04-18T08:51:14Z</time></trkpt><trkpt lat="42.4736642720887" lon="11.489181729492572"><ele>121.0</ele><time>2026-04-18T08:51:15Z</time></trkpt><trkpt lat="42.473781579687476" lon="11.489316175364877"><ele>121.0</ele><time>2026-04-18T08:51:16Z</time></trkpt><trkpt lat="42.47388997481689" lon="11.489446091737998"><ele>120.0</ele><time>2026-04-18T08:51:17Z</time></trkpt><trkpt lat="42.47398289214055" lon="11.489549716366012"><ele>119.0</ele><time>2026-04-18T08:51:18Z</time></trkpt><trkpt lat="42.474083007708806" lon="11.489612587007182"><ele>118.0</ele><time>2026-04-18T08:51:19Z</time></trkpt><trkpt lat="42.47419691457064" lon="11.489657136303641"><ele>117.0</ele><time>2026-04-18T08:51:20Z</time></trkpt><trkpt lat="42.47434626940886" lon="11.489700367244994"><ele>117.0</ele><time>2026-04-18T08:51:21Z</time></trkpt><trkpt lat="42.474471339903566" lon="11.489725012147648"><ele>117.0</ele><time>2026-04-18T08:51:22Z</time></trkpt><trkpt lat="42.474597941716716" lon="11.489760928357292"><ele>117.0</ele><time>2026-04-18T08:51:23Z</time></trkpt><trkpt lat="42.474733085628415" lon="11.489819193793315"><ele>117.0</ele><time>2026-04-18T08:51:24Z</time></trkpt><trkpt lat="42.47486207577304" lon="11.489871926555814"><ele>116.25</ele><time>2026-04-18T08:51:25Z</time></trkpt><trkpt lat="42.47499508089678" lon="11.489919607932503"><ele>115.5</ele><time>2026-04-18T08:51:26Z</time></trkpt><trkpt lat="42.47512761599717" lon="11.489963094514307"><ele>114.75</ele><time>2026-04-18T08:51:27Z</time></trkpt><trkpt lat="42.47525998247981" lon="11.49000185741066"><ele>114.0</ele><time>2026-04-18T08:51:27.999Z</time></trkpt><trkpt lat="42.47538984460508" lon="11.490052061726844"><ele>114.75</ele><time>2026-04-18T08:51:28.999Z</time></trkpt><trkpt lat="42.475522153682206" lon="11.490105659734796"><ele>115.5</ele><time>2026-04-18T08:51:29.999Z</time></trkpt><trkpt lat="42.475657260579844" lon="11.490154126910987"><ele>116.25</ele><time>2026-04-18T08:51:30.999Z</time></trkpt><trkpt lat="42.47578438849903" lon="11.490201720291125"><ele>117.0</ele><time>2026-04-18T08:51:31.999Z</time></trkpt><trkpt lat="42.4759212996598" lon="11.49025319424584"><ele>117.0</ele><time>2026-04-18T08:51:32.999Z</time></trkpt><trkpt lat="42.47605226693152" lon="11.49029130670897"><ele>117.0</ele><time>2026-04-18T08:51:33.999Z</time></trkpt><trkpt lat="42.47619209403192" lon="11.490331694040796"><ele>117.0</ele><time>2026-04-18T08:51:34.999Z</time></trkpt><trkpt lat="42.47633643593259" lon="11.490376544868905"><ele>117.0</ele><time>2026-04-18T08:51:35.999Z</time></trkpt><trkpt lat="42.47647840441425" lon="11.490416506924173"><ele>118.0</ele><time>2026-04-18T08:51:36.999Z</time></trkpt><trkpt lat="42.47662009039252" lon="11.490465904017137"><ele>119.0</ele><time>2026-04-18T08:51:37.999Z</time></trkpt><trkpt lat="42.476760455261285" lon="11.490514039747282"><ele>120.0</ele><time>2026-04-18T08:51:38.999Z</time></trkpt><trkpt lat="42.47690081533392" lon="11.490563426137635"><ele>121.0</ele><time>2026-04-18T08:51:39.999Z</time></trkpt><trkpt lat="42.47704194215622" lon="11.490609247626892"><ele>120.0</ele><time>2026-04-18T08:51:40.999Z</time></trkpt><trkpt lat="42.47717981047564" lon="11.490653884131028"><ele>119.0</ele><time>2026-04-18T08:51:41.999Z</time></trkpt><trkpt lat="42.47730776864046" lon="11.490696204033846"><ele>118.0</ele><time>2026-04-18T08:51:42.999Z</time></trkpt><trkpt lat="42.477431359396995" lon="11.49074562734092"><ele>117.0</ele><time>2026-04-18T08:51:43.999Z</time></trkpt><trkpt lat="42.47753180436407" lon="11.490787362549376"><ele>117.0</ele><time>2026-04-18T08:51:44.999Z</time></trkpt><trkpt lat="42.47762967636034" lon="11.490841606201913"><ele>117.0</ele><time>2026-04-18T08:51:45.999Z</time></trkpt><trkpt lat="42.47771916760796" lon="11.490912655270662"><ele>117.0</ele><time>2026-04-18T08:51:46.999Z</time></trkpt><trkpt lat="42.477809958273355" lon="11.49101817719296"><ele>117.0</ele><time>2026-04-18T08:51:47.999Z</time></trkpt><trkpt lat="42.477896339995695" lon="11.491143724359498"><ele>118.5</ele><time>2026-04-18T08:51:48.999Z</time></trkpt><trkpt lat="42.47798497241211" lon="11.491289122690958"><ele>120.0</ele><time>2026-04-18T08:51:49.999Z</time></trkpt><trkpt lat="42.47806674365648" lon="11.491428802934356"><ele>121.5</ele><time>2026-04-18T08:51:50.999Z</time></trkpt><trkpt lat="42.47813199985849" lon="11.49158444393116"><ele>123.0</ele><time>2026-04-18T08:51:51.999Z</time></trkpt><trkpt lat="42.478217161476344" lon="11.491764031639084"><ele>123.0</ele><time>2026-04-18T08:51:52.999Z</time></trkpt><trkpt lat="42.47829015781122" lon="11.491927780242513"><ele>123.0</ele><time>2026-04-18T08:51:53.999Z</time></trkpt><trkpt lat="42.478362693307076" lon="11.492069806002029"><ele>123.0</ele><time>2026-04-18T08:51:54.999Z</time></trkpt><trkpt lat="42.4784252726509" lon="11.49220755298286"><ele>123.0</ele><time>2026-04-18T08:51:55.999Z</time></trkpt><trkpt lat="42.47849266777732" lon="11.49233110394465"><ele>123.33333333333333</ele><time>2026-04-18T08:51:56.999Z</time></trkpt><trkpt lat="42.47856530746929" lon="11.49243695886311"><ele>123.66666666666666</ele><time>2026-04-18T08:51:57.999Z</time></trkpt><trkpt lat="42.47863484202027" lon="11.49252000224203"><ele>124.0</ele><time>2026-04-18T08:51:58.999Z</time></trkpt><trkpt lat="42.478697715940605" lon="11.492581438311802"><ele>124.33333333333333</ele><time>2026-04-18T08:51:59.999Z</time></trkpt><trkpt lat="42.478778945015236" lon="11.492655813536134"><ele>124.66666666666666</ele><time>2026-04-18T08:52:01.999Z</time></trkpt><trkpt lat="42.47879072971647" lon="11.49274882005015"><ele>125.0</ele><time>2026-04-18T08:52:03.999Z</time></trkpt><trkpt lat="42.47883415105125" lon="11.492849311278986"><ele>125.0</ele><time>2026-04-18T08:52:05.999Z</time></trkpt><trkpt lat="42.478909427379946" lon="11.49298538942965"><ele>125.0</ele><time>2026-04-18T08:52:07.999Z</time></trkpt><trkpt lat="42.478938356202356" lon="11.49306435443009"><ele>125.0</ele><time>2026-04-18T08:52:08.999Z</time></trkpt><trkpt lat="42.47896300961638" lon="11.493154361693911"><ele>125.0</ele><time>2026-04-18T08:52:09.999Z</time></trkpt><trkpt lat="42.47899780853349" lon="11.493325920497282"><ele>125.0</ele><time>2026-04-18T08:52:11.999Z</time></trkpt><trkpt lat="42.479020169681775" lon="11.493413940917566"><ele>124.99999999999999</ele><time>2026-04-18T08:52:12.999Z</time></trkpt><trkpt lat="42.47904724557549" lon="11.493503199988222"><ele>125.0</ele><time>2026-04-18T08:52:13.999Z</time></trkpt><trkpt lat="42.47908124834444" lon="11.493601813532653"><ele>125.0</ele><time>2026-04-18T08:52:14.999Z</time></trkpt><trkpt lat="42.47911526591835" lon="11.493697924197598"><ele>125.0</ele><time>2026-04-18T08:52:15.999Z</time></trkpt><trkpt lat="42.479166779466304" lon="11.493811753093405"><ele>124.99999999999999</ele><time>2026-04-18T08:52:16.999Z</time></trkpt><trkpt lat="42.47922305622743" lon="11.49391761171751"><ele>125.0</ele><time>2026-04-18T08:52:17.999Z</time></trkpt><trkpt lat="42.47928757436434" lon="11.49402726385105"><ele>125.0</ele><time>2026-04-18T08:52:18.999Z</time></trkpt><trkpt lat="42.47935970431531" lon="11.494136334287933"><ele>125.0</ele><time>2026-04-18T08:52:19.998Z</time></trkpt><trkpt lat="42.4794270659779" lon="11.494247538398485"><ele>125.0</ele><time>2026-04-18T08:52:20.998Z</time></trkpt><trkpt lat="42.47949318608274" lon="11.494362575015828"><ele>125.0</ele><time>2026-04-18T08:52:21.998Z</time></trkpt><trkpt lat="42.479569757202356" lon="11.494473401017116"><ele>125.0</ele><time>2026-04-18T08:52:22.998Z</time></trkpt><trkpt lat="42.479640250394716" lon="11.494580006808011"><ele>125.6</ele><time>2026-04-18T08:52:23.998Z</time></trkpt><trkpt lat="42.479701187523126" lon="11.494689226457378"><ele>126.2</ele><time>2026-04-18T08:52:24.998Z</time></trkpt><trkpt lat="42.47976162493601" lon="11.494822258062127"><ele>126.80000000000001</ele><time>2026-04-18T08:52:25.998Z</time></trkpt><trkpt lat="42.479799066531555" lon="11.49495295988064"><ele>127.4</ele><time>2026-04-18T08:52:26.998Z</time></trkpt><trkpt lat="42.47983391976125" lon="11.495095507310701"><ele>128.0</ele><time>2026-04-18T08:52:27.998Z</time></trkpt><trkpt lat="42.47987319186733" lon="11.495242235252213"><ele>128.0</ele><time>2026-04-18T08:52:28.998Z</time></trkpt><trkpt lat="42.47990986690522" lon="11.495383879430722"><ele>128.0</ele><time>2026-04-18T08:52:29.998Z</time></trkpt><trkpt lat="42.479952180493626" lon="11.495529673030184"><ele>128.0</ele><time>2026-04-18T08:52:30.998Z</time></trkpt><trkpt lat="42.479981578724704" lon="11.495663827816132"><ele>128.0</ele><time>2026-04-18T08:52:31.998Z</time></trkpt><trkpt lat="42.4800071894774" lon="11.495785306410443"><ele>128.0</ele><time>2026-04-18T08:52:32.998Z</time></trkpt><trkpt lat="42.480027685457216" lon="11.495892111325503"><ele>127.99999999999999</ele><time>2026-04-18T08:52:33.998Z</time></trkpt><trkpt lat="42.480051249521026" lon="11.49600008523387"><ele>128.0</ele><time>2026-04-18T08:52:34.998Z</time></trkpt><trkpt lat="42.48008108293082" lon="11.496111602992013"><ele>128.0</ele><time>2026-04-18T08:52:35.998Z</time></trkpt><trkpt lat="42.48010063075403" lon="11.49620843419675"><ele>128.0</ele><time>2026-04-18T08:52:36.998Z</time></trkpt><trkpt lat="42.48012733791992" lon="11.496296689751812"><ele>127.99999999999999</ele><time>2026-04-18T08:52:37.998Z</time></trkpt><trkpt lat="42.4801659895205" lon="11.496391375978497"><ele>128.0</ele><time>2026-04-18T08:52:38.998Z</time></trkpt><trkpt lat="42.48021286590131" lon="11.496485946221089"><ele>127.99999999999999</ele><time>2026-04-18T08:52:39.998Z</time></trkpt><trkpt lat="42.48022169753118" lon="11.496579582668328"><ele>128.0</ele><time>2026-04-18T08:52:40.998Z</time></trkpt><trkpt lat="42.480222684733334" lon="11.496706046567075"><ele>128.0</ele><time>2026-04-18T08:52:41.998Z</time></trkpt><trkpt lat="42.480191386815804" lon="11.496825264474333"><ele>128.0</ele><time>2026-04-18T08:52:42.998Z</time></trkpt><trkpt lat="42.48014440623428" lon="11.496928735443763"><ele>127.99999999999999</ele><time>2026-04-18T08:52:43.998Z</time></trkpt><trkpt lat="42.48007698005147" lon="11.497015517971736"><ele>128.0</ele><time>2026-04-18T08:52:44.998Z</time></trkpt><trkpt lat="42.480004593182876" lon="11.49711468194153"><ele>129.0</ele><time>2026-04-18T08:52:45.999Z</time></trkpt><trkpt lat="42.47995323615628" lon="11.497216281451049"><ele>130.0</ele><time>2026-04-18T08:52:46.999Z</time></trkpt><trkpt lat="42.47991905849878" lon="11.497334146390527"><ele>131.0</ele><time>2026-04-18T08:52:47.999Z</time></trkpt><trkpt lat="42.479900881014935" lon="11.497461106293073"><ele>132.0</ele><time>2026-04-18T08:52:48.999Z</time></trkpt><trkpt lat="42.4798760523964" lon="11.497605857566843"><ele>133.0</ele><time>2026-04-18T08:52:49.999Z</time></trkpt><trkpt lat="42.479842647778504" lon="11.49774686824333"><ele>133.0</ele><time>2026-04-18T08:52:50.999Z</time></trkpt><trkpt lat="42.479812951495944" lon="11.497899114893917"><ele>133.0</ele><time>2026-04-18T08:52:51.999Z</time></trkpt><trkpt lat="42.47980253179016" lon="11.498045019314738"><ele>133.0</ele><time>2026-04-18T08:52:52.999Z</time></trkpt><trkpt lat="42.47980047623252" lon="11.498158972118231"><ele>133.0</ele><time>2026-04-18T08:52:53.999Z</time></trkpt><trkpt lat="42.47980186485064" lon="11.498256549144678"><ele>133.0</ele><time>2026-04-18T08:52:54.999Z</time></trkpt><trkpt lat="42.479829085633654" lon="11.498373387542543"><ele>134.20000000000002</ele><time>2026-04-18T08:52:55.999Z</time></trkpt><trkpt lat="42.47987530613068" lon="11.498479111767795"><ele>135.4</ele><time>2026-04-18T08:52:56.999Z</time></trkpt><trkpt lat="42.47991372599608" lon="11.498595820491808"><ele>136.60000000000002</ele><time>2026-04-18T08:52:57.999Z</time></trkpt><trkpt lat="42.4799382566158" lon="11.49872191439686"><ele>137.8</ele><time>2026-04-18T08:52:58.999Z</time></trkpt><trkpt lat="42.47997316900772" lon="11.49882256703661"><ele>139.0</ele><time>2026-04-18T08:52:59.999Z</time></trkpt><trkpt lat="42.48002102726205" lon="11.498920628760823"><ele>139.25</ele><time>2026-04-18T08:53:00.999Z</time></trkpt><trkpt lat="42.4800888082784" lon="11.499021436555024"><ele>139.5</ele><time>2026-04-18T08:53:01.999Z</time></trkpt><trkpt lat="42.48018283674348" lon="11.499126450175575"><ele>139.75</ele><time>2026-04-18T08:53:02.999Z</time></trkpt><trkpt lat="42.48029733781078" lon="11.499229043886569"><ele>140.0</ele><time>2026-04-18T08:53:03.999Z</time></trkpt><trkpt lat="42.48042270710943" lon="11.499347635548995"><ele>141.25</ele><time>2026-04-18T08:53:04.999Z</time></trkpt><trkpt lat="42.4805369779304" lon="11.499460013120498"><ele>142.5</ele><time>2026-04-18T08:53:05.999Z</time></trkpt><trkpt lat="42.480629372065636" lon="11.49957924911022"><ele>143.75</ele><time>2026-04-18T08:53:06.999Z</time></trkpt><trkpt lat="42.480722494537154" lon="11.499713416130659"><ele>145.0</ele><time>2026-04-18T08:53:07.999Z</time></trkpt><trkpt lat="42.48086062326619" lon="11.499873813559624"><ele>146.0</ele><time>2026-04-18T08:53:08.999Z</time></trkpt><trkpt lat="42.48098871086172" lon="11.50004629192936"><ele>147.0</ele><time>2026-04-18T08:53:09.999Z</time></trkpt><trkpt lat="42.48108701861318" lon="11.500187018202556"><ele>148.0</ele><time>2026-04-18T08:53:10.999Z</time></trkpt><trkpt lat="42.48117096905488" lon="11.500313052428051"><ele>149.0</ele><time>2026-04-18T08:53:11.999Z</time></trkpt><trkpt lat="42.48123339279562" lon="11.500437386807443"><ele>150.25</ele><time>2026-04-18T08:53:12.999Z</time></trkpt><trkpt lat="42.4812843812986" lon="11.500573717308464"><ele>151.5</ele><time>2026-04-18T08:53:13.999Z</time></trkpt><trkpt lat="42.481321160948376" lon="11.500721906753434"><ele>152.75</ele><time>2026-04-18T08:53:14.999Z</time></trkpt><trkpt lat="42.48134437555424" lon="11.500897790294673"><ele>154.0</ele><time>2026-04-18T08:53:15.999Z</time></trkpt><trkpt lat="42.481372628911835" lon="11.501098560053052"><ele>154.8</ele><time>2026-04-18T08:53:16.999Z</time></trkpt><trkpt lat="42.481409774514745" lon="11.501268718070946"><ele>155.60000000000002</ele><time>2026-04-18T08:53:17.999Z</time></trkpt><trkpt lat="42.481449359211446" lon="11.50143647455715"><ele>156.4</ele><time>2026-04-18T08:53:18.999Z</time></trkpt><trkpt lat="42.481474412651295" lon="11.501557589640415"><ele>157.20000000000002</ele><time>2026-04-18T08:53:19.999Z</time></trkpt><trkpt lat="42.48149421932542" lon="11.501662979468287"><ele>158.0</ele><time>2026-04-18T08:53:20.999Z</time></trkpt><trkpt lat="42.48151937892143" lon="11.501765268374731"><ele>158.0</ele><time>2026-04-18T08:53:21.999Z</time></trkpt><trkpt lat="42.48156924566473" lon="11.501845012982082"><ele>158.0</ele><time>2026-04-18T08:53:22.999Z</time></trkpt><trkpt lat="42.48163538920988" lon="11.501893776027032"><ele>158.0</ele><time>2026-04-18T08:53:23.999Z</time></trkpt><trkpt lat="42.4817207971786" lon="11.501928689809567"><ele>158.0</ele><time>2026-04-18T08:53:24.999Z</time></trkpt><trkpt lat="42.481808056400254" lon="11.501936522794695"><ele>158.0</ele><time>2026-04-18T08:53:25.999Z</time></trkpt><trkpt lat="42.481872064517304" lon="11.501900776921472"><ele>158.0</ele><time>2026-04-18T08:53:26.999Z</time></trkpt><trkpt lat="42.48195551233003" lon="11.501770846165279"><ele>158.0</ele><time>2026-04-18T08:53:28.999Z</time></trkpt><trkpt lat="42.48200242267891" lon="11.501646015682255"><ele>158.0</ele><time>2026-04-18T08:53:29.999Z</time></trkpt><trkpt lat="42.482055819369975" lon="11.501487002185092"><ele>158.0</ele><time>2026-04-18T08:53:30.999Z</time></trkpt><trkpt lat="42.48209781869893" lon="11.501345119457213"><ele>158.0</ele><time>2026-04-18T08:53:31.999Z</time></trkpt><trkpt lat="42.48213714799399" lon="11.501267805749713"><ele>158.0</ele><time>2026-04-18T08:53:32.999Z</time></trkpt><trkpt lat="42.48223552459375" lon="11.50123665362915"><ele>159.5</ele><time>2026-04-18T08:53:34.999Z</time></trkpt><trkpt lat="42.4823465046982" lon="11.5013047266615"><ele>161.0</ele><time>2026-04-18T08:53:36.999Z</time></trkpt><trkpt lat="42.48241728369688" lon="11.50139655728309"><ele>162.5</ele><time>2026-04-18T08:53:37.999Z</time></trkpt><trkpt lat="42.48249052422948" lon="11.501516750150936"><ele>164.0</ele><time>2026-04-18T08:53:38.999Z</time></trkpt><trkpt lat="42.48257727817931" lon="11.50165474189752"><ele>164.0</ele><time>2026-04-18T08:53:39.999Z</time></trkpt><trkpt lat="42.48265603573637" lon="11.501777212344313"><ele>164.0</ele><time>2026-04-18T08:53:40.999Z</time></trkpt><trkpt lat="42.48273505572865" lon="11.501818648438933"><ele>164.0</ele><time>2026-04-18T08:53:41.999Z</time></trkpt><trkpt lat="42.4828242704752" lon="11.501846931964888"><ele>164.0</ele><time>2026-04-18T08:53:42.999Z</time></trkpt><trkpt lat="42.48291843341799" lon="11.501903692635858"><ele>164.0</ele><time>2026-04-18T08:53:43.999Z</time></trkpt><trkpt lat="42.48301106418765" lon="11.501990544967562"><ele>165.6</ele><time>2026-04-18T08:53:44.999Z</time></trkpt><trkpt lat="42.483087396084414" lon="11.502102358465056"><ele>167.2</ele><time>2026-04-18T08:53:45.999Z</time></trkpt><trkpt lat="42.48313523177827" lon="11.502188292791482"><ele>168.79999999999998</ele><time>2026-04-18T08:53:46.999Z</time></trkpt><trkpt lat="42.483154714184934" lon="11.5023157626116"><ele>170.39999999999998</ele><time>2026-04-18T08:53:48.999Z</time></trkpt><trkpt lat="42.48316342779188" lon="11.502431099893691"><ele>172.0</ele><time>2026-04-18T08:53:49.999Z</time></trkpt><trkpt lat="42.48318912469352" lon="11.502562723238988"><ele>172.0</ele><time>2026-04-18T08:53:50.999Z</time></trkpt><trkpt lat="42.483231767746354" lon="11.5026906025731"><ele>172.0</ele><time>2026-04-18T08:53:51.999Z</time></trkpt><trkpt lat="42.48329283368724" lon="11.502813316960447"><ele>172.0</ele><time>2026-04-18T08:53:52.999Z</time></trkpt><trkpt lat="42.48335779292597" lon="11.502930459521588"><ele>172.0</ele><time>2026-04-18T08:53:53.999Z</time></trkpt><trkpt lat="42.48342401335704" lon="11.503019025324779"><ele>172.0</ele><time>2026-04-18T08:53:54.999Z</time></trkpt><trkpt lat="42.48348163370035" lon="11.50308259605338"><ele>172.83333333333334</ele><time>2026-04-18T08:53:55.999Z</time></trkpt><trkpt lat="42.48354335560497" lon="11.503136846470836"><ele>173.66666666666669</ele><time>2026-04-18T08:53:56.999Z</time></trkpt><trkpt lat="42.483602389005036" lon="11.50321286268466"><ele>174.5</ele><time>2026-04-18T08:53:57.999Z</time></trkpt><trkpt lat="42.483639234367395" lon="11.503300099238187"><ele>175.33333333333334</ele><time>2026-04-18T08:53:58.999Z</time></trkpt><trkpt lat="42.4836845892207" lon="11.503406759307017"><ele>176.16666666666666</ele><time>2026-04-18T08:53:59.999Z</time></trkpt><trkpt lat="42.48377546702126" lon="11.503506092000464"><ele>177.0</ele><time>2026-04-18T08:54:00.999Z</time></trkpt><trkpt lat="42.48390063576281" lon="11.503633955567697"><ele>179.75</ele><time>2026-04-18T08:54:01.999Z</time></trkpt><trkpt lat="42.48402661622216" lon="11.50375526577693"><ele>182.5</ele><time>2026-04-18T08:54:02.999Z</time></trkpt><trkpt lat="42.48413471339473" lon="11.503841102926458"><ele>185.25</ele><time>2026-04-18T08:54:03.999Z</time></trkpt><trkpt lat="42.48421446432929" lon="11.503908349418824"><ele>188.0</ele><time>2026-04-18T08:54:04.999Z</time></trkpt><trkpt lat="42.48427993389215" lon="11.50399711382378"><ele>188.0</ele><time>2026-04-18T08:54:05.999Z</time></trkpt><trkpt lat="42.48433750844863" lon="11.504104195461398"><ele>188.0</ele><time>2026-04-18T08:54:06.999Z</time></trkpt><trkpt lat="42.48440043533037" lon="11.504200080728673"><ele>188.0</ele><time>2026-04-18T08:54:07.999Z</time></trkpt><trkpt lat="42.48444025078308" lon="11.50428984826937"><ele>188.0</ele><time>2026-04-18T08:54:08.999Z</time></trkpt><trkpt lat="42.48446516896908" lon="11.504388776898676"><ele>188.0</ele><time>2026-04-18T08:54:09.999Z</time></trkpt><trkpt lat="42.48449492430688" lon="11.504494941621742"><ele>188.0</ele><time>2026-04-18T08:54:10.999Z</time></trkpt><trkpt lat="42.48453693127701" lon="11.504609385657895"><ele>188.0</ele><time>2026-04-18T08:54:11.999Z</time></trkpt><trkpt lat="42.484585932389805" lon="11.504723164867556"><ele>188.0</ele><time>2026-04-18T08:54:12.999Z</time></trkpt><trkpt lat="42.484632431648656" lon="11.504829901321672"><ele>188.0</ele><time>2026-04-18T08:54:13.999Z</time></trkpt><trkpt lat="42.484669998991166" lon="11.504931453739434"><ele>188.0</ele><time>2026-04-18T08:54:14.999Z</time></trkpt><trkpt lat="42.48470595056994" lon="11.50502409543076"><ele>188.0</ele><time>2026-04-18T08:54:15.999Z</time></trkpt><trkpt lat="42.48473310898568" lon="11.505106159152183"><ele>188.0</ele><time>2026-04-18T08:54:16.999Z</time></trkpt><trkpt lat="42.48479233786011" lon="11.505255884321613"><ele>188.0</ele><time>2026-04-18T08:54:18.999Z</time></trkpt><trkpt lat="42.48483994305502" lon="11.505380966779606"><ele>188.0</ele><time>2026-04-18T08:54:20.999Z</time></trkpt><trkpt lat="42.48489592021502" lon="11.505529959748168"><ele>188.0</ele><time>2026-04-18T08:54:22.999Z</time></trkpt><trkpt lat="42.48496794347948" lon="11.505663032683612"><ele>188.0</ele><time>2026-04-18T08:54:24.999Z</time></trkpt><trkpt lat="42.48504233705778" lon="11.505794077530263"><ele>189.0</ele><time>2026-04-18T08:54:26.999Z</time></trkpt><trkpt lat="42.48508542791652" lon="11.505862809798643"><ele>190.0</ele><time>2026-04-18T08:54:27.999Z</time></trkpt><trkpt lat="42.48513584562251" lon="11.50593418652315"><ele>191.0</ele><time>2026-04-18T08:54:28.999Z</time></trkpt><trkpt lat="42.48518892814214" lon="11.505987075746322"><ele>192.0</ele><time>2026-04-18T08:54:29.999Z</time></trkpt><trkpt lat="42.48529240391402" lon="11.506032107036974"><ele>193.00000000000003</ele><time>2026-04-18T08:54:31.999Z</time></trkpt><trkpt lat="42.48536295557078" lon="11.506042518465609"><ele>194.0</ele><time>2026-04-18T08:54:32.999Z</time></trkpt><trkpt lat="42.48544010488961" lon="11.506051910647177"><ele>194.33333333333334</ele><time>2026-04-18T08:54:33.999Z</time></trkpt><trkpt lat="42.48551310541666" lon="11.50605178114371"><ele>194.66666666666669</ele><time>2026-04-18T08:54:34.999Z</time></trkpt><trkpt lat="42.48561798321611" lon="11.506103065912152"><ele>195.0</ele><time>2026-04-18T08:54:36.999Z</time></trkpt><trkpt lat="42.48566766648685" lon="11.506156805057355"><ele>195.33333333333331</ele><time>2026-04-18T08:54:37.999Z</time></trkpt><trkpt lat="42.485735032088684" lon="11.506217963838417"><ele>195.66666666666666</ele><time>2026-04-18T08:54:38.999Z</time></trkpt><trkpt lat="42.48578525150414" lon="11.506291621623156"><ele>196.0</ele><time>2026-04-18T08:54:39.999Z</time></trkpt><trkpt lat="42.48584134826719" lon="11.506353662564663"><ele>195.99999999999997</ele><time>2026-04-18T08:54:40.999Z</time></trkpt><trkpt lat="42.48588148642509" lon="11.50641959546432"><ele>196.0</ele><time>2026-04-18T08:54:41.999Z</time></trkpt><trkpt lat="42.48591600272488" lon="11.506512567990878"><ele>196.0</ele><time>2026-04-18T08:54:42.999Z</time></trkpt><trkpt lat="42.48593085254996" lon="11.506607308663138"><ele>196.0</ele><time>2026-04-18T08:54:43.999Z</time></trkpt><trkpt lat="42.48593493533994" lon="11.506701595974567"><ele>195.99999999999997</ele><time>2026-04-18T08:54:44.998Z</time></trkpt><trkpt lat="42.485922620930886" lon="11.506822757164786"><ele>196.0</ele><time>2026-04-18T08:54:45.998Z</time></trkpt><trkpt lat="42.48588956459335" lon="11.506926883836403"><ele>195.99999999999997</ele><time>2026-04-18T08:54:46.998Z</time></trkpt><trkpt lat="42.48585518139559" lon="11.507016618872704"><ele>196.0</ele><time>2026-04-18T08:54:47.998Z</time></trkpt><trkpt lat="42.485835683864266" lon="11.50712000056294"><ele>196.0</ele><time>2026-04-18T08:54:48.998Z</time></trkpt><trkpt lat="42.48583276800732" lon="11.507220832857714"><ele>196.0</ele><time>2026-04-18T08:54:49.998Z</time></trkpt><trkpt lat="42.48585148882565" lon="11.5073194206953"><ele>195.99999999999997</ele><time>2026-04-18T08:54:50.998Z</time></trkpt><trkpt lat="42.48588730624159" lon="11.507402677009908"><ele>196.0</ele><time>2026-04-18T08:54:51.999Z</time></trkpt><trkpt lat="42.48594831231605" lon="11.507470479739291"><ele>196.4</ele><time>2026-04-18T08:54:52.999Z</time></trkpt><trkpt lat="42.486015938577" lon="11.50752852438891"><ele>196.8</ele><time>2026-04-18T08:54:53.999Z</time></trkpt><trkpt lat="42.486101917096065" lon="11.507574858117234"><ele>197.20000000000002</ele><time>2026-04-18T08:54:54.999Z</time></trkpt><trkpt lat="42.48621045126575" lon="11.507609807002806"><ele>197.60000000000002</ele><time>2026-04-18T08:54:55.999Z</time></trkpt><trkpt lat="42.48631633072095" lon="11.507662239155595"><ele>198.0</ele><time>2026-04-18T08:54:56.999Z</time></trkpt><trkpt lat="42.48641677089273" lon="11.50770824426364"><ele>199.16666666666666</ele><time>2026-04-18T08:54:57.999Z</time></trkpt><trkpt lat="42.486520334531534" lon="11.507759667983208"><ele>200.33333333333331</ele><time>2026-04-18T08:54:59Z</time></trkpt><trkpt lat="42.486619465440874" lon="11.507779352062208"><ele>201.5</ele><time>2026-04-18T08:54:59.999Z</time></trkpt><trkpt lat="42.48670521938039" lon="11.507774938306"><ele>202.66666666666666</ele><time>2026-04-18T08:55:00.999Z</time></trkpt><trkpt lat="42.48677378992898" lon="11.507759321796543"><ele>203.83333333333331</ele><time>2026-04-18T08:55:01.999Z</time></trkpt><trkpt lat="42.48684097824766" lon="11.50778873412477"><ele>205.0</ele><time>2026-04-18T08:55:02.999Z</time></trkpt><trkpt lat="42.48688519893613" lon="11.507873325710559"><ele>205.8</ele><time>2026-04-18T08:55:03.999Z</time></trkpt><trkpt lat="42.48692155243108" lon="11.507987439131758"><ele>206.6</ele><time>2026-04-18T08:55:04.999Z</time></trkpt><trkpt lat="42.48696294034838" lon="11.508119742338348"><ele>207.39999999999998</ele><time>2026-04-18T08:55:05.999Z</time></trkpt><trkpt lat="42.48701551278782" lon="11.508252079547214"><ele>208.2</ele><time>2026-04-18T08:55:06.999Z</time></trkpt><trkpt lat="42.48707537334315" lon="11.508330411005534"><ele>209.0</ele><time>2026-04-18T08:55:07.999Z</time></trkpt><trkpt lat="42.48715224125868" lon="11.508364864360292"><ele>210.75</ele><time>2026-04-18T08:55:08.999Z</time></trkpt><trkpt lat="42.48725420204096" lon="11.50840599272188"><ele>212.5</ele><time>2026-04-18T08:55:09.999Z</time></trkpt><trkpt lat="42.487366846008904" lon="11.508460260678051"><ele>214.25</ele><time>2026-04-18T08:55:10.999Z</time></trkpt><trkpt lat="42.48749393921382" lon="11.508522630595202"><ele>216.0</ele><time>2026-04-18T08:55:11.999Z</time></trkpt><trkpt lat="42.48760871745746" lon="11.508558393358934"><ele>216.0</ele><time>2026-04-18T08:55:12.999Z</time></trkpt><trkpt lat="42.487694373013674" lon="11.508596586748439"><ele>216.00000000000003</ele><time>2026-04-18T08:55:13.999Z</time></trkpt><trkpt lat="42.48776914117111" lon="11.508668296227555"><ele>216.00000000000003</ele><time>2026-04-18T08:55:14.999Z</time></trkpt><trkpt lat="42.487837400212264" lon="11.508782805985767"><ele>216.0</ele><time>2026-04-18T08:55:15.999Z</time></trkpt><trkpt lat="42.48791536305436" lon="11.508915694248358"><ele>216.0</ele><time>2026-04-18T08:55:16.999Z</time></trkpt><trkpt lat="42.487995311574224" lon="11.509050676150062"><ele>216.75</ele><time>2026-04-18T08:55:17.999Z</time></trkpt><trkpt lat="42.48808624711529" lon="11.509149854393858"><ele>217.5</ele><time>2026-04-18T08:55:18.999Z</time></trkpt><trkpt lat="42.48821587159545" lon="11.509236844481249"><ele>218.25</ele><time>2026-04-18T08:55:19.999Z</time></trkpt><trkpt lat="42.488333607909034" lon="11.509330746535795"><ele>219.0</ele><time>2026-04-18T08:55:20.999Z</time></trkpt><trkpt lat="42.48844663893642" lon="11.509447903912282"><ele>219.0</ele><time>2026-04-18T08:55:21.999Z</time></trkpt><trkpt lat="42.48856464511305" lon="11.509561364772726"><ele>219.0</ele><time>2026-04-18T08:55:22.999Z</time></trkpt><trkpt lat="42.48866081456865" lon="11.509648217572924"><ele>219.0</ele><time>2026-04-18T08:55:23.999Z</time></trkpt><trkpt lat="42.48875586554622" lon="11.509712169621862"><ele>219.0</ele><time>2026-04-18T08:55:24.999Z</time></trkpt><trkpt lat="42.48886851649669" lon="11.509780081816862"><ele>220.2</ele><time>2026-04-18T08:55:25.999Z</time></trkpt><trkpt lat="42.48896320566152" lon="11.509878575075955"><ele>221.39999999999998</ele><time>2026-04-18T08:55:26.999Z</time></trkpt><trkpt lat="42.48905651689982" lon="11.509991341872762"><ele>222.6</ele><time>2026-04-18T08:55:27.999Z</time></trkpt><trkpt lat="42.48913187132006" lon="11.51008569789053"><ele>223.8</ele><time>2026-04-18T08:55:28.999Z</time></trkpt><trkpt lat="42.48919892135587" lon="11.510158498334246"><ele>225.0</ele><time>2026-04-18T08:55:29.999Z</time></trkpt><trkpt lat="42.48924763634172" lon="11.510233982621441"><ele>225.0</ele><time>2026-04-18T08:55:30.999Z</time></trkpt><trkpt lat="42.48929670983074" lon="11.510348037179169"><ele>225.0</ele><time>2026-04-18T08:55:31.999Z</time></trkpt><trkpt lat="42.48933894394396" lon="11.51047720500352"><ele>225.0</ele><time>2026-04-18T08:55:32.999Z</time></trkpt><trkpt lat="42.48938913885231" lon="11.510615517586137"><ele>225.0</ele><time>2026-04-18T08:55:33.999Z</time></trkpt><trkpt lat="42.48945235290653" lon="11.510750294591974"><ele>225.0</ele><time>2026-04-18T08:55:34.999Z</time></trkpt><trkpt lat="42.48951698423892" lon="11.510865323909226"><ele>224.2</ele><time>2026-04-18T08:55:35.999Z</time></trkpt><trkpt lat="42.489577234180345" lon="11.510971918135219"><ele>223.4</ele><time>2026-04-18T08:55:36.999Z</time></trkpt><trkpt lat="42.489637224636546" lon="11.511068744534724"><ele>222.60000000000002</ele><time>2026-04-18T08:55:37.999Z</time></trkpt><trkpt lat="42.489699805242715" lon="11.511163463127744"><ele>221.8</ele><time>2026-04-18T08:55:38.999Z</time></trkpt><trkpt lat="42.48976917024043" lon="11.511271019755247"><ele>221.0</ele><time>2026-04-18T08:55:39.999Z</time></trkpt><trkpt lat="42.48983050649658" lon="11.511377996168818"><ele>219.0</ele><time>2026-04-18T08:55:40.999Z</time></trkpt><trkpt lat="42.489888921868875" lon="11.511481329147292"><ele>217.00000000000003</ele><time>2026-04-18T08:55:41.999Z</time></trkpt><trkpt lat="42.48993607074453" lon="11.511582727800842"><ele>215.0</ele><time>2026-04-18T08:55:42.999Z</time></trkpt><trkpt lat="42.489981672322564" lon="11.511684999106741"><ele>213.0</ele><time>2026-04-18T08:55:43.999Z</time></trkpt><trkpt lat="42.49003025543648" lon="11.51178820104178"><ele>211.0</ele><time>2026-04-18T08:55:44.999Z</time></trkpt><trkpt lat="42.49008524720718" lon="11.5118887243169"><ele>210.99999999999997</ele><time>2026-04-18T08:55:45.999Z</time></trkpt><trkpt lat="42.490148510278225" lon="11.511968237910006"><ele>211.0</ele><time>2026-04-18T08:55:46.999Z</time></trkpt><trkpt lat="42.490213589593886" lon="11.512042022691384"><ele>211.0</ele><time>2026-04-18T08:55:47.999Z</time></trkpt><trkpt lat="42.49028405744902" lon="11.512120434777021"><ele>211.0</ele><time>2026-04-18T08:55:48.999Z</time></trkpt><trkpt lat="42.49035909798073" lon="11.512170141381254"><ele>210.99999999999997</ele><time>2026-04-18T08:55:49.999Z</time></trkpt><trkpt lat="42.49044080313279" lon="11.512198007010799"><ele>211.0</ele><time>2026-04-18T08:55:50.999Z</time></trkpt><trkpt lat="42.490533594952055" lon="11.512207238849102"><ele>210.16666666666666</ele><time>2026-04-18T08:55:51.999Z</time></trkpt><trkpt lat="42.49067999764048" lon="11.51219897306856"><ele>209.33333333333331</ele><time>2026-04-18T08:55:53.999Z</time></trkpt><trkpt lat="42.490756839127116" lon="11.512180169221427"><ele>208.5</ele><time>2026-04-18T08:55:54.999Z</time></trkpt><trkpt lat="42.490831280975414" lon="11.512177908756813"><ele>207.66666666666669</ele><time>2026-04-18T08:55:55.999Z</time></trkpt><trkpt lat="42.49090124373136" lon="11.512196786643427"><ele>206.83333333333334</ele><time>2026-04-18T08:55:56.999Z</time></trkpt><trkpt lat="42.490968062482466" lon="11.512212556429525"><ele>206.0</ele><time>2026-04-18T08:55:57.999Z</time></trkpt><trkpt lat="42.491058374328844" lon="11.512213816678564"><ele>206.0</ele><time>2026-04-18T08:55:58.999Z</time></trkpt><trkpt lat="42.491176633088116" lon="11.512234357674632"><ele>206.0</ele><time>2026-04-18T08:55:59.999Z</time></trkpt><trkpt lat="42.49127925546873" lon="11.512254196602346"><ele>206.0</ele><time>2026-04-18T08:56:00.999Z</time></trkpt><trkpt lat="42.49137674634367" lon="11.512272856154308"><ele>206.0</ele><time>2026-04-18T08:56:01.999Z</time></trkpt><trkpt lat="42.49148111882164" lon="11.512284909083501"><ele>206.0</ele><time>2026-04-18T08:56:02.999Z</time></trkpt><trkpt lat="42.49157704280967" lon="11.512298029130319"><ele>206.4</ele><time>2026-04-18T08:56:03.999Z</time></trkpt><trkpt lat="42.491667050011046" lon="11.51231369739043"><ele>206.8</ele><time>2026-04-18T08:56:04.999Z</time></trkpt><trkpt lat="42.49175885738054" lon="11.512339712255296"><ele>207.20000000000002</ele><time>2026-04-18T08:56:05.999Z</time></trkpt><trkpt lat="42.491850046212974" lon="11.512389821656658"><ele>207.60000000000002</ele><time>2026-04-18T08:56:06.999Z</time></trkpt><trkpt lat="42.49193478742552" lon="11.512445512843987"><ele>208.0</ele><time>2026-04-18T08:56:07.999Z</time></trkpt><trkpt lat="42.49201808960942" lon="11.512497691882114"><ele>209.0</ele><time>2026-04-18T08:56:08.999Z</time></trkpt><trkpt lat="42.492101939534805" lon="11.512531800840378"><ele>210.0</ele><time>2026-04-18T08:56:09.999Z</time></trkpt><trkpt lat="42.49219716869324" lon="11.512557257437312"><ele>211.0</ele><time>2026-04-18T08:56:10.999Z</time></trkpt><trkpt lat="42.49229164049112" lon="11.512571678699464"><ele>212.0</ele><time>2026-04-18T08:56:11.999Z</time></trkpt><trkpt lat="42.49237645441536" lon="11.512585373577272"><ele>213.0</ele><time>2026-04-18T08:56:12.999Z</time></trkpt><trkpt lat="42.492460263868516" lon="11.512601850657118"><ele>213.0</ele><time>2026-04-18T08:56:13.999Z</time></trkpt><trkpt lat="42.49255144759145" lon="11.51261294205623"><ele>213.0</ele><time>2026-04-18T08:56:14.999Z</time></trkpt><trkpt lat="42.49263917449982" lon="11.512622472187841"><ele>213.0</ele><time>2026-04-18T08:56:15.999Z</time></trkpt><trkpt lat="42.49272752861334" lon="11.51263889619142"><ele>213.0</ele><time>2026-04-18T08:56:16.999Z</time></trkpt><trkpt lat="42.49281727915234" lon="11.512657307510295"><ele>213.0</ele><time>2026-04-18T08:56:17.999Z</time></trkpt><trkpt lat="42.49290175984503" lon="11.512678981732444"><ele>213.0</ele><time>2026-04-18T08:56:18.999Z</time></trkpt><trkpt lat="42.49298419877584" lon="11.512725214341657"><ele>213.33333333333334</ele><time>2026-04-18T08:56:19.999Z</time></trkpt><trkpt lat="42.493058852874704" lon="11.512783307308663"><ele>213.66666666666669</ele><time>2026-04-18T08:56:20.999Z</time></trkpt><trkpt lat="42.49312996763648" lon="11.512837801111704"><ele>214.0</ele><time>2026-04-18T08:56:21.999Z</time></trkpt><trkpt lat="42.49320009996014" lon="11.512886233220403"><ele>214.33333333333334</ele><time>2026-04-18T08:56:22.999Z</time></trkpt><trkpt lat="42.493272850181796" lon="11.512938030953308"><ele>214.66666666666669</ele><time>2026-04-18T08:56:23.999Z</time></trkpt><trkpt lat="42.493343212567694" lon="11.51298692471545"><ele>215.0</ele><time>2026-04-18T08:56:24.999Z</time></trkpt><trkpt lat="42.493413767268436" lon="11.513030833555247"><ele>215.50000000000003</ele><time>2026-04-18T08:56:25.999Z</time></trkpt><trkpt lat="42.49348550992427" lon="11.513068818446841"><ele>216.0</ele><time>2026-04-18T08:56:26.999Z</time></trkpt><trkpt lat="42.49355048354923" lon="11.5131160879786"><ele>216.5</ele><time>2026-04-18T08:56:27.999Z</time></trkpt><trkpt lat="42.49361543157539" lon="11.513188640246671"><ele>217.0</ele><time>2026-04-18T08:56:28.999Z</time></trkpt><trkpt lat="42.493677637780245" lon="11.513259035458317"><ele>217.50000000000003</ele><time>2026-04-18T08:56:29.999Z</time></trkpt><trkpt lat="42.49374091875994" lon="11.513330827351172"><ele>218.0</ele><time>2026-04-18T08:56:30.999Z</time></trkpt><trkpt lat="42.49380691167849" lon="11.513405859838315"><ele>218.00000000000003</ele><time>2026-04-18T08:56:31.999Z</time></trkpt><trkpt lat="42.493875795324506" lon="11.51348121381485"><ele>218.0</ele><time>2026-04-18T08:56:32.999Z</time></trkpt><trkpt lat="42.49394559102199" lon="11.513563014200608"><ele>218.0</ele><time>2026-04-18T08:56:33.999Z</time></trkpt><trkpt lat="42.49400994822569" lon="11.513642863962296"><ele>218.0</ele><time>2026-04-18T08:56:34.999Z</time></trkpt><trkpt lat="42.49407475866591" lon="11.513727064273867"><ele>218.00000000000003</ele><time>2026-04-18T08:56:35.999Z</time></trkpt><trkpt lat="42.49413681091661" lon="11.513798787789131"><ele>218.0</ele><time>2026-04-18T08:56:36.999Z</time></trkpt><trkpt lat="42.4942034596186" lon="11.513870975757566"><ele>218.00000000000003</ele><time>2026-04-18T08:56:37.999Z</time></trkpt><trkpt lat="42.49426518074664" lon="11.513937858548678"><ele>218.0</ele><time>2026-04-18T08:56:38.999Z</time></trkpt><trkpt lat="42.494326305913106" lon="11.514002591393643"><ele>218.0</ele><time>2026-04-18T08:56:39.999Z</time></trkpt><trkpt lat="42.49439182408062" lon="11.514075395910677"><ele>218.0</ele><time>2026-04-18T08:56:40.999Z</time></trkpt><trkpt lat="42.494459769575734" lon="11.51414241661493"><ele>218.00000000000003</ele><time>2026-04-18T08:56:41.999Z</time></trkpt><trkpt lat="42.494532592459365" lon="11.514210128898076"><ele>218.0</ele><time>2026-04-18T08:56:42.999Z</time></trkpt><trkpt lat="42.494605932960184" lon="11.514276957724597"><ele>218.0</ele><time>2026-04-18T08:56:43.999Z</time></trkpt><trkpt lat="42.49462553632118" lon="11.514471724749693"><ele>218.0</ele><time>2026-04-18T08:56:44.999Z</time></trkpt><trkpt lat="42.49468703228131" lon="11.51452284370231"><ele>218.0</ele><time>2026-04-18T08:56:45.999Z</time></trkpt><trkpt lat="42.49479046819967" lon="11.514558816216548"><ele>218.0</ele><time>2026-04-18T08:56:46.999Z</time></trkpt><trkpt lat="42.494856848133956" lon="11.514585158121688"><ele>218.0</ele><time>2026-04-18T08:56:47.999Z</time></trkpt><trkpt lat="42.49492725309077" lon="11.51461104387095"><ele>218.16666666666669</ele><time>2026-04-18T08:56:48.999Z</time></trkpt><trkpt lat="42.49499475146995" lon="11.514630780776397"><ele>218.33333333333334</ele><time>2026-04-18T08:56:49.999Z</time></trkpt><trkpt lat="42.495068499368344" lon="11.514705230580008"><ele>218.5</ele><time>2026-04-18T08:56:50.999Z</time></trkpt><trkpt lat="42.49514956049964" lon="11.514748266257733"><ele>218.66666666666669</ele><time>2026-04-18T08:56:51.999Z</time></trkpt><trkpt lat="42.49523346202548" lon="11.514778824028816"><ele>218.83333333333334</ele><time>2026-04-18T08:56:52.999Z</time></trkpt><trkpt lat="42.49531753747135" lon="11.514808520965598"><ele>219.0</ele><time>2026-04-18T08:56:53.999Z</time></trkpt><trkpt lat="42.49540274550413" lon="11.514837561264278"><ele>219.5</ele><time>2026-04-18T08:56:54.999Z</time></trkpt><trkpt lat="42.495490809411166" lon="11.514877384817094"><ele>220.0</ele><time>2026-04-18T08:56:55.999Z</time></trkpt><trkpt lat="42.49557369667473" lon="11.514914459538259"><ele>220.5</ele><time>2026-04-18T08:56:56.999Z</time></trkpt><trkpt lat="42.4956493880583" lon="11.514963714906068"><ele>221.0</ele><time>2026-04-18T08:56:58Z</time></trkpt><trkpt lat="42.495732247111235" lon="11.515016452574852"><ele>221.5</ele><time>2026-04-18T08:56:59Z</time></trkpt><trkpt lat="42.4958082718322" lon="11.515064102697846"><ele>222.0</ele><time>2026-04-18T08:57:00Z</time></trkpt><trkpt lat="42.49588429550655" lon="11.515112404958607"><ele>222.0</ele><time>2026-04-18T08:57:01Z</time></trkpt><trkpt lat="42.495962395840806" lon="11.5151554444587"><ele>222.0</ele><time>2026-04-18T08:57:02Z</time></trkpt><trkpt lat="42.49604060024949" lon="11.515199736327869"><ele>222.0</ele><time>2026-04-18T08:57:03Z</time></trkpt><trkpt lat="42.496110661224144" lon="11.515241578955353"><ele>222.0</ele><time>2026-04-18T08:57:04Z</time></trkpt><trkpt lat="42.49618556696303" lon="11.515267319174903"><ele>222.0</ele><time>2026-04-18T08:57:05Z</time></trkpt><trkpt lat="42.49625926336326" lon="11.515273594276263"><ele>222.0</ele><time>2026-04-18T08:57:06Z</time></trkpt><trkpt lat="42.49633926171152" lon="11.515258161557814"><ele>222.33333333333334</ele><time>2026-04-18T08:57:07Z</time></trkpt><trkpt lat="42.49641737110264" lon="11.51522131772027"><ele>222.66666666666669</ele><time>2026-04-18T08:57:08Z</time></trkpt><trkpt lat="42.496497403558934" lon="11.515186139559297"><ele>223.0</ele><time>2026-04-18T08:57:09Z</time></trkpt><trkpt lat="42.49658650415558" lon="11.515161869303066"><ele>223.33333333333334</ele><time>2026-04-18T08:57:10Z</time></trkpt><trkpt lat="42.49667268031061" lon="11.51513877802571"><ele>223.66666666666669</ele><time>2026-04-18T08:57:11Z</time></trkpt><trkpt lat="42.496762615249416" lon="11.515118368714989"><ele>224.0</ele><time>2026-04-18T08:57:12Z</time></trkpt><trkpt lat="42.49685883312584" lon="11.515100668497519"><ele>224.0</ele><time>2026-04-18T08:57:13Z</time></trkpt><trkpt lat="42.496955090857625" lon="11.515100697224907"><ele>223.99999999999997</ele><time>2026-04-18T08:57:14Z</time></trkpt><trkpt lat="42.497071242704834" lon="11.515105000667374"><ele>223.99999999999997</ele><time>2026-04-18T08:57:15Z</time></trkpt><trkpt lat="42.49717653503787" lon="11.515106796525453"><ele>224.0</ele><time>2026-04-18T08:57:16Z</time></trkpt><trkpt lat="42.49728703760689" lon="11.515086825085957"><ele>224.0</ele><time>2026-04-18T08:57:17Z</time></trkpt><trkpt lat="42.49740299371162" lon="11.515051586940492"><ele>224.39999999999998</ele><time>2026-04-18T08:57:18Z</time></trkpt><trkpt lat="42.497508656919834" lon="11.515011097308786"><ele>224.79999999999998</ele><time>2026-04-18T08:57:19Z</time></trkpt><trkpt lat="42.49759929772397" lon="11.514974687575432"><ele>225.20000000000002</ele><time>2026-04-18T08:57:20Z</time></trkpt><trkpt lat="42.497695041066706" lon="11.514942160808888"><ele>225.60000000000002</ele><time>2026-04-18T08:57:21Z</time></trkpt><trkpt lat="42.497786695325914" lon="11.51489934476372"><ele>226.0</ele><time>2026-04-18T08:57:21.999Z</time></trkpt><trkpt lat="42.49788423427294" lon="11.514867661490362"><ele>227.0</ele><time>2026-04-18T08:57:22.999Z</time></trkpt><trkpt lat="42.497982521435006" lon="11.514851876512553"><ele>228.00000000000003</ele><time>2026-04-18T08:57:23.999Z</time></trkpt><trkpt lat="42.49807425078182" lon="11.514874688573908"><ele>229.00000000000003</ele><time>2026-04-18T08:57:24.999Z</time></trkpt><trkpt lat="42.498166991092546" lon="11.514908712666317"><ele>230.0</ele><time>2026-04-18T08:57:25.999Z</time></trkpt><trkpt lat="42.49826784688828" lon="11.514926011324029"><ele>231.0</ele><time>2026-04-18T08:57:26.999Z</time></trkpt><trkpt lat="42.498383404666264" lon="11.514945421197659"><ele>231.0</ele><time>2026-04-18T08:57:27.999Z</time></trkpt><trkpt lat="42.49850073364464" lon="11.514952875953483"><ele>231.00000000000003</ele><time>2026-04-18T08:57:28.999Z</time></trkpt><trkpt lat="42.49860668467543" lon="11.514954181192973"><ele>231.00000000000003</ele><time>2026-04-18T08:57:29.999Z</time></trkpt><trkpt lat="42.49870736828788" lon="11.51494744543747"><ele>231.0</ele><time>2026-04-18T08:57:30.999Z</time></trkpt><trkpt lat="42.4987984543011" lon="11.514939689667676"><ele>231.0</ele><time>2026-04-18T08:57:31.999Z</time></trkpt><trkpt lat="42.49888265845237" lon="11.514927124412283"><ele>231.8</ele><time>2026-04-18T08:57:32.999Z</time></trkpt><trkpt lat="42.49896246467213" lon="11.514919368703433"><ele>232.60000000000002</ele><time>2026-04-18T08:57:33.999Z</time></trkpt><trkpt lat="42.499087827578876" lon="11.514907261072304"><ele>233.4</ele><time>2026-04-18T08:57:35.999Z</time></trkpt><trkpt lat="42.499157027375816" lon="11.514898761521504"><ele>234.2</ele><time>2026-04-18T08:57:36.999Z</time></trkpt><trkpt lat="42.499273451813494" lon="11.514887159589719"><ele>235.0</ele><time>2026-04-18T08:57:38.999Z</time></trkpt><trkpt lat="42.499348374703224" lon="11.514876437248297"><ele>234.99999999999997</ele><time>2026-04-18T08:57:40.999Z</time></trkpt><trkpt lat="42.499427665930995" lon="11.514879337058577"><ele>235.0</ele><time>2026-04-18T08:57:42.999Z</time></trkpt><trkpt lat="42.499492368887" lon="11.51490764644248"><ele>235.0</ele><time>2026-04-18T08:57:44.999Z</time></trkpt><trkpt lat="42.4995732400065" lon="11.514892371145113"><ele>235.0</ele><time>2026-04-18T08:57:46.999Z</time></trkpt><trkpt lat="42.49964670558182" lon="11.514890965536779"><ele>234.99999999999997</ele><time>2026-04-18T08:57:47.999Z</time></trkpt><trkpt lat="42.499734066063574" lon="11.514892209450828"><ele>235.0</ele><time>2026-04-18T08:57:48.999Z</time></trkpt><trkpt lat="42.499820936785206" lon="11.514896690186307"><ele>234.6</ele><time>2026-04-18T08:57:49.999Z</time></trkpt><trkpt lat="42.49991097176797" lon="11.514901970963141"><ele>234.2</ele><time>2026-04-18T08:57:50.999Z</time></trkpt><trkpt lat="42.50000339165626" lon="11.514914591438755"><ele>233.8</ele><time>2026-04-18T08:57:51.999Z</time></trkpt><trkpt lat="42.500113542214926" lon="11.514923914320564"><ele>233.4</ele><time>2026-04-18T08:57:52.999Z</time></trkpt><trkpt lat="42.50021565896924" lon="11.514920996878256"><ele>233.0</ele><time>2026-04-18T08:57:53.999Z</time></trkpt><trkpt lat="42.500320879814815" lon="11.514919123326294"><ele>233.00000000000003</ele><time>2026-04-18T08:57:54.999Z</time></trkpt><trkpt lat="42.50041384167907" lon="11.514918278922577"><ele>233.0</ele><time>2026-04-18T08:57:55.999Z</time></trkpt><trkpt lat="42.500495826381275" lon="11.514919499511855"><ele>233.0</ele><time>2026-04-18T08:57:56.999Z</time></trkpt><trkpt lat="42.50057877389315" lon="11.51491492760829"><ele>233.0</ele><time>2026-04-18T08:57:57.999Z</time></trkpt><trkpt lat="42.5006676493738" lon="11.514892152308525"><ele>233.00000000000003</ele><time>2026-04-18T08:57:58.999Z</time></trkpt><trkpt lat="42.50076134474526" lon="11.51484225942102"><ele>233.0</ele><time>2026-04-18T08:57:59.999Z</time></trkpt><trkpt lat="42.500859348135926" lon="11.514785014301149"><ele>231.60000000000002</ele><time>2026-04-18T08:58:00.999Z</time></trkpt><trkpt lat="42.50096197279781" lon="11.514723845064001"><ele>230.20000000000002</ele><time>2026-04-18T08:58:01.999Z</time></trkpt><trkpt lat="42.50106820584827" lon="11.514659894221786"><ele>228.8</ele><time>2026-04-18T08:58:02.999Z</time></trkpt><trkpt lat="42.50117691740072" lon="11.514609762517699"><ele>227.4</ele><time>2026-04-18T08:58:03.999Z</time></trkpt><trkpt lat="42.501271505108754" lon="11.51456562111372"><ele>226.0</ele><time>2026-04-18T08:58:04.999Z</time></trkpt><trkpt lat="42.501371879658585" lon="11.514503993965397"><ele>224.4</ele><time>2026-04-18T08:58:05.999Z</time></trkpt><trkpt lat="42.50146382595983" lon="11.514434710755467"><ele>222.8</ele><time>2026-04-18T08:58:06.999Z</time></trkpt><trkpt lat="42.50155366192486" lon="11.514352170430541"><ele>221.20000000000002</ele><time>2026-04-18T08:58:07.999Z</time></trkpt><trkpt lat="42.50164614020425" lon="11.514258957876711"><ele>219.60000000000002</ele><time>2026-04-18T08:58:08.999Z</time></trkpt><trkpt lat="42.501735274634726" lon="11.514151941086618"><ele>218.0</ele><time>2026-04-18T08:58:09.999Z</time></trkpt><trkpt lat="42.501820720491736" lon="11.51405706194961"><ele>218.0</ele><time>2026-04-18T08:58:10.999Z</time></trkpt><trkpt lat="42.50190384457829" lon="11.513958189926162"><ele>218.0</ele><time>2026-04-18T08:58:11.999Z</time></trkpt><trkpt lat="42.50198670135077" lon="11.513863423105125"><ele>218.0</ele><time>2026-04-18T08:58:12.999Z</time></trkpt><trkpt lat="42.50206412394051" lon="11.513761352332411"><ele>218.0</ele><time>2026-04-18T08:58:13.999Z</time></trkpt><trkpt lat="42.50215891032354" lon="11.513703807060159"><ele>218.0</ele><time>2026-04-18T08:58:14.999Z</time></trkpt><trkpt lat="42.50224914129304" lon="11.513634602607697"><ele>216.75</ele><time>2026-04-18T08:58:15.999Z</time></trkpt><trkpt lat="42.50234186080722" lon="11.513560677785884"><ele>215.5</ele><time>2026-04-18T08:58:16.999Z</time></trkpt><trkpt lat="42.50245272012709" lon="11.51350547490617"><ele>214.25</ele><time>2026-04-18T08:58:17.999Z</time></trkpt><trkpt lat="42.50256343561781" lon="11.513451202013458"><ele>213.0</ele><time>2026-04-18T08:58:18.999Z</time></trkpt><trkpt lat="42.5026730261162" lon="11.513401317989295"><ele>213.0</ele><time>2026-04-18T08:58:19.999Z</time></trkpt><trkpt lat="42.50277431699255" lon="11.513362633863824"><ele>213.0</ele><time>2026-04-18T08:58:20.999Z</time></trkpt><trkpt lat="42.5028751748109" lon="11.513307338709874"><ele>213.0</ele><time>2026-04-18T08:58:21.999Z</time></trkpt><trkpt lat="42.502978257265376" lon="11.513258250194681"><ele>213.0</ele><time>2026-04-18T08:58:22.999Z</time></trkpt><trkpt lat="42.50308249929145" lon="11.513212783110953"><ele>213.0</ele><time>2026-04-18T08:58:23.999Z</time></trkpt><trkpt lat="42.503192332012574" lon="11.51316045636407"><ele>212.0</ele><time>2026-04-18T08:58:24.999Z</time></trkpt><trkpt lat="42.50329479257769" lon="11.513115096447802"><ele>211.0</ele><time>2026-04-18T08:58:25.999Z</time></trkpt><trkpt lat="42.503402871978444" lon="11.51306930132506"><ele>210.0</ele><time>2026-04-18T08:58:26.999Z</time></trkpt><trkpt lat="42.50350970413975" lon="11.513027654464926"><ele>209.0</ele><time>2026-04-18T08:58:27.999Z</time></trkpt><trkpt lat="42.50361898391679" lon="11.513003943478978"><ele>208.0</ele><time>2026-04-18T08:58:28.999Z</time></trkpt><trkpt lat="42.50372714735931" lon="11.512948038514542"><ele>209.0</ele><time>2026-04-18T08:58:29.999Z</time></trkpt><trkpt lat="42.503844886380456" lon="11.512897106954036"><ele>210.0</ele><time>2026-04-18T08:58:30.999Z</time></trkpt><trkpt lat="42.50396021882452" lon="11.512844099943454"><ele>211.0</ele><time>2026-04-18T08:58:31.999Z</time></trkpt><trkpt lat="42.50407050161544" lon="11.512796664104778"><ele>212.0</ele><time>2026-04-18T08:58:32.999Z</time></trkpt><trkpt lat="42.50419336440637" lon="11.512725334566456"><ele>212.0</ele><time>2026-04-18T08:58:33.999Z</time></trkpt><trkpt lat="42.50430555631924" lon="11.512663113401432"><ele>212.0</ele><time>2026-04-18T08:58:34.999Z</time></trkpt><trkpt lat="42.50441799167069" lon="11.51260652904685"><ele>212.0</ele><time>2026-04-18T08:58:35.999Z</time></trkpt><trkpt lat="42.5045154294461" lon="11.512552779485492"><ele>212.0</ele><time>2026-04-18T08:58:36.999Z</time></trkpt><trkpt lat="42.50460392347313" lon="11.512481938788666"><ele>212.0</ele><time>2026-04-18T08:58:37.999Z</time></trkpt><trkpt lat="42.50469122401232" lon="11.512423024041459"><ele>212.8</ele><time>2026-04-18T08:58:38.999Z</time></trkpt><trkpt lat="42.50478996245505" lon="11.512375406916206"><ele>213.6</ele><time>2026-04-18T08:58:39.999Z</time></trkpt><trkpt lat="42.50490056798704" lon="11.512353872622556"><ele>214.40000000000003</ele><time>2026-04-18T08:58:40.999Z</time></trkpt><trkpt lat="42.50500638061769" lon="11.512378606971833"><ele>215.20000000000002</ele><time>2026-04-18T08:58:41.999Z</time></trkpt><trkpt lat="42.50510588674436" lon="11.512354070157997"><ele>216.0</ele><time>2026-04-18T08:58:42.999Z</time></trkpt><trkpt lat="42.505206781411495" lon="11.512324721694187"><ele>216.0</ele><time>2026-04-18T08:58:43.999Z</time></trkpt><trkpt lat="42.505301601850555" lon="11.512263982607484"><ele>216.00000000000003</ele><time>2026-04-18T08:58:44.999Z</time></trkpt><trkpt lat="42.50539698623608" lon="11.512183482814574"><ele>216.00000000000003</ele><time>2026-04-18T08:58:45.999Z</time></trkpt><trkpt lat="42.505491851341944" lon="11.512096653637094"><ele>216.0</ele><time>2026-04-18T08:58:46.999Z</time></trkpt><trkpt lat="42.505579112950734" lon="11.512007359815154"><ele>216.0</ele><time>2026-04-18T08:58:47.999Z</time></trkpt><trkpt lat="42.5056653317306" lon="11.511900694111564"><ele>215.5</ele><time>2026-04-18T08:58:48.999Z</time></trkpt><trkpt lat="42.50574812744756" lon="11.511772497720965"><ele>215.0</ele><time>2026-04-18T08:58:49.999Z</time></trkpt><trkpt lat="42.505832406028304" lon="11.511633101988402"><ele>214.5</ele><time>2026-04-18T08:58:50.999Z</time></trkpt><trkpt lat="42.505925949311774" lon="11.511508717799462"><ele>214.0</ele><time>2026-04-18T08:58:51.999Z</time></trkpt><trkpt lat="42.506024686101995" lon="11.511388361698765"><ele>214.0</ele><time>2026-04-18T08:58:52.999Z</time></trkpt><trkpt lat="42.5061189753589" lon="11.511286190197442"><ele>214.0</ele><time>2026-04-18T08:58:53.999Z</time></trkpt><trkpt lat="42.50620664547257" lon="11.51117372387955"><ele>214.0</ele><time>2026-04-18T08:58:54.999Z</time></trkpt><trkpt lat="42.50628520842256" lon="11.511076851453382"><ele>214.0</ele><time>2026-04-18T08:58:55.999Z</time></trkpt><trkpt lat="42.5063602069894" lon="11.510981887115472"><ele>213.6</ele><time>2026-04-18T08:58:56.999Z</time></trkpt><trkpt lat="42.50643307837621" lon="11.510891228740306"><ele>213.2</ele><time>2026-04-18T08:58:57.999Z</time></trkpt><trkpt lat="42.506501244869334" lon="11.510796157326872"><ele>212.79999999999998</ele><time>2026-04-18T08:58:58.999Z</time></trkpt><trkpt lat="42.50658968970284" lon="11.510716919449397"><ele>212.39999999999998</ele><time>2026-04-18T08:58:59.999Z</time></trkpt><trkpt lat="42.506667893547075" lon="11.51061545661775"><ele>212.0</ele><time>2026-04-18T08:59:00.999Z</time></trkpt><trkpt lat="42.50675552957949" lon="11.51052702167569"><ele>212.0</ele><time>2026-04-18T08:59:01.999Z</time></trkpt><trkpt lat="42.506862921064446" lon="11.510426645409916"><ele>212.0</ele><time>2026-04-18T08:59:02.999Z</time></trkpt><trkpt lat="42.50694717919965" lon="11.510333911120627"><ele>212.0</ele><time>2026-04-18T08:59:04Z</time></trkpt><trkpt lat="42.50703046640175" lon="11.510244844075475"><ele>212.0</ele><time>2026-04-18T08:59:05Z</time></trkpt><trkpt lat="42.507092214044576" lon="11.510147353649712"><ele>212.0</ele><time>2026-04-18T08:59:06Z</time></trkpt><trkpt lat="42.50715138274294" lon="11.510050414680455"><ele>211.00000000000003</ele><time>2026-04-18T08:59:07Z</time></trkpt><trkpt lat="42.50721427311154" lon="11.50995594386442"><ele>210.0</ele><time>2026-04-18T08:59:08Z</time></trkpt><trkpt lat="42.50729463652783" lon="11.509881948243844"><ele>209.0</ele><time>2026-04-18T08:59:09Z</time></trkpt><trkpt lat="42.5073669792984" lon="11.509826414369797"><ele>208.0</ele><time>2026-04-18T08:59:10Z</time></trkpt><trkpt lat="42.507436889707016" lon="11.509767241632959"><ele>207.00000000000003</ele><time>2026-04-18T08:59:11Z</time></trkpt><trkpt lat="42.5075111716928" lon="11.509725117261164"><ele>206.0</ele><time>2026-04-18T08:59:12Z</time></trkpt><trkpt lat="42.50758428109445" lon="11.509702442849106"><ele>206.00000000000003</ele><time>2026-04-18T08:59:13Z</time></trkpt><trkpt lat="42.507657603153675" lon="11.50971489913668"><ele>206.0</ele><time>2026-04-18T08:59:14Z</time></trkpt><trkpt lat="42.507730086558894" lon="11.509724802594693"><ele>206.0</ele><time>2026-04-18T08:59:15Z</time></trkpt><trkpt lat="42.50780792420689" lon="11.509742161141745"><ele>206.0</ele><time>2026-04-18T08:59:16Z</time></trkpt><trkpt lat="42.50789074192524" lon="11.509767835506238"><ele>206.00000000000003</ele><time>2026-04-18T08:59:17Z</time></trkpt><trkpt lat="42.5079700031434" lon="11.509798740027627"><ele>206.0</ele><time>2026-04-18T08:59:18Z</time></trkpt><trkpt lat="42.508047840515935" lon="11.509838296961785"><ele>205.16666666666669</ele><time>2026-04-18T08:59:19Z</time></trkpt><trkpt lat="42.5081188773344" lon="11.509896010510754"><ele>204.33333333333334</ele><time>2026-04-18T08:59:20Z</time></trkpt><trkpt lat="42.50818719724077" lon="11.50996135910929"><ele>203.5</ele><time>2026-04-18T08:59:21Z</time></trkpt><trkpt lat="42.508256128114084" lon="11.510031805003255"><ele>202.66666666666669</ele><time>2026-04-18T08:59:22Z</time></trkpt><trkpt lat="42.50831789052953" lon="11.510109194027912"><ele>201.83333333333334</ele><time>2026-04-18T08:59:23Z</time></trkpt><trkpt lat="42.50838061052445" lon="11.51019960295457"><ele>201.0</ele><time>2026-04-18T08:59:24Z</time></trkpt><trkpt lat="42.508448962394596" lon="11.510283407623328"><ele>201.0</ele><time>2026-04-18T08:59:25Z</time></trkpt><trkpt lat="42.50851944678367" lon="11.510368358031863"><ele>201.0</ele><time>2026-04-18T08:59:26Z</time></trkpt><trkpt lat="42.50859170861019" lon="11.510448550161435"><ele>201.0</ele><time>2026-04-18T08:59:27Z</time></trkpt><trkpt lat="42.50866079096898" lon="11.510523873459949"><ele>201.0</ele><time>2026-04-18T08:59:27.999Z</time></trkpt><trkpt lat="42.50873553606923" lon="11.51060790103199"><ele>201.0</ele><time>2026-04-18T08:59:28.999Z</time></trkpt><trkpt lat="42.508822427286674" lon="11.510685404350385"><ele>199.4</ele><time>2026-04-18T08:59:29.999Z</time></trkpt><trkpt lat="42.50891466348033" lon="11.51075318041625"><ele>197.8</ele><time>2026-04-18T08:59:30.999Z</time></trkpt><trkpt lat="42.509009513325374" lon="11.510811293394914"><ele>196.20000000000002</ele><time>2026-04-18T08:59:31.999Z</time></trkpt><trkpt lat="42.50909904879289" lon="11.510883248022825"><ele>194.60000000000002</ele><time>2026-04-18T08:59:32.999Z</time></trkpt><trkpt lat="42.50920656309572" lon="11.510919527873792"><ele>193.0</ele><time>2026-04-18T08:59:33.999Z</time></trkpt><trkpt lat="42.50930586080021" lon="11.510972535946687"><ele>193.0</ele><time>2026-04-18T08:59:34.999Z</time></trkpt><trkpt lat="42.50940318447587" lon="11.511009670571681"><ele>193.0</ele><time>2026-04-18T08:59:35.999Z</time></trkpt><trkpt lat="42.50949557616087" lon="11.511047069395044"><ele>193.0</ele><time>2026-04-18T08:59:36.999Z</time></trkpt><trkpt lat="42.50958336132759" lon="11.511096912325238"><ele>193.0</ele><time>2026-04-18T08:59:37.999Z</time></trkpt><trkpt lat="42.50965692181637" lon="11.511157383696988"><ele>193.0</ele><time>2026-04-18T08:59:38.999Z</time></trkpt><trkpt lat="42.50969971718094" lon="11.5112546215797"><ele>191.2</ele><time>2026-04-18T08:59:39.999Z</time></trkpt><trkpt lat="42.509758941662085" lon="11.511332219260396"><ele>189.4</ele><time>2026-04-18T08:59:40.999Z</time></trkpt><trkpt lat="42.50982995535241" lon="11.511408928539685"><ele>187.6</ele><time>2026-04-18T08:59:41.999Z</time></trkpt><trkpt lat="42.509894864808174" lon="11.511515078812387"><ele>185.79999999999998</ele><time>2026-04-18T08:59:42.999Z</time></trkpt><trkpt lat="42.50996637434593" lon="11.511600068341233"><ele>184.0</ele><time>2026-04-18T08:59:43.999Z</time></trkpt><trkpt lat="42.51002871375357" lon="11.511680954089545"><ele>184.0</ele><time>2026-04-18T08:59:44.999Z</time></trkpt><trkpt lat="42.51008647542215" lon="11.511756385177087"><ele>184.0</ele><time>2026-04-18T08:59:45.999Z</time></trkpt><trkpt lat="42.510135036212766" lon="11.511831444994563"><ele>184.0</ele><time>2026-04-18T08:59:46.999Z</time></trkpt><trkpt lat="42.51018541742793" lon="11.511909830784983"><ele>184.0</ele><time>2026-04-18T08:59:47.999Z</time></trkpt><trkpt lat="42.510234275369484" lon="11.511977243478412"><ele>184.0</ele><time>2026-04-18T08:59:48.999Z</time></trkpt><trkpt lat="42.51030563711264" lon="11.5120950709903"><ele>184.0</ele><time>2026-04-18T08:59:50.999Z</time></trkpt><trkpt lat="42.510371839022284" lon="11.512167117564582"><ele>183.5</ele><time>2026-04-18T08:59:52.999Z</time></trkpt><trkpt lat="42.5104120717996" lon="11.512263473898424"><ele>183.0</ele><time>2026-04-18T08:59:55.999Z</time></trkpt><trkpt lat="42.51034930691244" lon="11.512343781570355"><ele>182.5</ele><time>2026-04-18T08:59:57.999Z</time></trkpt><trkpt lat="42.51029463226811" lon="11.512398212411266"><ele>182.0</ele><time>2026-04-18T08:59:58.999Z</time></trkpt><trkpt lat="42.51026016102228" lon="11.512511683027466"><ele>181.5</ele><time>2026-04-18T08:59:59.999Z</time></trkpt><trkpt lat="42.51020321438108" lon="11.512617550593514"><ele>181.0</ele><time>2026-04-18T09:00:00.999Z</time></trkpt><trkpt lat="42.51013354281202" lon="11.512738543153388"><ele>181.0</ele><time>2026-04-18T09:00:01.999Z</time></trkpt><trkpt lat="42.51006307861197" lon="11.512873336991085"><ele>181.0</ele><time>2026-04-18T09:00:02.999Z</time></trkpt><trkpt lat="42.50998634453057" lon="11.513020350803359"><ele>181.0</ele><time>2026-04-18T09:00:03.999Z</time></trkpt><trkpt lat="42.50990210612717" lon="11.513177928045778"><ele>181.0</ele><time>2026-04-18T09:00:04.999Z</time></trkpt><trkpt lat="42.50981587718159" lon="11.513350128797365"><ele>181.0</ele><time>2026-04-18T09:00:05.999Z</time></trkpt><trkpt lat="42.509715788383126" lon="11.513539505951606"><ele>181.0</ele><time>2026-04-18T09:00:06.999Z</time></trkpt><trkpt lat="42.50961358949931" lon="11.513735337336083"><ele>181.0</ele><time>2026-04-18T09:00:07.999Z</time></trkpt><trkpt lat="42.50950289796731" lon="11.513959226771755"><ele>180.0</ele><time>2026-04-18T09:00:08.999Z</time></trkpt><trkpt lat="42.509385354834045" lon="11.514181457788617"><ele>179.0</ele><time>2026-04-18T09:00:09.999Z</time></trkpt><trkpt lat="42.509292241135945" lon="11.514339675004823"><ele>178.0</ele><time>2026-04-18T09:00:10.999Z</time></trkpt><trkpt lat="42.50918603221403" lon="11.514540209522819"><ele>178.66666666666669</ele><time>2026-04-18T09:00:11.999Z</time></trkpt><trkpt lat="42.5090835630737" lon="11.514741439589148"><ele>179.33333333333334</ele><time>2026-04-18T09:00:12.999Z</time></trkpt><trkpt lat="42.50898881106714" lon="11.514931537641575"><ele>180.0</ele><time>2026-04-18T09:00:13.999Z</time></trkpt><trkpt lat="42.50889975585716" lon="11.515111043145698"><ele>180.0</ele><time>2026-04-18T09:00:14.999Z</time></trkpt><trkpt lat="42.5088010235863" lon="11.515265576167556"><ele>180.0</ele><time>2026-04-18T09:00:15.999Z</time></trkpt><trkpt lat="42.50871090861315" lon="11.515436984725156"><ele>180.0</ele><time>2026-04-18T09:00:16.999Z</time></trkpt><trkpt lat="42.50857635435766" lon="11.515724808416417"><ele>178.33333333333334</ele><time>2026-04-18T09:00:17.999Z</time></trkpt><trkpt lat="42.508474449411914" lon="11.51591735020094"><ele>176.66666666666669</ele><time>2026-04-18T09:00:18.999Z</time></trkpt><trkpt lat="42.50837062199744" lon="11.516111126956803"><ele>175.0</ele><time>2026-04-18T09:00:19.999Z</time></trkpt><trkpt lat="42.50826993318686" lon="11.516307108385606"><ele>175.0</ele><time>2026-04-18T09:00:20.999Z</time></trkpt><trkpt lat="42.508168078778745" lon="11.51649463200214"><ele>175.0</ele><time>2026-04-18T09:00:21.999Z</time></trkpt><trkpt lat="42.50806562837994" lon="11.516692183736644"><ele>175.0</ele><time>2026-04-18T09:00:22.999Z</time></trkpt><trkpt lat="42.50796285237245" lon="11.516879536195994"><ele>173.33333333333334</ele><time>2026-04-18T09:00:23.999Z</time></trkpt><trkpt lat="42.507859350781786" lon="11.517074876893242"><ele>171.66666666666666</ele><time>2026-04-18T09:00:24.999Z</time></trkpt><trkpt lat="42.50775536178895" lon="11.517271354657806"><ele>170.0</ele><time>2026-04-18T09:00:25.999Z</time></trkpt><trkpt lat="42.50764882580598" lon="11.517473421856868"><ele>170.0</ele><time>2026-04-18T09:00:26.999Z</time></trkpt><trkpt lat="42.507542442740665" lon="11.517682381936176"><ele>170.0</ele><time>2026-04-18T09:00:27.999Z</time></trkpt><trkpt lat="42.507437088395655" lon="11.517897004596316"><ele>170.0</ele><time>2026-04-18T09:00:28.999Z</time></trkpt><trkpt lat="42.50732778693123" lon="11.51810740562563"><ele>170.33333333333331</ele><time>2026-04-18T09:00:29.999Z</time></trkpt><trkpt lat="42.50721892594326" lon="11.518318615381695"><ele>170.66666666666666</ele><time>2026-04-18T09:00:30.999Z</time></trkpt><trkpt lat="42.50710846234195" lon="11.518524990083003"><ele>171.0</ele><time>2026-04-18T09:00:31.999Z</time></trkpt><trkpt lat="42.50699883061732" lon="11.518729577962727"><ele>170.66666666666666</ele><time>2026-04-18T09:00:32.999Z</time></trkpt><trkpt lat="42.50688112347066" lon="11.518914762548306"><ele>170.33333333333331</ele><time>2026-04-18T09:00:33.999Z</time></trkpt><trkpt lat="42.50676816433435" lon="11.51909719100783"><ele>170.0</ele><time>2026-04-18T09:00:34.999Z</time></trkpt><trkpt lat="42.50664911519128" lon="11.519273746802586"><ele>170.0</ele><time>2026-04-18T09:00:35.999Z</time></trkpt><trkpt lat="42.50653366074448" lon="11.519447181724335"><ele>170.0</ele><time>2026-04-18T09:00:36.999Z</time></trkpt><trkpt lat="42.50640531609703" lon="11.519610919095136"><ele>170.0</ele><time>2026-04-18T09:00:37.999Z</time></trkpt><trkpt lat="42.50627469419607" lon="11.519776050761502"><ele>170.33333333333331</ele><time>2026-04-18T09:00:38.999Z</time></trkpt><trkpt lat="42.50614537380765" lon="11.519935214662722"><ele>170.66666666666666</ele><time>2026-04-18T09:00:39.999Z</time></trkpt><trkpt lat="42.506003400489696" lon="11.520100385549277"><ele>171.0</ele><time>2026-04-18T09:00:40.999Z</time></trkpt><trkpt lat="42.50586596477227" lon="11.52027372542655"><ele>172.33333333333334</ele><time>2026-04-18T09:00:41.999Z</time></trkpt><trkpt lat="42.50572697133144" lon="11.520454201503602"><ele>173.66666666666669</ele><time>2026-04-18T09:00:42.999Z</time></trkpt><trkpt lat="42.50559023740552" lon="11.520628384943102"><ele>175.0</ele><time>2026-04-18T09:00:43.999Z</time></trkpt><trkpt lat="42.5054508222654" lon="11.520802311453252"><ele>174.0</ele><time>2026-04-18T09:00:44.999Z</time></trkpt><trkpt lat="42.50530754399976" lon="11.52097550708155"><ele>173.0</ele><time>2026-04-18T09:00:45.999Z</time></trkpt><trkpt lat="42.50516616308563" lon="11.521146265102285"><ele>172.0</ele><time>2026-04-18T09:00:46.999Z</time></trkpt><trkpt lat="42.50502875108648" lon="11.521316467897046"><ele>172.0</ele><time>2026-04-18T09:00:47.999Z</time></trkpt><trkpt lat="42.504895747750986" lon="11.521491169759802"><ele>172.0</ele><time>2026-04-18T09:00:48.999Z</time></trkpt><trkpt lat="42.50476079241989" lon="11.521669703154398"><ele>172.0</ele><time>2026-04-18T09:00:49.999Z</time></trkpt><trkpt lat="42.50463012954931" lon="11.521837956770828"><ele>170.66666666666669</ele><time>2026-04-18T09:00:50.999Z</time></trkpt><trkpt lat="42.50449891386066" lon="11.522002312216305"><ele>169.33333333333334</ele><time>2026-04-18T09:00:51.999Z</time></trkpt><trkpt lat="42.50436509937696" lon="11.522174128471411"><ele>168.0</ele><time>2026-04-18T09:00:52.999Z</time></trkpt><trkpt lat="42.50423657864958" lon="11.522340929489527"><ele>168.0</ele><time>2026-04-18T09:00:53.999Z</time></trkpt><trkpt lat="42.50410154722411" lon="11.522515411630767"><ele>168.0</ele><time>2026-04-18T09:00:54.999Z</time></trkpt><trkpt lat="42.503971910867165" lon="11.522680058976269"><ele>168.0</ele><time>2026-04-18T09:00:55.999Z</time></trkpt><trkpt lat="42.50383449744173" lon="11.522854604867764"><ele>166.66666666666666</ele><time>2026-04-18T09:00:56.999Z</time></trkpt><trkpt lat="42.503701462245395" lon="11.523027913544826"><ele>165.33333333333331</ele><time>2026-04-18T09:00:57.999Z</time></trkpt><trkpt lat="42.50356670795884" lon="11.523201731714863"><ele>164.0</ele><time>2026-04-18T09:00:58.999Z</time></trkpt><trkpt lat="42.503426734080136" lon="11.523380773982629"><ele>164.0</ele><time>2026-04-18T09:00:59.999Z</time></trkpt><trkpt lat="42.50327658969247" lon="11.523544789008332"><ele>164.0</ele><time>2026-04-18T09:01:00.999Z</time></trkpt><trkpt lat="42.50314583171317" lon="11.523737299597983"><ele>164.0</ele><time>2026-04-18T09:01:01.999Z</time></trkpt><trkpt lat="42.50300691265781" lon="11.52391402312593"><ele>165.33333333333331</ele><time>2026-04-18T09:01:02.999Z</time></trkpt><trkpt lat="42.50286606225887" lon="11.524089902831577"><ele>166.66666666666666</ele><time>2026-04-18T09:01:03.999Z</time></trkpt><trkpt lat="42.50272848991525" lon="11.524265938496423"><ele>168.0</ele><time>2026-04-18T09:01:04.999Z</time></trkpt><trkpt lat="42.50258831748119" lon="11.52444415441368"><ele>168.0</ele><time>2026-04-18T09:01:05.999Z</time></trkpt><trkpt lat="42.50244391628947" lon="11.524616666560403"><ele>168.0</ele><time>2026-04-18T09:01:06.999Z</time></trkpt><trkpt lat="42.50230324654555" lon="11.524788046640838"><ele>168.0</ele><time>2026-04-18T09:01:07.999Z</time></trkpt><trkpt lat="42.50216537490907" lon="11.524963203207095"><ele>166.66666666666666</ele><time>2026-04-18T09:01:08.999Z</time></trkpt><trkpt lat="42.50202645386818" lon="11.525146378222884"><ele>165.33333333333331</ele><time>2026-04-18T09:01:10Z</time></trkpt><trkpt lat="42.50189301547777" lon="11.525329194984328"><ele>164.0</ele><time>2026-04-18T09:01:11Z</time></trkpt><trkpt lat="42.50176642733335" lon="11.52551684029465"><ele>164.0</ele><time>2026-04-18T09:01:12Z</time></trkpt><trkpt lat="42.50164813882326" lon="11.525714204896843"><ele>164.0</ele><time>2026-04-18T09:01:13Z</time></trkpt><trkpt lat="42.50153619191507" lon="11.52591803749187"><ele>164.0</ele><time>2026-04-18T09:01:14Z</time></trkpt><trkpt lat="42.50143139313449" lon="11.526131422936642"><ele>163.33333333333331</ele><time>2026-04-18T09:01:15Z</time></trkpt><trkpt lat="42.50132736817711" lon="11.52634551201985"><ele>162.66666666666666</ele><time>2026-04-18T09:01:16Z</time></trkpt><trkpt lat="42.50121065665069" lon="11.526543697724911"><ele>162.0</ele><time>2026-04-18T09:01:17Z</time></trkpt><trkpt lat="42.50114165243848" lon="11.526770925329268"><ele>162.0</ele><time>2026-04-18T09:01:18Z</time></trkpt><trkpt lat="42.50108414745535" lon="11.526996415544906"><ele>162.0</ele><time>2026-04-18T09:01:19Z</time></trkpt><trkpt lat="42.50105388914258" lon="11.527237891972673"><ele>162.0</ele><time>2026-04-18T09:01:20Z</time></trkpt><trkpt lat="42.501048997453076" lon="11.527478016210233"><ele>161.33333333333334</ele><time>2026-04-18T09:01:21Z</time></trkpt><trkpt lat="42.501043875287905" lon="11.527709635104813"><ele>160.66666666666669</ele><time>2026-04-18T09:01:22Z</time></trkpt><trkpt lat="42.50101857541159" lon="11.527935789244447"><ele>160.0</ele><time>2026-04-18T09:01:23Z</time></trkpt><trkpt lat="42.501019209257905" lon="11.528162988312866"><ele>158.66666666666669</ele><time>2026-04-18T09:01:24Z</time></trkpt><trkpt lat="42.50100118340183" lon="11.528393913007665"><ele>157.33333333333334</ele><time>2026-04-18T09:01:25Z</time></trkpt><trkpt lat="42.500983636812514" lon="11.528611691123931"><ele>156.0</ele><time>2026-04-18T09:01:26Z</time></trkpt><trkpt lat="42.500971760332824" lon="11.528813299188794"><ele>156.0</ele><time>2026-04-18T09:01:27Z</time></trkpt><trkpt lat="42.500949101426464" lon="11.529001471660354"><ele>156.0</ele><time>2026-04-18T09:01:28Z</time></trkpt><trkpt lat="42.50088712771935" lon="11.529177915757916"><ele>156.0</ele><time>2026-04-18T09:01:29Z</time></trkpt><trkpt lat="42.500834197322206" lon="11.529362222447038"><ele>156.0</ele><time>2026-04-18T09:01:30Z</time></trkpt><trkpt lat="42.50075683970393" lon="11.529533743334593"><ele>157.33333333333334</ele><time>2026-04-18T09:01:31Z</time></trkpt><trkpt lat="42.50068382278092" lon="11.529714267566865"><ele>158.66666666666669</ele><time>2026-04-18T09:01:32Z</time></trkpt><trkpt lat="42.5006097277452" lon="11.529902263576295"><ele>160.0</ele><time>2026-04-18T09:01:33Z</time></trkpt><trkpt lat="42.50052935862346" lon="11.53008703402433"><ele>160.0</ele><time>2026-04-18T09:01:34Z</time></trkpt><trkpt lat="42.50044673278214" lon="11.530268725605326"><ele>160.0</ele><time>2026-04-18T09:01:35Z</time></trkpt><trkpt lat="42.50036627001042" lon="11.530460656849389"><ele>160.0</ele><time>2026-04-18T09:01:36Z</time></trkpt><trkpt lat="42.50028822678151" lon="11.530649035734099"><ele>159.0</ele><time>2026-04-18T09:01:37Z</time></trkpt><trkpt lat="42.5002073855583" lon="11.530843817327668"><ele>158.0</ele><time>2026-04-18T09:01:37.999Z</time></trkpt><trkpt lat="42.5001260641139" lon="11.53103789185909"><ele>157.0</ele><time>2026-04-18T09:01:38.999Z</time></trkpt><trkpt lat="42.500043650059204" lon="11.5312432754985"><ele>157.0</ele><time>2026-04-18T09:01:39.999Z</time></trkpt><trkpt lat="42.49995880371252" lon="11.531460368059456"><ele>157.0</ele><time>2026-04-18T09:01:40.999Z</time></trkpt><trkpt lat="42.49986409494959" lon="11.531675274610155"><ele>157.0</ele><time>2026-04-18T09:01:41.999Z</time></trkpt><trkpt lat="42.49976579271007" lon="11.531878461253436"><ele>156.33333333333334</ele><time>2026-04-18T09:01:42.999Z</time></trkpt><trkpt lat="42.49965985674549" lon="11.532071391883358"><ele>155.66666666666666</ele><time>2026-04-18T09:01:43.999Z</time></trkpt><trkpt lat="42.49955814461467" lon="11.532249626517828"><ele>155.0</ele><time>2026-04-18T09:01:44.999Z</time></trkpt><trkpt lat="42.49946137253627" lon="11.532426739552848"><ele>155.0</ele><time>2026-04-18T09:01:45.999Z</time></trkpt><trkpt lat="42.499363831336126" lon="11.53261183056531"><ele>155.0</ele><time>2026-04-18T09:01:46.999Z</time></trkpt><trkpt lat="42.49926168429654" lon="11.532790770707928"><ele>155.0</ele><time>2026-04-18T09:01:47.999Z</time></trkpt><trkpt lat="42.49916161785739" lon="11.532971229992445"><ele>155.33333333333331</ele><time>2026-04-18T09:01:48.999Z</time></trkpt><trkpt lat="42.499059649016736" lon="11.533143252217847"><ele>155.66666666666666</ele><time>2026-04-18T09:01:49.999Z</time></trkpt><trkpt lat="42.49896732229073" lon="11.533320285145551"><ele>156.0</ele><time>2026-04-18T09:01:50.999Z</time></trkpt><trkpt lat="42.4988851673435" lon="11.533464254126898"><ele>156.0</ele><time>2026-04-18T09:01:51.999Z</time></trkpt><trkpt lat="42.49882070219905" lon="11.533579441731872"><ele>156.0</ele><time>2026-04-18T09:01:52.999Z</time></trkpt><trkpt lat="42.49877808297693" lon="11.533673141948904"><ele>156.0</ele><time>2026-04-18T09:01:53.999Z</time></trkpt><trkpt lat="42.498743237774406" lon="11.533744643425504"><ele>156.0</ele><time>2026-04-18T09:01:54.999Z</time></trkpt><trkpt lat="42.49869992105304" lon="11.533842040047736"><ele>156.0</ele><time>2026-04-18T09:01:56.999Z</time></trkpt><trkpt lat="42.49866144429584" lon="11.53391546588894"><ele>156.0</ele><time>2026-04-18T09:02:43.999Z</time></trkpt><trkpt lat="42.498630410302596" lon="11.534002684999667"><ele>156.0</ele><time>2026-04-18T09:03:31Z</time></trkpt><trkpt lat="42.498584482278495" lon="11.53411151085598"><ele>156.0</ele><time>2026-04-18T09:03:34Z</time></trkpt><trkpt lat="42.4985532202836" lon="11.534194873831654"><ele>156.0</ele><time>2026-04-18T09:03:36Z</time></trkpt><trkpt lat="42.49849438808461" lon="11.534304397654434"><ele>156.0</ele><time>2026-04-18T09:03:38Z</time></trkpt><trkpt lat="42.49845071859274" lon="11.53440846583651"><ele>156.0</ele><time>2026-04-18T09:03:40Z</time></trkpt><trkpt lat="42.49840712135682" lon="11.534510964793977"><ele>156.0</ele><time>2026-04-18T09:03:42Z</time></trkpt><trkpt lat="42.498359750995526" lon="11.534621911778443"><ele>156.0</ele><time>2026-04-18T09:03:44Z</time></trkpt><trkpt lat="42.498306157917824" lon="11.534761045406889"><ele>156.0</ele><time>2026-04-18T09:03:46Z</time></trkpt><trkpt lat="42.49827017944305" lon="11.534844059590364"><ele>156.0</ele><time>2026-04-18T09:03:47Z</time></trkpt><trkpt lat="42.498228663268115" lon="11.534937250949028"><ele>156.0</ele><time>2026-04-18T09:03:48Z</time></trkpt><trkpt lat="42.498186455215695" lon="11.535037722010903"><ele>156.0</ele><time>2026-04-18T09:03:49Z</time></trkpt><trkpt lat="42.49814101287418" lon="11.535151667898461"><ele>156.0</ele><time>2026-04-18T09:03:50Z</time></trkpt><trkpt lat="42.498089926878706" lon="11.535280350866303"><ele>157.0</ele><time>2026-04-18T09:03:51Z</time></trkpt><trkpt lat="42.49803318834599" lon="11.535424344655205"><ele>158.0</ele><time>2026-04-18T09:03:52Z</time></trkpt><trkpt lat="42.49797483397128" lon="11.535569097892022"><ele>159.0</ele><time>2026-04-18T09:03:53Z</time></trkpt><trkpt lat="42.49791750316368" lon="11.535714216484507"><ele>160.0</ele><time>2026-04-18T09:03:54Z</time></trkpt><trkpt lat="42.49785709553046" lon="11.535870261738765"><ele>156.5</ele><time>2026-04-18T09:03:55Z</time></trkpt><trkpt lat="42.497796924385675" lon="11.536034983958242"><ele>153.0</ele><time>2026-04-18T09:03:56Z</time></trkpt><trkpt lat="42.49773509236339" lon="11.536204544583851"><ele>149.5</ele><time>2026-04-18T09:03:56.999Z</time></trkpt><trkpt lat="42.49767633703776" lon="11.536375789724751"><ele>146.0</ele><time>2026-04-18T09:03:57.999Z</time></trkpt><trkpt lat="42.49762204625692" lon="11.536539764430259"><ele>146.0</ele><time>2026-04-18T09:03:58.999Z</time></trkpt><trkpt lat="42.49757330118677" lon="11.536712582979426"><ele>146.0</ele><time>2026-04-18T09:03:59.999Z</time></trkpt><trkpt lat="42.49752434459022" lon="11.536895995819588"><ele>146.0</ele><time>2026-04-18T09:04:00.999Z</time></trkpt><trkpt lat="42.49745975835967" lon="11.537079189056357"><ele>146.0</ele><time>2026-04-18T09:04:01.999Z</time></trkpt><trkpt lat="42.497404642616615" lon="11.537273649676845"><ele>147.33333333333331</ele><time>2026-04-18T09:04:02.999Z</time></trkpt><trkpt lat="42.497359438796124" lon="11.537479033862203"><ele>148.66666666666666</ele><time>2026-04-18T09:04:03.999Z</time></trkpt><trkpt lat="42.497288610573285" lon="11.53768439961826"><ele>150.0</ele><time>2026-04-18T09:04:04.999Z</time></trkpt><trkpt lat="42.49721047565003" lon="11.537903588458933"><ele>151.0</ele><time>2026-04-18T09:04:05.999Z</time></trkpt><trkpt lat="42.497131434643826" lon="11.538126298241625"><ele>152.0</ele><time>2026-04-18T09:04:06.999Z</time></trkpt><trkpt lat="42.497056878196005" lon="11.538347102097168"><ele>153.0</ele><time>2026-04-18T09:04:07.999Z</time></trkpt><trkpt lat="42.49698080534667" lon="11.538565855492646"><ele>149.66666666666666</ele><time>2026-04-18T09:04:08.999Z</time></trkpt><trkpt lat="42.496901949190125" lon="11.538785052052608"><ele>146.33333333333331</ele><time>2026-04-18T09:04:09.999Z</time></trkpt><trkpt lat="42.496826714784696" lon="11.538999844129666"><ele>143.0</ele><time>2026-04-18T09:04:10.999Z</time></trkpt><trkpt lat="42.49675632925917" lon="11.539205572910582"><ele>143.0</ele><time>2026-04-18T09:04:11.999Z</time></trkpt><trkpt lat="42.49668667977841" lon="11.539407397456186"><ele>143.0</ele><time>2026-04-18T09:04:12.999Z</time></trkpt><trkpt lat="42.49661249083407" lon="11.539601632848303"><ele>143.0</ele><time>2026-04-18T09:04:13.999Z</time></trkpt><trkpt lat="42.49653638705145" lon="11.539790065417654"><ele>143.33333333333331</ele><time>2026-04-18T09:04:14.999Z</time></trkpt><trkpt lat="42.49644545897215" lon="11.539973431417563"><ele>143.66666666666666</ele><time>2026-04-18T09:04:15.999Z</time></trkpt><trkpt lat="42.496324236032585" lon="11.540118823431605"><ele>144.0</ele><time>2026-04-18T09:04:16.999Z</time></trkpt><trkpt lat="42.496194659850175" lon="11.540258885534612"><ele>146.0</ele><time>2026-04-18T09:04:17.999Z</time></trkpt><trkpt lat="42.496065719786664" lon="11.540404143889942"><ele>148.0</ele><time>2026-04-18T09:04:18.999Z</time></trkpt><trkpt lat="42.49592490781097" lon="11.540532676405114"><ele>150.0</ele><time>2026-04-18T09:04:19.999Z</time></trkpt><trkpt lat="42.495781940864035" lon="11.540669036030298"><ele>150.0</ele><time>2026-04-18T09:04:20.999Z</time></trkpt><trkpt lat="42.495643576371116" lon="11.540811027980698"><ele>150.0</ele><time>2026-04-18T09:04:21.999Z</time></trkpt><trkpt lat="42.495501858527035" lon="11.540955703998048"><ele>150.0</ele><time>2026-04-18T09:04:22.999Z</time></trkpt><trkpt lat="42.49535870957323" lon="11.541102439706709"><ele>149.33333333333334</ele><time>2026-04-18T09:04:23.999Z</time></trkpt><trkpt lat="42.49521421541128" lon="11.541250462296981"><ele>148.66666666666669</ele><time>2026-04-18T09:04:24.999Z</time></trkpt><trkpt lat="42.49506920578981" lon="11.541398712576129"><ele>148.0</ele><time>2026-04-18T09:04:25.999Z</time></trkpt><trkpt lat="42.49492250139126" lon="11.541547993960116"><ele>148.0</ele><time>2026-04-18T09:04:26.999Z</time></trkpt><trkpt lat="42.494776034513244" lon="11.541693366004475"><ele>148.0</ele><time>2026-04-18T09:04:27.999Z</time></trkpt><trkpt lat="42.49463386540684" lon="11.541849791552547"><ele>148.0</ele><time>2026-04-18T09:04:28.999Z</time></trkpt><trkpt lat="42.49449813709155" lon="11.542017192092732"><ele>145.66666666666669</ele><time>2026-04-18T09:04:29.999Z</time></trkpt><trkpt lat="42.494372920768896" lon="11.542197277665748"><ele>143.33333333333334</ele><time>2026-04-18T09:04:30.999Z</time></trkpt><trkpt lat="42.4942493778186" lon="11.54238513703762"><ele>141.0</ele><time>2026-04-18T09:04:31.999Z</time></trkpt><trkpt lat="42.49413298542144" lon="11.542566859483927"><ele>141.0</ele><time>2026-04-18T09:04:32.999Z</time></trkpt><trkpt lat="42.49400345586782" lon="11.54275283834292"><ele>141.0</ele><time>2026-04-18T09:04:33.999Z</time></trkpt><trkpt lat="42.49388287871081" lon="11.542930688877089"><ele>141.0</ele><time>2026-04-18T09:04:34.999Z</time></trkpt><trkpt lat="42.49375811250896" lon="11.543113026234275"><ele>139.66666666666666</ele><time>2026-04-18T09:04:35.999Z</time></trkpt><trkpt lat="42.49364154511919" lon="11.543287904328889"><ele>138.33333333333331</ele><time>2026-04-18T09:04:36.999Z</time></trkpt><trkpt lat="42.49352672297939" lon="11.543470833769376"><ele>137.0</ele><time>2026-04-18T09:04:37.999Z</time></trkpt><trkpt lat="42.493414250933654" lon="11.543647566759322"><ele>139.0</ele><time>2026-04-18T09:04:38.999Z</time></trkpt><trkpt lat="42.49330112610777" lon="11.543818507910556"><ele>141.0</ele><time>2026-04-18T09:04:39.999Z</time></trkpt><trkpt lat="42.493189451794436" lon="11.54398744163924"><ele>143.0</ele><time>2026-04-18T09:04:40.999Z</time></trkpt><trkpt lat="42.49305707313592" lon="11.54411502549986"><ele>141.66666666666666</ele><time>2026-04-18T09:04:41.999Z</time></trkpt><trkpt lat="42.49290774340517" lon="11.544209233759972"><ele>140.33333333333334</ele><time>2026-04-18T09:04:42.999Z</time></trkpt><trkpt lat="42.49274604369643" lon="11.544263368541692"><ele>139.0</ele><time>2026-04-18T09:04:43.999Z</time></trkpt><trkpt lat="42.49257610962607" lon="11.54431084147621"><ele>139.0</ele><time>2026-04-18T09:04:44.999Z</time></trkpt><trkpt lat="42.49241125110047" lon="11.544370742812015"><ele>139.0</ele><time>2026-04-18T09:04:45.999Z</time></trkpt><trkpt lat="42.49224274970191" lon="11.54441845682534"><ele>139.0</ele><time>2026-04-18T09:04:46.999Z</time></trkpt><trkpt lat="42.49207813608586" lon="11.544468024279482"><ele>140.0</ele><time>2026-04-18T09:04:47.999Z</time></trkpt><trkpt lat="42.49192137939544" lon="11.544511815308198"><ele>141.0</ele><time>2026-04-18T09:04:48.999Z</time></trkpt><trkpt lat="42.49176382573333" lon="11.544568382818678"><ele>142.0</ele><time>2026-04-18T09:04:49.999Z</time></trkpt><trkpt lat="42.491616579720024" lon="11.544656182799242"><ele>142.0</ele><time>2026-04-18T09:04:50.999Z</time></trkpt><trkpt lat="42.49148632165456" lon="11.544801073567221"><ele>142.0</ele><time>2026-04-18T09:04:51.999Z</time></trkpt><trkpt lat="42.491366348303444" lon="11.544978608678578"><ele>142.0</ele><time>2026-04-18T09:04:52.999Z</time></trkpt><trkpt lat="42.49124411774747" lon="11.545162667751338"><ele>140.0</ele><time>2026-04-18T09:04:53.999Z</time></trkpt><trkpt lat="42.4911054690993" lon="11.545313387308784"><ele>138.0</ele><time>2026-04-18T09:04:54.999Z</time></trkpt><trkpt lat="42.490983641405265" lon="11.545499571444978"><ele>136.0</ele><time>2026-04-18T09:04:55.999Z</time></trkpt><trkpt lat="42.49084694668949" lon="11.545674020295591"><ele>136.0</ele><time>2026-04-18T09:04:56.999Z</time></trkpt><trkpt lat="42.49071471217641" lon="11.545838440866609"><ele>136.0</ele><time>2026-04-18T09:04:57.999Z</time></trkpt><trkpt lat="42.490576742636726" lon="11.546015026166794"><ele>136.0</ele><time>2026-04-18T09:04:58.999Z</time></trkpt><trkpt lat="42.49043740664941" lon="11.546196908838187"><ele>135.33333333333334</ele><time>2026-04-18T09:04:59.999Z</time></trkpt><trkpt lat="42.49029963436282" lon="11.54637495998473"><ele>134.66666666666666</ele><time>2026-04-18T09:05:00.999Z</time></trkpt><trkpt lat="42.490160830722736" lon="11.546543625587022"><ele>134.0</ele><time>2026-04-18T09:05:01.999Z</time></trkpt><trkpt lat="42.49002344866431" lon="11.54671153749539"><ele>134.0</ele><time>2026-04-18T09:05:02.999Z</time></trkpt><trkpt lat="42.48988852922689" lon="11.546888988667282"><ele>134.0</ele><time>2026-04-18T09:05:03.999Z</time></trkpt><trkpt lat="42.48975180031184" lon="11.54707390022958"><ele>134.0</ele><time>2026-04-18T09:05:04.999Z</time></trkpt><trkpt lat="42.489617712843504" lon="11.547251792731844"><ele>133.33333333333331</ele><time>2026-04-18T09:05:05.999Z</time></trkpt><trkpt lat="42.48948116511814" lon="11.54742913019025"><ele>132.66666666666666</ele><time>2026-04-18T09:05:06.999Z</time></trkpt><trkpt lat="42.48934722553218" lon="11.547601940991644"><ele>132.0</ele><time>2026-04-18T09:05:07.999Z</time></trkpt><trkpt lat="42.48921365354329" lon="11.547769485526771"><ele>132.66666666666666</ele><time>2026-04-18T09:05:08.999Z</time></trkpt><trkpt lat="42.489079591064545" lon="11.547941668125327"><ele>133.33333333333331</ele><time>2026-04-18T09:05:09.999Z</time></trkpt><trkpt lat="42.488945151036454" lon="11.548116140250007"><ele>134.0</ele><time>2026-04-18T09:05:10.999Z</time></trkpt><trkpt lat="42.488816777528456" lon="11.548280715790582"><ele>134.0</ele><time>2026-04-18T09:05:11.999Z</time></trkpt><trkpt lat="42.48868159198195" lon="11.54845800874418"><ele>134.0</ele><time>2026-04-18T09:05:12.999Z</time></trkpt><trkpt lat="42.488552576399655" lon="11.548624079307302"><ele>134.0</ele><time>2026-04-18T09:05:13.999Z</time></trkpt><trkpt lat="42.488415210974125" lon="11.548797163633871"><ele>134.0</ele><time>2026-04-18T09:05:14.999Z</time></trkpt><trkpt lat="42.48828479865049" lon="11.548965602525909"><ele>134.0</ele><time>2026-04-18T09:05:15.999Z</time></trkpt><trkpt lat="42.48814961244785" lon="11.549139681388498"><ele>134.0</ele><time>2026-04-18T09:05:16.999Z</time></trkpt><trkpt lat="42.488010788550355" lon="11.549310121545687"><ele>132.33333333333331</ele><time>2026-04-18T09:05:17.999Z</time></trkpt><trkpt lat="42.48788130784966" lon="11.549482479367308"><ele>130.66666666666666</ele><time>2026-04-18T09:05:18.999Z</time></trkpt><trkpt lat="42.48774492403888" lon="11.549653850776032"><ele>129.0</ele><time>2026-04-18T09:05:19.999Z</time></trkpt><trkpt lat="42.48760810613104" lon="11.5498247660195"><ele>129.0</ele><time>2026-04-18T09:05:20.999Z</time></trkpt><trkpt lat="42.48747118572808" lon="11.54999430035349"><ele>129.0</ele><time>2026-04-18T09:05:22Z</time></trkpt><trkpt lat="42.48732180658351" lon="11.55013739476353"><ele>129.0</ele><time>2026-04-18T09:05:23Z</time></trkpt><trkpt lat="42.48717289650549" lon="11.55028894718363"><ele>130.0</ele><time>2026-04-18T09:05:24Z</time></trkpt><trkpt lat="42.487039052268926" lon="11.5504486921403"><ele>131.0</ele><time>2026-04-18T09:05:25Z</time></trkpt><trkpt lat="42.48688721800718" lon="11.550590109605443"><ele>132.0</ele><time>2026-04-18T09:05:26Z</time></trkpt><trkpt lat="42.48673476802674" lon="11.55071755375607"><ele>132.0</ele><time>2026-04-18T09:05:27Z</time></trkpt><trkpt lat="42.48659140093907" lon="11.55088121664151"><ele>132.0</ele><time>2026-04-18T09:05:28Z</time></trkpt><trkpt lat="42.48644638200399" lon="11.551023275770085"><ele>132.0</ele><time>2026-04-18T09:05:29Z</time></trkpt><trkpt lat="42.486298323931095" lon="11.551170206217426"><ele>133.0</ele><time>2026-04-18T09:05:30Z</time></trkpt><trkpt lat="42.48614765925029" lon="11.55129267579711"><ele>134.0</ele><time>2026-04-18T09:05:31Z</time></trkpt><trkpt lat="42.48600785469135" lon="11.551451678719904"><ele>135.0</ele><time>2026-04-18T09:05:32Z</time></trkpt><trkpt lat="42.485862755672144" lon="11.551592440743784"><ele>135.0</ele><time>2026-04-18T09:05:33Z</time></trkpt><trkpt lat="42.48572895188692" lon="11.551739406813669"><ele>135.0</ele><time>2026-04-18T09:05:34Z</time></trkpt><trkpt lat="42.48559674524327" lon="11.551896698465221"><ele>135.0</ele><time>2026-04-18T09:05:35Z</time></trkpt><trkpt lat="42.48547624453967" lon="11.552071504337627"><ele>134.0</ele><time>2026-04-18T09:05:36Z</time></trkpt><trkpt lat="42.485381352361" lon="11.55226684052767"><ele>133.0</ele><time>2026-04-18T09:05:37Z</time></trkpt><trkpt lat="42.485303734070975" lon="11.552473901366545"><ele>132.0</ele><time>2026-04-18T09:05:38Z</time></trkpt><trkpt lat="42.48524614447124" lon="11.552691207450323"><ele>134.33333333333334</ele><time>2026-04-18T09:05:39Z</time></trkpt><trkpt lat="42.48519785417365" lon="11.552915679898664"><ele>136.66666666666669</ele><time>2026-04-18T09:05:40Z</time></trkpt><trkpt lat="42.48514853636597" lon="11.553140808658641"><ele>139.0</ele><time>2026-04-18T09:05:41Z</time></trkpt><trkpt lat="42.48510521116729" lon="11.553354613422703"><ele>139.0</ele><time>2026-04-18T09:05:42Z</time></trkpt><trkpt lat="42.48505831660631" lon="11.553564550407799"><ele>139.0</ele><time>2026-04-18T09:05:43Z</time></trkpt><trkpt lat="42.485009812244016" lon="11.55376510749098"><ele>139.0</ele><time>2026-04-18T09:05:44Z</time></trkpt><trkpt lat="42.484953615681654" lon="11.553960441542802"><ele>141.0</ele><time>2026-04-18T09:05:45Z</time></trkpt><trkpt lat="42.48488836698694" lon="11.554161843194382"><ele>143.0</ele><time>2026-04-18T09:05:46Z</time></trkpt><trkpt lat="42.484797378347956" lon="11.55435053148209"><ele>145.0</ele><time>2026-04-18T09:05:47Z</time></trkpt><trkpt lat="42.48470928313779" lon="11.554543732724468"><ele>145.0</ele><time>2026-04-18T09:05:48Z</time></trkpt><trkpt lat="42.48461450496295" lon="11.554727769005286"><ele>145.0</ele><time>2026-04-18T09:05:49Z</time></trkpt><trkpt lat="42.484510749532255" lon="11.554899991143476"><ele>145.0</ele><time>2026-04-18T09:05:50Z</time></trkpt><trkpt lat="42.48440050928843" lon="11.555055781115112"><ele>145.0</ele><time>2026-04-18T09:05:51Z</time></trkpt><trkpt lat="42.48428769944625" lon="11.555195876072526"><ele>145.0</ele><time>2026-04-18T09:05:52Z</time></trkpt><trkpt lat="42.48419905694293" lon="11.555319586923936"><ele>145.0</ele><time>2026-04-18T09:05:53Z</time></trkpt><trkpt lat="42.48411293032697" lon="11.555398547416612"><ele>145.0</ele><time>2026-04-18T09:05:54Z</time></trkpt><trkpt lat="42.484042964296556" lon="11.555457785904192"><ele>144.75</ele><time>2026-04-18T09:05:55Z</time></trkpt><trkpt lat="42.48394303236443" lon="11.555483386833636"><ele>144.5</ele><time>2026-04-18T09:05:56.999Z</time></trkpt><trkpt lat="42.483853227719514" lon="11.555487470008554"><ele>144.25</ele><time>2026-04-18T09:05:58.999Z</time></trkpt><trkpt lat="42.48374722861247" lon="11.555196082249742"><ele>144.0</ele><time>2026-04-18T09:06:00.999Z</time></trkpt><trkpt lat="42.48370166220263" lon="11.555096061662372"><ele>144.5</ele><time>2026-04-18T09:06:01.999Z</time></trkpt><trkpt lat="42.48365032343116" lon="11.554986204482155"><ele>145.0</ele><time>2026-04-18T09:06:02.999Z</time></trkpt><trkpt lat="42.48359848931485" lon="11.554890508201527"><ele>145.5</ele><time>2026-04-18T09:06:03.999Z</time></trkpt><trkpt lat="42.483545768882344" lon="11.554808254101902"><ele>146.0</ele><time>2026-04-18T09:06:04.999Z</time></trkpt><trkpt lat="42.48348953912138" lon="11.554737945855663"><ele>146.5</ele><time>2026-04-18T09:06:05.999Z</time></trkpt><trkpt lat="42.48341709878222" lon="11.554683552746905"><ele>147.0</ele><time>2026-04-18T09:06:06.999Z</time></trkpt><trkpt lat="42.483336265547834" lon="11.554653074452707"><ele>147.0</ele><time>2026-04-18T09:06:07.999Z</time></trkpt><trkpt lat="42.48324159110849" lon="11.554638332038298"><ele>147.0</ele><time>2026-04-18T09:06:08.999Z</time></trkpt><trkpt lat="42.48314068172182" lon="11.554581288664739"><ele>147.0</ele><time>2026-04-18T09:06:09.999Z</time></trkpt><trkpt lat="42.483041743084435" lon="11.55454433887624"><ele>147.0</ele><time>2026-04-18T09:06:10.999Z</time></trkpt><trkpt lat="42.48295069643743" lon="11.554506778492085"><ele>147.0</ele><time>2026-04-18T09:06:11.999Z</time></trkpt><trkpt lat="42.482866332968506" lon="11.55446979018838"><ele>144.79999999999998</ele><time>2026-04-18T09:06:12.999Z</time></trkpt><trkpt lat="42.48277411672064" lon="11.554427426508127"><ele>142.6</ele><time>2026-04-18T09:06:13.999Z</time></trkpt><trkpt lat="42.482678688445574" lon="11.554408676298634"><ele>140.39999999999998</ele><time>2026-04-18T09:06:14.999Z</time></trkpt><trkpt lat="42.482582726133344" lon="11.55436323412306"><ele>138.2</ele><time>2026-04-18T09:06:15.999Z</time></trkpt><trkpt lat="42.48247602934705" lon="11.554320903125467"><ele>136.0</ele><time>2026-04-18T09:06:16.999Z</time></trkpt><trkpt lat="42.48236712797437" lon="11.554291645769743"><ele>136.0</ele><time>2026-04-18T09:06:17.999Z</time></trkpt><trkpt lat="42.482272097087055" lon="11.554282984825594"><ele>136.0</ele><time>2026-04-18T09:06:18.999Z</time></trkpt><trkpt lat="42.4821711212649" lon="11.554297028793451"><ele>136.0</ele><time>2026-04-18T09:06:19.999Z</time></trkpt><trkpt lat="42.482077485332994" lon="11.554300784736567"><ele>136.0</ele><time>2026-04-18T09:06:20.999Z</time></trkpt><trkpt lat="42.48198392678132" lon="11.554318824475628"><ele>136.0</ele><time>2026-04-18T09:06:21.999Z</time></trkpt><trkpt lat="42.481889501604726" lon="11.554334326507773"><ele>134.5</ele><time>2026-04-18T09:06:22.999Z</time></trkpt><trkpt lat="42.481779422438684" lon="11.5543647430958"><ele>133.0</ele><time>2026-04-18T09:06:23.999Z</time></trkpt><trkpt lat="42.48165194447031" lon="11.554382866491833"><ele>131.5</ele><time>2026-04-18T09:06:24.999Z</time></trkpt><trkpt lat="42.48152935552909" lon="11.554378846580894"><ele>130.0</ele><time>2026-04-18T09:06:25.999Z</time></trkpt><trkpt lat="42.48142633181706" lon="11.554412225478229"><ele>130.0</ele><time>2026-04-18T09:06:26.999Z</time></trkpt><trkpt lat="42.481329159110736" lon="11.554402561309267"><ele>130.0</ele><time>2026-04-18T09:06:27.999Z</time></trkpt><trkpt lat="42.48123175745259" lon="11.554414536269222"><ele>130.0</ele><time>2026-04-18T09:06:28.999Z</time></trkpt><trkpt lat="42.48113080345667" lon="11.554426947969672"><ele>130.0</ele><time>2026-04-18T09:06:29.999Z</time></trkpt><trkpt lat="42.48104087293616" lon="11.554436996594314"><ele>130.0</ele><time>2026-04-18T09:06:30.999Z</time></trkpt><trkpt lat="42.480944517584796" lon="11.55444505917194"><ele>129.0</ele><time>2026-04-18T09:06:31.999Z</time></trkpt><trkpt lat="42.48084502635738" lon="11.554452219802915"><ele>128.0</ele><time>2026-04-18T09:06:32.999Z</time></trkpt><trkpt lat="42.48074961097114" lon="11.554453118323504"><ele>127.0</ele><time>2026-04-18T09:06:33.999Z</time></trkpt><trkpt lat="42.48066079162198" lon="11.55444771388971"><ele>126.0</ele><time>2026-04-18T09:06:34.999Z</time></trkpt><trkpt lat="42.48055419501445" lon="11.554433477426304"><ele>125.0</ele><time>2026-04-18T09:06:35.999Z</time></trkpt><trkpt lat="42.48045260764416" lon="11.554413389193098"><ele>124.66666666666666</ele><time>2026-04-18T09:06:36.999Z</time></trkpt><trkpt lat="42.480371941834825" lon="11.554391717724169"><ele>124.33333333333333</ele><time>2026-04-18T09:06:37.999Z</time></trkpt><trkpt lat="42.480283606964036" lon="11.55437877026086"><ele>124.0</ele><time>2026-04-18T09:06:38.999Z</time></trkpt><trkpt lat="42.480195778043445" lon="11.554351218034183"><ele>123.66666666666666</ele><time>2026-04-18T09:06:39.999Z</time></trkpt><trkpt lat="42.4801139091264" lon="11.554335861503505"><ele>123.33333333333333</ele><time>2026-04-18T09:06:40.999Z</time></trkpt><trkpt lat="42.48004147410882" lon="11.55434320291108"><ele>123.0</ele><time>2026-04-18T09:06:41.999Z</time></trkpt><trkpt lat="42.479959898071925" lon="11.554362334658371"><ele>123.0</ele><time>2026-04-18T09:06:42.999Z</time></trkpt><trkpt lat="42.47984867958766" lon="11.554370601204106"><ele>123.0</ele><time>2026-04-18T09:06:43.999Z</time></trkpt><trkpt lat="42.4797163363492" lon="11.554346533822288"><ele>123.0</ele><time>2026-04-18T09:06:44.999Z</time></trkpt><trkpt lat="42.479590179946065" lon="11.554346100727388"><ele>123.0</ele><time>2026-04-18T09:06:45.999Z</time></trkpt><trkpt lat="42.47948541568064" lon="11.55436505757547"><ele>122.2</ele><time>2026-04-18T09:06:46.999Z</time></trkpt><trkpt lat="42.47938966175958" lon="11.554369868182654"><ele>121.4</ele><time>2026-04-18T09:06:47.999Z</time></trkpt><trkpt lat="42.47929247274149" lon="11.554364192354015"><ele>120.60000000000001</ele><time>2026-04-18T09:06:48.999Z</time></trkpt><trkpt lat="42.47917936032585" lon="11.554382210679288"><ele>119.80000000000001</ele><time>2026-04-18T09:06:49.999Z</time></trkpt><trkpt lat="42.47906924761851" lon="11.55440926134875"><ele>119.0</ele><time>2026-04-18T09:06:50.999Z</time></trkpt><trkpt lat="42.47897230421434" lon="11.55440379180858"><ele>118.99999999999999</ele><time>2026-04-18T09:06:51.999Z</time></trkpt><trkpt lat="42.478886955274476" lon="11.55444294490006"><ele>119.0</ele><time>2026-04-18T09:06:52.999Z</time></trkpt><trkpt lat="42.478814326640794" lon="11.55446733665334"><ele>119.0</ele><time>2026-04-18T09:06:53.999Z</time></trkpt><trkpt lat="42.47871036326884" lon="11.554488460348614"><ele>119.0</ele><time>2026-04-18T09:06:55.999Z</time></trkpt><trkpt lat="42.478649613135445" lon="11.55451415004712"><ele>118.99999999999999</ele><time>2026-04-18T09:06:57.999Z</time></trkpt><trkpt lat="42.47856407864064" lon="11.554550320435045"><ele>119.0</ele><time>2026-04-18T09:06:59.999Z</time></trkpt><trkpt lat="42.47847063224323" lon="11.554589836543801"><ele>118.99999999999999</ele><time>2026-04-18T09:07:01.999Z</time></trkpt><trkpt lat="42.4784165966946" lon="11.554634650759363"><ele>119.0</ele><time>2026-04-18T09:07:02.999Z</time></trkpt><trkpt lat="42.47833313864617" lon="11.554652932891818"><ele>119.0</ele><time>2026-04-18T09:07:03.999Z</time></trkpt><trkpt lat="42.47824431413315" lon="11.55466294484266"><ele>119.0</ele><time>2026-04-18T09:07:04.999Z</time></trkpt><trkpt lat="42.47816016114324" lon="11.554680870343786"><ele>118.99999999999999</ele><time>2026-04-18T09:07:05.999Z</time></trkpt><trkpt lat="42.478071645475254" lon="11.554689878579934"><ele>119.0</ele><time>2026-04-18T09:07:06.999Z</time></trkpt><trkpt lat="42.47799054134639" lon="11.554667912153171"><ele>118.99999999999999</ele><time>2026-04-18T09:07:07.999Z</time></trkpt><trkpt lat="42.477907943207605" lon="11.554661071087136"><ele>119.0</ele><time>2026-04-18T09:07:08.999Z</time></trkpt><trkpt lat="42.47782781293495" lon="11.554685500713283"><ele>119.0</ele><time>2026-04-18T09:07:09.999Z</time></trkpt><trkpt lat="42.477744019732576" lon="11.554686113649588"><ele>119.0</ele><time>2026-04-18T09:07:10.999Z</time></trkpt><trkpt lat="42.47766824544863" lon="11.554690142160402"><ele>118.99999999999999</ele><time>2026-04-18T09:07:11.999Z</time></trkpt><trkpt lat="42.47760207198331" lon="11.554721282506073"><ele>119.0</ele><time>2026-04-18T09:07:12.999Z</time></trkpt><trkpt lat="42.47753383100198" lon="11.55470489530785"><ele>118.99999999999999</ele><time>2026-04-18T09:07:13.999Z</time></trkpt><trkpt lat="42.47746479889821" lon="11.554708782421867"><ele>119.0</ele><time>2026-04-18T09:07:14.999Z</time></trkpt><trkpt lat="42.477377758203474" lon="11.554709333371136"><ele>119.0</ele><time>2026-04-18T09:07:15.999Z</time></trkpt><trkpt lat="42.47730318190642" lon="11.554708568181907"><ele>119.0</ele><time>2026-04-18T09:07:16.999Z</time></trkpt><trkpt lat="42.47720891880179" lon="11.554726938415373"><ele>118.99999999999999</ele><time>2026-04-18T09:07:17.999Z</time></trkpt><trkpt lat="42.47710456795586" lon="11.554700530720154"><ele>119.0</ele><time>2026-04-18T09:07:18.999Z</time></trkpt><trkpt lat="42.47701775848062" lon="11.554715422493127"><ele>120.2</ele><time>2026-04-18T09:07:19.999Z</time></trkpt><trkpt lat="42.47693755797808" lon="11.554681997518433"><ele>121.4</ele><time>2026-04-18T09:07:20.999Z</time></trkpt><trkpt lat="42.476840126738246" lon="11.554653579175254"><ele>122.6</ele><time>2026-04-18T09:07:22.999Z</time></trkpt><trkpt lat="42.476783379560146" lon="11.55460510103224"><ele>123.8</ele><time>2026-04-18T09:07:30Z</time></trkpt><trkpt lat="42.47673473563746" lon="11.554493264881168"><ele>125.0</ele><time>2026-04-18T09:07:32Z</time></trkpt><trkpt lat="42.47670780874863" lon="11.554338275218662"><ele>126.66666666666666</ele><time>2026-04-18T09:07:34Z</time></trkpt><trkpt lat="42.476715012014324" lon="11.554173449623514"><ele>128.33333333333331</ele><time>2026-04-18T09:07:36Z</time></trkpt><trkpt lat="42.476734404880816" lon="11.554072859870073"><ele>130.0</ele><time>2026-04-18T09:07:37Z</time></trkpt><trkpt lat="42.47676579611561" lon="11.553984513217056"><ele>131.66666666666666</ele><time>2026-04-18T09:07:38Z</time></trkpt><trkpt lat="42.47677185020422" lon="11.553893781841742"><ele>133.33333333333334</ele><time>2026-04-18T09:07:39Z</time></trkpt><trkpt lat="42.47680229996493" lon="11.553807882773787"><ele>135.0</ele><time>2026-04-18T09:07:40Z</time></trkpt><trkpt lat="42.4768374666575" lon="11.553637722397815"><ele>135.42857142857142</ele><time>2026-04-18T09:07:42Z</time></trkpt><trkpt lat="42.47684700407233" lon="11.553546002058653"><ele>135.85714285714283</ele><time>2026-04-18T09:07:43Z</time></trkpt><trkpt lat="42.476901989177925" lon="11.553473932790688"><ele>136.28571428571428</ele><time>2026-04-18T09:07:44Z</time></trkpt><trkpt lat="42.476952285545146" lon="11.553403646473619"><ele>136.71428571428572</ele><time>2026-04-18T09:07:45Z</time></trkpt><trkpt lat="42.47700834955298" lon="11.553322731438813"><ele>137.14285714285717</ele><time>2026-04-18T09:07:46Z</time></trkpt><trkpt lat="42.47705979874737" lon="11.553259763517934"><ele>137.57142857142858</ele><time>2026-04-18T09:07:47Z</time></trkpt><trkpt lat="42.477110115212426" lon="11.553206523240902"><ele>138.0</ele><time>2026-04-18T09:07:48Z</time></trkpt><trkpt lat="42.477174849832565" lon="11.553065924404041"><ele>138.0</ele><time>2026-04-18T09:07:50Z</time></trkpt><trkpt lat="42.47716476100741" lon="11.55296950334443"><ele>138.0</ele><time>2026-04-18T09:07:51Z</time></trkpt><trkpt lat="42.47714080078032" lon="11.552876679773037"><ele>138.0</ele><time>2026-04-18T09:07:52Z</time></trkpt><trkpt lat="42.47711980614208" lon="11.55279126155581"><ele>138.0</ele><time>2026-04-18T09:07:53Z</time></trkpt><trkpt lat="42.47698596564489" lon="11.552658481487981"><ele>138.0</ele><time>2026-04-18T09:07:55Z</time></trkpt><trkpt lat="42.476912608453524" lon="11.552597158829538"><ele>141.6</ele><time>2026-04-18T09:07:56Z</time></trkpt><trkpt lat="42.47683483614048" lon="11.552529323785134"><ele>145.20000000000002</ele><time>2026-04-18T09:07:57Z</time></trkpt><trkpt lat="42.47677259394725" lon="11.552481745170569"><ele>148.8</ele><time>2026-04-18T09:07:58Z</time></trkpt><trkpt lat="42.476722186688676" lon="11.552422441841658"><ele>152.4</ele><time>2026-04-18T09:08:00Z</time></trkpt><trkpt lat="42.47669336517666" lon="11.552303507374099"><ele>156.0</ele><time>2026-04-18T09:08:02Z</time></trkpt><trkpt lat="42.47662525626469" lon="11.552149110905491"><ele>156.0</ele><time>2026-04-18T09:08:03.999Z</time></trkpt><trkpt lat="42.476562052360315" lon="11.552091842641506"><ele>156.0</ele><time>2026-04-18T09:08:04.999Z</time></trkpt><trkpt lat="42.47646905238439" lon="11.552002041444181"><ele>156.0</ele><time>2026-04-18T09:08:05.999Z</time></trkpt><trkpt lat="42.47639163253866" lon="11.551923910085776"><ele>156.0</ele><time>2026-04-18T09:08:06.999Z</time></trkpt><trkpt lat="42.47633139469307" lon="11.551870065735692"><ele>156.0</ele><time>2026-04-18T09:08:07.999Z</time></trkpt><trkpt lat="42.47628901491656" lon="11.551800451714744"><ele>156.0</ele><time>2026-04-18T09:08:08.999Z</time></trkpt><trkpt lat="42.47624654322631" lon="11.551708954379711"><ele>157.2</ele><time>2026-04-18T09:08:09.999Z</time></trkpt><trkpt lat="42.476194223671065" lon="11.551594823726617"><ele>158.39999999999998</ele><time>2026-04-18T09:08:10.999Z</time></trkpt><trkpt lat="42.47615062283031" lon="11.551503985892214"><ele>159.6</ele><time>2026-04-18T09:08:11.999Z</time></trkpt><trkpt lat="42.47611591200443" lon="11.551416526012138"><ele>160.79999999999998</ele><time>2026-04-18T09:08:12.999Z</time></trkpt><trkpt lat="42.47609168740501" lon="11.551241775397475"><ele>162.0</ele><time>2026-04-18T09:08:14.999Z</time></trkpt><trkpt lat="42.47608562055324" lon="11.551142382410386"><ele>163.57142857142858</ele><time>2026-04-18T09:08:15.999Z</time></trkpt><trkpt lat="42.47607396065419" lon="11.55104727920115"><ele>165.14285714285714</ele><time>2026-04-18T09:08:16.999Z</time></trkpt><trkpt lat="42.47605888506404" lon="11.550963599793173"><ele>166.71428571428572</ele><time>2026-04-18T09:08:17.999Z</time></trkpt><trkpt lat="42.47602740723201" lon="11.55088128164985"><ele>168.28571428571428</ele><time>2026-04-18T09:08:18.999Z</time></trkpt><trkpt lat="42.47602156868363" lon="11.550777523734935"><ele>169.85714285714286</ele><time>2026-04-18T09:08:20.999Z</time></trkpt><trkpt lat="42.47599086102506" lon="11.550691652906307"><ele>171.42857142857142</ele><time>2026-04-18T09:08:21.999Z</time></trkpt><trkpt lat="42.47597404562198" lon="11.550605053614987"><ele>173.0</ele><time>2026-04-18T09:08:22.999Z</time></trkpt><trkpt lat="42.47595497393701" lon="11.550511292974015"><ele>175.33333333333331</ele><time>2026-04-18T09:08:24.999Z</time></trkpt><trkpt lat="42.47594643410656" lon="11.55033272835323"><ele>177.66666666666666</ele><time>2026-04-18T09:08:26.999Z</time></trkpt><trkpt lat="42.47594159056602" lon="11.55024546532752"><ele>180.0</ele><time>2026-04-18T09:08:27.999Z</time></trkpt><trkpt lat="42.47592322285114" lon="11.55014249214033"><ele>182.33333333333334</ele><time>2026-04-18T09:08:29.999Z</time></trkpt><trkpt lat="42.47589546948801" lon="11.550051680732325"><ele>184.66666666666669</ele><time>2026-04-18T09:08:31.999Z</time></trkpt><trkpt lat="42.47587738136011" lon="11.549961447586037"><ele>187.0</ele><time>2026-04-18T09:08:32.999Z</time></trkpt><trkpt lat="42.475831695446274" lon="11.549841784963352"><ele>187.0</ele><time>2026-04-18T09:08:33.999Z</time></trkpt><trkpt lat="42.47578458984222" lon="11.549733743602797"><ele>187.0</ele><time>2026-04-18T09:08:34.999Z</time></trkpt><trkpt lat="42.475763280006305" lon="11.549646459174117"><ele>187.0</ele><time>2026-04-18T09:08:35.999Z</time></trkpt><trkpt lat="42.475730798359564" lon="11.54955888611564"><ele>187.0</ele><time>2026-04-18T09:08:36.999Z</time></trkpt><trkpt lat="42.47568293479092" lon="11.549480207981265"><ele>187.0</ele><time>2026-04-18T09:08:37.999Z</time></trkpt><trkpt lat="42.475627663901236" lon="11.549398073718459"><ele>187.0</ele><time>2026-04-18T09:08:38.999Z</time></trkpt><trkpt lat="42.47557290883398" lon="11.54931756528876"><ele>188.83333333333334</ele><time>2026-04-18T09:08:39.999Z</time></trkpt><trkpt lat="42.475520224336634" lon="11.549250846884387"><ele>190.66666666666669</ele><time>2026-04-18T09:08:40.999Z</time></trkpt><trkpt lat="42.47546060581683" lon="11.54915389661338"><ele>192.5</ele><time>2026-04-18T09:08:42.999Z</time></trkpt><trkpt lat="42.47542391411033" lon="11.549055926717003"><ele>194.33333333333334</ele><time>2026-04-18T09:08:44.999Z</time></trkpt><trkpt lat="42.47544181324579" lon="11.548959644659282"><ele>196.16666666666666</ele><time>2026-04-18T09:08:46.999Z</time></trkpt><trkpt lat="42.47540987389254" lon="11.548864822826356"><ele>198.0</ele><time>2026-04-18T09:08:48.999Z</time></trkpt><trkpt lat="42.47537198419859" lon="11.548749094654696"><ele>200.60000000000002</ele><time>2026-04-18T09:08:50.999Z</time></trkpt><trkpt lat="42.47531160511658" lon="11.548691089315792"><ele>203.20000000000002</ele><time>2026-04-18T09:08:53.999Z</time></trkpt><trkpt lat="42.475250605765" lon="11.548575603100813"><ele>205.8</ele><time>2026-04-18T09:08:55.999Z</time></trkpt><trkpt lat="42.47518095127511" lon="11.54847248180741"><ele>208.4</ele><time>2026-04-18T09:08:57.999Z</time></trkpt><trkpt lat="42.47510529020602" lon="11.548396565890883"><ele>211.0</ele><time>2026-04-18T09:08:59.999Z</time></trkpt><trkpt lat="42.47507711455141" lon="11.548275811875504"><ele>211.0</ele><time>2026-04-18T09:09:01.999Z</time></trkpt><trkpt lat="42.475041763858705" lon="11.548173095415752"><ele>211.0</ele><time>2026-04-18T09:09:03.999Z</time></trkpt><trkpt lat="42.475005866024134" lon="11.548040574503714"><ele>211.0</ele><time>2026-04-18T09:09:05.999Z</time></trkpt><trkpt lat="42.47494151682134" lon="11.54793202586224"><ele>211.0</ele><time>2026-04-18T09:09:07.999Z</time></trkpt><trkpt lat="42.47487878344227" lon="11.547841823120512"><ele>211.0</ele><time>2026-04-18T09:09:09.999Z</time></trkpt><trkpt lat="42.47479806747825" lon="11.547732804294936"><ele>213.0</ele><time>2026-04-18T09:09:11.999Z</time></trkpt><trkpt lat="42.474734631875464" lon="11.547628533615441"><ele>215.0</ele><time>2026-04-18T09:09:13.999Z</time></trkpt><trkpt lat="42.474638328865545" lon="11.547542219273705"><ele>217.00000000000003</ele><time>2026-04-18T09:09:15.999Z</time></trkpt><trkpt lat="42.4745226631161" lon="11.547535152124075"><ele>219.0</ele><time>2026-04-18T09:09:17.999Z</time></trkpt><trkpt lat="42.4744541492944" lon="11.547547803391888"><ele>221.0</ele><time>2026-04-18T09:09:18.999Z</time></trkpt><trkpt lat="42.474377261531515" lon="11.547534510574579"><ele>223.0</ele><time>2026-04-18T09:09:19.999Z</time></trkpt><trkpt lat="42.47429732710711" lon="11.547514244485674"><ele>225.00000000000003</ele><time>2026-04-18T09:09:20.999Z</time></trkpt><trkpt lat="42.47418963585324" lon="11.547506102203974"><ele>227.00000000000003</ele><time>2026-04-18T09:09:23.999Z</time></trkpt><trkpt lat="42.474068202942334" lon="11.547447949054506"><ele>229.0</ele><time>2026-04-18T09:09:25.999Z</time></trkpt><trkpt lat="42.47397659452918" lon="11.54735609068604"><ele>231.0</ele><time>2026-04-18T09:09:27.999Z</time></trkpt><trkpt lat="42.47386145661119" lon="11.547290962210296"><ele>231.0</ele><time>2026-04-18T09:09:29.999Z</time></trkpt><trkpt lat="42.47377639654663" lon="11.547210967144185"><ele>231.00000000000003</ele><time>2026-04-18T09:09:31.999Z</time></trkpt><trkpt lat="42.473670717899445" lon="11.547165380439381"><ele>231.00000000000003</ele><time>2026-04-18T09:09:34Z</time></trkpt><trkpt lat="42.47360651570966" lon="11.547159281054785"><ele>231.0</ele><time>2026-04-18T09:09:35Z</time></trkpt><trkpt lat="42.473509463455024" lon="11.547226064343642"><ele>231.0</ele><time>2026-04-18T09:09:37Z</time></trkpt><trkpt lat="42.4733797293471" lon="11.54722496939117"><ele>231.60000000000002</ele><time>2026-04-18T09:09:39Z</time></trkpt><trkpt lat="42.47331386324921" lon="11.547224562675911"><ele>232.20000000000002</ele><time>2026-04-18T09:09:40Z</time></trkpt><trkpt lat="42.473194772338104" lon="11.547193663203704"><ele>232.79999999999998</ele><time>2026-04-18T09:09:42Z</time></trkpt><trkpt lat="42.4731319574735" lon="11.547172484927962"><ele>233.39999999999998</ele><time>2026-04-18T09:09:43Z</time></trkpt><trkpt lat="42.473015925988314" lon="11.547125581762593"><ele>234.0</ele><time>2026-04-18T09:09:45Z</time></trkpt><trkpt lat="42.47290143419094" lon="11.547050330899062"><ele>239.39999999999998</ele><time>2026-04-18T09:09:47Z</time></trkpt><trkpt lat="42.472846228984686" lon="11.546994001076644"><ele>244.79999999999998</ele><time>2026-04-18T09:09:48Z</time></trkpt><trkpt lat="42.472782161378085" lon="11.54695563108902"><ele>250.20000000000002</ele><time>2026-04-18T09:09:49Z</time></trkpt><trkpt lat="42.47267183028477" lon="11.54693589997102"><ele>255.60000000000002</ele><time>2026-04-18T09:09:51Z</time></trkpt><trkpt lat="42.47254873792731" lon="11.546911888548621"><ele>261.0</ele><time>2026-04-18T09:09:53Z</time></trkpt><trkpt lat="42.472469859444224" lon="11.546891519535679"><ele>261.0</ele><time>2026-04-18T09:09:54Z</time></trkpt><trkpt lat="42.47234472808029" lon="11.546876621931533"><ele>261.0</ele><time>2026-04-18T09:09:56Z</time></trkpt><trkpt lat="42.47225242956282" lon="11.546845168922296"><ele>261.0</ele><time>2026-04-18T09:09:57.999Z</time></trkpt><trkpt lat="42.47216049579352" lon="11.546792458332067"><ele>261.0</ele><time>2026-04-18T09:09:59.999Z</time></trkpt><trkpt lat="42.47203740644293" lon="11.546725255081887"><ele>257.6</ele><time>2026-04-18T09:10:01.999Z</time></trkpt><trkpt lat="42.47197037985635" lon="11.54668680606746"><ele>254.20000000000002</ele><time>2026-04-18T09:10:03.999Z</time></trkpt><trkpt lat="42.471922130386034" lon="11.546607817430868"><ele>250.79999999999998</ele><time>2026-04-18T09:10:15.999Z</time></trkpt><trkpt lat="42.471896326517594" lon="11.546493623273518"><ele>247.39999999999998</ele><time>2026-04-18T09:10:17.999Z</time></trkpt><trkpt lat="42.471916715931734" lon="11.546358099996777"><ele>244.0</ele><time>2026-04-18T09:10:19.999Z</time></trkpt><trkpt lat="42.47196656925138" lon="11.546215794525075"><ele>243.85714285714283</ele><time>2026-04-18T09:10:21.999Z</time></trkpt><trkpt lat="42.47199741035226" lon="11.546126213624465"><ele>243.71428571428572</ele><time>2026-04-18T09:10:22.999Z</time></trkpt><trkpt lat="42.47201750833209" lon="11.546038636152351"><ele>243.57142857142856</ele><time>2026-04-18T09:10:23.999Z</time></trkpt><trkpt lat="42.472036317624145" lon="11.545935731361297"><ele>243.42857142857142</ele><time>2026-04-18T09:10:24.999Z</time></trkpt><trkpt lat="42.47203595759311" lon="11.545836751251873"><ele>243.28571428571428</ele><time>2026-04-18T09:10:25.999Z</time></trkpt><trkpt lat="42.47203297049169" lon="11.545742807049672"><ele>243.14285714285714</ele><time>2026-04-18T09:10:26.999Z</time></trkpt><trkpt lat="42.472050291104665" lon="11.54565355761188"><ele>243.0</ele><time>2026-04-18T09:10:27.999Z</time></trkpt><trkpt lat="42.472087915784485" lon="11.545504636846331"><ele>243.5</ele><time>2026-04-18T09:10:29.999Z</time></trkpt><trkpt lat="42.472110086643454" lon="11.545402196148444"><ele>244.0</ele><time>2026-04-18T09:10:30.999Z</time></trkpt><trkpt lat="42.47211106246002" lon="11.545294918187237"><ele>244.5</ele><time>2026-04-18T09:10:31.999Z</time></trkpt><trkpt lat="42.472093678545356" lon="11.545191643919479"><ele>245.0</ele><time>2026-04-18T09:10:32.999Z</time></trkpt><trkpt lat="42.4720771073506" lon="11.545095080735894"><ele>245.5</ele><time>2026-04-18T09:10:33.999Z</time></trkpt><trkpt lat="42.47207646609202" lon="11.544991437277886"><ele>246.0</ele><time>2026-04-18T09:10:34.999Z</time></trkpt><trkpt lat="42.47207011454682" lon="11.544899451752777"><ele>246.0</ele><time>2026-04-18T09:10:35.999Z</time></trkpt><trkpt lat="42.472055042046364" lon="11.544806916310788"><ele>246.0</ele><time>2026-04-18T09:10:36.999Z</time></trkpt><trkpt lat="42.4720576603235" lon="11.544707418535307"><ele>246.0</ele><time>2026-04-18T09:10:37.999Z</time></trkpt><trkpt lat="42.472064377677704" lon="11.544583525544569"><ele>246.0</ele><time>2026-04-18T09:10:38.999Z</time></trkpt><trkpt lat="42.47206879858021" lon="11.544482071143557"><ele>246.0</ele><time>2026-04-18T09:10:39.999Z</time></trkpt><trkpt lat="42.472051449310335" lon="11.544389451573911"><ele>246.0</ele><time>2026-04-18T09:10:40.999Z</time></trkpt><trkpt lat="42.472026056809476" lon="11.54430087168495"><ele>246.28571428571433</ele><time>2026-04-18T09:10:41.999Z</time></trkpt><trkpt lat="42.47202593242093" lon="11.544194252212556"><ele>246.57142857142858</ele><time>2026-04-18T09:10:42.999Z</time></trkpt><trkpt lat="42.47203115692887" lon="11.544092652150681"><ele>246.8571428571429</ele><time>2026-04-18T09:10:43.999Z</time></trkpt><trkpt lat="42.472033598488046" lon="11.54400070544847"><ele>247.14285714285717</ele><time>2026-04-18T09:10:44.999Z</time></trkpt><trkpt lat="42.47204525149379" lon="11.543899802598204"><ele>247.42857142857144</ele><time>2026-04-18T09:10:45.999Z</time></trkpt><trkpt lat="42.47205544873492" lon="11.54380490477715"><ele>247.71428571428572</ele><time>2026-04-18T09:10:46.999Z</time></trkpt><trkpt lat="42.472088503468754" lon="11.543715844193281"><ele>248.0</ele><time>2026-04-18T09:10:47.999Z</time></trkpt><trkpt lat="42.472117807539455" lon="11.543610898189463"><ele>250.0</ele><time>2026-04-18T09:10:49.999Z</time></trkpt><trkpt lat="42.47207994728704" lon="11.543473487804814"><ele>252.0</ele><time>2026-04-18T09:10:51.999Z</time></trkpt><trkpt lat="42.47200054486226" lon="11.543319096789354"><ele>254.0</ele><time>2026-04-18T09:10:53.999Z</time></trkpt><trkpt lat="42.47195196102581" lon="11.543185569454222"><ele>256.0</ele><time>2026-04-18T09:10:54.999Z</time></trkpt><trkpt lat="42.47189384850008" lon="11.543040598413903"><ele>255.99999999999997</ele><time>2026-04-18T09:10:55.999Z</time></trkpt><trkpt lat="42.471975976034514" lon="11.543069930418572"><ele>256.0</ele><time>2026-04-18T09:10:56.999Z</time></trkpt><trkpt lat="42.47198411224538" lon="11.542904871414649"><ele>256.0</ele><time>2026-04-18T09:10:58.999Z</time></trkpt><trkpt lat="42.47199822289845" lon="11.5428080565617"><ele>256.0</ele><time>2026-04-18T09:10:59.999Z</time></trkpt><trkpt lat="42.472019107643504" lon="11.542727128175809"><ele>255.99999999999997</ele><time>2026-04-18T09:11:00.999Z</time></trkpt><trkpt lat="42.47201479523779" lon="11.542598040219179"><ele>256.0</ele><time>2026-04-18T09:11:02.999Z</time></trkpt><trkpt lat="42.471981666859556" lon="11.542509007049683"><ele>258.16666666666663</ele><time>2026-04-18T09:11:03.999Z</time></trkpt><trkpt lat="42.47192359461789" lon="11.542446030056954"><ele>260.3333333333333</ele><time>2026-04-18T09:11:04.999Z</time></trkpt><trkpt lat="42.471861827507205" lon="11.542358820091582"><ele>262.5</ele><time>2026-04-18T09:11:05.999Z</time></trkpt><trkpt lat="42.4717980856069" lon="11.54227300195643"><ele>264.6666666666667</ele><time>2026-04-18T09:11:06.999Z</time></trkpt><trkpt lat="42.471775782884336" lon="11.542159028801649"><ele>266.83333333333337</ele><time>2026-04-18T09:11:07.999Z</time></trkpt><trkpt lat="42.4716973901727" lon="11.542105851953227"><ele>269.0</ele><time>2026-04-18T09:11:08.999Z</time></trkpt><trkpt lat="42.47164222516695" lon="11.542040404813536"><ele>271.1666666666667</ele><time>2026-04-18T09:11:09.999Z</time></trkpt><trkpt lat="42.47159200602851" lon="11.541971402431171"><ele>273.33333333333337</ele><time>2026-04-18T09:11:10.999Z</time></trkpt><trkpt lat="42.4715362072396" lon="11.54180543412099"><ele>275.5</ele><time>2026-04-18T09:11:12.999Z</time></trkpt><trkpt lat="42.4715311968118" lon="11.541704420334055"><ele>277.6666666666667</ele><time>2026-04-18T09:11:13.999Z</time></trkpt><trkpt lat="42.47153086904863" lon="11.541595657451651"><ele>279.8333333333333</ele><time>2026-04-18T09:11:14.999Z</time></trkpt><trkpt lat="42.471533998480304" lon="11.541492772463911"><ele>282.0</ele><time>2026-04-18T09:11:15.999Z</time></trkpt><trkpt lat="42.47152438288056" lon="11.541407528965328"><ele>282.0</ele><time>2026-04-18T09:11:16.999Z</time></trkpt><trkpt lat="42.471456870174954" lon="11.541296127549167"><ele>282.0</ele><time>2026-04-18T09:11:18.999Z</time></trkpt><trkpt lat="42.47140377700957" lon="11.54121043770512"><ele>282.0</ele><time>2026-04-18T09:11:19.999Z</time></trkpt><trkpt lat="42.47134826549619" lon="11.541155284071394"><ele>282.0</ele><time>2026-04-18T09:11:20.999Z</time></trkpt><trkpt lat="42.471286185846225" lon="11.541126887300994"><ele>282.0</ele><time>2026-04-18T09:11:21.999Z</time></trkpt><trkpt lat="42.471213992874425" lon="11.541090203259087"><ele>282.0</ele><time>2026-04-18T09:11:22.999Z</time></trkpt><trkpt lat="42.47114956104122" lon="11.541071035696541"><ele>281.0</ele><time>2026-04-18T09:11:23.999Z</time></trkpt><trkpt lat="42.471058132085886" lon="11.541010009917064"><ele>280.0</ele><time>2026-04-18T09:11:25.999Z</time></trkpt><trkpt lat="42.470983759672094" lon="11.540919150774467"><ele>279.0</ele><time>2026-04-18T09:11:27.999Z</time></trkpt><trkpt lat="42.470929116046776" lon="11.54080326494773"><ele>278.0</ele><time>2026-04-18T09:11:29.999Z</time></trkpt><trkpt lat="42.47089828330196" lon="11.54069848494451"><ele>277.0</ele><time>2026-04-18T09:11:31.999Z</time></trkpt><trkpt lat="42.47090576234824" lon="11.540609840322944"><ele>276.25</ele><time>2026-04-18T09:11:40Z</time></trkpt><trkpt lat="42.470884252484815" lon="11.540357197847449"><ele>275.5</ele><time>2026-04-18T09:41:35Z</time></trkpt><trkpt lat="42.47090844033344" lon="11.540197998545334"><ele>274.75</ele><time>2026-04-18T09:41:37Z</time></trkpt><trkpt lat="42.470970925777756" lon="11.540052366121992"><ele>274.0</ele><time>2026-04-18T09:41:39Z</time></trkpt><trkpt lat="42.47101471869288" lon="11.539977842413727"><ele>274.0</ele><time>2026-04-18T09:41:40Z</time></trkpt><trkpt lat="42.47106638132492" lon="11.539887310924449"><ele>274.0</ele><time>2026-04-18T09:41:41Z</time></trkpt><trkpt lat="42.47110823275355" lon="11.539795917748963"><ele>274.0</ele><time>2026-04-18T09:41:42Z</time></trkpt><trkpt lat="42.47115160962122" lon="11.539719015473011"><ele>274.0</ele><time>2026-04-18T09:41:43Z</time></trkpt><trkpt lat="42.47118587551998" lon="11.539616785912957"><ele>274.0</ele><time>2026-04-18T09:41:44Z</time></trkpt><trkpt lat="42.471225184034665" lon="11.539522824578105"><ele>274.0</ele><time>2026-04-18T09:41:45Z</time></trkpt><trkpt lat="42.47122743597249" lon="11.53938088873826"><ele>273.59999999999997</ele><time>2026-04-18T09:41:47Z</time></trkpt><trkpt lat="42.471268402431285" lon="11.539212697907125"><ele>273.2</ele><time>2026-04-18T09:41:49Z</time></trkpt><trkpt lat="42.47133283704067" lon="11.53913446444474"><ele>272.79999999999995</ele><time>2026-04-18T09:41:51Z</time></trkpt><trkpt lat="42.47139715836547" lon="11.539084345871506"><ele>272.4</ele><time>2026-04-18T09:41:53Z</time></trkpt><trkpt lat="42.47148402202856" lon="11.539138806230245"><ele>272.0</ele><time>2026-04-18T09:41:55Z</time></trkpt><trkpt lat="42.47153228072534" lon="11.539060375606661"><ele>271.2</ele><time>2026-04-18T09:41:57Z</time></trkpt><trkpt lat="42.47155298437004" lon="11.538926319802922"><ele>270.4</ele><time>2026-04-18T09:41:59Z</time></trkpt><trkpt lat="42.47153674253889" lon="11.53875955792075"><ele>269.6</ele><time>2026-04-18T09:42:01Z</time></trkpt><trkpt lat="42.4715151811353" lon="11.538674551409054"><ele>268.8</ele><time>2026-04-18T09:42:02Z</time></trkpt><trkpt lat="42.47150020103716" lon="11.538527141274022"><ele>268.0</ele><time>2026-04-18T09:42:04Z</time></trkpt><trkpt lat="42.47145776840684" lon="11.53841432617373"><ele>268.0</ele><time>2026-04-18T09:42:06Z</time></trkpt><trkpt lat="42.4714127638643" lon="11.538243104251963"><ele>268.0</ele><time>2026-04-18T09:42:08Z</time></trkpt><trkpt lat="42.471354345659286" lon="11.538081897656783"><ele>268.0</ele><time>2026-04-18T09:42:10Z</time></trkpt><trkpt lat="42.47131502173005" lon="11.538013069374237"><ele>268.0</ele><time>2026-04-18T09:42:11Z</time></trkpt><trkpt lat="42.471279332479625" lon="11.537933438023291"><ele>268.0</ele><time>2026-04-18T09:42:12Z</time></trkpt><trkpt lat="42.47120853121862" lon="11.537796623952111"><ele>267.2</ele><time>2026-04-18T09:42:14Z</time></trkpt><trkpt lat="42.471165428238166" lon="11.53773215844157"><ele>266.4</ele><time>2026-04-18T09:42:15Z</time></trkpt><trkpt lat="42.47105789390841" lon="11.537595340829666"><ele>265.59999999999997</ele><time>2026-04-18T09:42:17Z</time></trkpt><trkpt lat="42.47099644097539" lon="11.537505536786274"><ele>264.8</ele><time>2026-04-18T09:42:18Z</time></trkpt><trkpt lat="42.4709522387813" lon="11.537423154689225"><ele>264.0</ele><time>2026-04-18T09:42:19Z</time></trkpt><trkpt lat="42.47090419323688" lon="11.537348612371044"><ele>264.0</ele><time>2026-04-18T09:42:20Z</time></trkpt><trkpt lat="42.47086991628895" lon="11.537269706588996"><ele>264.0</ele><time>2026-04-18T09:42:21Z</time></trkpt><trkpt lat="42.47083160513949" lon="11.537198400294802"><ele>264.0</ele><time>2026-04-18T09:42:22Z</time></trkpt><trkpt lat="42.47077738199124" lon="11.53712542602334"><ele>264.0</ele><time>2026-04-18T09:42:23Z</time></trkpt><trkpt lat="42.47069920576242" lon="11.537038898296665"><ele>264.0</ele><time>2026-04-18T09:42:25Z</time></trkpt><trkpt lat="42.4706329667157" lon="11.536914679725013"><ele>264.0</ele><time>2026-04-18T09:42:27Z</time></trkpt><trkpt lat="42.470556147955605" lon="11.536777991271697"><ele>259.8</ele><time>2026-04-18T09:42:29Z</time></trkpt><trkpt lat="42.47049095389773" lon="11.53669479987263"><ele>255.59999999999997</ele><time>2026-04-18T09:42:31Z</time></trkpt><trkpt lat="42.470395499779386" lon="11.536599010350088"><ele>251.4</ele><time>2026-04-18T09:42:33Z</time></trkpt><trkpt lat="42.47029140677842" lon="11.536548730578263"><ele>247.2</ele><time>2026-04-18T09:42:35Z</time></trkpt><trkpt lat="42.470179282304706" lon="11.53652372109897"><ele>243.0</ele><time>2026-04-18T09:42:37Z</time></trkpt><trkpt lat="42.47011376757585" lon="11.536522274511245"><ele>242.4</ele><time>2026-04-18T09:42:38Z</time></trkpt><trkpt lat="42.47001438275725" lon="11.536534502605488"><ele>241.8</ele><time>2026-04-18T09:42:40Z</time></trkpt><trkpt lat="42.46992216197377" lon="11.536566884974437"><ele>241.2</ele><time>2026-04-18T09:42:42Z</time></trkpt><trkpt lat="42.469828139795155" lon="11.53659358465284"><ele>240.6</ele><time>2026-04-18T09:42:44Z</time></trkpt><trkpt lat="42.46971553119472" lon="11.536625776529517"><ele>240.0</ele><time>2026-04-18T09:42:46Z</time></trkpt><trkpt lat="42.46960456537917" lon="11.536677302262758"><ele>234.8</ele><time>2026-04-18T09:42:48Z</time></trkpt><trkpt lat="42.46951092623372" lon="11.536726999536612"><ele>229.6</ele><time>2026-04-18T09:42:50Z</time></trkpt><trkpt lat="42.46942898019673" lon="11.536773628658256"><ele>224.39999999999998</ele><time>2026-04-18T09:42:52Z</time></trkpt><trkpt lat="42.46930494212974" lon="11.536816105844972"><ele>219.2</ele><time>2026-04-18T09:42:54Z</time></trkpt><trkpt lat="42.4692340068473" lon="11.53681215509189"><ele>214.0</ele><time>2026-04-18T09:42:55Z</time></trkpt><trkpt lat="42.46909523249948" lon="11.5368167539434"><ele>213.99999999999997</ele><time>2026-04-18T09:42:57Z</time></trkpt><trkpt lat="42.46897758234263" lon="11.536842950022287"><ele>214.0</ele><time>2026-04-18T09:42:59Z</time></trkpt><trkpt lat="42.46891376053032" lon="11.536854921292965"><ele>214.0</ele><time>2026-04-18T09:43:00Z</time></trkpt><trkpt lat="42.468790582961795" lon="11.536884848988981"><ele>214.0</ele><time>2026-04-18T09:43:02Z</time></trkpt><trkpt lat="42.468724990233504" lon="11.53691039464623"><ele>213.99999999999997</ele><time>2026-04-18T09:43:03Z</time></trkpt><trkpt lat="42.46866319399776" lon="11.53692708852872"><ele>214.0</ele><time>2026-04-18T09:43:04Z</time></trkpt><trkpt lat="42.4685403485164" lon="11.536975198140459"><ele>210.33333333333331</ele><time>2026-04-18T09:43:06Z</time></trkpt><trkpt lat="42.468464571804894" lon="11.536996674562769"><ele>206.66666666666666</ele><time>2026-04-18T09:43:07Z</time></trkpt><trkpt lat="42.468393855624406" lon="11.537005123046107"><ele>203.0</ele><time>2026-04-18T09:43:08Z</time></trkpt><trkpt lat="42.468318727880465" lon="11.537007931255639"><ele>199.33333333333331</ele><time>2026-04-18T09:43:09Z</time></trkpt><trkpt lat="42.46824438953599" lon="11.536991989876878"><ele>195.66666666666666</ele><time>2026-04-18T09:43:10Z</time></trkpt><trkpt lat="42.46818056546334" lon="11.536979610708451"><ele>192.0</ele><time>2026-04-18T09:43:11Z</time></trkpt><trkpt lat="42.46806515917122" lon="11.536966352590236"><ele>192.0</ele><time>2026-04-18T09:43:13Z</time></trkpt><trkpt lat="42.46800037626731" lon="11.536951763242909"><ele>192.0</ele><time>2026-04-18T09:43:14Z</time></trkpt><trkpt lat="42.46790385858608" lon="11.536913320284551"><ele>192.0</ele><time>2026-04-18T09:43:16Z</time></trkpt><trkpt lat="42.46781971285545" lon="11.53688247689569"><ele>192.0</ele><time>2026-04-18T09:43:18Z</time></trkpt><trkpt lat="42.467723815297" lon="11.536875927167946"><ele>192.0</ele><time>2026-04-18T09:43:20Z</time></trkpt><trkpt lat="42.467633737199584" lon="11.53688163218933"><ele>192.0</ele><time>2026-04-18T09:43:23Z</time></trkpt><trkpt lat="42.467568803231494" lon="11.53689709209003"><ele>189.2</ele><time>2026-04-18T09:43:25Z</time></trkpt><trkpt lat="42.467508155031375" lon="11.536954971508896"><ele>186.39999999999998</ele><time>2026-04-18T09:43:27Z</time></trkpt><trkpt lat="42.46745199100265" lon="11.537058358091054"><ele>183.60000000000002</ele><time>2026-04-18T09:43:29Z</time></trkpt><trkpt lat="42.46740774263319" lon="11.537198604756965"><ele>180.8</ele><time>2026-04-18T09:43:31Z</time></trkpt><trkpt lat="42.46733756335331" lon="11.537315622568649"><ele>178.0</ele><time>2026-04-18T09:43:33Z</time></trkpt><trkpt lat="42.46726754249194" lon="11.537437482367205"><ele>178.0</ele><time>2026-04-18T09:43:35Z</time></trkpt><trkpt lat="42.46721675202606" lon="11.537552867628285"><ele>178.0</ele><time>2026-04-18T09:43:37Z</time></trkpt><trkpt lat="42.46713712815501" lon="11.537629532046648"><ele>178.0</ele><time>2026-04-18T09:43:39Z</time></trkpt><trkpt lat="42.467051959048696" lon="11.53773466165653"><ele>178.0</ele><time>2026-04-18T09:43:41Z</time></trkpt><trkpt lat="42.467019098968414" lon="11.537892633896679"><ele>178.0</ele><time>2026-04-18T09:43:43Z</time></trkpt><trkpt lat="42.46694811897933" lon="11.538048388422538"><ele>177.5</ele><time>2026-04-18T09:43:45Z</time></trkpt><trkpt lat="42.46689790055423" lon="11.538135024017196"><ele>177.0</ele><time>2026-04-18T09:43:46Z</time></trkpt><trkpt lat="42.46684334723549" lon="11.538221750898778"><ele>176.5</ele><time>2026-04-18T09:43:47Z</time></trkpt><trkpt lat="42.46680020326481" lon="11.538293456584109"><ele>176.0</ele><time>2026-04-18T09:43:48Z</time></trkpt><trkpt lat="42.46675697624682" lon="11.53836731246337"><ele>175.5</ele><time>2026-04-18T09:43:49Z</time></trkpt><trkpt lat="42.46668706080646" lon="11.53849795017263"><ele>175.0</ele><time>2026-04-18T09:43:51Z</time></trkpt><trkpt lat="42.46665458601811" lon="11.538587062414718"><ele>175.0</ele><time>2026-04-18T09:43:52Z</time></trkpt><trkpt lat="42.46661540901223" lon="11.538686159628275"><ele>175.0</ele><time>2026-04-18T09:43:53Z</time></trkpt><trkpt lat="42.466573787084705" lon="11.538779527443825"><ele>175.0</ele><time>2026-04-18T09:43:54Z</time></trkpt><trkpt lat="42.46653050998095" lon="11.538876097715752"><ele>175.0</ele><time>2026-04-18T09:43:55Z</time></trkpt><trkpt lat="42.4664948894188" lon="11.539007378086664"><ele>175.0</ele><time>2026-04-18T09:43:56Z</time></trkpt><trkpt lat="42.46644935854404" lon="11.53913829995833"><ele>174.4</ele><time>2026-04-18T09:43:57Z</time></trkpt><trkpt lat="42.46635560459868" lon="11.53923537667717"><ele>173.8</ele><time>2026-04-18T09:44:00Z</time></trkpt><trkpt lat="42.46628442426661" lon="11.539386647922036"><ele>173.2</ele><time>2026-04-18T09:44:02Z</time></trkpt><trkpt lat="42.46623071455063" lon="11.539488211443064"><ele>172.6</ele><time>2026-04-18T09:44:03Z</time></trkpt><trkpt lat="42.46617540229436" lon="11.539588054985401"><ele>172.0</ele><time>2026-04-18T09:44:04Z</time></trkpt><trkpt lat="42.466134892805286" lon="11.53970595766493"><ele>172.0</ele><time>2026-04-18T09:44:05Z</time></trkpt><trkpt lat="42.46609639062398" lon="11.539832820485772"><ele>172.0</ele><time>2026-04-18T09:44:06Z</time></trkpt><trkpt lat="42.4660252253377" lon="11.539954711983908"><ele>172.0</ele><time>2026-04-18T09:44:07Z</time></trkpt><trkpt lat="42.46594163298603" lon="11.54007185228032"><ele>172.0</ele><time>2026-04-18T09:44:08Z</time></trkpt><trkpt lat="42.465899048968076" lon="11.540171217620067"><ele>172.0</ele><time>2026-04-18T09:44:09Z</time></trkpt><trkpt lat="42.46584779723065" lon="11.540271853966553"><ele>172.00000000000003</ele><time>2026-04-18T09:44:10Z</time></trkpt><trkpt lat="42.46579144997063" lon="11.540361835671142"><ele>172.0</ele><time>2026-04-18T09:44:11Z</time></trkpt><trkpt lat="42.46573450808178" lon="11.540450542690564"><ele>172.0</ele><time>2026-04-18T09:44:12Z</time></trkpt><trkpt lat="42.46568894782648" lon="11.540524481095346"><ele>172.0</ele><time>2026-04-18T09:44:13Z</time></trkpt><trkpt lat="42.46564722065588" lon="11.540598475701879"><ele>172.0</ele><time>2026-04-18T09:44:14Z</time></trkpt><trkpt lat="42.465607596248084" lon="11.540671479110134"><ele>172.00000000000003</ele><time>2026-04-18T09:44:15Z</time></trkpt><trkpt lat="42.46556663648204" lon="11.540745252949622"><ele>172.0</ele><time>2026-04-18T09:44:16Z</time></trkpt><trkpt lat="42.4655292162523" lon="11.540824154869952"><ele>172.5</ele><time>2026-04-18T09:44:17Z</time></trkpt><trkpt lat="42.46550057303395" lon="11.540951103613487"><ele>173.0</ele><time>2026-04-18T09:44:19Z</time></trkpt><trkpt lat="42.46556030377722" lon="11.541048124433003"><ele>173.5</ele><time>2026-04-18T09:44:21Z</time></trkpt><trkpt lat="42.46558039590971" lon="11.541129772357417"><ele>174.0</ele><time>2026-04-18T09:44:22Z</time></trkpt><trkpt lat="42.46553687484306" lon="11.541261798980816"><ele>174.5</ele><time>2026-04-18T09:44:24Z</time></trkpt><trkpt lat="42.46552228412694" lon="11.541353376124308"><ele>175.0</ele><time>2026-04-18T09:44:26Z</time></trkpt><trkpt lat="42.465594143434956" lon="11.541434327465671"><ele>175.0</ele><time>2026-04-18T09:44:29Z</time></trkpt><trkpt lat="42.46571234955716" lon="11.541477018473712"><ele>175.0</ele><time>2026-04-18T09:44:31Z</time></trkpt><trkpt lat="42.46578749902404" lon="11.541531965789003"><ele>175.0</ele><time>2026-04-18T09:44:33Z</time></trkpt><trkpt lat="42.46579488601245" lon="11.54164755154357"><ele>175.0</ele><time>2026-04-18T09:44:35Z</time></trkpt><trkpt lat="42.4657486181011" lon="11.541714213115881"><ele>175.0</ele><time>2026-04-18T09:44:37Z</time></trkpt><trkpt lat="42.46564545303643" lon="11.541795236236412"><ele>175.0</ele><time>2026-04-18T09:44:39Z</time></trkpt><trkpt lat="42.46559259651223" lon="11.541853204310877"><ele>175.0</ele><time>2026-04-18T09:44:40Z</time></trkpt><trkpt lat="42.465539531182024" lon="11.541942003913807"><ele>175.0</ele><time>2026-04-18T09:44:42Z</time></trkpt><trkpt lat="42.4654696470545" lon="11.542115148331288"><ele>175.0</ele><time>2026-04-18T09:44:43Z</time></trkpt><trkpt lat="42.46544830216755" lon="11.542231734408848"><ele>175.0</ele><time>2026-04-18T09:44:44Z</time></trkpt><trkpt lat="42.46542850908035" lon="11.542327758461775"><ele>176.2</ele><time>2026-04-18T09:44:45Z</time></trkpt><trkpt lat="42.465430085170176" lon="11.542481845571645"><ele>177.4</ele><time>2026-04-18T09:44:47Z</time></trkpt><trkpt lat="42.465473850816814" lon="11.542659154530218"><ele>178.60000000000002</ele><time>2026-04-18T09:44:49Z</time></trkpt><trkpt lat="42.465506986621946" lon="11.542759474835782"><ele>179.8</ele><time>2026-04-18T09:44:50Z</time></trkpt><trkpt lat="42.465536894674905" lon="11.54283956195889"><ele>181.0</ele><time>2026-04-18T09:44:51Z</time></trkpt><trkpt lat="42.46557588533519" lon="11.542914232679824"><ele>181.83333333333334</ele><time>2026-04-18T09:44:52Z</time></trkpt><trkpt lat="42.4656539760933" lon="11.543006598025698"><ele>182.66666666666669</ele><time>2026-04-18T09:44:54Z</time></trkpt><trkpt lat="42.4656661667463" lon="11.543115584700281"><ele>183.5</ele><time>2026-04-18T09:44:57Z</time></trkpt><trkpt lat="42.46557989978728" lon="11.543224757214636"><ele>184.33333333333334</ele><time>2026-04-18T09:44:59Z</time></trkpt><trkpt lat="42.46550834061323" lon="11.543247372978058"><ele>185.16666666666666</ele><time>2026-04-18T09:45:00Z</time></trkpt><trkpt lat="42.465446669549216" lon="11.543270112248294"><ele>186.0</ele><time>2026-04-18T09:45:01Z</time></trkpt><trkpt lat="42.46533312786052" lon="11.543334774794356"><ele>183.71428571428572</ele><time>2026-04-18T09:45:03Z</time></trkpt><trkpt lat="42.46528709473455" lon="11.54339393842413"><ele>181.42857142857144</ele><time>2026-04-18T09:45:04Z</time></trkpt><trkpt lat="42.46526514315096" lon="11.543477712656369"><ele>179.14285714285717</ele><time>2026-04-18T09:45:05Z</time></trkpt><trkpt lat="42.46521632355247" lon="11.543569263841345"><ele>176.85714285714286</ele><time>2026-04-18T09:45:06Z</time></trkpt><trkpt lat="42.46516513169043" lon="11.543664364091267"><ele>174.57142857142856</ele><time>2026-04-18T09:45:07Z</time></trkpt><trkpt lat="42.46512946555232" lon="11.543735832115727"><ele>172.2857142857143</ele><time>2026-04-18T09:45:08Z</time></trkpt><trkpt lat="42.46508422183087" lon="11.543802827350886"><ele>170.0</ele><time>2026-04-18T09:45:10Z</time></trkpt><trkpt lat="42.46504055558676" lon="11.543870262975345"><ele>170.0</ele><time>2026-04-18T09:45:13Z</time></trkpt><trkpt lat="42.46494871833782" lon="11.543792450409663"><ele>170.0</ele><time>2026-04-18T09:45:16Z</time></trkpt><trkpt lat="42.46489261937931" lon="11.543714289125665"><ele>170.0</ele><time>2026-04-18T09:45:18Z</time></trkpt><trkpt lat="42.46479832532302" lon="11.543680726429288"><ele>170.0</ele><time>2026-04-18T09:45:20Z</time></trkpt><trkpt lat="42.464682570709684" lon="11.543650316336409"><ele>170.0</ele><time>2026-04-18T09:45:22Z</time></trkpt><trkpt lat="42.46461379497709" lon="11.543656516446427"><ele>166.0</ele><time>2026-04-18T09:45:23Z</time></trkpt><trkpt lat="42.46450599284848" lon="11.543655964416063"><ele>162.0</ele><time>2026-04-18T09:45:25Z</time></trkpt><trkpt lat="42.4643885783512" lon="11.543636165101873"><ele>158.0</ele><time>2026-04-18T09:45:27Z</time></trkpt><trkpt lat="42.464275421340155" lon="11.543630360838035"><ele>154.0</ele><time>2026-04-18T09:45:29Z</time></trkpt><trkpt lat="42.464191447335544" lon="11.543624638746806"><ele>150.0</ele><time>2026-04-18T09:45:31Z</time></trkpt><trkpt lat="42.4640784550905" lon="11.543591814549155"><ele>150.0</ele><time>2026-04-18T09:45:33Z</time></trkpt><trkpt lat="42.463980888817886" lon="11.543619346238096"><ele>150.0</ele><time>2026-04-18T09:45:35Z</time></trkpt><trkpt lat="42.46389912531233" lon="11.543613944440057"><ele>150.0</ele><time>2026-04-18T09:45:37Z</time></trkpt><trkpt lat="42.46381033316799" lon="11.543606991100742"><ele>150.0</ele><time>2026-04-18T09:45:39Z</time></trkpt><trkpt lat="42.46373888544504" lon="11.54359464604308"><ele>150.0</ele><time>2026-04-18T09:45:40Z</time></trkpt><trkpt lat="42.46364074419732" lon="11.543595296024922"><ele>150.0</ele><time>2026-04-18T09:45:42Z</time></trkpt><trkpt lat="42.463575183377756" lon="11.543610436664688"><ele>148.66666666666666</ele><time>2026-04-18T09:45:44Z</time></trkpt><trkpt lat="42.46351533914182" lon="11.543577323799502"><ele>147.33333333333334</ele><time>2026-04-18T09:45:46Z</time></trkpt><trkpt lat="42.46342308638201" lon="11.543573256624091"><ele>146.0</ele><time>2026-04-18T09:45:48Z</time></trkpt><trkpt lat="42.463344903937156" lon="11.54359208183635"><ele>144.66666666666669</ele><time>2026-04-18T09:45:49Z</time></trkpt><trkpt lat="42.46326166541944" lon="11.543625586616956"><ele>143.33333333333334</ele><time>2026-04-18T09:45:50Z</time></trkpt><trkpt lat="42.46318446866464" lon="11.543654720751194"><ele>142.0</ele><time>2026-04-18T09:45:51Z</time></trkpt><trkpt lat="42.46310628107094" lon="11.543690979153963"><ele>142.33333333333334</ele><time>2026-04-18T09:45:52Z</time></trkpt><trkpt lat="42.46304259500307" lon="11.543742995689101"><ele>142.66666666666669</ele><time>2026-04-18T09:45:53Z</time></trkpt><trkpt lat="42.462978635680805" lon="11.543776746731854"><ele>143.0</ele><time>2026-04-18T09:45:54Z</time></trkpt><trkpt lat="42.46291928553735" lon="11.543815853738169"><ele>143.33333333333334</ele><time>2026-04-18T09:45:55Z</time></trkpt><trkpt lat="42.46282293043505" lon="11.543874946990892"><ele>143.66666666666666</ele><time>2026-04-18T09:45:57Z</time></trkpt><trkpt lat="42.46274128825266" lon="11.543883171779113"><ele>144.0</ele><time>2026-04-18T09:45:59Z</time></trkpt><trkpt lat="42.462622709102526" lon="11.543923201481189"><ele>142.66666666666666</ele><time>2026-04-18T09:46:01Z</time></trkpt><trkpt lat="42.4624825701417" lon="11.5439686583964"><ele>141.33333333333334</ele><time>2026-04-18T09:46:03Z</time></trkpt><trkpt lat="42.46240215383343" lon="11.543995377567834"><ele>140.0</ele><time>2026-04-18T09:46:04Z</time></trkpt><trkpt lat="42.46232721550532" lon="11.54401627363323"><ele>138.66666666666669</ele><time>2026-04-18T09:46:05Z</time></trkpt><trkpt lat="42.46225901459498" lon="11.544035925689812"><ele>137.33333333333334</ele><time>2026-04-18T09:46:06Z</time></trkpt><trkpt lat="42.46219394989097" lon="11.544049524742299"><ele>136.0</ele><time>2026-04-18T09:46:07Z</time></trkpt><trkpt lat="42.462117342371634" lon="11.54407186547559"><ele>135.66666666666669</ele><time>2026-04-18T09:46:08Z</time></trkpt><trkpt lat="42.46204369052542" lon="11.544093476589387"><ele>135.33333333333334</ele><time>2026-04-18T09:46:09Z</time></trkpt><trkpt lat="42.46195860115623" lon="11.544115536399751"><ele>135.0</ele><time>2026-04-18T09:46:10Z</time></trkpt><trkpt lat="42.461866823405096" lon="11.54414320450318"><ele>134.66666666666666</ele><time>2026-04-18T09:46:11Z</time></trkpt><trkpt lat="42.46177973999119" lon="11.544172629057737"><ele>134.33333333333331</ele><time>2026-04-18T09:46:12Z</time></trkpt><trkpt lat="42.461696740223076" lon="11.544172121953045"><ele>134.0</ele><time>2026-04-18T09:46:13Z</time></trkpt><trkpt lat="42.461617839433366" lon="11.544180517839932"><ele>134.0</ele><time>2026-04-18T09:46:14Z</time></trkpt><trkpt lat="42.46152953910731" lon="11.544188928326117"><ele>134.0</ele><time>2026-04-18T09:46:15Z</time></trkpt><trkpt lat="42.46145510708024" lon="11.54419948347863"><ele>134.0</ele><time>2026-04-18T09:46:16Z</time></trkpt><trkpt lat="42.4613934900043" lon="11.544229534728736"><ele>134.0</ele><time>2026-04-18T09:46:17Z</time></trkpt><trkpt lat="42.461284361205365" lon="11.544239336829053"><ele>134.0</ele><time>2026-04-18T09:46:19Z</time></trkpt><trkpt lat="42.46122083547204" lon="11.54425146627395"><ele>134.0</ele><time>2026-04-18T09:46:20Z</time></trkpt><trkpt lat="42.46109894378298" lon="11.544277248961905"><ele>133.33333333333331</ele><time>2026-04-18T09:46:22Z</time></trkpt><trkpt lat="42.461030461212125" lon="11.544291001564364"><ele>132.66666666666666</ele><time>2026-04-18T09:46:23Z</time></trkpt><trkpt lat="42.46096581044485" lon="11.544275960119824"><ele>132.0</ele><time>2026-04-18T09:46:24Z</time></trkpt><trkpt lat="42.46084470063296" lon="11.544287850507594"><ele>131.33333333333334</ele><time>2026-04-18T09:46:26Z</time></trkpt><trkpt lat="42.4607422045451" lon="11.544316380231514"><ele>130.66666666666669</ele><time>2026-04-18T09:46:28Z</time></trkpt><trkpt lat="42.46065466840964" lon="11.544306507602258"><ele>130.0</ele><time>2026-04-18T09:46:30Z</time></trkpt><trkpt lat="42.460555470982435" lon="11.544316811806787"><ele>130.0</ele><time>2026-04-18T09:46:32Z</time></trkpt><trkpt lat="42.460472231832476" lon="11.544326652316206"><ele>130.0</ele><time>2026-04-18T09:46:34Z</time></trkpt><trkpt lat="42.460371184869324" lon="11.544338598062708"><ele>130.0</ele><time>2026-04-18T09:46:36Z</time></trkpt><trkpt lat="42.460248737668195" lon="11.5443530737395"><ele>130.0</ele><time>2026-04-18T09:46:38Z</time></trkpt><trkpt lat="42.46014085434151" lon="11.544365827678373"><ele>130.0</ele><time>2026-04-18T09:46:40Z</time></trkpt><trkpt lat="42.4600658675342" lon="11.544371877650855"><ele>129.4</ele><time>2026-04-18T09:46:41Z</time></trkpt><trkpt lat="42.45997458942709" lon="11.544379695629395"><ele>128.8</ele><time>2026-04-18T09:46:42Z</time></trkpt><trkpt lat="42.45989599679606" lon="11.544386427062502"><ele>128.2</ele><time>2026-04-18T09:46:43Z</time></trkpt><trkpt lat="42.4598049159566" lon="11.544396407028641"><ele>127.6</ele><time>2026-04-18T09:46:44Z</time></trkpt><trkpt lat="42.45970069159832" lon="11.544410436519778"><ele>127.0</ele><time>2026-04-18T09:46:45Z</time></trkpt><trkpt lat="42.45958759451261" lon="11.544429783041702"><ele>125.75</ele><time>2026-04-18T09:46:46Z</time></trkpt><trkpt lat="42.45946101844068" lon="11.544453549246294"><ele>124.5</ele><time>2026-04-18T09:46:47Z</time></trkpt><trkpt lat="42.45931421960768" lon="11.544499508145972"><ele>123.25</ele><time>2026-04-18T09:46:48Z</time></trkpt><trkpt lat="42.45916201410016" lon="11.544516534502351"><ele>122.0</ele><time>2026-04-18T09:46:49Z</time></trkpt><trkpt lat="42.45905224276677" lon="11.544506175099558"><ele>122.0</ele><time>2026-04-18T09:46:50Z</time></trkpt><trkpt lat="42.45896735173372" lon="11.544501428457336"><ele>121.99999999999999</ele><time>2026-04-18T09:46:51Z</time></trkpt><trkpt lat="42.45888119834616" lon="11.544449972631458"><ele>121.99999999999999</ele><time>2026-04-18T09:46:52Z</time></trkpt><trkpt lat="42.458789039536036" lon="11.544448794698347"><ele>122.0</ele><time>2026-04-18T09:46:53Z</time></trkpt><trkpt lat="42.45868915096472" lon="11.544444255482263"><ele>122.0</ele><time>2026-04-18T09:46:54Z</time></trkpt><trkpt lat="42.45853832616661" lon="11.544483441889836"><ele>121.75</ele><time>2026-04-18T09:46:55Z</time></trkpt><trkpt lat="42.45837870720008" lon="11.544479862522435"><ele>121.5</ele><time>2026-04-18T09:46:56Z</time></trkpt><trkpt lat="42.45825848048401" lon="11.54447633488864"><ele>121.25</ele><time>2026-04-18T09:46:57Z</time></trkpt><trkpt lat="42.4581629995475" lon="11.544512163108921"><ele>121.0</ele><time>2026-04-18T09:46:58Z</time></trkpt><trkpt lat="42.45802080189721" lon="11.544514969154408"><ele>121.0</ele><time>2026-04-18T09:46:59Z</time></trkpt><trkpt lat="42.45788975371373" lon="11.54455179391896"><ele>121.0</ele><time>2026-04-18T09:47:00Z</time></trkpt><trkpt lat="42.45776277623925" lon="11.544576597584369"><ele>121.0</ele><time>2026-04-18T09:47:01Z</time></trkpt><trkpt lat="42.4576302363463" lon="11.544594523699166"><ele>121.0</ele><time>2026-04-18T09:47:02Z</time></trkpt><trkpt lat="42.457512223960386" lon="11.544610383697215"><ele>121.0</ele><time>2026-04-18T09:47:03Z</time></trkpt><trkpt lat="42.4573897047758" lon="11.544626431689663"><ele>121.0</ele><time>2026-04-18T09:47:04Z</time></trkpt><trkpt lat="42.45726478418682" lon="11.544643903151623"><ele>121.0</ele><time>2026-04-18T09:47:05Z</time></trkpt><trkpt lat="42.45714378146898" lon="11.544659075219622"><ele>121.0</ele><time>2026-04-18T09:47:06Z</time></trkpt><trkpt lat="42.45701628469647" lon="11.54467098422136"><ele>120.5</ele><time>2026-04-18T09:47:07Z</time></trkpt><trkpt lat="42.45689394038244" lon="11.544687616355477"><ele>120.0</ele><time>2026-04-18T09:47:08Z</time></trkpt><trkpt lat="42.45674836985797" lon="11.544701041727897"><ele>119.5</ele><time>2026-04-18T09:47:09Z</time></trkpt><trkpt lat="42.45661255892687" lon="11.544716449009982"><ele>119.0</ele><time>2026-04-18T09:47:10Z</time></trkpt><trkpt lat="42.45647785708964" lon="11.544737502590959"><ele>119.0</ele><time>2026-04-18T09:47:11Z</time></trkpt><trkpt lat="42.45635685597267" lon="11.544747869984407"><ele>119.0</ele><time>2026-04-18T09:47:12Z</time></trkpt><trkpt lat="42.456250671341046" lon="11.544771856162926"><ele>119.0</ele><time>2026-04-18T09:47:13Z</time></trkpt><trkpt lat="42.45613353307574" lon="11.544767686712047"><ele>119.0</ele><time>2026-04-18T09:47:14Z</time></trkpt><trkpt lat="42.456045783547204" lon="11.544788118977255"><ele>119.0</ele><time>2026-04-18T09:47:15Z</time></trkpt><trkpt lat="42.45595434641343" lon="11.544811178547363"><ele>118.25</ele><time>2026-04-18T09:47:16Z</time></trkpt><trkpt lat="42.455839852149346" lon="11.544830621423714"><ele>117.5</ele><time>2026-04-18T09:47:17Z</time></trkpt><trkpt lat="42.45572270681278" lon="11.544845939811747"><ele>116.75</ele><time>2026-04-18T09:47:18Z</time></trkpt><trkpt lat="42.455601519279334" lon="11.544872576412365"><ele>116.0</ele><time>2026-04-18T09:47:19Z</time></trkpt><trkpt lat="42.45546228392284" lon="11.544898354099384"><ele>114.5</ele><time>2026-04-18T09:47:20Z</time></trkpt><trkpt lat="42.45532158749814" lon="11.544910198544569"><ele>113.0</ele><time>2026-04-18T09:47:21Z</time></trkpt><trkpt lat="42.455208148544585" lon="11.544917544525825"><ele>111.5</ele><time>2026-04-18T09:47:22Z</time></trkpt><trkpt lat="42.455082137713894" lon="11.544937193693864"><ele>110.0</ele><time>2026-04-18T09:47:23Z</time></trkpt><trkpt lat="42.45495880388222" lon="11.544972025768724"><ele>110.0</ele><time>2026-04-18T09:47:24Z</time></trkpt><trkpt lat="42.45484155592512" lon="11.544983653189623"><ele>110.0</ele><time>2026-04-18T09:47:25Z</time></trkpt><trkpt lat="42.45470629462249" lon="11.545010036771146"><ele>110.0</ele><time>2026-04-18T09:47:26Z</time></trkpt><trkpt lat="42.45457412766587" lon="11.545028001380244"><ele>110.0</ele><time>2026-04-18T09:47:27Z</time></trkpt><trkpt lat="42.45443583833629" lon="11.545051712013572"><ele>109.5</ele><time>2026-04-18T09:47:28Z</time></trkpt><trkpt lat="42.4543133062844" lon="11.545071181620068"><ele>109.0</ele><time>2026-04-18T09:47:29Z</time></trkpt><trkpt lat="42.45417355421795" lon="11.545093369694749"><ele>108.5</ele><time>2026-04-18T09:47:30Z</time></trkpt><trkpt lat="42.45403903493062" lon="11.545116466604231"><ele>108.0</ele><time>2026-04-18T09:47:31Z</time></trkpt><trkpt lat="42.453925215894934" lon="11.545135214676783"><ele>108.0</ele><time>2026-04-18T09:47:32Z</time></trkpt><trkpt lat="42.45380887904944" lon="11.54513034294785"><ele>108.0</ele><time>2026-04-18T09:47:33Z</time></trkpt><trkpt lat="42.4536979935637" lon="11.545166406328104"><ele>108.0</ele><time>2026-04-18T09:47:34Z</time></trkpt><trkpt lat="42.45357209777686" lon="11.545184118841492"><ele>108.0</ele><time>2026-04-18T09:47:35Z</time></trkpt><trkpt lat="42.45343946494627" lon="11.54520628898894"><ele>107.25</ele><time>2026-04-18T09:47:36Z</time></trkpt><trkpt lat="42.45330573058257" lon="11.545229607552317"><ele>106.5</ele><time>2026-04-18T09:47:37Z</time></trkpt><trkpt lat="42.453191571615776" lon="11.545226177992099"><ele>105.75</ele><time>2026-04-18T09:47:38Z</time></trkpt><trkpt lat="42.45309725895477" lon="11.545259167076354"><ele>105.0</ele><time>2026-04-18T09:47:39Z</time></trkpt><trkpt lat="42.452989850442115" lon="11.545262854893545"><ele>105.0</ele><time>2026-04-18T09:47:40Z</time></trkpt><trkpt lat="42.452902395544875" lon="11.545301467608365"><ele>105.0</ele><time>2026-04-18T09:47:41Z</time></trkpt><trkpt lat="42.452820337121366" lon="11.54531869959277"><ele>105.0</ele><time>2026-04-18T09:47:42Z</time></trkpt><trkpt lat="42.452727191271556" lon="11.545364736525213"><ele>105.0</ele><time>2026-04-18T09:47:43Z</time></trkpt><trkpt lat="42.45261693998322" lon="11.545390488563129"><ele>105.0</ele><time>2026-04-18T09:47:44Z</time></trkpt><trkpt lat="42.45250319793646" lon="11.54542774744296"><ele>105.0</ele><time>2026-04-18T09:47:45Z</time></trkpt><trkpt lat="42.452400507996664" lon="11.545458899803913"><ele>105.0</ele><time>2026-04-18T09:47:46Z</time></trkpt><trkpt lat="42.452317627209986" lon="11.545483569190393"><ele>105.0</ele><time>2026-04-18T09:47:47Z</time></trkpt><trkpt lat="42.45224250617884" lon="11.545507652869924"><ele>105.0</ele><time>2026-04-18T09:47:48Z</time></trkpt><trkpt lat="42.45217097632439" lon="11.545525161600308"><ele>105.0</ele><time>2026-04-18T09:47:49Z</time></trkpt><trkpt lat="42.45208895913635" lon="11.545546025052507"><ele>105.0</ele><time>2026-04-18T09:47:50Z</time></trkpt><trkpt lat="42.45198913099018" lon="11.54557444986885"><ele>104.6</ele><time>2026-04-18T09:47:51Z</time></trkpt><trkpt lat="42.45186089307226" lon="11.545612494105429"><ele>104.2</ele><time>2026-04-18T09:47:52Z</time></trkpt><trkpt lat="42.45175939896517" lon="11.545634556962717"><ele>103.80000000000001</ele><time>2026-04-18T09:47:53Z</time></trkpt><trkpt lat="42.45169135016922" lon="11.545657391012154"><ele>103.4</ele><time>2026-04-18T09:47:54Z</time></trkpt><trkpt lat="42.451618601983746" lon="11.545757773242563"><ele>103.0</ele><time>2026-04-18T09:47:56Z</time></trkpt><trkpt lat="42.45161181406868" lon="11.545847270899575"><ele>103.00000000000001</ele><time>2026-04-18T09:47:57Z</time></trkpt><trkpt lat="42.451616579494015" lon="11.54594876579928"><ele>103.0</ele><time>2026-04-18T09:47:58Z</time></trkpt><trkpt lat="42.451618811359836" lon="11.546087738056542"><ele>103.0</ele><time>2026-04-18T09:47:59Z</time></trkpt><trkpt lat="42.45162504738708" lon="11.546221166038748"><ele>103.0</ele><time>2026-04-18T09:48:00Z</time></trkpt><trkpt lat="42.45163003395536" lon="11.54633659669563"><ele>103.00000000000001</ele><time>2026-04-18T09:48:01Z</time></trkpt><trkpt lat="42.45162240311934" lon="11.5464369669293"><ele>103.0</ele><time>2026-04-18T09:48:02Z</time></trkpt><trkpt lat="42.451620139596706" lon="11.54654341408233"><ele>103.0</ele><time>2026-04-18T09:48:03Z</time></trkpt><trkpt lat="42.45160480172099" lon="11.54662810617758"><ele>103.0</ele><time>2026-04-18T09:48:04Z</time></trkpt><trkpt lat="42.451601755119576" lon="11.546761743564765"><ele>103.0</ele><time>2026-04-18T09:48:05Z</time></trkpt><trkpt lat="42.45159848456643" lon="11.546906998488957"><ele>103.0</ele><time>2026-04-18T09:48:06Z</time></trkpt><trkpt lat="42.45160534473544" lon="11.547067739366733"><ele>103.0</ele><time>2026-04-18T09:48:07Z</time></trkpt><trkpt lat="42.45159827016723" lon="11.547200882459162"><ele>102.80000000000001</ele><time>2026-04-18T09:48:08Z</time></trkpt><trkpt lat="42.45161505018615" lon="11.547319938963076"><ele>102.6</ele><time>2026-04-18T09:48:09Z</time></trkpt><trkpt lat="42.451612477012034" lon="11.547426661788508"><ele>102.4</ele><time>2026-04-18T09:48:10Z</time></trkpt><trkpt lat="42.45156595435646" lon="11.547555465571207"><ele>102.19999999999999</ele><time>2026-04-18T09:48:12Z</time></trkpt><trkpt lat="42.451431438761" lon="11.547588091798113"><ele>102.0</ele><time>2026-04-18T09:48:14Z</time></trkpt><trkpt lat="42.451325600294524" lon="11.547652217945222"><ele>101.33333333333334</ele><time>2026-04-18T09:48:15Z</time></trkpt><trkpt lat="42.45119020580925" lon="11.54769859988114"><ele>100.66666666666667</ele><time>2026-04-18T09:48:16Z</time></trkpt><trkpt lat="42.45104506937417" lon="11.547755719906586"><ele>100.0</ele><time>2026-04-18T09:48:17Z</time></trkpt><trkpt lat="42.4508790917622" lon="11.547802231750726"><ele>99.25</ele><time>2026-04-18T09:48:18Z</time></trkpt><trkpt lat="42.45073690181249" lon="11.547879181307664"><ele>98.5</ele><time>2026-04-18T09:48:19Z</time></trkpt><trkpt lat="42.45061783386063" lon="11.547925110851187"><ele>97.75</ele><time>2026-04-18T09:48:20Z</time></trkpt><trkpt lat="42.45051356222331" lon="11.547968404455677"><ele>97.0</ele><time>2026-04-18T09:48:21Z</time></trkpt><trkpt lat="42.45042265960527" lon="11.54801162284296"><ele>96.8</ele><time>2026-04-18T09:48:22Z</time></trkpt><trkpt lat="42.45032172078664" lon="11.548053734174658"><ele>96.6</ele><time>2026-04-18T09:48:23Z</time></trkpt><trkpt lat="42.45022046762608" lon="11.548090300333381"><ele>96.39999999999999</ele><time>2026-04-18T09:48:24Z</time></trkpt><trkpt lat="42.450120923288665" lon="11.548101543393969"><ele>96.19999999999999</ele><time>2026-04-18T09:48:25Z</time></trkpt><trkpt lat="42.4500325414262" lon="11.548110485529481"><ele>96.0</ele><time>2026-04-18T09:48:26Z</time></trkpt><trkpt lat="42.449967835789195" lon="11.548099797989773"><ele>96.0</ele><time>2026-04-18T09:48:27Z</time></trkpt><trkpt lat="42.449893790052315" lon="11.548107467886222"><ele>96.0</ele><time>2026-04-18T09:48:29Z</time></trkpt><trkpt lat="42.449812042675816" lon="11.548103710913324"><ele>96.0</ele><time>2026-04-18T09:48:31Z</time></trkpt><trkpt lat="42.44973921881636" lon="11.548088552409515"><ele>96.0</ele><time>2026-04-18T09:48:33Z</time></trkpt><trkpt lat="42.44964834555112" lon="11.548063668528044"><ele>96.0</ele><time>2026-04-18T09:48:35Z</time></trkpt><trkpt lat="42.44952600042985" lon="11.54807278059254"><ele>96.0</ele><time>2026-04-18T09:48:37Z</time></trkpt><trkpt lat="42.44945919291099" lon="11.548066736820319"><ele>95.66666666666667</ele><time>2026-04-18T09:48:38Z</time></trkpt><trkpt lat="42.44937357864063" lon="11.548036092568807"><ele>95.33333333333333</ele><time>2026-04-18T09:48:39Z</time></trkpt><trkpt lat="42.44929653072047" lon="11.548018544157264"><ele>95.0</ele><time>2026-04-18T09:48:40Z</time></trkpt><trkpt lat="42.44922150213832" lon="11.547993794403652"><ele>94.66666666666666</ele><time>2026-04-18T09:48:41Z</time></trkpt><trkpt lat="42.44915021902558" lon="11.547965006996733"><ele>94.33333333333333</ele><time>2026-04-18T09:48:42Z</time></trkpt><trkpt lat="42.44908977784512" lon="11.547936838338764"><ele>94.0</ele><time>2026-04-18T09:48:43Z</time></trkpt><trkpt lat="42.44899777435719" lon="11.547958110443814"><ele>94.0</ele><time>2026-04-18T09:48:45Z</time></trkpt><trkpt lat="42.44893758755598" lon="11.54807219170152"><ele>94.0</ele><time>2026-04-18T09:48:47Z</time></trkpt><trkpt lat="42.4489086942407" lon="11.548170886759396"><ele>94.0</ele><time>2026-04-18T09:48:48Z</time></trkpt><trkpt lat="42.44889250198958" lon="11.548281575165513"><ele>94.0</ele><time>2026-04-18T09:48:49Z</time></trkpt><trkpt lat="42.448885355361675" lon="11.548381150205602"><ele>94.0</ele><time>2026-04-18T09:48:50Z</time></trkpt><trkpt lat="42.44883454649316" lon="11.548451069493199"><ele>94.0</ele><time>2026-04-18T09:48:51.001Z</time></trkpt><trkpt lat="42.44877926341853" lon="11.548554067785496"><ele>94.0</ele><time>2026-04-18T09:48:52.001Z</time></trkpt><trkpt lat="42.44872451600667" lon="11.54863667093408"><ele>94.0</ele><time>2026-04-18T09:48:53.001Z</time></trkpt><trkpt lat="42.44866776467292" lon="11.548708166860592"><ele>94.0</ele><time>2026-04-18T09:48:54.001Z</time></trkpt><trkpt lat="42.44861291919149" lon="11.548797602440079"><ele>94.0</ele><time>2026-04-18T09:48:55.001Z</time></trkpt><trkpt lat="42.44852254736653" lon="11.548860517565096"><ele>94.0</ele><time>2026-04-18T09:48:56.001Z</time></trkpt><trkpt lat="42.448435492002346" lon="11.548944485412866"><ele>93.2</ele><time>2026-04-18T09:48:57.001Z</time></trkpt><trkpt lat="42.448348729763495" lon="11.548996317624807"><ele>92.4</ele><time>2026-04-18T09:48:58.001Z</time></trkpt><trkpt lat="42.44826606344033" lon="11.549029640674807"><ele>91.6</ele><time>2026-04-18T09:48:59.001Z</time></trkpt><trkpt lat="42.448175323936525" lon="11.54906753777551"><ele>90.8</ele><time>2026-04-18T09:49:00.001Z</time></trkpt><trkpt lat="42.44806429443658" lon="11.549131217447794"><ele>90.0</ele><time>2026-04-18T09:49:01.001Z</time></trkpt><trkpt lat="42.44794143590924" lon="11.549165991672892"><ele>89.75</ele><time>2026-04-18T09:49:02.001Z</time></trkpt><trkpt lat="42.44780695643681" lon="11.549223811313155"><ele>89.5</ele><time>2026-04-18T09:49:03.001Z</time></trkpt><trkpt lat="42.44768323247914" lon="11.549276457398676"><ele>89.25</ele><time>2026-04-18T09:49:04.001Z</time></trkpt><trkpt lat="42.447562065979255" lon="11.54932783855239"><ele>89.0</ele><time>2026-04-18T09:49:05.001Z</time></trkpt><trkpt lat="42.44744186334552" lon="11.549378764960123"><ele>89.0</ele><time>2026-04-18T09:49:06.001Z</time></trkpt><trkpt lat="42.44733698095571" lon="11.549422837225247"><ele>89.0</ele><time>2026-04-18T09:49:07.001Z</time></trkpt><trkpt lat="42.44723397740731" lon="11.549480873345022"><ele>89.0</ele><time>2026-04-18T09:49:08.001Z</time></trkpt><trkpt lat="42.44714917411545" lon="11.54951664251798"><ele>89.0</ele><time>2026-04-18T09:49:09.001Z</time></trkpt><trkpt lat="42.447049118288184" lon="11.549565321480891"><ele>89.0</ele><time>2026-04-18T09:49:10.001Z</time></trkpt><trkpt lat="42.44694278858809" lon="11.549615937057487"><ele>89.2</ele><time>2026-04-18T09:49:11.001Z</time></trkpt><trkpt lat="42.44681264424608" lon="11.549650971025146"><ele>89.4</ele><time>2026-04-18T09:49:12.001Z</time></trkpt><trkpt lat="42.44671057378346" lon="11.549719477359845"><ele>89.6</ele><time>2026-04-18T09:49:13.001Z</time></trkpt><trkpt lat="42.44662162529531" lon="11.549754533225672"><ele>89.8</ele><time>2026-04-18T09:49:14.001Z</time></trkpt><trkpt lat="42.44654822965021" lon="11.549786263290775"><ele>90.0</ele><time>2026-04-18T09:49:15.001Z</time></trkpt><trkpt lat="42.44647824223331" lon="11.549815379760412"><ele>90.0</ele><time>2026-04-18T09:49:16.001Z</time></trkpt><trkpt lat="42.446411541229004" lon="11.549838127904707"><ele>90.0</ele><time>2026-04-18T09:49:17.001Z</time></trkpt><trkpt lat="42.446287818425176" lon="11.549866080115118"><ele>90.0</ele><time>2026-04-18T09:49:19.001Z</time></trkpt><trkpt lat="42.446222252826466" lon="11.549865121496508"><ele>90.0</ele><time>2026-04-18T09:49:20.001Z</time></trkpt><trkpt lat="42.446149115682246" lon="11.54988774849347"><ele>90.0</ele><time>2026-04-18T09:49:21.001Z</time></trkpt><trkpt lat="42.446075619166415" lon="11.54988250100914"><ele>90.0</ele><time>2026-04-18T09:49:22.001Z</time></trkpt><trkpt lat="42.4460021618566" lon="11.549812981027477"><ele>89.2</ele><time>2026-04-18T09:49:23.001Z</time></trkpt><trkpt lat="42.44590801777976" lon="11.549763324034096"><ele>88.4</ele><time>2026-04-18T09:49:24.001Z</time></trkpt><trkpt lat="42.445803885827125" lon="11.549724266118538"><ele>87.6</ele><time>2026-04-18T09:49:25.001Z</time></trkpt><trkpt lat="42.44569422864524" lon="11.549678860743947"><ele>86.8</ele><time>2026-04-18T09:49:26.001Z</time></trkpt><trkpt lat="42.445580692409116" lon="11.549615883236289"><ele>86.0</ele><time>2026-04-18T09:49:27.001Z</time></trkpt><trkpt lat="42.4454811980103" lon="11.549594304108847"><ele>86.0</ele><time>2026-04-18T09:49:28.001Z</time></trkpt><trkpt lat="42.44537135511346" lon="11.549569632922365"><ele>86.0</ele><time>2026-04-18T09:49:29.001Z</time></trkpt><trkpt lat="42.445233622007585" lon="11.549616198855967"><ele>86.0</ele><time>2026-04-18T09:49:30.001Z</time></trkpt><trkpt lat="42.445070316872034" lon="11.549607306819844"><ele>86.0</ele><time>2026-04-18T09:49:31.001Z</time></trkpt><trkpt lat="42.4449123275248" lon="11.549615696926521"><ele>86.0</ele><time>2026-04-18T09:49:32.001Z</time></trkpt><trkpt lat="42.444748117104126" lon="11.549594012543496"><ele>86.0</ele><time>2026-04-18T09:49:33.001Z</time></trkpt><trkpt lat="42.44460324103514" lon="11.549590239180409"><ele>86.0</ele><time>2026-04-18T09:49:34.001Z</time></trkpt><trkpt lat="42.44448214107365" lon="11.549584184189003"><ele>86.0</ele><time>2026-04-18T09:49:35.001Z</time></trkpt><trkpt lat="42.44435237167802" lon="11.54957724847502"><ele>85.75</ele><time>2026-04-18T09:49:36.001Z</time></trkpt><trkpt lat="42.44419361463651" lon="11.549568100847608"><ele>85.5</ele><time>2026-04-18T09:49:37.001Z</time></trkpt><trkpt lat="42.44405476311549" lon="11.54956010019381"><ele>85.25</ele><time>2026-04-18T09:49:38.001Z</time></trkpt><trkpt lat="42.44391352804033" lon="11.549574295586332"><ele>85.0</ele><time>2026-04-18T09:49:39.001Z</time></trkpt><trkpt lat="42.44378095450816" lon="11.54956098285751"><ele>84.75</ele><time>2026-04-18T09:49:40.001Z</time></trkpt><trkpt lat="42.443637635203814" lon="11.549557167032585"><ele>84.5</ele><time>2026-04-18T09:49:41.001Z</time></trkpt><trkpt lat="42.44349937870346" lon="11.54952810052898"><ele>84.25</ele><time>2026-04-18T09:49:42.001Z</time></trkpt><trkpt lat="42.44335793903484" lon="11.549519950741553"><ele>84.0</ele><time>2026-04-18T09:49:43.001Z</time></trkpt><trkpt lat="42.443217348707144" lon="11.54951184989198"><ele>82.66666666666667</ele><time>2026-04-18T09:49:44.001Z</time></trkpt><trkpt lat="42.4430661417235" lon="11.549504541559832"><ele>81.33333333333334</ele><time>2026-04-18T09:49:45.001Z</time></trkpt><trkpt lat="42.4429006259031" lon="11.549500628096645"><ele>80.0</ele><time>2026-04-18T09:49:46.001Z</time></trkpt><trkpt lat="42.44274417407961" lon="11.54952115955734"><ele>80.0</ele><time>2026-04-18T09:49:47.001Z</time></trkpt><trkpt lat="42.44257929019653" lon="11.549492658339936"><ele>80.0</ele><time>2026-04-18T09:49:48.001Z</time></trkpt><trkpt lat="42.44242579464464" lon="11.54948226616347"><ele>80.0</ele><time>2026-04-18T09:49:49.001Z</time></trkpt><trkpt lat="42.44225605151136" lon="11.549466635926013"><ele>79.0</ele><time>2026-04-18T09:49:50.001Z</time></trkpt><trkpt lat="42.4420503612059" lon="11.549447677147928"><ele>78.0</ele><time>2026-04-18T09:49:51.001Z</time></trkpt><trkpt lat="42.441847775511256" lon="11.549433795567253"><ele>77.0</ele><time>2026-04-18T09:49:52.001Z</time></trkpt><trkpt lat="42.441662866536" lon="11.549424247184689"><ele>77.0</ele><time>2026-04-18T09:49:53.001Z</time></trkpt><trkpt lat="42.44150072797355" lon="11.549415874625344"><ele>77.0</ele><time>2026-04-18T09:49:54.001Z</time></trkpt><trkpt lat="42.441341420159155" lon="11.54940764824148"><ele>77.0</ele><time>2026-04-18T09:49:55.001Z</time></trkpt><trkpt lat="42.44121182970072" lon="11.549400956407299"><ele>75.75</ele><time>2026-04-18T09:49:56.001Z</time></trkpt><trkpt lat="42.441063848928344" lon="11.549393314929809"><ele>74.5</ele><time>2026-04-18T09:49:57.001Z</time></trkpt><trkpt lat="42.44093030751667" lon="11.549386419079081"><ele>73.25</ele><time>2026-04-18T09:49:58.001Z</time></trkpt><trkpt lat="42.44080656254411" lon="11.549380029099007"><ele>72.0</ele><time>2026-04-18T09:49:59.001Z</time></trkpt><trkpt lat="42.44069307313407" lon="11.549395797705138"><ele>72.0</ele><time>2026-04-18T09:50:00.001Z</time></trkpt><trkpt lat="42.4405836351222" lon="11.549366969728172"><ele>72.0</ele><time>2026-04-18T09:50:01.001Z</time></trkpt><trkpt lat="42.4404721405974" lon="11.549359626076829"><ele>72.0</ele><time>2026-04-18T09:50:02.001Z</time></trkpt><trkpt lat="42.440381960087834" lon="11.549352366419187"><ele>72.0</ele><time>2026-04-18T09:50:03.001Z</time></trkpt><trkpt lat="42.44030783585908" lon="11.549346345869232"><ele>72.0</ele><time>2026-04-18T09:50:04.001Z</time></trkpt><trkpt lat="42.440244495671045" lon="11.549341201224884"><ele>71.5</ele><time>2026-04-18T09:50:05.001Z</time></trkpt><trkpt lat="42.4401690586071" lon="11.54933507403641"><ele>71.0</ele><time>2026-04-18T09:50:07.001Z</time></trkpt><trkpt lat="42.44009961775941" lon="11.549329433879993"><ele>70.5</ele><time>2026-04-18T09:51:06.001Z</time></trkpt><trkpt lat="42.44002372940946" lon="11.549323270084848"><ele>70.0</ele><time>2026-04-18T09:51:15.001Z</time></trkpt><trkpt lat="42.4399403153613" lon="11.549794034407633"><ele>70.0</ele><time>2026-04-18T09:51:20.001Z</time></trkpt><trkpt lat="42.43989114896015" lon="11.549939629289458"><ele>70.0</ele><time>2026-04-18T09:51:22.001Z</time></trkpt><trkpt lat="42.43987388557077" lon="11.550028079781237"><ele>70.0</ele><time>2026-04-18T09:51:23.001Z</time></trkpt><trkpt lat="42.43986714818864" lon="11.550123959155398"><ele>70.0</ele><time>2026-04-18T09:51:24.001Z</time></trkpt><trkpt lat="42.43985004364892" lon="11.55021585002443"><ele>70.0</ele><time>2026-04-18T09:51:25.001Z</time></trkpt><trkpt lat="42.439833649035016" lon="11.55030159442385"><ele>70.0</ele><time>2026-04-18T09:51:26.001Z</time></trkpt><trkpt lat="42.43982191641602" lon="11.5503855581325"><ele>70.16666666666666</ele><time>2026-04-18T09:51:27.001Z</time></trkpt><trkpt lat="42.43980089261272" lon="11.550471108764816"><ele>70.33333333333333</ele><time>2026-04-18T09:51:28.001Z</time></trkpt><trkpt lat="42.439780137031036" lon="11.550577508274534"><ele>70.5</ele><time>2026-04-18T09:51:29.001Z</time></trkpt><trkpt lat="42.43975777224934" lon="11.550697633385887"><ele>70.66666666666667</ele><time>2026-04-18T09:51:30.001Z</time></trkpt><trkpt lat="42.43974335058388" lon="11.55081345786653"><ele>70.83333333333334</ele><time>2026-04-18T09:51:31.001Z</time></trkpt><trkpt lat="42.43973668096077" lon="11.550928799691091"><ele>71.0</ele><time>2026-04-18T09:51:32.001Z</time></trkpt><trkpt lat="42.439710426098586" lon="11.551026067852526"><ele>71.0</ele><time>2026-04-18T09:51:33.001Z</time></trkpt><trkpt lat="42.43969053801963" lon="11.551135772818778"><ele>71.0</ele><time>2026-04-18T09:51:34.001Z</time></trkpt><trkpt lat="42.439664712595054" lon="11.551253859282035"><ele>71.0</ele><time>2026-04-18T09:51:35.001Z</time></trkpt><trkpt lat="42.43964131391169" lon="11.551391532489586"><ele>71.0</ele><time>2026-04-18T09:51:36.001Z</time></trkpt><trkpt lat="42.43959313938252" lon="11.551525944530924"><ele>71.0</ele><time>2026-04-18T09:51:37.001Z</time></trkpt><trkpt lat="42.439556420594066" lon="11.551684772478882"><ele>70.39999999999999</ele><time>2026-04-18T09:51:38.001Z</time></trkpt><trkpt lat="42.43952588665426" lon="11.551826951382813"><ele>69.8</ele><time>2026-04-18T09:51:39.001Z</time></trkpt><trkpt lat="42.4394904366704" lon="11.55196480299996"><ele>69.19999999999999</ele><time>2026-04-18T09:51:40.001Z</time></trkpt><trkpt lat="42.439453760113544" lon="11.552087861715188"><ele>68.6</ele><time>2026-04-18T09:51:41.001Z</time></trkpt><trkpt lat="42.43941596089308" lon="11.552215614223323"><ele>68.0</ele><time>2026-04-18T09:51:42.001Z</time></trkpt><trkpt lat="42.43937758287963" lon="11.552332348565335"><ele>68.0</ele><time>2026-04-18T09:51:43.001Z</time></trkpt><trkpt lat="42.439341580665435" lon="11.552455054656017"><ele>68.0</ele><time>2026-04-18T09:51:44.001Z</time></trkpt><trkpt lat="42.439296834157105" lon="11.55258617453044"><ele>68.0</ele><time>2026-04-18T09:51:45.001Z</time></trkpt><trkpt lat="42.43925849732153" lon="11.55272974553906"><ele>68.0</ele><time>2026-04-18T09:51:46.001Z</time></trkpt><trkpt lat="42.43921106591809" lon="11.552890689624501"><ele>68.0</ele><time>2026-04-18T09:51:47.001Z</time></trkpt><trkpt lat="42.43916287194596" lon="11.553053131919171"><ele>68.25</ele><time>2026-04-18T09:51:48.001Z</time></trkpt><trkpt lat="42.43911154911166" lon="11.553205115341207"><ele>68.5</ele><time>2026-04-18T09:51:49.001Z</time></trkpt><trkpt lat="42.43905081281921" lon="11.553344954635877"><ele>68.75</ele><time>2026-04-18T09:51:50.001Z</time></trkpt><trkpt lat="42.438986651413266" lon="11.553540050065587"><ele>69.0</ele><time>2026-04-18T09:51:51.001Z</time></trkpt><trkpt lat="42.43891750388638" lon="11.553714161897801"><ele>69.25</ele><time>2026-04-18T09:51:52.001Z</time></trkpt><trkpt lat="42.4388554783735" lon="11.55387367536338"><ele>69.5</ele><time>2026-04-18T09:51:53.001Z</time></trkpt><trkpt lat="42.43879804615207" lon="11.554040860689517"><ele>69.75</ele><time>2026-04-18T09:51:54.001Z</time></trkpt><trkpt lat="42.438750886699665" lon="11.554187148509262"><ele>70.0</ele><time>2026-04-18T09:51:55.001Z</time></trkpt><trkpt lat="42.43870275414988" lon="11.554330310882273"><ele>70.0</ele><time>2026-04-18T09:51:56.001Z</time></trkpt><trkpt lat="42.438661557732246" lon="11.554485879720252"><ele>70.0</ele><time>2026-04-18T09:51:57.001Z</time></trkpt><trkpt lat="42.43863653758772" lon="11.55465977424601"><ele>70.0</ele><time>2026-04-18T09:51:58.001Z</time></trkpt><trkpt lat="42.43862273930771" lon="11.554839685737264"><ele>70.0</ele><time>2026-04-18T09:51:59.001Z</time></trkpt><trkpt lat="42.4386132384236" lon="11.555025203229324"><ele>69.5</ele><time>2026-04-18T09:52:00.001Z</time></trkpt><trkpt lat="42.4386241006985" lon="11.55520795892592"><ele>69.0</ele><time>2026-04-18T09:52:01.001Z</time></trkpt><trkpt lat="42.43865227131477" lon="11.555369503689475"><ele>68.5</ele><time>2026-04-18T09:52:02.001Z</time></trkpt><trkpt lat="42.438666606562705" lon="11.555512205053386"><ele>68.0</ele><time>2026-04-18T09:52:03.001Z</time></trkpt><trkpt lat="42.438702655006765" lon="11.555659508751779"><ele>68.25</ele><time>2026-04-18T09:52:04.001Z</time></trkpt><trkpt lat="42.43875428554685" lon="11.555815350042428"><ele>68.5</ele><time>2026-04-18T09:52:05.001Z</time></trkpt><trkpt lat="42.4388088001455" lon="11.555970327883434"><ele>68.75</ele><time>2026-04-18T09:52:06.001Z</time></trkpt><trkpt lat="42.438864157537004" lon="11.556109908942295"><ele>69.0</ele><time>2026-04-18T09:52:07.001Z</time></trkpt><trkpt lat="42.438902756380394" lon="11.5562485443694"><ele>68.0</ele><time>2026-04-18T09:52:08.001Z</time></trkpt><trkpt lat="42.43895891659201" lon="11.556490419654866"><ele>67.0</ele><time>2026-04-18T09:52:09.001Z</time></trkpt><trkpt lat="42.438997313738064" lon="11.55668913662145"><ele>66.0</ele><time>2026-04-18T09:52:10.001Z</time></trkpt><trkpt lat="42.43903691701293" lon="11.556880933793375"><ele>65.25</ele><time>2026-04-18T09:52:11.001Z</time></trkpt><trkpt lat="42.43907250114747" lon="11.557063180775325"><ele>64.5</ele><time>2026-04-18T09:52:12.001Z</time></trkpt><trkpt lat="42.43910221680986" lon="11.557238843488305"><ele>63.75</ele><time>2026-04-18T09:52:13.001Z</time></trkpt><trkpt lat="42.43912609394722" lon="11.55741540479576"><ele>63.0</ele><time>2026-04-18T09:52:14.001Z</time></trkpt><trkpt lat="42.43914442285137" lon="11.557589191226498"><ele>63.0</ele><time>2026-04-18T09:52:15.001Z</time></trkpt><trkpt lat="42.439148991318774" lon="11.557743132457494"><ele>63.0</ele><time>2026-04-18T09:52:16.001Z</time></trkpt><trkpt lat="42.439162494300824" lon="11.557881506153818"><ele>63.0</ele><time>2026-04-18T09:52:17.001Z</time></trkpt><trkpt lat="42.43916405295668" lon="11.558037306841296"><ele>63.0</ele><time>2026-04-18T09:52:18.001Z</time></trkpt><trkpt lat="42.439153056403654" lon="11.558185607676165"><ele>63.0</ele><time>2026-04-18T09:52:19.001Z</time></trkpt><trkpt lat="42.43914228402633" lon="11.558307245098405"><ele>62.5</ele><time>2026-04-18T09:52:20.001Z</time></trkpt><trkpt lat="42.4391314907579" lon="11.558411873265639"><ele>62.0</ele><time>2026-04-18T09:52:21.001Z</time></trkpt><trkpt lat="42.4391332861331" lon="11.558523745707628"><ele>61.5</ele><time>2026-04-18T09:52:22.001Z</time></trkpt><trkpt lat="42.43910997152786" lon="11.558656930275887"><ele>61.0</ele><time>2026-04-18T09:52:23.001Z</time></trkpt><trkpt lat="42.43908837442125" lon="11.558763450168666"><ele>60.5</ele><time>2026-04-18T09:52:24.001Z</time></trkpt><trkpt lat="42.43909040117902" lon="11.558877628787522"><ele>60.0</ele><time>2026-04-18T09:52:25.001Z</time></trkpt><trkpt lat="42.4390596701131" lon="11.558995611198057"><ele>59.6</ele><time>2026-04-18T09:52:26.001Z</time></trkpt><trkpt lat="42.43903646389777" lon="11.55912915114557"><ele>59.2</ele><time>2026-04-18T09:52:27.001Z</time></trkpt><trkpt lat="42.43902763095188" lon="11.559262129482908"><ele>58.8</ele><time>2026-04-18T09:52:28.001Z</time></trkpt><trkpt lat="42.43899263706119" lon="11.559392078241315"><ele>58.4</ele><time>2026-04-18T09:52:29.001Z</time></trkpt><trkpt lat="42.43896841347507" lon="11.559534786484136"><ele>58.0</ele><time>2026-04-18T09:52:30.001Z</time></trkpt><trkpt lat="42.43892077478119" lon="11.559657663926597"><ele>57.49999999999999</ele><time>2026-04-18T09:52:31.001Z</time></trkpt><trkpt lat="42.438890820918964" lon="11.559766837093571"><ele>57.0</ele><time>2026-04-18T09:52:32.001Z</time></trkpt><trkpt lat="42.43886235957181" lon="11.559869844544325"><ele>56.5</ele><time>2026-04-18T09:52:33.001Z</time></trkpt><trkpt lat="42.43883916548017" lon="11.559956108318056"><ele>56.0</ele><time>2026-04-18T09:52:34.001Z</time></trkpt><trkpt lat="42.43881595544108" lon="11.560073621896715"><ele>55.49999999999999</ele><time>2026-04-18T09:52:36.001Z</time></trkpt><trkpt lat="42.43878552136327" lon="11.560155289230876"><ele>55.0</ele><time>2026-04-18T09:52:38.001Z</time></trkpt><trkpt lat="42.43877451578331" lon="11.560260725017732"><ele>54.8</ele><time>2026-04-18T09:52:40.001Z</time></trkpt><trkpt lat="42.4387859508845" lon="11.560414025330985"><ele>54.6</ele><time>2026-04-18T09:52:42.001Z</time></trkpt><trkpt lat="42.43878304014691" lon="11.560553582531636"><ele>54.400000000000006</ele><time>2026-04-18T09:52:44.001Z</time></trkpt><trkpt lat="42.438797872612554" lon="11.560665552036951"><ele>54.2</ele><time>2026-04-18T09:53:10.001Z</time></trkpt><trkpt lat="42.438834196359984" lon="11.56079452899636"><ele>54.0</ele><time>2026-04-18T09:53:12.001Z</time></trkpt><trkpt lat="42.43883480403191" lon="11.560903045334488"><ele>54.400000000000006</ele><time>2026-04-18T09:53:14.001Z</time></trkpt><trkpt lat="42.43888689628165" lon="11.560990506267569"><ele>54.800000000000004</ele><time>2026-04-18T09:53:32.001Z</time></trkpt><trkpt lat="42.43894640018637" lon="11.561115832011918"><ele>55.199999999999996</ele><time>2026-04-18T09:53:34.001Z</time></trkpt><trkpt lat="42.43899522630422" lon="11.561275796591234"><ele>55.599999999999994</ele><time>2026-04-18T09:53:36.001Z</time></trkpt><trkpt lat="42.43901503930098" lon="11.561358950586273"><ele>56.0</ele><time>2026-04-18T09:53:37.001Z</time></trkpt><trkpt lat="42.43902051043995" lon="11.561461034477864"><ele>56.0</ele><time>2026-04-18T09:53:38.001Z</time></trkpt><trkpt lat="42.43898879631898" lon="11.56153811201364"><ele>55.99999999999999</ele><time>2026-04-18T09:53:39.001Z</time></trkpt><trkpt lat="42.43896133591713" lon="11.561652346148405"><ele>55.99999999999999</ele><time>2026-04-18T09:53:40.001Z</time></trkpt><trkpt lat="42.43892252205104" lon="11.561774108356389"><ele>56.0</ele><time>2026-04-18T09:53:41.001Z</time></trkpt><trkpt lat="42.43888324277476" lon="11.561914080720143"><ele>56.0</ele><time>2026-04-18T09:53:42.001Z</time></trkpt><trkpt lat="42.4388603136063" lon="11.562047390934806"><ele>57.0</ele><time>2026-04-18T09:53:43.001Z</time></trkpt><trkpt lat="42.43884190013421" lon="11.562198746123782"><ele>57.99999999999999</ele><time>2026-04-18T09:53:44.001Z</time></trkpt><trkpt lat="42.4388345572782" lon="11.562322630727255"><ele>58.99999999999999</ele><time>2026-04-18T09:53:45.001Z</time></trkpt><trkpt lat="42.43881480125575" lon="11.562448341197623"><ele>60.0</ele><time>2026-04-18T09:53:46.001Z</time></trkpt><trkpt lat="42.43881024921089" lon="11.56257385490198"><ele>61.0</ele><time>2026-04-18T09:53:47.001Z</time></trkpt><trkpt lat="42.43881605482725" lon="11.562691129598397"><ele>60.99999999999999</ele><time>2026-04-18T09:53:48.001Z</time></trkpt><trkpt lat="42.438774316691095" lon="11.562796948361655"><ele>61.0</ele><time>2026-04-18T09:53:49.001Z</time></trkpt><trkpt lat="42.43876829615777" lon="11.562889028147767"><ele>61.0</ele><time>2026-04-18T09:53:50.001Z</time></trkpt><trkpt lat="42.43876038982977" lon="11.562992608599606"><ele>61.0</ele><time>2026-04-18T09:53:51.001Z</time></trkpt><trkpt lat="42.43875746771464" lon="11.563123254145175"><ele>60.99999999999999</ele><time>2026-04-18T09:53:52.001Z</time></trkpt><trkpt lat="42.438760541234906" lon="11.563253827773112"><ele>61.0</ele><time>2026-04-18T09:53:53.001Z</time></trkpt><trkpt lat="42.438764165672" lon="11.563372538556937"><ele>61.599999999999994</ele><time>2026-04-18T09:53:54.001Z</time></trkpt><trkpt lat="42.438773628495035" lon="11.563534211962882"><ele>62.199999999999996</ele><time>2026-04-18T09:53:55.001Z</time></trkpt><trkpt lat="42.43879965381959" lon="11.56364542363233"><ele>62.800000000000004</ele><time>2026-04-18T09:53:56.001Z</time></trkpt><trkpt lat="42.43882011183931" lon="11.563776237945321"><ele>63.400000000000006</ele><time>2026-04-18T09:53:57.001Z</time></trkpt><trkpt lat="42.43884413399826" lon="11.56387203964716"><ele>64.0</ele><time>2026-04-18T09:53:58.001Z</time></trkpt><trkpt lat="42.438864218977365" lon="11.564008144622937"><ele>64.5</ele><time>2026-04-18T09:54:00.001Z</time></trkpt><trkpt lat="42.43890430057091" lon="11.56419665653562"><ele>65.0</ele><time>2026-04-18T09:54:02.001Z</time></trkpt><trkpt lat="42.43893897333021" lon="11.564355527893731"><ele>65.5</ele><time>2026-04-18T09:54:03.001Z</time></trkpt><trkpt lat="42.43897945181431" lon="11.564510552635733"><ele>66.0</ele><time>2026-04-18T09:54:04.001Z</time></trkpt><trkpt lat="42.43900466285117" lon="11.564660825875393"><ele>66.8</ele><time>2026-04-18T09:54:05.001Z</time></trkpt><trkpt lat="42.439046214802275" lon="11.564831756122455"><ele>67.6</ele><time>2026-04-18T09:54:06.001Z</time></trkpt><trkpt lat="42.43909361425751" lon="11.564968176142568"><ele>68.4</ele><time>2026-04-18T09:54:07.001Z</time></trkpt><trkpt lat="42.43911301498446" lon="11.565096151780448"><ele>69.2</ele><time>2026-04-18T09:54:08.001Z</time></trkpt><trkpt lat="42.43914550600206" lon="11.5652263033893"><ele>70.0</ele><time>2026-04-18T09:54:09.001Z</time></trkpt><trkpt lat="42.43918260326928" lon="11.565373383918036"><ele>71.6</ele><time>2026-04-18T09:54:10.001Z</time></trkpt><trkpt lat="42.43921692718354" lon="11.565509243209465"><ele>73.2</ele><time>2026-04-18T09:54:11.001Z</time></trkpt><trkpt lat="42.43924964339669" lon="11.56563873897302"><ele>74.8</ele><time>2026-04-18T09:54:12.001Z</time></trkpt><trkpt lat="42.43929582358765" lon="11.565757114479668"><ele>76.4</ele><time>2026-04-18T09:54:13.001Z</time></trkpt><trkpt lat="42.43930825071283" lon="11.565875212200881"><ele>78.0</ele><time>2026-04-18T09:54:14.001Z</time></trkpt><trkpt lat="42.43933068124148" lon="11.565969287399515"><ele>78.0</ele><time>2026-04-18T09:54:15.001Z</time></trkpt><trkpt lat="42.43935033790808" lon="11.566051728830496"><ele>78.0</ele><time>2026-04-18T09:54:16.001Z</time></trkpt><trkpt lat="42.439369482172125" lon="11.566134120258592"><ele>78.0</ele><time>2026-04-18T09:54:17.001Z</time></trkpt><trkpt lat="42.43938962697587" lon="11.566225438683475"><ele>78.0</ele><time>2026-04-18T09:54:18.001Z</time></trkpt><trkpt lat="42.43941059133406" lon="11.566376137997866"><ele>78.0</ele><time>2026-04-18T09:54:20.001Z</time></trkpt><trkpt lat="42.439410930308746" lon="11.566592336509009"><ele>79.0</ele><time>2026-04-18T09:54:22.001Z</time></trkpt><trkpt lat="42.4393993888134" lon="11.566687455304802"><ele>80.0</ele><time>2026-04-18T09:54:23.001Z</time></trkpt><trkpt lat="42.439382287000136" lon="11.566783795259285"><ele>81.0</ele><time>2026-04-18T09:54:24.001Z</time></trkpt><trkpt lat="42.439340360896395" lon="11.566946395555355"><ele>82.0</ele><time>2026-04-18T09:54:26.001Z</time></trkpt><trkpt lat="42.43931000778033" lon="11.567026731644322"><ele>83.0</ele><time>2026-04-18T09:54:27.001Z</time></trkpt><trkpt lat="42.439272464187454" lon="11.56712734507589"><ele>84.0</ele><time>2026-04-18T09:54:28.001Z</time></trkpt><trkpt lat="42.43923332619547" lon="11.567240368213795"><ele>84.2</ele><time>2026-04-18T09:54:29.001Z</time></trkpt><trkpt lat="42.439214847817944" lon="11.567376160369818"><ele>84.4</ele><time>2026-04-18T09:54:30.001Z</time></trkpt><trkpt lat="42.43918344044996" lon="11.567504349919664"><ele>84.6</ele><time>2026-04-18T09:54:31.001Z</time></trkpt><trkpt lat="42.43914512726038" lon="11.567614446002974"><ele>84.8</ele><time>2026-04-18T09:54:32.001Z</time></trkpt><trkpt lat="42.43911928930042" lon="11.567715402267414"><ele>85.0</ele><time>2026-04-18T09:54:33.001Z</time></trkpt><trkpt lat="42.43909226527471" lon="11.567820992819117"><ele>85.2</ele><time>2026-04-18T09:54:34.001Z</time></trkpt><trkpt lat="42.43907727346488" lon="11.567938868450465"><ele>85.4</ele><time>2026-04-18T09:54:35.001Z</time></trkpt><trkpt lat="42.43904223924504" lon="11.56806949732526"><ele>85.6</ele><time>2026-04-18T09:54:36.001Z</time></trkpt><trkpt lat="42.43900055420414" lon="11.568203514908113"><ele>85.8</ele><time>2026-04-18T09:54:37.001Z</time></trkpt><trkpt lat="42.43895643722549" lon="11.568314782662114"><ele>86.0</ele><time>2026-04-18T09:54:38.001Z</time></trkpt><trkpt lat="42.43891908809608" lon="11.568451787693585"><ele>86.0</ele><time>2026-04-18T09:54:39.001Z</time></trkpt><trkpt lat="42.43888814302283" lon="11.568581378680971"><ele>86.0</ele><time>2026-04-18T09:54:40.001Z</time></trkpt><trkpt lat="42.43884817586656" lon="11.568713181626146"><ele>86.0</ele><time>2026-04-18T09:54:41.001Z</time></trkpt><trkpt lat="42.43880898577572" lon="11.568818583323182"><ele>86.0</ele><time>2026-04-18T09:54:42.001Z</time></trkpt><trkpt lat="42.4387856385727" lon="11.56891852440621"><ele>86.0</ele><time>2026-04-18T09:54:43.001Z</time></trkpt><trkpt lat="42.43875329228778" lon="11.569000657347129"><ele>86.0</ele><time>2026-04-18T09:54:44.001Z</time></trkpt><trkpt lat="42.43871468523639" lon="11.56913581751243"><ele>86.4</ele><time>2026-04-18T09:54:46.001Z</time></trkpt><trkpt lat="42.43867310215334" lon="11.569284893806934"><ele>86.8</ele><time>2026-04-18T09:54:48.001Z</time></trkpt><trkpt lat="42.43864782192118" lon="11.569376132642937"><ele>87.2</ele><time>2026-04-18T09:54:49.001Z</time></trkpt><trkpt lat="42.43861602129253" lon="11.569490904230253"><ele>87.60000000000001</ele><time>2026-04-18T09:54:50.001Z</time></trkpt><trkpt lat="42.43858101495135" lon="11.569617245546544"><ele>88.0</ele><time>2026-04-18T09:54:51.001Z</time></trkpt><trkpt lat="42.438546366636714" lon="11.5697433945079"><ele>88.0</ele><time>2026-04-18T09:54:52.001Z</time></trkpt><trkpt lat="42.43851099428439" lon="11.569872383402435"><ele>88.0</ele><time>2026-04-18T09:54:53.001Z</time></trkpt><trkpt lat="42.438471699517656" lon="11.570015859315424"><ele>88.0</ele><time>2026-04-18T09:54:54.001Z</time></trkpt><trkpt lat="42.43844920478893" lon="11.570166464201414"><ele>88.0</ele><time>2026-04-18T09:54:55.001Z</time></trkpt><trkpt lat="42.43840794273988" lon="11.570311048682528"><ele>88.0</ele><time>2026-04-18T09:54:56.001Z</time></trkpt><trkpt lat="42.438363623394466" lon="11.570455415636022"><ele>87.60000000000001</ele><time>2026-04-18T09:54:57.001Z</time></trkpt><trkpt lat="42.438330992726264" lon="11.570608393267744"><ele>87.2</ele><time>2026-04-18T09:54:58.001Z</time></trkpt><trkpt lat="42.43829996324534" lon="11.570758015431146"><ele>86.8</ele><time>2026-04-18T09:54:59.001Z</time></trkpt><trkpt lat="42.4382717710397" lon="11.570892121224187"><ele>86.4</ele><time>2026-04-18T09:55:00.001Z</time></trkpt><trkpt lat="42.438241293665165" lon="11.57102236102561"><ele>86.0</ele><time>2026-04-18T09:55:01.001Z</time></trkpt><trkpt lat="42.43822305124977" lon="11.571141216767879"><ele>85.0</ele><time>2026-04-18T09:55:02.001Z</time></trkpt><trkpt lat="42.43819853250696" lon="11.571260921131538"><ele>84.0</ele><time>2026-04-18T09:55:03.001Z</time></trkpt><trkpt lat="42.4381828713447" lon="11.571384722318406"><ele>83.0</ele><time>2026-04-18T09:55:04.001Z</time></trkpt><trkpt lat="42.438167739069264" lon="11.571499187117757"><ele>82.0</ele><time>2026-04-18T09:55:05.001Z</time></trkpt><trkpt lat="42.43815334759115" lon="11.571594932825972"><ele>81.0</ele><time>2026-04-18T09:55:06.001Z</time></trkpt><trkpt lat="42.43810670713926" lon="11.571746085666847"><ele>81.0</ele><time>2026-04-18T09:55:08.001Z</time></trkpt><trkpt lat="42.438044976567575" lon="11.57184302385356"><ele>81.0</ele><time>2026-04-18T09:55:09.001Z</time></trkpt><trkpt lat="42.43800289656292" lon="11.571927353759024"><ele>81.0</ele><time>2026-04-18T09:55:10.001Z</time></trkpt><trkpt lat="42.43797224016892" lon="11.57202435019099"><ele>81.0</ele><time>2026-04-18T09:55:11.001Z</time></trkpt><trkpt lat="42.437900250537076" lon="11.572161670582476"><ele>81.0</ele><time>2026-04-18T09:55:13.001Z</time></trkpt><trkpt lat="42.43785555292705" lon="11.572265720578617"><ele>79.0</ele><time>2026-04-18T09:55:14.001Z</time></trkpt><trkpt lat="42.43782001365998" lon="11.572380497668615"><ele>77.0</ele><time>2026-04-18T09:55:15.001Z</time></trkpt><trkpt lat="42.43779505880897" lon="11.572505889323688"><ele>75.0</ele><time>2026-04-18T09:55:16.001Z</time></trkpt><trkpt lat="42.4377751640149" lon="11.572614892240093"><ele>73.0</ele><time>2026-04-18T09:55:17.001Z</time></trkpt><trkpt lat="42.43775683989836" lon="11.57273774473733"><ele>71.0</ele><time>2026-04-18T09:55:18.001Z</time></trkpt><trkpt lat="42.43774339347897" lon="11.572840273655332"><ele>69.0</ele><time>2026-04-18T09:55:19.001Z</time></trkpt><trkpt lat="42.437728339443254" lon="11.572955060664459"><ele>68.0</ele><time>2026-04-18T09:55:20.001Z</time></trkpt><trkpt lat="42.43771659329969" lon="11.573086041210038"><ele>67.0</ele><time>2026-04-18T09:55:21.001Z</time></trkpt><trkpt lat="42.43772031006246" lon="11.573215978770847"><ele>66.0</ele><time>2026-04-18T09:55:22.001Z</time></trkpt><trkpt lat="42.437708817155766" lon="11.573322526522936"><ele>65.0</ele><time>2026-04-18T09:55:23.001Z</time></trkpt><trkpt lat="42.43769779657313" lon="11.57342561954446"><ele>64.0</ele><time>2026-04-18T09:55:24.001Z</time></trkpt><trkpt lat="42.43769617815714" lon="11.573526176989889"><ele>63.0</ele><time>2026-04-18T09:55:25.001Z</time></trkpt><trkpt lat="42.43769207523538" lon="11.5736289497702"><ele>63.0</ele><time>2026-04-18T09:55:26.001Z</time></trkpt><trkpt lat="42.437674034662614" lon="11.573756643136903"><ele>63.0</ele><time>2026-04-18T09:55:27.001Z</time></trkpt><trkpt lat="42.437648977689925" lon="11.573857761306769"><ele>63.0</ele><time>2026-04-18T09:55:28.001Z</time></trkpt><trkpt lat="42.437617740658354" lon="11.57394734202215"><ele>63.0</ele><time>2026-04-18T09:55:29.001Z</time></trkpt><trkpt lat="42.43759094526865" lon="11.574026871938344"><ele>63.0</ele><time>2026-04-18T09:55:30.001Z</time></trkpt><trkpt lat="42.43753540709277" lon="11.574085070950888"><ele>63.0</ele><time>2026-04-18T09:55:31.001Z</time></trkpt><trkpt lat="42.437459757108556" lon="11.574202954213465"><ele>63.0</ele><time>2026-04-18T09:55:33.001Z</time></trkpt><trkpt lat="42.43743547264219" lon="11.57428963190679"><ele>63.0</ele><time>2026-04-18T09:55:34.001Z</time></trkpt><trkpt lat="42.437373891207265" lon="11.574419482627091"><ele>63.0</ele><time>2026-04-18T09:55:36.001Z</time></trkpt><trkpt lat="42.43733632810717" lon="11.574533131726303"><ele>63.0</ele><time>2026-04-18T09:55:38.001Z</time></trkpt><trkpt lat="42.43728128862437" lon="11.574663955341446"><ele>63.0</ele><time>2026-04-18T09:55:41.001Z</time></trkpt><trkpt lat="42.437242514519504" lon="11.574736802373875"><ele>63.0</ele><time>2026-04-18T09:55:43.001Z</time></trkpt><trkpt lat="42.43720736606873" lon="11.574877870383379"><ele>63.0</ele><time>2026-04-18T09:55:45.001Z</time></trkpt><trkpt lat="42.437189264286104" lon="11.574964125578685"><ele>63.0</ele><time>2026-04-18T09:55:46.001Z</time></trkpt><trkpt lat="42.43714664256098" lon="11.5750826175034"><ele>63.0</ele><time>2026-04-18T09:55:48.001Z</time></trkpt><trkpt lat="42.43713751545255" lon="11.575186524435372"><ele>63.0</ele><time>2026-04-18T09:55:50.001Z</time></trkpt><trkpt lat="42.43713730339173" lon="11.575294614866335"><ele>63.0</ele><time>2026-04-18T09:55:52.001Z</time></trkpt><trkpt lat="42.43714168179936" lon="11.575390952498788"><ele>64.0</ele><time>2026-04-18T09:55:53.001Z</time></trkpt><trkpt lat="42.437155136023875" lon="11.575506384563697"><ele>65.0</ele><time>2026-04-18T09:55:54.001Z</time></trkpt><trkpt lat="42.43717671155439" lon="11.575611523812547"><ele>66.0</ele><time>2026-04-18T09:55:55.001Z</time></trkpt><trkpt lat="42.437210772119855" lon="11.575788659890868"><ele>67.0</ele><time>2026-04-18T09:55:57.001Z</time></trkpt><trkpt lat="42.43722800283905" lon="11.57588587692662"><ele>68.0</ele><time>2026-04-18T09:55:58.001Z</time></trkpt><trkpt lat="42.437250735956376" lon="11.576019650969355"><ele>68.0</ele><time>2026-04-18T09:55:59.001Z</time></trkpt><trkpt lat="42.43726930602718" lon="11.576151144014482"><ele>68.0</ele><time>2026-04-18T09:56:00.001Z</time></trkpt><trkpt lat="42.43728288682416" lon="11.576295017355566"><ele>68.0</ele><time>2026-04-18T09:56:01.001Z</time></trkpt><trkpt lat="42.4372969923321" lon="11.57642565702053"><ele>68.0</ele><time>2026-04-18T09:56:02.001Z</time></trkpt><trkpt lat="42.437319596698046" lon="11.576549281782544"><ele>68.0</ele><time>2026-04-18T09:56:03.001Z</time></trkpt><trkpt lat="42.43735385077286" lon="11.576663794571651"><ele>68.83333333333334</ele><time>2026-04-18T09:56:04.001Z</time></trkpt><trkpt lat="42.437381608964806" lon="11.576762905479988"><ele>69.66666666666667</ele><time>2026-04-18T09:56:05.001Z</time></trkpt><trkpt lat="42.43740141880803" lon="11.576883463216364"><ele>70.5</ele><time>2026-04-18T09:56:06.001Z</time></trkpt><trkpt lat="42.4374058910757" lon="11.577000484097216"><ele>71.33333333333333</ele><time>2026-04-18T09:56:07.001Z</time></trkpt><trkpt lat="42.437400727626994" lon="11.577104566016343"><ele>72.16666666666666</ele><time>2026-04-18T09:56:08.001Z</time></trkpt><trkpt lat="42.4373892225898" lon="11.577224951197842"><ele>73.0</ele><time>2026-04-18T09:56:09.001Z</time></trkpt><trkpt lat="42.43739222002331" lon="11.57734528980071"><ele>73.16666666666666</ele><time>2026-04-18T09:56:10.001Z</time></trkpt><trkpt lat="42.43736311700837" lon="11.577462017202633"><ele>73.33333333333333</ele><time>2026-04-18T09:56:11.001Z</time></trkpt><trkpt lat="42.43734981259337" lon="11.577582835210308"><ele>73.5</ele><time>2026-04-18T09:56:12.001Z</time></trkpt><trkpt lat="42.437335346655075" lon="11.577714201073274"><ele>73.66666666666667</ele><time>2026-04-18T09:56:13.001Z</time></trkpt><trkpt lat="42.43732218478257" lon="11.577833724658257"><ele>73.83333333333334</ele><time>2026-04-18T09:56:14.001Z</time></trkpt><trkpt lat="42.43731234957916" lon="11.57792303859268"><ele>74.0</ele><time>2026-04-18T09:56:15.001Z</time></trkpt><trkpt lat="42.437296471630994" lon="11.578055991126039"><ele>74.0</ele><time>2026-04-18T09:56:17.001Z</time></trkpt><trkpt lat="42.437279815350415" lon="11.57819680911953"><ele>74.0</ele><time>2026-04-18T09:56:19.001Z</time></trkpt><trkpt lat="42.43727017443069" lon="11.578291561202944"><ele>74.0</ele><time>2026-04-18T09:56:20.001Z</time></trkpt><trkpt lat="42.43726147552745" lon="11.578391159647374"><ele>74.0</ele><time>2026-04-18T09:56:21.001Z</time></trkpt><trkpt lat="42.43725326323822" lon="11.578492988932158"><ele>74.0</ele><time>2026-04-18T09:56:22.001Z</time></trkpt><trkpt lat="42.43724297288562" lon="11.578624450837795"><ele>74.0</ele><time>2026-04-18T09:56:23.001Z</time></trkpt><trkpt lat="42.437232556870605" lon="11.578757518117346"><ele>74.0</ele><time>2026-04-18T09:56:24.001Z</time></trkpt><trkpt lat="42.43722303232994" lon="11.578879196597724"><ele>74.0</ele><time>2026-04-18T09:56:25.001Z</time></trkpt><trkpt lat="42.43721355464328" lon="11.579000276502915"><ele>74.0</ele><time>2026-04-18T09:56:26.001Z</time></trkpt><trkpt lat="42.43720238564278" lon="11.57912718583937"><ele>74.0</ele><time>2026-04-18T09:56:27.001Z</time></trkpt><trkpt lat="42.43719176162114" lon="11.579239297007755"><ele>74.0</ele><time>2026-04-18T09:56:28.001Z</time></trkpt><trkpt lat="42.43718833168411" lon="11.579361485560327"><ele>74.0</ele><time>2026-04-18T09:56:29.001Z</time></trkpt><trkpt lat="42.43716629168051" lon="11.579488849645568"><ele>74.0</ele><time>2026-04-18T09:56:30.001Z</time></trkpt><trkpt lat="42.43715557363545" lon="11.579593876249598"><ele>74.0</ele><time>2026-04-18T09:56:31.001Z</time></trkpt><trkpt lat="42.43715854330268" lon="11.57971284062148"><ele>74.0</ele><time>2026-04-18T09:56:32.001Z</time></trkpt><trkpt lat="42.43714622568492" lon="11.57983035830929"><ele>74.0</ele><time>2026-04-18T09:56:33.001Z</time></trkpt><trkpt lat="42.43711801928355" lon="11.579962447391964"><ele>74.0</ele><time>2026-04-18T09:56:34.001Z</time></trkpt><trkpt lat="42.43710505543831" lon="11.580089678956538"><ele>74.0</ele><time>2026-04-18T09:56:35.001Z</time></trkpt><trkpt lat="42.43709287416987" lon="11.58022272917374"><ele>74.0</ele><time>2026-04-18T09:56:36.001Z</time></trkpt><trkpt lat="42.43708058486474" lon="11.580364639754576"><ele>74.0</ele><time>2026-04-18T09:56:37.001Z</time></trkpt><trkpt lat="42.437070278829836" lon="11.58050468331187"><ele>74.0</ele><time>2026-04-18T09:56:38.001Z</time></trkpt><trkpt lat="42.4370617628822" lon="11.580649829347703"><ele>74.0</ele><time>2026-04-18T09:56:39.001Z</time></trkpt><trkpt lat="42.43705306259507" lon="11.580806500232207"><ele>74.4</ele><time>2026-04-18T09:56:40.001Z</time></trkpt><trkpt lat="42.437042775686486" lon="11.580942992980376"><ele>74.80000000000001</ele><time>2026-04-18T09:56:41.001Z</time></trkpt><trkpt lat="42.43703822237313" lon="11.581076280217617"><ele>75.19999999999999</ele><time>2026-04-18T09:56:42.001Z</time></trkpt><trkpt lat="42.437035304677885" lon="11.58120878067181"><ele>75.6</ele><time>2026-04-18T09:56:43.001Z</time></trkpt><trkpt lat="42.43702473284952" lon="11.581330494243874"><ele>76.0</ele><time>2026-04-18T09:56:44.001Z</time></trkpt><trkpt lat="42.437018711616396" lon="11.581445086571057"><ele>76.0</ele><time>2026-04-18T09:56:45.001Z</time></trkpt><trkpt lat="42.4370171605182" lon="11.581565799466874"><ele>76.0</ele><time>2026-04-18T09:56:46.001Z</time></trkpt><trkpt lat="42.43701501810455" lon="11.581690801925841"><ele>76.0</ele><time>2026-04-18T09:56:47.001Z</time></trkpt><trkpt lat="42.437005611546105" lon="11.581825978824913"><ele>76.0</ele><time>2026-04-18T09:56:48.001Z</time></trkpt><trkpt lat="42.43700410156531" lon="11.581953925688362"><ele>76.0</ele><time>2026-04-18T09:56:49.001Z</time></trkpt><trkpt lat="42.436998579420845" lon="11.582086554032227"><ele>75.75</ele><time>2026-04-18T09:56:50.001Z</time></trkpt><trkpt lat="42.43699429367455" lon="11.582248588396553"><ele>75.5</ele><time>2026-04-18T09:56:51.001Z</time></trkpt><trkpt lat="42.436989100860096" lon="11.582415916059052"><ele>75.25</ele><time>2026-04-18T09:56:52.001Z</time></trkpt><trkpt lat="42.436970966777814" lon="11.58255320809975"><ele>75.0</ele><time>2026-04-18T09:56:53.001Z</time></trkpt><trkpt lat="42.43696730532958" lon="11.582699460299136"><ele>74.8</ele><time>2026-04-18T09:56:54.001Z</time></trkpt><trkpt lat="42.43696430607808" lon="11.58284859594944"><ele>74.6</ele><time>2026-04-18T09:56:55.001Z</time></trkpt><trkpt lat="42.43696232235845" lon="11.582996713630093"><ele>74.4</ele><time>2026-04-18T09:56:56.001Z</time></trkpt><trkpt lat="42.43696041786751" lon="11.583138915559017"><ele>74.2</ele><time>2026-04-18T09:56:57.001Z</time></trkpt><trkpt lat="42.43696958501427" lon="11.583282777413377"><ele>74.0</ele><time>2026-04-18T09:56:58.001Z</time></trkpt><trkpt lat="42.43696332448818" lon="11.583427743023519"><ele>74.0</ele><time>2026-04-18T09:56:59.001Z</time></trkpt><trkpt lat="42.436942302093705" lon="11.583574933609992"><ele>74.0</ele><time>2026-04-18T09:57:00.001Z</time></trkpt><trkpt lat="42.43694877981065" lon="11.583718830709062"><ele>74.0</ele><time>2026-04-18T09:57:01.001Z</time></trkpt><trkpt lat="42.43692278552583" lon="11.583858161888784"><ele>74.0</ele><time>2026-04-18T09:57:02.001Z</time></trkpt><trkpt lat="42.436924528056366" lon="11.584000913834236"><ele>74.0</ele><time>2026-04-18T09:57:03.001Z</time></trkpt><trkpt lat="42.43691391015241" lon="11.584143141552527"><ele>73.4</ele><time>2026-04-18T09:57:04.001Z</time></trkpt><trkpt lat="42.436896513743655" lon="11.584282699779433"><ele>72.80000000000001</ele><time>2026-04-18T09:57:05.001Z</time></trkpt><trkpt lat="42.43688276340586" lon="11.584415425145416"><ele>72.19999999999999</ele><time>2026-04-18T09:57:06.001Z</time></trkpt><trkpt lat="42.43686395690384" lon="11.584539520036989"><ele>71.6</ele><time>2026-04-18T09:57:07.001Z</time></trkpt><trkpt lat="42.43685006721793" lon="11.584640819965685"><ele>71.0</ele><time>2026-04-18T09:57:08.001Z</time></trkpt><trkpt lat="42.43684147881549" lon="11.584757132356952"><ele>71.0</ele><time>2026-04-18T09:57:09.001Z</time></trkpt><trkpt lat="42.436819364239625" lon="11.584880774792515"><ele>71.0</ele><time>2026-04-18T09:57:10.001Z</time></trkpt><trkpt lat="42.436832753079855" lon="11.584995224003572"><ele>71.0</ele><time>2026-04-18T09:57:11.001Z</time></trkpt><trkpt lat="42.43685416931152" lon="11.58512258432012"><ele>71.0</ele><time>2026-04-18T09:57:12.001Z</time></trkpt><trkpt lat="42.43684582942365" lon="11.58524764314517"><ele>71.0</ele><time>2026-04-18T09:57:13.001Z</time></trkpt><trkpt lat="42.43684810686109" lon="11.585346235993303"><ele>71.0</ele><time>2026-04-18T09:57:14.001Z</time></trkpt><trkpt lat="42.436848245792554" lon="11.585433412271803"><ele>71.0</ele><time>2026-04-18T09:57:15.001Z</time></trkpt><trkpt lat="42.43684590447739" lon="11.585533032749039"><ele>71.0</ele><time>2026-04-18T09:57:16.001Z</time></trkpt><trkpt lat="42.43685719087298" lon="11.585643841435475"><ele>71.0</ele><time>2026-04-18T09:57:17.001Z</time></trkpt><trkpt lat="42.43684983907497" lon="11.585755885152704"><ele>71.0</ele><time>2026-04-18T09:57:18.001Z</time></trkpt><trkpt lat="42.43682564735542" lon="11.585864586794065"><ele>71.0</ele><time>2026-04-18T09:57:19.001Z</time></trkpt><trkpt lat="42.43681780339253" lon="11.585968519309658"><ele>71.0</ele><time>2026-04-18T09:57:20.001Z</time></trkpt><trkpt lat="42.43680837296867" lon="11.5860699453828"><ele>71.0</ele><time>2026-04-18T09:57:21.001Z</time></trkpt><trkpt lat="42.436798181389165" lon="11.586171702087055"><ele>71.0</ele><time>2026-04-18T09:57:22.001Z</time></trkpt><trkpt lat="42.43679504213064" lon="11.586272163197062"><ele>71.0</ele><time>2026-04-18T09:57:23.001Z</time></trkpt><trkpt lat="42.436777924370396" lon="11.586388195597904"><ele>71.0</ele><time>2026-04-18T09:57:24.001Z</time></trkpt><trkpt lat="42.4367746274822" lon="11.586503734011336"><ele>71.0</ele><time>2026-04-18T09:57:25.001Z</time></trkpt><trkpt lat="42.43677090182252" lon="11.586609736136673"><ele>71.0</ele><time>2026-04-18T09:57:26.001Z</time></trkpt><trkpt lat="42.436766344674254" lon="11.586703499607875"><ele>71.0</ele><time>2026-04-18T09:57:27.001Z</time></trkpt><trkpt lat="42.43676553332574" lon="11.586844648516443"><ele>71.0</ele><time>2026-04-18T09:57:29.001Z</time></trkpt><trkpt lat="42.436778057126254" lon="11.586944879375098"><ele>71.0</ele><time>2026-04-18T09:57:31.001Z</time></trkpt><trkpt lat="42.43677366176187" lon="11.587064096015354"><ele>71.0</ele><time>2026-04-18T09:57:34.001Z</time></trkpt><trkpt lat="42.43679252110217" lon="11.587161059198586"><ele>71.0</ele><time>2026-04-18T09:57:36.001Z</time></trkpt><trkpt lat="42.43681028417955" lon="11.5872582625076"><ele>71.0</ele><time>2026-04-18T09:57:38.001Z</time></trkpt><trkpt lat="42.43682359563355" lon="11.587351056823426"><ele>71.0</ele><time>2026-04-18T09:58:07.001Z</time></trkpt><trkpt lat="42.43680159169423" lon="11.587228670607429"><ele>71.0</ele><time>2026-04-18T09:58:32.001Z</time></trkpt><trkpt lat="42.43677410577472" lon="11.58708337807395"><ele>71.0</ele><time>2026-04-18T09:58:37.001Z</time></trkpt><trkpt lat="42.436767081643964" lon="11.586955400609977"><ele>71.0</ele><time>2026-04-18T09:58:39.001Z</time></trkpt><trkpt lat="42.43676811043916" lon="11.586859999199838"><ele>71.0</ele><time>2026-04-18T09:58:41.001Z</time></trkpt><trkpt lat="42.43675942546432" lon="11.58673031983597"><ele>71.0</ele><time>2026-04-18T09:58:43.001Z</time></trkpt><trkpt lat="42.43675392107944" lon="11.586587724149442"><ele>71.0</ele><time>2026-04-18T09:58:45.001Z</time></trkpt><trkpt lat="42.43677484573262" lon="11.586492000268848"><ele>71.0</ele><time>2026-04-18T09:58:46.001Z</time></trkpt><trkpt lat="42.43678169807101" lon="11.586394288300236"><ele>71.0</ele><time>2026-04-18T09:58:47.001Z</time></trkpt><trkpt lat="42.4367909875282" lon="11.586295916534716"><ele>71.0</ele><time>2026-04-18T09:58:48.001Z</time></trkpt><trkpt lat="42.436811291459925" lon="11.586149322502497"><ele>71.0</ele><time>2026-04-18T09:58:50.001Z</time></trkpt><trkpt lat="42.43680556308594" lon="11.586019919874952"><ele>71.0</ele><time>2026-04-18T09:58:52.001Z</time></trkpt><trkpt lat="42.436800419254325" lon="11.585875162383285"><ele>71.0</ele><time>2026-04-18T09:58:54.001Z</time></trkpt><trkpt lat="42.43681532383903" lon="11.58572505019519"><ele>71.0</ele><time>2026-04-18T09:58:56.001Z</time></trkpt><trkpt lat="42.43682645605712" lon="11.585579291012905"><ele>71.0</ele><time>2026-04-18T09:58:58.001Z</time></trkpt><trkpt lat="42.43683224636457" lon="11.58543261011158"><ele>71.0</ele><time>2026-04-18T09:59:00.001Z</time></trkpt><trkpt lat="42.4368519875116" lon="11.5852849072732"><ele>70.83333333333334</ele><time>2026-04-18T09:59:02.001Z</time></trkpt><trkpt lat="42.43684451200032" lon="11.585190610386519"><ele>70.66666666666667</ele><time>2026-04-18T09:59:04.001Z</time></trkpt><trkpt lat="42.43688151718159" lon="11.5850805153763"><ele>70.5</ele><time>2026-04-18T09:59:06.001Z</time></trkpt><trkpt lat="42.43686420598375" lon="11.584956716925575"><ele>70.33333333333333</ele><time>2026-04-18T09:59:08.001Z</time></trkpt><trkpt lat="42.43688862916341" lon="11.584859401871157"><ele>70.16666666666666</ele><time>2026-04-18T09:59:10.001Z</time></trkpt><trkpt lat="42.43684825943933" lon="11.584963410446418"><ele>70.0</ele><time>2026-04-18T09:59:27Z</time></trkpt><trkpt lat="42.43686768747658" lon="11.585054098584067"><ele>70.0</ele><time>2026-04-18T09:59:28Z</time></trkpt><trkpt lat="42.4368433711867" lon="11.585141223207076"><ele>70.0</ele><time>2026-04-18T09:59:29Z</time></trkpt><trkpt lat="42.436845615220825" lon="11.58523836995049"><ele>70.0</ele><time>2026-04-18T09:59:30Z</time></trkpt><trkpt lat="42.43682691605914" lon="11.585433353396315"><ele>70.0</ele><time>2026-04-18T09:59:32Z</time></trkpt><trkpt lat="42.43681941626561" lon="11.585545554539365"><ele>70.0</ele><time>2026-04-18T09:59:33Z</time></trkpt><trkpt lat="42.43681580797632" lon="11.585666393364665"><ele>70.2</ele><time>2026-04-18T09:59:34Z</time></trkpt><trkpt lat="42.43680492187681" lon="11.58578503799275"><ele>70.4</ele><time>2026-04-18T09:59:35Z</time></trkpt><trkpt lat="42.43679949477904" lon="11.585902227325564"><ele>70.6</ele><time>2026-04-18T09:59:36Z</time></trkpt><trkpt lat="42.43679632281522" lon="11.586025859948132"><ele>70.8</ele><time>2026-04-18T09:59:37Z</time></trkpt><trkpt lat="42.43679459943067" lon="11.586157166465279"><ele>71.0</ele><time>2026-04-18T09:59:38Z</time></trkpt><trkpt lat="42.43679007729173" lon="11.586310582518209"><ele>71.0</ele><time>2026-04-18T09:59:39Z</time></trkpt><trkpt lat="42.43676521625572" lon="11.586493741328571"><ele>71.0</ele><time>2026-04-18T09:59:40Z</time></trkpt><trkpt lat="42.4367725294473" lon="11.586598629563257"><ele>71.0</ele><time>2026-04-18T09:59:41Z</time></trkpt><trkpt lat="42.436766061086345" lon="11.586698213804748"><ele>71.0</ele><time>2026-04-18T09:59:42Z</time></trkpt><trkpt lat="42.436761206782656" lon="11.586793048443418"><ele>71.0</ele><time>2026-04-18T09:59:43Z</time></trkpt><trkpt lat="42.43677883351975" lon="11.586955283231989"><ele>71.0</ele><time>2026-04-18T09:59:45Z</time></trkpt><trkpt lat="42.436773874279204" lon="11.587090631214167"><ele>71.0</ele><time>2026-04-18T09:59:47Z</time></trkpt><trkpt lat="42.43681035085531" lon="11.587277389150398"><ele>71.0</ele><time>2026-04-18T09:59:49Z</time></trkpt><trkpt lat="42.436834060134146" lon="11.587405963422752"><ele>71.0</ele><time>2026-04-18T09:59:50Z</time></trkpt><trkpt lat="42.43685405304132" lon="11.587503938451983"><ele>71.0</ele><time>2026-04-18T09:59:51Z</time></trkpt><trkpt lat="42.43687631761262" lon="11.5876130457457"><ele>71.0</ele><time>2026-04-18T09:59:52Z</time></trkpt><trkpt lat="42.436894997369826" lon="11.587708709454251"><ele>71.0</ele><time>2026-04-18T09:59:53Z</time></trkpt><trkpt lat="42.436910731974464" lon="11.587801854018398"><ele>71.0</ele><time>2026-04-18T09:59:54Z</time></trkpt><trkpt lat="42.436944971116375" lon="11.587930435467406"><ele>71.0</ele><time>2026-04-18T09:59:56.001Z</time></trkpt><trkpt lat="42.43695818527806" lon="11.588037828670085"><ele>71.0</ele><time>2026-04-18T09:59:57.001Z</time></trkpt><trkpt lat="42.436960295370284" lon="11.588134419217633"><ele>71.0</ele><time>2026-04-18T09:59:58.001Z</time></trkpt><trkpt lat="42.43694069430165" lon="11.588254243604709"><ele>71.16666666666667</ele><time>2026-04-18T09:59:59.001Z</time></trkpt><trkpt lat="42.43694455709502" lon="11.58836576944464"><ele>71.33333333333334</ele><time>2026-04-18T10:00:00.001Z</time></trkpt><trkpt lat="42.436946601995885" lon="11.588459762692246"><ele>71.5</ele><time>2026-04-18T10:00:01.001Z</time></trkpt><trkpt lat="42.43694781357142" lon="11.58857877709348"><ele>71.66666666666667</ele><time>2026-04-18T10:00:02.001Z</time></trkpt><trkpt lat="42.43694827461618" lon="11.588705056326178"><ele>71.83333333333333</ele><time>2026-04-18T10:00:03.001Z</time></trkpt><trkpt lat="42.436959396291144" lon="11.588842472906665"><ele>72.0</ele><time>2026-04-18T10:00:04.001Z</time></trkpt><trkpt lat="42.436969567031575" lon="11.58898818394636"><ele>72.6</ele><time>2026-04-18T10:00:05.001Z</time></trkpt><trkpt lat="42.43698150824428" lon="11.589109887235711"><ele>73.2</ele><time>2026-04-18T10:00:06.001Z</time></trkpt><trkpt lat="42.436994648675764" lon="11.589241408168869"><ele>73.8</ele><time>2026-04-18T10:00:07.001Z</time></trkpt><trkpt lat="42.43700156289099" lon="11.589371338317925"><ele>74.4</ele><time>2026-04-18T10:00:08.001Z</time></trkpt><trkpt lat="42.43700422984659" lon="11.589495929082386"><ele>75.0</ele><time>2026-04-18T10:00:09.001Z</time></trkpt><trkpt lat="42.43700837406917" lon="11.58962029446839"><ele>75.4</ele><time>2026-04-18T10:00:10.001Z</time></trkpt><trkpt lat="42.43702814173922" lon="11.589747927121278"><ele>75.8</ele><time>2026-04-18T10:00:11.001Z</time></trkpt><trkpt lat="42.43704038041064" lon="11.589882479089708"><ele>76.2</ele><time>2026-04-18T10:00:12.001Z</time></trkpt><trkpt lat="42.4370532529787" lon="11.590034397523015"><ele>76.6</ele><time>2026-04-18T10:00:13.001Z</time></trkpt><trkpt lat="42.43706799405193" lon="11.59016912809114"><ele>77.0</ele><time>2026-04-18T10:00:14.001Z</time></trkpt><trkpt lat="42.4370846002769" lon="11.590322676629047"><ele>77.4</ele><time>2026-04-18T10:00:15.001Z</time></trkpt><trkpt lat="42.437094963496556" lon="11.590463472129134"><ele>77.80000000000001</ele><time>2026-04-18T10:00:16.001Z</time></trkpt><trkpt lat="42.437104010004546" lon="11.590620208527742"><ele>78.2</ele><time>2026-04-18T10:00:17.001Z</time></trkpt><trkpt lat="42.43710301087897" lon="11.590752546598758"><ele>78.60000000000001</ele><time>2026-04-18T10:00:18.001Z</time></trkpt><trkpt lat="42.43710626049702" lon="11.590868367657372"><ele>79.0</ele><time>2026-04-18T10:00:19.001Z</time></trkpt><trkpt lat="42.437111050074186" lon="11.590992379683762"><ele>79.0</ele><time>2026-04-18T10:00:21.001Z</time></trkpt><trkpt lat="42.43691753230485" lon="11.591085405578115"><ele>79.0</ele><time>2026-04-18T10:00:23.001Z</time></trkpt><trkpt lat="42.43685492195032" lon="11.591161980415626"><ele>79.0</ele><time>2026-04-18T10:00:24.001Z</time></trkpt><trkpt lat="42.436789442016696" lon="11.591240965187337"><ele>79.0</ele><time>2026-04-18T10:00:25.001Z</time></trkpt><trkpt lat="42.43672341648262" lon="11.59132733796039"><ele>79.2</ele><time>2026-04-18T10:00:26.001Z</time></trkpt><trkpt lat="42.43664708013083" lon="11.59141554017067"><ele>79.4</ele><time>2026-04-18T10:00:27.001Z</time></trkpt><trkpt lat="42.43657326191355" lon="11.591493109070345"><ele>79.6</ele><time>2026-04-18T10:00:28.001Z</time></trkpt><trkpt lat="42.43650484876524" lon="11.591573942988976"><ele>79.8</ele><time>2026-04-18T10:00:29.001Z</time></trkpt><trkpt lat="42.43643889142439" lon="11.59165905316484"><ele>80.0</ele><time>2026-04-18T10:00:30.001Z</time></trkpt><trkpt lat="42.43637216717845" lon="11.591732233577796"><ele>80.4</ele><time>2026-04-18T10:00:31.001Z</time></trkpt><trkpt lat="42.4362957308462" lon="11.591830517385613"><ele>80.8</ele><time>2026-04-18T10:00:32Z</time></trkpt><trkpt lat="42.436228263425576" lon="11.591920117388858"><ele>81.19999999999999</ele><time>2026-04-18T10:00:33Z</time></trkpt><trkpt lat="42.436165112183815" lon="11.592011002250686"><ele>81.6</ele><time>2026-04-18T10:00:34Z</time></trkpt><trkpt lat="42.43608951895749" lon="11.592113968037701"><ele>82.0</ele><time>2026-04-18T10:00:35Z</time></trkpt><trkpt lat="42.436023599419514" lon="11.592204047963929"><ele>82.16666666666666</ele><time>2026-04-18T10:00:36Z</time></trkpt><trkpt lat="42.43597881713422" lon="11.59226941261369"><ele>82.33333333333333</ele><time>2026-04-18T10:00:37Z</time></trkpt><trkpt lat="42.43589223494572" lon="11.592377817224461"><ele>82.5</ele><time>2026-04-18T10:00:39Z</time></trkpt><trkpt lat="42.43583787786558" lon="11.59244006219299"><ele>82.66666666666667</ele><time>2026-04-18T10:00:40Z</time></trkpt><trkpt lat="42.43577315522295" lon="11.59252805097743"><ele>82.83333333333334</ele><time>2026-04-18T10:00:41Z</time></trkpt><trkpt lat="42.43572779833556" lon="11.592605323542069"><ele>83.0</ele><time>2026-04-18T10:00:42Z</time></trkpt><trkpt lat="42.435669191381976" lon="11.59266113799163"><ele>83.0</ele><time>2026-04-18T10:00:43Z</time></trkpt><trkpt lat="42.43561363296336" lon="11.592730857107142"><ele>83.0</ele><time>2026-04-18T10:00:44Z</time></trkpt><trkpt lat="42.43553287080155" lon="11.592832581992939"><ele>83.0</ele><time>2026-04-18T10:00:46Z</time></trkpt><trkpt lat="42.43546382256585" lon="11.592921402060396"><ele>83.0</ele><time>2026-04-18T10:00:49Z</time></trkpt><trkpt lat="42.43538627155443" lon="11.593021159659115"><ele>83.0</ele><time>2026-04-18T10:00:51Z</time></trkpt><trkpt lat="42.43532286368679" lon="11.593102724250945"><ele>82.80000000000001</ele><time>2026-04-18T10:00:52Z</time></trkpt><trkpt lat="42.43525992678879" lon="11.593199825256052"><ele>82.6</ele><time>2026-04-18T10:00:53Z</time></trkpt><trkpt lat="42.435185791536824" lon="11.59329487045861"><ele>82.4</ele><time>2026-04-18T10:00:54Z</time></trkpt><trkpt lat="42.435106902610514" lon="11.593390349000517"><ele>82.19999999999999</ele><time>2026-04-18T10:00:55Z</time></trkpt><trkpt lat="42.435027150935994" lon="11.593486938753829"><ele>82.0</ele><time>2026-04-18T10:00:56Z</time></trkpt><trkpt lat="42.43494825141729" lon="11.593585755085174"><ele>82.8</ele><time>2026-04-18T10:00:57Z</time></trkpt><trkpt lat="42.434869717004084" lon="11.593680493483154"><ele>83.6</ele><time>2026-04-18T10:00:58Z</time></trkpt><trkpt lat="42.434792742390414" lon="11.593809385625338"><ele>84.39999999999999</ele><time>2026-04-18T10:00:59Z</time></trkpt><trkpt lat="42.43469120778049" lon="11.593922563080014"><ele>85.19999999999999</ele><time>2026-04-18T10:01:00Z</time></trkpt><trkpt lat="42.43464702731497" lon="11.593993732535386"><ele>86.0</ele><time>2026-04-18T10:01:02Z</time></trkpt><trkpt lat="42.43459134146438" lon="11.594069150521824"><ele>86.0</ele><time>2026-04-18T10:01:03Z</time></trkpt><trkpt lat="42.434533868429796" lon="11.594153887491672"><ele>86.0</ele><time>2026-04-18T10:01:04Z</time></trkpt><trkpt lat="42.43446598425283" lon="11.594241517627273"><ele>86.0</ele><time>2026-04-18T10:01:05Z</time></trkpt><trkpt lat="42.43439327166179" lon="11.594338752890899"><ele>86.0</ele><time>2026-04-18T10:01:06Z</time></trkpt><trkpt lat="42.43432150577533" lon="11.594437401458658"><ele>86.0</ele><time>2026-04-18T10:01:07Z</time></trkpt><trkpt lat="42.43424054619536" lon="11.594526286350904"><ele>87.0</ele><time>2026-04-18T10:01:08Z</time></trkpt><trkpt lat="42.43416999752072" lon="11.594616922041908"><ele>88.0</ele><time>2026-04-18T10:01:09Z</time></trkpt><trkpt lat="42.434096777116025" lon="11.59470661103935"><ele>89.0</ele><time>2026-04-18T10:01:10Z</time></trkpt><trkpt lat="42.434027182660884" lon="11.594798050514525"><ele>90.0</ele><time>2026-04-18T10:01:11Z</time></trkpt><trkpt lat="42.43396028917461" lon="11.594882137151998"><ele>91.0</ele><time>2026-04-18T10:01:12Z</time></trkpt><trkpt lat="42.4338709471699" lon="11.594995839092364"><ele>91.0</ele><time>2026-04-18T10:01:14Z</time></trkpt><trkpt lat="42.43379925593701" lon="11.595030238908606"><ele>91.0</ele><time>2026-04-18T10:01:16Z</time></trkpt><trkpt lat="42.43373085283157" lon="11.595063833703648"><ele>91.0</ele><time>2026-04-18T10:01:20Z</time></trkpt><trkpt lat="42.433729974289754" lon="11.595174377277687"><ele>91.0</ele><time>2026-04-18T10:01:23Z</time></trkpt><trkpt lat="42.43375156877706" lon="11.595079116892702"><ele>91.0</ele><time>2026-04-18T10:01:38Z</time></trkpt><trkpt lat="42.433763636435266" lon="11.594990584177898"><ele>91.0</ele><time>2026-04-18T10:01:42Z</time></trkpt><trkpt lat="42.433915356459444" lon="11.59499825357064"><ele>91.0</ele><time>2026-04-18T10:01:44Z</time></trkpt><trkpt lat="42.433954165331954" lon="11.594906568990217"><ele>91.0</ele><time>2026-04-18T10:01:45Z</time></trkpt><trkpt lat="42.434016660553" lon="11.594803233122645"><ele>91.0</ele><time>2026-04-18T10:01:47Z</time></trkpt><trkpt lat="42.43406840651387" lon="11.594741445826992"><ele>91.0</ele><time>2026-04-18T10:01:48Z</time></trkpt><trkpt lat="42.43412148443264" lon="11.594656470013234"><ele>91.0</ele><time>2026-04-18T10:01:49Z</time></trkpt><trkpt lat="42.43419318597161" lon="11.594565810636373"><ele>91.0</ele><time>2026-04-18T10:01:50Z</time></trkpt><trkpt lat="42.43426150853801" lon="11.594486413381366"><ele>90.0</ele><time>2026-04-18T10:01:51Z</time></trkpt><trkpt lat="42.434325999993426" lon="11.594412766174855"><ele>89.0</ele><time>2026-04-18T10:01:52Z</time></trkpt><trkpt lat="42.434393986587224" lon="11.594322489844208"><ele>88.0</ele><time>2026-04-18T10:01:53Z</time></trkpt><trkpt lat="42.434457169986764" lon="11.594232583345883"><ele>87.0</ele><time>2026-04-18T10:01:54Z</time></trkpt><trkpt lat="42.43452919844071" lon="11.594131713895298"><ele>86.0</ele><time>2026-04-18T10:01:55Z</time></trkpt><trkpt lat="42.43460347885676" lon="11.594044745373777"><ele>86.0</ele><time>2026-04-18T10:01:56Z</time></trkpt><trkpt lat="42.43467137640411" lon="11.593957111912825"><ele>86.0</ele><time>2026-04-18T10:01:57Z</time></trkpt><trkpt lat="42.43473490468902" lon="11.593881865936028"><ele>86.0</ele><time>2026-04-18T10:01:58Z</time></trkpt><trkpt lat="42.43479681404286" lon="11.593791394428798"><ele>86.0</ele><time>2026-04-18T10:01:59Z</time></trkpt><trkpt lat="42.4348651742737" lon="11.593693071937048"><ele>86.0</ele><time>2026-04-18T10:02:00Z</time></trkpt><trkpt lat="42.43493758996211" lon="11.593600730497235"><ele>85.19999999999999</ele><time>2026-04-18T10:02:01Z</time></trkpt><trkpt lat="42.43499156675696" lon="11.593549432401247"><ele>84.39999999999999</ele><time>2026-04-18T10:02:02Z</time></trkpt><trkpt lat="42.435047367698765" lon="11.593472582421837"><ele>83.6</ele><time>2026-04-18T10:02:03Z</time></trkpt><trkpt lat="42.43510672546361" lon="11.593411952652827"><ele>82.8</ele><time>2026-04-18T10:02:04Z</time></trkpt><trkpt lat="42.435229270291906" lon="11.593233108897762"><ele>82.0</ele><time>2026-04-18T10:02:06.001Z</time></trkpt><trkpt lat="42.4352787052098" lon="11.593168585399185"><ele>82.0</ele><time>2026-04-18T10:02:07Z</time></trkpt><trkpt lat="42.43532508789598" lon="11.593106258086323"><ele>82.0</ele><time>2026-04-18T10:02:08Z</time></trkpt><trkpt lat="42.435393994939595" lon="11.593009367948975"><ele>82.0</ele><time>2026-04-18T10:02:10Z</time></trkpt><trkpt lat="42.43547367487494" lon="11.592957642993749"><ele>82.0</ele><time>2026-04-18T10:02:12Z</time></trkpt><trkpt lat="42.43553689148127" lon="11.592902174210675"><ele>82.0</ele><time>2026-04-18T10:02:14Z</time></trkpt><trkpt lat="42.435576805772016" lon="11.592831769545395"><ele>82.0</ele><time>2026-04-18T10:02:15Z</time></trkpt><trkpt lat="42.43561996680901" lon="11.592747084651442"><ele>82.16666666666666</ele><time>2026-04-18T10:02:16Z</time></trkpt><trkpt lat="42.4356847663549" lon="11.592677137662786"><ele>82.33333333333333</ele><time>2026-04-18T10:02:17Z</time></trkpt><trkpt lat="42.43574522112943" lon="11.592591972599998"><ele>82.5</ele><time>2026-04-18T10:02:18Z</time></trkpt><trkpt lat="42.43582491350885" lon="11.592527797718416"><ele>82.66666666666667</ele><time>2026-04-18T10:02:19Z</time></trkpt><trkpt lat="42.43588111338843" lon="11.592457733256856"><ele>82.83333333333334</ele><time>2026-04-18T10:02:20Z</time></trkpt><trkpt lat="42.43593382248285" lon="11.592392343831163"><ele>83.0</ele><time>2026-04-18T10:02:21Z</time></trkpt><trkpt lat="42.43598780291353" lon="11.59232602794968"><ele>83.0</ele><time>2026-04-18T10:02:22Z</time></trkpt><trkpt lat="42.43603654894026" lon="11.592266142603444"><ele>83.0</ele><time>2026-04-18T10:02:23Z</time></trkpt><trkpt lat="42.43609038233149" lon="11.592200007343923"><ele>83.0</ele><time>2026-04-18T10:02:24Z</time></trkpt><trkpt lat="42.43615112128368" lon="11.592125388494495"><ele>83.0</ele><time>2026-04-18T10:02:25Z</time></trkpt><trkpt lat="42.43620382108859" lon="11.592060645852168"><ele>83.0</ele><time>2026-04-18T10:02:26Z</time></trkpt><trkpt lat="42.43626054024643" lon="11.591990965372666"><ele>83.0</ele><time>2026-04-18T10:02:27Z</time></trkpt><trkpt lat="42.436317691181685" lon="11.59192075443915"><ele>83.0</ele><time>2026-04-18T10:02:28Z</time></trkpt><trkpt lat="42.43637416301475" lon="11.591851377812421"><ele>82.5</ele><time>2026-04-18T10:02:29Z</time></trkpt><trkpt lat="42.436430480876446" lon="11.591782190352136"><ele>82.0</ele><time>2026-04-18T10:02:30Z</time></trkpt><trkpt lat="42.43648529246144" lon="11.591713121509484"><ele>81.5</ele><time>2026-04-18T10:02:31Z</time></trkpt><trkpt lat="42.436544516752186" lon="11.591637778297258"><ele>81.0</ele><time>2026-04-18T10:02:32Z</time></trkpt><trkpt lat="42.43659826585192" lon="11.591569400448043"><ele>80.5</ele><time>2026-04-18T10:02:33Z</time></trkpt><trkpt lat="42.4366682482877" lon="11.591476351803866"><ele>80.0</ele><time>2026-04-18T10:02:34Z</time></trkpt><trkpt lat="42.43674212137596" lon="11.59137259738797"><ele>80.0</ele><time>2026-04-18T10:02:35Z</time></trkpt><trkpt lat="42.43682215404849" lon="11.59125630156019"><ele>80.0</ele><time>2026-04-18T10:02:37Z</time></trkpt><trkpt lat="42.43686415333127" lon="11.591176359841567"><ele>80.0</ele><time>2026-04-18T10:02:38Z</time></trkpt><trkpt lat="42.43691202841423" lon="11.591110927280951"><ele>80.0</ele><time>2026-04-18T10:02:39Z</time></trkpt><trkpt lat="42.43700174945069" lon="11.591038624008412"><ele>80.0</ele><time>2026-04-18T10:02:41Z</time></trkpt><trkpt lat="42.437066463416286" lon="11.5909831638737"><ele>80.0</ele><time>2026-04-18T10:02:43Z</time></trkpt><trkpt lat="42.437117757587664" lon="11.59112347472085"><ele>80.0</ele><time>2026-04-18T10:02:48Z</time></trkpt><trkpt lat="42.43709621891847" lon="11.591294871072197"><ele>80.0</ele><time>2026-04-18T10:02:50Z</time></trkpt><trkpt lat="42.4370790657561" lon="11.591403643120334"><ele>80.0</ele><time>2026-04-18T10:02:51Z</time></trkpt><trkpt lat="42.43705833902727" lon="11.591507917370135"><ele>80.0</ele><time>2026-04-18T10:02:52Z</time></trkpt><trkpt lat="42.43703225341925" lon="11.591627150186135"><ele>80.0</ele><time>2026-04-18T10:02:53Z</time></trkpt><trkpt lat="42.437006570800115" lon="11.591744540975812"><ele>80.0</ele><time>2026-04-18T10:02:54Z</time></trkpt><trkpt lat="42.43698288108803" lon="11.591862942164779"><ele>80.0</ele><time>2026-04-18T10:02:55Z</time></trkpt><trkpt lat="42.436961623616156" lon="11.591974982236346"><ele>80.0</ele><time>2026-04-18T10:02:56Z</time></trkpt><trkpt lat="42.43694137594366" lon="11.592081700091372"><ele>80.0</ele><time>2026-04-18T10:02:57Z</time></trkpt><trkpt lat="42.43692167160898" lon="11.59218555417075"><ele>80.0</ele><time>2026-04-18T10:02:58Z</time></trkpt><trkpt lat="42.436904461581854" lon="11.592276261691918"><ele>80.0</ele><time>2026-04-18T10:02:59Z</time></trkpt><trkpt lat="42.43688833308788" lon="11.592360959887905"><ele>80.2</ele><time>2026-04-18T10:03:00Z</time></trkpt><trkpt lat="42.43687607674373" lon="11.592468646711184"><ele>80.4</ele><time>2026-04-18T10:03:01Z</time></trkpt><trkpt lat="42.436847255574094" lon="11.592585333490607"><ele>80.6</ele><time>2026-04-18T10:03:02Z</time></trkpt><trkpt lat="42.4368230459145" lon="11.592718840385523"><ele>80.8</ele><time>2026-04-18T10:03:03Z</time></trkpt><trkpt lat="42.43679741299201" lon="11.592849093824322"><ele>81.0</ele><time>2026-04-18T10:03:04Z</time></trkpt><trkpt lat="42.43676479026594" lon="11.592976036623936"><ele>81.8</ele><time>2026-04-18T10:03:05Z</time></trkpt><trkpt lat="42.436730225108256" lon="11.593092481804543"><ele>82.6</ele><time>2026-04-18T10:03:06Z</time></trkpt><trkpt lat="42.436713081951936" lon="11.593223297853449"><ele>83.4</ele><time>2026-04-18T10:03:07Z</time></trkpt><trkpt lat="42.43669186359084" lon="11.593341827287475"><ele>84.2</ele><time>2026-04-18T10:03:08Z</time></trkpt><trkpt lat="42.436658869269415" lon="11.59346891771276"><ele>85.0</ele><time>2026-04-18T10:03:09Z</time></trkpt><trkpt lat="42.436618302731" lon="11.59358599054066"><ele>85.6</ele><time>2026-04-18T10:03:10Z</time></trkpt><trkpt lat="42.436588655235646" lon="11.593712097081886"><ele>86.2</ele><time>2026-04-18T10:03:11Z</time></trkpt><trkpt lat="42.43656250554134" lon="11.59382332562106"><ele>86.80000000000001</ele><time>2026-04-18T10:03:12Z</time></trkpt><trkpt lat="42.43654350018758" lon="11.593957749016722"><ele>87.4</ele><time>2026-04-18T10:03:13Z</time></trkpt><trkpt lat="42.43652127026485" lon="11.594073259049637"><ele>88.0</ele><time>2026-04-18T10:03:14Z</time></trkpt><trkpt lat="42.43647839584618" lon="11.594182389558728"><ele>88.0</ele><time>2026-04-18T10:03:15Z</time></trkpt><trkpt lat="42.43644417122994" lon="11.59431312240536"><ele>88.0</ele><time>2026-04-18T10:03:16Z</time></trkpt><trkpt lat="42.43640338416261" lon="11.594466198041653"><ele>88.0</ele><time>2026-04-18T10:03:17Z</time></trkpt><trkpt lat="42.436371876416594" lon="11.594646715211296"><ele>88.0</ele><time>2026-04-18T10:03:18Z</time></trkpt><trkpt lat="42.436334859007445" lon="11.594783367643545"><ele>88.2</ele><time>2026-04-18T10:03:19Z</time></trkpt><trkpt lat="42.43631819838117" lon="11.594925191641215"><ele>88.4</ele><time>2026-04-18T10:03:20Z</time></trkpt><trkpt lat="42.43630739799238" lon="11.59505734353196"><ele>88.60000000000001</ele><time>2026-04-18T10:03:21Z</time></trkpt><trkpt lat="42.43629863129675" lon="11.595210841961217"><ele>88.80000000000001</ele><time>2026-04-18T10:03:22Z</time></trkpt><trkpt lat="42.43629718442596" lon="11.59538091634599"><ele>89.0</ele><time>2026-04-18T10:03:23Z</time></trkpt><trkpt lat="42.436302052346996" lon="11.595548461229498"><ele>89.0</ele><time>2026-04-18T10:03:24Z</time></trkpt><trkpt lat="42.43630707153885" lon="11.595719151785227"><ele>89.0</ele><time>2026-04-18T10:03:25Z</time></trkpt><trkpt lat="42.43630854246952" lon="11.595878894980181"><ele>89.0</ele><time>2026-04-18T10:03:26Z</time></trkpt><trkpt lat="42.43630710093601" lon="11.596047257449603"><ele>89.0</ele><time>2026-04-18T10:03:27Z</time></trkpt><trkpt lat="42.43629934638878" lon="11.596205109742932"><ele>88.6</ele><time>2026-04-18T10:03:28Z</time></trkpt><trkpt lat="42.43629007373236" lon="11.596351535516671"><ele>88.2</ele><time>2026-04-18T10:03:29Z</time></trkpt><trkpt lat="42.43628231975472" lon="11.596507849612365"><ele>87.8</ele><time>2026-04-18T10:03:30Z</time></trkpt><trkpt lat="42.436277341136176" lon="11.596631258952305"><ele>87.39999999999999</ele><time>2026-04-18T10:03:31Z</time></trkpt><trkpt lat="42.4362738198143" lon="11.596735107076007"><ele>87.0</ele><time>2026-04-18T10:03:32Z</time></trkpt><trkpt lat="42.43627126028318" lon="11.596844307544973"><ele>87.0</ele><time>2026-04-18T10:03:33Z</time></trkpt><trkpt lat="42.43627100066679" lon="11.596996866060739"><ele>87.0</ele><time>2026-04-18T10:03:35Z</time></trkpt><trkpt lat="42.43627786126106" lon="11.597171764516617"><ele>87.0</ele><time>2026-04-18T10:03:37Z</time></trkpt><trkpt lat="42.436274737362154" lon="11.597299528005484"><ele>87.0</ele><time>2026-04-18T10:03:38Z</time></trkpt><trkpt lat="42.43627709858689" lon="11.597418608574909"><ele>87.0</ele><time>2026-04-18T10:03:39Z</time></trkpt><trkpt lat="42.43627276729401" lon="11.59753764084723"><ele>86.19999999999999</ele><time>2026-04-18T10:03:40Z</time></trkpt><trkpt lat="42.43626370769477" lon="11.597686208236246"><ele>85.4</ele><time>2026-04-18T10:03:41Z</time></trkpt><trkpt lat="42.43626769636919" lon="11.597825850991326"><ele>84.6</ele><time>2026-04-18T10:03:42Z</time></trkpt><trkpt lat="42.43626196951504" lon="11.597953429245695"><ele>83.80000000000001</ele><time>2026-04-18T10:03:43Z</time></trkpt><trkpt lat="42.436262955107004" lon="11.598090675517088"><ele>83.0</ele><time>2026-04-18T10:03:44Z</time></trkpt><trkpt lat="42.436270981683" lon="11.598226786152996"><ele>82.80000000000001</ele><time>2026-04-18T10:03:45Z</time></trkpt><trkpt lat="42.43627098023065" lon="11.59837451560554"><ele>82.6</ele><time>2026-04-18T10:03:46Z</time></trkpt><trkpt lat="42.436280175997595" lon="11.598493567863258"><ele>82.4</ele><time>2026-04-18T10:03:47Z</time></trkpt><trkpt lat="42.436286279539424" lon="11.59860894191717"><ele>82.19999999999999</ele><time>2026-04-18T10:03:48Z</time></trkpt><trkpt lat="42.43629402351628" lon="11.598708064165667"><ele>82.0</ele><time>2026-04-18T10:03:49Z</time></trkpt><trkpt lat="42.43630190409524" lon="11.598868727473041"><ele>82.0</ele><time>2026-04-18T10:03:51Z</time></trkpt><trkpt lat="42.43628859432395" lon="11.598980185036204"><ele>82.0</ele><time>2026-04-18T10:03:53Z</time></trkpt><trkpt lat="42.43628995707616" lon="11.599080897499576"><ele>82.0</ele><time>2026-04-18T10:03:57Z</time></trkpt><trkpt lat="42.43629217631205" lon="11.599168912696022"><ele>82.0</ele><time>2026-04-18T10:04:00Z</time></trkpt><trkpt lat="42.43629756473017" lon="11.599273717570702"><ele>82.0</ele><time>2026-04-18T10:04:02Z</time></trkpt><trkpt lat="42.43630762910878" lon="11.599434928514967"><ele>82.0</ele><time>2026-04-18T10:04:04Z</time></trkpt><trkpt lat="42.43631476686611" lon="11.599550576244658"><ele>81.6</ele><time>2026-04-18T10:04:05Z</time></trkpt><trkpt lat="42.4363200237277" lon="11.599681083429957"><ele>81.19999999999999</ele><time>2026-04-18T10:04:06Z</time></trkpt><trkpt lat="42.43632533104146" lon="11.599812987205908"><ele>80.8</ele><time>2026-04-18T10:04:07Z</time></trkpt><trkpt lat="42.43632850724294" lon="11.599935735088328"><ele>80.4</ele><time>2026-04-18T10:04:08Z</time></trkpt><trkpt lat="42.436330545811316" lon="11.60005873391409"><ele>80.0</ele><time>2026-04-18T10:04:09Z</time></trkpt><trkpt lat="42.4363301474957" lon="11.60020984259709"><ele>80.6</ele><time>2026-04-18T10:04:10Z</time></trkpt><trkpt lat="42.4363296052027" lon="11.600344145869975"><ele>81.2</ele><time>2026-04-18T10:04:11Z</time></trkpt><trkpt lat="42.436330299754104" lon="11.600478263484362"><ele>81.80000000000001</ele><time>2026-04-18T10:04:12Z</time></trkpt><trkpt lat="42.43634488765944" lon="11.600615731808265"><ele>82.4</ele><time>2026-04-18T10:04:13Z</time></trkpt><trkpt lat="42.436347963773926" lon="11.600733904610655"><ele>83.0</ele><time>2026-04-18T10:04:14Z</time></trkpt><trkpt lat="42.436347795329745" lon="11.600836055119698"><ele>83.0</ele><time>2026-04-18T10:04:15Z</time></trkpt><trkpt lat="42.4363371174428" lon="11.60094050865056"><ele>83.0</ele><time>2026-04-18T10:04:16Z</time></trkpt><trkpt lat="42.436339432374574" lon="11.601052847963507"><ele>83.0</ele><time>2026-04-18T10:04:17Z</time></trkpt><trkpt lat="42.43634168230798" lon="11.601162033058614"><ele>83.0</ele><time>2026-04-18T10:04:18Z</time></trkpt><trkpt lat="42.43634370617611" lon="11.601279889058175"><ele>83.0</ele><time>2026-04-18T10:04:19Z</time></trkpt><trkpt lat="42.436344117780266" lon="11.60140308553191"><ele>83.0</ele><time>2026-04-18T10:04:20Z</time></trkpt><trkpt lat="42.4363428123201" lon="11.601527430348023"><ele>82.80000000000001</ele><time>2026-04-18T10:04:21Z</time></trkpt><trkpt lat="42.43634006700178" lon="11.601661122656251"><ele>82.6</ele><time>2026-04-18T10:04:22Z</time></trkpt><trkpt lat="42.436336503806395" lon="11.601787436923908"><ele>82.4</ele><time>2026-04-18T10:04:23Z</time></trkpt><trkpt lat="42.436330760475315" lon="11.601907390447668"><ele>82.19999999999999</ele><time>2026-04-18T10:04:24Z</time></trkpt><trkpt lat="42.436323869373055" lon="11.60201895910696"><ele>82.0</ele><time>2026-04-18T10:04:25Z</time></trkpt><trkpt lat="42.436331156384426" lon="11.602138042895916"><ele>81.19999999999999</ele><time>2026-04-18T10:04:26Z</time></trkpt><trkpt lat="42.436308068661816" lon="11.602272903860792"><ele>80.39999999999999</ele><time>2026-04-18T10:04:27Z</time></trkpt><trkpt lat="42.436298405209726" lon="11.602409037895738"><ele>79.6</ele><time>2026-04-18T10:04:28Z</time></trkpt><trkpt lat="42.43628705208976" lon="11.602566047512246"><ele>78.8</ele><time>2026-04-18T10:04:29Z</time></trkpt><trkpt lat="42.43629132924103" lon="11.602730379621821"><ele>78.0</ele><time>2026-04-18T10:04:30Z</time></trkpt><trkpt lat="42.436281613845495" lon="11.60289584812342"><ele>77.16666666666667</ele><time>2026-04-18T10:04:31Z</time></trkpt><trkpt lat="42.43627491318961" lon="11.603058572449402"><ele>76.33333333333333</ele><time>2026-04-18T10:04:32Z</time></trkpt><trkpt lat="42.43627129601383" lon="11.603199106612651"><ele>75.5</ele><time>2026-04-18T10:04:33Z</time></trkpt><trkpt lat="42.43626913846021" lon="11.603302257273178"><ele>74.66666666666666</ele><time>2026-04-18T10:04:34Z</time></trkpt><trkpt lat="42.43626751775823" lon="11.603408295137378"><ele>73.83333333333333</ele><time>2026-04-18T10:04:35Z</time></trkpt><trkpt lat="42.43625894658722" lon="11.603501475585372"><ele>73.0</ele><time>2026-04-18T10:04:36Z</time></trkpt><trkpt lat="42.43625196056538" lon="11.603602827179389"><ele>72.2</ele><time>2026-04-18T10:04:37Z</time></trkpt><trkpt lat="42.43625075022711" lon="11.603725947470966"><ele>71.4</ele><time>2026-04-18T10:04:38Z</time></trkpt><trkpt lat="42.4362556025497" lon="11.603861812653788"><ele>70.60000000000001</ele><time>2026-04-18T10:04:39Z</time></trkpt><trkpt lat="42.43624968094613" lon="11.603996255227537"><ele>69.8</ele><time>2026-04-18T10:04:40Z</time></trkpt><trkpt lat="42.43625220251104" lon="11.604131641893614"><ele>69.0</ele><time>2026-04-18T10:04:41Z</time></trkpt><trkpt lat="42.43625672146868" lon="11.604265101818571"><ele>69.0</ele><time>2026-04-18T10:04:42Z</time></trkpt><trkpt lat="42.43626404748351" lon="11.6043816215749"><ele>69.0</ele><time>2026-04-18T10:04:43Z</time></trkpt><trkpt lat="42.436274439427535" lon="11.604487373012917"><ele>69.0</ele><time>2026-04-18T10:04:44Z</time></trkpt><trkpt lat="42.436289726294056" lon="11.604591776413113"><ele>69.0</ele><time>2026-04-18T10:04:45Z</time></trkpt><trkpt lat="42.43629935223593" lon="11.604683642608046"><ele>69.0</ele><time>2026-04-18T10:04:46Z</time></trkpt><trkpt lat="42.43630574676636" lon="11.604807061013924"><ele>69.0</ele><time>2026-04-18T10:04:47Z</time></trkpt><trkpt lat="42.43631602783636" lon="11.604932533133653"><ele>69.0</ele><time>2026-04-18T10:04:48Z</time></trkpt><trkpt lat="42.436311925079316" lon="11.60506285263478"><ele>69.0</ele><time>2026-04-18T10:04:49Z</time></trkpt><trkpt lat="42.4363135833249" lon="11.605190842541546"><ele>69.0</ele><time>2026-04-18T10:04:50Z</time></trkpt><trkpt lat="42.436307554807755" lon="11.605305686797703"><ele>69.0</ele><time>2026-04-18T10:04:51Z</time></trkpt><trkpt lat="42.436304609704074" lon="11.605417095084132"><ele>69.0</ele><time>2026-04-18T10:04:52Z</time></trkpt><trkpt lat="42.43631180979748" lon="11.605529114993624"><ele>69.0</ele><time>2026-04-18T10:04:53Z</time></trkpt><trkpt lat="42.43631226864576" lon="11.605648815453382"><ele>69.66666666666667</ele><time>2026-04-18T10:04:54Z</time></trkpt><trkpt lat="42.4363099739894" lon="11.60574761619364"><ele>70.33333333333333</ele><time>2026-04-18T10:04:55Z</time></trkpt><trkpt lat="42.436314508136974" lon="11.605863082296018"><ele>71.0</ele><time>2026-04-18T10:04:56Z</time></trkpt><trkpt lat="42.43631601444157" lon="11.605967858018845"><ele>71.66666666666666</ele><time>2026-04-18T10:04:57Z</time></trkpt><trkpt lat="42.436316781998926" lon="11.606071714015382"><ele>72.33333333333333</ele><time>2026-04-18T10:04:58Z</time></trkpt><trkpt lat="42.436314279291516" lon="11.606194670393881"><ele>73.0</ele><time>2026-04-18T10:04:59Z</time></trkpt><trkpt lat="42.43630440112484" lon="11.606304836418424"><ele>73.0</ele><time>2026-04-18T10:05:00Z</time></trkpt><trkpt lat="42.43629122979594" lon="11.606388574184145"><ele>73.0</ele><time>2026-04-18T10:05:01Z</time></trkpt><trkpt lat="42.43628923847081" lon="11.606481121179876"><ele>73.0</ele><time>2026-04-18T10:05:02Z</time></trkpt><trkpt lat="42.43628994160326" lon="11.60658684081008"><ele>73.0</ele><time>2026-04-18T10:05:03Z</time></trkpt><trkpt lat="42.43629451975989" lon="11.606687013811946"><ele>73.0</ele><time>2026-04-18T10:05:04Z</time></trkpt><trkpt lat="42.43631343731494" lon="11.606846366035645"><ele>73.0</ele><time>2026-04-18T10:05:06Z</time></trkpt><trkpt lat="42.43631260400774" lon="11.60696641501766"><ele>74.0</ele><time>2026-04-18T10:05:07Z</time></trkpt><trkpt lat="42.436311621950146" lon="11.60709683239254"><ele>75.0</ele><time>2026-04-18T10:05:08Z</time></trkpt><trkpt lat="42.436320661603496" lon="11.607246800770822"><ele>76.0</ele><time>2026-04-18T10:05:09Z</time></trkpt><trkpt lat="42.436315241255734" lon="11.607406483003556"><ele>77.0</ele><time>2026-04-18T10:05:10Z</time></trkpt><trkpt lat="42.43631235496182" lon="11.60754687316074"><ele>78.0</ele><time>2026-04-18T10:05:11Z</time></trkpt><trkpt lat="42.43631226382967" lon="11.607678316728368"><ele>78.0</ele><time>2026-04-18T10:05:12Z</time></trkpt><trkpt lat="42.436318023404226" lon="11.60780276796485"><ele>78.0</ele><time>2026-04-18T10:05:13Z</time></trkpt><trkpt lat="42.43632395000128" lon="11.607928763897982"><ele>78.0</ele><time>2026-04-18T10:05:14Z</time></trkpt><trkpt lat="42.43632623455317" lon="11.608031181678637"><ele>78.0</ele><time>2026-04-18T10:05:15Z</time></trkpt><trkpt lat="42.43632783655417" lon="11.60812816293442"><ele>78.0</ele><time>2026-04-18T10:05:16Z</time></trkpt><trkpt lat="42.43632866792287" lon="11.608228408552465"><ele>78.0</ele><time>2026-04-18T10:05:17Z</time></trkpt><trkpt lat="42.43633347018209" lon="11.60831841964459"><ele>78.16666666666667</ele><time>2026-04-18T10:05:18Z</time></trkpt><trkpt lat="42.43634019247715" lon="11.608427588383545"><ele>78.33333333333333</ele><time>2026-04-18T10:05:19Z</time></trkpt><trkpt lat="42.436342372714456" lon="11.608531570042311"><ele>78.5</ele><time>2026-04-18T10:05:20Z</time></trkpt><trkpt lat="42.436362681043754" lon="11.608661309018892"><ele>78.66666666666666</ele><time>2026-04-18T10:05:21Z</time></trkpt><trkpt lat="42.43635229223163" lon="11.60879918798297"><ele>78.83333333333333</ele><time>2026-04-18T10:05:22Z</time></trkpt><trkpt lat="42.43635559133985" lon="11.608922209416773"><ele>79.0</ele><time>2026-04-18T10:05:23Z</time></trkpt><trkpt lat="42.43635915924266" lon="11.609055253998385"><ele>79.0</ele><time>2026-04-18T10:05:24Z</time></trkpt><trkpt lat="42.4363629539406" lon="11.60919675565073"><ele>79.0</ele><time>2026-04-18T10:05:25Z</time></trkpt><trkpt lat="42.43636719050868" lon="11.60934522375911"><ele>79.0</ele><time>2026-04-18T10:05:26Z</time></trkpt><trkpt lat="42.43637306967888" lon="11.609504311298938"><ele>79.0</ele><time>2026-04-18T10:05:27Z</time></trkpt><trkpt lat="42.43637810896589" lon="11.60964067188179"><ele>79.0</ele><time>2026-04-18T10:05:28Z</time></trkpt><trkpt lat="42.436383127885165" lon="11.609776410109061"><ele>79.6</ele><time>2026-04-18T10:05:29Z</time></trkpt><trkpt lat="42.436388767931795" lon="11.609922367619466"><ele>80.2</ele><time>2026-04-18T10:05:30Z</time></trkpt><trkpt lat="42.43639372015363" lon="11.61006439378096"><ele>80.8</ele><time>2026-04-18T10:05:31Z</time></trkpt><trkpt lat="42.43639745080892" lon="11.610228921974471"><ele>81.39999999999999</ele><time>2026-04-18T10:05:32Z</time></trkpt><trkpt lat="42.43640012116525" lon="11.610373294546436"><ele>82.0</ele><time>2026-04-18T10:05:33Z</time></trkpt><trkpt lat="42.43640248383381" lon="11.61052698588552"><ele>83.0</ele><time>2026-04-18T10:05:34Z</time></trkpt><trkpt lat="42.43640324543674" lon="11.610654338058268"><ele>84.0</ele><time>2026-04-18T10:05:35Z</time></trkpt><trkpt lat="42.436403673653324" lon="11.610765759861515"><ele>85.0</ele><time>2026-04-18T10:05:36Z</time></trkpt><trkpt lat="42.43640407479656" lon="11.610870137159454"><ele>86.0</ele><time>2026-04-18T10:05:37Z</time></trkpt><trkpt lat="42.436400424093605" lon="11.611055065999386"><ele>87.0</ele><time>2026-04-18T10:05:38Z</time></trkpt><trkpt lat="42.4363985711142" lon="11.611187621319194"><ele>87.39999999999999</ele><time>2026-04-18T10:05:39Z</time></trkpt><trkpt lat="42.43639668836518" lon="11.61132236622951"><ele>87.8</ele><time>2026-04-18T10:05:40Z</time></trkpt><trkpt lat="42.436394817824244" lon="11.611456608528266"><ele>88.2</ele><time>2026-04-18T10:05:41Z</time></trkpt><trkpt lat="42.43639303446207" lon="11.61158459432013"><ele>88.6</ele><time>2026-04-18T10:05:42Z</time></trkpt><trkpt lat="42.43639129721759" lon="11.611709270566712"><ele>89.0</ele><time>2026-04-18T10:05:43Z</time></trkpt><trkpt lat="42.43639257300244" lon="11.611821713185613"><ele>89.0</ele><time>2026-04-18T10:05:44Z</time></trkpt><trkpt lat="42.43639439512231" lon="11.611918832168222"><ele>89.0</ele><time>2026-04-18T10:05:45Z</time></trkpt><trkpt lat="42.436410987807044" lon="11.612009335487349"><ele>89.0</ele><time>2026-04-18T10:05:46Z</time></trkpt><trkpt lat="42.43639494582685" lon="11.612120190943779"><ele>89.0</ele><time>2026-04-18T10:05:48Z</time></trkpt><trkpt lat="42.4363799478755" lon="11.612208460874644"><ele>89.0</ele><time>2026-04-18T10:05:50Z</time></trkpt><trkpt lat="42.43636214411999" lon="11.612354224966948"><ele>89.0</ele><time>2026-04-18T10:05:52Z</time></trkpt><trkpt lat="42.43633922450122" lon="11.612511723441052"><ele>88.80000000000001</ele><time>2026-04-18T10:05:54Z</time></trkpt><trkpt lat="42.436326552343964" lon="11.612603966381554"><ele>88.60000000000001</ele><time>2026-04-18T10:05:56Z</time></trkpt><trkpt lat="42.436475176798325" lon="11.612667359021208"><ele>88.4</ele><time>2026-04-18T10:06:01Z</time></trkpt><trkpt lat="42.43635068806999" lon="11.612563483281686"><ele>88.2</ele><time>2026-04-18T10:06:05Z</time></trkpt><trkpt lat="42.43631325079175" lon="11.61264015814228"><ele>88.0</ele><time>2026-04-18T10:06:07Z</time></trkpt><trkpt lat="42.43635838813119" lon="11.612707201239935"><ele>88.0</ele><time>2026-04-18T10:06:18Z</time></trkpt><trkpt lat="42.43645028965295" lon="11.61265186224051"><ele>88.0</ele><time>2026-04-18T10:06:21Z</time></trkpt><trkpt lat="42.43632383358789" lon="11.612644862099122"><ele>88.0</ele><time>2026-04-18T10:06:22Z</time></trkpt><trkpt lat="42.43674300341224" lon="11.612430832911405"><ele>88.0</ele><time>2026-04-18T10:06:57Z</time></trkpt><trkpt lat="42.43681732785062" lon="11.612368285434707"><ele>88.0</ele><time>2026-04-18T10:06:58Z</time></trkpt><trkpt lat="42.43690017721398" lon="11.61232383261528"><ele>88.0</ele><time>2026-04-18T10:06:59Z</time></trkpt><trkpt lat="42.43698634925233" lon="11.612247257073802"><ele>88.0</ele><time>2026-04-18T10:07:00Z</time></trkpt><trkpt lat="42.43707538118366" lon="11.61217497557326"><ele>88.0</ele><time>2026-04-18T10:07:01Z</time></trkpt><trkpt lat="42.43717335368501" lon="11.61212051874891"><ele>88.75</ele><time>2026-04-18T10:07:02Z</time></trkpt><trkpt lat="42.43726671718428" lon="11.612028094380257"><ele>89.5</ele><time>2026-04-18T10:07:03Z</time></trkpt><trkpt lat="42.43736229844207" lon="11.611952369308101"><ele>90.25</ele><time>2026-04-18T10:07:04Z</time></trkpt><trkpt lat="42.43746254364911" lon="11.611877096093457"><ele>91.0</ele><time>2026-04-18T10:07:05Z</time></trkpt><trkpt lat="42.437568778639246" lon="11.611795138190374"><ele>91.0</ele><time>2026-04-18T10:07:06Z</time></trkpt><trkpt lat="42.43768063623156" lon="11.611710663391005"><ele>91.0</ele><time>2026-04-18T10:07:07Z</time></trkpt><trkpt lat="42.43779583361885" lon="11.611623222434533"><ele>91.0</ele><time>2026-04-18T10:07:08Z</time></trkpt><trkpt lat="42.43790850427376" lon="11.611536235298967"><ele>91.0</ele><time>2026-04-18T10:07:09Z</time></trkpt><trkpt lat="42.438025388840614" lon="11.611437751026003"><ele>91.0</ele><time>2026-04-18T10:07:10Z</time></trkpt><trkpt lat="42.43814846603935" lon="11.611359243327245"><ele>91.0</ele><time>2026-04-18T10:07:11Z</time></trkpt><trkpt lat="42.43827126786908" lon="11.611262977517802"><ele>91.0</ele><time>2026-04-18T10:07:12Z</time></trkpt><trkpt lat="42.43838372197347" lon="11.61115631578129"><ele>91.0</ele><time>2026-04-18T10:07:13Z</time></trkpt><trkpt lat="42.43850840115223" lon="11.61106442535611"><ele>91.0</ele><time>2026-04-18T10:07:14Z</time></trkpt><trkpt lat="42.43863421713091" lon="11.610962955354518"><ele>91.0</ele><time>2026-04-18T10:07:15Z</time></trkpt><trkpt lat="42.43876180054052" lon="11.61085294135547"><ele>91.0</ele><time>2026-04-18T10:07:16Z</time></trkpt><trkpt lat="42.43889715616251" lon="11.610726245651565"><ele>90.33333333333333</ele><time>2026-04-18T10:07:17Z</time></trkpt><trkpt lat="42.43903159490301" lon="11.61059077871585"><ele>89.66666666666667</ele><time>2026-04-18T10:07:18Z</time></trkpt><trkpt lat="42.439171389911124" lon="11.610444709819406"><ele>89.0</ele><time>2026-04-18T10:07:19Z</time></trkpt><trkpt lat="42.43930864100213" lon="11.610313942412438"><ele>89.66666666666667</ele><time>2026-04-18T10:07:20Z</time></trkpt><trkpt lat="42.43944739999021" lon="11.610182630403514"><ele>90.33333333333333</ele><time>2026-04-18T10:07:21Z</time></trkpt><trkpt lat="42.43959215665019" lon="11.610050147560656"><ele>91.0</ele><time>2026-04-18T10:07:22Z</time></trkpt><trkpt lat="42.43973779171288" lon="11.60991904659179"><ele>91.0</ele><time>2026-04-18T10:07:23Z</time></trkpt><trkpt lat="42.43988147489023" lon="11.609785832359552"><ele>91.0</ele><time>2026-04-18T10:07:24Z</time></trkpt><trkpt lat="42.44002247684" lon="11.609654175921497"><ele>91.0</ele><time>2026-04-18T10:07:25Z</time></trkpt><trkpt lat="42.4401705719323" lon="11.609520476611591"><ele>90.0</ele><time>2026-04-18T10:07:26Z</time></trkpt><trkpt lat="42.44030952964496" lon="11.609383224478744"><ele>89.0</ele><time>2026-04-18T10:07:27Z</time></trkpt><trkpt lat="42.44045378928144" lon="11.609245383742012"><ele>88.0</ele><time>2026-04-18T10:07:28Z</time></trkpt><trkpt lat="42.440594091278534" lon="11.609106637968624"><ele>87.66666666666666</ele><time>2026-04-18T10:07:29Z</time></trkpt><trkpt lat="42.44073814879489" lon="11.608970160882134"><ele>87.33333333333333</ele><time>2026-04-18T10:07:30Z</time></trkpt><trkpt lat="42.440881534658146" lon="11.60883978288028"><ele>87.0</ele><time>2026-04-18T10:07:31Z</time></trkpt><trkpt lat="42.44102446954356" lon="11.608706979457116"><ele>86.66666666666667</ele><time>2026-04-18T10:07:32Z</time></trkpt><trkpt lat="42.441165717272206" lon="11.608572320193119"><ele>86.33333333333334</ele><time>2026-04-18T10:07:33Z</time></trkpt><trkpt lat="42.44130501161963" lon="11.608436738347024"><ele>86.0</ele><time>2026-04-18T10:07:34Z</time></trkpt><trkpt lat="42.44144319125338" lon="11.608306939214064"><ele>85.66666666666667</ele><time>2026-04-18T10:07:35Z</time></trkpt><trkpt lat="42.441584878113574" lon="11.608181963612509"><ele>85.33333333333333</ele><time>2026-04-18T10:07:36Z</time></trkpt><trkpt lat="42.441721441724106" lon="11.608059560510165"><ele>85.0</ele><time>2026-04-18T10:07:37Z</time></trkpt><trkpt lat="42.441855213239265" lon="11.607931830443853"><ele>85.33333333333333</ele><time>2026-04-18T10:07:38Z</time></trkpt><trkpt lat="42.44199136699211" lon="11.607799781875439"><ele>85.66666666666667</ele><time>2026-04-18T10:07:39Z</time></trkpt><trkpt lat="42.44212539750078" lon="11.607673397376443"><ele>86.0</ele><time>2026-04-18T10:07:40Z</time></trkpt><trkpt lat="42.442260969502286" lon="11.607551071543543"><ele>86.0</ele><time>2026-04-18T10:07:41Z</time></trkpt><trkpt lat="42.442401450613715" lon="11.607437596205486"><ele>86.0</ele><time>2026-04-18T10:07:42Z</time></trkpt><trkpt lat="42.442554109831725" lon="11.607352401400602"><ele>86.0</ele><time>2026-04-18T10:07:43Z</time></trkpt><trkpt lat="42.442694608446494" lon="11.607229957693278"><ele>86.0</ele><time>2026-04-18T10:07:44Z</time></trkpt><trkpt lat="42.44284197964834" lon="11.607134007342255"><ele>86.0</ele><time>2026-04-18T10:07:45Z</time></trkpt><trkpt lat="42.44299491743041" lon="11.60703609354274"><ele>86.0</ele><time>2026-04-18T10:07:46Z</time></trkpt><trkpt lat="42.44314601084381" lon="11.60694121322631"><ele>85.66666666666667</ele><time>2026-04-18T10:07:47Z</time></trkpt><trkpt lat="42.4432904303969" lon="11.606845267724408"><ele>85.33333333333333</ele><time>2026-04-18T10:07:48Z</time></trkpt><trkpt lat="42.443439925023895" lon="11.606742124630202"><ele>85.0</ele><time>2026-04-18T10:07:49Z</time></trkpt><trkpt lat="42.443586302564235" lon="11.606644594325584"><ele>85.0</ele><time>2026-04-18T10:07:50Z</time></trkpt><trkpt lat="42.44372819472152" lon="11.606542673471854"><ele>85.0</ele><time>2026-04-18T10:07:51Z</time></trkpt><trkpt lat="42.44387282269543" lon="11.606439102911182"><ele>85.0</ele><time>2026-04-18T10:07:52Z</time></trkpt><trkpt lat="42.444018711533296" lon="11.606364897911336"><ele>86.0</ele><time>2026-04-18T10:07:53Z</time></trkpt><trkpt lat="42.444150721058676" lon="11.60625335051835"><ele>87.0</ele><time>2026-04-18T10:07:54Z</time></trkpt><trkpt lat="42.444297357447354" lon="11.606157232849348"><ele>88.0</ele><time>2026-04-18T10:07:55Z</time></trkpt><trkpt lat="42.4444402984378" lon="11.60606152521033"><ele>88.0</ele><time>2026-04-18T10:07:56Z</time></trkpt><trkpt lat="42.44458083405052" lon="11.605964992888143"><ele>88.0</ele><time>2026-04-18T10:07:57Z</time></trkpt><trkpt lat="42.44472710549474" lon="11.605868013449381"><ele>88.0</ele><time>2026-04-18T10:07:58Z</time></trkpt><trkpt lat="42.444871770136736" lon="11.605770987524666"><ele>89.33333333333333</ele><time>2026-04-18T10:07:59Z</time></trkpt><trkpt lat="42.445019485616875" lon="11.60566931846149"><ele>90.66666666666667</ele><time>2026-04-18T10:08:00Z</time></trkpt><trkpt lat="42.44516827901232" lon="11.6055693746856"><ele>92.0</ele><time>2026-04-18T10:08:01Z</time></trkpt><trkpt lat="42.44532086848182" lon="11.605469984099392"><ele>92.66666666666667</ele><time>2026-04-18T10:08:02Z</time></trkpt><trkpt lat="42.44547394040761" lon="11.60537071630199"><ele>93.33333333333333</ele><time>2026-04-18T10:08:03Z</time></trkpt><trkpt lat="42.445625482263736" lon="11.605269289911938"><ele>94.0</ele><time>2026-04-18T10:08:04Z</time></trkpt><trkpt lat="42.44577531782155" lon="11.605168499084717"><ele>94.0</ele><time>2026-04-18T10:08:05Z</time></trkpt><trkpt lat="42.445924563747795" lon="11.605068390506538"><ele>94.0</ele><time>2026-04-18T10:08:06Z</time></trkpt><trkpt lat="42.44607004252158" lon="11.6049740416769"><ele>94.0</ele><time>2026-04-18T10:08:07Z</time></trkpt><trkpt lat="42.446190409858715" lon="11.604890678018217"><ele>95.0</ele><time>2026-04-18T10:08:08Z</time></trkpt><trkpt lat="42.44629717972132" lon="11.604820919385224"><ele>96.0</ele><time>2026-04-18T10:08:09Z</time></trkpt><trkpt lat="42.446393557953584" lon="11.60474810116684"><ele>97.0</ele><time>2026-04-18T10:08:10Z</time></trkpt><trkpt lat="42.44646783658604" lon="11.604705524469283"><ele>98.0</ele><time>2026-04-18T10:08:11Z</time></trkpt><trkpt lat="42.44655064343457" lon="11.604668477540383"><ele>99.0</ele><time>2026-04-18T10:08:12Z</time></trkpt><trkpt lat="42.446641104271016" lon="11.604670547505613"><ele>99.0</ele><time>2026-04-18T10:08:13Z</time></trkpt><trkpt lat="42.44673747807532" lon="11.604641568817055"><ele>99.0</ele><time>2026-04-18T10:08:14Z</time></trkpt><trkpt lat="42.44682375039033" lon="11.604612045973191"><ele>99.0</ele><time>2026-04-18T10:08:15Z</time></trkpt><trkpt lat="42.44691262221892" lon="11.604580998310965"><ele>99.0</ele><time>2026-04-18T10:08:16Z</time></trkpt><trkpt lat="42.44699974696108" lon="11.604548932651948"><ele>99.0</ele><time>2026-04-18T10:08:17Z</time></trkpt><trkpt lat="42.447090035874794" lon="11.604515702439866"><ele>98.16666666666667</ele><time>2026-04-18T10:08:18Z</time></trkpt><trkpt lat="42.44716726163507" lon="11.604466075991803"><ele>97.33333333333333</ele><time>2026-04-18T10:08:19Z</time></trkpt><trkpt lat="42.44725689479744" lon="11.604439541206517"><ele>96.5</ele><time>2026-04-18T10:08:20Z</time></trkpt><trkpt lat="42.447338345779706" lon="11.604407233709615"><ele>95.66666666666666</ele><time>2026-04-18T10:08:21Z</time></trkpt><trkpt lat="42.44742532998724" lon="11.604375653777984"><ele>94.83333333333333</ele><time>2026-04-18T10:08:22Z</time></trkpt><trkpt lat="42.44750060200032" lon="11.604345879968738"><ele>94.0</ele><time>2026-04-18T10:08:23Z</time></trkpt><trkpt lat="42.44758116247465" lon="11.604340523583154"><ele>94.0</ele><time>2026-04-18T10:08:24Z</time></trkpt><trkpt lat="42.44766822260726" lon="11.604310857032523"><ele>94.0</ele><time>2026-04-18T10:08:25Z</time></trkpt><trkpt lat="42.44774894716466" lon="11.604283349388323"><ele>94.0</ele><time>2026-04-18T10:08:26Z</time></trkpt><trkpt lat="42.44783266146251" lon="11.604254555584037"><ele>94.0</ele><time>2026-04-18T10:08:27Z</time></trkpt><trkpt lat="42.44791735416302" lon="11.604225212489686"><ele>94.0</ele><time>2026-04-18T10:08:28Z</time></trkpt><trkpt lat="42.44800899360975" lon="11.604193462572772"><ele>94.0</ele><time>2026-04-18T10:08:29Z</time></trkpt><trkpt lat="42.44808816768341" lon="11.604147385516418"><ele>93.2</ele><time>2026-04-18T10:08:30Z</time></trkpt><trkpt lat="42.448183054335374" lon="11.604111157593225"><ele>92.4</ele><time>2026-04-18T10:08:31Z</time></trkpt><trkpt lat="42.44827867920693" lon="11.604088475677221"><ele>91.6</ele><time>2026-04-18T10:08:32Z</time></trkpt><trkpt lat="42.448370070556926" lon="11.604067402503842"><ele>90.8</ele><time>2026-04-18T10:08:33Z</time></trkpt><trkpt lat="42.44846672837815" lon="11.604031706021615"><ele>90.0</ele><time>2026-04-18T10:08:34Z</time></trkpt><trkpt lat="42.44855751099708" lon="11.60399613786145"><ele>90.0</ele><time>2026-04-18T10:08:35Z</time></trkpt><trkpt lat="42.44865687729751" lon="11.603934912654756"><ele>90.0</ele><time>2026-04-18T10:08:36Z</time></trkpt><trkpt lat="42.448740431355965" lon="11.603906341429044"><ele>90.0</ele><time>2026-04-18T10:08:37Z</time></trkpt><trkpt lat="42.448822199868886" lon="11.603874237343291"><ele>90.0</ele><time>2026-04-18T10:08:38Z</time></trkpt><trkpt lat="42.44891038240094" lon="11.603846223978142"><ele>90.0</ele><time>2026-04-18T10:08:39Z</time></trkpt><trkpt lat="42.44900170294728" lon="11.603811213570486"><ele>89.2</ele><time>2026-04-18T10:08:40Z</time></trkpt><trkpt lat="42.44910197578313" lon="11.603810743215595"><ele>88.4</ele><time>2026-04-18T10:08:41Z</time></trkpt><trkpt lat="42.44919764160823" lon="11.603820094172153"><ele>87.6</ele><time>2026-04-18T10:08:42Z</time></trkpt><trkpt lat="42.44928218923992" lon="11.60387192296637"><ele>86.8</ele><time>2026-04-18T10:08:43Z</time></trkpt><trkpt lat="42.449356571485225" lon="11.603949923015083"><ele>86.0</ele><time>2026-04-18T10:08:44Z</time></trkpt><trkpt lat="42.44943523411846" lon="11.604047171564691"><ele>86.0</ele><time>2026-04-18T10:08:45Z</time></trkpt><trkpt lat="42.4495271370165" lon="11.604131704870802"><ele>86.0</ele><time>2026-04-18T10:08:46Z</time></trkpt><trkpt lat="42.449631908224355" lon="11.604236138566884"><ele>86.0</ele><time>2026-04-18T10:08:47Z</time></trkpt><trkpt lat="42.44972903813107" lon="11.604337385672642"><ele>86.0</ele><time>2026-04-18T10:08:48Z</time></trkpt><trkpt lat="42.44981577326022" lon="11.604430397741268"><ele>85.5</ele><time>2026-04-18T10:08:49Z</time></trkpt><trkpt lat="42.44991515536032" lon="11.604528927147726"><ele>85.0</ele><time>2026-04-18T10:08:50Z</time></trkpt><trkpt lat="42.45000036094632" lon="11.604622608555733"><ele>84.5</ele><time>2026-04-18T10:08:51Z</time></trkpt><trkpt lat="42.45008893392599" lon="11.604719461540459"><ele>84.0</ele><time>2026-04-18T10:08:52Z</time></trkpt><trkpt lat="42.45016720591022" lon="11.604830269361745"><ele>84.0</ele><time>2026-04-18T10:08:53Z</time></trkpt><trkpt lat="42.45025056657425" lon="11.604943504514422"><ele>84.0</ele><time>2026-04-18T10:08:54Z</time></trkpt><trkpt lat="42.450310917756696" lon="11.605064935796527"><ele>84.0</ele><time>2026-04-18T10:08:55Z</time></trkpt><trkpt lat="42.45036391479889" lon="11.605211998715655"><ele>84.0</ele><time>2026-04-18T10:08:56Z</time></trkpt><trkpt lat="42.4504087675992" lon="11.605347633391023"><ele>84.0</ele><time>2026-04-18T10:08:57Z</time></trkpt><trkpt lat="42.45045652826498" lon="11.605499948720862"><ele>84.0</ele><time>2026-04-18T10:08:58Z</time></trkpt><trkpt lat="42.45050927920123" lon="11.60567425462121"><ele>84.0</ele><time>2026-04-18T10:08:59Z</time></trkpt><trkpt lat="42.450571390446534" lon="11.605881181303"><ele>84.0</ele><time>2026-04-18T10:09:00Z</time></trkpt><trkpt lat="42.45060439135638" lon="11.60599277880935"><ele>83.5</ele><time>2026-04-18T10:09:01Z</time></trkpt><trkpt lat="42.450654469515285" lon="11.606162125625387"><ele>83.0</ele><time>2026-04-18T10:09:01.999Z</time></trkpt><trkpt lat="42.450702577258596" lon="11.606327063486546"><ele>82.5</ele><time>2026-04-18T10:09:02.999Z</time></trkpt><trkpt lat="42.45075535548961" lon="11.6065105039016"><ele>82.0</ele><time>2026-04-18T10:09:03.999Z</time></trkpt><trkpt lat="42.45082423100389" lon="11.606694603958491"><ele>82.0</ele><time>2026-04-18T10:09:04.999Z</time></trkpt><trkpt lat="42.45087135744079" lon="11.60688870779413"><ele>82.0</ele><time>2026-04-18T10:09:05.999Z</time></trkpt><trkpt lat="42.45092744937973" lon="11.607106259219325"><ele>82.0</ele><time>2026-04-18T10:09:06.999Z</time></trkpt><trkpt lat="42.4509741017611" lon="11.60730909270738"><ele>82.25</ele><time>2026-04-18T10:09:07.999Z</time></trkpt><trkpt lat="42.45100170306829" lon="11.607497745552738"><ele>82.5</ele><time>2026-04-18T10:09:08.999Z</time></trkpt><trkpt lat="42.45103605978692" lon="11.607660221974314"><ele>82.75</ele><time>2026-04-18T10:09:09.999Z</time></trkpt><trkpt lat="42.45107313193258" lon="11.607809938377288"><ele>83.0</ele><time>2026-04-18T10:09:10.999Z</time></trkpt><trkpt lat="42.45112301565526" lon="11.607951966652685"><ele>83.0</ele><time>2026-04-18T10:09:11.999Z</time></trkpt><trkpt lat="42.451166980359766" lon="11.608084758649898"><ele>83.0</ele><time>2026-04-18T10:09:12.999Z</time></trkpt><trkpt lat="42.45123187721027" lon="11.608209731516252"><ele>83.0</ele><time>2026-04-18T10:09:13.999Z</time></trkpt><trkpt lat="42.451315447645406" lon="11.608346834434807"><ele>83.0</ele><time>2026-04-18T10:09:14.999Z</time></trkpt><trkpt lat="42.45138083542269" lon="11.608503599781404"><ele>81.25</ele><time>2026-04-18T10:09:15.999Z</time></trkpt><trkpt lat="42.45145709191365" lon="11.60866509193882"><ele>79.5</ele><time>2026-04-18T10:09:16.999Z</time></trkpt><trkpt lat="42.451526347961995" lon="11.608816675018264"><ele>77.75</ele><time>2026-04-18T10:09:17.999Z</time></trkpt><trkpt lat="42.451599126567636" lon="11.608975968030276"><ele>76.0</ele><time>2026-04-18T10:09:18.999Z</time></trkpt><trkpt lat="42.451677859231225" lon="11.609136588060558"><ele>76.0</ele><time>2026-04-18T10:09:19.999Z</time></trkpt><trkpt lat="42.45175892206524" lon="11.609290341613281"><ele>76.0</ele><time>2026-04-18T10:09:20.999Z</time></trkpt><trkpt lat="42.451864293843784" lon="11.609434309809796"><ele>76.0</ele><time>2026-04-18T10:09:21.999Z</time></trkpt><trkpt lat="42.45196092162296" lon="11.609570290675363"><ele>76.0</ele><time>2026-04-18T10:09:22.999Z</time></trkpt><trkpt lat="42.452054371991174" lon="11.60966631800354"><ele>75.25</ele><time>2026-04-18T10:09:23.999Z</time></trkpt><trkpt lat="42.452166394983905" lon="11.609753568464578"><ele>74.5</ele><time>2026-04-18T10:09:24.999Z</time></trkpt><trkpt lat="42.45228981303441" lon="11.609814069820876"><ele>73.75</ele><time>2026-04-18T10:09:25.999Z</time></trkpt><trkpt lat="42.452413834184554" lon="11.609862038607815"><ele>73.0</ele><time>2026-04-18T10:09:26.999Z</time></trkpt><trkpt lat="42.4524899830951" lon="11.609874448244392"><ele>73.0</ele><time>2026-04-18T10:09:27.999Z</time></trkpt><trkpt lat="42.452591707710596" lon="11.609888880455422"><ele>73.0</ele><time>2026-04-18T10:09:30.999Z</time></trkpt><trkpt lat="42.45266605255098" lon="11.609931525456076"><ele>73.0</ele><time>2026-04-18T10:09:32.999Z</time></trkpt><trkpt lat="42.45275058649336" lon="11.609954034920722"><ele>73.0</ele><time>2026-04-18T10:09:34.999Z</time></trkpt><trkpt lat="42.45281552746269" lon="11.609970088651627"><ele>73.0</ele><time>2026-04-18T10:09:35.999Z</time></trkpt><trkpt lat="42.45288532533989" lon="11.60998737681555"><ele>73.0</ele><time>2026-04-18T10:09:36.999Z</time></trkpt><trkpt lat="42.45295002669816" lon="11.610004988206878"><ele>72.83333333333333</ele><time>2026-04-18T10:09:37.999Z</time></trkpt><trkpt lat="42.45301911677711" lon="11.610030815738265"><ele>72.66666666666666</ele><time>2026-04-18T10:09:38.999Z</time></trkpt><trkpt lat="42.453100260098005" lon="11.6100721676087"><ele>72.5</ele><time>2026-04-18T10:09:39.999Z</time></trkpt><trkpt lat="42.45317313669207" lon="11.610124754315436"><ele>72.33333333333333</ele><time>2026-04-18T10:09:40.999Z</time></trkpt><trkpt lat="42.45323869226858" lon="11.610177751246649"><ele>72.16666666666667</ele><time>2026-04-18T10:09:41.999Z</time></trkpt><trkpt lat="42.453307045486646" lon="11.610235102452986"><ele>72.0</ele><time>2026-04-18T10:09:42.999Z</time></trkpt><trkpt lat="42.453368891130935" lon="11.610282524030403"><ele>71.75</ele><time>2026-04-18T10:09:43.999Z</time></trkpt><trkpt lat="42.453476579346656" lon="11.61038782044506"><ele>71.5</ele><time>2026-04-18T10:09:45.999Z</time></trkpt><trkpt lat="42.4535756458185" lon="11.610455850317946"><ele>71.25</ele><time>2026-04-18T10:09:47.999Z</time></trkpt><trkpt lat="42.45366667088235" lon="11.610564365804276"><ele>71.0</ele><time>2026-04-18T10:09:49.999Z</time></trkpt><trkpt lat="42.45374742676809" lon="11.610639945124953"><ele>71.39999999999999</ele><time>2026-04-18T10:09:51.999Z</time></trkpt><trkpt lat="42.45385952271435" lon="11.61072668842607"><ele>71.8</ele><time>2026-04-18T10:09:53.999Z</time></trkpt><trkpt lat="42.45393073470682" lon="11.610813174289728"><ele>72.19999999999999</ele><time>2026-04-18T10:09:55.999Z</time></trkpt><trkpt lat="42.45399413696343" lon="11.61087309049709"><ele>72.6</ele><time>2026-04-18T10:09:56.999Z</time></trkpt><trkpt lat="42.454073992930425" lon="11.610949116376748"><ele>73.0</ele><time>2026-04-18T10:09:58.999Z</time></trkpt><trkpt lat="42.454150116813416" lon="11.611021654461293"><ele>73.0</ele><time>2026-04-18T10:10:00.999Z</time></trkpt><trkpt lat="42.454216709323134" lon="11.611085110096726"><ele>73.0</ele><time>2026-04-18T10:10:02.999Z</time></trkpt><trkpt lat="42.45430459220541" lon="11.611188238048106"><ele>73.0</ele><time>2026-04-18T10:10:04.999Z</time></trkpt><trkpt lat="42.45436552858428" lon="11.611239515565677"><ele>73.0</ele><time>2026-04-18T10:10:05.999Z</time></trkpt><trkpt lat="42.454427017795936" lon="11.61128222756877"><ele>73.0</ele><time>2026-04-18T10:10:06.999Z</time></trkpt><trkpt lat="42.45448478170796" lon="11.611333936806489"><ele>73.0</ele><time>2026-04-18T10:10:07.999Z</time></trkpt><trkpt lat="42.45454541286128" lon="11.611383286273371"><ele>72.83333333333333</ele><time>2026-04-18T10:10:08.999Z</time></trkpt><trkpt lat="42.45462503960972" lon="11.611445101931878"><ele>72.66666666666666</ele><time>2026-04-18T10:10:09.999Z</time></trkpt><trkpt lat="42.45469110384241" lon="11.611509542988607"><ele>72.5</ele><time>2026-04-18T10:10:10.999Z</time></trkpt><trkpt lat="42.454760379239644" lon="11.611575206574962"><ele>72.33333333333333</ele><time>2026-04-18T10:10:11.999Z</time></trkpt><trkpt lat="42.454843679679776" lon="11.611642169568027"><ele>72.16666666666667</ele><time>2026-04-18T10:10:12.999Z</time></trkpt><trkpt lat="42.454923242868546" lon="11.611696238491339"><ele>72.0</ele><time>2026-04-18T10:10:13.999Z</time></trkpt><trkpt lat="42.45500280825137" lon="11.611767980275234"><ele>72.0</ele><time>2026-04-18T10:10:14.999Z</time></trkpt><trkpt lat="42.45508131350266" lon="11.611821930759065"><ele>72.0</ele><time>2026-04-18T10:10:15.999Z</time></trkpt><trkpt lat="42.45516110635138" lon="11.611874957864101"><ele>72.0</ele><time>2026-04-18T10:10:16.999Z</time></trkpt><trkpt lat="42.45523984699867" lon="11.611925741369351"><ele>72.0</ele><time>2026-04-18T10:10:17.999Z</time></trkpt><trkpt lat="42.455301910736736" lon="11.611965769173446"><ele>72.0</ele><time>2026-04-18T10:10:18.999Z</time></trkpt><trkpt lat="42.45537523113675" lon="11.612013056888113"><ele>72.0</ele><time>2026-04-18T10:10:19.999Z</time></trkpt><trkpt lat="42.45544577280984" lon="11.612035517822214"><ele>72.0</ele><time>2026-04-18T10:10:20.999Z</time></trkpt><trkpt lat="42.45550275850596" lon="11.612079663145805"><ele>72.0</ele><time>2026-04-18T10:10:21.999Z</time></trkpt><trkpt lat="42.45556616177017" lon="11.612128820009485"><ele>72.0</ele><time>2026-04-18T10:10:22.999Z</time></trkpt><trkpt lat="42.455635629353324" lon="11.612185414549096"><ele>72.0</ele><time>2026-04-18T10:10:23.999Z</time></trkpt><trkpt lat="42.45575577621613" lon="11.6122586608089"><ele>72.0</ele><time>2026-04-18T10:10:25.999Z</time></trkpt><trkpt lat="42.45581735493872" lon="11.612296443640895"><ele>72.0</ele><time>2026-04-18T10:10:26.999Z</time></trkpt><trkpt lat="42.45589146150364" lon="11.612334778463591"><ele>72.0</ele><time>2026-04-18T10:10:27.999Z</time></trkpt><trkpt lat="42.455963951237344" lon="11.612371835010912"><ele>72.0</ele><time>2026-04-18T10:10:28.999Z</time></trkpt><trkpt lat="42.45606299057286" lon="11.612448216406193"><ele>72.0</ele><time>2026-04-18T10:10:30.999Z</time></trkpt><trkpt lat="42.45612936684509" lon="11.612486324040752"><ele>72.0</ele><time>2026-04-18T10:10:31.999Z</time></trkpt><trkpt lat="42.45620077120456" lon="11.61252507423223"><ele>72.0</ele><time>2026-04-18T10:10:32.999Z</time></trkpt><trkpt lat="42.45628396086522" lon="11.612542503668262"><ele>72.0</ele><time>2026-04-18T10:10:33.999Z</time></trkpt><trkpt lat="42.4563652904316" lon="11.612594422448616"><ele>72.6</ele><time>2026-04-18T10:10:34.999Z</time></trkpt><trkpt lat="42.45645382839016" lon="11.612638324562422"><ele>73.2</ele><time>2026-04-18T10:10:35.999Z</time></trkpt><trkpt lat="42.456542451124996" lon="11.612670797631377"><ele>73.8</ele><time>2026-04-18T10:10:36.999Z</time></trkpt><trkpt lat="42.45663658833678" lon="11.612696485020221"><ele>74.4</ele><time>2026-04-18T10:10:37.999Z</time></trkpt><trkpt lat="42.456738073893966" lon="11.61275082552003"><ele>75.0</ele><time>2026-04-18T10:10:38.999Z</time></trkpt><trkpt lat="42.4568490361191" lon="11.612774025387619"><ele>75.0</ele><time>2026-04-18T10:10:39.999Z</time></trkpt><trkpt lat="42.45695415490456" lon="11.612763694130457"><ele>75.0</ele><time>2026-04-18T10:10:40.999Z</time></trkpt><trkpt lat="42.457057492244985" lon="11.612775416905453"><ele>75.0</ele><time>2026-04-18T10:10:41.999Z</time></trkpt><trkpt lat="42.45717416998278" lon="11.612765912427577"><ele>75.0</ele><time>2026-04-18T10:10:42.999Z</time></trkpt><trkpt lat="42.4572854515658" lon="11.612736871960449"><ele>75.0</ele><time>2026-04-18T10:10:43.999Z</time></trkpt><trkpt lat="42.4573980755923" lon="11.612702572001806"><ele>75.0</ele><time>2026-04-18T10:10:44.999Z</time></trkpt><trkpt lat="42.45750925551963" lon="11.612675332357645"><ele>75.0</ele><time>2026-04-18T10:10:45.999Z</time></trkpt><trkpt lat="42.45762620035706" lon="11.612644231424492"><ele>75.0</ele><time>2026-04-18T10:10:46.999Z</time></trkpt><trkpt lat="42.45774321361641" lon="11.612617998481737"><ele>75.0</ele><time>2026-04-18T10:10:47.999Z</time></trkpt><trkpt lat="42.45787694248053" lon="11.612602125937736"><ele>75.0</ele><time>2026-04-18T10:10:48.999Z</time></trkpt><trkpt lat="42.4579900277612" lon="11.612587494754269"><ele>75.0</ele><time>2026-04-18T10:10:49.999Z</time></trkpt><trkpt lat="42.45810100462902" lon="11.612565416842592"><ele>75.0</ele><time>2026-04-18T10:10:50.999Z</time></trkpt><trkpt lat="42.458211455809014" lon="11.612548776395647"><ele>75.0</ele><time>2026-04-18T10:10:51.999Z</time></trkpt><trkpt lat="42.45830550599971" lon="11.612563088759103"><ele>75.0</ele><time>2026-04-18T10:10:52.999Z</time></trkpt><trkpt lat="42.458412829237176" lon="11.612554682890936"><ele>75.0</ele><time>2026-04-18T10:10:53.999Z</time></trkpt><trkpt lat="42.45852082462841" lon="11.612545894004"><ele>75.0</ele><time>2026-04-18T10:10:54.999Z</time></trkpt><trkpt lat="42.458636778696906" lon="11.612533534644655"><ele>75.0</ele><time>2026-04-18T10:10:55.999Z</time></trkpt><trkpt lat="42.45873667092325" lon="11.612505071868105"><ele>75.0</ele><time>2026-04-18T10:10:56.999Z</time></trkpt><trkpt lat="42.458852287402415" lon="11.612514058726894"><ele>75.0</ele><time>2026-04-18T10:10:57.999Z</time></trkpt><trkpt lat="42.4589611453286" lon="11.612514327712258"><ele>75.0</ele><time>2026-04-18T10:10:58.999Z</time></trkpt><trkpt lat="42.45907412176011" lon="11.612522256487841"><ele>75.0</ele><time>2026-04-18T10:10:59.999Z</time></trkpt><trkpt lat="42.459181657505894" lon="11.612532280571992"><ele>75.0</ele><time>2026-04-18T10:11:00.999Z</time></trkpt><trkpt lat="42.459262000108254" lon="11.612540708982166"><ele>75.0</ele><time>2026-04-18T10:11:01.999Z</time></trkpt><trkpt lat="42.459356012680566" lon="11.612534196155575"><ele>75.0</ele><time>2026-04-18T10:11:03.999Z</time></trkpt><trkpt lat="42.45942129380116" lon="11.612559557115274"><ele>75.0</ele><time>2026-04-18T10:11:05.999Z</time></trkpt><trkpt lat="42.459527460486164" lon="11.612565068952174"><ele>75.0</ele><time>2026-04-18T10:11:08.999Z</time></trkpt><trkpt lat="42.45962514114387" lon="11.612558540600727"><ele>75.0</ele><time>2026-04-18T10:11:10.999Z</time></trkpt><trkpt lat="42.45974379033488" lon="11.612542506550904"><ele>75.0</ele><time>2026-04-18T10:11:12.999Z</time></trkpt><trkpt lat="42.4598503868717" lon="11.612563320597713"><ele>75.0</ele><time>2026-04-18T10:11:14.999Z</time></trkpt><trkpt lat="42.4599320781612" lon="11.612569094026114"><ele>75.16666666666667</ele><time>2026-04-18T10:11:16.999Z</time></trkpt><trkpt lat="42.460029754994196" lon="11.612577636588009"><ele>75.33333333333333</ele><time>2026-04-18T10:11:18.999Z</time></trkpt><trkpt lat="42.46012379891471" lon="11.612586578127397"><ele>75.5</ele><time>2026-04-18T10:11:20.999Z</time></trkpt><trkpt lat="42.46019596517835" lon="11.612593439571679"><ele>75.66666666666666</ele><time>2026-04-18T10:11:22.999Z</time></trkpt><trkpt lat="42.46027983061448" lon="11.61260315633614"><ele>75.83333333333333</ele><time>2026-04-18T10:11:24.999Z</time></trkpt><trkpt lat="42.460371629397024" lon="11.612624838364496"><ele>76.0</ele><time>2026-04-18T10:11:26.999Z</time></trkpt><trkpt lat="42.460480899959414" lon="11.612659588938754"><ele>76.25</ele><time>2026-04-18T10:11:28.999Z</time></trkpt><trkpt lat="42.460586428832336" lon="11.612695491104427"><ele>76.5</ele><time>2026-04-18T10:11:30.999Z</time></trkpt><trkpt lat="42.46069867578323" lon="11.612713918765575"><ele>76.75</ele><time>2026-04-18T10:11:32.999Z</time></trkpt><trkpt lat="42.460811668946825" lon="11.612767832235955"><ele>77.0</ele><time>2026-04-18T10:11:34.999Z</time></trkpt><trkpt lat="42.460938586103616" lon="11.612786988562737"><ele>77.0</ele><time>2026-04-18T10:11:36.999Z</time></trkpt><trkpt lat="42.46101777091512" lon="11.612792486488146"><ele>77.0</ele><time>2026-04-18T10:11:37.999Z</time></trkpt><trkpt lat="42.46110199003376" lon="11.61280051234895"><ele>77.0</ele><time>2026-04-18T10:11:38.999Z</time></trkpt><trkpt lat="42.46119063483985" lon="11.612797436314592"><ele>77.0</ele><time>2026-04-18T10:11:39.999Z</time></trkpt><trkpt lat="42.4612795604885" lon="11.612780754380069"><ele>77.0</ele><time>2026-04-18T10:11:40.999Z</time></trkpt><trkpt lat="42.461358227919234" lon="11.6127725997346"><ele>77.0</ele><time>2026-04-18T10:11:41.999Z</time></trkpt><trkpt lat="42.46143887184238" lon="11.612786005374364"><ele>77.16666666666667</ele><time>2026-04-18T10:11:42.999Z</time></trkpt><trkpt lat="42.46152032453664" lon="11.612778639840522"><ele>77.33333333333334</ele><time>2026-04-18T10:11:43.999Z</time></trkpt><trkpt lat="42.461603427712774" lon="11.612776491009887"><ele>77.5</ele><time>2026-04-18T10:11:44.999Z</time></trkpt><trkpt lat="42.461673575416356" lon="11.612781507699118"><ele>77.66666666666667</ele><time>2026-04-18T10:11:45.999Z</time></trkpt><trkpt lat="42.46174030071187" lon="11.612825535295352"><ele>77.83333333333333</ele><time>2026-04-18T10:11:47.999Z</time></trkpt><trkpt lat="42.461833095881815" lon="11.612903127202166"><ele>78.0</ele><time>2026-04-18T10:11:50.999Z</time></trkpt><trkpt lat="42.46191729486669" lon="11.612958332124474"><ele>77.5</ele><time>2026-04-18T10:11:51.999Z</time></trkpt><trkpt lat="42.461997487883124" lon="11.612990912391291"><ele>77.0</ele><time>2026-04-18T10:11:52.999Z</time></trkpt><trkpt lat="42.46208052469983" lon="11.612987106794632"><ele>76.5</ele><time>2026-04-18T10:11:53.999Z</time></trkpt><trkpt lat="42.46214448302703" lon="11.612978557877632"><ele>76.0</ele><time>2026-04-18T10:11:54.999Z</time></trkpt><trkpt lat="42.4622123187458" lon="11.61297125199887"><ele>75.5</ele><time>2026-04-18T10:11:55.999Z</time></trkpt><trkpt lat="42.462290921731565" lon="11.612962786486374"><ele>75.0</ele><time>2026-04-18T10:11:56.999Z</time></trkpt><trkpt lat="42.462385152216406" lon="11.612953125741285"><ele>75.0</ele><time>2026-04-18T10:11:57.999Z</time></trkpt><trkpt lat="42.462477445185364" lon="11.612945980678552"><ele>75.0</ele><time>2026-04-18T10:11:58.999Z</time></trkpt><trkpt lat="42.46256253153917" lon="11.612945276280849"><ele>75.0</ele><time>2026-04-18T10:11:59.999Z</time></trkpt><trkpt lat="42.46265103601855" lon="11.61295676094836"><ele>75.0</ele><time>2026-04-18T10:12:00.999Z</time></trkpt><trkpt lat="42.462736124906684" lon="11.612969798188054"><ele>75.0</ele><time>2026-04-18T10:12:01.999Z</time></trkpt><trkpt lat="42.4628172662458" lon="11.612972022873423"><ele>75.0</ele><time>2026-04-18T10:12:02.999Z</time></trkpt><trkpt lat="42.46296367395803" lon="11.612998323404977"><ele>75.4</ele><time>2026-04-18T10:12:04.999Z</time></trkpt><trkpt lat="42.46306525152492" lon="11.613000612743692"><ele>75.8</ele><time>2026-04-18T10:12:06.999Z</time></trkpt><trkpt lat="42.46319649281317" lon="11.612991865594589"><ele>76.2</ele><time>2026-04-18T10:12:08.999Z</time></trkpt><trkpt lat="42.463320105630814" lon="11.612953109706192"><ele>76.6</ele><time>2026-04-18T10:12:10.999Z</time></trkpt><trkpt lat="42.463399436734846" lon="11.6129152184776"><ele>77.0</ele><time>2026-04-18T10:12:11.999Z</time></trkpt><trkpt lat="42.46348021168983" lon="11.612878248175663"><ele>77.0</ele><time>2026-04-18T10:12:12.999Z</time></trkpt><trkpt lat="42.46354386020789" lon="11.61285349923637"><ele>77.0</ele><time>2026-04-18T10:12:13.999Z</time></trkpt><trkpt lat="42.46360618880358" lon="11.612830475931316"><ele>77.0</ele><time>2026-04-18T10:12:14.999Z</time></trkpt><trkpt lat="42.463735144761856" lon="11.612807109234375"><ele>77.0</ele><time>2026-04-18T10:12:16.999Z</time></trkpt><trkpt lat="42.46379859200041" lon="11.612805935973098"><ele>77.0</ele><time>2026-04-18T10:12:17.999Z</time></trkpt><trkpt lat="42.46387572349628" lon="11.612810499342473"><ele>77.0</ele><time>2026-04-18T10:12:18.999Z</time></trkpt><trkpt lat="42.46399045577701" lon="11.612820636930298"><ele>76.8</ele><time>2026-04-18T10:12:20.999Z</time></trkpt><trkpt lat="42.464056065801216" lon="11.612826623515891"><ele>76.6</ele><time>2026-04-18T10:12:22.999Z</time></trkpt><trkpt lat="42.46411943118796" lon="11.612833897886194"><ele>76.39999999999999</ele><time>2026-04-18T10:12:24.999Z</time></trkpt><trkpt lat="42.46423579095877" lon="11.612837698879657"><ele>76.2</ele><time>2026-04-18T10:12:26.999Z</time></trkpt><trkpt lat="42.46436371206441" lon="11.612882195032324"><ele>76.0</ele><time>2026-04-18T10:12:28.999Z</time></trkpt><trkpt lat="42.46444351180071" lon="11.61291374111121"><ele>76.0</ele><time>2026-04-18T10:12:29.999Z</time></trkpt><trkpt lat="42.464528779864565" lon="11.612903513896146"><ele>76.0</ele><time>2026-04-18T10:12:30.999Z</time></trkpt><trkpt lat="42.4646194884416" lon="11.612859678119383"><ele>76.0</ele><time>2026-04-18T10:12:31.999Z</time></trkpt><trkpt lat="42.464681420639245" lon="11.612826186442923"><ele>76.0</ele><time>2026-04-18T10:12:32.999Z</time></trkpt><trkpt lat="42.464772275025226" lon="11.612782671218044"><ele>76.0</ele><time>2026-04-18T10:12:34.999Z</time></trkpt><trkpt lat="42.464868032547734" lon="11.612756968671839"><ele>76.0</ele><time>2026-04-18T10:12:36.999Z</time></trkpt><trkpt lat="42.46493408931236" lon="11.612759409577425"><ele>76.2</ele><time>2026-04-18T10:12:37.999Z</time></trkpt><trkpt lat="42.46504681458789" lon="11.61276596171552"><ele>76.39999999999999</ele><time>2026-04-18T10:12:39.999Z</time></trkpt><trkpt lat="42.46515715155113" lon="11.612776529448608"><ele>76.6</ele><time>2026-04-18T10:12:41.999Z</time></trkpt><trkpt lat="42.46524506479248" lon="11.61278894218324"><ele>76.8</ele><time>2026-04-18T10:12:43.999Z</time></trkpt><trkpt lat="42.46532909506635" lon="11.612802530661465"><ele>77.0</ele><time>2026-04-18T10:12:45.999Z</time></trkpt><trkpt lat="42.46542899245896" lon="11.612833656195962"><ele>76.4</ele><time>2026-04-18T10:12:47.999Z</time></trkpt><trkpt lat="42.46552223061969" lon="11.6128780555603"><ele>75.80000000000001</ele><time>2026-04-18T10:12:49.999Z</time></trkpt><trkpt lat="42.46564944564125" lon="11.612942531199279"><ele>75.2</ele><time>2026-04-18T10:12:51.999Z</time></trkpt><trkpt lat="42.46572236154694" lon="11.612950870907104"><ele>74.60000000000001</ele><time>2026-04-18T10:12:52.999Z</time></trkpt><trkpt lat="42.46578402700128" lon="11.612977260875605"><ele>74.0</ele><time>2026-04-18T10:12:53.999Z</time></trkpt><trkpt lat="42.4658861816719" lon="11.613028847283184"><ele>74.0</ele><time>2026-04-18T10:12:55.999Z</time></trkpt><trkpt lat="42.46597520792462" lon="11.613045289654915"><ele>74.0</ele><time>2026-04-18T10:12:57.999Z</time></trkpt><trkpt lat="42.46605593553086" lon="11.613041216842337"><ele>74.0</ele><time>2026-04-18T10:12:59.999Z</time></trkpt><trkpt lat="42.46614270325512" lon="11.613057902067949"><ele>74.0</ele><time>2026-04-18T10:13:02.999Z</time></trkpt><trkpt lat="42.466222791418375" lon="11.613089958957262"><ele>74.0</ele><time>2026-04-18T10:13:04.999Z</time></trkpt><trkpt lat="42.46632596477261" lon="11.613119115237476"><ele>74.0</ele><time>2026-04-18T10:13:06.999Z</time></trkpt><trkpt lat="42.46639939547669" lon="11.613202805569944"><ele>74.5</ele><time>2026-04-18T10:13:08.999Z</time></trkpt><trkpt lat="42.4664437221961" lon="11.613266927898678"><ele>75.0</ele><time>2026-04-18T10:13:09.999Z</time></trkpt><trkpt lat="42.466506411492226" lon="11.613325284858945"><ele>75.5</ele><time>2026-04-18T10:13:11.999Z</time></trkpt><trkpt lat="42.46657956168255" lon="11.613377823464479"><ele>76.0</ele><time>2026-04-18T10:13:14.999Z</time></trkpt><trkpt lat="42.466657221431326" lon="11.613351758617748"><ele>76.5</ele><time>2026-04-18T10:13:16.999Z</time></trkpt><trkpt lat="42.46677809519525" lon="11.613298712159116"><ele>77.0</ele><time>2026-04-18T10:13:18.999Z</time></trkpt><trkpt lat="42.46686174748343" lon="11.61324731273175"><ele>77.0</ele><time>2026-04-18T10:13:19.999Z</time></trkpt><trkpt lat="42.466947629904745" lon="11.613182044506942"><ele>77.0</ele><time>2026-04-18T10:13:20.999Z</time></trkpt><trkpt lat="42.467030307316705" lon="11.613076596204131"><ele>77.0</ele><time>2026-04-18T10:13:22.999Z</time></trkpt><trkpt lat="42.46712867362173" lon="11.612965981150921"><ele>77.0</ele><time>2026-04-18T10:13:24.999Z</time></trkpt><trkpt lat="42.46718224918214" lon="11.612882808829605"><ele>77.0</ele><time>2026-04-18T10:13:25.999Z</time></trkpt><trkpt lat="42.467236561797364" lon="11.612821646097075"><ele>80.0</ele><time>2026-04-18T10:13:26.999Z</time></trkpt><trkpt lat="42.467294519752066" lon="11.61273755724302"><ele>83.0</ele><time>2026-04-18T10:13:27.999Z</time></trkpt><trkpt lat="42.46738507951163" lon="11.612664558437174"><ele>86.0</ele><time>2026-04-18T10:13:28.999Z</time></trkpt><trkpt lat="42.467587363723446" lon="11.612663544150864"><ele>89.0</ele><time>2026-04-18T10:13:32.999Z</time></trkpt><trkpt lat="42.46769899936841" lon="11.612676492622176"><ele>89.0</ele><time>2026-04-18T10:13:34.999Z</time></trkpt><trkpt lat="42.46777094128528" lon="11.612657072617717"><ele>89.0</ele><time>2026-04-18T10:13:35.999Z</time></trkpt><trkpt lat="42.46784956601389" lon="11.612676938044247"><ele>89.0</ele><time>2026-04-18T10:13:36.999Z</time></trkpt><trkpt lat="42.46798179423294" lon="11.612670718948785"><ele>89.0</ele><time>2026-04-18T10:13:38.999Z</time></trkpt><trkpt lat="42.468061333017104" lon="11.612666978019641"><ele>89.0</ele><time>2026-04-18T10:13:39.999Z</time></trkpt><trkpt lat="42.46814666869931" lon="11.612642230635243"><ele>90.33333333333334</ele><time>2026-04-18T10:13:40.999Z</time></trkpt><trkpt lat="42.468242698417306" lon="11.612637883984775"><ele>91.66666666666667</ele><time>2026-04-18T10:13:41.999Z</time></trkpt><trkpt lat="42.468310632122645" lon="11.61264785483136"><ele>93.0</ele><time>2026-04-18T10:13:42.999Z</time></trkpt><trkpt lat="42.46840874661534" lon="11.612630048326825"><ele>94.33333333333334</ele><time>2026-04-18T10:13:44.999Z</time></trkpt><trkpt lat="42.46847868748734" lon="11.61265456687015"><ele>95.66666666666667</ele><time>2026-04-18T10:13:45.999Z</time></trkpt><trkpt lat="42.46856568460616" lon="11.612679650628007"><ele>97.0</ele><time>2026-04-18T10:13:46.999Z</time></trkpt><trkpt lat="42.46864198411192" lon="11.612686356351714"><ele>97.00000000000001</ele><time>2026-04-18T10:13:47.999Z</time></trkpt><trkpt lat="42.46870215198088" lon="11.612654360454707"><ele>97.0</ele><time>2026-04-18T10:13:48.999Z</time></trkpt><trkpt lat="42.46880408413917" lon="11.61261665741366"><ele>97.0</ele><time>2026-04-18T10:13:50.999Z</time></trkpt><trkpt lat="42.46891572230165" lon="11.61257589034766"><ele>97.0</ele><time>2026-04-18T10:13:52.999Z</time></trkpt><trkpt lat="42.46898042047589" lon="11.61257586021558"><ele>97.00000000000001</ele><time>2026-04-18T10:13:53.999Z</time></trkpt><trkpt lat="42.46905313040661" lon="11.612582036563966"><ele>97.0</ele><time>2026-04-18T10:13:54.999Z</time></trkpt><trkpt lat="42.469124148088895" lon="11.612588564248322"><ele>97.6</ele><time>2026-04-18T10:13:55.999Z</time></trkpt><trkpt lat="42.46918724085284" lon="11.612592433088281"><ele>98.19999999999999</ele><time>2026-04-18T10:13:56.999Z</time></trkpt><trkpt lat="42.46928824779437" lon="11.612588213149632"><ele>98.8</ele><time>2026-04-18T10:13:58.999Z</time></trkpt><trkpt lat="42.469393348614844" lon="11.612555435649817"><ele>99.4</ele><time>2026-04-18T10:13:59.999Z</time></trkpt><trkpt lat="42.46952285991349" lon="11.612539764708004"><ele>100.0</ele><time>2026-04-18T10:14:01.999Z</time></trkpt><trkpt lat="42.46959372673754" lon="11.612531094602815"><ele>101.50000000000001</ele><time>2026-04-18T10:14:02.999Z</time></trkpt><trkpt lat="42.46966040115675" lon="11.612527229215614"><ele>103.0</ele><time>2026-04-18T10:14:03.999Z</time></trkpt><trkpt lat="42.46972799028333" lon="11.612527884356133"><ele>104.5</ele><time>2026-04-18T10:14:04.999Z</time></trkpt><trkpt lat="42.46980483859018" lon="11.612529563622717"><ele>106.0</ele><time>2026-04-18T10:14:05.999Z</time></trkpt><trkpt lat="42.469885651219876" lon="11.61253226005923"><ele>107.50000000000001</ele><time>2026-04-18T10:14:06.999Z</time></trkpt><trkpt lat="42.469992602795365" lon="11.612514558520182"><ele>109.0</ele><time>2026-04-18T10:14:08.999Z</time></trkpt><trkpt lat="42.470135052455625" lon="11.61254013411282"><ele>109.00000000000001</ele><time>2026-04-18T10:14:10.999Z</time></trkpt><trkpt lat="42.47021376483825" lon="11.612547598040294"><ele>109.0</ele><time>2026-04-18T10:14:11.999Z</time></trkpt><trkpt lat="42.47029160894604" lon="11.612559374624428"><ele>109.0</ele><time>2026-04-18T10:14:12.999Z</time></trkpt><trkpt lat="42.47034950135308" lon="11.612625673950738"><ele>109.0</ele><time>2026-04-18T10:14:13.999Z</time></trkpt><trkpt lat="42.47046520833461" lon="11.612653477046129"><ele>109.00000000000001</ele><time>2026-04-18T10:14:15.999Z</time></trkpt><trkpt lat="42.47053807072024" lon="11.612659556625111"><ele>109.0</ele><time>2026-04-18T10:14:16.999Z</time></trkpt><trkpt lat="42.47060527140295" lon="11.612663201286416"><ele>110.0</ele><time>2026-04-18T10:14:17.999Z</time></trkpt><trkpt lat="42.47067057121532" lon="11.612665375857624"><ele>111.0</ele><time>2026-04-18T10:14:18.999Z</time></trkpt><trkpt lat="42.47074129997095" lon="11.612656182572373"><ele>112.0</ele><time>2026-04-18T10:14:19.999Z</time></trkpt><trkpt lat="42.470810492362716" lon="11.612636024403425"><ele>113.0</ele><time>2026-04-18T10:14:20.999Z</time></trkpt><trkpt lat="42.470883949509776" lon="11.612616306764105"><ele>114.0</ele><time>2026-04-18T10:14:21.999Z</time></trkpt><trkpt lat="42.470955951086786" lon="11.61261288042193"><ele>115.00000000000001</ele><time>2026-04-18T10:14:22.999Z</time></trkpt><trkpt lat="42.47102454401032" lon="11.612608620752189"><ele>116.00000000000001</ele><time>2026-04-18T10:14:23.999Z</time></trkpt><trkpt lat="42.47112740295571" lon="11.61268164717817"><ele>115.99999999999999</ele><time>2026-04-18T10:14:25.999Z</time></trkpt><trkpt lat="42.47116503602583" lon="11.612754403420626"><ele>116.0</ele><time>2026-04-18T10:14:26.999Z</time></trkpt><trkpt lat="42.471207233862415" lon="11.61282291411372"><ele>116.0</ele><time>2026-04-18T10:14:27.999Z</time></trkpt><trkpt lat="42.471264136947255" lon="11.612895301189658"><ele>116.0</ele><time>2026-04-18T10:14:28.999Z</time></trkpt><trkpt lat="42.47133770810492" lon="11.612960515804815"><ele>115.99999999999999</ele><time>2026-04-18T10:14:29.999Z</time></trkpt><trkpt lat="42.47143703429583" lon="11.613009362569985"><ele>116.0</ele><time>2026-04-18T10:14:30.999Z</time></trkpt><trkpt lat="42.471534050145685" lon="11.61305394341575"><ele>116.19999999999999</ele><time>2026-04-18T10:14:31.999Z</time></trkpt><trkpt lat="42.47162295690296" lon="11.613078901436408"><ele>116.39999999999999</ele><time>2026-04-18T10:14:32.999Z</time></trkpt><trkpt lat="42.47168857550884" lon="11.613083616131075"><ele>116.6</ele><time>2026-04-18T10:14:33.999Z</time></trkpt><trkpt lat="42.47182725232177" lon="11.613051838366639"><ele>116.8</ele><time>2026-04-18T10:14:35.999Z</time></trkpt><trkpt lat="42.47188823038117" lon="11.612969666828285"><ele>117.0</ele><time>2026-04-18T10:14:36.999Z</time></trkpt><trkpt lat="42.471959274831924" lon="11.612923181230805"><ele>117.0</ele><time>2026-04-18T10:14:37.999Z</time></trkpt><trkpt lat="42.472047520702674" lon="11.612825794257244"><ele>116.99999999999999</ele><time>2026-04-18T10:14:39.999Z</time></trkpt><trkpt lat="42.47213475659575" lon="11.612754216910753"><ele>116.99999999999999</ele><time>2026-04-18T10:14:41.999Z</time></trkpt><trkpt lat="42.47219996028274" lon="11.612763493509869"><ele>117.0</ele><time>2026-04-18T10:14:44.999Z</time></trkpt><trkpt lat="42.47228838313138" lon="11.612736324546104"><ele>117.0</ele><time>2026-04-18T10:14:47.999Z</time></trkpt><trkpt lat="42.472363308041494" lon="11.612695945972813"><ele>119.0</ele><time>2026-04-18T10:19:31.999Z</time></trkpt><trkpt lat="42.47242941964122" lon="11.612668161993264"><ele>121.0</ele><time>2026-04-18T10:19:33.999Z</time></trkpt><trkpt lat="42.47250761074996" lon="11.612702906543234"><ele>123.0</ele><time>2026-04-18T10:19:36.999Z</time></trkpt><trkpt lat="42.47257495254434" lon="11.612701908062158"><ele>125.0</ele><time>2026-04-18T10:19:38.999Z</time></trkpt><trkpt lat="42.47265446061403" lon="11.612685364509987"><ele>127.0</ele><time>2026-04-18T10:19:41.999Z</time></trkpt><trkpt lat="42.472736068396735" lon="11.612671816078901"><ele>129.0</ele><time>2026-04-18T10:19:44.999Z</time></trkpt><trkpt lat="42.47282032349744" lon="11.612668810440503"><ele>129.0</ele><time>2026-04-18T10:19:48.999Z</time></trkpt><trkpt lat="42.47288936354691" lon="11.612641172462151"><ele>129.0</ele><time>2026-04-18T10:19:50.999Z</time></trkpt><trkpt lat="42.472946609060365" lon="11.612600374730489"><ele>129.0</ele><time>2026-04-18T10:19:52.999Z</time></trkpt><trkpt lat="42.47303593257208" lon="11.612582498223876"><ele>129.0</ele><time>2026-04-18T10:19:55.999Z</time></trkpt><trkpt lat="42.473133548760394" lon="11.612544399986067"><ele>129.0</ele><time>2026-04-18T10:19:57.999Z</time></trkpt><trkpt lat="42.473222092878615" lon="11.612510240847698"><ele>129.0</ele><time>2026-04-18T10:20:00.999Z</time></trkpt><trkpt lat="42.47332358959098" lon="11.612471499392106"><ele>128.8</ele><time>2026-04-18T10:20:02.999Z</time></trkpt><trkpt lat="42.47342668490278" lon="11.612433740693193"><ele>128.60000000000002</ele><time>2026-04-18T10:20:04.999Z</time></trkpt><trkpt lat="42.473492893743334" lon="11.612409491619022"><ele>128.4</ele><time>2026-04-18T10:20:05.999Z</time></trkpt><trkpt lat="42.473618963965535" lon="11.612363318437184"><ele>128.20000000000002</ele><time>2026-04-18T10:20:07.999Z</time></trkpt><trkpt lat="42.47368568068849" lon="11.612336965564813"><ele>128.0</ele><time>2026-04-18T10:20:08.999Z</time></trkpt><trkpt lat="42.47378114065092" lon="11.612296608541516"><ele>127.66666666666666</ele><time>2026-04-18T10:20:10.999Z</time></trkpt><trkpt lat="42.47388177878344" lon="11.61224727024706"><ele>127.33333333333333</ele><time>2026-04-18T10:20:12.999Z</time></trkpt><trkpt lat="42.47394781327045" lon="11.612213963141828"><ele>127.0</ele><time>2026-04-18T10:20:13.999Z</time></trkpt><trkpt lat="42.474011597280864" lon="11.61216027179512"><ele>126.66666666666666</ele><time>2026-04-18T10:20:14.999Z</time></trkpt><trkpt lat="42.474085255062384" lon="11.612122554754219"><ele>126.33333333333333</ele><time>2026-04-18T10:20:15.999Z</time></trkpt><trkpt lat="42.474156323530885" lon="11.612094669994239"><ele>126.0</ele><time>2026-04-18T10:20:16.999Z</time></trkpt><trkpt lat="42.47423396260351" lon="11.612057245303664"><ele>126.0</ele><time>2026-04-18T10:20:17.999Z</time></trkpt><trkpt lat="42.47431506175001" lon="11.612019504415345"><ele>126.0</ele><time>2026-04-18T10:20:18.999Z</time></trkpt><trkpt lat="42.474387846216004" lon="11.612010783375194"><ele>126.0</ele><time>2026-04-18T10:20:19.999Z</time></trkpt><trkpt lat="42.474452250489676" lon="11.611966452495775"><ele>126.0</ele><time>2026-04-18T10:20:20.999Z</time></trkpt><trkpt lat="42.47453485011501" lon="11.61192981650642"><ele>126.0</ele><time>2026-04-18T10:20:21.999Z</time></trkpt><trkpt lat="42.47461076352487" lon="11.611907530333218"><ele>126.0</ele><time>2026-04-18T10:20:22.999Z</time></trkpt><trkpt lat="42.47467627238831" lon="11.61188333502111"><ele>126.71428571428572</ele><time>2026-04-18T10:20:23.999Z</time></trkpt><trkpt lat="42.47475209407081" lon="11.611852040233046"><ele>127.42857142857143</ele><time>2026-04-18T10:20:24.999Z</time></trkpt><trkpt lat="42.474826867750274" lon="11.611828929814498"><ele>128.14285714285714</ele><time>2026-04-18T10:20:25.999Z</time></trkpt><trkpt lat="42.47488892542382" lon="11.61180863764"><ele>128.85714285714286</ele><time>2026-04-18T10:20:26.999Z</time></trkpt><trkpt lat="42.474952413523" lon="11.611777710520432"><ele>129.57142857142858</ele><time>2026-04-18T10:20:27.999Z</time></trkpt><trkpt lat="42.47502282736647" lon="11.611743852390806"><ele>130.28571428571428</ele><time>2026-04-18T10:20:28.999Z</time></trkpt><trkpt lat="42.47509651425766" lon="11.611706347038979"><ele>131.0</ele><time>2026-04-18T10:20:29.999Z</time></trkpt><trkpt lat="42.47516739000041" lon="11.611665996426158"><ele>131.0</ele><time>2026-04-18T10:20:30.999Z</time></trkpt><trkpt lat="42.475234910805376" lon="11.611638454889297"><ele>131.0</ele><time>2026-04-18T10:20:31.999Z</time></trkpt><trkpt lat="42.47531847932172" lon="11.61159825757239"><ele>131.0</ele><time>2026-04-18T10:20:32.999Z</time></trkpt><trkpt lat="42.4754002731229" lon="11.61156274026865"><ele>131.0</ele><time>2026-04-18T10:20:33.999Z</time></trkpt><trkpt lat="42.47549597858476" lon="11.611533984485014"><ele>131.0</ele><time>2026-04-18T10:20:34.999Z</time></trkpt><trkpt lat="42.47558737006777" lon="11.611504902630555"><ele>131.0</ele><time>2026-04-18T10:20:35.999Z</time></trkpt><trkpt lat="42.475672941245094" lon="11.611478389906258"><ele>131.16666666666666</ele><time>2026-04-18T10:20:36.999Z</time></trkpt><trkpt lat="42.475766027957434" lon="11.611444526712607"><ele>131.33333333333331</ele><time>2026-04-18T10:20:37.999Z</time></trkpt><trkpt lat="42.475850411010725" lon="11.61141947459746"><ele>131.5</ele><time>2026-04-18T10:20:38.999Z</time></trkpt><trkpt lat="42.47593493949595" lon="11.611393532401348"><ele>131.66666666666666</ele><time>2026-04-18T10:20:39.999Z</time></trkpt><trkpt lat="42.47601069762202" lon="11.611378928118302"><ele>131.83333333333334</ele><time>2026-04-18T10:20:40.999Z</time></trkpt><trkpt lat="42.476091236682066" lon="11.611366797856206"><ele>132.0</ele><time>2026-04-18T10:20:41.999Z</time></trkpt><trkpt lat="42.476174679328544" lon="11.611351993083316"><ele>132.0</ele><time>2026-04-18T10:20:42.999Z</time></trkpt><trkpt lat="42.47625140470982" lon="11.611361634427922"><ele>132.0</ele><time>2026-04-18T10:20:43.999Z</time></trkpt><trkpt lat="42.47632456157043" lon="11.611334611266011"><ele>132.0</ele><time>2026-04-18T10:20:44.999Z</time></trkpt><trkpt lat="42.4764101115186" lon="11.611349775412535"><ele>132.0</ele><time>2026-04-18T10:20:45.999Z</time></trkpt><trkpt lat="42.476489289083545" lon="11.611344312891795"><ele>132.0</ele><time>2026-04-18T10:20:46.999Z</time></trkpt><trkpt lat="42.47658874299881" lon="11.611318558220363"><ele>132.0</ele><time>2026-04-18T10:20:47.999Z</time></trkpt><trkpt lat="42.476669537008135" lon="11.611315634987735"><ele>132.0</ele><time>2026-04-18T10:20:48.999Z</time></trkpt><trkpt lat="42.47676683968425" lon="11.611293728745183"><ele>132.0</ele><time>2026-04-18T10:20:49.999Z</time></trkpt><trkpt lat="42.47685886961446" lon="11.611258624606934"><ele>132.0</ele><time>2026-04-18T10:20:50.999Z</time></trkpt><trkpt lat="42.476941979716656" lon="11.611239165503797"><ele>132.0</ele><time>2026-04-18T10:20:51.999Z</time></trkpt><trkpt lat="42.47702794548776" lon="11.611227847263065"><ele>132.0</ele><time>2026-04-18T10:20:52.999Z</time></trkpt><trkpt lat="42.477115158286104" lon="11.611212755619976"><ele>132.0</ele><time>2026-04-18T10:20:53.999Z</time></trkpt><trkpt lat="42.47719548449521" lon="11.611218074150388"><ele>132.0</ele><time>2026-04-18T10:20:54.999Z</time></trkpt><trkpt lat="42.4772738647973" lon="11.611211572053575"><ele>132.0</ele><time>2026-04-18T10:20:55.999Z</time></trkpt><trkpt lat="42.477352537681234" lon="11.61120642641743"><ele>132.0</ele><time>2026-04-18T10:20:56.999Z</time></trkpt><trkpt lat="42.47742302837459" lon="11.611201168525609"><ele>132.0</ele><time>2026-04-18T10:20:57.999Z</time></trkpt><trkpt lat="42.47748883840435" lon="11.611194788815645"><ele>132.0</ele><time>2026-04-18T10:20:58.999Z</time></trkpt><trkpt lat="42.47757239420615" lon="11.611186688796058"><ele>132.0</ele><time>2026-04-18T10:20:59.999Z</time></trkpt><trkpt lat="42.477649849869394" lon="11.611171954866224"><ele>132.0</ele><time>2026-04-18T10:21:00.999Z</time></trkpt><trkpt lat="42.477728916935845" lon="11.611163777247798"><ele>132.0</ele><time>2026-04-18T10:21:01.999Z</time></trkpt><trkpt lat="42.4778347052248" lon="11.611157453935583"><ele>132.0</ele><time>2026-04-18T10:21:03.999Z</time></trkpt><trkpt lat="42.47789824780012" lon="11.611150079673045"><ele>132.0</ele><time>2026-04-18T10:21:04.999Z</time></trkpt><trkpt lat="42.477985355666846" lon="11.61113631679908"><ele>132.0</ele><time>2026-04-18T10:21:05.999Z</time></trkpt><trkpt lat="42.478058738080804" lon="11.611120334107286"><ele>133.16666666666666</ele><time>2026-04-18T10:21:06.999Z</time></trkpt><trkpt lat="42.478143072470274" lon="11.61108957340895"><ele>134.33333333333334</ele><time>2026-04-18T10:21:07.999Z</time></trkpt><trkpt lat="42.47822628013821" lon="11.611075444902829"><ele>135.5</ele><time>2026-04-18T10:21:08.999Z</time></trkpt><trkpt lat="42.47829457003866" lon="11.61107443646508"><ele>136.66666666666669</ele><time>2026-04-18T10:21:09.999Z</time></trkpt><trkpt lat="42.47836453568965" lon="11.611103046735185"><ele>137.83333333333334</ele><time>2026-04-18T10:21:10.999Z</time></trkpt><trkpt lat="42.47843567999978" lon="11.611090643914833"><ele>139.0</ele><time>2026-04-18T10:21:11.999Z</time></trkpt><trkpt lat="42.47850313834278" lon="11.611110215443164"><ele>139.0</ele><time>2026-04-18T10:21:12.999Z</time></trkpt><trkpt lat="42.47857451971496" lon="11.611115326794195"><ele>139.0</ele><time>2026-04-18T10:21:13.999Z</time></trkpt><trkpt lat="42.478644201143304" lon="11.611114422271468"><ele>139.0</ele><time>2026-04-18T10:21:14.999Z</time></trkpt><trkpt lat="42.47871192553938" lon="11.611103011945282"><ele>139.0</ele><time>2026-04-18T10:21:15.999Z</time></trkpt><trkpt lat="42.47878921156316" lon="11.611103272869824"><ele>139.0</ele><time>2026-04-18T10:21:16.999Z</time></trkpt><trkpt lat="42.47887509271426" lon="11.611127475964143"><ele>139.0</ele><time>2026-04-18T10:21:17.999Z</time></trkpt><trkpt lat="42.478971182359" lon="11.611137419747392"><ele>137.2</ele><time>2026-04-18T10:21:18.999Z</time></trkpt><trkpt lat="42.479060625863035" lon="11.611162374569057"><ele>135.4</ele><time>2026-04-18T10:21:19.999Z</time></trkpt><trkpt lat="42.47914780724591" lon="11.611180097362272"><ele>133.6</ele><time>2026-04-18T10:21:20.999Z</time></trkpt><trkpt lat="42.47923888638906" lon="11.61123597156354"><ele>131.8</ele><time>2026-04-18T10:21:21.999Z</time></trkpt><trkpt lat="42.47932714988838" lon="11.611249875556164"><ele>130.0</ele><time>2026-04-18T10:21:22.999Z</time></trkpt><trkpt lat="42.47941980481961" lon="11.611271245513947"><ele>130.0</ele><time>2026-04-18T10:21:23.999Z</time></trkpt><trkpt lat="42.4795102561938" lon="11.611283948122269"><ele>130.0</ele><time>2026-04-18T10:21:24.999Z</time></trkpt><trkpt lat="42.47961194117059" lon="11.611305816508855"><ele>130.0</ele><time>2026-04-18T10:21:25.999Z</time></trkpt><trkpt lat="42.47970966251353" lon="11.611311699843208"><ele>130.0</ele><time>2026-04-18T10:21:26.999Z</time></trkpt><trkpt lat="42.47980973663975" lon="11.61130992878677"><ele>130.0</ele><time>2026-04-18T10:21:27.999Z</time></trkpt><trkpt lat="42.47988820419225" lon="11.611300923910829"><ele>129.5</ele><time>2026-04-18T10:21:28.999Z</time></trkpt><trkpt lat="42.479973009655644" lon="11.611270374167123"><ele>129.0</ele><time>2026-04-18T10:21:29.999Z</time></trkpt><trkpt lat="42.48005277778703" lon="11.611249682644061"><ele>128.5</ele><time>2026-04-18T10:21:30.999Z</time></trkpt><trkpt lat="42.48013588983661" lon="11.611212145259245"><ele>128.0</ele><time>2026-04-18T10:21:31.999Z</time></trkpt><trkpt lat="42.48021363378901" lon="11.61116458919771"><ele>127.50000000000001</ele><time>2026-04-18T10:21:32.999Z</time></trkpt><trkpt lat="42.48029813042513" lon="11.611129174459595"><ele>127.0</ele><time>2026-04-18T10:21:33.999Z</time></trkpt><trkpt lat="42.480386100637155" lon="11.611090648159573"><ele>128.4</ele><time>2026-04-18T10:21:34.999Z</time></trkpt><trkpt lat="42.480493409615136" lon="11.611043652580733"><ele>129.79999999999998</ele><time>2026-04-18T10:21:36Z</time></trkpt><trkpt lat="42.48058970000923" lon="11.610988188104603"><ele>131.2</ele><time>2026-04-18T10:21:37Z</time></trkpt><trkpt lat="42.48068457679413" lon="11.610947779883528"><ele>132.6</ele><time>2026-04-18T10:21:38Z</time></trkpt><trkpt lat="42.48078106192405" lon="11.610908407412614"><ele>134.0</ele><time>2026-04-18T10:21:39Z</time></trkpt><trkpt lat="42.48086869701362" lon="11.61087800873908"><ele>134.0</ele><time>2026-04-18T10:21:40Z</time></trkpt><trkpt lat="42.4809470757655" lon="11.610853546426174"><ele>134.0</ele><time>2026-04-18T10:21:41Z</time></trkpt><trkpt lat="42.48102520500037" lon="11.610824649858891"><ele>134.0</ele><time>2026-04-18T10:21:42Z</time></trkpt><trkpt lat="42.48109829071983" lon="11.610838281718486"><ele>134.0</ele><time>2026-04-18T10:21:43Z</time></trkpt><trkpt lat="42.48119147957721" lon="11.610861726515187"><ele>134.0</ele><time>2026-04-18T10:21:44Z</time></trkpt><trkpt lat="42.48128952598157" lon="11.610861400983"><ele>134.0</ele><time>2026-04-18T10:21:45Z</time></trkpt><trkpt lat="42.481399228236" lon="11.610885237562938"><ele>134.0</ele><time>2026-04-18T10:21:46Z</time></trkpt><trkpt lat="42.48149737095985" lon="11.610925726518762"><ele>134.0</ele><time>2026-04-18T10:21:47Z</time></trkpt><trkpt lat="42.48157501313005" lon="11.610944312998345"><ele>134.0</ele><time>2026-04-18T10:21:48Z</time></trkpt><trkpt lat="42.481654868955935" lon="11.61096366223752"><ele>134.0</ele><time>2026-04-18T10:21:49Z</time></trkpt><trkpt lat="42.48176192750406" lon="11.610967263818248"><ele>134.0</ele><time>2026-04-18T10:21:50Z</time></trkpt><trkpt lat="42.4818737066113" lon="11.610995754393628"><ele>134.0</ele><time>2026-04-18T10:21:51Z</time></trkpt><trkpt lat="42.481970520213764" lon="11.611028986810295"><ele>134.0</ele><time>2026-04-18T10:21:52Z</time></trkpt><trkpt lat="42.482084363765665" lon="11.611042175154912"><ele>134.0</ele><time>2026-04-18T10:21:53Z</time></trkpt><trkpt lat="42.48219612809502" lon="11.611053927122214"><ele>134.0</ele><time>2026-04-18T10:21:54Z</time></trkpt><trkpt lat="42.482285731790775" lon="11.611052747562372"><ele>134.0</ele><time>2026-04-18T10:21:55Z</time></trkpt><trkpt lat="42.4823783610715" lon="11.611041618473557"><ele>133.2</ele><time>2026-04-18T10:21:56Z</time></trkpt><trkpt lat="42.48246842146321" lon="11.611021197405986"><ele>132.4</ele><time>2026-04-18T10:21:57Z</time></trkpt><trkpt lat="42.482551105868325" lon="11.610995453435248"><ele>131.6</ele><time>2026-04-18T10:21:58Z</time></trkpt><trkpt lat="42.48264155478068" lon="11.610958785565868"><ele>130.8</ele><time>2026-04-18T10:21:59Z</time></trkpt><trkpt lat="42.482739418273795" lon="11.61092076168971"><ele>130.0</ele><time>2026-04-18T10:22:00Z</time></trkpt><trkpt lat="42.48283445693452" lon="11.61088892118711"><ele>130.0</ele><time>2026-04-18T10:22:01Z</time></trkpt><trkpt lat="42.48294304337671" lon="11.610859518309246"><ele>130.0</ele><time>2026-04-18T10:22:02Z</time></trkpt><trkpt lat="42.48305441452657" lon="11.610827418497086"><ele>130.0</ele><time>2026-04-18T10:22:03Z</time></trkpt><trkpt lat="42.483153727337324" lon="11.610829023764014"><ele>130.0</ele><time>2026-04-18T10:22:04Z</time></trkpt><trkpt lat="42.48323559846804" lon="11.610789951190366"><ele>130.0</ele><time>2026-04-18T10:22:05Z</time></trkpt><trkpt lat="42.48332655629539" lon="11.610777634417955"><ele>130.0</ele><time>2026-04-18T10:22:06Z</time></trkpt><trkpt lat="42.483414240614394" lon="11.610832517404928"><ele>130.0</ele><time>2026-04-18T10:22:07Z</time></trkpt><trkpt lat="42.48349460816477" lon="11.610892903812873"><ele>130.0</ele><time>2026-04-18T10:22:08Z</time></trkpt><trkpt lat="42.48358875540966" lon="11.610938816018834"><ele>130.0</ele><time>2026-04-18T10:22:09Z</time></trkpt><trkpt lat="42.48368069871231" lon="11.610950232089927"><ele>130.0</ele><time>2026-04-18T10:22:10Z</time></trkpt><trkpt lat="42.48374465017556" lon="11.610985336697254"><ele>130.2</ele><time>2026-04-18T10:22:11Z</time></trkpt><trkpt lat="42.483811571429115" lon="11.610992144593796"><ele>130.4</ele><time>2026-04-18T10:22:12Z</time></trkpt><trkpt lat="42.48396825857172" lon="11.610977662829228"><ele>130.6</ele><time>2026-04-18T10:22:14Z</time></trkpt><trkpt lat="42.48406320534163" lon="11.610998826483975"><ele>130.8</ele><time>2026-04-18T10:22:15Z</time></trkpt><trkpt lat="42.48414898222417" lon="11.61097396233136"><ele>131.0</ele><time>2026-04-18T10:22:16Z</time></trkpt><trkpt lat="42.48423588730121" lon="11.610966105453468"><ele>131.0</ele><time>2026-04-18T10:22:17Z</time></trkpt><trkpt lat="42.48433484147758" lon="11.610961690478755"><ele>131.0</ele><time>2026-04-18T10:22:18Z</time></trkpt><trkpt lat="42.48442663661738" lon="11.610962068495938"><ele>131.0</ele><time>2026-04-18T10:22:19Z</time></trkpt><trkpt lat="42.48452158415748" lon="11.610952621039921"><ele>131.0</ele><time>2026-04-18T10:22:20Z</time></trkpt><trkpt lat="42.484607042767" lon="11.610951718299749"><ele>131.0</ele><time>2026-04-18T10:22:21Z</time></trkpt><trkpt lat="42.48469015155365" lon="11.610938387739298"><ele>131.16666666666666</ele><time>2026-04-18T10:22:22Z</time></trkpt><trkpt lat="42.48477233390342" lon="11.61092635602131"><ele>131.33333333333331</ele><time>2026-04-18T10:22:23Z</time></trkpt><trkpt lat="42.4848421166725" lon="11.61092026478843"><ele>131.5</ele><time>2026-04-18T10:22:24Z</time></trkpt><trkpt lat="42.484913413204396" lon="11.610929190802068"><ele>131.66666666666666</ele><time>2026-04-18T10:22:25Z</time></trkpt><trkpt lat="42.48498053539709" lon="11.610918046988187"><ele>131.83333333333334</ele><time>2026-04-18T10:22:26Z</time></trkpt><trkpt lat="42.48504920673405" lon="11.610906646072772"><ele>132.0</ele><time>2026-04-18T10:22:27Z</time></trkpt><trkpt lat="42.48516389783522" lon="11.610935628647013"><ele>132.0</ele><time>2026-04-18T10:22:29Z</time></trkpt><trkpt lat="42.48516613198087" lon="11.611032621304373"><ele>132.0</ele><time>2026-04-18T10:22:30Z</time></trkpt><trkpt lat="42.48520623506695" lon="11.611133069818438"><ele>132.0</ele><time>2026-04-18T10:22:31Z</time></trkpt><trkpt lat="42.48526498037578" lon="11.611238015406638"><ele>132.0</ele><time>2026-04-18T10:22:32Z</time></trkpt><trkpt lat="42.4853463893424" lon="11.611338641838504"><ele>132.0</ele><time>2026-04-18T10:22:33Z</time></trkpt><trkpt lat="42.48540973843706" lon="11.611454819558682"><ele>131.25</ele><time>2026-04-18T10:22:34Z</time></trkpt><trkpt lat="42.485477854237125" lon="11.611552781667479"><ele>130.5</ele><time>2026-04-18T10:22:35Z</time></trkpt><trkpt lat="42.485569838426244" lon="11.611658921992333"><ele>129.75</ele><time>2026-04-18T10:22:36Z</time></trkpt><trkpt lat="42.48564381545183" lon="11.611780111012909"><ele>129.0</ele><time>2026-04-18T10:22:37Z</time></trkpt><trkpt lat="42.485743442570744" lon="11.611912818054034"><ele>126.75</ele><time>2026-04-18T10:22:38Z</time></trkpt><trkpt lat="42.48582015286075" lon="11.612045996941069"><ele>124.5</ele><time>2026-04-18T10:22:39Z</time></trkpt><trkpt lat="42.48590286336602" lon="11.612162586006354"><ele>122.25</ele><time>2026-04-18T10:22:40Z</time></trkpt><trkpt lat="42.48597975894404" lon="11.612270745590873"><ele>120.0</ele><time>2026-04-18T10:22:41Z</time></trkpt><trkpt lat="42.48605638320926" lon="11.612355655423475"><ele>120.0</ele><time>2026-04-18T10:22:42Z</time></trkpt><trkpt lat="42.48611868084142" lon="11.612459939074293"><ele>120.0</ele><time>2026-04-18T10:22:43Z</time></trkpt><trkpt lat="42.48620867156853" lon="11.612515038583433"><ele>120.0</ele><time>2026-04-18T10:22:44Z</time></trkpt><trkpt lat="42.486282680209314" lon="11.612560413961658"><ele>120.0</ele><time>2026-04-18T10:22:45Z</time></trkpt><trkpt lat="42.48635530049562" lon="11.612587648044883"><ele>120.0</ele><time>2026-04-18T10:22:46Z</time></trkpt><trkpt lat="42.48641480119274" lon="11.61262818134205"><ele>120.0</ele><time>2026-04-18T10:22:47Z</time></trkpt><trkpt lat="42.486471397912226" lon="11.612672623233776"><ele>119.4</ele><time>2026-04-18T10:22:48Z</time></trkpt><trkpt lat="42.48653501249607" lon="11.612698706766864"><ele>118.8</ele><time>2026-04-18T10:22:49Z</time></trkpt><trkpt lat="42.48662072830354" lon="11.612792166838203"><ele>118.19999999999999</ele><time>2026-04-18T10:22:51Z</time></trkpt><trkpt lat="42.486700073710445" lon="11.612922972035335"><ele>117.6</ele><time>2026-04-18T10:22:53Z</time></trkpt><trkpt lat="42.48674918787399" lon="11.612997055444364"><ele>117.0</ele><time>2026-04-18T10:22:54Z</time></trkpt><trkpt lat="42.486781423496055" lon="11.613089706373868"><ele>117.0</ele><time>2026-04-18T10:22:55Z</time></trkpt><trkpt lat="42.486808057813974" lon="11.613174183290639"><ele>117.0</ele><time>2026-04-18T10:22:56Z</time></trkpt><trkpt lat="42.486825582723874" lon="11.61328548083533"><ele>117.0</ele><time>2026-04-18T10:22:57Z</time></trkpt><trkpt lat="42.48687712797043" lon="11.61338864766012"><ele>117.0</ele><time>2026-04-18T10:22:58Z</time></trkpt><trkpt lat="42.48692693757755" lon="11.613500010120653"><ele>117.0</ele><time>2026-04-18T10:22:59Z</time></trkpt><trkpt lat="42.48698862352179" lon="11.613618862750712"><ele>117.0</ele><time>2026-04-18T10:22:59.999Z</time></trkpt><trkpt lat="42.48704918518387" lon="11.613717738668429"><ele>116.8</ele><time>2026-04-18T10:23:00.999Z</time></trkpt><trkpt lat="42.48712376434338" lon="11.61380173605067"><ele>116.6</ele><time>2026-04-18T10:23:01.999Z</time></trkpt><trkpt lat="42.487201956337195" lon="11.613864791983412"><ele>116.39999999999999</ele><time>2026-04-18T10:23:02.999Z</time></trkpt><trkpt lat="42.48726986851588" lon="11.613938607855768"><ele>116.19999999999999</ele><time>2026-04-18T10:23:03.999Z</time></trkpt><trkpt lat="42.48733180425027" lon="11.613987734606413"><ele>116.0</ele><time>2026-04-18T10:23:04.999Z</time></trkpt><trkpt lat="42.487410372006124" lon="11.614148961021414"><ele>116.0</ele><time>2026-04-18T10:23:06.999Z</time></trkpt><trkpt lat="42.48744237747938" lon="11.614269523306342"><ele>116.0</ele><time>2026-04-18T10:23:07.999Z</time></trkpt><trkpt lat="42.487488158719664" lon="11.614380765310267"><ele>116.0</ele><time>2026-04-18T10:23:08.999Z</time></trkpt><trkpt lat="42.48755458717571" lon="11.614471984147945"><ele>116.0</ele><time>2026-04-18T10:23:09.999Z</time></trkpt><trkpt lat="42.48760754589867" lon="11.614587005615363"><ele>116.0</ele><time>2026-04-18T10:23:10.999Z</time></trkpt><trkpt lat="42.48768217175394" lon="11.614684005908531"><ele>115.19999999999999</ele><time>2026-04-18T10:23:11.999Z</time></trkpt><trkpt lat="42.48774609614946" lon="11.61475970388775"><ele>114.39999999999999</ele><time>2026-04-18T10:23:12.999Z</time></trkpt><trkpt lat="42.4878135412418" lon="11.614829488117813"><ele>113.6</ele><time>2026-04-18T10:23:13.999Z</time></trkpt><trkpt lat="42.48789239946941" lon="11.614894050850804"><ele>112.8</ele><time>2026-04-18T10:23:14.999Z</time></trkpt><trkpt lat="42.4879941240425" lon="11.614956113289661"><ele>112.0</ele><time>2026-04-18T10:23:15.999Z</time></trkpt><trkpt lat="42.48809301460024" lon="11.61500501459137"><ele>112.00000000000001</ele><time>2026-04-18T10:23:16.999Z</time></trkpt><trkpt lat="42.48817981833035" lon="11.615016102762306"><ele>112.0</ele><time>2026-04-18T10:23:17.999Z</time></trkpt><trkpt lat="42.48825821919547" lon="11.615015101221479"><ele>112.0</ele><time>2026-04-18T10:23:18.999Z</time></trkpt><trkpt lat="42.48832086312126" lon="11.61500115363958"><ele>112.0</ele><time>2026-04-18T10:23:20Z</time></trkpt><trkpt lat="42.488387498205405" lon="11.614967147205501"><ele>112.00000000000001</ele><time>2026-04-18T10:23:21Z</time></trkpt><trkpt lat="42.48846977504737" lon="11.61490596778419"><ele>112.0</ele><time>2026-04-18T10:23:22Z</time></trkpt><trkpt lat="42.48854914312514" lon="11.614831636181815"><ele>112.00000000000001</ele><time>2026-04-18T10:23:23Z</time></trkpt><trkpt lat="42.488615159321014" lon="11.614764225790207"><ele>112.0</ele><time>2026-04-18T10:23:24Z</time></trkpt><trkpt lat="42.48868674960497" lon="11.614697245894714"><ele>112.0</ele><time>2026-04-18T10:23:25Z</time></trkpt><trkpt lat="42.48874860683073" lon="11.614641912812433"><ele>112.0</ele><time>2026-04-18T10:23:26Z</time></trkpt><trkpt lat="42.4888616673925" lon="11.614558438715257"><ele>112.00000000000001</ele><time>2026-04-18T10:23:28Z</time></trkpt><trkpt lat="42.488927756217294" lon="11.614514328992009"><ele>112.0</ele><time>2026-04-18T10:23:29Z</time></trkpt><trkpt lat="42.48899581636342" lon="11.614472569349008"><ele>112.16666666666667</ele><time>2026-04-18T10:23:30Z</time></trkpt><trkpt lat="42.48906234469558" lon="11.614432061825225"><ele>112.33333333333334</ele><time>2026-04-18T10:23:31Z</time></trkpt><trkpt lat="42.48912772240352" lon="11.614370194577493"><ele>112.5</ele><time>2026-04-18T10:23:32Z</time></trkpt><trkpt lat="42.489208727962165" lon="11.614334605220696"><ele>112.66666666666666</ele><time>2026-04-18T10:23:33Z</time></trkpt><trkpt lat="42.48929428328437" lon="11.614276425630699"><ele>112.83333333333333</ele><time>2026-04-18T10:23:34Z</time></trkpt><trkpt lat="42.48937885480059" lon="11.61423403772935"><ele>113.0</ele><time>2026-04-18T10:23:35Z</time></trkpt><trkpt lat="42.48947118095131" lon="11.614210511033665"><ele>112.99999999999999</ele><time>2026-04-18T10:23:36Z</time></trkpt><trkpt lat="42.48953744255836" lon="11.614149794424703"><ele>113.0</ele><time>2026-04-18T10:23:37Z</time></trkpt><trkpt lat="42.489609813403106" lon="11.61410615207924"><ele>113.0</ele><time>2026-04-18T10:23:38Z</time></trkpt><trkpt lat="42.4897097942694" lon="11.614007946430354"><ele>113.0</ele><time>2026-04-18T10:23:40Z</time></trkpt><trkpt lat="42.48977160899933" lon="11.613950364949428"><ele>112.99999999999999</ele><time>2026-04-18T10:23:41Z</time></trkpt><trkpt lat="42.489823488573975" lon="11.613880717472275"><ele>113.0</ele><time>2026-04-18T10:23:42Z</time></trkpt><trkpt lat="42.48987133432455" lon="11.613795309368781"><ele>112.66666666666666</ele><time>2026-04-18T10:23:43Z</time></trkpt><trkpt lat="42.48991761284104" lon="11.613705289420285"><ele>112.33333333333333</ele><time>2026-04-18T10:23:44Z</time></trkpt><trkpt lat="42.48997250840856" lon="11.613623272806537"><ele>112.0</ele><time>2026-04-18T10:23:45Z</time></trkpt><trkpt lat="42.490019537215545" lon="11.613561094838268"><ele>111.66666666666666</ele><time>2026-04-18T10:23:46Z</time></trkpt><trkpt lat="42.49010290440055" lon="11.613481359077008"><ele>111.33333333333333</ele><time>2026-04-18T10:23:48Z</time></trkpt><trkpt lat="42.49016640898184" lon="11.613434856223375"><ele>111.0</ele><time>2026-04-18T10:23:49Z</time></trkpt><trkpt lat="42.490244500281555" lon="11.613431458192954"><ele>112.8</ele><time>2026-04-18T10:23:50Z</time></trkpt><trkpt lat="42.4903279460409" lon="11.613412126232795"><ele>114.6</ele><time>2026-04-18T10:23:51Z</time></trkpt><trkpt lat="42.49038918101294" lon="11.61343849926815"><ele>116.4</ele><time>2026-04-18T10:23:52Z</time></trkpt><trkpt lat="42.49049877983138" lon="11.613530218631364"><ele>118.2</ele><time>2026-04-18T10:23:54Z</time></trkpt><trkpt lat="42.49053701444667" lon="11.61362201411128"><ele>120.0</ele><time>2026-04-18T10:23:55Z</time></trkpt><trkpt lat="42.49058734213856" lon="11.613734339201946"><ele>120.6</ele><time>2026-04-18T10:23:56Z</time></trkpt><trkpt lat="42.49065242790523" lon="11.613840819210953"><ele>121.2</ele><time>2026-04-18T10:23:57Z</time></trkpt><trkpt lat="42.4906922386884" lon="11.613982786577093"><ele>121.80000000000001</ele><time>2026-04-18T10:23:58Z</time></trkpt><trkpt lat="42.490749185879615" lon="11.61410258823765"><ele>122.4</ele><time>2026-04-18T10:23:59Z</time></trkpt><trkpt lat="42.490811332686896" lon="11.614228260681942"><ele>123.0</ele><time>2026-04-18T10:24:00Z</time></trkpt><trkpt lat="42.49087391565267" lon="11.61437064448"><ele>122.80000000000001</ele><time>2026-04-18T10:24:01Z</time></trkpt><trkpt lat="42.490926727199934" lon="11.614502129763755"><ele>122.60000000000001</ele><time>2026-04-18T10:24:02Z</time></trkpt><trkpt lat="42.49098630729306" lon="11.614635304160853"><ele>122.39999999999999</ele><time>2026-04-18T10:24:03Z</time></trkpt><trkpt lat="42.49103240203256" lon="11.61476179176847"><ele>122.19999999999999</ele><time>2026-04-18T10:24:04Z</time></trkpt><trkpt lat="42.49109502529423" lon="11.614880440768044"><ele>122.0</ele><time>2026-04-18T10:24:05Z</time></trkpt><trkpt lat="42.49115212488123" lon="11.61500272652728"><ele>122.0</ele><time>2026-04-18T10:24:06Z</time></trkpt><trkpt lat="42.49120858201197" lon="11.615112629253002"><ele>121.99999999999999</ele><time>2026-04-18T10:24:07Z</time></trkpt><trkpt lat="42.49127607235701" lon="11.615234603368313"><ele>121.99999999999999</ele><time>2026-04-18T10:24:08Z</time></trkpt><trkpt lat="42.49132017090263" lon="11.615333198570884"><ele>122.0</ele><time>2026-04-18T10:24:09Z</time></trkpt><trkpt lat="42.49137463194923" lon="11.615427601282066"><ele>122.0</ele><time>2026-04-18T10:24:10Z</time></trkpt><trkpt lat="42.491452247601046" lon="11.615561349983775"><ele>124.75</ele><time>2026-04-18T10:24:11Z</time></trkpt><trkpt lat="42.491518845578476" lon="11.61567268477007"><ele>127.5</ele><time>2026-04-18T10:24:12Z</time></trkpt><trkpt lat="42.491592566800115" lon="11.615795927984717"><ele>130.25</ele><time>2026-04-18T10:24:13Z</time></trkpt><trkpt lat="42.49167471186723" lon="11.615948338006758"><ele>133.0</ele><time>2026-04-18T10:24:14Z</time></trkpt><trkpt lat="42.49177086361717" lon="11.616143459672195"><ele>133.4</ele><time>2026-04-18T10:24:16Z</time></trkpt><trkpt lat="42.491824466447746" lon="11.616261829861566"><ele>133.8</ele><time>2026-04-18T10:24:17Z</time></trkpt><trkpt lat="42.4918727753448" lon="11.616372046169136"><ele>134.2</ele><time>2026-04-18T10:24:18Z</time></trkpt><trkpt lat="42.49195124315297" lon="11.616484477539405"><ele>134.6</ele><time>2026-04-18T10:24:19Z</time></trkpt><trkpt lat="42.49199757957791" lon="11.616584328805404"><ele>135.0</ele><time>2026-04-18T10:24:20Z</time></trkpt><trkpt lat="42.49203615835743" lon="11.616652659221124"><ele>136.8</ele><time>2026-04-18T10:24:21Z</time></trkpt><trkpt lat="42.492121708834894" lon="11.616719899845673"><ele>138.6</ele><time>2026-04-18T10:24:22Z</time></trkpt><trkpt lat="42.49225441933323" lon="11.616777273295877"><ele>140.4</ele><time>2026-04-18T10:24:24Z</time></trkpt><trkpt lat="42.49235949300325" lon="11.616745884997085"><ele>142.2</ele><time>2026-04-18T10:24:26Z</time></trkpt><trkpt lat="42.492458528398394" lon="11.616741083967485"><ele>144.0</ele><time>2026-04-18T10:24:27Z</time></trkpt><trkpt lat="42.4925367726632" lon="11.616718975915676"><ele>144.0</ele><time>2026-04-18T10:24:28Z</time></trkpt><trkpt lat="42.492614402356836" lon="11.616692477633066"><ele>144.0</ele><time>2026-04-18T10:24:29Z</time></trkpt><trkpt lat="42.4926839113829" lon="11.616667928010198"><ele>144.0</ele><time>2026-04-18T10:24:30Z</time></trkpt><trkpt lat="42.492764740781794" lon="11.616617915699365"><ele>144.0</ele><time>2026-04-18T10:24:31Z</time></trkpt><trkpt lat="42.49285137715012" lon="11.616596366241449"><ele>144.0</ele><time>2026-04-18T10:24:32Z</time></trkpt><trkpt lat="42.492932130029075" lon="11.61657605827873"><ele>144.0</ele><time>2026-04-18T10:24:33Z</time></trkpt><trkpt lat="42.49301558074282" lon="11.616547382686887"><ele>144.5</ele><time>2026-04-18T10:24:34Z</time></trkpt><trkpt lat="42.493102747168024" lon="11.616569056323238"><ele>145.0</ele><time>2026-04-18T10:24:35Z</time></trkpt><trkpt lat="42.49317953127606" lon="11.616589602605433"><ele>145.5</ele><time>2026-04-18T10:24:36Z</time></trkpt><trkpt lat="42.493262115006665" lon="11.616629929343944"><ele>146.0</ele><time>2026-04-18T10:24:37Z</time></trkpt><trkpt lat="42.49335541972498" lon="11.616665804550063"><ele>146.5</ele><time>2026-04-18T10:24:38Z</time></trkpt><trkpt lat="42.49344956158959" lon="11.616698095082826"><ele>147.0</ele><time>2026-04-18T10:24:39Z</time></trkpt><trkpt lat="42.49354733337203" lon="11.616731630666612"><ele>147.0</ele><time>2026-04-18T10:24:40Z</time></trkpt><trkpt lat="42.493646081596395" lon="11.616766640157639"><ele>147.0</ele><time>2026-04-18T10:24:41Z</time></trkpt><trkpt lat="42.493749584482146" lon="11.616782701423032"><ele>147.0</ele><time>2026-04-18T10:24:42Z</time></trkpt><trkpt lat="42.49384793199076" lon="11.6168306526064"><ele>147.0</ele><time>2026-04-18T10:24:43Z</time></trkpt><trkpt lat="42.493951966254414" lon="11.616869732726956"><ele>147.0</ele><time>2026-04-18T10:24:44Z</time></trkpt><trkpt lat="42.49406726020271" lon="11.616946249000385"><ele>146.5</ele><time>2026-04-18T10:24:45Z</time></trkpt><trkpt lat="42.49418698969046" lon="11.616998975648274"><ele>146.0</ele><time>2026-04-18T10:24:46Z</time></trkpt><trkpt lat="42.494322677895305" lon="11.617021969026203"><ele>145.5</ele><time>2026-04-18T10:24:47Z</time></trkpt><trkpt lat="42.49443773630552" lon="11.617070654575079"><ele>145.0</ele><time>2026-04-18T10:24:48Z</time></trkpt><trkpt lat="42.49453150523907" lon="11.61708414672303"><ele>145.0</ele><time>2026-04-18T10:24:49Z</time></trkpt><trkpt lat="42.494628880147445" lon="11.61710521687527"><ele>145.0</ele><time>2026-04-18T10:24:50Z</time></trkpt><trkpt lat="42.49474313319596" lon="11.617118603096108"><ele>145.0</ele><time>2026-04-18T10:24:51Z</time></trkpt><trkpt lat="42.49485936412663" lon="11.617111950410548"><ele>145.0</ele><time>2026-04-18T10:24:52Z</time></trkpt><trkpt lat="42.494971611206005" lon="11.617089496786996"><ele>145.0</ele><time>2026-04-18T10:24:53Z</time></trkpt><trkpt lat="42.495084744539845" lon="11.617058540858874"><ele>145.0</ele><time>2026-04-18T10:24:54Z</time></trkpt><trkpt lat="42.495193746482414" lon="11.617030464072096"><ele>145.0</ele><time>2026-04-18T10:24:55Z</time></trkpt><trkpt lat="42.49528949571109" lon="11.617000561650858"><ele>145.0</ele><time>2026-04-18T10:24:56Z</time></trkpt><trkpt lat="42.495378472197245" lon="11.616955014913176"><ele>145.0</ele><time>2026-04-18T10:24:57Z</time></trkpt><trkpt lat="42.495462506695645" lon="11.616917782226643"><ele>145.0</ele><time>2026-04-18T10:24:58Z</time></trkpt><trkpt lat="42.495564123192395" lon="11.616883599006686"><ele>144.8</ele><time>2026-04-18T10:24:59Z</time></trkpt><trkpt lat="42.495664957490675" lon="11.6168383464062"><ele>144.6</ele><time>2026-04-18T10:25:00Z</time></trkpt><trkpt lat="42.49576360553754" lon="11.616790835002275"><ele>144.4</ele><time>2026-04-18T10:25:01Z</time></trkpt><trkpt lat="42.4958645714048" lon="11.616739370828757"><ele>144.2</ele><time>2026-04-18T10:25:02Z</time></trkpt><trkpt lat="42.49596151209628" lon="11.616689958241052"><ele>144.0</ele><time>2026-04-18T10:25:03Z</time></trkpt><trkpt lat="42.49606672326924" lon="11.616629478692959"><ele>144.0</ele><time>2026-04-18T10:25:04Z</time></trkpt><trkpt lat="42.496189393465784" lon="11.616613608346332"><ele>144.0</ele><time>2026-04-18T10:25:05Z</time></trkpt><trkpt lat="42.49629198844205" lon="11.616608531834512"><ele>144.0</ele><time>2026-04-18T10:25:06Z</time></trkpt><trkpt lat="42.49639387175697" lon="11.616611882286799"><ele>144.0</ele><time>2026-04-18T10:25:07Z</time></trkpt><trkpt lat="42.4965047440004" lon="11.61662237213265"><ele>144.0</ele><time>2026-04-18T10:25:08Z</time></trkpt><trkpt lat="42.49661780895266" lon="11.616629694186484"><ele>144.8</ele><time>2026-04-18T10:25:09Z</time></trkpt><trkpt lat="42.49672754360836" lon="11.616635114546243"><ele>145.60000000000002</ele><time>2026-04-18T10:25:10Z</time></trkpt><trkpt lat="42.496833182289976" lon="11.616627347172816"><ele>146.4</ele><time>2026-04-18T10:25:11Z</time></trkpt><trkpt lat="42.496937409091515" lon="11.61664346395068"><ele>147.20000000000002</ele><time>2026-04-18T10:25:12Z</time></trkpt><trkpt lat="42.49704846539961" lon="11.616658825158096"><ele>148.0</ele><time>2026-04-18T10:25:13Z</time></trkpt><trkpt lat="42.49716466951511" lon="11.616671515426287"><ele>150.60000000000002</ele><time>2026-04-18T10:25:14Z</time></trkpt><trkpt lat="42.49725045357964" lon="11.616670836801358"><ele>153.20000000000002</ele><time>2026-04-18T10:25:15Z</time></trkpt><trkpt lat="42.49735231626604" lon="11.616674931897636"><ele>155.8</ele><time>2026-04-18T10:25:16Z</time></trkpt><trkpt lat="42.49742667889835" lon="11.616695553910283"><ele>158.4</ele><time>2026-04-18T10:25:17Z</time></trkpt><trkpt lat="42.49749400637456" lon="11.616698863948459"><ele>161.0</ele><time>2026-04-18T10:25:18Z</time></trkpt><trkpt lat="42.497666230691216" lon="11.616705745671032"><ele>161.0</ele><time>2026-04-18T10:25:19Z</time></trkpt><trkpt lat="42.49779768355111" lon="11.616690248458342"><ele>161.0</ele><time>2026-04-18T10:25:20Z</time></trkpt><trkpt lat="42.49791646107683" lon="11.616696128772832"><ele>161.0</ele><time>2026-04-18T10:25:21Z</time></trkpt><trkpt lat="42.4980304982742" lon="11.616720301044367"><ele>161.0</ele><time>2026-04-18T10:25:22Z</time></trkpt><trkpt lat="42.49814881089938" lon="11.61672602213982"><ele>160.60000000000002</ele><time>2026-04-18T10:25:23Z</time></trkpt><trkpt lat="42.498248443664025" lon="11.616732183700872"><ele>160.20000000000002</ele><time>2026-04-18T10:25:24Z</time></trkpt><trkpt lat="42.498357579334005" lon="11.616741410153054"><ele>159.8</ele><time>2026-04-18T10:25:25Z</time></trkpt><trkpt lat="42.49847624210875" lon="11.616753726876697"><ele>159.4</ele><time>2026-04-18T10:25:26Z</time></trkpt><trkpt lat="42.4985960875063" lon="11.616763195017725"><ele>159.0</ele><time>2026-04-18T10:25:27Z</time></trkpt><trkpt lat="42.49871802333283" lon="11.616783356013881"><ele>160.2</ele><time>2026-04-18T10:25:28Z</time></trkpt><trkpt lat="42.49882917449942" lon="11.616800216551741"><ele>161.4</ele><time>2026-04-18T10:25:29Z</time></trkpt><trkpt lat="42.49893175978898" lon="11.616804199513629"><ele>162.6</ele><time>2026-04-18T10:25:30Z</time></trkpt><trkpt lat="42.4990300007078" lon="11.616814325767676"><ele>163.8</ele><time>2026-04-18T10:25:31Z</time></trkpt><trkpt lat="42.49913784031017" lon="11.616832858888962"><ele>165.0</ele><time>2026-04-18T10:25:32Z</time></trkpt><trkpt lat="42.49926182967662" lon="11.616849693518885"><ele>165.0</ele><time>2026-04-18T10:25:33Z</time></trkpt><trkpt lat="42.49937521207926" lon="11.616847201194924"><ele>165.0</ele><time>2026-04-18T10:25:34Z</time></trkpt><trkpt lat="42.49950628996222" lon="11.616857562588168"><ele>165.0</ele><time>2026-04-18T10:25:35Z</time></trkpt><trkpt lat="42.499618253052866" lon="11.616876437568699"><ele>165.0</ele><time>2026-04-18T10:25:36Z</time></trkpt><trkpt lat="42.499733062147854" lon="11.616894620672149"><ele>165.5</ele><time>2026-04-18T10:25:37Z</time></trkpt><trkpt lat="42.49986934518461" lon="11.616895768128186"><ele>166.0</ele><time>2026-04-18T10:25:38Z</time></trkpt><trkpt lat="42.49998402224202" lon="11.616894859121796"><ele>166.5</ele><time>2026-04-18T10:25:39Z</time></trkpt><trkpt lat="42.50010082354409" lon="11.616891116937383"><ele>167.0</ele><time>2026-04-18T10:25:40Z</time></trkpt><trkpt lat="42.500229192120926" lon="11.616895279254472"><ele>167.0</ele><time>2026-04-18T10:25:41Z</time></trkpt><trkpt lat="42.50034903466258" lon="11.61689374879964"><ele>167.0</ele><time>2026-04-18T10:25:42Z</time></trkpt><trkpt lat="42.50046826895418" lon="11.616904930959759"><ele>167.0</ele><time>2026-04-18T10:25:43Z</time></trkpt><trkpt lat="42.5005955823805" lon="11.616928161192135"><ele>167.0</ele><time>2026-04-18T10:25:44Z</time></trkpt><trkpt lat="42.50070932419944" lon="11.616919158794532"><ele>167.75</ele><time>2026-04-18T10:25:45Z</time></trkpt><trkpt lat="42.5008287683179" lon="11.616916980123731"><ele>168.5</ele><time>2026-04-18T10:25:46Z</time></trkpt><trkpt lat="42.50095382035403" lon="11.616913932850867"><ele>169.25</ele><time>2026-04-18T10:25:47Z</time></trkpt><trkpt lat="42.50107660572277" lon="11.616907373998892"><ele>170.0</ele><time>2026-04-18T10:25:48Z</time></trkpt><trkpt lat="42.50118223554268" lon="11.616893051390806"><ele>170.5</ele><time>2026-04-18T10:25:49Z</time></trkpt><trkpt lat="42.50129563317404" lon="11.616875071803083"><ele>171.0</ele><time>2026-04-18T10:25:50Z</time></trkpt><trkpt lat="42.501406364918786" lon="11.616831959961651"><ele>171.5</ele><time>2026-04-18T10:25:51Z</time></trkpt><trkpt lat="42.50152142445326" lon="11.616784414509835"><ele>172.0</ele><time>2026-04-18T10:25:52Z</time></trkpt><trkpt lat="42.501633706466464" lon="11.616738400381836"><ele>172.0</ele><time>2026-04-18T10:25:53Z</time></trkpt><trkpt lat="42.50174804579257" lon="11.616691574566284"><ele>172.0</ele><time>2026-04-18T10:25:54Z</time></trkpt><trkpt lat="42.50187227642359" lon="11.616630902869234"><ele>172.0</ele><time>2026-04-18T10:25:55Z</time></trkpt><trkpt lat="42.50200678306937" lon="11.61657690029057"><ele>172.0</ele><time>2026-04-18T10:25:56Z</time></trkpt><trkpt lat="42.50208832140231" lon="11.616515863146715"><ele>172.0</ele><time>2026-04-18T10:25:57Z</time></trkpt><trkpt lat="42.50219441583047" lon="11.616432175611806"><ele>172.0</ele><time>2026-04-18T10:25:58Z</time></trkpt><trkpt lat="42.502310033267065" lon="11.616354595910508"><ele>172.0</ele><time>2026-04-18T10:25:59Z</time></trkpt><trkpt lat="42.50242384236057" lon="11.616252946747442"><ele>172.0</ele><time>2026-04-18T10:26:00Z</time></trkpt><trkpt lat="42.50252250210047" lon="11.616138375502315"><ele>172.0</ele><time>2026-04-18T10:26:01Z</time></trkpt><trkpt lat="42.50262646825741" lon="11.61604292098852"><ele>172.0</ele><time>2026-04-18T10:26:02Z</time></trkpt><trkpt lat="42.50273970329607" lon="11.615940226614372"><ele>172.0</ele><time>2026-04-18T10:26:03Z</time></trkpt><trkpt lat="42.5028408034758" lon="11.615850712550538"><ele>172.0</ele><time>2026-04-18T10:26:04Z</time></trkpt><trkpt lat="42.50296224865162" lon="11.61575204259736"><ele>172.0</ele><time>2026-04-18T10:26:05Z</time></trkpt><trkpt lat="42.50308645811506" lon="11.6156641006725"><ele>172.0</ele><time>2026-04-18T10:26:06Z</time></trkpt><trkpt lat="42.50319158618721" lon="11.615574783062208"><ele>172.0</ele><time>2026-04-18T10:26:07Z</time></trkpt><trkpt lat="42.50330713231807" lon="11.61548290769785"><ele>172.0</ele><time>2026-04-18T10:26:08Z</time></trkpt><trkpt lat="42.50344334471367" lon="11.615403402721562"><ele>172.5</ele><time>2026-04-18T10:26:09Z</time></trkpt><trkpt lat="42.50357875897151" lon="11.615302026248088"><ele>173.0</ele><time>2026-04-18T10:26:10Z</time></trkpt><trkpt lat="42.50367077065301" lon="11.615233144262202"><ele>173.5</ele><time>2026-04-18T10:26:11Z</time></trkpt><trkpt lat="42.50378057959929" lon="11.615134475949482"><ele>174.0</ele><time>2026-04-18T10:26:12Z</time></trkpt><trkpt lat="42.503897602449825" lon="11.615046965308373"><ele>174.25</ele><time>2026-04-18T10:26:13Z</time></trkpt><trkpt lat="42.50401553695892" lon="11.61497503835071"><ele>174.5</ele><time>2026-04-18T10:26:14Z</time></trkpt><trkpt lat="42.50412928175556" lon="11.614889715617627"><ele>174.75</ele><time>2026-04-18T10:26:15Z</time></trkpt><trkpt lat="42.50424875443129" lon="11.614794992066429"><ele>175.0</ele><time>2026-04-18T10:26:16Z</time></trkpt><trkpt lat="42.504353554625816" lon="11.614687487173459"><ele>175.0</ele><time>2026-04-18T10:26:17Z</time></trkpt><trkpt lat="42.50446996128202" lon="11.614596136819511"><ele>175.0</ele><time>2026-04-18T10:26:18Z</time></trkpt><trkpt lat="42.50458734112038" lon="11.614506910847952"><ele>175.0</ele><time>2026-04-18T10:26:19Z</time></trkpt><trkpt lat="42.50470483028749" lon="11.614415430262273"><ele>175.0</ele><time>2026-04-18T10:26:20Z</time></trkpt><trkpt lat="42.504827532486864" lon="11.61433243681607"><ele>176.25</ele><time>2026-04-18T10:26:21Z</time></trkpt><trkpt lat="42.5049435323095" lon="11.614244312184871"><ele>177.5</ele><time>2026-04-18T10:26:22Z</time></trkpt><trkpt lat="42.5050617858182" lon="11.614152853564493"><ele>178.75</ele><time>2026-04-18T10:26:23Z</time></trkpt><trkpt lat="42.50517391688452" lon="11.614061725312244"><ele>180.0</ele><time>2026-04-18T10:26:24Z</time></trkpt><trkpt lat="42.50529255510233" lon="11.613980933489009"><ele>180.0</ele><time>2026-04-18T10:26:25Z</time></trkpt><trkpt lat="42.50539835906328" lon="11.613899090397394"><ele>180.0</ele><time>2026-04-18T10:26:26Z</time></trkpt><trkpt lat="42.505487026257185" lon="11.613830224912803"><ele>180.0</ele><time>2026-04-18T10:26:27Z</time></trkpt><trkpt lat="42.505572632325666" lon="11.613764967977264"><ele>180.0</ele><time>2026-04-18T10:26:28Z</time></trkpt><trkpt lat="42.50566142483536" lon="11.613690076628846"><ele>180.0</ele><time>2026-04-18T10:26:29Z</time></trkpt><trkpt lat="42.505765000782354" lon="11.613622444105408"><ele>181.0</ele><time>2026-04-18T10:26:30Z</time></trkpt><trkpt lat="42.50585512567039" lon="11.613535152327026"><ele>182.0</ele><time>2026-04-18T10:26:31Z</time></trkpt><trkpt lat="42.50593261159499" lon="11.613460139305731"><ele>183.0</ele><time>2026-04-18T10:26:32Z</time></trkpt><trkpt lat="42.506010658904366" lon="11.613391906101068"><ele>184.0</ele><time>2026-04-18T10:26:33Z</time></trkpt><trkpt lat="42.50608455678326" lon="11.61333784352037"><ele>185.0</ele><time>2026-04-18T10:26:34Z</time></trkpt><trkpt lat="42.506147764922254" lon="11.613302948327675"><ele>185.0</ele><time>2026-04-18T10:26:35Z</time></trkpt><trkpt lat="42.50622250224945" lon="11.613269941525054"><ele>185.0</ele><time>2026-04-18T10:26:36Z</time></trkpt><trkpt lat="42.506336184635366" lon="11.613224838142239"><ele>185.0</ele><time>2026-04-18T10:26:37Z</time></trkpt><trkpt lat="42.5064337757102" lon="11.613185954854893"><ele>185.0</ele><time>2026-04-18T10:26:38Z</time></trkpt><trkpt lat="42.50652712826809" lon="11.6131506095327"><ele>185.0</ele><time>2026-04-18T10:26:39Z</time></trkpt><trkpt lat="42.50662787681461" lon="11.613112870722269"><ele>185.2</ele><time>2026-04-18T10:26:40Z</time></trkpt><trkpt lat="42.50673881294819" lon="11.613064292064958"><ele>185.4</ele><time>2026-04-18T10:26:41Z</time></trkpt><trkpt lat="42.50684256745776" lon="11.613001873720611"><ele>185.60000000000002</ele><time>2026-04-18T10:26:42Z</time></trkpt><trkpt lat="42.506932424850916" lon="11.612934586447254"><ele>185.8</ele><time>2026-04-18T10:26:43Z</time></trkpt><trkpt lat="42.50700352373812" lon="11.612842903630863"><ele>186.0</ele><time>2026-04-18T10:26:44Z</time></trkpt><trkpt lat="42.50704876468104" lon="11.61271945651544"><ele>185.20000000000002</ele><time>2026-04-18T10:26:45Z</time></trkpt><trkpt lat="42.50706348192473" lon="11.612591652389398"><ele>184.4</ele><time>2026-04-18T10:26:46Z</time></trkpt><trkpt lat="42.50707836757421" lon="11.612462451128533"><ele>183.6</ele><time>2026-04-18T10:26:47Z</time></trkpt><trkpt lat="42.50706708228541" lon="11.61232996994315"><ele>182.8</ele><time>2026-04-18T10:26:48Z</time></trkpt><trkpt lat="42.50705274961048" lon="11.612188996261413"><ele>182.0</ele><time>2026-04-18T10:26:49Z</time></trkpt><trkpt lat="42.507021921535156" lon="11.61206613161681"><ele>180.0</ele><time>2026-04-18T10:26:50Z</time></trkpt><trkpt lat="42.5069941805111" lon="11.611933594558966"><ele>178.0</ele><time>2026-04-18T10:26:51Z</time></trkpt><trkpt lat="42.50693660206452" lon="11.61180662182861"><ele>176.0</ele><time>2026-04-18T10:26:52Z</time></trkpt><trkpt lat="42.506882775440445" lon="11.611682794148711"><ele>174.0</ele><time>2026-04-18T10:26:53Z</time></trkpt><trkpt lat="42.506827105579326" lon="11.611564545358613"><ele>172.0</ele><time>2026-04-18T10:26:54Z</time></trkpt><trkpt lat="42.50677936501148" lon="11.611440449440591"><ele>172.0</ele><time>2026-04-18T10:26:55Z</time></trkpt><trkpt lat="42.506717342420664" lon="11.611316377164428"><ele>172.0</ele><time>2026-04-18T10:26:56Z</time></trkpt><trkpt lat="42.50665493609292" lon="11.611210083587356"><ele>172.0</ele><time>2026-04-18T10:26:57Z</time></trkpt><trkpt lat="42.50656613937739" lon="11.611091001104366"><ele>172.0</ele><time>2026-04-18T10:26:58Z</time></trkpt><trkpt lat="42.5064999751824" lon="11.610969264190615"><ele>172.0</ele><time>2026-04-18T10:26:59Z</time></trkpt><trkpt lat="42.50641027392105" lon="11.61083872315781"><ele>172.8</ele><time>2026-04-18T10:27:00Z</time></trkpt><trkpt lat="42.50635585632917" lon="11.610743352291117"><ele>173.6</ele><time>2026-04-18T10:27:01Z</time></trkpt><trkpt lat="42.5062967207169" lon="11.610634206002151"><ele>174.4</ele><time>2026-04-18T10:27:02Z</time></trkpt><trkpt lat="42.506233969737615" lon="11.610502881384036"><ele>175.20000000000002</ele><time>2026-04-18T10:27:03Z</time></trkpt><trkpt lat="42.5061852975768" lon="11.61039297404801"><ele>176.0</ele><time>2026-04-18T10:27:04Z</time></trkpt><trkpt lat="42.5061204196299" lon="11.61026982126344"><ele>173.4</ele><time>2026-04-18T10:27:05Z</time></trkpt><trkpt lat="42.50607531549275" lon="11.610149708491285"><ele>170.8</ele><time>2026-04-18T10:27:06Z</time></trkpt><trkpt lat="42.506038862299754" lon="11.610016625166768"><ele>168.20000000000002</ele><time>2026-04-18T10:27:07Z</time></trkpt><trkpt lat="42.505997770594455" lon="11.609899166299618"><ele>165.60000000000002</ele><time>2026-04-18T10:27:08Z</time></trkpt><trkpt lat="42.505969664275284" lon="11.609809947908248"><ele>163.0</ele><time>2026-04-18T10:27:09Z</time></trkpt><trkpt lat="42.505948732790216" lon="11.609636298489031"><ele>163.0</ele><time>2026-04-18T10:27:11Z</time></trkpt><trkpt lat="42.5059741759866" lon="11.609451160019228"><ele>163.0</ele><time>2026-04-18T10:27:13Z</time></trkpt><trkpt lat="42.50603416980632" lon="11.609337649123537"><ele>163.0</ele><time>2026-04-18T10:27:15Z</time></trkpt><trkpt lat="42.50613708980639" lon="11.609330308698041"><ele>163.0</ele><time>2026-04-18T10:27:17Z</time></trkpt><trkpt lat="42.50624052601931" lon="11.609397817125688"><ele>161.83333333333334</ele><time>2026-04-18T10:27:19Z</time></trkpt><trkpt lat="42.50630224447781" lon="11.609424795234977"><ele>160.66666666666669</ele><time>2026-04-18T10:27:20Z</time></trkpt><trkpt lat="42.50637395409117" lon="11.609439402160406"><ele>159.5</ele><time>2026-04-18T10:27:21Z</time></trkpt><trkpt lat="42.50645183142361" lon="11.609482380002612"><ele>158.33333333333334</ele><time>2026-04-18T10:27:22Z</time></trkpt><trkpt lat="42.506532671328806" lon="11.609491351117224"><ele>157.16666666666666</ele><time>2026-04-18T10:27:23Z</time></trkpt><trkpt lat="42.50662796104039" lon="11.609523070259188"><ele>156.0</ele><time>2026-04-18T10:27:24Z</time></trkpt><trkpt lat="42.50671969403387" lon="11.609554890274035"><ele>155.66666666666666</ele><time>2026-04-18T10:27:25Z</time></trkpt><trkpt lat="42.50679787249848" lon="11.609614635687628"><ele>155.33333333333334</ele><time>2026-04-18T10:27:26Z</time></trkpt><trkpt lat="42.506866482841545" lon="11.60968073582994"><ele>155.0</ele><time>2026-04-18T10:27:27Z</time></trkpt><trkpt lat="42.5069202543308" lon="11.609762152200545"><ele>154.66666666666669</ele><time>2026-04-18T10:27:28Z</time></trkpt><trkpt lat="42.506971245287545" lon="11.609857591567543"><ele>154.33333333333334</ele><time>2026-04-18T10:27:29Z</time></trkpt><trkpt lat="42.50703603336314" lon="11.609962281825712"><ele>154.0</ele><time>2026-04-18T10:27:30Z</time></trkpt><trkpt lat="42.50709097318168" lon="11.610081834706909"><ele>154.0</ele><time>2026-04-18T10:27:31Z</time></trkpt><trkpt lat="42.507155614625326" lon="11.610214153192716"><ele>154.0</ele><time>2026-04-18T10:27:32Z</time></trkpt><trkpt lat="42.50723097816019" lon="11.610332434163285"><ele>154.0</ele><time>2026-04-18T10:27:33Z</time></trkpt><trkpt lat="42.507312350275804" lon="11.610463421932497"><ele>154.0</ele><time>2026-04-18T10:27:34Z</time></trkpt><trkpt lat="42.50740110629848" lon="11.610599705213252"><ele>152.5</ele><time>2026-04-18T10:27:35Z</time></trkpt><trkpt lat="42.507469427203795" lon="11.610743827984953"><ele>151.0</ele><time>2026-04-18T10:27:36Z</time></trkpt><trkpt lat="42.507538337685084" lon="11.610881219124558"><ele>149.5</ele><time>2026-04-18T10:27:37Z</time></trkpt><trkpt lat="42.50760340753321" lon="11.611025149025872"><ele>148.0</ele><time>2026-04-18T10:27:38Z</time></trkpt><trkpt lat="42.50767431432001" lon="11.611154829300903"><ele>147.75</ele><time>2026-04-18T10:27:39Z</time></trkpt><trkpt lat="42.507747495327244" lon="11.611280545129734"><ele>147.5</ele><time>2026-04-18T10:27:40Z</time></trkpt><trkpt lat="42.50783251505379" lon="11.611416447940433"><ele>147.25</ele><time>2026-04-18T10:27:41Z</time></trkpt><trkpt lat="42.50792658866648" lon="11.611538563505267"><ele>147.0</ele><time>2026-04-18T10:27:42Z</time></trkpt><trkpt lat="42.508028894656746" lon="11.61166276668479"><ele>148.0</ele><time>2026-04-18T10:27:43Z</time></trkpt><trkpt lat="42.508114241382096" lon="11.61179937276033"><ele>149.0</ele><time>2026-04-18T10:27:44Z</time></trkpt><trkpt lat="42.508223303833454" lon="11.611894594328035"><ele>150.0</ele><time>2026-04-18T10:27:45Z</time></trkpt><trkpt lat="42.50833925590405" lon="11.612007721351066"><ele>151.0</ele><time>2026-04-18T10:27:46Z</time></trkpt><trkpt lat="42.50840766989377" lon="11.612055381671299"><ele>148.75</ele><time>2026-04-18T10:27:47Z</time></trkpt><trkpt lat="42.5085049309977" lon="11.6121489807534"><ele>146.5</ele><time>2026-04-18T10:27:48Z</time></trkpt><trkpt lat="42.50861468721105" lon="11.612228071794515"><ele>144.25</ele><time>2026-04-18T10:27:49Z</time></trkpt><trkpt lat="42.50873035318989" lon="11.612308528474143"><ele>142.0</ele><time>2026-04-18T10:27:50Z</time></trkpt><trkpt lat="42.50885404869847" lon="11.61238994896468"><ele>142.0</ele><time>2026-04-18T10:27:51Z</time></trkpt><trkpt lat="42.50897656197165" lon="11.612443786202025"><ele>142.0</ele><time>2026-04-18T10:27:52Z</time></trkpt><trkpt lat="42.509090655806865" lon="11.612515116699495"><ele>142.0</ele><time>2026-04-18T10:27:53Z</time></trkpt><trkpt lat="42.50919229608347" lon="11.612579695531092"><ele>142.0</ele><time>2026-04-18T10:27:54Z</time></trkpt><trkpt lat="42.50930060971647" lon="11.6126464444407"><ele>142.0</ele><time>2026-04-18T10:27:55Z</time></trkpt><trkpt lat="42.50940440274467" lon="11.612719271932788"><ele>142.0</ele><time>2026-04-18T10:27:56Z</time></trkpt><trkpt lat="42.509510559682084" lon="11.612811220085115"><ele>142.0</ele><time>2026-04-18T10:27:57Z</time></trkpt><trkpt lat="42.50960880410527" lon="11.612894781626448"><ele>142.0</ele><time>2026-04-18T10:27:58Z</time></trkpt><trkpt lat="42.50969747353762" lon="11.61297956248797"><ele>138.79999999999998</ele><time>2026-04-18T10:27:59Z</time></trkpt><trkpt lat="42.50979750270202" lon="11.613047080621607"><ele>135.6</ele><time>2026-04-18T10:28:00Z</time></trkpt><trkpt lat="42.509888756141656" lon="11.613124862685902"><ele>132.39999999999998</ele><time>2026-04-18T10:28:01Z</time></trkpt><trkpt lat="42.50996951254263" lon="11.613196858498956"><ele>129.2</ele><time>2026-04-18T10:28:02Z</time></trkpt><trkpt lat="42.51006109042027" lon="11.613258970277617"><ele>126.0</ele><time>2026-04-18T10:28:03Z</time></trkpt><trkpt lat="42.510169377059725" lon="11.613264547972245"><ele>126.0</ele><time>2026-04-18T10:28:04Z</time></trkpt><trkpt lat="42.510297239185164" lon="11.613260899404004"><ele>126.0</ele><time>2026-04-18T10:28:05Z</time></trkpt><trkpt lat="42.51041113819853" lon="11.613240335942907"><ele>126.0</ele><time>2026-04-18T10:28:06Z</time></trkpt><trkpt lat="42.5105291699139" lon="11.613193261835269"><ele>126.0</ele><time>2026-04-18T10:28:07Z</time></trkpt><trkpt lat="42.51065633400792" lon="11.613132422593822"><ele>125.75</ele><time>2026-04-18T10:28:08Z</time></trkpt><trkpt lat="42.51077898052685" lon="11.613070706010317"><ele>125.5</ele><time>2026-04-18T10:28:09Z</time></trkpt><trkpt lat="42.510907668381925" lon="11.613000538833953"><ele>125.25</ele><time>2026-04-18T10:28:10Z</time></trkpt><trkpt lat="42.511034720157554" lon="11.612941247415938"><ele>125.0</ele><time>2026-04-18T10:28:11Z</time></trkpt><trkpt lat="42.51114821869009" lon="11.6128624541328"><ele>125.6</ele><time>2026-04-18T10:28:12Z</time></trkpt><trkpt lat="42.5112551799554" lon="11.612782869079627"><ele>126.2</ele><time>2026-04-18T10:28:13Z</time></trkpt><trkpt lat="42.51135115500997" lon="11.612698864078434"><ele>126.80000000000001</ele><time>2026-04-18T10:28:14Z</time></trkpt><trkpt lat="42.51144899393942" lon="11.612639578976925"><ele>127.4</ele><time>2026-04-18T10:28:15Z</time></trkpt><trkpt lat="42.51153231141246" lon="11.612577866184843"><ele>128.0</ele><time>2026-04-18T10:28:16Z</time></trkpt><trkpt lat="42.511610340160914" lon="11.61252286866202"><ele>127.99999999999999</ele><time>2026-04-18T10:28:17Z</time></trkpt><trkpt lat="42.51168189349014" lon="11.61248122606838"><ele>128.0</ele><time>2026-04-18T10:28:18Z</time></trkpt><trkpt lat="42.511761582666324" lon="11.612448891792763"><ele>128.0</ele><time>2026-04-18T10:28:19Z</time></trkpt><trkpt lat="42.511841744653616" lon="11.612444536263764"><ele>128.0</ele><time>2026-04-18T10:28:20Z</time></trkpt><trkpt lat="42.51191864266038" lon="11.612467637778423"><ele>127.99999999999999</ele><time>2026-04-18T10:28:21Z</time></trkpt><trkpt lat="42.51200879243695" lon="11.612519722720913"><ele>128.0</ele><time>2026-04-18T10:28:22Z</time></trkpt><trkpt lat="42.51211343518883" lon="11.612547717345635"><ele>127.80000000000001</ele><time>2026-04-18T10:28:23Z</time></trkpt><trkpt lat="42.51222151672958" lon="11.612637309565494"><ele>127.60000000000001</ele><time>2026-04-18T10:28:24Z</time></trkpt><trkpt lat="42.51231609898562" lon="11.61268598997941"><ele>127.39999999999999</ele><time>2026-04-18T10:28:25Z</time></trkpt><trkpt lat="42.51240434142949" lon="11.612713771339683"><ele>127.19999999999999</ele><time>2026-04-18T10:28:26Z</time></trkpt><trkpt lat="42.51250695590913" lon="11.612715820954426"><ele>127.0</ele><time>2026-04-18T10:28:27Z</time></trkpt><trkpt lat="42.51260624091519" lon="11.61268054855071"><ele>127.0</ele><time>2026-04-18T10:28:28Z</time></trkpt><trkpt lat="42.51271357558205" lon="11.612643389906248"><ele>127.0</ele><time>2026-04-18T10:28:29Z</time></trkpt><trkpt lat="42.51282149959523" lon="11.612563845888783"><ele>127.0</ele><time>2026-04-18T10:28:30Z</time></trkpt><trkpt lat="42.51291908474423" lon="11.612441249776252"><ele>127.0</ele><time>2026-04-18T10:28:31Z</time></trkpt><trkpt lat="42.51301217778481" lon="11.612313082761672"><ele>127.5</ele><time>2026-04-18T10:28:32Z</time></trkpt><trkpt lat="42.51309286966514" lon="11.612187280120512"><ele>128.0</ele><time>2026-04-18T10:28:33Z</time></trkpt><trkpt lat="42.513184681310385" lon="11.612033730547754"><ele>128.5</ele><time>2026-04-18T10:28:34Z</time></trkpt><trkpt lat="42.51326102816559" lon="11.611894071368507"><ele>129.0</ele><time>2026-04-18T10:28:35Z</time></trkpt><trkpt lat="42.51331338901933" lon="11.6117623478463"><ele>129.0</ele><time>2026-04-18T10:28:36Z</time></trkpt><trkpt lat="42.51338607557014" lon="11.61162559977037"><ele>129.0</ele><time>2026-04-18T10:28:37Z</time></trkpt><trkpt lat="42.513444496461446" lon="11.611524064633358"><ele>129.0</ele><time>2026-04-18T10:28:38Z</time></trkpt><trkpt lat="42.51351973492585" lon="11.611401207593433"><ele>129.0</ele><time>2026-04-18T10:28:39Z</time></trkpt><trkpt lat="42.51358190827684" lon="11.611296662069227"><ele>129.0</ele><time>2026-04-18T10:28:40Z</time></trkpt><trkpt lat="42.513643872674564" lon="11.611216121849386"><ele>128.4</ele><time>2026-04-18T10:28:41Z</time></trkpt><trkpt lat="42.513707428852555" lon="11.611151126986815"><ele>127.80000000000001</ele><time>2026-04-18T10:28:42Z</time></trkpt><trkpt lat="42.51376296183103" lon="11.611102325872169"><ele>127.19999999999999</ele><time>2026-04-18T10:28:43Z</time></trkpt><trkpt lat="42.51389593301597" lon="11.610962052214322"><ele>126.6</ele><time>2026-04-18T10:28:44Z</time></trkpt><trkpt lat="42.51397827501103" lon="11.610872308957418"><ele>126.0</ele><time>2026-04-18T10:28:45Z</time></trkpt><trkpt lat="42.514053348264376" lon="11.610764043627192"><ele>126.0</ele><time>2026-04-18T10:28:46Z</time></trkpt><trkpt lat="42.51414370320471" lon="11.610670485204947"><ele>126.0</ele><time>2026-04-18T10:28:47Z</time></trkpt><trkpt lat="42.5142372875729" lon="11.610584116297929"><ele>126.0</ele><time>2026-04-18T10:28:48Z</time></trkpt><trkpt lat="42.51434165198153" lon="11.61050597755806"><ele>126.0</ele><time>2026-04-18T10:28:49Z</time></trkpt><trkpt lat="42.514433261581694" lon="11.610404726530083"><ele>125.75</ele><time>2026-04-18T10:28:50Z</time></trkpt><trkpt lat="42.514520837181855" lon="11.610305610712862"><ele>125.5</ele><time>2026-04-18T10:28:51Z</time></trkpt><trkpt lat="42.51461704794208" lon="11.610209288354854"><ele>125.25</ele><time>2026-04-18T10:28:52Z</time></trkpt><trkpt lat="42.51471578570678" lon="11.610130173175992"><ele>125.0</ele><time>2026-04-18T10:28:53Z</time></trkpt><trkpt lat="42.51482042624143" lon="11.610055159055317"><ele>125.0</ele><time>2026-04-18T10:28:54Z</time></trkpt><trkpt lat="42.51493001125167" lon="11.609973006401486"><ele>125.0</ele><time>2026-04-18T10:28:55Z</time></trkpt><trkpt lat="42.5150293990681" lon="11.609884524936579"><ele>125.0</ele><time>2026-04-18T10:28:56Z</time></trkpt><trkpt lat="42.51511846001781" lon="11.609799968544625"><ele>125.0</ele><time>2026-04-18T10:28:57Z</time></trkpt><trkpt lat="42.51520600512152" lon="11.609730782550752"><ele>124.99999999999999</ele><time>2026-04-18T10:28:58Z</time></trkpt><trkpt lat="42.51528335576728" lon="11.609653576108396"><ele>125.0</ele><time>2026-04-18T10:28:59Z</time></trkpt><trkpt lat="42.51536382594112" lon="11.60956774789928"><ele>125.0</ele><time>2026-04-18T10:29:00Z</time></trkpt><trkpt lat="42.515447759125344" lon="11.609527519085248"><ele>125.0</ele><time>2026-04-18T10:29:01Z</time></trkpt><trkpt lat="42.51551424120283" lon="11.609503923587228"><ele>124.99999999999999</ele><time>2026-04-18T10:29:02Z</time></trkpt><trkpt lat="42.515578160421335" lon="11.609496768426432"><ele>125.0</ele><time>2026-04-18T10:29:03Z</time></trkpt><trkpt lat="42.515653912867" lon="11.609490153590826"><ele>125.6</ele><time>2026-04-18T10:29:04Z</time></trkpt><trkpt lat="42.5157438568145" lon="11.609483007828555"><ele>126.2</ele><time>2026-04-18T10:29:05Z</time></trkpt><trkpt lat="42.515836760483005" lon="11.609475626957392"><ele>126.80000000000001</ele><time>2026-04-18T10:29:06Z</time></trkpt><trkpt lat="42.51594181007248" lon="11.609463031097972"><ele>127.4</ele><time>2026-04-18T10:29:07Z</time></trkpt><trkpt lat="42.516049131256096" lon="11.609437343899991"><ele>128.0</ele><time>2026-04-18T10:29:08Z</time></trkpt><trkpt lat="42.51616019634735" lon="11.609388491008565"><ele>126.80000000000001</ele><time>2026-04-18T10:29:09Z</time></trkpt><trkpt lat="42.5162650924221" lon="11.60932464671478"><ele>125.60000000000001</ele><time>2026-04-18T10:29:10Z</time></trkpt><trkpt lat="42.516353637207054" lon="11.609218159781879"><ele>124.39999999999999</ele><time>2026-04-18T10:29:11Z</time></trkpt><trkpt lat="42.516452845129756" lon="11.609155901238688"><ele>123.19999999999999</ele><time>2026-04-18T10:29:12Z</time></trkpt><trkpt lat="42.51654523164073" lon="11.609101524115509"><ele>122.0</ele><time>2026-04-18T10:29:13Z</time></trkpt><trkpt lat="42.51662783716408" lon="11.609068890891711"><ele>122.0</ele><time>2026-04-18T10:29:14Z</time></trkpt><trkpt lat="42.516709123310626" lon="11.609040628535976"><ele>121.99999999999999</ele><time>2026-04-18T10:29:15Z</time></trkpt><trkpt lat="42.51679568245758" lon="11.609019392805553"><ele>121.99999999999999</ele><time>2026-04-18T10:29:16Z</time></trkpt><trkpt lat="42.516886883374106" lon="11.608996300241294"><ele>122.0</ele><time>2026-04-18T10:29:17Z</time></trkpt><trkpt lat="42.51697684074559" lon="11.608956134937497"><ele>122.0</ele><time>2026-04-18T10:29:18Z</time></trkpt><trkpt lat="42.51707543877678" lon="11.608937415388136"><ele>121.6</ele><time>2026-04-18T10:29:19Z</time></trkpt><trkpt lat="42.51717263150041" lon="11.608900000484867"><ele>121.19999999999999</ele><time>2026-04-18T10:29:20Z</time></trkpt><trkpt lat="42.51727459670814" lon="11.60885833644391"><ele>120.8</ele><time>2026-04-18T10:29:21Z</time></trkpt><trkpt lat="42.51736078833615" lon="11.608852254091435"><ele>120.4</ele><time>2026-04-18T10:29:22Z</time></trkpt><trkpt lat="42.5174811665985" lon="11.608822253277209"><ele>120.0</ele><time>2026-04-18T10:29:23Z</time></trkpt><trkpt lat="42.51759087807962" lon="11.608803413846207"><ele>120.0</ele><time>2026-04-18T10:29:24Z</time></trkpt><trkpt lat="42.517708544273006" lon="11.608772456121768"><ele>120.0</ele><time>2026-04-18T10:29:25Z</time></trkpt><trkpt lat="42.517810744094795" lon="11.608777457530028"><ele>120.0</ele><time>2026-04-18T10:29:26Z</time></trkpt><trkpt lat="42.517907764154984" lon="11.608739600092493"><ele>120.0</ele><time>2026-04-18T10:29:27Z</time></trkpt><trkpt lat="42.51799739265016" lon="11.608688966057356"><ele>120.0</ele><time>2026-04-18T10:29:28Z</time></trkpt><trkpt lat="42.51808074211901" lon="11.608629086274295"><ele>122.0</ele><time>2026-04-18T10:29:29Z</time></trkpt><trkpt lat="42.5181493693228" lon="11.60855284806858"><ele>124.0</ele><time>2026-04-18T10:29:30Z</time></trkpt><trkpt lat="42.5182163920388" lon="11.608466275663767"><ele>126.0</ele><time>2026-04-18T10:29:31Z</time></trkpt><trkpt lat="42.51827325326105" lon="11.608362497653236"><ele>128.0</ele><time>2026-04-18T10:29:32Z</time></trkpt><trkpt lat="42.51831550433521" lon="11.608246514702296"><ele>130.0</ele><time>2026-04-18T10:29:33Z</time></trkpt><trkpt lat="42.518335510230095" lon="11.608157205775349"><ele>132.0</ele><time>2026-04-18T10:29:34Z</time></trkpt><trkpt lat="42.51834738853014" lon="11.608072804967717"><ele>132.0</ele><time>2026-04-18T10:29:35Z</time></trkpt><trkpt lat="42.51832026906518" lon="11.607978262284307"><ele>132.0</ele><time>2026-04-18T10:29:37Z</time></trkpt><trkpt lat="42.518239739518975" lon="11.607874700600263"><ele>132.0</ele><time>2026-04-18T10:29:39Z</time></trkpt><trkpt lat="42.51817919013438" lon="11.607834153122546"><ele>132.0</ele><time>2026-04-18T10:29:40Z</time></trkpt><trkpt lat="42.51812013785493" lon="11.607802112266699"><ele>132.0</ele><time>2026-04-18T10:29:41Z</time></trkpt><trkpt lat="42.51800818437057" lon="11.607766250013254"><ele>132.0</ele><time>2026-04-18T10:29:43Z</time></trkpt><trkpt lat="42.51794085015734" lon="11.607706075414528"><ele>136.0</ele><time>2026-04-18T10:29:45Z</time></trkpt><trkpt lat="42.518001679784604" lon="11.607582461751395"><ele>140.0</ele><time>2026-04-18T10:29:48Z</time></trkpt><trkpt lat="42.518110343617415" lon="11.607548192762753"><ele>144.0</ele><time>2026-04-18T10:29:50Z</time></trkpt><trkpt lat="42.51820655351647" lon="11.607514596206205"><ele>148.0</ele><time>2026-04-18T10:29:52Z</time></trkpt><trkpt lat="42.51827096902799" lon="11.60745623206854"><ele>152.0</ele><time>2026-04-18T10:29:53Z</time></trkpt><trkpt lat="42.518340879100414" lon="11.607411026972118"><ele>152.0</ele><time>2026-04-18T10:29:54Z</time></trkpt><trkpt lat="42.51840771328835" lon="11.607339385973582"><ele>152.0</ele><time>2026-04-18T10:29:55Z</time></trkpt><trkpt lat="42.518458187603045" lon="11.607264597535956"><ele>152.0</ele><time>2026-04-18T10:29:56Z</time></trkpt><trkpt lat="42.518501753062914" lon="11.607192366717621"><ele>152.0</ele><time>2026-04-18T10:29:57Z</time></trkpt><trkpt lat="42.518539471416084" lon="11.607108082629214"><ele>152.0</ele><time>2026-04-18T10:29:58Z</time></trkpt><trkpt lat="42.51856498942158" lon="11.607013170722292"><ele>152.0</ele><time>2026-04-18T10:29:59Z</time></trkpt><trkpt lat="42.51859118187971" lon="11.606927432342186"><ele>152.0</ele><time>2026-04-18T10:30:00Z</time></trkpt><trkpt lat="42.5186187122773" lon="11.60684364178206"><ele>151.0</ele><time>2026-04-18T10:30:01Z</time></trkpt><trkpt lat="42.51864802355568" lon="11.606758246323723"><ele>150.0</ele><time>2026-04-18T10:30:02Z</time></trkpt><trkpt lat="42.51868409014807" lon="11.606663814525628"><ele>149.0</ele><time>2026-04-18T10:30:03Z</time></trkpt><trkpt lat="42.518720410606754" lon="11.606565305777105"><ele>148.0</ele><time>2026-04-18T10:30:04Z</time></trkpt><trkpt lat="42.51877250687431" lon="11.606466482680442"><ele>147.0</ele><time>2026-04-18T10:30:05Z</time></trkpt><trkpt lat="42.518843446820775" lon="11.606382988828262"><ele>146.0</ele><time>2026-04-18T10:30:06Z</time></trkpt><trkpt lat="42.51892678139928" lon="11.606313984708708"><ele>146.0</ele><time>2026-04-18T10:30:07Z</time></trkpt><trkpt lat="42.519019487138074" lon="11.606236376985848"><ele>146.0</ele><time>2026-04-18T10:30:08Z</time></trkpt><trkpt lat="42.51910976260187" lon="11.60616387943434"><ele>146.0</ele><time>2026-04-18T10:30:09Z</time></trkpt><trkpt lat="42.5191957678527" lon="11.606103227450639"><ele>146.0</ele><time>2026-04-18T10:30:10Z</time></trkpt><trkpt lat="42.519277721313735" lon="11.606047582063898"><ele>146.0</ele><time>2026-04-18T10:30:11Z</time></trkpt><trkpt lat="42.51935190933423" lon="11.606007604908323"><ele>145.0</ele><time>2026-04-18T10:30:12Z</time></trkpt><trkpt lat="42.51946336149197" lon="11.605989482737895"><ele>144.0</ele><time>2026-04-18T10:30:14Z</time></trkpt><trkpt lat="42.51954058762285" lon="11.60596652243391"><ele>143.0</ele><time>2026-04-18T10:30:15Z</time></trkpt><trkpt lat="42.5196142413817" lon="11.605987434147552"><ele>142.0</ele><time>2026-04-18T10:30:16Z</time></trkpt><trkpt lat="42.51979014473408" lon="11.605918641346861"><ele>142.0</ele><time>2026-04-18T10:30:18Z</time></trkpt><trkpt lat="42.51987620005613" lon="11.605856387089903"><ele>142.0</ele><time>2026-04-18T10:30:19Z</time></trkpt><trkpt lat="42.5199635147172" lon="11.605787654243302"><ele>142.0</ele><time>2026-04-18T10:30:20Z</time></trkpt><trkpt lat="42.52005871026452" lon="11.605687462012748"><ele>142.0</ele><time>2026-04-18T10:30:21Z</time></trkpt><trkpt lat="42.520159229991314" lon="11.605573275550462"><ele>142.0</ele><time>2026-04-18T10:30:22Z</time></trkpt><trkpt lat="42.5202567823141" lon="11.60547091610955"><ele>142.0</ele><time>2026-04-18T10:30:23Z</time></trkpt><trkpt lat="42.52035152895521" lon="11.605374609734916"><ele>142.0</ele><time>2026-04-18T10:30:24Z</time></trkpt><trkpt lat="42.52043339460895" lon="11.60528077938452"><ele>142.0</ele><time>2026-04-18T10:30:25Z</time></trkpt><trkpt lat="42.52051698365339" lon="11.605210901817268"><ele>142.0</ele><time>2026-04-18T10:30:26Z</time></trkpt><trkpt lat="42.52058859894254" lon="11.605140707982137"><ele>139.16666666666669</ele><time>2026-04-18T10:30:27Z</time></trkpt><trkpt lat="42.52064912092587" lon="11.605062375584643"><ele>136.33333333333334</ele><time>2026-04-18T10:30:28Z</time></trkpt><trkpt lat="42.520716889737926" lon="11.605000151893853"><ele>133.5</ele><time>2026-04-18T10:30:29Z</time></trkpt><trkpt lat="42.520788555295205" lon="11.604922050032497"><ele>130.66666666666666</ele><time>2026-04-18T10:30:30Z</time></trkpt><trkpt lat="42.52086999280367" lon="11.604859094503576"><ele>127.83333333333333</ele><time>2026-04-18T10:30:31Z</time></trkpt><trkpt lat="42.52093743435522" lon="11.60478360302122"><ele>125.0</ele><time>2026-04-18T10:30:32Z</time></trkpt><trkpt lat="42.52098683708279" lon="11.604698339880448"><ele>125.0</ele><time>2026-04-18T10:30:33Z</time></trkpt><trkpt lat="42.52104056241397" lon="11.604609117627382"><ele>125.0</ele><time>2026-04-18T10:30:34Z</time></trkpt><trkpt lat="42.521084491624926" lon="11.604498910133799"><ele>125.0</ele><time>2026-04-18T10:30:35Z</time></trkpt><trkpt lat="42.52110313469398" lon="11.604385081261306"><ele>125.0</ele><time>2026-04-18T10:30:36Z</time></trkpt><trkpt lat="42.5211216555697" lon="11.604227898624309"><ele>125.0</ele><time>2026-04-18T10:30:37Z</time></trkpt><trkpt lat="42.52113954098993" lon="11.604055168323596"><ele>123.2</ele><time>2026-04-18T10:30:38Z</time></trkpt><trkpt lat="42.5211647432519" lon="11.603911192212983"><ele>121.4</ele><time>2026-04-18T10:30:39Z</time></trkpt><trkpt lat="42.52119922147794" lon="11.603776692134126"><ele>119.6</ele><time>2026-04-18T10:30:40Z</time></trkpt><trkpt lat="42.52123142115417" lon="11.603649315228031"><ele>117.8</ele><time>2026-04-18T10:30:41Z</time></trkpt><trkpt lat="42.52125938218913" lon="11.603529569438564"><ele>116.0</ele><time>2026-04-18T10:30:42Z</time></trkpt><trkpt lat="42.52129696481897" lon="11.603422053765977"><ele>115.99999999999999</ele><time>2026-04-18T10:30:43Z</time></trkpt><trkpt lat="42.52133140264817" lon="11.603320766760756"><ele>116.0</ele><time>2026-04-18T10:30:44Z</time></trkpt><trkpt lat="42.521359368398066" lon="11.603219288665114"><ele>116.0</ele><time>2026-04-18T10:30:45Z</time></trkpt><trkpt lat="42.52139084545394" lon="11.603131976221755"><ele>116.0</ele><time>2026-04-18T10:30:46Z</time></trkpt><trkpt lat="42.52144060714183" lon="11.603036572747344"><ele>115.99999999999999</ele><time>2026-04-18T10:30:48Z</time></trkpt><trkpt lat="42.52152582997347" lon="11.602977859201978"><ele>116.0</ele><time>2026-04-18T10:30:50Z</time></trkpt><trkpt lat="42.521597394841095" lon="11.603072279250654"><ele>116.0</ele><time>2026-04-18T10:30:52Z</time></trkpt><trkpt lat="42.52155043262735" lon="11.60315709443057"><ele>116.0</ele><time>2026-04-18T10:30:53Z</time></trkpt><trkpt lat="42.52153274585721" lon="11.603307454532668"><ele>116.0</ele><time>2026-04-18T10:30:55Z</time></trkpt><trkpt lat="42.521529539528714" lon="11.603420472226915"><ele>116.0</ele><time>2026-04-18T10:30:56Z</time></trkpt><trkpt lat="42.52150038845423" lon="11.603538450480597"><ele>116.0</ele><time>2026-04-18T10:30:57Z</time></trkpt><trkpt lat="42.52147499781982" lon="11.603663481841135"><ele>116.0</ele><time>2026-04-18T10:30:58Z</time></trkpt><trkpt lat="42.52145990259835" lon="11.603787846149302"><ele>116.0</ele><time>2026-04-18T10:30:59Z</time></trkpt><trkpt lat="42.52144416192902" lon="11.603904369054723"><ele>116.0</ele><time>2026-04-18T10:31:00Z</time></trkpt><trkpt lat="42.52143343049205" lon="11.604034150524997"><ele>116.0</ele><time>2026-04-18T10:31:01Z</time></trkpt><trkpt lat="42.5214198536247" lon="11.604168759864542"><ele>116.0</ele><time>2026-04-18T10:31:02Z</time></trkpt><trkpt lat="42.52137634709263" lon="11.604305108946257"><ele>116.0</ele><time>2026-04-18T10:31:03Z</time></trkpt><trkpt lat="42.52134974751467" lon="11.604456306412883"><ele>116.0</ele><time>2026-04-18T10:31:04Z</time></trkpt><trkpt lat="42.521334201898775" lon="11.60458552670694"><ele>116.0</ele><time>2026-04-18T10:31:05Z</time></trkpt><trkpt lat="42.521326416463765" lon="11.60473594274419"><ele>116.0</ele><time>2026-04-18T10:31:06Z</time></trkpt><trkpt lat="42.521313336664996" lon="11.604860675311345"><ele>116.0</ele><time>2026-04-18T10:31:07Z</time></trkpt><trkpt lat="42.52129951316953" lon="11.604975444531938"><ele>116.16666666666666</ele><time>2026-04-18T10:31:08Z</time></trkpt><trkpt lat="42.52125971078515" lon="11.605077266647815"><ele>116.33333333333333</ele><time>2026-04-18T10:31:09Z</time></trkpt><trkpt lat="42.52120605636295" lon="11.6051553146307"><ele>116.5</ele><time>2026-04-18T10:31:10Z</time></trkpt><trkpt lat="42.5211412460402" lon="11.6052227468636"><ele>116.66666666666666</ele><time>2026-04-18T10:31:11Z</time></trkpt><trkpt lat="42.52107007013283" lon="11.605261472477837"><ele>116.83333333333333</ele><time>2026-04-18T10:31:12Z</time></trkpt><trkpt lat="42.52098276976941" lon="11.605316661056536"><ele>117.0</ele><time>2026-04-18T10:31:13Z</time></trkpt><trkpt lat="42.5209139589859" lon="11.605382630123572"><ele>116.0</ele><time>2026-04-18T10:31:14Z</time></trkpt><trkpt lat="42.52086455604274" lon="11.60546562529017"><ele>115.0</ele><time>2026-04-18T10:31:15Z</time></trkpt><trkpt lat="42.52083777896778" lon="11.605566083131784"><ele>114.0</ele><time>2026-04-18T10:31:16Z</time></trkpt><trkpt lat="42.5208105041743" lon="11.60567765847184"><ele>113.0</ele><time>2026-04-18T10:31:17Z</time></trkpt><trkpt lat="42.52082212911457" lon="11.60580678294208"><ele>112.0</ele><time>2026-04-18T10:31:18Z</time></trkpt><trkpt lat="42.52084445083735" lon="11.605925590995973"><ele>111.0</ele><time>2026-04-18T10:31:19Z</time></trkpt><trkpt lat="42.52084060539428" lon="11.606032048892096"><ele>111.0</ele><time>2026-04-18T10:31:20Z</time></trkpt><trkpt lat="42.52084842516184" lon="11.606159469457227"><ele>111.0</ele><time>2026-04-18T10:31:22Z</time></trkpt><trkpt lat="42.520914864552026" lon="11.606287310193101"><ele>111.0</ele><time>2026-04-18T10:31:24Z</time></trkpt><trkpt lat="42.5210046840264" lon="11.606277121751486"><ele>111.0</ele><time>2026-04-18T10:31:25Z</time></trkpt><trkpt lat="42.52108870992391" lon="11.606298931565785"><ele>111.0</ele><time>2026-04-18T10:31:26Z</time></trkpt><trkpt lat="42.52117736835398" lon="11.606297636220562"><ele>109.16666666666667</ele><time>2026-04-18T10:31:27Z</time></trkpt><trkpt lat="42.52126184311175" lon="11.606262818339959"><ele>107.33333333333334</ele><time>2026-04-18T10:31:28Z</time></trkpt><trkpt lat="42.52134539860319" lon="11.60627347414022"><ele>105.5</ele><time>2026-04-18T10:31:29Z</time></trkpt><trkpt lat="42.52144633013165" lon="11.606272792818121"><ele>103.66666666666667</ele><time>2026-04-18T10:31:30Z</time></trkpt><trkpt lat="42.521529082490716" lon="11.606271174984178"><ele>101.83333333333334</ele><time>2026-04-18T10:31:31Z</time></trkpt><trkpt lat="42.52162227683068" lon="11.606271544188958"><ele>100.0</ele><time>2026-04-18T10:31:32Z</time></trkpt><trkpt lat="42.52171787449616" lon="11.606278635435867"><ele>100.0</ele><time>2026-04-18T10:31:33Z</time></trkpt><trkpt lat="42.52181326346735" lon="11.606292574017177"><ele>100.0</ele><time>2026-04-18T10:31:34Z</time></trkpt><trkpt lat="42.52190752969683" lon="11.606312416321872"><ele>100.0</ele><time>2026-04-18T10:31:35Z</time></trkpt><trkpt lat="42.52200422097738" lon="11.606354057395142"><ele>100.0</ele><time>2026-04-18T10:31:36Z</time></trkpt><trkpt lat="42.522106506942954" lon="11.606404553141436"><ele>100.0</ele><time>2026-04-18T10:31:37Z</time></trkpt><trkpt lat="42.52222044257107" lon="11.60643830359903"><ele>102.0</ele><time>2026-04-18T10:31:38Z</time></trkpt><trkpt lat="42.522337472610985" lon="11.606480053519984"><ele>104.0</ele><time>2026-04-18T10:31:39Z</time></trkpt><trkpt lat="42.52246460212661" lon="11.606504109483943"><ele>106.0</ele><time>2026-04-18T10:31:40Z</time></trkpt><trkpt lat="42.52257181274329" lon="11.606541119440246"><ele>108.0</ele><time>2026-04-18T10:31:41Z</time></trkpt><trkpt lat="42.52267698675777" lon="11.606557957189759"><ele>108.0</ele><time>2026-04-18T10:31:42Z</time></trkpt><trkpt lat="42.52278238821662" lon="11.606569833905803"><ele>108.00000000000001</ele><time>2026-04-18T10:31:43Z</time></trkpt><trkpt lat="42.52287335875833" lon="11.606567685743066"><ele>108.00000000000001</ele><time>2026-04-18T10:31:44Z</time></trkpt><trkpt lat="42.5229735566643" lon="11.60654777352133"><ele>108.0</ele><time>2026-04-18T10:31:45Z</time></trkpt><trkpt lat="42.52307948999644" lon="11.606501689495284"><ele>108.0</ele><time>2026-04-18T10:31:46Z</time></trkpt><trkpt lat="42.52317583824696" lon="11.606455106397519"><ele>108.0</ele><time>2026-04-18T10:31:47Z</time></trkpt><trkpt lat="42.52328407611308" lon="11.60640701511671"><ele>108.00000000000001</ele><time>2026-04-18T10:31:48Z</time></trkpt><trkpt lat="42.52337963364122" lon="11.60635976584328"><ele>108.00000000000001</ele><time>2026-04-18T10:31:49Z</time></trkpt><trkpt lat="42.52346071888471" lon="11.606310827330478"><ele>108.0</ele><time>2026-04-18T10:31:50Z</time></trkpt><trkpt lat="42.52354211781101" lon="11.606230364391692"><ele>108.0</ele><time>2026-04-18T10:31:51Z</time></trkpt><trkpt lat="42.52363085464391" lon="11.606172459622975"><ele>111.2</ele><time>2026-04-18T10:31:52Z</time></trkpt><trkpt lat="42.523721663680526" lon="11.606124629305056"><ele>114.4</ele><time>2026-04-18T10:31:53Z</time></trkpt><trkpt lat="42.52381599765869" lon="11.60608529997645"><ele>117.60000000000001</ele><time>2026-04-18T10:31:54Z</time></trkpt><trkpt lat="42.523885939620826" lon="11.606077860560964"><ele>120.80000000000001</ele><time>2026-04-18T10:31:55Z</time></trkpt><trkpt lat="42.52397117542944" lon="11.606073280929998"><ele>124.0</ele><time>2026-04-18T10:31:56Z</time></trkpt><trkpt lat="42.52408455620384" lon="11.606095774412829"><ele>124.0</ele><time>2026-04-18T10:31:57Z</time></trkpt><trkpt lat="42.52419781982552" lon="11.606125902931584"><ele>124.0</ele><time>2026-04-18T10:31:58Z</time></trkpt><trkpt lat="42.52431637364822" lon="11.606129471131599"><ele>124.0</ele><time>2026-04-18T10:31:59Z</time></trkpt><trkpt lat="42.52443167949626" lon="11.60615385628864"><ele>124.0</ele><time>2026-04-18T10:32:00Z</time></trkpt><trkpt lat="42.52454539076112" lon="11.606175486713392"><ele>119.80000000000001</ele><time>2026-04-18T10:32:01Z</time></trkpt><trkpt lat="42.52465054293261" lon="11.606209374252103"><ele>115.60000000000001</ele><time>2026-04-18T10:32:02Z</time></trkpt><trkpt lat="42.524753503490196" lon="11.606201329503795"><ele>111.4</ele><time>2026-04-18T10:32:03Z</time></trkpt><trkpt lat="42.52484180286042" lon="11.606208185118682"><ele>107.2</ele><time>2026-04-18T10:32:04Z</time></trkpt><trkpt lat="42.52494157143877" lon="11.606209996309948"><ele>103.0</ele><time>2026-04-18T10:32:05Z</time></trkpt><trkpt lat="42.52502899329043" lon="11.606184766900283"><ele>106.25</ele><time>2026-04-18T10:32:06Z</time></trkpt><trkpt lat="42.52512928978668" lon="11.60612641545222"><ele>109.5</ele><time>2026-04-18T10:32:07Z</time></trkpt><trkpt lat="42.525222308001425" lon="11.60602109494616"><ele>112.75</ele><time>2026-04-18T10:32:08Z</time></trkpt><trkpt lat="42.5252986689084" lon="11.605912668940379"><ele>116.0</ele><time>2026-04-18T10:32:09Z</time></trkpt><trkpt lat="42.525376479081565" lon="11.605804073333966"><ele>114.25</ele><time>2026-04-18T10:32:10Z</time></trkpt><trkpt lat="42.52546073643157" lon="11.605687478752616"><ele>112.5</ele><time>2026-04-18T10:32:11Z</time></trkpt><trkpt lat="42.52553970460856" lon="11.605566743641374"><ele>110.75</ele><time>2026-04-18T10:32:12Z</time></trkpt><trkpt lat="42.525626942179876" lon="11.605411315751999"><ele>109.0</ele><time>2026-04-18T10:32:13Z</time></trkpt><trkpt lat="42.52570404268267" lon="11.605263695160582"><ele>109.0</ele><time>2026-04-18T10:32:14Z</time></trkpt><trkpt lat="42.52575906512517" lon="11.605159503181659"><ele>109.0</ele><time>2026-04-18T10:32:15Z</time></trkpt><trkpt lat="42.525831234050855" lon="11.605035645345298"><ele>109.0</ele><time>2026-04-18T10:32:16Z</time></trkpt><trkpt lat="42.52590861743317" lon="11.604913961256141"><ele>109.0</ele><time>2026-04-18T10:32:17Z</time></trkpt><trkpt lat="42.52598398938063" lon="11.604794179044777"><ele>109.0</ele><time>2026-04-18T10:32:18Z</time></trkpt><trkpt lat="42.52605522334182" lon="11.604657951819224"><ele>109.0</ele><time>2026-04-18T10:32:19Z</time></trkpt><trkpt lat="42.526118123206956" lon="11.60450978855618"><ele>109.0</ele><time>2026-04-18T10:32:20Z</time></trkpt><trkpt lat="42.52616821032416" lon="11.604358776081934"><ele>109.0</ele><time>2026-04-18T10:32:21Z</time></trkpt><trkpt lat="42.526195871348996" lon="11.60419907981776"><ele>109.0</ele><time>2026-04-18T10:32:22Z</time></trkpt><trkpt lat="42.52624023852193" lon="11.604063690133627"><ele>107.5</ele><time>2026-04-18T10:32:23Z</time></trkpt><trkpt lat="42.526306343464576" lon="11.603945005836286"><ele>106.0</ele><time>2026-04-18T10:32:24Z</time></trkpt><trkpt lat="42.5263862595969" lon="11.60382830096667"><ele>104.5</ele><time>2026-04-18T10:32:25Z</time></trkpt><trkpt lat="42.5264701551111" lon="11.603703604862327"><ele>103.0</ele><time>2026-04-18T10:32:26Z</time></trkpt><trkpt lat="42.52655636929654" lon="11.603578318675892"><ele>106.75</ele><time>2026-04-18T10:32:27Z</time></trkpt><trkpt lat="42.52663723359882" lon="11.603454974320977"><ele>110.5</ele><time>2026-04-18T10:32:28Z</time></trkpt><trkpt lat="42.526679963796475" lon="11.60329762538217"><ele>114.25</ele><time>2026-04-18T10:32:29Z</time></trkpt><trkpt lat="42.52674022992797" lon="11.603139037391097"><ele>118.0</ele><time>2026-04-18T10:32:30Z</time></trkpt><trkpt lat="42.52679821688025" lon="11.602968471844886"><ele>121.75</ele><time>2026-04-18T10:32:31Z</time></trkpt><trkpt lat="42.52686795534551" lon="11.602823929965181"><ele>125.5</ele><time>2026-04-18T10:32:32Z</time></trkpt><trkpt lat="42.52692572420924" lon="11.602668256001499"><ele>129.25</ele><time>2026-04-18T10:32:33Z</time></trkpt><trkpt lat="42.5269744103172" lon="11.602525569310004"><ele>133.0</ele><time>2026-04-18T10:32:34Z</time></trkpt><trkpt lat="42.52700120668545" lon="11.6023815247282"><ele>133.0</ele><time>2026-04-18T10:32:35Z</time></trkpt><trkpt lat="42.52704068676638" lon="11.60227215520862"><ele>133.0</ele><time>2026-04-18T10:32:36Z</time></trkpt><trkpt lat="42.52706923799135" lon="11.602135668368902"><ele>133.0</ele><time>2026-04-18T10:32:37Z</time></trkpt><trkpt lat="42.527111695969" lon="11.601992916077311"><ele>133.0</ele><time>2026-04-18T10:32:38Z</time></trkpt><trkpt lat="42.52716031791211" lon="11.601874364592534"><ele>133.0</ele><time>2026-04-18T10:32:39Z</time></trkpt><trkpt lat="42.52719751044197" lon="11.601768931993268"><ele>129.33333333333334</ele><time>2026-04-18T10:32:40Z</time></trkpt><trkpt lat="42.527279599821775" lon="11.60168880288203"><ele>125.66666666666667</ele><time>2026-04-18T10:32:41Z</time></trkpt><trkpt lat="42.527326315582535" lon="11.60158561729559"><ele>122.0</ele><time>2026-04-18T10:32:42Z</time></trkpt><trkpt lat="42.52734639295882" lon="11.601468842905794"><ele>118.33333333333334</ele><time>2026-04-18T10:32:43Z</time></trkpt><trkpt lat="42.52737336137425" lon="11.601384934339602"><ele>114.66666666666667</ele><time>2026-04-18T10:32:44Z</time></trkpt><trkpt lat="42.527404089785875" lon="11.601252012467668"><ele>111.0</ele><time>2026-04-18T10:32:46Z</time></trkpt><trkpt lat="42.52746490587833" lon="11.601216317268172"><ele>114.8</ele><time>2026-04-18T10:32:47Z</time></trkpt><trkpt lat="42.527463178551166" lon="11.60105824856941"><ele>118.6</ele><time>2026-04-18T10:32:48Z</time></trkpt><trkpt lat="42.52751133789384" lon="11.600938238032317"><ele>122.4</ele><time>2026-04-18T10:32:49Z</time></trkpt><trkpt lat="42.527557729839145" lon="11.600823398577639"><ele>126.2</ele><time>2026-04-18T10:32:50Z</time></trkpt><trkpt lat="42.52761484924368" lon="11.600708047218463"><ele>130.0</ele><time>2026-04-18T10:32:51Z</time></trkpt><trkpt lat="42.52767904874006" lon="11.600589316680319"><ele>130.0</ele><time>2026-04-18T10:32:52Z</time></trkpt><trkpt lat="42.52774372502722" lon="11.600463213618609"><ele>130.0</ele><time>2026-04-18T10:32:53Z</time></trkpt><trkpt lat="42.527803887731665" lon="11.600323419686955"><ele>130.0</ele><time>2026-04-18T10:32:54Z</time></trkpt><trkpt lat="42.52786809685549" lon="11.600177834410788"><ele>130.0</ele><time>2026-04-18T10:32:55Z</time></trkpt><trkpt lat="42.527941277146816" lon="11.600028056994569"><ele>128.0</ele><time>2026-04-18T10:32:56Z</time></trkpt><trkpt lat="42.52801374912202" lon="11.599888094114274"><ele>126.0</ele><time>2026-04-18T10:32:57Z</time></trkpt><trkpt lat="42.528090255243114" lon="11.59973621902919"><ele>124.0</ele><time>2026-04-18T10:32:58Z</time></trkpt><trkpt lat="42.528160611227975" lon="11.59958404934561"><ele>122.0</ele><time>2026-04-18T10:32:59Z</time></trkpt><trkpt lat="42.52822758829191" lon="11.599416452896854"><ele>122.0</ele><time>2026-04-18T10:33:00Z</time></trkpt><trkpt lat="42.528279866601245" lon="11.599245871363532"><ele>122.0</ele><time>2026-04-18T10:33:01Z</time></trkpt><trkpt lat="42.52830805527634" lon="11.599084620583067"><ele>122.0</ele><time>2026-04-18T10:33:02Z</time></trkpt><trkpt lat="42.52832565096532" lon="11.598926486310082"><ele>122.0</ele><time>2026-04-18T10:33:03Z</time></trkpt><trkpt lat="42.52840124248923" lon="11.59882271690066"><ele>122.0</ele><time>2026-04-18T10:33:04Z</time></trkpt><trkpt lat="42.52848076135821" lon="11.598712301559521"><ele>122.0</ele><time>2026-04-18T10:33:05Z</time></trkpt><trkpt lat="42.528571709669876" lon="11.598593386793825"><ele>122.0</ele><time>2026-04-18T10:33:06Z</time></trkpt><trkpt lat="42.528664042291965" lon="11.598474856477665"><ele>122.0</ele><time>2026-04-18T10:33:07Z</time></trkpt><trkpt lat="42.52874890273995" lon="11.598330838742841"><ele>124.0</ele><time>2026-04-18T10:33:08Z</time></trkpt><trkpt lat="42.52884386783599" lon="11.598206621370759"><ele>126.0</ele><time>2026-04-18T10:33:09Z</time></trkpt><trkpt lat="42.52892476574226" lon="11.59806025256165"><ele>128.0</ele><time>2026-04-18T10:33:10Z</time></trkpt><trkpt lat="42.529001230146804" lon="11.597899584972138"><ele>130.0</ele><time>2026-04-18T10:33:11Z</time></trkpt><trkpt lat="42.52907021605569" lon="11.59773077519214"><ele>130.0</ele><time>2026-04-18T10:33:12Z</time></trkpt><trkpt lat="42.529150064095084" lon="11.59756240674172"><ele>130.0</ele><time>2026-04-18T10:33:13Z</time></trkpt><trkpt lat="42.52923135803399" lon="11.59739169018979"><ele>130.0</ele><time>2026-04-18T10:33:14Z</time></trkpt><trkpt lat="42.52930176741005" lon="11.59720814307835"><ele>132.66666666666669</ele><time>2026-04-18T10:33:15Z</time></trkpt><trkpt lat="42.5293499109964" lon="11.597001264748824"><ele>135.33333333333334</ele><time>2026-04-18T10:33:16Z</time></trkpt><trkpt lat="42.52938772246476" lon="11.59678433718318"><ele>138.0</ele><time>2026-04-18T10:33:17Z</time></trkpt><trkpt lat="42.52940033035559" lon="11.596556144613453"><ele>138.0</ele><time>2026-04-18T10:33:18Z</time></trkpt><trkpt lat="42.52940500017554" lon="11.596334469837707"><ele>138.0</ele><time>2026-04-18T10:33:19Z</time></trkpt><trkpt lat="42.52941088566255" lon="11.596127312469173"><ele>138.0</ele><time>2026-04-18T10:33:20Z</time></trkpt><trkpt lat="42.52943161785185" lon="11.595925798578584"><ele>137.0</ele><time>2026-04-18T10:33:21Z</time></trkpt><trkpt lat="42.52949796040254" lon="11.595740078982592"><ele>136.0</ele><time>2026-04-18T10:33:22Z</time></trkpt><trkpt lat="42.52959272387333" lon="11.595557061471213"><ele>135.0</ele><time>2026-04-18T10:33:23Z</time></trkpt><trkpt lat="42.52968091489167" lon="11.595384608240382"><ele>130.0</ele><time>2026-04-18T10:33:24Z</time></trkpt><trkpt lat="42.52976394122149" lon="11.595197582163166"><ele>125.0</ele><time>2026-04-18T10:33:25Z</time></trkpt><trkpt lat="42.52981097618783" lon="11.59498114967095"><ele>120.0</ele><time>2026-04-18T10:33:26Z</time></trkpt><trkpt lat="42.529843128894285" lon="11.5947630830848"><ele>120.0</ele><time>2026-04-18T10:33:27Z</time></trkpt><trkpt lat="42.52987799107156" lon="11.594542366678464"><ele>120.0</ele><time>2026-04-18T10:33:28Z</time></trkpt><trkpt lat="42.52991206186874" lon="11.594349650304931"><ele>120.0</ele><time>2026-04-18T10:33:29Z</time></trkpt><trkpt lat="42.52994141867292" lon="11.594158831663048"><ele>121.5</ele><time>2026-04-18T10:33:30Z</time></trkpt><trkpt lat="42.52996359911401" lon="11.593976138711122"><ele>123.0</ele><time>2026-04-18T10:33:31Z</time></trkpt><trkpt lat="42.52998521782243" lon="11.593799046539836"><ele>124.5</ele><time>2026-04-18T10:33:32Z</time></trkpt><trkpt lat="42.530023570753656" lon="11.593631821881813"><ele>126.0</ele><time>2026-04-18T10:33:33Z</time></trkpt><trkpt lat="42.53009918834746" lon="11.593477146155042"><ele>122.33333333333334</ele><time>2026-04-18T10:33:34Z</time></trkpt><trkpt lat="42.530221002909755" lon="11.593368514529885"><ele>118.66666666666667</ele><time>2026-04-18T10:33:35Z</time></trkpt><trkpt lat="42.530343381387375" lon="11.593242986383766"><ele>115.0</ele><time>2026-04-18T10:33:36Z</time></trkpt><trkpt lat="42.53045165050112" lon="11.593091838576443"><ele>115.0</ele><time>2026-04-18T10:33:37Z</time></trkpt><trkpt lat="42.530564249028394" lon="11.592939948589809"><ele>115.0</ele><time>2026-04-18T10:33:38Z</time></trkpt><trkpt lat="42.53067675918171" lon="11.592765027995405"><ele>115.0</ele><time>2026-04-18T10:33:39Z</time></trkpt><trkpt lat="42.530787731385026" lon="11.592593588987894"><ele>119.0</ele><time>2026-04-18T10:33:40Z</time></trkpt><trkpt lat="42.53089546636532" lon="11.592423444861703"><ele>123.0</ele><time>2026-04-18T10:33:41Z</time></trkpt><trkpt lat="42.531010728292095" lon="11.592242805578707"><ele>127.0</ele><time>2026-04-18T10:33:42Z</time></trkpt><trkpt lat="42.531125201125285" lon="11.592068995486333"><ele>124.66666666666667</ele><time>2026-04-18T10:33:43Z</time></trkpt><trkpt lat="42.531234566054685" lon="11.591899345255854"><ele>122.33333333333334</ele><time>2026-04-18T10:33:44Z</time></trkpt><trkpt lat="42.531339957041965" lon="11.591727743227548"><ele>120.0</ele><time>2026-04-18T10:33:45Z</time></trkpt><trkpt lat="42.53144636975039" lon="11.591553477845581"><ele>120.0</ele><time>2026-04-18T10:33:46Z</time></trkpt><trkpt lat="42.53154455981433" lon="11.59138891443172"><ele>120.0</ele><time>2026-04-18T10:33:47Z</time></trkpt><trkpt lat="42.53165033029386" lon="11.59122479781731"><ele>120.0</ele><time>2026-04-18T10:33:48Z</time></trkpt><trkpt lat="42.53174898708249" lon="11.591070503705435"><ele>120.5</ele><time>2026-04-18T10:33:49Z</time></trkpt><trkpt lat="42.531850338029976" lon="11.590912999921832"><ele>121.0</ele><time>2026-04-18T10:33:50Z</time></trkpt><trkpt lat="42.53194595326359" lon="11.590762319059579"><ele>121.5</ele><time>2026-04-18T10:33:51Z</time></trkpt><trkpt lat="42.53205033499442" lon="11.590618730950512"><ele>122.0</ele><time>2026-04-18T10:33:52Z</time></trkpt><trkpt lat="42.532176450927594" lon="11.590484975375638"><ele>122.0</ele><time>2026-04-18T10:33:53Z</time></trkpt><trkpt lat="42.532322550056776" lon="11.590395326461318"><ele>122.0</ele><time>2026-04-18T10:33:54Z</time></trkpt><trkpt lat="42.53247901662356" lon="11.590293344705355"><ele>122.0</ele><time>2026-04-18T10:33:55Z</time></trkpt><trkpt lat="42.53263240170257" lon="11.59017053696842"><ele>123.0</ele><time>2026-04-18T10:33:56Z</time></trkpt><trkpt lat="42.53279623656884" lon="11.590072782304974"><ele>124.0</ele><time>2026-04-18T10:33:57Z</time></trkpt><trkpt lat="42.53294304868739" lon="11.58999266340455"><ele>125.0</ele><time>2026-04-18T10:33:58Z</time></trkpt><trkpt lat="42.53309600880962" lon="11.589932511128184"><ele>125.0</ele><time>2026-04-18T10:33:59Z</time></trkpt><trkpt lat="42.53326052783112" lon="11.58992420196999"><ele>125.0</ele><time>2026-04-18T10:34:00Z</time></trkpt><trkpt lat="42.533419857346345" lon="11.589927025838866"><ele>125.0</ele><time>2026-04-18T10:34:01Z</time></trkpt><trkpt lat="42.53358099135187" lon="11.589945585100017"><ele>123.0</ele><time>2026-04-18T10:34:02Z</time></trkpt><trkpt lat="42.53373620946385" lon="11.589938354857637"><ele>121.0</ele><time>2026-04-18T10:34:03Z</time></trkpt><trkpt lat="42.533888441487626" lon="11.589952654850554"><ele>119.0</ele><time>2026-04-18T10:34:04Z</time></trkpt><trkpt lat="42.534059610269935" lon="11.58993598973441"><ele>119.0</ele><time>2026-04-18T10:34:05Z</time></trkpt><trkpt lat="42.53423152576362" lon="11.589903528574085"><ele>119.0</ele><time>2026-04-18T10:34:06Z</time></trkpt><trkpt lat="42.53438937664192" lon="11.58985583476582"><ele>119.0</ele><time>2026-04-18T10:34:07Z</time></trkpt><trkpt lat="42.53453999879624" lon="11.589763268049593"><ele>117.0</ele><time>2026-04-18T10:34:08Z</time></trkpt><trkpt lat="42.53468848487347" lon="11.589622447221624"><ele>115.0</ele><time>2026-04-18T10:34:09Z</time></trkpt><trkpt lat="42.534823986547934" lon="11.589449908599432"><ele>113.0</ele><time>2026-04-18T10:34:10Z</time></trkpt><trkpt lat="42.53498406036502" lon="11.589291394212669"><ele>113.0</ele><time>2026-04-18T10:34:11Z</time></trkpt><trkpt lat="42.53512026504731" lon="11.589119737448815"><ele>113.0</ele><time>2026-04-18T10:34:12Z</time></trkpt><trkpt lat="42.535275575732555" lon="11.588954646016045"><ele>113.0</ele><time>2026-04-18T10:34:13Z</time></trkpt><trkpt lat="42.53543280752169" lon="11.58878812629583"><ele>112.66666666666666</ele><time>2026-04-18T10:34:14Z</time></trkpt><trkpt lat="42.53558236759219" lon="11.588625407760786"><ele>112.33333333333334</ele><time>2026-04-18T10:34:15Z</time></trkpt><trkpt lat="42.53571465965969" lon="11.588476905066674"><ele>112.0</ele><time>2026-04-18T10:34:16Z</time></trkpt><trkpt lat="42.53585055715526" lon="11.588339985167677"><ele>112.0</ele><time>2026-04-18T10:34:17Z</time></trkpt><trkpt lat="42.53599365831363" lon="11.58822792001054"><ele>112.0</ele><time>2026-04-18T10:34:18Z</time></trkpt><trkpt lat="42.536149397298146" lon="11.588164649664428"><ele>112.0</ele><time>2026-04-18T10:34:19Z</time></trkpt><trkpt lat="42.536307859583715" lon="11.58811310176014"><ele>112.0</ele><time>2026-04-18T10:34:20Z</time></trkpt><trkpt lat="42.53647835327619" lon="11.588079475198152"><ele>112.0</ele><time>2026-04-18T10:34:21Z</time></trkpt><trkpt lat="42.536644655656545" lon="11.588029435096555"><ele>112.0</ele><time>2026-04-18T10:34:22Z</time></trkpt><trkpt lat="42.536806604994815" lon="11.588001102046936"><ele>112.0</ele><time>2026-04-18T10:34:23Z</time></trkpt><trkpt lat="42.53695006652656" lon="11.587950184073367"><ele>112.0</ele><time>2026-04-18T10:34:24Z</time></trkpt><trkpt lat="42.537061306234854" lon="11.58785435573526"><ele>112.0</ele><time>2026-04-18T10:34:25Z</time></trkpt><trkpt lat="42.5371495853801" lon="11.587705863390378"><ele>112.0</ele><time>2026-04-18T10:34:26Z</time></trkpt><trkpt lat="42.53723024232197" lon="11.587520825332776"><ele>111.33333333333334</ele><time>2026-04-18T10:34:27Z</time></trkpt><trkpt lat="42.53730337436407" lon="11.58731892092628"><ele>110.66666666666666</ele><time>2026-04-18T10:34:28Z</time></trkpt><trkpt lat="42.53740588096789" lon="11.587128409289766"><ele>110.0</ele><time>2026-04-18T10:34:29Z</time></trkpt><trkpt lat="42.537483350519246" lon="11.586915034878228"><ele>112.0</ele><time>2026-04-18T10:34:30Z</time></trkpt><trkpt lat="42.53757782789056" lon="11.586711050014177"><ele>114.0</ele><time>2026-04-18T10:34:31Z</time></trkpt><trkpt lat="42.53769171319857" lon="11.586520302797442"><ele>116.0</ele><time>2026-04-18T10:34:32Z</time></trkpt><trkpt lat="42.537805106425935" lon="11.586355014217386"><ele>115.33333333333333</ele><time>2026-04-18T10:34:33Z</time></trkpt><trkpt lat="42.5379429845126" lon="11.586205619740968"><ele>114.66666666666666</ele><time>2026-04-18T10:34:34Z</time></trkpt><trkpt lat="42.53808657832121" lon="11.586066767335474"><ele>114.0</ele><time>2026-04-18T10:34:35Z</time></trkpt><trkpt lat="42.53822420563293" lon="11.585905815321652"><ele>114.0</ele><time>2026-04-18T10:34:36Z</time></trkpt><trkpt lat="42.538367064186524" lon="11.585774171719489"><ele>114.0</ele><time>2026-04-18T10:34:37Z</time></trkpt><trkpt lat="42.5385120563607" lon="11.585641720169011"><ele>114.0</ele><time>2026-04-18T10:34:38Z</time></trkpt><trkpt lat="42.53865245960158" lon="11.585509286575585"><ele>112.66666666666666</ele><time>2026-04-18T10:34:39Z</time></trkpt><trkpt lat="42.538790115717816" lon="11.585369785247018"><ele>111.33333333333333</ele><time>2026-04-18T10:34:40Z</time></trkpt><trkpt lat="42.53891892030169" lon="11.585246871374116"><ele>110.0</ele><time>2026-04-18T10:34:41Z</time></trkpt><trkpt lat="42.53904324759269" lon="11.585148853251916"><ele>110.0</ele><time>2026-04-18T10:34:42Z</time></trkpt><trkpt lat="42.53915661299976" lon="11.585006391264606"><ele>110.0</ele><time>2026-04-18T10:34:43Z</time></trkpt><trkpt lat="42.539255604477525" lon="11.584881555104669"><ele>110.0</ele><time>2026-04-18T10:34:44Z</time></trkpt><trkpt lat="42.53933420404307" lon="11.584734676005825"><ele>110.0</ele><time>2026-04-18T10:34:45Z</time></trkpt><trkpt lat="42.53939658810366" lon="11.584543353090087"><ele>110.0</ele><time>2026-04-18T10:34:46Z</time></trkpt><trkpt lat="42.53944071390727" lon="11.584347966729943"><ele>110.0</ele><time>2026-04-18T10:34:47Z</time></trkpt><trkpt lat="42.53948974695369" lon="11.584132672468167"><ele>110.0</ele><time>2026-04-18T10:34:48Z</time></trkpt><trkpt lat="42.5395440379346" lon="11.583914482698262"><ele>108.33333333333333</ele><time>2026-04-18T10:34:49Z</time></trkpt><trkpt lat="42.539599877580315" lon="11.58368590585462"><ele>106.66666666666666</ele><time>2026-04-18T10:34:50Z</time></trkpt><trkpt lat="42.53965986755525" lon="11.583461539418161"><ele>105.0</ele><time>2026-04-18T10:34:51Z</time></trkpt><trkpt lat="42.53971448750382" lon="11.58322831719417"><ele>105.0</ele><time>2026-04-18T10:34:52Z</time></trkpt><trkpt lat="42.539775000937155" lon="11.582999944352045"><ele>105.0</ele><time>2026-04-18T10:34:53Z</time></trkpt><trkpt lat="42.53983540114886" lon="11.582777135181063"><ele>105.0</ele><time>2026-04-18T10:34:54Z</time></trkpt><trkpt lat="42.539893079000954" lon="11.582549782512276"><ele>105.33333333333334</ele><time>2026-04-18T10:34:55Z</time></trkpt><trkpt lat="42.539945831237546" lon="11.582329156856723"><ele>105.66666666666667</ele><time>2026-04-18T10:34:56Z</time></trkpt><trkpt lat="42.540002162393165" lon="11.582103694554085"><ele>106.0</ele><time>2026-04-18T10:34:57Z</time></trkpt><trkpt lat="42.54005895488215" lon="11.581882629368447"><ele>106.0</ele><time>2026-04-18T10:34:58Z</time></trkpt><trkpt lat="42.540113552933725" lon="11.581655736307948"><ele>106.0</ele><time>2026-04-18T10:34:59Z</time></trkpt><trkpt lat="42.540170402742966" lon="11.581434402685234"><ele>106.0</ele><time>2026-04-18T10:35:00Z</time></trkpt><trkpt lat="42.54022651139515" lon="11.581212860430847"><ele>106.66666666666667</ele><time>2026-04-18T10:35:01Z</time></trkpt><trkpt lat="42.5402846070107" lon="11.580986087864762"><ele>107.33333333333334</ele><time>2026-04-18T10:35:02Z</time></trkpt><trkpt lat="42.54034154923451" lon="11.58075946071672"><ele>108.0</ele><time>2026-04-18T10:35:03Z</time></trkpt><trkpt lat="42.54040008075921" lon="11.580530756840785"><ele>109.33333333333334</ele><time>2026-04-18T10:35:04Z</time></trkpt><trkpt lat="42.54045839122426" lon="11.58030734261211"><ele>110.66666666666667</ele><time>2026-04-18T10:35:05Z</time></trkpt><trkpt lat="42.54051005124269" lon="11.580081720652904"><ele>112.0</ele><time>2026-04-18T10:35:06Z</time></trkpt><trkpt lat="42.540569107766515" lon="11.579845885544296"><ele>112.0</ele><time>2026-04-18T10:35:07Z</time></trkpt><trkpt lat="42.54062474433859" lon="11.579620293256166"><ele>112.0</ele><time>2026-04-18T10:35:08Z</time></trkpt><trkpt lat="42.5406770890017" lon="11.579397730496481"><ele>112.0</ele><time>2026-04-18T10:35:09Z</time></trkpt><trkpt lat="42.54073550855399" lon="11.57916587598209"><ele>112.0</ele><time>2026-04-18T10:35:10Z</time></trkpt><trkpt lat="42.54079381698709" lon="11.578956514093472"><ele>112.0</ele><time>2026-04-18T10:35:11Z</time></trkpt><trkpt lat="42.540855439327686" lon="11.578736133227702"><ele>112.0</ele><time>2026-04-18T10:35:12Z</time></trkpt><trkpt lat="42.54091267472149" lon="11.57852299823324"><ele>112.66666666666667</ele><time>2026-04-18T10:35:13Z</time></trkpt><trkpt lat="42.54096939405451" lon="11.578300939099975"><ele>113.33333333333334</ele><time>2026-04-18T10:35:14Z</time></trkpt><trkpt lat="42.541020842386324" lon="11.57808077693565"><ele>114.0</ele><time>2026-04-18T10:35:15Z</time></trkpt><trkpt lat="42.54107454918535" lon="11.577856433034254"><ele>114.0</ele><time>2026-04-18T10:35:16Z</time></trkpt><trkpt lat="42.54113083648497" lon="11.577639339543715"><ele>114.0</ele><time>2026-04-18T10:35:17Z</time></trkpt><trkpt lat="42.541184037746476" lon="11.577419354380565"><ele>114.0</ele><time>2026-04-18T10:35:18Z</time></trkpt><trkpt lat="42.54123523273718" lon="11.577205844661565"><ele>116.0</ele><time>2026-04-18T10:35:19Z</time></trkpt><trkpt lat="42.54129067935728" lon="11.576989770035675"><ele>118.0</ele><time>2026-04-18T10:35:20Z</time></trkpt><trkpt lat="42.54134542253651" lon="11.576777656609128"><ele>120.0</ele><time>2026-04-18T10:35:21Z</time></trkpt><trkpt lat="42.541397965209825" lon="11.576568022439696"><ele>120.0</ele><time>2026-04-18T10:35:22Z</time></trkpt><trkpt lat="42.54145228242434" lon="11.576363752927517"><ele>120.0</ele><time>2026-04-18T10:35:23Z</time></trkpt><trkpt lat="42.54150786702679" lon="11.576145969942024"><ele>120.0</ele><time>2026-04-18T10:35:24Z</time></trkpt><trkpt lat="42.54156627648299" lon="11.575932245854393"><ele>120.33333333333334</ele><time>2026-04-18T10:35:25Z</time></trkpt><trkpt lat="42.541627178236936" lon="11.575711705248292"><ele>120.66666666666667</ele><time>2026-04-18T10:35:26Z</time></trkpt><trkpt lat="42.54168413587926" lon="11.575490673799681"><ele>121.0</ele><time>2026-04-18T10:35:27Z</time></trkpt><trkpt lat="42.54173949394491" lon="11.57527075602626"><ele>123.0</ele><time>2026-04-18T10:35:28Z</time></trkpt><trkpt lat="42.54178728768967" lon="11.575058071291116"><ele>125.0</ele><time>2026-04-18T10:35:29Z</time></trkpt><trkpt lat="42.54182669643993" lon="11.574849029526572"><ele>127.0</ele><time>2026-04-18T10:35:30Z</time></trkpt><trkpt lat="42.54183421407191" lon="11.574646509992009"><ele>129.66666666666669</ele><time>2026-04-18T10:35:31Z</time></trkpt><trkpt lat="42.5418000958082" lon="11.574448460453159"><ele>132.33333333333334</ele><time>2026-04-18T10:35:32Z</time></trkpt><trkpt lat="42.54173146404316" lon="11.574257091963604"><ele>135.0</ele><time>2026-04-18T10:35:33Z</time></trkpt><trkpt lat="42.541660008088606" lon="11.574070609671535"><ele>135.0</ele><time>2026-04-18T10:35:34Z</time></trkpt><trkpt lat="42.54160696039891" lon="11.57387479781092"><ele>135.0</ele><time>2026-04-18T10:35:35Z</time></trkpt><trkpt lat="42.54158083371413" lon="11.573675204969412"><ele>135.0</ele><time>2026-04-18T10:35:36Z</time></trkpt><trkpt lat="42.541550215288744" lon="11.57348131904656"><ele>135.0</ele><time>2026-04-18T10:35:37Z</time></trkpt><trkpt lat="42.54150077643345" lon="11.573292460853084"><ele>138.66666666666666</ele><time>2026-04-18T10:35:38Z</time></trkpt><trkpt lat="42.54144216132451" lon="11.573095103748871"><ele>142.33333333333331</ele><time>2026-04-18T10:35:39Z</time></trkpt><trkpt lat="42.54139485978852" lon="11.572886606707419"><ele>146.0</ele><time>2026-04-18T10:35:40Z</time></trkpt><trkpt lat="42.54134197323507" lon="11.57267031476485"><ele>149.33333333333331</ele><time>2026-04-18T10:35:41Z</time></trkpt><trkpt lat="42.5412799638174" lon="11.572454834738462"><ele>152.66666666666666</ele><time>2026-04-18T10:35:42Z</time></trkpt><trkpt lat="42.541218829395625" lon="11.572238792683693"><ele>156.0</ele><time>2026-04-18T10:35:43Z</time></trkpt><trkpt lat="42.541160951053534" lon="11.57202551796085"><ele>152.0</ele><time>2026-04-18T10:35:44Z</time></trkpt><trkpt lat="42.54111222314848" lon="11.57182278319735"><ele>148.0</ele><time>2026-04-18T10:35:45Z</time></trkpt><trkpt lat="42.54106816093633" lon="11.571612377525403"><ele>144.0</ele><time>2026-04-18T10:35:46Z</time></trkpt><trkpt lat="42.54103408692918" lon="11.57139450967696"><ele>144.33333333333334</ele><time>2026-04-18T10:35:47Z</time></trkpt><trkpt lat="42.5410132505316" lon="11.571164853656539"><ele>144.66666666666669</ele><time>2026-04-18T10:35:48Z</time></trkpt><trkpt lat="42.541000016723174" lon="11.570928979633207"><ele>145.0</ele><time>2026-04-18T10:35:49Z</time></trkpt><trkpt lat="42.540987649594875" lon="11.570686395718418"><ele>145.0</ele><time>2026-04-18T10:35:50Z</time></trkpt><trkpt lat="42.54096488399005" lon="11.570438781677057"><ele>145.0</ele><time>2026-04-18T10:35:51Z</time></trkpt><trkpt lat="42.54094667516707" lon="11.57020297832335"><ele>145.0</ele><time>2026-04-18T10:35:52Z</time></trkpt><trkpt lat="42.540933273540595" lon="11.569962228776232"><ele>145.66666666666669</ele><time>2026-04-18T10:35:53Z</time></trkpt><trkpt lat="42.54091423115112" lon="11.569731068734333"><ele>146.33333333333334</ele><time>2026-04-18T10:35:54Z</time></trkpt><trkpt lat="42.5409003215638" lon="11.569510909363064"><ele>147.0</ele><time>2026-04-18T10:35:55Z</time></trkpt><trkpt lat="42.54089530198706" lon="11.56929262001598"><ele>147.66666666666666</ele><time>2026-04-18T10:35:56Z</time></trkpt><trkpt lat="42.54091181717645" lon="11.569067527353564"><ele>148.33333333333331</ele><time>2026-04-18T10:35:57Z</time></trkpt><trkpt lat="42.540943790812975" lon="11.568836992796856"><ele>149.0</ele><time>2026-04-18T10:35:58Z</time></trkpt><trkpt lat="42.54099507452131" lon="11.568624274102735"><ele>147.66666666666666</ele><time>2026-04-18T10:35:59Z</time></trkpt><trkpt lat="42.54106564329296" lon="11.568427401720589"><ele>146.33333333333334</ele><time>2026-04-18T10:36:00Z</time></trkpt><trkpt lat="42.54116660358619" lon="11.568255522223872"><ele>145.0</ele><time>2026-04-18T10:36:01Z</time></trkpt><trkpt lat="42.54124324895651" lon="11.568082727666397"><ele>153.75</ele><time>2026-04-18T10:36:02Z</time></trkpt><trkpt lat="42.54133297277945" lon="11.567920259373823"><ele>162.5</ele><time>2026-04-18T10:36:03Z</time></trkpt><trkpt lat="42.541403518149735" lon="11.56775672899274"><ele>171.25</ele><time>2026-04-18T10:36:04Z</time></trkpt><trkpt lat="42.54146372087348" lon="11.567583890476003"><ele>180.0</ele><time>2026-04-18T10:36:05Z</time></trkpt><trkpt lat="42.541504100163245" lon="11.567403180052711"><ele>180.0</ele><time>2026-04-18T10:36:06Z</time></trkpt><trkpt lat="42.54151751855892" lon="11.567216977540399"><ele>180.0</ele><time>2026-04-18T10:36:07Z</time></trkpt><trkpt lat="42.541519868606144" lon="11.56702385797329"><ele>180.0</ele><time>2026-04-18T10:36:08Z</time></trkpt><trkpt lat="42.54152290640596" lon="11.566835737034932"><ele>180.0</ele><time>2026-04-18T10:36:09Z</time></trkpt><trkpt lat="42.54153150055052" lon="11.566638267743455"><ele>178.75</ele><time>2026-04-18T10:36:10Z</time></trkpt><trkpt lat="42.54153936096128" lon="11.56643892596978"><ele>177.5</ele><time>2026-04-18T10:36:11Z</time></trkpt><trkpt lat="42.54155860777719" lon="11.56623473711941"><ele>176.25</ele><time>2026-04-18T10:36:12Z</time></trkpt><trkpt lat="42.54159320865465" lon="11.566040874606312"><ele>175.0</ele><time>2026-04-18T10:36:13Z</time></trkpt><trkpt lat="42.54163792834563" lon="11.56585030579279"><ele>175.0</ele><time>2026-04-18T10:36:14Z</time></trkpt><trkpt lat="42.541680915854506" lon="11.565654595072003"><ele>175.0</ele><time>2026-04-18T10:36:15Z</time></trkpt><trkpt lat="42.54173492759598" lon="11.565465354265642"><ele>175.0</ele><time>2026-04-18T10:36:16Z</time></trkpt><trkpt lat="42.54179300699331" lon="11.56528054224229"><ele>175.0</ele><time>2026-04-18T10:36:17Z</time></trkpt><trkpt lat="42.54182087563854" lon="11.565089674803671"><ele>174.5</ele><time>2026-04-18T10:36:18Z</time></trkpt><trkpt lat="42.54179736352974" lon="11.564892739167565"><ele>174.0</ele><time>2026-04-18T10:36:19Z</time></trkpt><trkpt lat="42.541742097875606" lon="11.564707132262328"><ele>173.5</ele><time>2026-04-18T10:36:20Z</time></trkpt><trkpt lat="42.54170574750171" lon="11.564539243862262"><ele>173.0</ele><time>2026-04-18T10:36:21Z</time></trkpt><trkpt lat="42.54173013496507" lon="11.564351574850228"><ele>172.33333333333331</ele><time>2026-04-18T10:36:22Z</time></trkpt><trkpt lat="42.54176089523953" lon="11.564163683813256"><ele>171.66666666666666</ele><time>2026-04-18T10:36:23Z</time></trkpt><trkpt lat="42.54185611329222" lon="11.56399820232164"><ele>171.0</ele><time>2026-04-18T10:36:24Z</time></trkpt><trkpt lat="42.54194820795028" lon="11.563793512064347"><ele>170.0</ele><time>2026-04-18T10:36:25Z</time></trkpt><trkpt lat="42.542043946333195" lon="11.563624548780611"><ele>169.0</ele><time>2026-04-18T10:36:26Z</time></trkpt><trkpt lat="42.54214377040524" lon="11.563443404330636"><ele>168.0</ele><time>2026-04-18T10:36:27Z</time></trkpt><trkpt lat="42.54223208560428" lon="11.563252907311957"><ele>172.66666666666666</ele><time>2026-04-18T10:36:28Z</time></trkpt><trkpt lat="42.54232525218847" lon="11.563054042073585"><ele>177.33333333333331</ele><time>2026-04-18T10:36:29Z</time></trkpt><trkpt lat="42.54241354524756" lon="11.562841432619983"><ele>182.0</ele><time>2026-04-18T10:36:30Z</time></trkpt><trkpt lat="42.542497373843005" lon="11.562635743472304"><ele>182.0</ele><time>2026-04-18T10:36:31Z</time></trkpt><trkpt lat="42.54258479248261" lon="11.562430774767096"><ele>182.0</ele><time>2026-04-18T10:36:32Z</time></trkpt><trkpt lat="42.54266384763898" lon="11.562234685326658"><ele>182.0</ele><time>2026-04-18T10:36:33Z</time></trkpt><trkpt lat="42.542712562430005" lon="11.562042707016221"><ele>181.33333333333331</ele><time>2026-04-18T10:36:34Z</time></trkpt><trkpt lat="42.54273862626621" lon="11.561837630026533"><ele>180.66666666666666</ele><time>2026-04-18T10:36:35Z</time></trkpt><trkpt lat="42.542716058990294" lon="11.561631628661974"><ele>180.0</ele><time>2026-04-18T10:36:36Z</time></trkpt><trkpt lat="42.54266386876319" lon="11.561425436320079"><ele>180.0</ele><time>2026-04-18T10:36:37Z</time></trkpt><trkpt lat="42.54262845657497" lon="11.561230166172013"><ele>180.0</ele><time>2026-04-18T10:36:38Z</time></trkpt><trkpt lat="42.54259446042574" lon="11.561040202510224"><ele>180.0</ele><time>2026-04-18T10:36:39Z</time></trkpt><trkpt lat="42.54258366456634" lon="11.560854088427194"><ele>180.0</ele><time>2026-04-18T10:36:40Z</time></trkpt><trkpt lat="42.542609745635446" lon="11.560692130152345"><ele>181.25</ele><time>2026-04-18T10:36:41Z</time></trkpt><trkpt lat="42.54267872617269" lon="11.560576248148008"><ele>182.5</ele><time>2026-04-18T10:36:42Z</time></trkpt><trkpt lat="42.54278610853058" lon="11.560495691358744"><ele>183.75</ele><time>2026-04-18T10:36:43Z</time></trkpt><trkpt lat="42.54291127941929" lon="11.560422900392304"><ele>185.0</ele><time>2026-04-18T10:36:44Z</time></trkpt><trkpt lat="42.543033311512076" lon="11.560372763939382"><ele>189.0</ele><time>2026-04-18T10:36:45Z</time></trkpt><trkpt lat="42.543159203383595" lon="11.560314431607656"><ele>193.0</ele><time>2026-04-18T10:36:46Z</time></trkpt><trkpt lat="42.543297126995846" lon="11.56023509041097"><ele>197.0</ele><time>2026-04-18T10:36:47Z</time></trkpt><trkpt lat="42.54341899608815" lon="11.560121432226882"><ele>201.0</ele><time>2026-04-18T10:36:48Z</time></trkpt><trkpt lat="42.54353245835304" lon="11.559971368578775"><ele>201.0</ele><time>2026-04-18T10:36:49Z</time></trkpt><trkpt lat="42.54362486394016" lon="11.55981588672808"><ele>201.0</ele><time>2026-04-18T10:36:50Z</time></trkpt><trkpt lat="42.543721851995286" lon="11.55966423539712"><ele>201.0</ele><time>2026-04-18T10:36:51Z</time></trkpt><trkpt lat="42.54381779795753" lon="11.559539188695624"><ele>201.0</ele><time>2026-04-18T10:36:52Z</time></trkpt><trkpt lat="42.543939669671325" lon="11.559436903892971"><ele>203.0</ele><time>2026-04-18T10:36:53Z</time></trkpt><trkpt lat="42.544085922730396" lon="11.559330591604164"><ele>205.0</ele><time>2026-04-18T10:36:54Z</time></trkpt><trkpt lat="42.54422679472457" lon="11.559229802761887"><ele>207.0</ele><time>2026-04-18T10:36:55Z</time></trkpt><trkpt lat="42.544368676936145" lon="11.559135607974188"><ele>207.0</ele><time>2026-04-18T10:36:56Z</time></trkpt><trkpt lat="42.54450989084355" lon="11.559055527863082"><ele>207.0</ele><time>2026-04-18T10:36:57Z</time></trkpt><trkpt lat="42.54464911744781" lon="11.559020248732365"><ele>207.0</ele><time>2026-04-18T10:36:58Z</time></trkpt><trkpt lat="42.54480620073719" lon="11.559028078483616"><ele>210.25</ele><time>2026-04-18T10:36:59Z</time></trkpt><trkpt lat="42.54495211061788" lon="11.559098012797762"><ele>213.5</ele><time>2026-04-18T10:37:00Z</time></trkpt><trkpt lat="42.54509108508721" lon="11.559169780815843"><ele>216.75</ele><time>2026-04-18T10:37:01Z</time></trkpt><trkpt lat="42.54523303391372" lon="11.559207369592274"><ele>220.0</ele><time>2026-04-18T10:37:02Z</time></trkpt><trkpt lat="42.5453572123028" lon="11.559222550431539"><ele>222.25</ele><time>2026-04-18T10:37:03Z</time></trkpt><trkpt lat="42.545495656902496" lon="11.559197314457053"><ele>224.5</ele><time>2026-04-18T10:37:04Z</time></trkpt><trkpt lat="42.54561036608541" lon="11.55911395413629"><ele>226.75</ele><time>2026-04-18T10:37:05Z</time></trkpt><trkpt lat="42.545705485901046" lon="11.558978210115544"><ele>229.0</ele><time>2026-04-18T10:37:06Z</time></trkpt><trkpt lat="42.54577335400959" lon="11.558813831375412"><ele>224.33333333333331</ele><time>2026-04-18T10:37:07Z</time></trkpt><trkpt lat="42.54583228603342" lon="11.558620977766948"><ele>219.66666666666669</ele><time>2026-04-18T10:37:08Z</time></trkpt><trkpt lat="42.54591943063389" lon="11.5584506019743"><ele>215.0</ele><time>2026-04-18T10:37:09Z</time></trkpt><trkpt lat="42.5459987972993" lon="11.558280906042734"><ele>215.0</ele><time>2026-04-18T10:37:10Z</time></trkpt><trkpt lat="42.54608316769602" lon="11.558116426185624"><ele>215.0</ele><time>2026-04-18T10:37:11Z</time></trkpt><trkpt lat="42.54622228947677" lon="11.558032416425615"><ele>215.0</ele><time>2026-04-18T10:37:12Z</time></trkpt><trkpt lat="42.54635635488363" lon="11.558002469984366"><ele>215.0</ele><time>2026-04-18T10:37:13Z</time></trkpt><trkpt lat="42.54649258382568" lon="11.557928148823224"><ele>216.75</ele><time>2026-04-18T10:37:14Z</time></trkpt><trkpt lat="42.54660480416863" lon="11.557874758387603"><ele>218.5</ele><time>2026-04-18T10:37:15Z</time></trkpt><trkpt lat="42.54668332870974" lon="11.557736128257885"><ele>220.25</ele><time>2026-04-18T10:37:16Z</time></trkpt><trkpt lat="42.546738631004764" lon="11.55756141634718"><ele>222.0</ele><time>2026-04-18T10:37:17Z</time></trkpt><trkpt lat="42.54676597083792" lon="11.557369613554615"><ele>222.0</ele><time>2026-04-18T10:37:18Z</time></trkpt><trkpt lat="42.54677863412386" lon="11.55717118418501"><ele>222.0</ele><time>2026-04-18T10:37:19Z</time></trkpt><trkpt lat="42.546800942962186" lon="11.556969097638888"><ele>222.0</ele><time>2026-04-18T10:37:20Z</time></trkpt><trkpt lat="42.54683680068288" lon="11.556772808828596"><ele>222.0</ele><time>2026-04-18T10:37:21Z</time></trkpt><trkpt lat="42.54687010013326" lon="11.556607486700512"><ele>221.6</ele><time>2026-04-18T10:37:22Z</time></trkpt><trkpt lat="42.5469306286872" lon="11.556486325992966"><ele>221.2</ele><time>2026-04-18T10:37:23Z</time></trkpt><trkpt lat="42.547004477856106" lon="11.5563832215901"><ele>220.8</ele><time>2026-04-18T10:37:24Z</time></trkpt><trkpt lat="42.54710591761453" lon="11.556330371598243"><ele>220.4</ele><time>2026-04-18T10:37:25Z</time></trkpt><trkpt lat="42.54721776790527" lon="11.556337608987096"><ele>220.0</ele><time>2026-04-18T10:37:26Z</time></trkpt><trkpt lat="42.547339796091535" lon="11.55635885985379"><ele>223.25</ele><time>2026-04-18T10:37:27Z</time></trkpt><trkpt lat="42.54747030851127" lon="11.556382030552305"><ele>226.5</ele><time>2026-04-18T10:37:28Z</time></trkpt><trkpt lat="42.547607330119476" lon="11.556391653691168"><ele>229.75</ele><time>2026-04-18T10:37:29Z</time></trkpt><trkpt lat="42.547753120404664" lon="11.556416468789475"><ele>233.0</ele><time>2026-04-18T10:37:30Z</time></trkpt><trkpt lat="42.54790682579816" lon="11.556447650851704"><ele>233.0</ele><time>2026-04-18T10:37:31Z</time></trkpt><trkpt lat="42.54805459424428" lon="11.556477805296192"><ele>233.0</ele><time>2026-04-18T10:37:32Z</time></trkpt><trkpt lat="42.54819708127791" lon="11.556501791462155"><ele>233.0</ele><time>2026-04-18T10:37:33Z</time></trkpt><trkpt lat="42.5483473129298" lon="11.556530989624505"><ele>233.0</ele><time>2026-04-18T10:37:34Z</time></trkpt><trkpt lat="42.54850356173387" lon="11.556557834548967"><ele>233.0</ele><time>2026-04-18T10:37:35Z</time></trkpt><trkpt lat="42.548661743259295" lon="11.556584931242961"><ele>233.0</ele><time>2026-04-18T10:37:36Z</time></trkpt><trkpt lat="42.54881583920847" lon="11.55661661383788"><ele>233.0</ele><time>2026-04-18T10:37:37Z</time></trkpt><trkpt lat="42.5489735770205" lon="11.556638447449178"><ele>235.33333333333334</ele><time>2026-04-18T10:37:38Z</time></trkpt><trkpt lat="42.5491326809816" lon="11.556643649503165"><ele>237.66666666666669</ele><time>2026-04-18T10:37:39Z</time></trkpt><trkpt lat="42.54929126273065" lon="11.556607407379271"><ele>240.0</ele><time>2026-04-18T10:37:40Z</time></trkpt><trkpt lat="42.54944808570304" lon="11.556558084653306"><ele>242.66666666666669</ele><time>2026-04-18T10:37:41Z</time></trkpt><trkpt lat="42.549607983696134" lon="11.556509452886939"><ele>245.33333333333334</ele><time>2026-04-18T10:37:41.999Z</time></trkpt><trkpt lat="42.54977717193369" lon="11.556457511902432"><ele>248.0</ele><time>2026-04-18T10:37:42.999Z</time></trkpt><trkpt lat="42.5499503503981" lon="11.556412746383302"><ele>248.0</ele><time>2026-04-18T10:37:43.999Z</time></trkpt><trkpt lat="42.550129905583425" lon="11.556364591328355"><ele>248.0</ele><time>2026-04-18T10:37:44.999Z</time></trkpt><trkpt lat="42.550287853673545" lon="11.556325917255934"><ele>248.0</ele><time>2026-04-18T10:37:45.999Z</time></trkpt><trkpt lat="42.550440110250065" lon="11.556265378087806"><ele>248.33333333333334</ele><time>2026-04-18T10:37:46.999Z</time></trkpt><trkpt lat="42.550573960053356" lon="11.556176551582322"><ele>248.66666666666669</ele><time>2026-04-18T10:37:47.999Z</time></trkpt><trkpt lat="42.55071342588632" lon="11.556048360514932"><ele>249.0</ele><time>2026-04-18T10:37:48.999Z</time></trkpt><trkpt lat="42.55084870243521" lon="11.555906405113987"><ele>249.0</ele><time>2026-04-18T10:37:50Z</time></trkpt><trkpt lat="42.550981843107124" lon="11.555758856001196"><ele>249.0</ele><time>2026-04-18T10:37:51Z</time></trkpt><trkpt lat="42.55109883850822" lon="11.555629936327882"><ele>249.0</ele><time>2026-04-18T10:37:52Z</time></trkpt><trkpt lat="42.551215909575795" lon="11.555509713500417"><ele>250.75</ele><time>2026-04-18T10:37:53Z</time></trkpt><trkpt lat="42.55133359039655" lon="11.555395820882156"><ele>252.5</ele><time>2026-04-18T10:37:54Z</time></trkpt><trkpt lat="42.551441532391564" lon="11.555284671679928"><ele>254.25</ele><time>2026-04-18T10:37:55Z</time></trkpt><trkpt lat="42.55153682522334" lon="11.555180588730861"><ele>256.0</ele><time>2026-04-18T10:37:56Z</time></trkpt><trkpt lat="42.55162683259718" lon="11.555075262091236"><ele>256.6</ele><time>2026-04-18T10:37:57Z</time></trkpt><trkpt lat="42.55171361028848" lon="11.55497441222986"><ele>257.20000000000005</ele><time>2026-04-18T10:37:58Z</time></trkpt><trkpt lat="42.551795601514165" lon="11.554888966959602"><ele>257.79999999999995</ele><time>2026-04-18T10:37:59Z</time></trkpt><trkpt lat="42.55186991130311" lon="11.554809652589274"><ele>258.4</ele><time>2026-04-18T10:38:00Z</time></trkpt><trkpt lat="42.55193594713244" lon="11.55474140401452"><ele>259.0</ele><time>2026-04-18T10:38:01Z</time></trkpt><trkpt lat="42.551993451129256" lon="11.554684636104263"><ele>259.0</ele><time>2026-04-18T10:38:02Z</time></trkpt><trkpt lat="42.552065603416864" lon="11.554625868143996"><ele>259.0</ele><time>2026-04-18T10:38:04Z</time></trkpt><trkpt lat="42.551931376553654" lon="11.554592936909815"><ele>259.0</ele><time>2026-04-18T10:38:08Z</time></trkpt><trkpt lat="42.551868298298274" lon="11.554625708719682"><ele>259.0</ele><time>2026-04-18T10:38:09Z</time></trkpt><trkpt lat="42.55181352449196" lon="11.554668089180886"><ele>259.0</ele><time>2026-04-18T10:38:10Z</time></trkpt><trkpt lat="42.551746354767374" lon="11.554716332892228"><ele>259.0</ele><time>2026-04-18T10:38:11Z</time></trkpt><trkpt lat="42.551681087954286" lon="11.554753192621407"><ele>259.0</ele><time>2026-04-18T10:38:12Z</time></trkpt><trkpt lat="42.55161694875662" lon="11.554766546206892"><ele>259.0</ele><time>2026-04-18T10:38:13Z</time></trkpt><trkpt lat="42.55151644389117" lon="11.554761496654175"><ele>259.0</ele><time>2026-04-18T10:38:15Z</time></trkpt><trkpt lat="42.55141780522544" lon="11.554747244678738"><ele>259.0</ele><time>2026-04-18T10:38:16Z</time></trkpt><trkpt lat="42.551311424148324" lon="11.554685888735179"><ele>259.0</ele><time>2026-04-18T10:38:17Z</time></trkpt><trkpt lat="42.5512031572681" lon="11.55462306982965"><ele>258.0</ele><time>2026-04-18T10:38:18Z</time></trkpt><trkpt lat="42.551106760755395" lon="11.554552246674444"><ele>257.0</ele><time>2026-04-18T10:38:19Z</time></trkpt><trkpt lat="42.55101428710347" lon="11.55446876490616"><ele>255.99999999999997</ele><time>2026-04-18T10:38:20Z</time></trkpt><trkpt lat="42.55093646535092" lon="11.554379517425037"><ele>255.0</ele><time>2026-04-18T10:38:21Z</time></trkpt><trkpt lat="42.55085878690015" lon="11.554277918610952"><ele>254.0</ele><time>2026-04-18T10:38:22Z</time></trkpt><trkpt lat="42.55079059290919" lon="11.554152078443433"><ele>254.0</ele><time>2026-04-18T10:38:23Z</time></trkpt><trkpt lat="42.550726915240645" lon="11.554010999368677"><ele>254.0</ele><time>2026-04-18T10:38:24Z</time></trkpt><trkpt lat="42.55065472553953" lon="11.553859373876843"><ele>254.0</ele><time>2026-04-18T10:38:25Z</time></trkpt><trkpt lat="42.550584679618495" lon="11.553718156301302"><ele>254.0</ele><time>2026-04-18T10:38:26Z</time></trkpt><trkpt lat="42.55050817006077" lon="11.553577497977228"><ele>253.5</ele><time>2026-04-18T10:38:27Z</time></trkpt><trkpt lat="42.550433351001075" lon="11.55344861159019"><ele>253.0</ele><time>2026-04-18T10:38:28Z</time></trkpt><trkpt lat="42.550382862559246" lon="11.55331575136518"><ele>252.5</ele><time>2026-04-18T10:38:29Z</time></trkpt><trkpt lat="42.5503428152771" lon="11.553174199834361"><ele>252.0</ele><time>2026-04-18T10:38:30Z</time></trkpt><trkpt lat="42.550308154785846" lon="11.553032404128531"><ele>251.39999999999998</ele><time>2026-04-18T10:38:31Z</time></trkpt><trkpt lat="42.550281555369445" lon="11.552882133413899"><ele>250.79999999999998</ele><time>2026-04-18T10:38:32Z</time></trkpt><trkpt lat="42.550244870732065" lon="11.552734966842687"><ele>250.2</ele><time>2026-04-18T10:38:33Z</time></trkpt><trkpt lat="42.55019323063998" lon="11.552621581912952"><ele>249.6</ele><time>2026-04-18T10:38:34Z</time></trkpt><trkpt lat="42.550130147125984" lon="11.552509792614826"><ele>249.0</ele><time>2026-04-18T10:38:35Z</time></trkpt><trkpt lat="42.55004648544634" lon="11.552418731857006"><ele>249.0</ele><time>2026-04-18T10:38:36Z</time></trkpt><trkpt lat="42.54994838473471" lon="11.552327388879604"><ele>249.0</ele><time>2026-04-18T10:38:37Z</time></trkpt><trkpt lat="42.54984732756342" lon="11.552231512026895"><ele>249.0</ele><time>2026-04-18T10:38:38Z</time></trkpt><trkpt lat="42.549744623385465" lon="11.552104162314404"><ele>249.0</ele><time>2026-04-18T10:38:39Z</time></trkpt><trkpt lat="42.5496680200544" lon="11.551981509709032"><ele>249.0</ele><time>2026-04-18T10:38:40Z</time></trkpt><trkpt lat="42.54959734715237" lon="11.551869685404748"><ele>249.0</ele><time>2026-04-18T10:38:41Z</time></trkpt><trkpt lat="42.54947696473991" lon="11.551721808451196"><ele>249.0</ele><time>2026-04-18T10:38:42Z</time></trkpt><trkpt lat="42.549369635787315" lon="11.551625034430922"><ele>249.0</ele><time>2026-04-18T10:38:43Z</time></trkpt><trkpt lat="42.54926370748516" lon="11.55152738796711"><ele>249.0</ele><time>2026-04-18T10:38:44Z</time></trkpt><trkpt lat="42.549156859557684" lon="11.551425699245835"><ele>249.0</ele><time>2026-04-18T10:38:45Z</time></trkpt><trkpt lat="42.54905635911804" lon="11.551321950603088"><ele>249.0</ele><time>2026-04-18T10:38:46Z</time></trkpt><trkpt lat="42.54895587483365" lon="11.551216545965383"><ele>249.0</ele><time>2026-04-18T10:38:47Z</time></trkpt><trkpt lat="42.54887890869061" lon="11.55108151002452"><ele>249.25</ele><time>2026-04-18T10:38:48Z</time></trkpt><trkpt lat="42.54879559116724" lon="11.550950787624178"><ele>249.5</ele><time>2026-04-18T10:38:49Z</time></trkpt><trkpt lat="42.54870465836437" lon="11.550818687559927"><ele>249.75</ele><time>2026-04-18T10:38:50Z</time></trkpt><trkpt lat="42.54862691275005" lon="11.550669685253727"><ele>250.0</ele><time>2026-04-18T10:38:51Z</time></trkpt><trkpt lat="42.548550519262854" lon="11.550516698498098"><ele>250.75</ele><time>2026-04-18T10:38:52Z</time></trkpt><trkpt lat="42.548490933873175" lon="11.55034501396394"><ele>251.5</ele><time>2026-04-18T10:38:53Z</time></trkpt><trkpt lat="42.54841520566982" lon="11.550202356840682"><ele>252.25</ele><time>2026-04-18T10:38:54Z</time></trkpt><trkpt lat="42.54835344354607" lon="11.550047244572493"><ele>253.0</ele><time>2026-04-18T10:38:55Z</time></trkpt><trkpt lat="42.548288483453035" lon="11.549887132381981"><ele>253.0</ele><time>2026-04-18T10:38:56Z</time></trkpt><trkpt lat="42.54822565709415" lon="11.549725448581013"><ele>253.0</ele><time>2026-04-18T10:38:57Z</time></trkpt><trkpt lat="42.548159643763725" lon="11.549561507680805"><ele>253.0</ele><time>2026-04-18T10:38:58Z</time></trkpt><trkpt lat="42.548096359287705" lon="11.549398527302422"><ele>253.0</ele><time>2026-04-18T10:38:59Z</time></trkpt><trkpt lat="42.54803063589535" lon="11.549231499552036"><ele>252.75</ele><time>2026-04-18T10:39:00Z</time></trkpt><trkpt lat="42.54796279210801" lon="11.549055023163406"><ele>252.5</ele><time>2026-04-18T10:39:01Z</time></trkpt><trkpt lat="42.54788660728253" lon="11.548890230292693"><ele>252.25</ele><time>2026-04-18T10:39:02Z</time></trkpt><trkpt lat="42.54781136782073" lon="11.548727671823249"><ele>252.0</ele><time>2026-04-18T10:39:03Z</time></trkpt><trkpt lat="42.54775323781124" lon="11.548573566847365"><ele>251.25</ele><time>2026-04-18T10:39:04Z</time></trkpt><trkpt lat="42.547666514935806" lon="11.548387321417808"><ele>250.5</ele><time>2026-04-18T10:39:05Z</time></trkpt><trkpt lat="42.54759778052216" lon="11.548200260666425"><ele>249.75</ele><time>2026-04-18T10:39:06Z</time></trkpt><trkpt lat="42.54752921089752" lon="11.54805835318418"><ele>249.0</ele><time>2026-04-18T10:39:07Z</time></trkpt><trkpt lat="42.54746670497904" lon="11.547905646902018"><ele>248.5</ele><time>2026-04-18T10:39:08Z</time></trkpt><trkpt lat="42.547401368969474" lon="11.54776799778014"><ele>248.0</ele><time>2026-04-18T10:39:09Z</time></trkpt><trkpt lat="42.547322633275854" lon="11.547621052847724"><ele>247.5</ele><time>2026-04-18T10:39:10Z</time></trkpt><trkpt lat="42.54725084371084" lon="11.547476140164566"><ele>247.0</ele><time>2026-04-18T10:39:11Z</time></trkpt><trkpt lat="42.54717773062835" lon="11.547340861837359"><ele>247.0</ele><time>2026-04-18T10:39:12Z</time></trkpt><trkpt lat="42.547108629617476" lon="11.547186115930648"><ele>247.0</ele><time>2026-04-18T10:39:13Z</time></trkpt><trkpt lat="42.547052383223466" lon="11.547032707307148"><ele>247.0</ele><time>2026-04-18T10:39:14Z</time></trkpt><trkpt lat="42.54702841729055" lon="11.546853796139134"><ele>247.0</ele><time>2026-04-18T10:39:15Z</time></trkpt><trkpt lat="42.547009297302246" lon="11.546679579654912"><ele>247.39999999999998</ele><time>2026-04-18T10:39:16Z</time></trkpt><trkpt lat="42.546973145931474" lon="11.546502945991316"><ele>247.79999999999998</ele><time>2026-04-18T10:39:17Z</time></trkpt><trkpt lat="42.546969573156076" lon="11.546351280477552"><ele>248.2</ele><time>2026-04-18T10:39:18Z</time></trkpt><trkpt lat="42.546959511721695" lon="11.54621841687953"><ele>248.6</ele><time>2026-04-18T10:39:19Z</time></trkpt><trkpt lat="42.546919812167616" lon="11.546113043368749"><ele>249.0</ele><time>2026-04-18T10:39:20Z</time></trkpt><trkpt lat="42.54683079681446" lon="11.545906842653219"><ele>249.5</ele><time>2026-04-18T10:39:21Z</time></trkpt><trkpt lat="42.54675422855056" lon="11.545762734137785"><ele>250.0</ele><time>2026-04-18T10:39:22Z</time></trkpt><trkpt lat="42.546674372228445" lon="11.545627022492852"><ele>250.5</ele><time>2026-04-18T10:39:23Z</time></trkpt><trkpt lat="42.54658836010635" lon="11.545501776003283"><ele>251.0</ele><time>2026-04-18T10:39:24Z</time></trkpt><trkpt lat="42.54649434024899" lon="11.545393028434138"><ele>251.5</ele><time>2026-04-18T10:39:25Z</time></trkpt><trkpt lat="42.54639537400495" lon="11.545285110579"><ele>252.0</ele><time>2026-04-18T10:39:26Z</time></trkpt><trkpt lat="42.54629905977303" lon="11.5451726626048"><ele>252.5</ele><time>2026-04-18T10:39:27Z</time></trkpt><trkpt lat="42.54620554103682" lon="11.54505679071053"><ele>253.0</ele><time>2026-04-18T10:39:28Z</time></trkpt><trkpt lat="42.546121464177766" lon="11.544934992227072"><ele>253.0</ele><time>2026-04-18T10:39:29Z</time></trkpt><trkpt lat="42.54603602781674" lon="11.544815884510813"><ele>253.0</ele><time>2026-04-18T10:39:30Z</time></trkpt><trkpt lat="42.54593171885076" lon="11.544701891430082"><ele>253.0</ele><time>2026-04-18T10:39:31Z</time></trkpt><trkpt lat="42.54582662718238" lon="11.544593697966532"><ele>253.0</ele><time>2026-04-18T10:39:32Z</time></trkpt><trkpt lat="42.54572601379839" lon="11.544472326517072"><ele>253.25</ele><time>2026-04-18T10:39:33Z</time></trkpt><trkpt lat="42.5456401999491" lon="11.544327494203946"><ele>253.5</ele><time>2026-04-18T10:39:34Z</time></trkpt><trkpt lat="42.54555133474959" lon="11.54418341999075"><ele>253.75</ele><time>2026-04-18T10:39:35Z</time></trkpt><trkpt lat="42.545455460025345" lon="11.544051411720687"><ele>254.0</ele><time>2026-04-18T10:39:36Z</time></trkpt><trkpt lat="42.545374342714055" lon="11.543906298686409"><ele>254.0</ele><time>2026-04-18T10:39:37Z</time></trkpt><trkpt lat="42.54530451783629" lon="11.543767843521502"><ele>254.0</ele><time>2026-04-18T10:39:38Z</time></trkpt><trkpt lat="42.545232128803605" lon="11.543628975706905"><ele>254.0</ele><time>2026-04-18T10:39:39Z</time></trkpt><trkpt lat="42.545160746475474" lon="11.543495613811318"><ele>254.0</ele><time>2026-04-18T10:39:40Z</time></trkpt><trkpt lat="42.54509013175766" lon="11.543361139883963"><ele>255.25</ele><time>2026-04-18T10:39:41Z</time></trkpt><trkpt lat="42.54503348480684" lon="11.543210943160657"><ele>256.5</ele><time>2026-04-18T10:39:42Z</time></trkpt><trkpt lat="42.54496339241145" lon="11.543073618181518"><ele>257.75</ele><time>2026-04-18T10:39:43Z</time></trkpt><trkpt lat="42.54491614262197" lon="11.54292596511266"><ele>259.0</ele><time>2026-04-18T10:39:44Z</time></trkpt><trkpt lat="42.54486331527774" lon="11.542774719503631"><ele>259.2</ele><time>2026-04-18T10:39:45Z</time></trkpt><trkpt lat="42.54481626268723" lon="11.542616293066816"><ele>259.4</ele><time>2026-04-18T10:39:46Z</time></trkpt><trkpt lat="42.54477256525617" lon="11.542460730144303"><ele>259.6</ele><time>2026-04-18T10:39:47Z</time></trkpt><trkpt lat="42.544733769005624" lon="11.542330743762927"><ele>259.8</ele><time>2026-04-18T10:39:49Z</time></trkpt><trkpt lat="42.5447035867187" lon="11.542238960976515"><ele>260.0</ele><time>2026-04-18T10:39:50Z</time></trkpt><trkpt lat="42.54466705162769" lon="11.542145871872103"><ele>259.4</ele><time>2026-04-18T10:39:51Z</time></trkpt><trkpt lat="42.54461065160242" lon="11.542026743627916"><ele>258.8</ele><time>2026-04-18T10:39:53Z</time></trkpt><trkpt lat="42.54457532256483" lon="11.541948650445727"><ele>258.2</ele><time>2026-04-18T10:39:55Z</time></trkpt><trkpt lat="42.54470441499837" lon="11.541841331943372"><ele>257.6</ele><time>2026-04-18T10:39:57Z</time></trkpt><trkpt lat="42.54477181048184" lon="11.54182323735534"><ele>257.0</ele><time>2026-04-18T10:39:58Z</time></trkpt><trkpt lat="42.54486064284134" lon="11.541788783558655"><ele>257.0</ele><time>2026-04-18T10:39:59Z</time></trkpt><trkpt lat="42.54495303382106" lon="11.541733053845215"><ele>257.0</ele><time>2026-04-18T10:40:00Z</time></trkpt><trkpt lat="42.54505126467834" lon="11.541679060243688"><ele>257.0</ele><time>2026-04-18T10:40:01Z</time></trkpt><trkpt lat="42.54514777845576" lon="11.541621227904837"><ele>257.0</ele><time>2026-04-18T10:40:02Z</time></trkpt><trkpt lat="42.545252863579115" lon="11.541559349869113"><ele>257.0</ele><time>2026-04-18T10:40:03Z</time></trkpt><trkpt lat="42.545361287943386" lon="11.54149783537783"><ele>256.25</ele><time>2026-04-18T10:40:04Z</time></trkpt><trkpt lat="42.54547870029478" lon="11.54143864642344"><ele>255.5</ele><time>2026-04-18T10:40:05Z</time></trkpt><trkpt lat="42.545592893073184" lon="11.54137825173506"><ele>254.75</ele><time>2026-04-18T10:40:06Z</time></trkpt><trkpt lat="42.54570879806227" lon="11.541319223582619"><ele>254.0</ele><time>2026-04-18T10:40:07Z</time></trkpt><trkpt lat="42.54582236075174" lon="11.541247048699422"><ele>252.75</ele><time>2026-04-18T10:40:08Z</time></trkpt><trkpt lat="42.54593924478197" lon="11.541170800248713"><ele>251.5</ele><time>2026-04-18T10:40:09Z</time></trkpt><trkpt lat="42.546054588205784" lon="11.541099271767203"><ele>250.25</ele><time>2026-04-18T10:40:10Z</time></trkpt><trkpt lat="42.54615622423806" lon="11.541033153921099"><ele>249.0</ele><time>2026-04-18T10:40:11Z</time></trkpt><trkpt lat="42.546260427224816" lon="11.540986257603713"><ele>249.0</ele><time>2026-04-18T10:40:12Z</time></trkpt><trkpt lat="42.54636083938873" lon="11.540928255759988"><ele>248.99999999999997</ele><time>2026-04-18T10:40:13Z</time></trkpt><trkpt lat="42.54646137626352" lon="11.540874868384222"><ele>248.99999999999997</ele><time>2026-04-18T10:40:14Z</time></trkpt><trkpt lat="42.54655701131381" lon="11.540828163337867"><ele>249.0</ele><time>2026-04-18T10:40:15Z</time></trkpt><trkpt lat="42.546654544544445" lon="11.540785893387765"><ele>249.0</ele><time>2026-04-18T10:40:16Z</time></trkpt><trkpt lat="42.54675259685023" lon="11.540726574924346"><ele>249.0</ele><time>2026-04-18T10:40:17Z</time></trkpt><trkpt lat="42.546851316266626" lon="11.540671506072785"><ele>249.0</ele><time>2026-04-18T10:40:18Z</time></trkpt><trkpt lat="42.54694303805411" lon="11.540601360013369"><ele>249.0</ele><time>2026-04-18T10:40:19Z</time></trkpt><trkpt lat="42.547059276713824" lon="11.540539724028035"><ele>249.0</ele><time>2026-04-18T10:40:20Z</time></trkpt><trkpt lat="42.54716578769594" lon="11.540473393313176"><ele>249.0</ele><time>2026-04-18T10:40:21Z</time></trkpt><trkpt lat="42.54727621124872" lon="11.540417060569713"><ele>248.99999999999997</ele><time>2026-04-18T10:40:22Z</time></trkpt><trkpt lat="42.54738434654652" lon="11.540362143813464"><ele>248.99999999999997</ele><time>2026-04-18T10:40:23Z</time></trkpt><trkpt lat="42.547487728065306" lon="11.540300986606095"><ele>249.0</ele><time>2026-04-18T10:40:24Z</time></trkpt><trkpt lat="42.54757385482831" lon="11.540246336137388"><ele>249.0</ele><time>2026-04-18T10:40:25Z</time></trkpt><trkpt lat="42.54766281726311" lon="11.540202207955877"><ele>249.33333333333334</ele><time>2026-04-18T10:40:26Z</time></trkpt><trkpt lat="42.54774415141758" lon="11.540156003818533"><ele>249.66666666666669</ele><time>2026-04-18T10:40:27Z</time></trkpt><trkpt lat="42.547819801223085" lon="11.540110802177441"><ele>250.0</ele><time>2026-04-18T10:40:28Z</time></trkpt><trkpt lat="42.54789757994" lon="11.54006964367445"><ele>250.33333333333334</ele><time>2026-04-18T10:40:29Z</time></trkpt><trkpt lat="42.54797328541331" lon="11.540049094631183"><ele>250.66666666666669</ele><time>2026-04-18T10:40:30Z</time></trkpt><trkpt lat="42.54806534298564" lon="11.540027312004748"><ele>251.0</ele><time>2026-04-18T10:40:31Z</time></trkpt><trkpt lat="42.548160672925555" lon="11.540021714556415"><ele>249.20000000000002</ele><time>2026-04-18T10:40:32Z</time></trkpt><trkpt lat="42.548260896340146" lon="11.540021274155686"><ele>247.40000000000003</ele><time>2026-04-18T10:40:33Z</time></trkpt><trkpt lat="42.54836734528068" lon="11.539988929654525"><ele>245.6</ele><time>2026-04-18T10:40:34Z</time></trkpt><trkpt lat="42.54847970762153" lon="11.539931146090218"><ele>243.8</ele><time>2026-04-18T10:40:35Z</time></trkpt><trkpt lat="42.54858528799828" lon="11.53986880822033"><ele>242.0</ele><time>2026-04-18T10:40:36Z</time></trkpt><trkpt lat="42.54868148734079" lon="11.539818044187209"><ele>242.5</ele><time>2026-04-18T10:40:37Z</time></trkpt><trkpt lat="42.54878215838671" lon="11.539766834517575"><ele>243.0</ele><time>2026-04-18T10:40:38Z</time></trkpt><trkpt lat="42.54888598228624" lon="11.539694810209864"><ele>243.5</ele><time>2026-04-18T10:40:39Z</time></trkpt><trkpt lat="42.548987096311784" lon="11.539630496877214"><ele>244.0</ele><time>2026-04-18T10:40:40Z</time></trkpt><trkpt lat="42.54908962648515" lon="11.539563270918665"><ele>244.6</ele><time>2026-04-18T10:40:41Z</time></trkpt><trkpt lat="42.549187814398636" lon="11.539493434670861"><ele>245.2</ele><time>2026-04-18T10:40:42Z</time></trkpt><trkpt lat="42.54928918485818" lon="11.539422205801733"><ele>245.79999999999998</ele><time>2026-04-18T10:40:43Z</time></trkpt><trkpt lat="42.549398413998624" lon="11.539336454280734"><ele>246.39999999999998</ele><time>2026-04-18T10:40:44Z</time></trkpt><trkpt lat="42.549483826803666" lon="11.539277956332638"><ele>247.0</ele><time>2026-04-18T10:40:45Z</time></trkpt><trkpt lat="42.549573453243525" lon="11.53920950165864"><ele>247.0</ele><time>2026-04-18T10:40:46Z</time></trkpt><trkpt lat="42.54965974132029" lon="11.539151342748816"><ele>247.0</ele><time>2026-04-18T10:40:47Z</time></trkpt><trkpt lat="42.549755423775245" lon="11.539099604970621"><ele>247.0</ele><time>2026-04-18T10:40:48Z</time></trkpt><trkpt lat="42.54985370313621" lon="11.539054199791932"><ele>247.0</ele><time>2026-04-18T10:40:49Z</time></trkpt><trkpt lat="42.549955886053304" lon="11.538999043272756"><ele>247.0</ele><time>2026-04-18T10:40:50Z</time></trkpt><trkpt lat="42.55005615524243" lon="11.538948889249227"><ele>247.0</ele><time>2026-04-18T10:40:51Z</time></trkpt><trkpt lat="42.550166000237695" lon="11.538913520204433"><ele>247.0</ele><time>2026-04-18T10:40:52Z</time></trkpt><trkpt lat="42.550276256155016" lon="11.53889092985834"><ele>247.0</ele><time>2026-04-18T10:40:53Z</time></trkpt><trkpt lat="42.5503790388392" lon="11.538896705305586"><ele>247.0</ele><time>2026-04-18T10:40:54Z</time></trkpt><trkpt lat="42.550482841038296" lon="11.538917383441042"><ele>247.0</ele><time>2026-04-18T10:40:55Z</time></trkpt><trkpt lat="42.550591667015425" lon="11.538937174502678"><ele>247.0</ele><time>2026-04-18T10:40:56Z</time></trkpt><trkpt lat="42.55069698900362" lon="11.538952118336404"><ele>247.0</ele><time>2026-04-18T10:40:57Z</time></trkpt><trkpt lat="42.55080379591775" lon="11.538964954600457"><ele>247.0</ele><time>2026-04-18T10:40:58Z</time></trkpt><trkpt lat="42.550900425969026" lon="11.538981566134666"><ele>247.0</ele><time>2026-04-18T10:40:59Z</time></trkpt><trkpt lat="42.55101212458647" lon="11.538994877873296"><ele>247.0</ele><time>2026-04-18T10:41:00Z</time></trkpt><trkpt lat="42.551121247858404" lon="11.538992073930249"><ele>246.5</ele><time>2026-04-18T10:41:01Z</time></trkpt><trkpt lat="42.55123789910022" lon="11.538996456931015"><ele>246.0</ele><time>2026-04-18T10:41:02Z</time></trkpt><trkpt lat="42.55136701333501" lon="11.538985865853487"><ele>245.5</ele><time>2026-04-18T10:41:03Z</time></trkpt><trkpt lat="42.55149689092324" lon="11.53896141083084"><ele>245.0</ele><time>2026-04-18T10:41:04Z</time></trkpt><trkpt lat="42.55162940594598" lon="11.53893581864574"><ele>245.0</ele><time>2026-04-18T10:41:05Z</time></trkpt><trkpt lat="42.551741240266146" lon="11.538910896302573"><ele>245.0</ele><time>2026-04-18T10:41:06Z</time></trkpt><trkpt lat="42.5518500741127" lon="11.538879744553647"><ele>245.0</ele><time>2026-04-18T10:41:07Z</time></trkpt><trkpt lat="42.55196213047262" lon="11.538862073014537"><ele>245.0</ele><time>2026-04-18T10:41:08Z</time></trkpt><trkpt lat="42.55207315404288" lon="11.538870014031513"><ele>245.0</ele><time>2026-04-18T10:41:09Z</time></trkpt><trkpt lat="42.55219026225525" lon="11.538843368946473"><ele>244.0</ele><time>2026-04-18T10:41:10Z</time></trkpt><trkpt lat="42.55228675716294" lon="11.538803339064888"><ele>243.0</ele><time>2026-04-18T10:41:11Z</time></trkpt><trkpt lat="42.55240157488152" lon="11.538773725848552"><ele>242.0</ele><time>2026-04-18T10:41:12Z</time></trkpt><trkpt lat="42.5525195484781" lon="11.53876636943731"><ele>241.0</ele><time>2026-04-18T10:41:13Z</time></trkpt><trkpt lat="42.55262459756546" lon="11.538721245906231"><ele>240.0</ele><time>2026-04-18T10:41:14Z</time></trkpt><trkpt lat="42.552724124974155" lon="11.538708859174115"><ele>240.0</ele><time>2026-04-18T10:41:15Z</time></trkpt><trkpt lat="42.552827154631466" lon="11.538679916066517"><ele>240.0</ele><time>2026-04-18T10:41:16Z</time></trkpt><trkpt lat="42.55292189930264" lon="11.538649368763506"><ele>240.0</ele><time>2026-04-18T10:41:17Z</time></trkpt><trkpt lat="42.55302343424388" lon="11.5386483114203"><ele>240.0</ele><time>2026-04-18T10:41:18Z</time></trkpt><trkpt lat="42.55312455444124" lon="11.538611939938908"><ele>240.0</ele><time>2026-04-18T10:41:19Z</time></trkpt><trkpt lat="42.553217830069755" lon="11.538594118175137"><ele>239.0</ele><time>2026-04-18T10:41:20Z</time></trkpt><trkpt lat="42.553313358566434" lon="11.538574436953024"><ele>238.0</ele><time>2026-04-18T10:41:21Z</time></trkpt><trkpt lat="42.553398162252705" lon="11.53857962857051"><ele>237.0</ele><time>2026-04-18T10:41:22Z</time></trkpt><trkpt lat="42.553483905833616" lon="11.538572931568455"><ele>236.0</ele><time>2026-04-18T10:41:23Z</time></trkpt><trkpt lat="42.553577982852964" lon="11.538567479009249"><ele>235.0</ele><time>2026-04-18T10:41:25Z</time></trkpt><trkpt lat="42.55371354255879" lon="11.53857394661789"><ele>234.8</ele><time>2026-04-18T10:41:27Z</time></trkpt><trkpt lat="42.55380318027325" lon="11.538589284225836"><ele>234.6</ele><time>2026-04-18T10:41:28Z</time></trkpt><trkpt lat="42.55389302914933" lon="11.53861186590911"><ele>234.39999999999998</ele><time>2026-04-18T10:41:29Z</time></trkpt><trkpt lat="42.55398895267554" lon="11.538641222757951"><ele>234.2</ele><time>2026-04-18T10:41:30Z</time></trkpt><trkpt lat="42.55408668662983" lon="11.538655206272207"><ele>234.0</ele><time>2026-04-18T10:41:31Z</time></trkpt><trkpt lat="42.554192583082404" lon="11.53868698359591"><ele>234.2</ele><time>2026-04-18T10:41:32Z</time></trkpt><trkpt lat="42.55429195712325" lon="11.53872065410066"><ele>234.39999999999998</ele><time>2026-04-18T10:41:33Z</time></trkpt><trkpt lat="42.55437854417418" lon="11.538748631057961"><ele>234.6</ele><time>2026-04-18T10:41:34Z</time></trkpt><trkpt lat="42.55446323516238" lon="11.538777671376412"><ele>234.8</ele><time>2026-04-18T10:41:35Z</time></trkpt><trkpt lat="42.55455330117127" lon="11.53880153400149"><ele>235.0</ele><time>2026-04-18T10:41:36Z</time></trkpt><trkpt lat="42.5546364666436" lon="11.538842985336451"><ele>234.6</ele><time>2026-04-18T10:41:37Z</time></trkpt><trkpt lat="42.5547279967271" lon="11.538865971857321"><ele>234.2</ele><time>2026-04-18T10:41:38Z</time></trkpt><trkpt lat="42.55483055922752" lon="11.538866990239152"><ele>233.8</ele><time>2026-04-18T10:41:39Z</time></trkpt><trkpt lat="42.55492540727873" lon="11.53888545026423"><ele>233.4</ele><time>2026-04-18T10:41:40Z</time></trkpt><trkpt lat="42.55501214490004" lon="11.53890005277637"><ele>233.0</ele><time>2026-04-18T10:41:41Z</time></trkpt><trkpt lat="42.55508000526098" lon="11.538933727505933"><ele>233.0</ele><time>2026-04-18T10:41:42Z</time></trkpt><trkpt lat="42.55516633349363" lon="11.538947453825156"><ele>233.0</ele><time>2026-04-18T10:41:44Z</time></trkpt><trkpt lat="42.55527277429363" lon="11.538964378092588"><ele>233.0</ele><time>2026-04-18T10:41:46Z</time></trkpt><trkpt lat="42.55533790277379" lon="11.538970030383584"><ele>233.0</ele><time>2026-04-18T10:41:47Z</time></trkpt><trkpt lat="42.55541870644102" lon="11.538701735073516"><ele>232.33333333333334</ele><time>2026-04-18T10:41:48Z</time></trkpt><trkpt lat="42.555493565900164" lon="11.53857869376442"><ele>231.66666666666669</ele><time>2026-04-18T10:41:50Z</time></trkpt><trkpt lat="42.55555148700458" lon="11.538502148596272"><ele>231.0</ele><time>2026-04-18T10:41:51Z</time></trkpt><trkpt lat="42.555604516624655" lon="11.538432971551291"><ele>230.33333333333331</ele><time>2026-04-18T10:41:52Z</time></trkpt><trkpt lat="42.555676414104305" lon="11.538355316903221"><ele>229.66666666666666</ele><time>2026-04-18T10:41:53Z</time></trkpt><trkpt lat="42.55573914988941" lon="11.53829025548741"><ele>229.0</ele><time>2026-04-18T10:41:54Z</time></trkpt><trkpt lat="42.55578070610746" lon="11.538217224592469"><ele>228.99999999999997</ele><time>2026-04-18T10:41:55Z</time></trkpt><trkpt lat="42.55582491829231" lon="11.538122928197945"><ele>229.0</ele><time>2026-04-18T10:41:56Z</time></trkpt><trkpt lat="42.55588165799042" lon="11.538027253793759"><ele>229.0</ele><time>2026-04-18T10:41:57Z</time></trkpt><trkpt lat="42.555942618120305" lon="11.537974533695193"><ele>229.0</ele><time>2026-04-18T10:41:58Z</time></trkpt><trkpt lat="42.55600923104136" lon="11.537950580959878"><ele>228.99999999999997</ele><time>2026-04-18T10:41:59Z</time></trkpt><trkpt lat="42.556076719762636" lon="11.537928978278822"><ele>229.0</ele><time>2026-04-18T10:42:00Z</time></trkpt><trkpt lat="42.55615011075235" lon="11.537912335961146"><ele>229.6</ele><time>2026-04-18T10:42:00.999Z</time></trkpt><trkpt lat="42.556245364531776" lon="11.537899748404687"><ele>230.2</ele><time>2026-04-18T10:42:01.999Z</time></trkpt><trkpt lat="42.55634415489136" lon="11.537867101332004"><ele>230.79999999999998</ele><time>2026-04-18T10:42:03Z</time></trkpt><trkpt lat="42.55644324189545" lon="11.537833024450793"><ele>231.39999999999998</ele><time>2026-04-18T10:42:04Z</time></trkpt><trkpt lat="42.55652202959999" lon="11.537801839987091"><ele>232.0</ele><time>2026-04-18T10:42:05Z</time></trkpt><trkpt lat="42.55659031314984" lon="11.537773143217207"><ele>232.0</ele><time>2026-04-18T10:42:06Z</time></trkpt><trkpt lat="42.55668354294633" lon="11.53773774408586"><ele>232.0</ele><time>2026-04-18T10:42:07Z</time></trkpt><trkpt lat="42.556792941656916" lon="11.537689803510844"><ele>232.0</ele><time>2026-04-18T10:42:08Z</time></trkpt><trkpt lat="42.5569039359591" lon="11.537641178171492"><ele>232.0</ele><time>2026-04-18T10:42:09Z</time></trkpt><trkpt lat="42.55700694898468" lon="11.537602160957327"><ele>232.0</ele><time>2026-04-18T10:42:10Z</time></trkpt><trkpt lat="42.55710871154617" lon="11.537565377760064"><ele>232.8</ele><time>2026-04-18T10:42:11Z</time></trkpt><trkpt lat="42.557213694224686" lon="11.537525695431873"><ele>233.6</ele><time>2026-04-18T10:42:12Z</time></trkpt><trkpt lat="42.55730775910371" lon="11.537478847098715"><ele>234.40000000000003</ele><time>2026-04-18T10:42:13Z</time></trkpt><trkpt lat="42.557397461589055" lon="11.537435541155068"><ele>235.20000000000002</ele><time>2026-04-18T10:42:14Z</time></trkpt><trkpt lat="42.55748861158258" lon="11.537400587431344"><ele>236.0</ele><time>2026-04-18T10:42:15Z</time></trkpt><trkpt lat="42.55758185265864" lon="11.537355443799115"><ele>236.0</ele><time>2026-04-18T10:42:16Z</time></trkpt><trkpt lat="42.55769020055066" lon="11.537302143473335"><ele>236.00000000000003</ele><time>2026-04-18T10:42:17Z</time></trkpt><trkpt lat="42.557779249485" lon="11.537250933539484"><ele>236.00000000000003</ele><time>2026-04-18T10:42:18Z</time></trkpt><trkpt lat="42.55788410234304" lon="11.537196961469254"><ele>236.0</ele><time>2026-04-18T10:42:19Z</time></trkpt><trkpt lat="42.557979270158945" lon="11.53715144020842"><ele>236.0</ele><time>2026-04-18T10:42:20Z</time></trkpt><trkpt lat="42.558065136106784" lon="11.537105428665658"><ele>235.60000000000002</ele><time>2026-04-18T10:42:21Z</time></trkpt><trkpt lat="42.55814802284239" lon="11.537080575627554"><ele>235.20000000000002</ele><time>2026-04-18T10:42:22Z</time></trkpt><trkpt lat="42.55822731212735" lon="11.537046880810209"><ele>234.79999999999998</ele><time>2026-04-18T10:42:23Z</time></trkpt><trkpt lat="42.55831807311248" lon="11.537017845417594"><ele>234.39999999999998</ele><time>2026-04-18T10:42:24Z</time></trkpt><trkpt lat="42.55842477191029" lon="11.537007888760476"><ele>234.0</ele><time>2026-04-18T10:42:25Z</time></trkpt><trkpt lat="42.55853668101076" lon="11.536993514059626"><ele>234.0</ele><time>2026-04-18T10:42:26Z</time></trkpt><trkpt lat="42.55864833962358" lon="11.53696714003366"><ele>233.99999999999997</ele><time>2026-04-18T10:42:27Z</time></trkpt><trkpt lat="42.55876195772874" lon="11.536941417603078"><ele>233.99999999999997</ele><time>2026-04-18T10:42:28Z</time></trkpt><trkpt lat="42.558866087774696" lon="11.536916592193588"><ele>234.0</ele><time>2026-04-18T10:42:29Z</time></trkpt><trkpt lat="42.55895594114019" lon="11.536893582774777"><ele>234.0</ele><time>2026-04-18T10:42:30Z</time></trkpt><trkpt lat="42.55905225837153" lon="11.536863734362488"><ele>233.79999999999998</ele><time>2026-04-18T10:42:31Z</time></trkpt><trkpt lat="42.55914609273555" lon="11.53682948470329"><ele>233.59999999999997</ele><time>2026-04-18T10:42:32Z</time></trkpt><trkpt lat="42.55925793266332" lon="11.536782127326623"><ele>233.4</ele><time>2026-04-18T10:42:33Z</time></trkpt><trkpt lat="42.55935524348454" lon="11.536733672298494"><ele>233.2</ele><time>2026-04-18T10:42:34Z</time></trkpt><trkpt lat="42.559442717878326" lon="11.536699585193777"><ele>233.0</ele><time>2026-04-18T10:42:35Z</time></trkpt><trkpt lat="42.559541002083726" lon="11.536657570607346"><ele>233.00000000000003</ele><time>2026-04-18T10:42:36Z</time></trkpt><trkpt lat="42.559630269043815" lon="11.536619203601482"><ele>233.0</ele><time>2026-04-18T10:42:37Z</time></trkpt><trkpt lat="42.559704041576765" lon="11.536591951764382"><ele>233.0</ele><time>2026-04-18T10:42:38Z</time></trkpt><trkpt lat="42.55978550819888" lon="11.536569747379108"><ele>233.0</ele><time>2026-04-18T10:42:39Z</time></trkpt><trkpt lat="42.55985230026913" lon="11.53654431781709"><ele>233.00000000000003</ele><time>2026-04-18T10:42:40Z</time></trkpt><trkpt lat="42.559921107229236" lon="11.536505308514698"><ele>233.0</ele><time>2026-04-18T10:42:41Z</time></trkpt><trkpt lat="42.55998592290584" lon="11.536445480581976"><ele>233.00000000000003</ele><time>2026-04-18T10:42:42Z</time></trkpt><trkpt lat="42.56004869474063" lon="11.536367435768655"><ele>233.0</ele><time>2026-04-18T10:42:43Z</time></trkpt><trkpt lat="42.560104132148794" lon="11.536292815437612"><ele>233.0</ele><time>2026-04-18T10:42:44Z</time></trkpt><trkpt lat="42.56016693541291" lon="11.536240053257579"><ele>233.0</ele><time>2026-04-18T10:42:45Z</time></trkpt><trkpt lat="42.560249488418954" lon="11.53619409203309"><ele>233.00000000000003</ele><time>2026-04-18T10:42:47Z</time></trkpt><trkpt lat="42.56034642861857" lon="11.536130621974708"><ele>233.0</ele><time>2026-04-18T10:42:49Z</time></trkpt><trkpt lat="42.56041520685326" lon="11.536102256489846"><ele>233.4</ele><time>2026-04-18T10:42:50Z</time></trkpt><trkpt lat="42.560544527118395" lon="11.536084214836972"><ele>233.8</ele><time>2026-04-18T10:42:52Z</time></trkpt><trkpt lat="42.56061017322744" lon="11.536090462126916"><ele>234.2</ele><time>2026-04-18T10:42:53Z</time></trkpt><trkpt lat="42.56073283882695" lon="11.536127275773984"><ele>234.6</ele><time>2026-04-18T10:42:55Z</time></trkpt><trkpt lat="42.56079838434864" lon="11.536116302505604"><ele>235.0</ele><time>2026-04-18T10:42:56Z</time></trkpt><trkpt lat="42.56086615106378" lon="11.5361067801377"><ele>234.99999999999997</ele><time>2026-04-18T10:42:57Z</time></trkpt><trkpt lat="42.560972144842424" lon="11.536069873937098"><ele>235.0</ele><time>2026-04-18T10:42:59Z</time></trkpt><trkpt lat="42.561053231784925" lon="11.536071692825063"><ele>235.0</ele><time>2026-04-18T10:43:00Z</time></trkpt><trkpt lat="42.56112467646331" lon="11.536080022097957"><ele>235.0</ele><time>2026-04-18T10:43:01Z</time></trkpt><trkpt lat="42.56119875729059" lon="11.536103781858452"><ele>234.99999999999997</ele><time>2026-04-18T10:43:02Z</time></trkpt><trkpt lat="42.56129925257485" lon="11.536149369470884"><ele>235.0</ele><time>2026-04-18T10:43:04Z</time></trkpt><trkpt lat="42.5614044633313" lon="11.536146091942909"><ele>236.0</ele><time>2026-04-18T10:43:06Z</time></trkpt><trkpt lat="42.56147604488094" lon="11.536152950951966"><ele>237.0</ele><time>2026-04-18T10:43:07Z</time></trkpt><trkpt lat="42.56159788937946" lon="11.536124501050045"><ele>238.0</ele><time>2026-04-18T10:43:10Z</time></trkpt><trkpt lat="42.56169444117957" lon="11.536149119316105"><ele>239.0</ele><time>2026-04-18T10:43:12Z</time></trkpt><trkpt lat="42.56181903901739" lon="11.53610894944483"><ele>240.0</ele><time>2026-04-18T10:43:14Z</time></trkpt><trkpt lat="42.561938213224025" lon="11.536108094218106"><ele>240.6</ele><time>2026-04-18T10:43:16Z</time></trkpt><trkpt lat="42.56205829553471" lon="11.536092158958596"><ele>241.2</ele><time>2026-04-18T10:43:18Z</time></trkpt><trkpt lat="42.56214052087002" lon="11.536091849083657"><ele>241.8</ele><time>2026-04-18T10:43:19Z</time></trkpt><trkpt lat="42.56222859520374" lon="11.536084461289143"><ele>242.4</ele><time>2026-04-18T10:43:20Z</time></trkpt><trkpt lat="42.562310400323916" lon="11.536079200875754"><ele>243.0</ele><time>2026-04-18T10:43:21Z</time></trkpt><trkpt lat="42.5624317517905" lon="11.536074989019832"><ele>243.0</ele><time>2026-04-18T10:43:23Z</time></trkpt><trkpt lat="42.562501437735285" lon="11.536063169612467"><ele>243.0</ele><time>2026-04-18T10:43:24Z</time></trkpt><trkpt lat="42.56258669414897" lon="11.536047464746074"><ele>243.0</ele><time>2026-04-18T10:43:25Z</time></trkpt><trkpt lat="42.56265920164078" lon="11.536067482692765"><ele>243.0</ele><time>2026-04-18T10:43:26Z</time></trkpt><trkpt lat="42.56273839298205" lon="11.536057288896009"><ele>243.0</ele><time>2026-04-18T10:43:27Z</time></trkpt><trkpt lat="42.562820827808395" lon="11.5360466775356"><ele>243.0</ele><time>2026-04-18T10:43:28Z</time></trkpt><trkpt lat="42.562911818532136" lon="11.536027383501247"><ele>244.0</ele><time>2026-04-18T10:43:29Z</time></trkpt><trkpt lat="42.562997858227696" lon="11.53599378009712"><ele>245.0</ele><time>2026-04-18T10:43:30Z</time></trkpt><trkpt lat="42.5630943092572" lon="11.535966660374713"><ele>246.0</ele><time>2026-04-18T10:43:31Z</time></trkpt><trkpt lat="42.563192473247106" lon="11.53594644730519"><ele>247.0</ele><time>2026-04-18T10:43:32Z</time></trkpt><trkpt lat="42.56329179429199" lon="11.535924143142685"><ele>248.0</ele><time>2026-04-18T10:43:33Z</time></trkpt><trkpt lat="42.56339312350266" lon="11.53590654674073"><ele>248.0</ele><time>2026-04-18T10:43:34Z</time></trkpt><trkpt lat="42.5634935474332" lon="11.53590817084697"><ele>248.0</ele><time>2026-04-18T10:43:35Z</time></trkpt><trkpt lat="42.56358943984166" lon="11.535895628199711"><ele>248.0</ele><time>2026-04-18T10:43:36Z</time></trkpt><trkpt lat="42.56369637221971" lon="11.535882846976929"><ele>248.0</ele><time>2026-04-18T10:43:37Z</time></trkpt><trkpt lat="42.56380003578099" lon="11.535872155221824"><ele>248.0</ele><time>2026-04-18T10:43:38Z</time></trkpt><trkpt lat="42.56390332441196" lon="11.535864789760419"><ele>249.0</ele><time>2026-04-18T10:43:39Z</time></trkpt><trkpt lat="42.564005037228725" lon="11.535857950567205"><ele>250.0</ele><time>2026-04-18T10:43:40Z</time></trkpt><trkpt lat="42.564115289834504" lon="11.535852679076891"><ele>251.0</ele><time>2026-04-18T10:43:41Z</time></trkpt><trkpt lat="42.564215556548085" lon="11.535827066705092"><ele>252.0</ele><time>2026-04-18T10:43:42Z</time></trkpt><trkpt lat="42.56433179077908" lon="11.535843255053964"><ele>253.0</ele><time>2026-04-18T10:43:43Z</time></trkpt><trkpt lat="42.56445573989439" lon="11.535828212987058"><ele>254.0</ele><time>2026-04-18T10:43:44Z</time></trkpt><trkpt lat="42.56455367747186" lon="11.535832397525697"><ele>255.0</ele><time>2026-04-18T10:43:45Z</time></trkpt><trkpt lat="42.56465431577351" lon="11.535838290708599"><ele>256.0</ele><time>2026-04-18T10:43:46Z</time></trkpt><trkpt lat="42.5647387707722" lon="11.53586395726107"><ele>257.0</ele><time>2026-04-18T10:43:47Z</time></trkpt><trkpt lat="42.56481515027539" lon="11.535881449665808"><ele>258.0</ele><time>2026-04-18T10:43:48Z</time></trkpt><trkpt lat="42.56492789525791" lon="11.535900628135002"><ele>258.0</ele><time>2026-04-18T10:43:49Z</time></trkpt><trkpt lat="42.56503074742752" lon="11.535946999519199"><ele>258.0</ele><time>2026-04-18T10:43:50Z</time></trkpt><trkpt lat="42.565140168077356" lon="11.535985314121733"><ele>258.0</ele><time>2026-04-18T10:43:51Z</time></trkpt><trkpt lat="42.565245872364684" lon="11.536027801549361"><ele>258.0</ele><time>2026-04-18T10:43:52Z</time></trkpt><trkpt lat="42.56536490600767" lon="11.536033184150376"><ele>259.6</ele><time>2026-04-18T10:43:53Z</time></trkpt><trkpt lat="42.565475397791474" lon="11.536022890640032"><ele>261.20000000000005</ele><time>2026-04-18T10:43:54Z</time></trkpt><trkpt lat="42.565593272654574" lon="11.536008517428042"><ele>262.8</ele><time>2026-04-18T10:43:55Z</time></trkpt><trkpt lat="42.56569862680383" lon="11.53599678361749"><ele>264.40000000000003</ele><time>2026-04-18T10:43:56Z</time></trkpt><trkpt lat="42.56578031428923" lon="11.536003184654952"><ele>266.0</ele><time>2026-04-18T10:43:57Z</time></trkpt><trkpt lat="42.56584969047884" lon="11.535999328411803"><ele>266.0</ele><time>2026-04-18T10:43:59Z</time></trkpt><trkpt lat="42.565912831407765" lon="11.535999126761096"><ele>266.0</ele><time>2026-04-18T10:45:37Z</time></trkpt><trkpt lat="42.56601470945912" lon="11.536011392352325"><ele>266.0</ele><time>2026-04-18T10:45:40Z</time></trkpt><trkpt lat="42.566110600084286" lon="11.536009501480219"><ele>266.0</ele><time>2026-04-18T10:45:42Z</time></trkpt><trkpt lat="42.56617672068565" lon="11.536006509914824"><ele>266.0</ele><time>2026-04-18T10:45:43Z</time></trkpt><trkpt lat="42.56624880425081" lon="11.53599401647117"><ele>266.0</ele><time>2026-04-18T10:45:44Z</time></trkpt><trkpt lat="42.56632195734238" lon="11.53597100928423"><ele>266.7142857142857</ele><time>2026-04-18T10:45:45Z</time></trkpt><trkpt lat="42.566394219442635" lon="11.535943605908479"><ele>267.42857142857144</ele><time>2026-04-18T10:45:46Z</time></trkpt><trkpt lat="42.56646154834932" lon="11.535914737867508"><ele>268.1428571428571</ele><time>2026-04-18T10:45:47Z</time></trkpt><trkpt lat="42.56652421607542" lon="11.535884058161344"><ele>268.8571428571429</ele><time>2026-04-18T10:45:48Z</time></trkpt><trkpt lat="42.56659013322242" lon="11.535843089529235"><ele>269.57142857142856</ele><time>2026-04-18T10:45:49Z</time></trkpt><trkpt lat="42.56664454184185" lon="11.535791546230817"><ele>270.2857142857143</ele><time>2026-04-18T10:45:50Z</time></trkpt><trkpt lat="42.56671731209922" lon="11.535748638022863"><ele>271.0</ele><time>2026-04-18T10:45:51Z</time></trkpt><trkpt lat="42.566769150331716" lon="11.535683086112293"><ele>271.0</ele><time>2026-04-18T10:45:52Z</time></trkpt><trkpt lat="42.56682454766207" lon="11.535635973998497"><ele>271.0</ele><time>2026-04-18T10:45:53Z</time></trkpt><trkpt lat="42.56691071794041" lon="11.535587678607179"><ele>271.0</ele><time>2026-04-18T10:45:54Z</time></trkpt><trkpt lat="42.56698638247113" lon="11.535522610498596"><ele>271.0</ele><time>2026-04-18T10:45:55Z</time></trkpt><trkpt lat="42.567061026803465" lon="11.535460635470509"><ele>271.0</ele><time>2026-04-18T10:45:56Z</time></trkpt><trkpt lat="42.56713623598103" lon="11.535399571559905"><ele>271.0</ele><time>2026-04-18T10:45:57Z</time></trkpt><trkpt lat="42.56720315999843" lon="11.535347274811343"><ele>272.0</ele><time>2026-04-18T10:45:58Z</time></trkpt><trkpt lat="42.56727933688185" lon="11.535289211282038"><ele>273.0</ele><time>2026-04-18T10:45:59Z</time></trkpt><trkpt lat="42.56735311641078" lon="11.535233923737893"><ele>274.0</ele><time>2026-04-18T10:46:00Z</time></trkpt><trkpt lat="42.56742926134936" lon="11.535176863651332"><ele>275.0</ele><time>2026-04-18T10:46:01Z</time></trkpt><trkpt lat="42.56749927032677" lon="11.535124401630247"><ele>276.0</ele><time>2026-04-18T10:46:02Z</time></trkpt><trkpt lat="42.56756333600876" lon="11.535050387604876"><ele>277.0</ele><time>2026-04-18T10:46:03Z</time></trkpt><trkpt lat="42.56764042256501" lon="11.535014199502239"><ele>277.0</ele><time>2026-04-18T10:46:04Z</time></trkpt><trkpt lat="42.56770142642723" lon="11.534936050428112"><ele>277.0</ele><time>2026-04-18T10:46:05Z</time></trkpt><trkpt lat="42.56776811407642" lon="11.534900331741518"><ele>277.0</ele><time>2026-04-18T10:46:06.001Z</time></trkpt><trkpt lat="42.5678260452839" lon="11.53484867206255"><ele>277.0</ele><time>2026-04-18T10:46:07.001Z</time></trkpt><trkpt lat="42.567890405509196" lon="11.534793701242265"><ele>277.0</ele><time>2026-04-18T10:46:08.001Z</time></trkpt><trkpt lat="42.56796122078311" lon="11.534741441791715"><ele>277.0</ele><time>2026-04-18T10:46:09.001Z</time></trkpt><trkpt lat="42.56802993752493" lon="11.53470102565826"><ele>278.16666666666663</ele><time>2026-04-18T10:46:10.001Z</time></trkpt><trkpt lat="42.56809081240677" lon="11.534673723941891"><ele>279.3333333333333</ele><time>2026-04-18T10:46:11.001Z</time></trkpt><trkpt lat="42.56816563860793" lon="11.534651190445448"><ele>280.5</ele><time>2026-04-18T10:46:12.001Z</time></trkpt><trkpt lat="42.56823560256864" lon="11.534640685503705"><ele>281.6666666666667</ele><time>2026-04-18T10:46:13.001Z</time></trkpt><trkpt lat="42.568351129172086" lon="11.53463993275181"><ele>282.83333333333337</ele><time>2026-04-18T10:46:15.001Z</time></trkpt><trkpt lat="42.568422750974776" lon="11.53465473974173"><ele>284.0</ele><time>2026-04-18T10:46:16.001Z</time></trkpt><trkpt lat="42.568496028600975" lon="11.534680592312"><ele>284.0</ele><time>2026-04-18T10:46:17.001Z</time></trkpt><trkpt lat="42.56856055816612" lon="11.534717433992675"><ele>284.0</ele><time>2026-04-18T10:46:18.001Z</time></trkpt><trkpt lat="42.56861930794512" lon="11.53476775510181"><ele>284.0</ele><time>2026-04-18T10:46:19.001Z</time></trkpt><trkpt lat="42.568681188038106" lon="11.534822224995354"><ele>284.0</ele><time>2026-04-18T10:46:20.001Z</time></trkpt><trkpt lat="42.56874957631561" lon="11.534862609440392"><ele>284.0</ele><time>2026-04-18T10:46:21.001Z</time></trkpt><trkpt lat="42.568817433759115" lon="11.534924467499435"><ele>284.0</ele><time>2026-04-18T10:46:22.001Z</time></trkpt><trkpt lat="42.56888963480829" lon="11.534987015980185"><ele>283.33333333333337</ele><time>2026-04-18T10:46:23Z</time></trkpt><trkpt lat="42.56896467721026" lon="11.535026933862488"><ele>282.6666666666667</ele><time>2026-04-18T10:46:24Z</time></trkpt><trkpt lat="42.56904262062172" lon="11.53506598666575"><ele>282.0</ele><time>2026-04-18T10:46:25Z</time></trkpt><trkpt lat="42.569132124650885" lon="11.535094492278212"><ele>281.3333333333333</ele><time>2026-04-18T10:46:26Z</time></trkpt><trkpt lat="42.569213151925105" lon="11.535135385473335"><ele>280.66666666666663</ele><time>2026-04-18T10:46:27Z</time></trkpt><trkpt lat="42.569297819294036" lon="11.53515566475682"><ele>280.0</ele><time>2026-04-18T10:46:28Z</time></trkpt><trkpt lat="42.569380811474204" lon="11.535177093556578"><ele>280.0</ele><time>2026-04-18T10:46:29Z</time></trkpt><trkpt lat="42.56947022812549" lon="11.535176677600237"><ele>280.0</ele><time>2026-04-18T10:46:30Z</time></trkpt><trkpt lat="42.56956147336773" lon="11.535194696334507"><ele>280.0</ele><time>2026-04-18T10:46:31Z</time></trkpt><trkpt lat="42.56965278865289" lon="11.535227028678364"><ele>280.0</ele><time>2026-04-18T10:46:32Z</time></trkpt><trkpt lat="42.569748417361616" lon="11.53523427968122"><ele>280.0</ele><time>2026-04-18T10:46:33Z</time></trkpt><trkpt lat="42.56983106607581" lon="11.535236351654655"><ele>280.57142857142856</ele><time>2026-04-18T10:46:34Z</time></trkpt><trkpt lat="42.569911103577326" lon="11.535212205013215"><ele>281.1428571428571</ele><time>2026-04-18T10:46:35Z</time></trkpt><trkpt lat="42.56999076937446" lon="11.535224416182649"><ele>281.7142857142857</ele><time>2026-04-18T10:46:36Z</time></trkpt><trkpt lat="42.570062661817914" lon="11.53519937442692"><ele>282.2857142857143</ele><time>2026-04-18T10:46:37Z</time></trkpt><trkpt lat="42.570123233933714" lon="11.53516754371672"><ele>282.85714285714283</ele><time>2026-04-18T10:46:38Z</time></trkpt><trkpt lat="42.57017958126022" lon="11.535123034392962"><ele>283.42857142857144</ele><time>2026-04-18T10:46:39Z</time></trkpt><trkpt lat="42.57022709552662" lon="11.535062678722095"><ele>284.0</ele><time>2026-04-18T10:46:40Z</time></trkpt><trkpt lat="42.570290358528325" lon="11.534986087243539"><ele>284.0</ele><time>2026-04-18T10:46:42Z</time></trkpt><trkpt lat="42.5703330697256" lon="11.534922789212855"><ele>284.0</ele><time>2026-04-18T10:46:48Z</time></trkpt><trkpt lat="42.57023081950196" lon="11.534760451118945"><ele>284.0</ele><time>2026-04-18T10:46:50Z</time></trkpt><trkpt lat="42.57015170552628" lon="11.53469958329847"><ele>284.0</ele><time>2026-04-18T10:46:51Z</time></trkpt><trkpt lat="42.57007367210452" lon="11.534631676520677"><ele>284.0</ele><time>2026-04-18T10:46:52Z</time></trkpt><trkpt lat="42.569992600525836" lon="11.534545862211173"><ele>284.25</ele><time>2026-04-18T10:46:53Z</time></trkpt><trkpt lat="42.569906067599135" lon="11.534445892065504"><ele>284.5</ele><time>2026-04-18T10:46:54Z</time></trkpt><trkpt lat="42.56982370666487" lon="11.534340073392476"><ele>284.75</ele><time>2026-04-18T10:46:55Z</time></trkpt><trkpt lat="42.56974344273056" lon="11.534211232844092"><ele>285.0</ele><time>2026-04-18T10:46:56Z</time></trkpt><trkpt lat="42.569693507635186" lon="11.534047273132053"><ele>285.0</ele><time>2026-04-18T10:46:57Z</time></trkpt><trkpt lat="42.56962216284578" lon="11.53388757725511"><ele>285.0</ele><time>2026-04-18T10:46:58Z</time></trkpt><trkpt lat="42.56956873922561" lon="11.533721360261369"><ele>285.0</ele><time>2026-04-18T10:46:59Z</time></trkpt><trkpt lat="42.56951600882355" lon="11.533545585629177"><ele>285.0</ele><time>2026-04-18T10:47:00Z</time></trkpt><trkpt lat="42.56945684570929" lon="11.533367904949728"><ele>280.6666666666667</ele><time>2026-04-18T10:47:01Z</time></trkpt><trkpt lat="42.56939714166424" lon="11.533184814210152"><ele>276.33333333333337</ele><time>2026-04-18T10:47:02Z</time></trkpt><trkpt lat="42.56932948242189" lon="11.532991187513682"><ele>272.0</ele><time>2026-04-18T10:47:03Z</time></trkpt><trkpt lat="42.569257876041526" lon="11.5327898183717"><ele>272.0</ele><time>2026-04-18T10:47:04Z</time></trkpt><trkpt lat="42.56918175015851" lon="11.532592188616107"><ele>272.0</ele><time>2026-04-18T10:47:05Z</time></trkpt><trkpt lat="42.56911096166421" lon="11.532419438425427"><ele>272.0</ele><time>2026-04-18T10:47:06Z</time></trkpt><trkpt lat="42.569017193020976" lon="11.532265942160716"><ele>272.0</ele><time>2026-04-18T10:47:07Z</time></trkpt><trkpt lat="42.56889310362041" lon="11.532148261076651"><ele>272.0</ele><time>2026-04-18T10:47:08Z</time></trkpt><trkpt lat="42.568734792310025" lon="11.532062427933116"><ele>272.0</ele><time>2026-04-18T10:47:09Z</time></trkpt><trkpt lat="42.56857546396203" lon="11.532020377994137"><ele>271.6666666666667</ele><time>2026-04-18T10:47:10Z</time></trkpt><trkpt lat="42.56840397356881" lon="11.531997407505612"><ele>271.3333333333333</ele><time>2026-04-18T10:47:11Z</time></trkpt><trkpt lat="42.568240019920616" lon="11.531977136444365"><ele>271.0</ele><time>2026-04-18T10:47:12Z</time></trkpt><trkpt lat="42.5680709398851" lon="11.531942934334193"><ele>271.0</ele><time>2026-04-18T10:47:13Z</time></trkpt><trkpt lat="42.56790470563715" lon="11.531899006245794"><ele>271.0</ele><time>2026-04-18T10:47:14Z</time></trkpt><trkpt lat="42.567739392097934" lon="11.531859272870006"><ele>271.0</ele><time>2026-04-18T10:47:15Z</time></trkpt><trkpt lat="42.56756708052733" lon="11.531819225847766"><ele>269.0</ele><time>2026-04-18T10:47:16Z</time></trkpt><trkpt lat="42.56741436598412" lon="11.531788363955704"><ele>267.0</ele><time>2026-04-18T10:47:17Z</time></trkpt><trkpt lat="42.56726438870238" lon="11.531764950015978"><ele>265.0</ele><time>2026-04-18T10:47:18Z</time></trkpt><trkpt lat="42.567092740596344" lon="11.531722402155946"><ele>263.0</ele><time>2026-04-18T10:47:19Z</time></trkpt><trkpt lat="42.56693500355029" lon="11.53168773226613"><ele>261.0</ele><time>2026-04-18T10:47:20Z</time></trkpt><trkpt lat="42.566771197384476" lon="11.531656959297266"><ele>259.0</ele><time>2026-04-18T10:47:21Z</time></trkpt><trkpt lat="42.56660833258934" lon="11.531623660267718"><ele>259.0</ele><time>2026-04-18T10:47:22Z</time></trkpt><trkpt lat="42.56643886335542" lon="11.531584953382712"><ele>259.0</ele><time>2026-04-18T10:47:23Z</time></trkpt><trkpt lat="42.56627967954796" lon="11.531536453338482"><ele>259.0</ele><time>2026-04-18T10:47:24Z</time></trkpt><trkpt lat="42.56613699229542" lon="11.531462418468477"><ele>257.3333333333333</ele><time>2026-04-18T10:47:25Z</time></trkpt><trkpt lat="42.566001144062206" lon="11.531348034758773"><ele>255.66666666666669</ele><time>2026-04-18T10:47:26Z</time></trkpt><trkpt lat="42.565901624623386" lon="11.53117754343454"><ele>254.0</ele><time>2026-04-18T10:47:27Z</time></trkpt><trkpt lat="42.56581325152903" lon="11.530997843264453"><ele>254.0</ele><time>2026-04-18T10:47:28Z</time></trkpt><trkpt lat="42.56571323187653" lon="11.530801998421868"><ele>254.0</ele><time>2026-04-18T10:47:29Z</time></trkpt><trkpt lat="42.56563751526415" lon="11.53058958679883"><ele>254.0</ele><time>2026-04-18T10:47:30Z</time></trkpt><trkpt lat="42.565551080296345" lon="11.530375491964044"><ele>254.0</ele><time>2026-04-18T10:47:31Z</time></trkpt><trkpt lat="42.565454751674494" lon="11.530161425804097"><ele>254.0</ele><time>2026-04-18T10:47:32Z</time></trkpt><trkpt lat="42.56536555723159" lon="11.529944241831688"><ele>254.0</ele><time>2026-04-18T10:47:33Z</time></trkpt><trkpt lat="42.565279131927134" lon="11.529729262724045"><ele>251.33333333333334</ele><time>2026-04-18T10:47:34Z</time></trkpt><trkpt lat="42.56518181113971" lon="11.52950899813843"><ele>248.66666666666669</ele><time>2026-04-18T10:47:35Z</time></trkpt><trkpt lat="42.56508972181403" lon="11.529298843521323"><ele>246.0</ele><time>2026-04-18T10:47:36Z</time></trkpt><trkpt lat="42.56499987104238" lon="11.529079105389785"><ele>246.0</ele><time>2026-04-18T10:47:37Z</time></trkpt><trkpt lat="42.564913156367155" lon="11.528875529579608"><ele>246.0</ele><time>2026-04-18T10:47:38Z</time></trkpt><trkpt lat="42.56482659215458" lon="11.528670958298743"><ele>246.0</ele><time>2026-04-18T10:47:39Z</time></trkpt><trkpt lat="42.564737494754155" lon="11.528461124769072"><ele>245.66666666666669</ele><time>2026-04-18T10:47:40Z</time></trkpt><trkpt lat="42.56464539719631" lon="11.528253051771335"><ele>245.33333333333334</ele><time>2026-04-18T10:47:41Z</time></trkpt><trkpt lat="42.56456131018395" lon="11.52804963280391"><ele>245.0</ele><time>2026-04-18T10:47:42Z</time></trkpt><trkpt lat="42.56447596850886" lon="11.527854525348044"><ele>243.0</ele><time>2026-04-18T10:47:43Z</time></trkpt><trkpt lat="42.564387347595165" lon="11.527647535574072"><ele>241.0</ele><time>2026-04-18T10:47:44Z</time></trkpt><trkpt lat="42.56430716563712" lon="11.52744299601484"><ele>239.0</ele><time>2026-04-18T10:47:45Z</time></trkpt><trkpt lat="42.56422210545637" lon="11.527242459371587"><ele>239.0</ele><time>2026-04-18T10:47:46Z</time></trkpt><trkpt lat="42.564131500620796" lon="11.527037715192254"><ele>239.0</ele><time>2026-04-18T10:47:47Z</time></trkpt><trkpt lat="42.56403987875114" lon="11.52683809370538"><ele>239.0</ele><time>2026-04-18T10:47:48Z</time></trkpt><trkpt lat="42.56394240568178" lon="11.52664298919784"><ele>239.0</ele><time>2026-04-18T10:47:49Z</time></trkpt><trkpt lat="42.56382634042232" lon="11.52647001169804"><ele>239.0</ele><time>2026-04-18T10:47:50Z</time></trkpt><trkpt lat="42.563682507898484" lon="11.52631264231961"><ele>239.0</ele><time>2026-04-18T10:47:51Z</time></trkpt><trkpt lat="42.563525091311924" lon="11.526199508329812"><ele>241.66666666666669</ele><time>2026-04-18T10:47:52Z</time></trkpt><trkpt lat="42.563353796314374" lon="11.526120825781668"><ele>244.33333333333331</ele><time>2026-04-18T10:47:53Z</time></trkpt><trkpt lat="42.56317211854821" lon="11.526070668605673"><ele>247.0</ele><time>2026-04-18T10:47:54Z</time></trkpt><trkpt lat="42.56299060664461" lon="11.52603647453821"><ele>247.33333333333331</ele><time>2026-04-18T10:47:55Z</time></trkpt><trkpt lat="42.56280203647242" lon="11.525998488399509"><ele>247.66666666666669</ele><time>2026-04-18T10:47:56Z</time></trkpt><trkpt lat="42.56262303953369" lon="11.525949302765442"><ele>248.0</ele><time>2026-04-18T10:47:57Z</time></trkpt><trkpt lat="42.56243990944767" lon="11.525898181627989"><ele>248.0</ele><time>2026-04-18T10:47:58Z</time></trkpt><trkpt lat="42.56226373409141" lon="11.525847709499732"><ele>248.0</ele><time>2026-04-18T10:47:59Z</time></trkpt><trkpt lat="42.5620845783561" lon="11.52579817305314"><ele>248.0</ele><time>2026-04-18T10:48:00Z</time></trkpt><trkpt lat="42.561914545025374" lon="11.525746077708263"><ele>247.66666666666669</ele><time>2026-04-18T10:48:01Z</time></trkpt><trkpt lat="42.56174568078834" lon="11.525675268825738"><ele>247.33333333333331</ele><time>2026-04-18T10:48:02Z</time></trkpt><trkpt lat="42.56159932212453" lon="11.525586985720446"><ele>247.0</ele><time>2026-04-18T10:48:03Z</time></trkpt><trkpt lat="42.56144390258258" lon="11.52548367608614"><ele>246.33333333333331</ele><time>2026-04-18T10:48:04Z</time></trkpt><trkpt lat="42.56129297330205" lon="11.52537419406685"><ele>245.66666666666669</ele><time>2026-04-18T10:48:05Z</time></trkpt><trkpt lat="42.56114881263408" lon="11.525247661449326"><ele>245.0</ele><time>2026-04-18T10:48:06Z</time></trkpt><trkpt lat="42.56100859151905" lon="11.525103690853733"><ele>245.0</ele><time>2026-04-18T10:48:07Z</time></trkpt><trkpt lat="42.56086790826307" lon="11.52496437961747"><ele>245.0</ele><time>2026-04-18T10:48:08Z</time></trkpt><trkpt lat="42.560737227420184" lon="11.524824879011334"><ele>245.0</ele><time>2026-04-18T10:48:09Z</time></trkpt><trkpt lat="42.560616578238644" lon="11.524695823240483"><ele>245.0</ele><time>2026-04-18T10:48:10Z</time></trkpt><trkpt lat="42.560492773270454" lon="11.524567890613211"><ele>245.0</ele><time>2026-04-18T10:48:11Z</time></trkpt><trkpt lat="42.560361779847554" lon="11.524445362232711"><ele>245.0</ele><time>2026-04-18T10:48:12Z</time></trkpt><trkpt lat="42.56022110315604" lon="11.524331072927394"><ele>244.33333333333334</ele><time>2026-04-18T10:48:13Z</time></trkpt><trkpt lat="42.560068726845394" lon="11.524232581518502"><ele>243.66666666666669</ele><time>2026-04-18T10:48:14Z</time></trkpt><trkpt lat="42.55991493235986" lon="11.524139203336663"><ele>243.0</ele><time>2026-04-18T10:48:15Z</time></trkpt><trkpt lat="42.55976425333501" lon="11.524050121179458"><ele>243.0</ele><time>2026-04-18T10:48:16Z</time></trkpt><trkpt lat="42.55960653106528" lon="11.523958484404345"><ele>243.0</ele><time>2026-04-18T10:48:17Z</time></trkpt><trkpt lat="42.55944871751945" lon="11.52386178875535"><ele>243.0</ele><time>2026-04-18T10:48:18Z</time></trkpt><trkpt lat="42.55930112524053" lon="11.52377191670166"><ele>241.33333333333331</ele><time>2026-04-18T10:48:19Z</time></trkpt><trkpt lat="42.55915276536069" lon="11.523675161973134"><ele>239.66666666666666</ele><time>2026-04-18T10:48:20Z</time></trkpt><trkpt lat="42.55901104249468" lon="11.523589497641417"><ele>238.0</ele><time>2026-04-18T10:48:21Z</time></trkpt><trkpt lat="42.55886911360048" lon="11.523512687573696"><ele>238.0</ele><time>2026-04-18T10:48:22Z</time></trkpt><trkpt lat="42.55871925841787" lon="11.523416946933764"><ele>238.0</ele><time>2026-04-18T10:48:23Z</time></trkpt><trkpt lat="42.55857210315619" lon="11.523328164004164"><ele>238.0</ele><time>2026-04-18T10:48:24Z</time></trkpt><trkpt lat="42.558424969398025" lon="11.52323766954756"><ele>237.0</ele><time>2026-04-18T10:48:25Z</time></trkpt><trkpt lat="42.5582798879769" lon="11.523153836374734"><ele>236.0</ele><time>2026-04-18T10:48:26Z</time></trkpt><trkpt lat="42.55814537743134" lon="11.523077459931542"><ele>235.0</ele><time>2026-04-18T10:48:27Z</time></trkpt><trkpt lat="42.55802024159515" lon="11.523000883868013"><ele>234.0</ele><time>2026-04-18T10:48:28Z</time></trkpt><trkpt lat="42.55791587459314" lon="11.522928200624301"><ele>233.79999999999998</ele><time>2026-04-18T10:48:29Z</time></trkpt><trkpt lat="42.55783195076751" lon="11.52285639316049"><ele>233.59999999999997</ele><time>2026-04-18T10:48:30Z</time></trkpt><trkpt lat="42.55775491506453" lon="11.522769338607235"><ele>233.4</ele><time>2026-04-18T10:48:31Z</time></trkpt><trkpt lat="42.5576997930415" lon="11.522650035798849"><ele>233.2</ele><time>2026-04-18T10:48:32Z</time></trkpt><trkpt lat="42.557633282779825" lon="11.522561921902103"><ele>233.0</ele><time>2026-04-18T10:48:33Z</time></trkpt><trkpt lat="42.55756200131539" lon="11.52249341346979"><ele>233.0</ele><time>2026-04-18T10:48:34Z</time></trkpt><trkpt lat="42.55751198008004" lon="11.522403529606379"><ele>233.0</ele><time>2026-04-18T10:48:35Z</time></trkpt><trkpt lat="42.55744802964171" lon="11.522315265780412"><ele>233.0</ele><time>2026-04-18T10:48:36Z</time></trkpt><trkpt lat="42.55737131116422" lon="11.52223021011048"><ele>233.0</ele><time>2026-04-18T10:48:37Z</time></trkpt><trkpt lat="42.55730728863657" lon="11.522127648951008"><ele>233.0</ele><time>2026-04-18T10:48:38Z</time></trkpt><trkpt lat="42.55723305856703" lon="11.522024226807721"><ele>233.75</ele><time>2026-04-18T10:48:39Z</time></trkpt><trkpt lat="42.55714583822927" lon="11.521924235526242"><ele>234.5</ele><time>2026-04-18T10:48:40Z</time></trkpt><trkpt lat="42.55707951337735" lon="11.521809929707391"><ele>235.25</ele><time>2026-04-18T10:48:41Z</time></trkpt><trkpt lat="42.557010489729045" lon="11.52171227634234"><ele>236.0</ele><time>2026-04-18T10:48:42Z</time></trkpt><trkpt lat="42.556902979793406" lon="11.521586354534909"><ele>236.0</ele><time>2026-04-18T10:48:43Z</time></trkpt><trkpt lat="42.55680009553547" lon="11.521455280548766"><ele>236.0</ele><time>2026-04-18T10:48:44Z</time></trkpt><trkpt lat="42.55669674624143" lon="11.521314753064575"><ele>236.0</ele><time>2026-04-18T10:48:45Z</time></trkpt><trkpt lat="42.55659879466058" lon="11.521171928232974"><ele>236.0</ele><time>2026-04-18T10:48:46Z</time></trkpt><trkpt lat="42.55650717054133" lon="11.521033459632173"><ele>236.25</ele><time>2026-04-18T10:48:47Z</time></trkpt><trkpt lat="42.55640679894159" lon="11.52089941939547"><ele>236.5</ele><time>2026-04-18T10:48:48Z</time></trkpt><trkpt lat="42.55629791142812" lon="11.520756139747576"><ele>236.75</ele><time>2026-04-18T10:48:49Z</time></trkpt><trkpt lat="42.556200133637525" lon="11.520614316423554"><ele>237.0</ele><time>2026-04-18T10:48:50Z</time></trkpt><trkpt lat="42.556098847444545" lon="11.520471216697276"><ele>235.75</ele><time>2026-04-18T10:48:51Z</time></trkpt><trkpt lat="42.55599222735326" lon="11.520326460949152"><ele>234.5</ele><time>2026-04-18T10:48:52Z</time></trkpt><trkpt lat="42.5558890762674" lon="11.520192420675208"><ele>233.25</ele><time>2026-04-18T10:48:53Z</time></trkpt><trkpt lat="42.55578343734289" lon="11.520059950567116"><ele>232.0</ele><time>2026-04-18T10:48:54Z</time></trkpt><trkpt lat="42.555678443243" lon="11.51992525683708"><ele>232.0</ele><time>2026-04-18T10:48:55Z</time></trkpt><trkpt lat="42.555580462606954" lon="11.519787769210996"><ele>232.0</ele><time>2026-04-18T10:48:56Z</time></trkpt><trkpt lat="42.555480974959785" lon="11.519645773841336"><ele>232.0</ele><time>2026-04-18T10:48:57Z</time></trkpt><trkpt lat="42.55537920066576" lon="11.51951933560018"><ele>232.0</ele><time>2026-04-18T10:48:58Z</time></trkpt><trkpt lat="42.5552834699301" lon="11.519364868587111"><ele>232.25</ele><time>2026-04-18T10:48:59Z</time></trkpt><trkpt lat="42.55518161421716" lon="11.5192250624495"><ele>232.5</ele><time>2026-04-18T10:49:00Z</time></trkpt><trkpt lat="42.55507657622181" lon="11.519087377181704"><ele>232.75</ele><time>2026-04-18T10:49:01Z</time></trkpt><trkpt lat="42.55499406005669" lon="11.518917598701165"><ele>233.0</ele><time>2026-04-18T10:49:02Z</time></trkpt><trkpt lat="42.55491828889754" lon="11.518744235716902"><ele>233.5</ele><time>2026-04-18T10:49:03Z</time></trkpt><trkpt lat="42.5548465938049" lon="11.5185663398865"><ele>234.0</ele><time>2026-04-18T10:49:04Z</time></trkpt><trkpt lat="42.554775330341634" lon="11.518385426802409"><ele>234.5</ele><time>2026-04-18T10:49:05Z</time></trkpt><trkpt lat="42.55472394058722" lon="11.518224786348553"><ele>235.0</ele><time>2026-04-18T10:49:06Z</time></trkpt><trkpt lat="42.55467381582865" lon="11.518052915854431"><ele>236.0</ele><time>2026-04-18T10:49:07Z</time></trkpt><trkpt lat="42.55466409885739" lon="11.517880087775486"><ele>237.0</ele><time>2026-04-18T10:49:08Z</time></trkpt><trkpt lat="42.5546371875976" lon="11.517691135157586"><ele>238.0</ele><time>2026-04-18T10:49:09Z</time></trkpt><trkpt lat="42.55463789489757" lon="11.517497878933627"><ele>239.0</ele><time>2026-04-18T10:49:10Z</time></trkpt><trkpt lat="42.5546452435178" lon="11.517323006152381"><ele>239.0</ele><time>2026-04-18T10:49:11Z</time></trkpt><trkpt lat="42.554638138332486" lon="11.517132352623184"><ele>239.0</ele><time>2026-04-18T10:49:12Z</time></trkpt><trkpt lat="42.55463309575643" lon="11.516944632653487"><ele>239.0</ele><time>2026-04-18T10:49:13Z</time></trkpt><trkpt lat="42.55462977837848" lon="11.516745425115"><ele>239.0</ele><time>2026-04-18T10:49:14Z</time></trkpt><trkpt lat="42.55462320941465" lon="11.516536385826006"><ele>238.33333333333334</ele><time>2026-04-18T10:49:15Z</time></trkpt><trkpt lat="42.554617261524044" lon="11.51633329071997"><ele>237.66666666666669</ele><time>2026-04-18T10:49:16Z</time></trkpt><trkpt lat="42.55461350107608" lon="11.516127215730114"><ele>237.0</ele><time>2026-04-18T10:49:17Z</time></trkpt><trkpt lat="42.55460043972927" lon="11.515918779882652"><ele>236.66666666666669</ele><time>2026-04-18T10:49:18Z</time></trkpt><trkpt lat="42.55460750799686" lon="11.515718988026338"><ele>236.33333333333334</ele><time>2026-04-18T10:49:19Z</time></trkpt><trkpt lat="42.55460565341431" lon="11.515509064856301"><ele>236.0</ele><time>2026-04-18T10:49:20Z</time></trkpt><trkpt lat="42.55459517062021" lon="11.515291001446116"><ele>236.0</ele><time>2026-04-18T10:49:21Z</time></trkpt><trkpt lat="42.55460554996944" lon="11.515069076294541"><ele>236.0</ele><time>2026-04-18T10:49:22Z</time></trkpt><trkpt lat="42.55461771723962" lon="11.514862884826575"><ele>236.0</ele><time>2026-04-18T10:49:23Z</time></trkpt><trkpt lat="42.55463801085997" lon="11.514652400144582"><ele>237.0</ele><time>2026-04-18T10:49:24Z</time></trkpt><trkpt lat="42.554660609658995" lon="11.514444731527833"><ele>238.0</ele><time>2026-04-18T10:49:25Z</time></trkpt><trkpt lat="42.55468196679175" lon="11.514232056574757"><ele>239.0</ele><time>2026-04-18T10:49:26Z</time></trkpt><trkpt lat="42.55470396013931" lon="11.513997447872681"><ele>239.0</ele><time>2026-04-18T10:49:27Z</time></trkpt><trkpt lat="42.55472615403854" lon="11.513780131113258"><ele>239.0</ele><time>2026-04-18T10:49:28Z</time></trkpt><trkpt lat="42.55474585200103" lon="11.513583141115461"><ele>239.0</ele><time>2026-04-18T10:49:29Z</time></trkpt><trkpt lat="42.55474867845694" lon="11.513393964205184"><ele>239.0</ele><time>2026-04-18T10:49:30Z</time></trkpt><trkpt lat="42.55474623736959" lon="11.513214618625858"><ele>239.66666666666669</ele><time>2026-04-18T10:49:31Z</time></trkpt><trkpt lat="42.55471388826047" lon="11.51301926829576"><ele>240.33333333333331</ele><time>2026-04-18T10:49:32Z</time></trkpt><trkpt lat="42.55466060573751" lon="11.512838967059432"><ele>241.0</ele><time>2026-04-18T10:49:33Z</time></trkpt><trkpt lat="42.55460932540443" lon="11.51262633907821"><ele>241.66666666666666</ele><time>2026-04-18T10:49:34Z</time></trkpt><trkpt lat="42.55454226852229" lon="11.512429298726634"><ele>242.33333333333331</ele><time>2026-04-18T10:49:35Z</time></trkpt><trkpt lat="42.5544708162645" lon="11.51222674197171"><ele>243.0</ele><time>2026-04-18T10:49:36Z</time></trkpt><trkpt lat="42.554401560435146" lon="11.512028275833583"><ele>243.0</ele><time>2026-04-18T10:49:37Z</time></trkpt><trkpt lat="42.55433398319882" lon="11.511828378391785"><ele>243.0</ele><time>2026-04-18T10:49:38Z</time></trkpt><trkpt lat="42.55425630924755" lon="11.511645961080921"><ele>243.0</ele><time>2026-04-18T10:49:39Z</time></trkpt><trkpt lat="42.55419249922753" lon="11.511467803055595"><ele>243.0</ele><time>2026-04-18T10:49:40Z</time></trkpt><trkpt lat="42.55412321450433" lon="11.51130307815922"><ele>243.0</ele><time>2026-04-18T10:49:41Z</time></trkpt><trkpt lat="42.55402918599478" lon="11.511148880028525"><ele>243.0</ele><time>2026-04-18T10:49:42Z</time></trkpt><trkpt lat="42.5539250670336" lon="11.511038690027293"><ele>243.0</ele><time>2026-04-18T10:49:43Z</time></trkpt><trkpt lat="42.55380619667159" lon="11.510947940383994"><ele>243.25</ele><time>2026-04-18T10:49:44Z</time></trkpt><trkpt lat="42.55367530229721" lon="11.510865079855565"><ele>243.5</ele><time>2026-04-18T10:49:45Z</time></trkpt><trkpt lat="42.55355080109447" lon="11.510756272626239"><ele>243.75</ele><time>2026-04-18T10:49:46Z</time></trkpt><trkpt lat="42.5534189575357" lon="11.51066845153467"><ele>244.0</ele><time>2026-04-18T10:49:47Z</time></trkpt><trkpt lat="42.55328735488598" lon="11.510583946684195"><ele>244.0</ele><time>2026-04-18T10:49:48Z</time></trkpt><trkpt lat="42.55315324427853" lon="11.510497831186708"><ele>244.0</ele><time>2026-04-18T10:49:49Z</time></trkpt><trkpt lat="42.55301066320605" lon="11.51040445272697"><ele>244.0</ele><time>2026-04-18T10:49:50Z</time></trkpt><trkpt lat="42.552864442043145" lon="11.510325528162705"><ele>241.33333333333331</ele><time>2026-04-18T10:49:51Z</time></trkpt><trkpt lat="42.5527239899448" lon="11.510237271513645"><ele>238.66666666666669</ele><time>2026-04-18T10:49:52Z</time></trkpt><trkpt lat="42.55258320958546" lon="11.510121650647214"><ele>236.0</ele><time>2026-04-18T10:49:53Z</time></trkpt><trkpt lat="42.55244534310435" lon="11.510030438450865"><ele>236.0</ele><time>2026-04-18T10:49:54Z</time></trkpt><trkpt lat="42.55230152211756" lon="11.509959762989817"><ele>236.0</ele><time>2026-04-18T10:49:55Z</time></trkpt><trkpt lat="42.552163465670354" lon="11.509842809692378"><ele>236.0</ele><time>2026-04-18T10:49:56Z</time></trkpt><trkpt lat="42.552024985445726" lon="11.509750077786133"><ele>235.33333333333334</ele><time>2026-04-18T10:49:57Z</time></trkpt><trkpt lat="42.55188413195797" lon="11.50965575655428"><ele>234.66666666666669</ele><time>2026-04-18T10:49:58Z</time></trkpt><trkpt lat="42.551732436192324" lon="11.509577844042772"><ele>234.0</ele><time>2026-04-18T10:49:59Z</time></trkpt><trkpt lat="42.551587671789456" lon="11.509478990572545"><ele>233.75</ele><time>2026-04-18T10:50:00Z</time></trkpt><trkpt lat="42.551457256117466" lon="11.509367825877542"><ele>233.5</ele><time>2026-04-18T10:50:01Z</time></trkpt><trkpt lat="42.551328082556665" lon="11.509298057562495"><ele>233.25</ele><time>2026-04-18T10:50:02Z</time></trkpt><trkpt lat="42.55119304103581" lon="11.5092059731069"><ele>233.0</ele><time>2026-04-18T10:50:03Z</time></trkpt><trkpt lat="42.55103925482181" lon="11.509107192807303"><ele>233.0</ele><time>2026-04-18T10:50:04Z</time></trkpt><trkpt lat="42.55089875410894" lon="11.50899249381893"><ele>233.0</ele><time>2026-04-18T10:50:05Z</time></trkpt><trkpt lat="42.55075197810822" lon="11.508917449166272"><ele>233.0</ele><time>2026-04-18T10:50:06Z</time></trkpt><trkpt lat="42.550623934380326" lon="11.508827566035814"><ele>232.0</ele><time>2026-04-18T10:50:07Z</time></trkpt><trkpt lat="42.55047480300627" lon="11.508735340429661"><ele>231.0</ele><time>2026-04-18T10:50:08Z</time></trkpt><trkpt lat="42.55032355016424" lon="11.508649394195011"><ele>230.0</ele><time>2026-04-18T10:50:09Z</time></trkpt><trkpt lat="42.55018232121601" lon="11.508558187858194"><ele>229.33333333333334</ele><time>2026-04-18T10:50:10Z</time></trkpt><trkpt lat="42.55002906605733" lon="11.508473273722107"><ele>228.66666666666669</ele><time>2026-04-18T10:50:11Z</time></trkpt><trkpt lat="42.54988415224698" lon="11.508378684533078"><ele>228.0</ele><time>2026-04-18T10:50:12Z</time></trkpt><trkpt lat="42.54972698096254" lon="11.50829321565209"><ele>228.0</ele><time>2026-04-18T10:50:13Z</time></trkpt><trkpt lat="42.54957495086869" lon="11.508210895219804"><ele>228.0</ele><time>2026-04-18T10:50:14Z</time></trkpt><trkpt lat="42.54942768655784" lon="11.508133754007154"><ele>228.0</ele><time>2026-04-18T10:50:15Z</time></trkpt><trkpt lat="42.54929193124219" lon="11.508060485954774"><ele>228.66666666666669</ele><time>2026-04-18T10:50:16Z</time></trkpt><trkpt lat="42.54915205132187" lon="11.507971363308558"><ele>229.33333333333334</ele><time>2026-04-18T10:50:17Z</time></trkpt><trkpt lat="42.549019801924075" lon="11.507868437675464"><ele>230.0</ele><time>2026-04-18T10:50:18Z</time></trkpt><trkpt lat="42.548894649869794" lon="11.507757411720851"><ele>229.33333333333334</ele><time>2026-04-18T10:50:19Z</time></trkpt><trkpt lat="42.548766688640555" lon="11.507630844911043"><ele>228.66666666666669</ele><time>2026-04-18T10:50:20Z</time></trkpt><trkpt lat="42.54863548040901" lon="11.507487148809535"><ele>228.0</ele><time>2026-04-18T10:50:21Z</time></trkpt><trkpt lat="42.54850632429051" lon="11.50734844685494"><ele>228.0</ele><time>2026-04-18T10:50:22Z</time></trkpt><trkpt lat="42.548372740379236" lon="11.507209000665737"><ele>228.0</ele><time>2026-04-18T10:50:23Z</time></trkpt><trkpt lat="42.548227996221215" lon="11.507088351277197"><ele>228.0</ele><time>2026-04-18T10:50:24Z</time></trkpt><trkpt lat="42.54808928024944" lon="11.5069449327129"><ele>225.66666666666669</ele><time>2026-04-18T10:50:25Z</time></trkpt><trkpt lat="42.54796318280666" lon="11.506790530518026"><ele>223.33333333333334</ele><time>2026-04-18T10:50:26Z</time></trkpt><trkpt lat="42.54782065749736" lon="11.506676874783565"><ele>221.0</ele><time>2026-04-18T10:50:27Z</time></trkpt><trkpt lat="42.54767820406269" lon="11.506534174715052"><ele>220.66666666666669</ele><time>2026-04-18T10:50:28Z</time></trkpt><trkpt lat="42.547542897798195" lon="11.506394432802882"><ele>220.33333333333331</ele><time>2026-04-18T10:50:29Z</time></trkpt><trkpt lat="42.54741084846597" lon="11.506262971218781"><ele>220.0</ele><time>2026-04-18T10:50:30Z</time></trkpt><trkpt lat="42.547290418790375" lon="11.506106792916757"><ele>219.33333333333331</ele><time>2026-04-18T10:50:31Z</time></trkpt><trkpt lat="42.547157766401334" lon="11.505960277950193"><ele>218.66666666666669</ele><time>2026-04-18T10:50:32Z</time></trkpt><trkpt lat="42.547045167929284" lon="11.50582980508384"><ele>218.0</ele><time>2026-04-18T10:50:33Z</time></trkpt><trkpt lat="42.54691810107759" lon="11.505666819311328"><ele>217.66666666666669</ele><time>2026-04-18T10:50:34Z</time></trkpt><trkpt lat="42.54680865467281" lon="11.50550753782621"><ele>217.33333333333331</ele><time>2026-04-18T10:50:35Z</time></trkpt><trkpt lat="42.546696113330384" lon="11.505341888304072"><ele>217.0</ele><time>2026-04-18T10:50:36Z</time></trkpt><trkpt lat="42.54658535222269" lon="11.505178858996617"><ele>216.33333333333331</ele><time>2026-04-18T10:50:37Z</time></trkpt><trkpt lat="42.54646518394341" lon="11.505024330598905"><ele>215.66666666666669</ele><time>2026-04-18T10:50:38Z</time></trkpt><trkpt lat="42.54635791228137" lon="11.504861261123903"><ele>215.0</ele><time>2026-04-18T10:50:39Z</time></trkpt><trkpt lat="42.54624791696329" lon="11.504696091299627"><ele>214.0</ele><time>2026-04-18T10:50:40Z</time></trkpt><trkpt lat="42.54613637941036" lon="11.504538631937512"><ele>213.0</ele><time>2026-04-18T10:50:41Z</time></trkpt><trkpt lat="42.54601921566636" lon="11.504370102667373"><ele>212.0</ele><time>2026-04-18T10:50:42Z</time></trkpt><trkpt lat="42.54591101785757" lon="11.504206638740037"><ele>212.0</ele><time>2026-04-18T10:50:43Z</time></trkpt><trkpt lat="42.5457985423682" lon="11.504040742682864"><ele>212.0</ele><time>2026-04-18T10:50:44Z</time></trkpt><trkpt lat="42.54568677059257" lon="11.503869548541127"><ele>212.0</ele><time>2026-04-18T10:50:45Z</time></trkpt><trkpt lat="42.54557627382981" lon="11.503710538278371"><ele>211.33333333333334</ele><time>2026-04-18T10:50:46Z</time></trkpt><trkpt lat="42.545474530835385" lon="11.50355277673621"><ele>210.66666666666669</ele><time>2026-04-18T10:50:47Z</time></trkpt><trkpt lat="42.5453691165338" lon="11.503395607105503"><ele>210.0</ele><time>2026-04-18T10:50:48Z</time></trkpt><trkpt lat="42.54525550001169" lon="11.50321782863789"><ele>210.0</ele><time>2026-04-18T10:50:49Z</time></trkpt><trkpt lat="42.54514820929522" lon="11.503062877788176"><ele>210.0</ele><time>2026-04-18T10:50:50Z</time></trkpt><trkpt lat="42.5450414548543" lon="11.502895501443199"><ele>210.0</ele><time>2026-04-18T10:50:51Z</time></trkpt><trkpt lat="42.54493157042872" lon="11.502730984874594"><ele>210.0</ele><time>2026-04-18T10:50:52Z</time></trkpt><trkpt lat="42.54482467396669" lon="11.502561616528395"><ele>210.0</ele><time>2026-04-18T10:50:53Z</time></trkpt><trkpt lat="42.54471851761991" lon="11.50239557494545"><ele>210.0</ele><time>2026-04-18T10:50:54Z</time></trkpt><trkpt lat="42.544607392605265" lon="11.502227018687249"><ele>209.66666666666669</ele><time>2026-04-18T10:50:55Z</time></trkpt><trkpt lat="42.54448802688189" lon="11.502050680536403"><ele>209.33333333333334</ele><time>2026-04-18T10:50:56Z</time></trkpt><trkpt lat="42.544367717468035" lon="11.5018709971917"><ele>209.0</ele><time>2026-04-18T10:50:57Z</time></trkpt><trkpt lat="42.544253960948346" lon="11.501693519676442"><ele>209.0</ele><time>2026-04-18T10:50:58Z</time></trkpt><trkpt lat="42.54415480183267" lon="11.501511917222333"><ele>209.0</ele><time>2026-04-18T10:50:59Z</time></trkpt><trkpt lat="42.54405378322464" lon="11.501353119505525"><ele>209.0</ele><time>2026-04-18T10:51:00Z</time></trkpt><trkpt lat="42.54394131923744" lon="11.501203324526973"><ele>208.25</ele><time>2026-04-18T10:51:01Z</time></trkpt><trkpt lat="42.54382905104856" lon="11.501088303086593"><ele>207.5</ele><time>2026-04-18T10:51:02Z</time></trkpt><trkpt lat="42.54370291375435" lon="11.50099024584038"><ele>206.75</ele><time>2026-04-18T10:51:03Z</time></trkpt><trkpt lat="42.54357148454133" lon="11.500895440722786"><ele>206.0</ele><time>2026-04-18T10:51:04Z</time></trkpt><trkpt lat="42.543433977783025" lon="11.500786496164624"><ele>206.0</ele><time>2026-04-18T10:51:05Z</time></trkpt><trkpt lat="42.54328982581048" lon="11.5006932525216"><ele>206.0</ele><time>2026-04-18T10:51:06Z</time></trkpt><trkpt lat="42.543153667785774" lon="11.500587257011045"><ele>206.0</ele><time>2026-04-18T10:51:07Z</time></trkpt><trkpt lat="42.543017077551575" lon="11.500480684315955"><ele>205.33333333333334</ele><time>2026-04-18T10:51:08Z</time></trkpt><trkpt lat="42.54288782877842" lon="11.500359909742954"><ele>204.66666666666669</ele><time>2026-04-18T10:51:09Z</time></trkpt><trkpt lat="42.542773559545196" lon="11.500234451321914"><ele>204.0</ele><time>2026-04-18T10:51:10Z</time></trkpt><trkpt lat="42.54265899488717" lon="11.500109969902764"><ele>204.0</ele><time>2026-04-18T10:51:11Z</time></trkpt><trkpt lat="42.54254695670151" lon="11.50000507767332"><ele>204.0</ele><time>2026-04-18T10:51:12Z</time></trkpt><trkpt lat="42.542443294585574" lon="11.499918870526216"><ele>204.0</ele><time>2026-04-18T10:51:13Z</time></trkpt><trkpt lat="42.54233197257372" lon="11.499857096334871"><ele>204.0</ele><time>2026-04-18T10:51:14Z</time></trkpt><trkpt lat="42.542217656581904" lon="11.499810722135082"><ele>204.0</ele><time>2026-04-18T10:51:15Z</time></trkpt><trkpt lat="42.5421099281836" lon="11.49975030598428"><ele>204.0</ele><time>2026-04-18T10:51:16Z</time></trkpt><trkpt lat="42.54201390713932" lon="11.499706145084179"><ele>204.0</ele><time>2026-04-18T10:51:17Z</time></trkpt><trkpt lat="42.54192598660633" lon="11.499643895561565"><ele>204.0</ele><time>2026-04-18T10:51:18Z</time></trkpt><trkpt lat="42.54183323608058" lon="11.499546736025172"><ele>204.0</ele><time>2026-04-18T10:51:19Z</time></trkpt><trkpt lat="42.541729873344345" lon="11.499419514478518"><ele>202.75</ele><time>2026-04-18T10:51:20Z</time></trkpt><trkpt lat="42.54162895820183" lon="11.499300464269172"><ele>201.5</ele><time>2026-04-18T10:51:21Z</time></trkpt><trkpt lat="42.54154226936189" lon="11.499201096297199"><ele>200.25</ele><time>2026-04-18T10:51:22Z</time></trkpt><trkpt lat="42.54145820802408" lon="11.499104740465704"><ele>199.0</ele><time>2026-04-18T10:51:23Z</time></trkpt><trkpt lat="42.541378923198366" lon="11.49900890658133"><ele>199.0</ele><time>2026-04-18T10:51:24Z</time></trkpt><trkpt lat="42.541293486591435" lon="11.498920040572171"><ele>199.0</ele><time>2026-04-18T10:51:25Z</time></trkpt><trkpt lat="42.5412496615168" lon="11.498808740927076"><ele>199.0</ele><time>2026-04-18T10:51:26Z</time></trkpt><trkpt lat="42.54122463173988" lon="11.49869859532997"><ele>199.0</ele><time>2026-04-18T10:51:27Z</time></trkpt><trkpt lat="42.54122259688609" lon="11.498568654841055"><ele>199.0</ele><time>2026-04-18T10:51:28Z</time></trkpt><trkpt lat="42.541199618762974" lon="11.498449945345063"><ele>195.79999999999998</ele><time>2026-04-18T10:51:29Z</time></trkpt><trkpt lat="42.54119958233564" lon="11.498331897407231"><ele>192.6</ele><time>2026-04-18T10:51:30Z</time></trkpt><trkpt lat="42.54117230468884" lon="11.49821159802272"><ele>189.4</ele><time>2026-04-18T10:51:31Z</time></trkpt><trkpt lat="42.54111820822862" lon="11.498088144021583"><ele>186.2</ele><time>2026-04-18T10:51:32Z</time></trkpt><trkpt lat="42.541048354429186" lon="11.497974159135877"><ele>183.0</ele><time>2026-04-18T10:51:33Z</time></trkpt><trkpt lat="42.54096467170404" lon="11.49787590307574"><ele>183.0</ele><time>2026-04-18T10:51:34Z</time></trkpt><trkpt lat="42.540903533964524" lon="11.497771133879171"><ele>183.0</ele><time>2026-04-18T10:51:35Z</time></trkpt><trkpt lat="42.54083017276093" lon="11.497685444099103"><ele>183.0</ele><time>2026-04-18T10:51:36Z</time></trkpt><trkpt lat="42.54076034034093" lon="11.497605384754293"><ele>183.0</ele><time>2026-04-18T10:51:37Z</time></trkpt><trkpt lat="42.540700150179134" lon="11.497535881033844"><ele>183.0</ele><time>2026-04-18T10:51:38Z</time></trkpt><trkpt lat="42.54063914338794" lon="11.4974818966818"><ele>183.0</ele><time>2026-04-18T10:51:39Z</time></trkpt><trkpt lat="42.540547753775925" lon="11.497405596619522"><ele>183.0</ele><time>2026-04-18T10:51:41Z</time></trkpt><trkpt lat="42.540456176478855" lon="11.497371750379335"><ele>183.0</ele><time>2026-04-18T10:51:43Z</time></trkpt><trkpt lat="42.540360898509945" lon="11.497382552494917"><ele>183.0</ele><time>2026-04-18T10:51:45Z</time></trkpt><trkpt lat="42.540273440534236" lon="11.49745697714746"><ele>183.0</ele><time>2026-04-18T10:51:47Z</time></trkpt><trkpt lat="42.5401894853785" lon="11.497492982378134"><ele>183.0</ele><time>2026-04-18T10:51:49Z</time></trkpt><trkpt lat="42.54012245354204" lon="11.497574237693902"><ele>185.33333333333334</ele><time>2026-04-18T10:52:00Z</time></trkpt><trkpt lat="42.54003814409491" lon="11.497633441375012"><ele>187.66666666666669</ele><time>2026-04-18T10:52:02Z</time></trkpt><trkpt lat="42.53993299723176" lon="11.497690378303838"><ele>190.0</ele><time>2026-04-18T10:52:04Z</time></trkpt><trkpt lat="42.53985946278556" lon="11.497724105323503"><ele>192.33333333333334</ele><time>2026-04-18T10:52:05Z</time></trkpt><trkpt lat="42.53978663175883" lon="11.497722887489587"><ele>194.66666666666669</ele><time>2026-04-18T10:52:06Z</time></trkpt><trkpt lat="42.53970672584773" lon="11.49772402205999"><ele>197.0</ele><time>2026-04-18T10:52:07Z</time></trkpt><trkpt lat="42.539615981953204" lon="11.497701560030677"><ele>198.16666666666669</ele><time>2026-04-18T10:52:08Z</time></trkpt><trkpt lat="42.53953949478954" lon="11.497624444779877"><ele>199.33333333333334</ele><time>2026-04-18T10:52:09Z</time></trkpt><trkpt lat="42.53947368567896" lon="11.497548156243063"><ele>200.5</ele><time>2026-04-18T10:52:10Z</time></trkpt><trkpt lat="42.53942159218625" lon="11.497473007497668"><ele>201.66666666666669</ele><time>2026-04-18T10:52:11Z</time></trkpt><trkpt lat="42.539377115561074" lon="11.497376630651159"><ele>202.83333333333334</ele><time>2026-04-18T10:52:12Z</time></trkpt><trkpt lat="42.539328190799324" lon="11.49726771576507"><ele>204.0</ele><time>2026-04-18T10:52:13Z</time></trkpt><trkpt lat="42.539268501282066" lon="11.497162076062455"><ele>204.79999999999998</ele><time>2026-04-18T10:52:14Z</time></trkpt><trkpt lat="42.53921601314731" lon="11.497043163442669"><ele>205.6</ele><time>2026-04-18T10:52:15Z</time></trkpt><trkpt lat="42.539166822599825" lon="11.496941108020506"><ele>206.4</ele><time>2026-04-18T10:52:16Z</time></trkpt><trkpt lat="42.539092829957156" lon="11.49684285168241"><ele>207.2</ele><time>2026-04-18T10:52:17Z</time></trkpt><trkpt lat="42.53904044232265" lon="11.49674766399922"><ele>208.0</ele><time>2026-04-18T10:52:18Z</time></trkpt><trkpt lat="42.53900725767773" lon="11.496647352370962"><ele>207.99999999999997</ele><time>2026-04-18T10:52:19Z</time></trkpt><trkpt lat="42.53895548610512" lon="11.496550123986593"><ele>208.0</ele><time>2026-04-18T10:52:20Z</time></trkpt><trkpt lat="42.53891596002368" lon="11.496473532657221"><ele>208.0</ele><time>2026-04-18T10:52:21Z</time></trkpt><trkpt lat="42.53887079783275" lon="11.4963822619112"><ele>208.0</ele><time>2026-04-18T10:52:24Z</time></trkpt><trkpt lat="42.53883546327005" lon="11.496305172391292"><ele>207.99999999999997</ele><time>2026-04-18T10:52:26Z</time></trkpt><trkpt lat="42.5388076238187" lon="11.496216772844331"><ele>208.0</ele><time>2026-04-18T10:52:27Z</time></trkpt><trkpt lat="42.538781998627464" lon="11.49611777782751"><ele>207.99999999999997</ele><time>2026-04-18T10:52:28Z</time></trkpt><trkpt lat="42.538768929501266" lon="11.495999616175853"><ele>208.0</ele><time>2026-04-18T10:52:29Z</time></trkpt><trkpt lat="42.53873700209511" lon="11.495876479880847"><ele>208.0</ele><time>2026-04-18T10:52:30Z</time></trkpt><trkpt lat="42.53869167049283" lon="11.495794965981611"><ele>208.0</ele><time>2026-04-18T10:52:31Z</time></trkpt><trkpt lat="42.53864706131101" lon="11.495698310979488"><ele>207.99999999999997</ele><time>2026-04-18T10:52:32Z</time></trkpt><trkpt lat="42.53860153889712" lon="11.4956004149456"><ele>208.0</ele><time>2026-04-18T10:52:33Z</time></trkpt><trkpt lat="42.53854795412222" lon="11.495509029456983"><ele>206.8</ele><time>2026-04-18T10:52:34Z</time></trkpt><trkpt lat="42.53849422617467" lon="11.495430101329877"><ele>205.60000000000002</ele><time>2026-04-18T10:52:35Z</time></trkpt><trkpt lat="42.53843143098652" lon="11.495358738858927"><ele>204.39999999999998</ele><time>2026-04-18T10:52:36Z</time></trkpt><trkpt lat="42.53830200031876" lon="11.495330452159319"><ele>203.2</ele><time>2026-04-18T10:52:38Z</time></trkpt><trkpt lat="42.53819733240795" lon="11.495405890799384"><ele>202.0</ele><time>2026-04-18T10:52:40Z</time></trkpt><trkpt lat="42.5381387904318" lon="11.495459021707068"><ele>201.99999999999997</ele><time>2026-04-18T10:52:41Z</time></trkpt><trkpt lat="42.538084787892295" lon="11.49551328656202"><ele>202.0</ele><time>2026-04-18T10:52:42Z</time></trkpt><trkpt lat="42.53799776138849" lon="11.495611949651375"><ele>202.0</ele><time>2026-04-18T10:52:43Z</time></trkpt><trkpt lat="42.53794286149377" lon="11.495697734386951"><ele>202.0</ele><time>2026-04-18T10:52:44Z</time></trkpt><trkpt lat="42.537890956698696" lon="11.495795700647651"><ele>201.99999999999997</ele><time>2026-04-18T10:52:45Z</time></trkpt><trkpt lat="42.53783999196283" lon="11.495872118019223"><ele>202.0</ele><time>2026-04-18T10:52:46Z</time></trkpt><trkpt lat="42.53774273023777" lon="11.495934962318566"><ele>199.66666666666666</ele><time>2026-04-18T10:52:48Z</time></trkpt><trkpt lat="42.53751053209225" lon="11.495955380306622"><ele>197.33333333333331</ele><time>2026-04-18T10:52:50Z</time></trkpt><trkpt lat="42.537402302989086" lon="11.495941660900758"><ele>195.0</ele><time>2026-04-18T10:52:51Z</time></trkpt><trkpt lat="42.53728947280716" lon="11.49591807519013"><ele>195.0</ele><time>2026-04-18T10:52:52Z</time></trkpt><trkpt lat="42.53719090767744" lon="11.495886865493246"><ele>195.0</ele><time>2026-04-18T10:52:53Z</time></trkpt><trkpt lat="42.5371063286287" lon="11.495842775698858"><ele>195.0</ele><time>2026-04-18T10:52:54Z</time></trkpt><trkpt lat="42.53703361224017" lon="11.495783117905983"><ele>195.0</ele><time>2026-04-18T10:52:55Z</time></trkpt><trkpt lat="42.536959312361155" lon="11.495720151689858"><ele>195.0</ele><time>2026-04-18T10:52:56Z</time></trkpt><trkpt lat="42.536868385501016" lon="11.495639572914923"><ele>194.5</ele><time>2026-04-18T10:52:57Z</time></trkpt><trkpt lat="42.536766046664795" lon="11.495556628841353"><ele>194.0</ele><time>2026-04-18T10:52:58Z</time></trkpt><trkpt lat="42.53665452066179" lon="11.495505162364953"><ele>193.5</ele><time>2026-04-18T10:52:59Z</time></trkpt><trkpt lat="42.536544696534506" lon="11.495444701168198"><ele>193.0</ele><time>2026-04-18T10:53:00Z</time></trkpt><trkpt lat="42.53645730009478" lon="11.495352959891983"><ele>193.0</ele><time>2026-04-18T10:53:01Z</time></trkpt><trkpt lat="42.53636861208337" lon="11.495272577476577"><ele>193.0</ele><time>2026-04-18T10:53:02Z</time></trkpt><trkpt lat="42.536266345584515" lon="11.4951738008493"><ele>193.0</ele><time>2026-04-18T10:53:03Z</time></trkpt><trkpt lat="42.53615987258299" lon="11.495090129630654"><ele>193.0</ele><time>2026-04-18T10:53:04Z</time></trkpt><trkpt lat="42.53606135677034" lon="11.49498171281882"><ele>192.25</ele><time>2026-04-18T10:53:05Z</time></trkpt><trkpt lat="42.53598556813356" lon="11.4948738991957"><ele>191.5</ele><time>2026-04-18T10:53:06Z</time></trkpt><trkpt lat="42.53589663465516" lon="11.494806750295153"><ele>190.75</ele><time>2026-04-18T10:53:07Z</time></trkpt><trkpt lat="42.53579932610714" lon="11.494732623828838"><ele>190.0</ele><time>2026-04-18T10:53:08Z</time></trkpt><trkpt lat="42.53567628095073" lon="11.49469276461921"><ele>190.0</ele><time>2026-04-18T10:53:09Z</time></trkpt><trkpt lat="42.535553981060886" lon="11.494632243092232"><ele>190.0</ele><time>2026-04-18T10:53:10Z</time></trkpt><trkpt lat="42.53543316237368" lon="11.494561654924688"><ele>190.0</ele><time>2026-04-18T10:53:11Z</time></trkpt><trkpt lat="42.53531479427563" lon="11.494482948901013"><ele>190.0</ele><time>2026-04-18T10:53:12Z</time></trkpt><trkpt lat="42.53521235803318" lon="11.494412972367954"><ele>188.8</ele><time>2026-04-18T10:53:13Z</time></trkpt><trkpt lat="42.5350998209268" lon="11.494361529650602"><ele>187.6</ele><time>2026-04-18T10:53:14Z</time></trkpt><trkpt lat="42.53499279723595" lon="11.494324165419817"><ele>186.39999999999998</ele><time>2026-04-18T10:53:15Z</time></trkpt><trkpt lat="42.534898760008524" lon="11.494282370310845"><ele>185.2</ele><time>2026-04-18T10:53:16Z</time></trkpt><trkpt lat="42.534799910374595" lon="11.49423995983498"><ele>184.0</ele><time>2026-04-18T10:53:17Z</time></trkpt><trkpt lat="42.53468250590803" lon="11.494216842837961"><ele>184.0</ele><time>2026-04-18T10:53:18Z</time></trkpt><trkpt lat="42.534557830370744" lon="11.494192585443685"><ele>184.0</ele><time>2026-04-18T10:53:19Z</time></trkpt><trkpt lat="42.53442835098116" lon="11.494187622766669"><ele>184.0</ele><time>2026-04-18T10:53:20Z</time></trkpt><trkpt lat="42.53430772134664" lon="11.494187730359169"><ele>184.0</ele><time>2026-04-18T10:53:21Z</time></trkpt><trkpt lat="42.53418827147778" lon="11.494143407659452"><ele>183.0</ele><time>2026-04-18T10:53:22Z</time></trkpt><trkpt lat="42.534072834950166" lon="11.494107836169052"><ele>182.0</ele><time>2026-04-18T10:53:23Z</time></trkpt><trkpt lat="42.53395693197964" lon="11.49404651548923"><ele>181.0</ele><time>2026-04-18T10:53:24Z</time></trkpt><trkpt lat="42.53386076226691" lon="11.49398020823271"><ele>180.0</ele><time>2026-04-18T10:53:25Z</time></trkpt><trkpt lat="42.53375047915099" lon="11.493898148943888"><ele>180.25</ele><time>2026-04-18T10:53:26Z</time></trkpt><trkpt lat="42.533634052745924" lon="11.493822016536049"><ele>180.5</ele><time>2026-04-18T10:53:27Z</time></trkpt><trkpt lat="42.533510350765326" lon="11.49376896193629"><ele>180.75</ele><time>2026-04-18T10:53:28Z</time></trkpt><trkpt lat="42.53336858919733" lon="11.493713829678306"><ele>181.0</ele><time>2026-04-18T10:53:29Z</time></trkpt><trkpt lat="42.533245718617444" lon="11.493672758350396"><ele>180.8</ele><time>2026-04-18T10:53:30Z</time></trkpt><trkpt lat="42.533128622514596" lon="11.493650217089279"><ele>180.60000000000002</ele><time>2026-04-18T10:53:31Z</time></trkpt><trkpt lat="42.53303724914921" lon="11.493587237579462"><ele>180.4</ele><time>2026-04-18T10:53:32Z</time></trkpt><trkpt lat="42.532947315552846" lon="11.49351908247452"><ele>180.2</ele><time>2026-04-18T10:53:33Z</time></trkpt><trkpt lat="42.53285439718307" lon="11.493443104997478"><ele>180.0</ele><time>2026-04-18T10:53:34Z</time></trkpt><trkpt lat="42.532733977050604" lon="11.493356373354281"><ele>180.0</ele><time>2026-04-18T10:53:35Z</time></trkpt><trkpt lat="42.53261521313382" lon="11.493247156049941"><ele>180.0</ele><time>2026-04-18T10:53:36Z</time></trkpt><trkpt lat="42.53249566336908" lon="11.493140451108895"><ele>180.0</ele><time>2026-04-18T10:53:37Z</time></trkpt><trkpt lat="42.53237549528635" lon="11.493027330405269"><ele>180.0</ele><time>2026-04-18T10:53:38Z</time></trkpt><trkpt lat="42.53225844991538" lon="11.492926615250017"><ele>178.8</ele><time>2026-04-18T10:53:39Z</time></trkpt><trkpt lat="42.53217336637869" lon="11.49284080122874"><ele>177.6</ele><time>2026-04-18T10:53:40Z</time></trkpt><trkpt lat="42.53208569473421" lon="11.492765172464"><ele>176.39999999999998</ele><time>2026-04-18T10:53:41Z</time></trkpt><trkpt lat="42.53197736946516" lon="11.492670099190516"><ele>175.2</ele><time>2026-04-18T10:53:42Z</time></trkpt><trkpt lat="42.53188946259564" lon="11.492584631946897"><ele>174.0</ele><time>2026-04-18T10:53:43Z</time></trkpt><trkpt lat="42.53180814350416" lon="11.492489154876754"><ele>174.0</ele><time>2026-04-18T10:53:44Z</time></trkpt><trkpt lat="42.531760229863046" lon="11.492407669854384"><ele>174.0</ele><time>2026-04-18T10:53:45Z</time></trkpt><trkpt lat="42.531682374283015" lon="11.492279492580154"><ele>174.0</ele><time>2026-04-18T10:53:46Z</time></trkpt><trkpt lat="42.5315968620627" lon="11.492182132113394"><ele>174.0</ele><time>2026-04-18T10:53:47Z</time></trkpt><trkpt lat="42.531500182629905" lon="11.492099988556449"><ele>174.0</ele><time>2026-04-18T10:53:48Z</time></trkpt><trkpt lat="42.53138013832981" lon="11.49200489399388"><ele>172.0</ele><time>2026-04-18T10:53:49Z</time></trkpt><trkpt lat="42.53126803879859" lon="11.491906949108259"><ele>170.0</ele><time>2026-04-18T10:53:50Z</time></trkpt><trkpt lat="42.53117515187588" lon="11.491811314418477"><ele>168.0</ele><time>2026-04-18T10:53:51Z</time></trkpt><trkpt lat="42.53108474141864" lon="11.491709653246527"><ele>166.0</ele><time>2026-04-18T10:53:52Z</time></trkpt><trkpt lat="42.531018877297086" lon="11.491609974292041"><ele>165.5</ele><time>2026-04-18T10:53:53Z</time></trkpt><trkpt lat="42.53095378313401" lon="11.491479833284474"><ele>165.0</ele><time>2026-04-18T10:53:54Z</time></trkpt><trkpt lat="42.530892340822994" lon="11.49131040782458"><ele>164.5</ele><time>2026-04-18T10:53:55Z</time></trkpt><trkpt lat="42.53083482910635" lon="11.491183787206758"><ele>164.0</ele><time>2026-04-18T10:53:56Z</time></trkpt><trkpt lat="42.5307932714265" lon="11.491038604607722"><ele>163.5</ele><time>2026-04-18T10:53:57Z</time></trkpt><trkpt lat="42.53075410794744" lon="11.49089829398812"><ele>163.0</ele><time>2026-04-18T10:53:58Z</time></trkpt><trkpt lat="42.530716551255665" lon="11.490731749679657"><ele>162.5</ele><time>2026-04-18T10:53:59Z</time></trkpt><trkpt lat="42.53066634331779" lon="11.490571830430616"><ele>162.0</ele><time>2026-04-18T10:54:00Z</time></trkpt><trkpt lat="42.530618958636765" lon="11.49042002319526"><ele>161.0</ele><time>2026-04-18T10:54:01Z</time></trkpt><trkpt lat="42.53057055649881" lon="11.490268203228364"><ele>160.0</ele><time>2026-04-18T10:54:02Z</time></trkpt><trkpt lat="42.53053564844403" lon="11.490120652217325"><ele>159.0</ele><time>2026-04-18T10:54:03Z</time></trkpt><trkpt lat="42.53047793762559" lon="11.48996876156479"><ele>158.0</ele><time>2026-04-18T10:54:04Z</time></trkpt><trkpt lat="42.530408915928206" lon="11.489812771418729"><ele>157.0</ele><time>2026-04-18T10:54:05Z</time></trkpt><trkpt lat="42.530343073371235" lon="11.48968519184739"><ele>156.0</ele><time>2026-04-18T10:54:06Z</time></trkpt><trkpt lat="42.53026734080296" lon="11.48957743572386"><ele>155.0</ele><time>2026-04-18T10:54:07Z</time></trkpt><trkpt lat="42.53018280662176" lon="11.489487577475293"><ele>154.0</ele><time>2026-04-18T10:54:08Z</time></trkpt><trkpt lat="42.53010193888445" lon="11.489356840677353"><ele>154.0</ele><time>2026-04-18T10:54:09Z</time></trkpt><trkpt lat="42.53005877444867" lon="11.48922845111045"><ele>154.0</ele><time>2026-04-18T10:54:10Z</time></trkpt><trkpt lat="42.53001726959365" lon="11.489104021373977"><ele>154.0</ele><time>2026-04-18T10:54:11Z</time></trkpt><trkpt lat="42.530000493169965" lon="11.488993343236094"><ele>154.0</ele><time>2026-04-18T10:54:12Z</time></trkpt><trkpt lat="42.529997410568065" lon="11.48887541892461"><ele>154.0</ele><time>2026-04-18T10:54:13Z</time></trkpt><trkpt lat="42.53000156804573" lon="11.488744856257817"><ele>153.6</ele><time>2026-04-18T10:54:14Z</time></trkpt><trkpt lat="42.53004131165056" lon="11.488605842681263"><ele>153.2</ele><time>2026-04-18T10:54:15Z</time></trkpt><trkpt lat="42.53008062929665" lon="11.488454357933405"><ele>152.79999999999998</ele><time>2026-04-18T10:54:16Z</time></trkpt><trkpt lat="42.530101563597086" lon="11.488326599329849"><ele>152.4</ele><time>2026-04-18T10:54:17Z</time></trkpt><trkpt lat="42.53008747737463" lon="11.48820950626436"><ele>152.0</ele><time>2026-04-18T10:54:18Z</time></trkpt><trkpt lat="42.53002658013327" lon="11.488120186370073"><ele>152.0</ele><time>2026-04-18T10:54:19Z</time></trkpt><trkpt lat="42.52994466861586" lon="11.488045597444215"><ele>152.0</ele><time>2026-04-18T10:54:20Z</time></trkpt><trkpt lat="42.52988209672103" lon="11.487937625743953"><ele>152.0</ele><time>2026-04-18T10:54:21Z</time></trkpt><trkpt lat="42.52981900113699" lon="11.487811914182311"><ele>152.0</ele><time>2026-04-18T10:54:22Z</time></trkpt><trkpt lat="42.52977787179363" lon="11.48770123031736"><ele>152.0</ele><time>2026-04-18T10:54:23Z</time></trkpt><trkpt lat="42.52975328047659" lon="11.487579698854296"><ele>152.0</ele><time>2026-04-18T10:54:24Z</time></trkpt><trkpt lat="42.529750817701064" lon="11.48744115081598"><ele>152.0</ele><time>2026-04-18T10:54:25Z</time></trkpt><trkpt lat="42.52974309711589" lon="11.487282631752732"><ele>152.0</ele><time>2026-04-18T10:54:26Z</time></trkpt><trkpt lat="42.529708366711226" lon="11.4871056734533"><ele>152.0</ele><time>2026-04-18T10:54:27Z</time></trkpt><trkpt lat="42.52966225922549" lon="11.486924390273906"><ele>151.75</ele><time>2026-04-18T10:54:28Z</time></trkpt><trkpt lat="42.529624188010665" lon="11.486744899929759"><ele>151.5</ele><time>2026-04-18T10:54:29Z</time></trkpt><trkpt lat="42.52961134596551" lon="11.486571420456336"><ele>151.25</ele><time>2026-04-18T10:54:30.001Z</time></trkpt><trkpt lat="42.52961586624359" lon="11.486410564777307"><ele>151.0</ele><time>2026-04-18T10:54:31.001Z</time></trkpt><trkpt lat="42.52961782309374" lon="11.48626071847223"><ele>150.2</ele><time>2026-04-18T10:54:32.001Z</time></trkpt><trkpt lat="42.52959661069643" lon="11.486122548450963"><ele>149.39999999999998</ele><time>2026-04-18T10:54:33.001Z</time></trkpt><trkpt lat="42.52960800083819" lon="11.48600248308777"><ele>148.6</ele><time>2026-04-18T10:54:34.001Z</time></trkpt><trkpt lat="42.52961144607916" lon="11.485851525698525"><ele>147.79999999999998</ele><time>2026-04-18T10:54:35.001Z</time></trkpt><trkpt lat="42.52965629646622" lon="11.485703035591216"><ele>147.0</ele><time>2026-04-18T10:54:36.001Z</time></trkpt><trkpt lat="42.52969693582009" lon="11.485578592717728"><ele>147.0</ele><time>2026-04-18T10:54:37.001Z</time></trkpt><trkpt lat="42.52972781255097" lon="11.485462656039218"><ele>147.0</ele><time>2026-04-18T10:54:38.001Z</time></trkpt><trkpt lat="42.529759341146026" lon="11.485355755550968"><ele>147.0</ele><time>2026-04-18T10:54:39.001Z</time></trkpt><trkpt lat="42.52977866569473" lon="11.485177528171045"><ele>147.0</ele><time>2026-04-18T10:54:41.001Z</time></trkpt><trkpt lat="42.52977468388876" lon="11.485080099532276"><ele>147.0</ele><time>2026-04-18T10:54:42.001Z</time></trkpt><trkpt lat="42.529749316018005" lon="11.484972516527678"><ele>147.2</ele><time>2026-04-18T10:54:43.001Z</time></trkpt><trkpt lat="42.5296880446875" lon="11.484855677524163"><ele>147.39999999999998</ele><time>2026-04-18T10:54:44.001Z</time></trkpt><trkpt lat="42.529622364248915" lon="11.484740529520256"><ele>147.60000000000002</ele><time>2026-04-18T10:54:45Z</time></trkpt><trkpt lat="42.52956665793439" lon="11.484624866599173"><ele>147.8</ele><time>2026-04-18T10:54:46Z</time></trkpt><trkpt lat="42.52951929674122" lon="11.484520207671753"><ele>148.0</ele><time>2026-04-18T10:54:47Z</time></trkpt><trkpt lat="42.52948137773547" lon="11.48442105857079"><ele>148.16666666666669</ele><time>2026-04-18T10:54:48Z</time></trkpt><trkpt lat="42.52944095856995" lon="11.484339092495391"><ele>148.33333333333334</ele><time>2026-04-18T10:54:49Z</time></trkpt><trkpt lat="42.52939959883519" lon="11.484272628335395"><ele>148.5</ele><time>2026-04-18T10:54:50Z</time></trkpt><trkpt lat="42.52936274951967" lon="11.484195247810002"><ele>148.66666666666666</ele><time>2026-04-18T10:54:51Z</time></trkpt><trkpt lat="42.52930801755453" lon="11.484064849419676"><ele>148.83333333333331</ele><time>2026-04-18T10:54:53Z</time></trkpt><trkpt lat="42.5292503978005" lon="11.483956180293443"><ele>149.0</ele><time>2026-04-18T10:54:55Z</time></trkpt><trkpt lat="42.52920732182726" lon="11.483840267386153"><ele>149.75</ele><time>2026-04-18T10:54:57Z</time></trkpt><trkpt lat="42.52912660228058" lon="11.483732198820503"><ele>150.5</ele><time>2026-04-18T10:54:59Z</time></trkpt><trkpt lat="42.52902417946894" lon="11.483648109514995"><ele>151.25</ele><time>2026-04-18T10:55:01Z</time></trkpt><trkpt lat="42.52891982985127" lon="11.48357628230937"><ele>152.0</ele><time>2026-04-18T10:55:03Z</time></trkpt><trkpt lat="42.52879319978312" lon="11.483515919809083"><ele>154.33333333333331</ele><time>2026-04-18T10:55:05Z</time></trkpt><trkpt lat="42.5287220164453" lon="11.483492900541153"><ele>156.66666666666666</ele><time>2026-04-18T10:55:06Z</time></trkpt><trkpt lat="42.52865916698704" lon="11.483464289015506"><ele>159.0</ele><time>2026-04-18T10:55:07Z</time></trkpt><trkpt lat="42.52858836987731" lon="11.483413674107865"><ele>161.33333333333334</ele><time>2026-04-18T10:55:08Z</time></trkpt><trkpt lat="42.52850699241379" lon="11.483395796843448"><ele>163.66666666666669</ele><time>2026-04-18T10:55:09Z</time></trkpt><trkpt lat="42.52842380400898" lon="11.483364613867488"><ele>166.0</ele><time>2026-04-18T10:55:10Z</time></trkpt><trkpt lat="42.52832954195803" lon="11.483328687916647"><ele>166.0</ele><time>2026-04-18T10:55:11Z</time></trkpt><trkpt lat="42.52824186134768" lon="11.483298199985938"><ele>166.0</ele><time>2026-04-18T10:55:12Z</time></trkpt><trkpt lat="42.52815103733837" lon="11.483271150884901"><ele>166.0</ele><time>2026-04-18T10:55:13Z</time></trkpt><trkpt lat="42.52805651969768" lon="11.483244692799943"><ele>166.0</ele><time>2026-04-18T10:55:14Z</time></trkpt><trkpt lat="42.52797159527262" lon="11.483225089329801"><ele>166.0</ele><time>2026-04-18T10:55:15Z</time></trkpt><trkpt lat="42.52790388074401" lon="11.483179300084755"><ele>166.0</ele><time>2026-04-18T10:55:16Z</time></trkpt><trkpt lat="42.52782884458316" lon="11.483146013288092"><ele>167.83333333333334</ele><time>2026-04-18T10:55:17Z</time></trkpt><trkpt lat="42.52774837546086" lon="11.483101347184256"><ele>169.66666666666669</ele><time>2026-04-18T10:55:18Z</time></trkpt><trkpt lat="42.527668751033005" lon="11.483048030095235"><ele>171.5</ele><time>2026-04-18T10:55:19Z</time></trkpt><trkpt lat="42.52759758461599" lon="11.482999160781535"><ele>173.33333333333334</ele><time>2026-04-18T10:55:20Z</time></trkpt><trkpt lat="42.52752175490183" lon="11.482942568900675"><ele>175.16666666666666</ele><time>2026-04-18T10:55:21Z</time></trkpt><trkpt lat="42.52744593943479" lon="11.482880191146782"><ele>177.0</ele><time>2026-04-18T10:55:22Z</time></trkpt><trkpt lat="42.527362655361365" lon="11.482828490787062"><ele>178.2</ele><time>2026-04-18T10:55:23Z</time></trkpt><trkpt lat="42.52729945536852" lon="11.482740302041314"><ele>179.39999999999998</ele><time>2026-04-18T10:55:24Z</time></trkpt><trkpt lat="42.527211080822084" lon="11.482665612711083"><ele>180.60000000000002</ele><time>2026-04-18T10:55:25Z</time></trkpt><trkpt lat="42.527144197417975" lon="11.48256649660932"><ele>181.8</ele><time>2026-04-18T10:55:26Z</time></trkpt><trkpt lat="42.52708531605939" lon="11.482453884870553"><ele>183.0</ele><time>2026-04-18T10:55:27Z</time></trkpt><trkpt lat="42.52704257983011" lon="11.4823351964902"><ele>185.2</ele><time>2026-04-18T10:55:28Z</time></trkpt><trkpt lat="42.52699726826539" lon="11.482213273370009"><ele>187.4</ele><time>2026-04-18T10:55:29Z</time></trkpt><trkpt lat="42.52694123589608" lon="11.482074897585445"><ele>189.6</ele><time>2026-04-18T10:55:30Z</time></trkpt><trkpt lat="42.5268860477777" lon="11.481943154152084"><ele>191.79999999999998</ele><time>2026-04-18T10:55:31Z</time></trkpt><trkpt lat="42.526837280263706" lon="11.481824015880285"><ele>194.0</ele><time>2026-04-18T10:55:32Z</time></trkpt><trkpt lat="42.52679422007589" lon="11.481679434160304"><ele>196.5</ele><time>2026-04-18T10:55:33Z</time></trkpt><trkpt lat="42.52674575694479" lon="11.481526633619046"><ele>199.0</ele><time>2026-04-18T10:55:34Z</time></trkpt><trkpt lat="42.52670568140589" lon="11.481362710496885"><ele>201.5</ele><time>2026-04-18T10:55:35Z</time></trkpt><trkpt lat="42.52667869277483" lon="11.48117616348698"><ele>204.0</ele><time>2026-04-18T10:55:36Z</time></trkpt><trkpt lat="42.526633632904186" lon="11.480981508344042"><ele>205.75</ele><time>2026-04-18T10:55:37Z</time></trkpt><trkpt lat="42.52659125171416" lon="11.480810294615253"><ele>207.5</ele><time>2026-04-18T10:55:38Z</time></trkpt><trkpt lat="42.526535786558895" lon="11.480671053488054"><ele>209.25</ele><time>2026-04-18T10:55:39Z</time></trkpt><trkpt lat="42.526480825311516" lon="11.480550242168798"><ele>211.0</ele><time>2026-04-18T10:55:40Z</time></trkpt><trkpt lat="42.52643321034302" lon="11.480432650821138"><ele>212.0</ele><time>2026-04-18T10:55:41Z</time></trkpt><trkpt lat="42.52639694202568" lon="11.480286627337705"><ele>213.0</ele><time>2026-04-18T10:55:42Z</time></trkpt><trkpt lat="42.52635574374914" lon="11.48014965449689"><ele>214.00000000000003</ele><time>2026-04-18T10:55:43Z</time></trkpt><trkpt lat="42.526306085329026" lon="11.480018388791466"><ele>215.0</ele><time>2026-04-18T10:55:44Z</time></trkpt><trkpt lat="42.52627329338284" lon="11.479880165610254"><ele>216.0</ele><time>2026-04-18T10:55:45Z</time></trkpt><trkpt lat="42.526233721411344" lon="11.479750835690217"><ele>216.20000000000002</ele><time>2026-04-18T10:55:46Z</time></trkpt><trkpt lat="42.526162097966164" lon="11.479623560608012"><ele>216.40000000000003</ele><time>2026-04-18T10:55:47Z</time></trkpt><trkpt lat="42.526087100178984" lon="11.479500168168117"><ele>216.6</ele><time>2026-04-18T10:55:48Z</time></trkpt><trkpt lat="42.526032619592534" lon="11.479392887431937"><ele>216.8</ele><time>2026-04-18T10:55:49Z</time></trkpt><trkpt lat="42.52601898998813" lon="11.47924870286816"><ele>217.0</ele><time>2026-04-18T10:55:50Z</time></trkpt><trkpt lat="42.526012721305456" lon="11.479114287322169"><ele>217.0</ele><time>2026-04-18T10:55:51Z</time></trkpt><trkpt lat="42.52601165354708" lon="11.478980223723124"><ele>217.0</ele><time>2026-04-18T10:55:52Z</time></trkpt><trkpt lat="42.526005079390245" lon="11.478830320688369"><ele>217.0</ele><time>2026-04-18T10:55:53Z</time></trkpt><trkpt lat="42.52601954593356" lon="11.47869733087131"><ele>217.0</ele><time>2026-04-18T10:55:54Z</time></trkpt><trkpt lat="42.52602248083711" lon="11.478589343758816"><ele>217.0</ele><time>2026-04-18T10:55:55Z</time></trkpt><trkpt lat="42.5260047738625" lon="11.47848562687279"><ele>219.2</ele><time>2026-04-18T10:55:56Z</time></trkpt><trkpt lat="42.52589541010806" lon="11.478376451061669"><ele>221.39999999999998</ele><time>2026-04-18T10:55:58Z</time></trkpt><trkpt lat="42.525824378685805" lon="11.47830521009365"><ele>223.60000000000002</ele><time>2026-04-18T10:55:59Z</time></trkpt><trkpt lat="42.52572554580905" lon="11.478236856581956"><ele>225.8</ele><time>2026-04-18T10:56:00Z</time></trkpt><trkpt lat="42.52562896246743" lon="11.47816355939664"><ele>228.0</ele><time>2026-04-18T10:56:01Z</time></trkpt><trkpt lat="42.52553926540557" lon="11.47811040520955"><ele>228.0</ele><time>2026-04-18T10:56:02Z</time></trkpt><trkpt lat="42.52548281706811" lon="11.478046203481622"><ele>228.0</ele><time>2026-04-18T10:56:03Z</time></trkpt><trkpt lat="42.52544325038708" lon="11.47788265135984"><ele>228.0</ele><time>2026-04-18T10:56:05Z</time></trkpt><trkpt lat="42.525467472242106" lon="11.477769328812627"><ele>228.0</ele><time>2026-04-18T10:56:06Z</time></trkpt><trkpt lat="42.52547951195281" lon="11.477650800270945"><ele>228.0</ele><time>2026-04-18T10:56:07Z</time></trkpt><trkpt lat="42.525481731559545" lon="11.47751156348913"><ele>228.25</ele><time>2026-04-18T10:56:08Z</time></trkpt><trkpt lat="42.52549541675588" lon="11.477358712367074"><ele>228.5</ele><time>2026-04-18T10:56:09Z</time></trkpt><trkpt lat="42.52550569637942" lon="11.47720507586781"><ele>228.75</ele><time>2026-04-18T10:56:10Z</time></trkpt><trkpt lat="42.52551385277813" lon="11.477046566373694"><ele>229.0</ele><time>2026-04-18T10:56:11Z</time></trkpt><trkpt lat="42.525525396603406" lon="11.476879965399283"><ele>229.0</ele><time>2026-04-18T10:56:12Z</time></trkpt><trkpt lat="42.52553559050499" lon="11.47672527849935"><ele>228.99999999999997</ele><time>2026-04-18T10:56:13Z</time></trkpt><trkpt lat="42.52554239805545" lon="11.476594016534786"><ele>228.99999999999997</ele><time>2026-04-18T10:56:14Z</time></trkpt><trkpt lat="42.52552236476928" lon="11.476466606986186"><ele>229.0</ele><time>2026-04-18T10:56:15Z</time></trkpt><trkpt lat="42.52548475668052" lon="11.47633961898228"><ele>229.0</ele><time>2026-04-18T10:56:16Z</time></trkpt><trkpt lat="42.52542792109777" lon="11.47621233364213"><ele>226.75</ele><time>2026-04-18T10:56:17Z</time></trkpt><trkpt lat="42.52536697666109" lon="11.476083747266815"><ele>224.5</ele><time>2026-04-18T10:56:18Z</time></trkpt><trkpt lat="42.52530829419115" lon="11.475951711637148"><ele>222.25</ele><time>2026-04-18T10:56:19Z</time></trkpt><trkpt lat="42.525243730523904" lon="11.4758283123866"><ele>220.0</ele><time>2026-04-18T10:56:20Z</time></trkpt><trkpt lat="42.52516198393735" lon="11.47571621488508"><ele>220.0</ele><time>2026-04-18T10:56:21Z</time></trkpt><trkpt lat="42.52507401983582" lon="11.475606507076064"><ele>220.0</ele><time>2026-04-18T10:56:22Z</time></trkpt><trkpt lat="42.52498320685644" lon="11.475504885303728"><ele>220.0</ele><time>2026-04-18T10:56:23Z</time></trkpt><trkpt lat="42.52490379218228" lon="11.475382191663988"><ele>220.0</ele><time>2026-04-18T10:56:24Z</time></trkpt><trkpt lat="42.52480862888786" lon="11.475285772438793"><ele>221.5</ele><time>2026-04-18T10:56:25Z</time></trkpt><trkpt lat="42.524722209634305" lon="11.475174274247337"><ele>223.0</ele><time>2026-04-18T10:56:26Z</time></trkpt><trkpt lat="42.52464324625862" lon="11.475082542733565"><ele>224.5</ele><time>2026-04-18T10:56:27Z</time></trkpt><trkpt lat="42.52455829522235" lon="11.474978557150852"><ele>226.0</ele><time>2026-04-18T10:56:28Z</time></trkpt><trkpt lat="42.52446050960686" lon="11.474885786002481"><ele>226.8</ele><time>2026-04-18T10:56:29Z</time></trkpt><trkpt lat="42.524349828904015" lon="11.474820756187539"><ele>227.60000000000002</ele><time>2026-04-18T10:56:30Z</time></trkpt><trkpt lat="42.524233871460844" lon="11.474773104214236"><ele>228.4</ele><time>2026-04-18T10:56:31Z</time></trkpt><trkpt lat="42.524132054024875" lon="11.474762214613026"><ele>229.2</ele><time>2026-04-18T10:56:32Z</time></trkpt><trkpt lat="42.52404056431873" lon="11.474753336365733"><ele>230.0</ele><time>2026-04-18T10:56:33Z</time></trkpt><trkpt lat="42.523955845649496" lon="11.47473231438568"><ele>230.0</ele><time>2026-04-18T10:56:34Z</time></trkpt><trkpt lat="42.52388411588373" lon="11.47470641862372"><ele>230.0</ele><time>2026-04-18T10:56:35Z</time></trkpt><trkpt lat="42.52377095857174" lon="11.474732548492295"><ele>230.0</ele><time>2026-04-18T10:56:37.001Z</time></trkpt><trkpt lat="42.523701179706656" lon="11.474774175317469"><ele>230.0</ele><time>2026-04-18T10:56:38.001Z</time></trkpt><trkpt lat="42.52361858449831" lon="11.474818578020326"><ele>230.0</ele><time>2026-04-18T10:56:39.001Z</time></trkpt><trkpt lat="42.52351907245433" lon="11.474837853134844"><ele>229.4</ele><time>2026-04-18T10:56:40.001Z</time></trkpt><trkpt lat="42.52342052069662" lon="11.474841082110132"><ele>228.8</ele><time>2026-04-18T10:56:41.001Z</time></trkpt><trkpt lat="42.523325891675235" lon="11.47483129281203"><ele>228.2</ele><time>2026-04-18T10:56:42.001Z</time></trkpt><trkpt lat="42.52322406760584" lon="11.474811043978999"><ele>227.6</ele><time>2026-04-18T10:56:43.001Z</time></trkpt><trkpt lat="42.52311909172503" lon="11.474792784539279"><ele>227.0</ele><time>2026-04-18T10:56:44.001Z</time></trkpt><trkpt lat="42.52302903491686" lon="11.474773053232914"><ele>227.00000000000003</ele><time>2026-04-18T10:56:45.001Z</time></trkpt><trkpt lat="42.522945982170384" lon="11.474759996767274"><ele>227.0</ele><time>2026-04-18T10:56:46.001Z</time></trkpt><trkpt lat="42.52285411172189" lon="11.47473810976251"><ele>227.0</ele><time>2026-04-18T10:56:47.001Z</time></trkpt><trkpt lat="42.52276524581035" lon="11.474682192734926"><ele>227.0</ele><time>2026-04-18T10:56:48.001Z</time></trkpt><trkpt lat="42.522685884014415" lon="11.474634519565102"><ele>227.00000000000003</ele><time>2026-04-18T10:56:49.001Z</time></trkpt><trkpt lat="42.52260330423556" lon="11.474594672778965"><ele>227.0</ele><time>2026-04-18T10:56:50.001Z</time></trkpt><trkpt lat="42.52251079464927" lon="11.474586457544797"><ele>225.0</ele><time>2026-04-18T10:56:51.001Z</time></trkpt><trkpt lat="42.522410175910835" lon="11.474601937460728"><ele>223.0</ele><time>2026-04-18T10:56:52Z</time></trkpt><trkpt lat="42.52227990377119" lon="11.474623377037751"><ele>221.0</ele><time>2026-04-18T10:56:53Z</time></trkpt><trkpt lat="42.522160196000826" lon="11.474634207554859"><ele>219.0</ele><time>2026-04-18T10:56:54Z</time></trkpt><trkpt lat="42.52204756079392" lon="11.474630298622511"><ele>217.25</ele><time>2026-04-18T10:56:55Z</time></trkpt><trkpt lat="42.521920070076376" lon="11.474634725345428"><ele>215.5</ele><time>2026-04-18T10:56:56Z</time></trkpt><trkpt lat="42.521794342691415" lon="11.474628022038036"><ele>213.75</ele><time>2026-04-18T10:56:57Z</time></trkpt><trkpt lat="42.52166576277819" lon="11.474619861824369"><ele>212.0</ele><time>2026-04-18T10:56:58Z</time></trkpt><trkpt lat="42.52154601044332" lon="11.474629568195635"><ele>212.0</ele><time>2026-04-18T10:56:59Z</time></trkpt><trkpt lat="42.52142138268783" lon="11.474621140294143"><ele>212.0</ele><time>2026-04-18T10:57:00Z</time></trkpt><trkpt lat="42.52130971618229" lon="11.474579689451724"><ele>212.0</ele><time>2026-04-18T10:57:01Z</time></trkpt><trkpt lat="42.521180924456175" lon="11.474576135549084"><ele>212.0</ele><time>2026-04-18T10:57:02Z</time></trkpt><trkpt lat="42.5210783605839" lon="11.474539091439146"><ele>208.2</ele><time>2026-04-18T10:57:03Z</time></trkpt><trkpt lat="42.5209885910086" lon="11.474526368818506"><ele>204.39999999999998</ele><time>2026-04-18T10:57:04Z</time></trkpt><trkpt lat="42.52091657386864" lon="11.474516120966477"><ele>200.60000000000002</ele><time>2026-04-18T10:57:05Z</time></trkpt><trkpt lat="42.52080896744124" lon="11.474444595089507"><ele>196.8</ele><time>2026-04-18T10:57:07Z</time></trkpt><trkpt lat="42.5207879218572" lon="11.474345705075056"><ele>193.0</ele><time>2026-04-18T10:57:08Z</time></trkpt><trkpt lat="42.520736480012296" lon="11.474238796744052"><ele>193.0</ele><time>2026-04-18T10:57:09Z</time></trkpt><trkpt lat="42.52068998307219" lon="11.474103440512618"><ele>193.0</ele><time>2026-04-18T10:57:10Z</time></trkpt><trkpt lat="42.52062932678066" lon="11.474003818048967"><ele>193.0</ele><time>2026-04-18T10:57:11Z</time></trkpt><trkpt lat="42.520549801160016" lon="11.47391390073466"><ele>193.0</ele><time>2026-04-18T10:57:12Z</time></trkpt><trkpt lat="42.5204577559262" lon="11.473840095186175"><ele>193.0</ele><time>2026-04-18T10:57:13Z</time></trkpt><trkpt lat="42.520359329664686" lon="11.4737879334275"><ele>191.4</ele><time>2026-04-18T10:57:14Z</time></trkpt><trkpt lat="42.52028433872554" lon="11.473769187733154"><ele>189.8</ele><time>2026-04-18T10:57:15Z</time></trkpt><trkpt lat="42.520212560959216" lon="11.47378489196802"><ele>188.2</ele><time>2026-04-18T10:57:16Z</time></trkpt><trkpt lat="42.52011389405614" lon="11.473818719155021"><ele>186.6</ele><time>2026-04-18T10:57:17Z</time></trkpt><trkpt lat="42.5200031542237" lon="11.47385562539234"><ele>185.0</ele><time>2026-04-18T10:57:18Z</time></trkpt><trkpt lat="42.51987223326951" lon="11.473888669282758"><ele>185.0</ele><time>2026-04-18T10:57:19Z</time></trkpt><trkpt lat="42.51974175497908" lon="11.473928747851895"><ele>185.0</ele><time>2026-04-18T10:57:20Z</time></trkpt><trkpt lat="42.519594748770096" lon="11.473966032488526"><ele>185.0</ele><time>2026-04-18T10:57:21Z</time></trkpt><trkpt lat="42.519474727495336" lon="11.474041012676231"><ele>185.0</ele><time>2026-04-18T10:57:22Z</time></trkpt><trkpt lat="42.519374907595925" lon="11.474101597322207"><ele>183.8</ele><time>2026-04-18T10:57:23Z</time></trkpt><trkpt lat="42.51928509991602" lon="11.474161002609724"><ele>182.6</ele><time>2026-04-18T10:57:24Z</time></trkpt><trkpt lat="42.519217783960826" lon="11.474197900289564"><ele>181.39999999999998</ele><time>2026-04-18T10:57:25Z</time></trkpt><trkpt lat="42.519098156781446" lon="11.474171113255691"><ele>180.2</ele><time>2026-04-18T10:57:27Z</time></trkpt><trkpt lat="42.51901662232108" lon="11.474126756655876"><ele>179.0</ele><time>2026-04-18T10:57:28Z</time></trkpt><trkpt lat="42.51890807265495" lon="11.474081994935986"><ele>179.0</ele><time>2026-04-18T10:57:29Z</time></trkpt><trkpt lat="42.51880168271572" lon="11.474041636930968"><ele>179.0</ele><time>2026-04-18T10:57:30Z</time></trkpt><trkpt lat="42.518707674927605" lon="11.473976292895252"><ele>179.0</ele><time>2026-04-18T10:57:31Z</time></trkpt><trkpt lat="42.518619137499364" lon="11.473945062463056"><ele>179.0</ele><time>2026-04-18T10:57:32Z</time></trkpt><trkpt lat="42.51852365858695" lon="11.473934190914969"><ele>179.0</ele><time>2026-04-18T10:57:33Z</time></trkpt><trkpt lat="42.51842986451344" lon="11.473894905597618"><ele>178.83333333333331</ele><time>2026-04-18T10:57:34Z</time></trkpt><trkpt lat="42.518320726475885" lon="11.473868455061124"><ele>178.66666666666666</ele><time>2026-04-18T10:57:35Z</time></trkpt><trkpt lat="42.518235427697334" lon="11.473818133787262"><ele>178.5</ele><time>2026-04-18T10:57:36Z</time></trkpt><trkpt lat="42.51815541356545" lon="11.473801743012832"><ele>178.33333333333334</ele><time>2026-04-18T10:57:37Z</time></trkpt><trkpt lat="42.51808751469647" lon="11.473793412053569"><ele>178.16666666666669</ele><time>2026-04-18T10:57:38Z</time></trkpt><trkpt lat="42.518025013700054" lon="11.473816753889293"><ele>178.0</ele><time>2026-04-18T10:57:39Z</time></trkpt><trkpt lat="42.51796082847718" lon="11.473841058398953"><ele>175.4</ele><time>2026-04-18T10:57:40Z</time></trkpt><trkpt lat="42.5178860670085" lon="11.473897132038502"><ele>172.8</ele><time>2026-04-18T10:57:41Z</time></trkpt><trkpt lat="42.51778652167309" lon="11.473971066210218"><ele>170.2</ele><time>2026-04-18T10:57:42Z</time></trkpt><trkpt lat="42.51770060412094" lon="11.474043320126848"><ele>167.6</ele><time>2026-04-18T10:57:43Z</time></trkpt><trkpt lat="42.51764865945196" lon="11.474091988291198"><ele>165.0</ele><time>2026-04-18T10:57:44Z</time></trkpt><trkpt lat="42.51762942331399" lon="11.474233231953013"><ele>165.0</ele><time>2026-04-18T10:57:46Z</time></trkpt><trkpt lat="42.51760895784407" lon="11.474316861377433"><ele>165.0</ele><time>2026-04-18T10:57:47Z</time></trkpt><trkpt lat="42.51753013821121" lon="11.474474572511859"><ele>165.0</ele><time>2026-04-18T10:57:49Z</time></trkpt><trkpt lat="42.51746741315414" lon="11.474574002086099"><ele>165.0</ele><time>2026-04-18T10:57:50Z</time></trkpt><trkpt lat="42.51740524198642" lon="11.474681053122417"><ele>165.0</ele><time>2026-04-18T10:57:51Z</time></trkpt><trkpt lat="42.5173402067472" lon="11.474800751529406"><ele>165.0</ele><time>2026-04-18T10:57:52Z</time></trkpt><trkpt lat="42.51727319505826" lon="11.474921578323558"><ele>165.0</ele><time>2026-04-18T10:57:53Z</time></trkpt><trkpt lat="42.517212366231405" lon="11.475021081958658"><ele>165.0</ele><time>2026-04-18T10:57:54Z</time></trkpt><trkpt lat="42.517138737323194" lon="11.475088129414928"><ele>165.0</ele><time>2026-04-18T10:57:55Z</time></trkpt><trkpt lat="42.5170727792102" lon="11.47514707659039"><ele>165.0</ele><time>2026-04-18T10:57:56Z</time></trkpt><trkpt lat="42.51701311534432" lon="11.47518238623292"><ele>165.0</ele><time>2026-04-18T10:57:57Z</time></trkpt><trkpt lat="42.51692857062643" lon="11.475147709673003"><ele>162.4</ele><time>2026-04-18T10:57:59Z</time></trkpt><trkpt lat="42.51686120276872" lon="11.475112580488005"><ele>159.8</ele><time>2026-04-18T10:58:00Z</time></trkpt><trkpt lat="42.51677848527767" lon="11.475030260219684"><ele>157.2</ele><time>2026-04-18T10:58:01Z</time></trkpt><trkpt lat="42.51668513286419" lon="11.47493811763146"><ele>154.6</ele><time>2026-04-18T10:58:02Z</time></trkpt><trkpt lat="42.51659684062845" lon="11.474872152468679"><ele>152.0</ele><time>2026-04-18T10:58:03Z</time></trkpt><trkpt lat="42.5165079484543" lon="11.47483294825231"><ele>152.0</ele><time>2026-04-18T10:58:04Z</time></trkpt><trkpt lat="42.516415577379455" lon="11.474796498289935"><ele>152.0</ele><time>2026-04-18T10:58:05Z</time></trkpt><trkpt lat="42.51631780886162" lon="11.47475698327295"><ele>152.0</ele><time>2026-04-18T10:58:06Z</time></trkpt><trkpt lat="42.51621133364266" lon="11.474722232453201"><ele>152.0</ele><time>2026-04-18T10:58:07Z</time></trkpt><trkpt lat="42.51609113611118" lon="11.474708195123812"><ele>152.0</ele><time>2026-04-18T10:58:08Z</time></trkpt><trkpt lat="42.51596405396217" lon="11.474711430142696"><ele>149.4</ele><time>2026-04-18T10:58:09Z</time></trkpt><trkpt lat="42.51583333157801" lon="11.474696118941864"><ele>146.79999999999998</ele><time>2026-04-18T10:58:10Z</time></trkpt><trkpt lat="42.51572318448384" lon="11.47471895702417"><ele>144.2</ele><time>2026-04-18T10:58:11Z</time></trkpt><trkpt lat="42.51564382132724" lon="11.474707800566703"><ele>141.6</ele><time>2026-04-18T10:58:12Z</time></trkpt><trkpt lat="42.51554042007218" lon="11.474698292577475"><ele>139.0</ele><time>2026-04-18T10:58:13Z</time></trkpt><trkpt lat="42.51539890308211" lon="11.474694857088185"><ele>138.8</ele><time>2026-04-18T10:58:14Z</time></trkpt><trkpt lat="42.51529058594452" lon="11.474682205580761"><ele>138.60000000000002</ele><time>2026-04-18T10:58:15Z</time></trkpt><trkpt lat="42.515190180660134" lon="11.474654162956467"><ele>138.4</ele><time>2026-04-18T10:58:16Z</time></trkpt><trkpt lat="42.51511300669743" lon="11.474566029966745"><ele>138.20000000000002</ele><time>2026-04-18T10:58:17Z</time></trkpt><trkpt lat="42.51500925588019" lon="11.47448753577772"><ele>138.0</ele><time>2026-04-18T10:58:18Z</time></trkpt><trkpt lat="42.514907688623495" lon="11.474422543582083"><ele>138.0</ele><time>2026-04-18T10:58:19Z</time></trkpt><trkpt lat="42.51482321336803" lon="11.474348478351523"><ele>138.0</ele><time>2026-04-18T10:58:20Z</time></trkpt><trkpt lat="42.51476259979649" lon="11.474249114897054"><ele>138.0</ele><time>2026-04-18T10:58:21Z</time></trkpt><trkpt lat="42.51469201189928" lon="11.474153147420601"><ele>138.0</ele><time>2026-04-18T10:58:22Z</time></trkpt><trkpt lat="42.5146286712866" lon="11.47404773105586"><ele>138.0</ele><time>2026-04-18T10:58:23Z</time></trkpt><trkpt lat="42.51457182746303" lon="11.473923384580342"><ele>134.0</ele><time>2026-04-18T10:58:24Z</time></trkpt><trkpt lat="42.51449935108674" lon="11.47376564135037"><ele>130.0</ele><time>2026-04-18T10:58:25Z</time></trkpt><trkpt lat="42.51441245222826" lon="11.473615176707384"><ele>126.0</ele><time>2026-04-18T10:58:26Z</time></trkpt><trkpt lat="42.51433759357234" lon="11.473500143752332"><ele>122.0</ele><time>2026-04-18T10:58:27Z</time></trkpt><trkpt lat="42.51425699951811" lon="11.473385455397288"><ele>122.0</ele><time>2026-04-18T10:58:28Z</time></trkpt><trkpt lat="42.51417758700074" lon="11.473277736465741"><ele>122.0</ele><time>2026-04-18T10:58:29Z</time></trkpt><trkpt lat="42.51408064861247" lon="11.473159328191477"><ele>122.0</ele><time>2026-04-18T10:58:30Z</time></trkpt><trkpt lat="42.51398907452415" lon="11.473051332702878"><ele>122.0</ele><time>2026-04-18T10:58:31Z</time></trkpt><trkpt lat="42.51389399437356" lon="11.472944326554153"><ele>121.39999999999999</ele><time>2026-04-18T10:58:32Z</time></trkpt><trkpt lat="42.513809889186234" lon="11.472856239008129"><ele>120.79999999999998</ele><time>2026-04-18T10:58:33Z</time></trkpt><trkpt lat="42.51374650378119" lon="11.472791329494996"><ele>120.2</ele><time>2026-04-18T10:58:34Z</time></trkpt><trkpt lat="42.51368196518261" lon="11.472716882061947"><ele>119.6</ele><time>2026-04-18T10:58:35Z</time></trkpt><trkpt lat="42.51356773892523" lon="11.472644755280415"><ele>119.0</ele><time>2026-04-18T10:58:37Z</time></trkpt><trkpt lat="42.5135017186604" lon="11.472649525658284"><ele>116.66666666666666</ele><time>2026-04-18T10:58:38Z</time></trkpt><trkpt lat="42.51342746154194" lon="11.472649432961829"><ele>114.33333333333333</ele><time>2026-04-18T10:58:39Z</time></trkpt><trkpt lat="42.513352642803454" lon="11.472644797458637"><ele>112.0</ele><time>2026-04-18T10:58:40Z</time></trkpt><trkpt lat="42.51326470275215" lon="11.47256614450431"><ele>109.66666666666666</ele><time>2026-04-18T10:58:42.001Z</time></trkpt><trkpt lat="42.51328619096029" lon="11.472462666068731"><ele>107.33333333333333</ele><time>2026-04-18T10:58:44.001Z</time></trkpt><trkpt lat="42.513313717676525" lon="11.472373017102234"><ele>105.0</ele><time>2026-04-18T10:58:45.001Z</time></trkpt><trkpt lat="42.513335117623306" lon="11.472249947247594"><ele>105.0</ele><time>2026-04-18T10:58:46.001Z</time></trkpt><trkpt lat="42.513401212416916" lon="11.472129357175913"><ele>105.0</ele><time>2026-04-18T10:58:47.001Z</time></trkpt><trkpt lat="42.51344456194115" lon="11.471974896210344"><ele>105.0</ele><time>2026-04-18T10:58:48.001Z</time></trkpt><trkpt lat="42.513436817183326" lon="11.471834031876046"><ele>105.0</ele><time>2026-04-18T10:58:49.001Z</time></trkpt><trkpt lat="42.51337913186536" lon="11.471738905815707"><ele>105.0</ele><time>2026-04-18T10:58:50.001Z</time></trkpt><trkpt lat="42.51333474033609" lon="11.4716412613916"><ele>104.33333333333333</ele><time>2026-04-18T10:58:51.001Z</time></trkpt><trkpt lat="42.51327902670624" lon="11.47154235099579"><ele>103.66666666666666</ele><time>2026-04-18T10:58:52.001Z</time></trkpt><trkpt lat="42.51323412389451" lon="11.471431063826914"><ele>103.0</ele><time>2026-04-18T10:58:53.001Z</time></trkpt><trkpt lat="42.51320547546246" lon="11.47129286908459"><ele>102.33333333333333</ele><time>2026-04-18T10:58:54.001Z</time></trkpt><trkpt lat="42.513201519895674" lon="11.471164344343183"><ele>101.66666666666666</ele><time>2026-04-18T10:58:55.001Z</time></trkpt><trkpt lat="42.513196807290385" lon="11.471078755934908"><ele>101.0</ele><time>2026-04-18T10:58:56.001Z</time></trkpt><trkpt lat="42.51318731776541" lon="11.47094861330805"><ele>100.8</ele><time>2026-04-18T10:58:58.001Z</time></trkpt><trkpt lat="42.513138675315105" lon="11.470743101936149"><ele>100.6</ele><time>2026-04-18T10:58:59.001Z</time></trkpt><trkpt lat="42.51308690938626" lon="11.47064367266994"><ele>100.4</ele><time>2026-04-18T10:59:00.001Z</time></trkpt><trkpt lat="42.5130258553296" lon="11.470538439160599"><ele>100.2</ele><time>2026-04-18T10:59:01.001Z</time></trkpt><trkpt lat="42.5129733376255" lon="11.47042462563673"><ele>100.0</ele><time>2026-04-18T10:59:02Z</time></trkpt><trkpt lat="42.512918132554034" lon="11.470303531608888"><ele>102.0</ele><time>2026-04-18T10:59:03Z</time></trkpt><trkpt lat="42.51286578776305" lon="11.47018519632954"><ele>104.0</ele><time>2026-04-18T10:59:04Z</time></trkpt><trkpt lat="42.51281396177788" lon="11.470056900825575"><ele>106.0</ele><time>2026-04-18T10:59:05Z</time></trkpt><trkpt lat="42.51276515767513" lon="11.469917851351067"><ele>108.0</ele><time>2026-04-18T10:59:06Z</time></trkpt><trkpt lat="42.51270291763826" lon="11.469787319903077"><ele>110.0</ele><time>2026-04-18T10:59:07Z</time></trkpt><trkpt lat="42.512654873803896" lon="11.469651384033948"><ele>109.8</ele><time>2026-04-18T10:59:08Z</time></trkpt><trkpt lat="42.51260466130979" lon="11.469546953897634"><ele>109.6</ele><time>2026-04-18T10:59:09Z</time></trkpt><trkpt lat="42.51256378894231" lon="11.469454332053777"><ele>109.4</ele><time>2026-04-18T10:59:10Z</time></trkpt><trkpt lat="42.51257616021147" lon="11.469285529279547"><ele>109.2</ele><time>2026-04-18T10:59:12Z</time></trkpt><trkpt lat="42.51258826910203" lon="11.469160557154062"><ele>109.0</ele><time>2026-04-18T10:59:13Z</time></trkpt><trkpt lat="42.5126016571034" lon="11.469025683251706"><ele>109.0</ele><time>2026-04-18T10:59:14Z</time></trkpt><trkpt lat="42.51260355389761" lon="11.468863402118048"><ele>109.0</ele><time>2026-04-18T10:59:15Z</time></trkpt><trkpt lat="42.51259612503509" lon="11.468709880305617"><ele>109.0</ele><time>2026-04-18T10:59:16Z</time></trkpt><trkpt lat="42.512584983294715" lon="11.468532155014659"><ele>109.0</ele><time>2026-04-18T10:59:17Z</time></trkpt><trkpt lat="42.51257338850097" lon="11.468356516434056"><ele>110.0</ele><time>2026-04-18T10:59:18Z</time></trkpt><trkpt lat="42.51255888318891" lon="11.468176883629635"><ele>111.0</ele><time>2026-04-18T10:59:19Z</time></trkpt><trkpt lat="42.51253745767585" lon="11.468010392273015"><ele>112.0</ele><time>2026-04-18T10:59:20Z</time></trkpt><trkpt lat="42.512505004945076" lon="11.467850984458993"><ele>113.0</ele><time>2026-04-18T10:59:21Z</time></trkpt><trkpt lat="42.51244062348687" lon="11.467702826097607"><ele>113.0</ele><time>2026-04-18T10:59:22Z</time></trkpt><trkpt lat="42.51238976208974" lon="11.467566300433816"><ele>113.00000000000001</ele><time>2026-04-18T10:59:23Z</time></trkpt><trkpt lat="42.51232293003377" lon="11.467458221690734"><ele>113.00000000000001</ele><time>2026-04-18T10:59:24Z</time></trkpt><trkpt lat="42.51226656386754" lon="11.467334141812431"><ele>113.0</ele><time>2026-04-18T10:59:25Z</time></trkpt><trkpt lat="42.512185503956225" lon="11.467208071193049"><ele>113.0</ele><time>2026-04-18T10:59:26Z</time></trkpt><trkpt lat="42.51209728435826" lon="11.467081811350463"><ele>115.25</ele><time>2026-04-18T10:59:27Z</time></trkpt><trkpt lat="42.512064224992315" lon="11.466907811709453"><ele>117.5</ele><time>2026-04-18T10:59:28Z</time></trkpt><trkpt lat="42.512004197784506" lon="11.466731633680558"><ele>119.75</ele><time>2026-04-18T10:59:29Z</time></trkpt><trkpt lat="42.51192143844519" lon="11.466588948562658"><ele>122.0</ele><time>2026-04-18T10:59:30Z</time></trkpt><trkpt lat="42.51186346839828" lon="11.466467807679185"><ele>122.0</ele><time>2026-04-18T10:59:31Z</time></trkpt><trkpt lat="42.51179449314439" lon="11.466367620841014"><ele>121.99999999999999</ele><time>2026-04-18T10:59:32Z</time></trkpt><trkpt lat="42.511719106798324" lon="11.466296960031581"><ele>121.99999999999999</ele><time>2026-04-18T10:59:33Z</time></trkpt><trkpt lat="42.51163850046577" lon="11.46627444125934"><ele>122.0</ele><time>2026-04-18T10:59:34Z</time></trkpt><trkpt lat="42.51155262920735" lon="11.466285872982636"><ele>122.0</ele><time>2026-04-18T10:59:35Z</time></trkpt><trkpt lat="42.51145737341301" lon="11.466321699888846"><ele>122.0</ele><time>2026-04-18T10:59:36Z</time></trkpt><trkpt lat="42.511375211064085" lon="11.46635251553006"><ele>121.99999999999999</ele><time>2026-04-18T10:59:37Z</time></trkpt><trkpt lat="42.51128802142841" lon="11.466404562559983"><ele>121.99999999999999</ele><time>2026-04-18T10:59:38Z</time></trkpt><trkpt lat="42.511186768169615" lon="11.466436101926497"><ele>122.0</ele><time>2026-04-18T10:59:39Z</time></trkpt><trkpt lat="42.5110720809585" lon="11.466437721054664"><ele>122.0</ele><time>2026-04-18T10:59:40Z</time></trkpt><trkpt lat="42.51097097598614" lon="11.466436483919209"><ele>122.33333333333333</ele><time>2026-04-18T10:59:41Z</time></trkpt><trkpt lat="42.51088816473798" lon="11.4664088127873"><ele>122.66666666666666</ele><time>2026-04-18T10:59:42Z</time></trkpt><trkpt lat="42.51082459906297" lon="11.466351079162237"><ele>123.0</ele><time>2026-04-18T10:59:43Z</time></trkpt><trkpt lat="42.51079437408609" lon="11.466264679702078"><ele>123.33333333333334</ele><time>2026-04-18T10:59:44Z</time></trkpt><trkpt lat="42.51074458487258" lon="11.466159785085242"><ele>123.66666666666667</ele><time>2026-04-18T10:59:45Z</time></trkpt><trkpt lat="42.51068698592101" lon="11.466043901433231"><ele>124.0</ele><time>2026-04-18T10:59:46Z</time></trkpt><trkpt lat="42.51061395033983" lon="11.465929603200887"><ele>124.0</ele><time>2026-04-18T10:59:47Z</time></trkpt><trkpt lat="42.51056014111393" lon="11.46578178583684"><ele>124.0</ele><time>2026-04-18T10:59:48Z</time></trkpt><trkpt lat="42.51047710233131" lon="11.465658525072632"><ele>124.0</ele><time>2026-04-18T10:59:49Z</time></trkpt><trkpt lat="42.510397604510125" lon="11.465518175933251"><ele>124.0</ele><time>2026-04-18T10:59:50Z</time></trkpt><trkpt lat="42.51031124918689" lon="11.465382593658454"><ele>127.0</ele><time>2026-04-18T10:59:51Z</time></trkpt><trkpt lat="42.51021320757934" lon="11.465251915070988"><ele>130.0</ele><time>2026-04-18T10:59:52Z</time></trkpt><trkpt lat="42.51012664940476" lon="11.46511330663837"><ele>133.0</ele><time>2026-04-18T10:59:53Z</time></trkpt><trkpt lat="42.51006308862473" lon="11.464947855473076"><ele>136.0</ele><time>2026-04-18T10:59:54Z</time></trkpt><trkpt lat="42.51000938279323" lon="11.464786319045048"><ele>135.5</ele><time>2026-04-18T10:59:55Z</time></trkpt><trkpt lat="42.50995625909346" lon="11.46461220868552"><ele>135.0</ele><time>2026-04-18T10:59:56Z</time></trkpt><trkpt lat="42.50988928749026" lon="11.464466109172402"><ele>134.5</ele><time>2026-04-18T10:59:57Z</time></trkpt><trkpt lat="42.5098234024641" lon="11.464328542708024"><ele>134.0</ele><time>2026-04-18T10:59:58Z</time></trkpt><trkpt lat="42.50975803117697" lon="11.464208915924957"><ele>134.0</ele><time>2026-04-18T10:59:59Z</time></trkpt><trkpt lat="42.50966845616169" lon="11.464142795598889"><ele>134.0</ele><time>2026-04-18T11:00:00Z</time></trkpt><trkpt lat="42.50959047508927" lon="11.464066297643232"><ele>134.0</ele><time>2026-04-18T11:00:01Z</time></trkpt><trkpt lat="42.50951840113836" lon="11.463964326590098"><ele>134.0</ele><time>2026-04-18T11:00:02Z</time></trkpt><trkpt lat="42.50943832283116" lon="11.463830763401171"><ele>134.0</ele><time>2026-04-18T11:00:03Z</time></trkpt><trkpt lat="42.50934047949527" lon="11.463685379635402"><ele>133.33333333333331</ele><time>2026-04-18T11:00:04Z</time></trkpt><trkpt lat="42.50924908591115" lon="11.463521782857391"><ele>132.66666666666666</ele><time>2026-04-18T11:00:05Z</time></trkpt><trkpt lat="42.509155881687846" lon="11.463370207603786"><ele>132.0</ele><time>2026-04-18T11:00:06Z</time></trkpt><trkpt lat="42.50907204188418" lon="11.463188336848004"><ele>132.0</ele><time>2026-04-18T11:00:07Z</time></trkpt><trkpt lat="42.50898854797548" lon="11.463038940798283"><ele>132.0</ele><time>2026-04-18T11:00:08Z</time></trkpt><trkpt lat="42.5089222460886" lon="11.462896780489675"><ele>132.0</ele><time>2026-04-18T11:00:09Z</time></trkpt><trkpt lat="42.50887177578219" lon="11.462747706277256"><ele>132.0</ele><time>2026-04-18T11:00:10Z</time></trkpt><trkpt lat="42.50883010673156" lon="11.462601134310486"><ele>132.2</ele><time>2026-04-18T11:00:11Z</time></trkpt><trkpt lat="42.508794004244585" lon="11.462484512831617"><ele>132.39999999999998</ele><time>2026-04-18T11:00:12Z</time></trkpt><trkpt lat="42.50875716554443" lon="11.462379309567192"><ele>132.60000000000002</ele><time>2026-04-18T11:00:13Z</time></trkpt><trkpt lat="42.508726049877765" lon="11.462272658765174"><ele>132.8</ele><time>2026-04-18T11:00:14Z</time></trkpt><trkpt lat="42.50868084346726" lon="11.462169681349794"><ele>133.0</ele><time>2026-04-18T11:00:15Z</time></trkpt><trkpt lat="42.50861161479382" lon="11.46204681653814"><ele>133.0</ele><time>2026-04-18T11:00:16Z</time></trkpt><trkpt lat="42.50853956417142" lon="11.461944781207423"><ele>133.0</ele><time>2026-04-18T11:00:17Z</time></trkpt><trkpt lat="42.50849470085924" lon="11.461807199373164"><ele>133.0</ele><time>2026-04-18T11:00:18Z</time></trkpt><trkpt lat="42.508442091745096" lon="11.46166411875598"><ele>133.0</ele><time>2026-04-18T11:00:19Z</time></trkpt><trkpt lat="42.50839085126807" lon="11.46151684532741"><ele>133.0</ele><time>2026-04-18T11:00:20Z</time></trkpt><trkpt lat="42.50834066132222" lon="11.461373379072974"><ele>133.0</ele><time>2026-04-18T11:00:21Z</time></trkpt><trkpt lat="42.5082815584433" lon="11.461263325637079"><ele>133.0</ele><time>2026-04-18T11:00:22Z</time></trkpt><trkpt lat="42.50825047572423" lon="11.461135166802727"><ele>133.0</ele><time>2026-04-18T11:00:23Z</time></trkpt><trkpt lat="42.50819889693661" lon="11.461010475585914"><ele>133.0</ele><time>2026-04-18T11:00:24Z</time></trkpt><trkpt lat="42.50812471693315" lon="11.460899282243195"><ele>133.75</ele><time>2026-04-18T11:00:25Z</time></trkpt><trkpt lat="42.50803593668268" lon="11.460784017033792"><ele>134.5</ele><time>2026-04-18T11:00:26Z</time></trkpt><trkpt lat="42.507952764723974" lon="11.46065178036025"><ele>135.25</ele><time>2026-04-18T11:00:27Z</time></trkpt><trkpt lat="42.50785585087513" lon="11.460533697062932"><ele>136.0</ele><time>2026-04-18T11:00:28Z</time></trkpt><trkpt lat="42.507773411234744" lon="11.460436813994157"><ele>133.0</ele><time>2026-04-18T11:00:29Z</time></trkpt><trkpt lat="42.50768542680945" lon="11.460361044617313"><ele>130.0</ele><time>2026-04-18T11:00:30Z</time></trkpt><trkpt lat="42.50762079526131" lon="11.46024577100248"><ele>127.0</ele><time>2026-04-18T11:00:31Z</time></trkpt><trkpt lat="42.50755242123778" lon="11.460136262409915"><ele>124.0</ele><time>2026-04-18T11:00:32Z</time></trkpt><trkpt lat="42.50749887329807" lon="11.46003224995984"><ele>121.0</ele><time>2026-04-18T11:00:33Z</time></trkpt><trkpt lat="42.50745060464246" lon="11.459913513453905"><ele>121.0</ele><time>2026-04-18T11:00:34Z</time></trkpt><trkpt lat="42.50741431071491" lon="11.45978887210296"><ele>121.0</ele><time>2026-04-18T11:00:35Z</time></trkpt><trkpt lat="42.50738483563166" lon="11.45965104932948"><ele>121.0</ele><time>2026-04-18T11:00:36Z</time></trkpt><trkpt lat="42.50735803428635" lon="11.459507570029292"><ele>121.0</ele><time>2026-04-18T11:00:37Z</time></trkpt><trkpt lat="42.50733290406931" lon="11.459370141984099"><ele>121.0</ele><time>2026-04-18T11:00:38Z</time></trkpt><trkpt lat="42.50730670413069" lon="11.459213885901884"><ele>120.6</ele><time>2026-04-18T11:00:39Z</time></trkpt><trkpt lat="42.507295576435425" lon="11.45905397980482"><ele>120.19999999999999</ele><time>2026-04-18T11:00:40Z</time></trkpt><trkpt lat="42.507318142081" lon="11.45892249704228"><ele>119.80000000000001</ele><time>2026-04-18T11:00:41Z</time></trkpt><trkpt lat="42.50734955793445" lon="11.458815306536119"><ele>119.4</ele><time>2026-04-18T11:00:42Z</time></trkpt><trkpt lat="42.50737810284716" lon="11.458726679300657"><ele>119.0</ele><time>2026-04-18T11:00:43Z</time></trkpt><trkpt lat="42.507422492423814" lon="11.458631813080144"><ele>118.2</ele><time>2026-04-18T11:00:44Z</time></trkpt><trkpt lat="42.50747057896211" lon="11.458505040798126"><ele>117.4</ele><time>2026-04-18T11:00:45Z</time></trkpt><trkpt lat="42.50753098098431" lon="11.458383297385582"><ele>116.6</ele><time>2026-04-18T11:00:46Z</time></trkpt><trkpt lat="42.50757662317874" lon="11.458253602799031"><ele>115.8</ele><time>2026-04-18T11:00:47Z</time></trkpt><trkpt lat="42.507591503642324" lon="11.458125026674338"><ele>115.0</ele><time>2026-04-18T11:00:48.001Z</time></trkpt><trkpt lat="42.50758408872188" lon="11.457982737474202"><ele>114.6</ele><time>2026-04-18T11:00:49.001Z</time></trkpt><trkpt lat="42.50760508390211" lon="11.457831196290632"><ele>114.2</ele><time>2026-04-18T11:00:50.001Z</time></trkpt><trkpt lat="42.50760795315477" lon="11.457701125000275"><ele>113.80000000000001</ele><time>2026-04-18T11:00:51.001Z</time></trkpt><trkpt lat="42.50761001082872" lon="11.457579024765195"><ele>113.4</ele><time>2026-04-18T11:00:52.001Z</time></trkpt><trkpt lat="42.507613757170176" lon="11.457376495030076"><ele>113.0</ele><time>2026-04-18T11:00:53.001Z</time></trkpt><trkpt lat="42.50762011104747" lon="11.457194917554277"><ele>112.25</ele><time>2026-04-18T11:00:54.001Z</time></trkpt><trkpt lat="42.50762886330368" lon="11.45702293921443"><ele>111.5</ele><time>2026-04-18T11:00:55.001Z</time></trkpt><trkpt lat="42.50763808277292" lon="11.456852016509222"><ele>110.75</ele><time>2026-04-18T11:00:56.001Z</time></trkpt><trkpt lat="42.50762870832524" lon="11.456690942632214"><ele>110.0</ele><time>2026-04-18T11:00:57.001Z</time></trkpt><trkpt lat="42.507641830122274" lon="11.456523469244217"><ele>110.0</ele><time>2026-04-18T11:00:58.001Z</time></trkpt><trkpt lat="42.507633392283424" lon="11.456346599720625"><ele>110.0</ele><time>2026-04-18T11:00:59.001Z</time></trkpt><trkpt lat="42.50763428981178" lon="11.456167006031283"><ele>110.0</ele><time>2026-04-18T11:01:00.001Z</time></trkpt><trkpt lat="42.507628070622346" lon="11.455994803193681"><ele>110.0</ele><time>2026-04-18T11:01:01.001Z</time></trkpt><trkpt lat="42.507630723683434" lon="11.45583690618231"><ele>109.99999999999999</ele><time>2026-04-18T11:01:02.001Z</time></trkpt><trkpt lat="42.507662070831955" lon="11.455697511948589"><ele>110.0</ele><time>2026-04-18T11:01:03.001Z</time></trkpt><trkpt lat="42.507685099889265" lon="11.455573365364717"><ele>110.0</ele><time>2026-04-18T11:01:04.001Z</time></trkpt><trkpt lat="42.507693147905336" lon="11.455470535544627"><ele>110.0</ele><time>2026-04-18T11:01:05.001Z</time></trkpt><trkpt lat="42.50772658069607" lon="11.455395374736243"><ele>109.99999999999999</ele><time>2026-04-18T11:01:06.001Z</time></trkpt><trkpt lat="42.50777828674819" lon="11.455304830090137"><ele>110.0</ele><time>2026-04-18T11:01:09Z</time></trkpt><trkpt lat="42.50787941587149" lon="11.455251478421879"><ele>109.66666666666666</ele><time>2026-04-18T11:01:11Z</time></trkpt><trkpt lat="42.50795401415291" lon="11.45520690101303"><ele>109.33333333333333</ele><time>2026-04-18T11:01:12Z</time></trkpt><trkpt lat="42.50802481585761" lon="11.45514618775752"><ele>109.0</ele><time>2026-04-18T11:01:13Z</time></trkpt><trkpt lat="42.508101207818775" lon="11.455097294401146"><ele>108.66666666666666</ele><time>2026-04-18T11:01:14Z</time></trkpt><trkpt lat="42.508187669969516" lon="11.455058250598858"><ele>108.33333333333333</ele><time>2026-04-18T11:01:15Z</time></trkpt><trkpt lat="42.508276524220705" lon="11.455000610759859"><ele>108.0</ele><time>2026-04-18T11:01:16Z</time></trkpt><trkpt lat="42.50837300363045" lon="11.454938026218258"><ele>108.0</ele><time>2026-04-18T11:01:17Z</time></trkpt><trkpt lat="42.508487662056886" lon="11.454862774578489"><ele>108.0</ele><time>2026-04-18T11:01:18Z</time></trkpt><trkpt lat="42.508591487824354" lon="11.454769856863042"><ele>108.0</ele><time>2026-04-18T11:01:19Z</time></trkpt><trkpt lat="42.50871488043438" lon="11.454696533385508"><ele>108.0</ele><time>2026-04-18T11:01:20Z</time></trkpt><trkpt lat="42.508833556562934" lon="11.454616806058969"><ele>107.25</ele><time>2026-04-18T11:01:21Z</time></trkpt><trkpt lat="42.50895619332735" lon="11.454531945893189"><ele>106.5</ele><time>2026-04-18T11:01:22Z</time></trkpt><trkpt lat="42.50909310588809" lon="11.454465239917019"><ele>105.75</ele><time>2026-04-18T11:01:23Z</time></trkpt><trkpt lat="42.509219482345266" lon="11.454360343172663"><ele>105.0</ele><time>2026-04-18T11:01:24Z</time></trkpt><trkpt lat="42.509353599212304" lon="11.454272461597117"><ele>105.0</ele><time>2026-04-18T11:01:25Z</time></trkpt><trkpt lat="42.50949677088194" lon="11.454180067389897"><ele>105.0</ele><time>2026-04-18T11:01:26Z</time></trkpt><trkpt lat="42.50963983948498" lon="11.454083193074188"><ele>105.0</ele><time>2026-04-18T11:01:27Z</time></trkpt><trkpt lat="42.50978037400577" lon="11.453987959776923"><ele>104.0</ele><time>2026-04-18T11:01:28Z</time></trkpt><trkpt lat="42.5099204100596" lon="11.453892282052122"><ele>103.0</ele><time>2026-04-18T11:01:29Z</time></trkpt><trkpt lat="42.510054949070096" lon="11.453803961680423"><ele>102.0</ele><time>2026-04-18T11:01:30Z</time></trkpt><trkpt lat="42.51019616267056" lon="11.453712878271624"><ele>102.33333333333334</ele><time>2026-04-18T11:01:31Z</time></trkpt><trkpt lat="42.510336631504586" lon="11.453620014537888"><ele>102.66666666666667</ele><time>2026-04-18T11:01:32Z</time></trkpt><trkpt lat="42.51047759823669" lon="11.45352391505025"><ele>103.0</ele><time>2026-04-18T11:01:33Z</time></trkpt><trkpt lat="42.51062075109376" lon="11.453419869101264"><ele>103.0</ele><time>2026-04-18T11:01:34Z</time></trkpt><trkpt lat="42.51075762372589" lon="11.453307997631006"><ele>103.0</ele><time>2026-04-18T11:01:35Z</time></trkpt><trkpt lat="42.510894691819686" lon="11.453171638184722"><ele>103.0</ele><time>2026-04-18T11:01:36Z</time></trkpt><trkpt lat="42.511012999367914" lon="11.453016091860109"><ele>102.66666666666667</ele><time>2026-04-18T11:01:37Z</time></trkpt><trkpt lat="42.51111785677854" lon="11.452830390551695"><ele>102.33333333333334</ele><time>2026-04-18T11:01:38Z</time></trkpt><trkpt lat="42.51121966917263" lon="11.452644104114977"><ele>102.0</ele><time>2026-04-18T11:01:39Z</time></trkpt><trkpt lat="42.511328815783806" lon="11.452465246728238"><ele>101.33333333333334</ele><time>2026-04-18T11:01:40Z</time></trkpt><trkpt lat="42.51143968354586" lon="11.452282775694012"><ele>100.66666666666667</ele><time>2026-04-18T11:01:41Z</time></trkpt><trkpt lat="42.51155003211161" lon="11.452094331701892"><ele>100.0</ele><time>2026-04-18T11:01:42Z</time></trkpt><trkpt lat="42.51165760116269" lon="11.451910570009842"><ele>100.0</ele><time>2026-04-18T11:01:43Z</time></trkpt><trkpt lat="42.51176820362752" lon="11.451721245435586"><ele>100.0</ele><time>2026-04-18T11:01:44Z</time></trkpt><trkpt lat="42.51187538394993" lon="11.451537051189119"><ele>100.0</ele><time>2026-04-18T11:01:45Z</time></trkpt><trkpt lat="42.511999018752505" lon="11.45136361841671"><ele>99.33333333333334</ele><time>2026-04-18T11:01:46Z</time></trkpt><trkpt lat="42.51209502108951" lon="11.45116747517269"><ele>98.66666666666666</ele><time>2026-04-18T11:01:47Z</time></trkpt><trkpt lat="42.512223588775335" lon="11.450983267104077"><ele>98.0</ele><time>2026-04-18T11:01:48Z</time></trkpt><trkpt lat="42.51233562096847" lon="11.450794211799364"><ele>98.0</ele><time>2026-04-18T11:01:49Z</time></trkpt><trkpt lat="42.512442391052964" lon="11.450614497649497"><ele>98.0</ele><time>2026-04-18T11:01:50Z</time></trkpt><trkpt lat="42.51254530068356" lon="11.45044128133522"><ele>98.0</ele><time>2026-04-18T11:01:51Z</time></trkpt><trkpt lat="42.51264174586711" lon="11.450258266823274"><ele>98.33333333333333</ele><time>2026-04-18T11:01:52Z</time></trkpt><trkpt lat="42.51275252937218" lon="11.45007585915791"><ele>98.66666666666666</ele><time>2026-04-18T11:01:53Z</time></trkpt><trkpt lat="42.51285976778519" lon="11.449891048277015"><ele>99.0</ele><time>2026-04-18T11:01:54Z</time></trkpt><trkpt lat="42.512969064020524" lon="11.449700515266816"><ele>98.0</ele><time>2026-04-18T11:01:55Z</time></trkpt><trkpt lat="42.51308164450074" lon="11.449510662272743"><ele>97.0</ele><time>2026-04-18T11:01:56Z</time></trkpt><trkpt lat="42.513194015787015" lon="11.44931733396851"><ele>96.0</ele><time>2026-04-18T11:01:57Z</time></trkpt><trkpt lat="42.513300333053884" lon="11.449131147258077"><ele>96.0</ele><time>2026-04-18T11:01:58Z</time></trkpt><trkpt lat="42.51342686479989" lon="11.448952964813307"><ele>96.0</ele><time>2026-04-18T11:01:59Z</time></trkpt><trkpt lat="42.51352578449595" lon="11.44875057817657"><ele>96.0</ele><time>2026-04-18T11:02:00Z</time></trkpt><trkpt lat="42.5136418385517" lon="11.448565091741418"><ele>94.33333333333333</ele><time>2026-04-18T11:02:01Z</time></trkpt><trkpt lat="42.51375867841651" lon="11.448373463011205"><ele>92.66666666666666</ele><time>2026-04-18T11:02:02Z</time></trkpt><trkpt lat="42.51386788859938" lon="11.448182835091968"><ele>91.0</ele><time>2026-04-18T11:02:03Z</time></trkpt><trkpt lat="42.51398517192356" lon="11.447983342890126"><ele>91.66666666666666</ele><time>2026-04-18T11:02:04Z</time></trkpt><trkpt lat="42.51410014602533" lon="11.44779854873356"><ele>92.33333333333333</ele><time>2026-04-18T11:02:05Z</time></trkpt><trkpt lat="42.514221325436985" lon="11.447601454032162"><ele>93.0</ele><time>2026-04-18T11:02:06Z</time></trkpt><trkpt lat="42.51432926899631" lon="11.44741537706411"><ele>93.0</ele><time>2026-04-18T11:02:07Z</time></trkpt><trkpt lat="42.514440701428555" lon="11.447208380825057"><ele>93.0</ele><time>2026-04-18T11:02:08Z</time></trkpt><trkpt lat="42.514552800770886" lon="11.44702555556062"><ele>93.0</ele><time>2026-04-18T11:02:09Z</time></trkpt><trkpt lat="42.51465779523255" lon="11.44682699611032"><ele>93.33333333333333</ele><time>2026-04-18T11:02:10Z</time></trkpt><trkpt lat="42.514753565681715" lon="11.44662878148592"><ele>93.66666666666666</ele><time>2026-04-18T11:02:11Z</time></trkpt><trkpt lat="42.51485248229542" lon="11.446421605694928"><ele>94.0</ele><time>2026-04-18T11:02:12Z</time></trkpt><trkpt lat="42.51494113229626" lon="11.446202259457372"><ele>94.0</ele><time>2026-04-18T11:02:13Z</time></trkpt><trkpt lat="42.51502621248577" lon="11.445983460336098"><ele>94.0</ele><time>2026-04-18T11:02:14Z</time></trkpt><trkpt lat="42.51511638867672" lon="11.445750213243736"><ele>94.0</ele><time>2026-04-18T11:02:15Z</time></trkpt><trkpt lat="42.515206605728444" lon="11.44552118872347"><ele>94.66666666666666</ele><time>2026-04-18T11:02:16Z</time></trkpt><trkpt lat="42.51529330187265" lon="11.445283140829282"><ele>95.33333333333333</ele><time>2026-04-18T11:02:17Z</time></trkpt><trkpt lat="42.515380349561575" lon="11.445036633162474"><ele>96.0</ele><time>2026-04-18T11:02:18Z</time></trkpt><trkpt lat="42.515479961733845" lon="11.444817384193545"><ele>94.66666666666667</ele><time>2026-04-18T11:02:19Z</time></trkpt><trkpt lat="42.51556169949913" lon="11.444603769495854"><ele>93.33333333333334</ele><time>2026-04-18T11:02:20Z</time></trkpt><trkpt lat="42.51562276384248" lon="11.444402255330772"><ele>92.0</ele><time>2026-04-18T11:02:21Z</time></trkpt><trkpt lat="42.51570973965797" lon="11.444226745448661"><ele>92.0</ele><time>2026-04-18T11:02:22Z</time></trkpt><trkpt lat="42.51578316192178" lon="11.444040139021839"><ele>92.0</ele><time>2026-04-18T11:02:23Z</time></trkpt><trkpt lat="42.515844028209116" lon="11.443845599819428"><ele>92.0</ele><time>2026-04-18T11:02:24Z</time></trkpt><trkpt lat="42.51592100341707" lon="11.443654373067698"><ele>93.0</ele><time>2026-04-18T11:02:25Z</time></trkpt><trkpt lat="42.51600209805823" lon="11.443451888297087"><ele>94.0</ele><time>2026-04-18T11:02:26Z</time></trkpt><trkpt lat="42.51609157616879" lon="11.443253656415466"><ele>95.0</ele><time>2026-04-18T11:02:27Z</time></trkpt><trkpt lat="42.51615884906589" lon="11.443030226754939"><ele>95.0</ele><time>2026-04-18T11:02:28Z</time></trkpt><trkpt lat="42.516241472302966" lon="11.442818203141647"><ele>95.0</ele><time>2026-04-18T11:02:29Z</time></trkpt><trkpt lat="42.51631238346717" lon="11.442582565786552"><ele>95.0</ele><time>2026-04-18T11:02:30Z</time></trkpt><trkpt lat="42.51637301242247" lon="11.442346644850423"><ele>94.33333333333334</ele><time>2026-04-18T11:02:31Z</time></trkpt><trkpt lat="42.51642955795259" lon="11.442101376870918"><ele>93.66666666666667</ele><time>2026-04-18T11:02:32Z</time></trkpt><trkpt lat="42.516492393204366" lon="11.441867586575084"><ele>93.0</ele><time>2026-04-18T11:02:33Z</time></trkpt><trkpt lat="42.51655887691581" lon="11.441631980937965"><ele>93.0</ele><time>2026-04-18T11:02:34Z</time></trkpt><trkpt lat="42.516622559339" lon="11.441391233358138"><ele>93.0</ele><time>2026-04-18T11:02:35Z</time></trkpt><trkpt lat="42.51668706808271" lon="11.441145319096417"><ele>93.0</ele><time>2026-04-18T11:02:36Z</time></trkpt><trkpt lat="42.51674830560505" lon="11.440910532471106"><ele>93.0</ele><time>2026-04-18T11:02:37Z</time></trkpt><trkpt lat="42.516807084169585" lon="11.440676767682515"><ele>93.0</ele><time>2026-04-18T11:02:38Z</time></trkpt><trkpt lat="42.51686857750955" lon="11.440445178180441"><ele>93.0</ele><time>2026-04-18T11:02:39Z</time></trkpt><trkpt lat="42.51692875818722" lon="11.4402157602598"><ele>92.66666666666667</ele><time>2026-04-18T11:02:40Z</time></trkpt><trkpt lat="42.5169883634294" lon="11.439984120400746"><ele>92.33333333333334</ele><time>2026-04-18T11:02:41Z</time></trkpt><trkpt lat="42.517045810689886" lon="11.439747769090816"><ele>92.0</ele><time>2026-04-18T11:02:42Z</time></trkpt><trkpt lat="42.51710144106061" lon="11.43951399021377"><ele>92.66666666666667</ele><time>2026-04-18T11:02:43Z</time></trkpt><trkpt lat="42.51716446840328" lon="11.43927795949861"><ele>93.33333333333333</ele><time>2026-04-18T11:02:44Z</time></trkpt><trkpt lat="42.51722300586793" lon="11.439055935821955"><ele>94.0</ele><time>2026-04-18T11:02:45Z</time></trkpt><trkpt lat="42.51727528894661" lon="11.438848150338938"><ele>93.66666666666666</ele><time>2026-04-18T11:02:46Z</time></trkpt><trkpt lat="42.517330246064525" lon="11.438643703912987"><ele>93.33333333333333</ele><time>2026-04-18T11:02:47Z</time></trkpt><trkpt lat="42.51739202476236" lon="11.438459310829154"><ele>93.0</ele><time>2026-04-18T11:02:48Z</time></trkpt><trkpt lat="42.51746846888748" lon="11.43827033761843"><ele>93.0</ele><time>2026-04-18T11:02:49Z</time></trkpt><trkpt lat="42.51756875211097" lon="11.438111528040645"><ele>93.0</ele><time>2026-04-18T11:02:50Z</time></trkpt><trkpt lat="42.51765702177059" lon="11.437928282640645"><ele>93.0</ele><time>2026-04-18T11:02:51Z</time></trkpt><trkpt lat="42.51776030974396" lon="11.43776916854993"><ele>93.0</ele><time>2026-04-18T11:02:52Z</time></trkpt><trkpt lat="42.51786489895872" lon="11.437607258581776"><ele>93.0</ele><time>2026-04-18T11:02:53Z</time></trkpt><trkpt lat="42.517958853898435" lon="11.437453474754669"><ele>93.0</ele><time>2026-04-18T11:02:54Z</time></trkpt><trkpt lat="42.51803801952754" lon="11.437304976348477"><ele>93.0</ele><time>2026-04-18T11:02:55Z</time></trkpt><trkpt lat="42.51809228343031" lon="11.437169912895564"><ele>92.5</ele><time>2026-04-18T11:02:56Z</time></trkpt><trkpt lat="42.51811939525811" lon="11.436999714212265"><ele>92.0</ele><time>2026-04-18T11:02:57Z</time></trkpt><trkpt lat="42.51809985048697" lon="11.436845606885699"><ele>91.5</ele><time>2026-04-18T11:02:58Z</time></trkpt><trkpt lat="42.518057805147265" lon="11.436695654079168"><ele>91.0</ele><time>2026-04-18T11:02:59Z</time></trkpt><trkpt lat="42.51801746745821" lon="11.436543356070143"><ele>91.0</ele><time>2026-04-18T11:03:00Z</time></trkpt><trkpt lat="42.51797335260428" lon="11.436394827858955"><ele>91.0</ele><time>2026-04-18T11:03:01Z</time></trkpt><trkpt lat="42.517934931666275" lon="11.43625125723213"><ele>91.0</ele><time>2026-04-18T11:03:02Z</time></trkpt><trkpt lat="42.51790695542146" lon="11.436104887904254"><ele>91.0</ele><time>2026-04-18T11:03:03Z</time></trkpt><trkpt lat="42.51787240905952" lon="11.43597453331849"><ele>91.0</ele><time>2026-04-18T11:03:04Z</time></trkpt><trkpt lat="42.51783877345503" lon="11.435848319335163"><ele>90.66666666666666</ele><time>2026-04-18T11:03:05Z</time></trkpt><trkpt lat="42.517812332515994" lon="11.435725363178866"><ele>90.33333333333333</ele><time>2026-04-18T11:03:06Z</time></trkpt><trkpt lat="42.517787056086995" lon="11.435610230552294"><ele>90.0</ele><time>2026-04-18T11:03:07Z</time></trkpt><trkpt lat="42.51776390152075" lon="11.435500518021751"><ele>89.66666666666667</ele><time>2026-04-18T11:03:08Z</time></trkpt><trkpt lat="42.51774389162855" lon="11.435404682375308"><ele>89.33333333333334</ele><time>2026-04-18T11:03:09Z</time></trkpt><trkpt lat="42.51772338445058" lon="11.435316819307396"><ele>89.0</ele><time>2026-04-18T11:03:10Z</time></trkpt><trkpt lat="42.51768517918271" lon="11.43516969674178"><ele>88.5</ele><time>2026-04-18T11:03:12Z</time></trkpt><trkpt lat="42.51767433010097" lon="11.435063251690627"><ele>88.0</ele><time>2026-04-18T11:03:14Z</time></trkpt><trkpt lat="42.5176043872742" lon="11.435014746627498"><ele>87.5</ele><time>2026-04-18T11:03:17Z</time></trkpt><trkpt lat="42.51759082910753" lon="11.434877983888974"><ele>87.0</ele><time>2026-04-18T11:03:40Z</time></trkpt><trkpt lat="42.51758016053213" lon="11.434777329483214"><ele>86.5</ele><time>2026-04-18T11:03:42Z</time></trkpt><trkpt lat="42.517537994429695" lon="11.43470401056852"><ele>86.0</ele><time>2026-04-18T11:03:44Z</time></trkpt><trkpt lat="42.5174314196166" lon="11.434858752059574"><ele>86.0</ele><time>2026-04-18T11:03:45Z</time></trkpt><trkpt lat="42.51733286544211" lon="11.434876785660789"><ele>86.0</ele><time>2026-04-18T11:03:46Z</time></trkpt><trkpt lat="42.517223241860144" lon="11.434896844658265"><ele>86.0</ele><time>2026-04-18T11:03:47Z</time></trkpt><trkpt lat="42.51707515674535" lon="11.43463545244982"><ele>84.25</ele><time>2026-04-18T11:03:48Z</time></trkpt><trkpt lat="42.51693955803781" lon="11.43460848686627"><ele>82.5</ele><time>2026-04-18T11:03:49Z</time></trkpt><trkpt lat="42.51682337063164" lon="11.434581209049153"><ele>80.75</ele><time>2026-04-18T11:03:50Z</time></trkpt><trkpt lat="42.516692406304564" lon="11.434553156292745"><ele>79.0</ele><time>2026-04-18T11:03:51Z</time></trkpt><trkpt lat="42.51654160684632" lon="11.43451609121335"><ele>79.0</ele><time>2026-04-18T11:03:52Z</time></trkpt><trkpt lat="42.51638007111078" lon="11.434479993100782"><ele>79.0</ele><time>2026-04-18T11:03:53Z</time></trkpt><trkpt lat="42.51622775366259" lon="11.434446559535749"><ele>79.0</ele><time>2026-04-18T11:03:54Z</time></trkpt><trkpt lat="42.516076854210354" lon="11.434410758589667"><ele>77.33333333333333</ele><time>2026-04-18T11:03:55Z</time></trkpt><trkpt lat="42.51587384385432" lon="11.43435060493875"><ele>75.66666666666667</ele><time>2026-04-18T11:03:56Z</time></trkpt><trkpt lat="42.515692383263854" lon="11.434307255285368"><ele>74.0</ele><time>2026-04-18T11:03:57Z</time></trkpt><trkpt lat="42.515504184982504" lon="11.43425826069477"><ele>75.33333333333334</ele><time>2026-04-18T11:03:58Z</time></trkpt><trkpt lat="42.51531756101544" lon="11.434213440807945"><ele>76.66666666666667</ele><time>2026-04-18T11:03:59Z</time></trkpt><trkpt lat="42.51513343607218" lon="11.434172779036686"><ele>78.0</ele><time>2026-04-18T11:04:00Z</time></trkpt><trkpt lat="42.514951779290016" lon="11.43413574184794"><ele>78.0</ele><time>2026-04-18T11:04:01Z</time></trkpt><trkpt lat="42.51478184805236" lon="11.434099368783695"><ele>78.0</ele><time>2026-04-18T11:04:02Z</time></trkpt><trkpt lat="42.5146270402194" lon="11.434064335850367"><ele>78.0</ele><time>2026-04-18T11:04:03Z</time></trkpt><trkpt lat="42.514476455933156" lon="11.434025371605442"><ele>78.25</ele><time>2026-04-18T11:04:04Z</time></trkpt><trkpt lat="42.51433457376592" lon="11.43399635317105"><ele>78.5</ele><time>2026-04-18T11:04:05Z</time></trkpt><trkpt lat="42.51419238470542" lon="11.433981344654711"><ele>78.75</ele><time>2026-04-18T11:04:06Z</time></trkpt><trkpt lat="42.51404426327788" lon="11.433993868657064"><ele>79.0</ele><time>2026-04-18T11:04:07Z</time></trkpt><trkpt lat="42.513901234693414" lon="11.434037263729984"><ele>79.0</ele><time>2026-04-18T11:04:08Z</time></trkpt><trkpt lat="42.513764574901096" lon="11.434098321707031"><ele>79.0</ele><time>2026-04-18T11:04:09Z</time></trkpt><trkpt lat="42.51363437292951" lon="11.434176464592545"><ele>79.0</ele><time>2026-04-18T11:04:10Z</time></trkpt><trkpt lat="42.513503441068906" lon="11.4342690932306"><ele>79.0</ele><time>2026-04-18T11:04:11Z</time></trkpt><trkpt lat="42.51336873865989" lon="11.434371610712136"><ele>79.33333333333333</ele><time>2026-04-18T11:04:12Z</time></trkpt><trkpt lat="42.51323072233284" lon="11.434458292266553"><ele>79.66666666666667</ele><time>2026-04-18T11:04:13Z</time></trkpt><trkpt lat="42.5130841267566" lon="11.434544593547633"><ele>80.0</ele><time>2026-04-18T11:04:14Z</time></trkpt><trkpt lat="42.512940031522376" lon="11.434633308189795"><ele>80.0</ele><time>2026-04-18T11:04:15Z</time></trkpt><trkpt lat="42.51279405395149" lon="11.434721796317914"><ele>80.0</ele><time>2026-04-18T11:04:16Z</time></trkpt><trkpt lat="42.51264619243031" lon="11.43480578717723"><ele>80.0</ele><time>2026-04-18T11:04:17Z</time></trkpt><trkpt lat="42.512491987887174" lon="11.434906681858687"><ele>80.0</ele><time>2026-04-18T11:04:18Z</time></trkpt><trkpt lat="42.512341843244585" lon="11.434994463003596"><ele>80.0</ele><time>2026-04-18T11:04:19Z</time></trkpt><trkpt lat="42.512195949349035" lon="11.435085581169943"><ele>80.0</ele><time>2026-04-18T11:04:20Z</time></trkpt><trkpt lat="42.512037316111325" lon="11.43518080254224"><ele>79.33333333333334</ele><time>2026-04-18T11:04:21Z</time></trkpt><trkpt lat="42.51188586091531" lon="11.43527624358832"><ele>78.66666666666667</ele><time>2026-04-18T11:04:22Z</time></trkpt><trkpt lat="42.51172722539343" lon="11.435377076275246"><ele>78.0</ele><time>2026-04-18T11:04:23Z</time></trkpt><trkpt lat="42.511567154895104" lon="11.435456315822119"><ele>77.66666666666667</ele><time>2026-04-18T11:04:24Z</time></trkpt><trkpt lat="42.51141690344563" lon="11.435573108984888"><ele>77.33333333333334</ele><time>2026-04-18T11:04:25Z</time></trkpt><trkpt lat="42.51127091800729" lon="11.435661887346143"><ele>77.0</ele><time>2026-04-18T11:04:26Z</time></trkpt><trkpt lat="42.51114106759729" lon="11.43574217478187"><ele>77.6</ele><time>2026-04-18T11:04:27Z</time></trkpt><trkpt lat="42.51101959437925" lon="11.435823954659522"><ele>78.2</ele><time>2026-04-18T11:04:28Z</time></trkpt><trkpt lat="42.51091264943548" lon="11.435900639071727"><ele>78.8</ele><time>2026-04-18T11:04:29Z</time></trkpt><trkpt lat="42.51082672136905" lon="11.435959666712042"><ele>79.4</ele><time>2026-04-18T11:04:30Z</time></trkpt><trkpt lat="42.51076424436573" lon="11.435977604063453"><ele>80.0</ele><time>2026-04-18T11:04:31Z</time></trkpt><trkpt lat="42.51069294247299" lon="11.435877116245981"><ele>80.0</ele><time>2026-04-18T11:04:33Z</time></trkpt><trkpt lat="42.51073605532638" lon="11.435806187294434"><ele>80.0</ele><time>2026-04-18T11:04:34Z</time></trkpt><trkpt lat="42.5107764287357" lon="11.435722297446388"><ele>80.0</ele><time>2026-04-18T11:04:35Z</time></trkpt><trkpt lat="42.51082057996268" lon="11.435601783792038"><ele>80.0</ele><time>2026-04-18T11:04:36Z</time></trkpt><trkpt lat="42.51087955610583" lon="11.435469343529075"><ele>80.0</ele><time>2026-04-18T11:04:37Z</time></trkpt><trkpt lat="42.51093449019912" lon="11.435318336270543"><ele>79.0</ele><time>2026-04-18T11:04:38Z</time></trkpt><trkpt lat="42.51099003685528" lon="11.435162241714403"><ele>78.0</ele><time>2026-04-18T11:04:39Z</time></trkpt><trkpt lat="42.51104832836395" lon="11.435004730907197"><ele>77.0</ele><time>2026-04-18T11:04:40Z</time></trkpt><trkpt lat="42.51111636871617" lon="11.434830026428129"><ele>76.0</ele><time>2026-04-18T11:04:41Z</time></trkpt><trkpt lat="42.511179616549654" lon="11.434674625151843"><ele>77.5</ele><time>2026-04-18T11:04:42Z</time></trkpt><trkpt lat="42.51124488301236" lon="11.434500592789133"><ele>79.0</ele><time>2026-04-18T11:04:43Z</time></trkpt><trkpt lat="42.51130697403862" lon="11.434333831313932"><ele>80.5</ele><time>2026-04-18T11:04:44Z</time></trkpt><trkpt lat="42.511370940522085" lon="11.434152589160458"><ele>82.0</ele><time>2026-04-18T11:04:45Z</time></trkpt><trkpt lat="42.511433231268526" lon="11.433969854001903"><ele>81.0</ele><time>2026-04-18T11:04:46Z</time></trkpt><trkpt lat="42.51150118232277" lon="11.433788034958805"><ele>80.0</ele><time>2026-04-18T11:04:47Z</time></trkpt><trkpt lat="42.511572606557806" lon="11.433598476731566"><ele>79.0</ele><time>2026-04-18T11:04:48Z</time></trkpt><trkpt lat="42.511638240967315" lon="11.433404722052828"><ele>79.0</ele><time>2026-04-18T11:04:49Z</time></trkpt><trkpt lat="42.51170619258367" lon="11.433200274140443"><ele>79.0</ele><time>2026-04-18T11:04:50Z</time></trkpt><trkpt lat="42.51177289442146" lon="11.433009369677311"><ele>79.0</ele><time>2026-04-18T11:04:51Z</time></trkpt><trkpt lat="42.51183754349559" lon="11.432822915300228"><ele>78.66666666666666</ele><time>2026-04-18T11:04:52Z</time></trkpt><trkpt lat="42.511896700674846" lon="11.432641369958802"><ele>78.33333333333333</ele><time>2026-04-18T11:04:53Z</time></trkpt><trkpt lat="42.51195207828918" lon="11.43244582129353"><ele>78.0</ele><time>2026-04-18T11:04:54Z</time></trkpt><trkpt lat="42.51199976757361" lon="11.43223742745556"><ele>78.66666666666667</ele><time>2026-04-18T11:04:55Z</time></trkpt><trkpt lat="42.51203879672695" lon="11.432025419532527"><ele>79.33333333333334</ele><time>2026-04-18T11:04:56Z</time></trkpt><trkpt lat="42.512074736405985" lon="11.431806121719978"><ele>80.0</ele><time>2026-04-18T11:04:57Z</time></trkpt><trkpt lat="42.512116106782706" lon="11.431586128030496"><ele>78.0</ele><time>2026-04-18T11:04:58Z</time></trkpt><trkpt lat="42.512162896382804" lon="11.431373512746408"><ele>76.0</ele><time>2026-04-18T11:04:59Z</time></trkpt><trkpt lat="42.512214344924146" lon="11.431154216235182"><ele>74.0</ele><time>2026-04-18T11:05:00Z</time></trkpt><trkpt lat="42.5122687753739" lon="11.430930331266348"><ele>73.0</ele><time>2026-04-18T11:05:01Z</time></trkpt><trkpt lat="42.512320237087465" lon="11.430712729324785"><ele>72.0</ele><time>2026-04-18T11:05:02Z</time></trkpt><trkpt lat="42.51237426717651" lon="11.430480062767117"><ele>71.0</ele><time>2026-04-18T11:05:03Z</time></trkpt><trkpt lat="42.51241249974843" lon="11.43027744030961"><ele>70.0</ele><time>2026-04-18T11:05:04Z</time></trkpt><trkpt lat="42.51245238802533" lon="11.430062532143475"><ele>69.0</ele><time>2026-04-18T11:05:05Z</time></trkpt><trkpt lat="42.512492776235575" lon="11.429845989349719"><ele>68.0</ele><time>2026-04-18T11:05:06Z</time></trkpt><trkpt lat="42.51254160318251" lon="11.429621658149754"><ele>67.0</ele><time>2026-04-18T11:05:07Z</time></trkpt><trkpt lat="42.51258931492569" lon="11.429402014785634"><ele>66.0</ele><time>2026-04-18T11:05:08Z</time></trkpt><trkpt lat="42.51263314888229" lon="11.429203637495945"><ele>65.0</ele><time>2026-04-18T11:05:09Z</time></trkpt><trkpt lat="42.51267506372511" lon="11.429010143416487"><ele>65.0</ele><time>2026-04-18T11:05:10Z</time></trkpt><trkpt lat="42.512711778487045" lon="11.428848048549384"><ele>65.0</ele><time>2026-04-18T11:05:11Z</time></trkpt><trkpt lat="42.51273653311266" lon="11.42869317173215"><ele>65.0</ele><time>2026-04-18T11:05:12Z</time></trkpt><trkpt lat="42.512731442067455" lon="11.428558983564308"><ele>65.0</ele><time>2026-04-18T11:05:13Z</time></trkpt><trkpt lat="42.512685454058506" lon="11.428428155193505"><ele>65.0</ele><time>2026-04-18T11:05:14Z</time></trkpt><trkpt lat="42.51259749416319" lon="11.428308915387904"><ele>65.0</ele><time>2026-04-18T11:05:15Z</time></trkpt><trkpt lat="42.512491747730344" lon="11.428193012863936"><ele>65.0</ele><time>2026-04-18T11:05:16Z</time></trkpt><trkpt lat="42.512393713819016" lon="11.428072502191494"><ele>65.0</ele><time>2026-04-18T11:05:17Z</time></trkpt><trkpt lat="42.51231419254027" lon="11.427954194491647"><ele>65.0</ele><time>2026-04-18T11:05:18Z</time></trkpt><trkpt lat="42.51224651870856" lon="11.427853494961369"><ele>65.0</ele><time>2026-04-18T11:05:19Z</time></trkpt><trkpt lat="42.5122017695019" lon="11.427768687079508"><ele>65.0</ele><time>2026-04-18T11:05:20Z</time></trkpt><trkpt lat="42.51219495339487" lon="11.42764714839364"><ele>65.0</ele><time>2026-04-18T11:05:21Z</time></trkpt><trkpt lat="42.512248350316256" lon="11.427508818489686"><ele>65.0</ele><time>2026-04-18T11:05:22Z</time></trkpt><trkpt lat="42.512308907690816" lon="11.427392545520604"><ele>65.0</ele><time>2026-04-18T11:05:23Z</time></trkpt><trkpt lat="42.51239890494176" lon="11.427301695155322"><ele>65.0</ele><time>2026-04-18T11:05:24Z</time></trkpt><trkpt lat="42.51250553355898" lon="11.427210003536045"><ele>65.0</ele><time>2026-04-18T11:05:25Z</time></trkpt><trkpt lat="42.51261132030622" lon="11.427101522532194"><ele>65.0</ele><time>2026-04-18T11:05:26Z</time></trkpt><trkpt lat="42.51272516219422" lon="11.427005045160183"><ele>65.0</ele><time>2026-04-18T11:05:27Z</time></trkpt><trkpt lat="42.5128252331107" lon="11.42686896256626"><ele>64.66666666666667</ele><time>2026-04-18T11:05:28Z</time></trkpt><trkpt lat="42.512909140496866" lon="11.426696814243446"><ele>64.33333333333333</ele><time>2026-04-18T11:05:29Z</time></trkpt><trkpt lat="42.51298470803409" lon="11.426514329720288"><ele>64.0</ele><time>2026-04-18T11:05:30Z</time></trkpt><trkpt lat="42.513060951479176" lon="11.4263373255772"><ele>63.666666666666664</ele><time>2026-04-18T11:05:31Z</time></trkpt><trkpt lat="42.51313997407702" lon="11.426150735697918"><ele>63.33333333333333</ele><time>2026-04-18T11:05:32Z</time></trkpt><trkpt lat="42.51321847988943" lon="11.42596118745682"><ele>63.0</ele><time>2026-04-18T11:05:33Z</time></trkpt><trkpt lat="42.51332335295309" lon="11.425790104494917"><ele>63.0</ele><time>2026-04-18T11:05:34Z</time></trkpt><trkpt lat="42.51342461005884" lon="11.425618138769066"><ele>63.0</ele><time>2026-04-18T11:05:35Z</time></trkpt><trkpt lat="42.51353732340632" lon="11.425434956735478"><ele>63.0</ele><time>2026-04-18T11:05:36Z</time></trkpt><trkpt lat="42.513643354648096" lon="11.425264494203281"><ele>63.0</ele><time>2026-04-18T11:05:37Z</time></trkpt><trkpt lat="42.51375575105184" lon="11.425092243465024"><ele>63.0</ele><time>2026-04-18T11:05:38Z</time></trkpt><trkpt lat="42.513875085874744" lon="11.424928425699047"><ele>63.0</ele><time>2026-04-18T11:05:39Z</time></trkpt><trkpt lat="42.51401075736278" lon="11.42477056341013"><ele>63.66666666666667</ele><time>2026-04-18T11:05:40Z</time></trkpt><trkpt lat="42.51414681609214" lon="11.42463942404151"><ele>64.33333333333334</ele><time>2026-04-18T11:05:41Z</time></trkpt><trkpt lat="42.51427768227717" lon="11.424530922510595"><ele>65.0</ele><time>2026-04-18T11:05:42Z</time></trkpt><trkpt lat="42.51439475473027" lon="11.424424645323304"><ele>65.0</ele><time>2026-04-18T11:05:43Z</time></trkpt><trkpt lat="42.51450049320377" lon="11.424306965221422"><ele>65.0</ele><time>2026-04-18T11:05:44Z</time></trkpt><trkpt lat="42.51457808353037" lon="11.424123867656084"><ele>65.0</ele><time>2026-04-18T11:05:45Z</time></trkpt><trkpt lat="42.514656667180766" lon="11.42394804153912"><ele>65.0</ele><time>2026-04-18T11:05:46Z</time></trkpt><trkpt lat="42.51473299817833" lon="11.42376550677671"><ele>66.75</ele><time>2026-04-18T11:05:47Z</time></trkpt><trkpt lat="42.51481413973093" lon="11.423588172705635"><ele>68.5</ele><time>2026-04-18T11:05:48Z</time></trkpt><trkpt lat="42.51488074493039" lon="11.423420918997417"><ele>70.25</ele><time>2026-04-18T11:05:49Z</time></trkpt><trkpt lat="42.51493694424952" lon="11.42323812137548"><ele>72.0</ele><time>2026-04-18T11:05:50Z</time></trkpt><trkpt lat="42.51498664221866" lon="11.42305968459159"><ele>71.75</ele><time>2026-04-18T11:05:51Z</time></trkpt><trkpt lat="42.51504103398881" lon="11.422884307693964"><ele>71.5</ele><time>2026-04-18T11:05:52Z</time></trkpt><trkpt lat="42.51510804626979" lon="11.422711436432435"><ele>71.25</ele><time>2026-04-18T11:05:53Z</time></trkpt><trkpt lat="42.51518241135102" lon="11.422543844047336"><ele>71.0</ele><time>2026-04-18T11:05:54Z</time></trkpt><trkpt lat="42.51526695927003" lon="11.422373972638258"><ele>71.0</ele><time>2026-04-18T11:05:55Z</time></trkpt><trkpt lat="42.51537610035942" lon="11.422223961120025"><ele>71.0</ele><time>2026-04-18T11:05:56Z</time></trkpt><trkpt lat="42.51548174554693" lon="11.422070021106212"><ele>71.0</ele><time>2026-04-18T11:05:57Z</time></trkpt><trkpt lat="42.51558772634165" lon="11.421919997131171"><ele>72.25</ele><time>2026-04-18T11:05:58Z</time></trkpt><trkpt lat="42.51568265274634" lon="11.421761035788771"><ele>73.5</ele><time>2026-04-18T11:05:59Z</time></trkpt><trkpt lat="42.515784082525364" lon="11.421619498586406"><ele>74.75</ele><time>2026-04-18T11:06:00Z</time></trkpt><trkpt lat="42.51587525218194" lon="11.421483705846072"><ele>76.0</ele><time>2026-04-18T11:06:01Z</time></trkpt><trkpt lat="42.515949751559255" lon="11.421367452934964"><ele>76.0</ele><time>2026-04-18T11:06:02Z</time></trkpt><trkpt lat="42.51601138139528" lon="11.421285497849354"><ele>76.0</ele><time>2026-04-18T11:06:03Z</time></trkpt><trkpt lat="42.51606311177885" lon="11.421217517766792"><ele>76.0</ele><time>2026-04-18T11:06:04Z</time></trkpt><trkpt lat="42.51611849287449" lon="11.421166981522784"><ele>76.0</ele><time>2026-04-18T11:06:05Z</time></trkpt><trkpt lat="42.516114921708" lon="11.420942696347707"><ele>76.0</ele><time>2026-04-18T11:06:07Z</time></trkpt><trkpt lat="42.51611826144604" lon="11.42081365278681"><ele>76.0</ele><time>2026-04-18T11:06:08Z</time></trkpt><trkpt lat="42.51616085676565" lon="11.420684866808406"><ele>76.0</ele><time>2026-04-18T11:06:09Z</time></trkpt><trkpt lat="42.5161890085171" lon="11.420524339624215"><ele>76.0</ele><time>2026-04-18T11:06:10Z</time></trkpt><trkpt lat="42.51621658303178" lon="11.420348792952796"><ele>76.0</ele><time>2026-04-18T11:06:11Z</time></trkpt><trkpt lat="42.51624653311937" lon="11.42019087517156"><ele>77.75</ele><time>2026-04-18T11:06:12Z</time></trkpt><trkpt lat="42.51628101058598" lon="11.420043829802943"><ele>79.5</ele><time>2026-04-18T11:06:13Z</time></trkpt><trkpt lat="42.516311339677145" lon="11.419896324648336"><ele>81.25</ele><time>2026-04-18T11:06:14Z</time></trkpt><trkpt lat="42.51635521439418" lon="11.419700308972024"><ele>83.0</ele><time>2026-04-18T11:06:15Z</time></trkpt><trkpt lat="42.51636423417267" lon="11.419546377519302"><ele>83.14285714285714</ele><time>2026-04-18T11:06:16Z</time></trkpt><trkpt lat="42.51635721843479" lon="11.41944323004672"><ele>83.28571428571429</ele><time>2026-04-18T11:06:17Z</time></trkpt><trkpt lat="42.5163297333652" lon="11.419347872275354"><ele>83.42857142857143</ele><time>2026-04-18T11:06:26Z</time></trkpt><trkpt lat="42.516314617731254" lon="11.419261912912345"><ele>83.57142857142857</ele><time>2026-04-18T11:06:28Z</time></trkpt><trkpt lat="42.51625510797368" lon="11.419193484914462"><ele>83.71428571428572</ele><time>2026-04-18T11:06:29Z</time></trkpt><trkpt lat="42.516219198266" lon="11.41911642694715"><ele>83.85714285714286</ele><time>2026-04-18T11:06:30Z</time></trkpt><trkpt lat="42.51617554307667" lon="11.419030411750331"><ele>84.0</ele><time>2026-04-18T11:06:31Z</time></trkpt><trkpt lat="42.51611418309855" lon="11.418944865044814"><ele>83.80000000000001</ele><time>2026-04-18T11:06:32Z</time></trkpt><trkpt lat="42.516063065478384" lon="11.418863183675262"><ele>83.60000000000001</ele><time>2026-04-18T11:06:33Z</time></trkpt><trkpt lat="42.51602207746932" lon="11.41875735126725"><ele>83.4</ele><time>2026-04-18T11:06:34Z</time></trkpt><trkpt lat="42.51596223971868" lon="11.418655705472649"><ele>83.2</ele><time>2026-04-18T11:06:35Z</time></trkpt><trkpt lat="42.515902641763105" lon="11.4185513758847"><ele>83.0</ele><time>2026-04-18T11:06:36Z</time></trkpt><trkpt lat="42.51581830234297" lon="11.418398879724931"><ele>83.0</ele><time>2026-04-18T11:06:37Z</time></trkpt><trkpt lat="42.51574738275202" lon="11.418259482486611"><ele>83.0</ele><time>2026-04-18T11:06:38Z</time></trkpt><trkpt lat="42.51567949578992" lon="11.41811493233909"><ele>83.0</ele><time>2026-04-18T11:06:39Z</time></trkpt><trkpt lat="42.515613813155994" lon="11.417965293791337"><ele>83.0</ele><time>2026-04-18T11:06:40Z</time></trkpt><trkpt lat="42.515551078451864" lon="11.417813637718673"><ele>84.0</ele><time>2026-04-18T11:06:41Z</time></trkpt><trkpt lat="42.51548809277425" lon="11.417651250468442"><ele>85.0</ele><time>2026-04-18T11:06:42Z</time></trkpt><trkpt lat="42.51543003397822" lon="11.417488541370608"><ele>86.0</ele><time>2026-04-18T11:06:43Z</time></trkpt><trkpt lat="42.51537210469733" lon="11.41731827923077"><ele>87.0</ele><time>2026-04-18T11:06:44Z</time></trkpt><trkpt lat="42.515312197447486" lon="11.417145937536887"><ele>88.25</ele><time>2026-04-18T11:06:45Z</time></trkpt><trkpt lat="42.51524826069959" lon="11.416975804878634"><ele>89.5</ele><time>2026-04-18T11:06:46Z</time></trkpt><trkpt lat="42.515165499180526" lon="11.416815513360872"><ele>90.75</ele><time>2026-04-18T11:06:47Z</time></trkpt><trkpt lat="42.51511920434276" lon="11.41664880774353"><ele>92.0</ele><time>2026-04-18T11:06:48Z</time></trkpt><trkpt lat="42.51506805219162" lon="11.416493065174974"><ele>92.0</ele><time>2026-04-18T11:06:49Z</time></trkpt><trkpt lat="42.51503192496259" lon="11.416333617816871"><ele>92.0</ele><time>2026-04-18T11:06:50Z</time></trkpt><trkpt lat="42.51499828993572" lon="11.416195432922734"><ele>92.0</ele><time>2026-04-18T11:06:51Z</time></trkpt><trkpt lat="42.514990737112555" lon="11.41605418255859"><ele>92.0</ele><time>2026-04-18T11:06:52Z</time></trkpt><trkpt lat="42.51498966776663" lon="11.415915053647543"><ele>92.0</ele><time>2026-04-18T11:06:53Z</time></trkpt><trkpt lat="42.514991421961646" lon="11.415793227656849"><ele>92.16666666666667</ele><time>2026-04-18T11:06:54Z</time></trkpt><trkpt lat="42.5149922564879" lon="11.415687354321223"><ele>92.33333333333334</ele><time>2026-04-18T11:06:55Z</time></trkpt><trkpt lat="42.51491836180172" lon="11.415620688759336"><ele>92.5</ele><time>2026-04-18T11:06:56Z</time></trkpt><trkpt lat="42.514842018892274" lon="11.415580003109264"><ele>92.66666666666667</ele><time>2026-04-18T11:06:57Z</time></trkpt><trkpt lat="42.51474743203993" lon="11.41556003603245"><ele>92.83333333333333</ele><time>2026-04-18T11:06:58Z</time></trkpt><trkpt lat="42.514650697270866" lon="11.415520517221314"><ele>93.0</ele><time>2026-04-18T11:06:59Z</time></trkpt><trkpt lat="42.514550314909265" lon="11.415490740996288"><ele>94.0</ele><time>2026-04-18T11:07:00Z</time></trkpt><trkpt lat="42.51444153311137" lon="11.415453761098663"><ele>95.0</ele><time>2026-04-18T11:07:01Z</time></trkpt><trkpt lat="42.51432305648653" lon="11.415427045093917"><ele>96.0</ele><time>2026-04-18T11:07:02Z</time></trkpt><trkpt lat="42.51421202876496" lon="11.41537603083938"><ele>97.0</ele><time>2026-04-18T11:07:03Z</time></trkpt><trkpt lat="42.51411150801032" lon="11.415312243269316"><ele>97.0</ele><time>2026-04-18T11:07:04Z</time></trkpt><trkpt lat="42.51401445930621" lon="11.415241900286471"><ele>97.0</ele><time>2026-04-18T11:07:04.999Z</time></trkpt><trkpt lat="42.51391224694402" lon="11.415130492837628"><ele>97.0</ele><time>2026-04-18T11:07:06Z</time></trkpt><trkpt lat="42.51381475338468" lon="11.415040477901536"><ele>97.0</ele><time>2026-04-18T11:07:07Z</time></trkpt><trkpt lat="42.513704484802325" lon="11.414955904137784"><ele>97.5</ele><time>2026-04-18T11:07:08Z</time></trkpt><trkpt lat="42.51360987097932" lon="11.414828490039332"><ele>98.0</ele><time>2026-04-18T11:07:09Z</time></trkpt><trkpt lat="42.51349724463131" lon="11.414736125090853"><ele>98.5</ele><time>2026-04-18T11:07:10Z</time></trkpt><trkpt lat="42.51339078770313" lon="11.414621753865557"><ele>99.0</ele><time>2026-04-18T11:07:11Z</time></trkpt><trkpt lat="42.51327581485769" lon="11.414521989192574"><ele>99.0</ele><time>2026-04-18T11:07:12Z</time></trkpt><trkpt lat="42.51316227396116" lon="11.41440960160395"><ele>99.0</ele><time>2026-04-18T11:07:13Z</time></trkpt><trkpt lat="42.51304824046988" lon="11.414301236517588"><ele>99.0</ele><time>2026-04-18T11:07:14Z</time></trkpt><trkpt lat="42.51293067022265" lon="11.414187551027874"><ele>99.0</ele><time>2026-04-18T11:07:15Z</time></trkpt><trkpt lat="42.51282482555518" lon="11.414051380714666"><ele>99.25</ele><time>2026-04-18T11:07:16Z</time></trkpt><trkpt lat="42.512710756016666" lon="11.413928550491825"><ele>99.5</ele><time>2026-04-18T11:07:17Z</time></trkpt><trkpt lat="42.51259630094175" lon="11.413805520575787"><ele>99.75</ele><time>2026-04-18T11:07:18Z</time></trkpt><trkpt lat="42.51247428846012" lon="11.413675808233675"><ele>100.0</ele><time>2026-04-18T11:07:19Z</time></trkpt><trkpt lat="42.51235676367234" lon="11.413550866991809"><ele>100.33333333333334</ele><time>2026-04-18T11:07:20Z</time></trkpt><trkpt lat="42.512231282124695" lon="11.413427593472404"><ele>100.66666666666666</ele><time>2026-04-18T11:07:21Z</time></trkpt><trkpt lat="42.51211468554429" lon="11.413296356271175"><ele>101.0</ele><time>2026-04-18T11:07:22Z</time></trkpt><trkpt lat="42.512008997209314" lon="11.413150986847958"><ele>100.66666666666666</ele><time>2026-04-18T11:07:23Z</time></trkpt><trkpt lat="42.51190709781749" lon="11.412995299616483"><ele>100.33333333333334</ele><time>2026-04-18T11:07:24Z</time></trkpt><trkpt lat="42.511811842509275" lon="11.412827695320981"><ele>100.0</ele><time>2026-04-18T11:07:25Z</time></trkpt><trkpt lat="42.511709155226846" lon="11.41265673104905"><ele>100.0</ele><time>2026-04-18T11:07:26Z</time></trkpt><trkpt lat="42.51160020105582" lon="11.412508867203584"><ele>100.0</ele><time>2026-04-18T11:07:27Z</time></trkpt><trkpt lat="42.51150371108458" lon="11.412335819989998"><ele>100.0</ele><time>2026-04-18T11:07:28Z</time></trkpt><trkpt lat="42.5114038036202" lon="11.412169376818909"><ele>99.66666666666667</ele><time>2026-04-18T11:07:29Z</time></trkpt><trkpt lat="42.51130756501896" lon="11.411986940375249"><ele>99.33333333333334</ele><time>2026-04-18T11:07:30Z</time></trkpt><trkpt lat="42.51119817468665" lon="11.411808943913963"><ele>99.0</ele><time>2026-04-18T11:07:31Z</time></trkpt><trkpt lat="42.5110843314959" lon="11.411615255623582"><ele>101.0</ele><time>2026-04-18T11:07:32Z</time></trkpt><trkpt lat="42.51097843125277" lon="11.411429055928089"><ele>103.0</ele><time>2026-04-18T11:07:33Z</time></trkpt><trkpt lat="42.510853322856946" lon="11.411250373577628"><ele>105.0</ele><time>2026-04-18T11:07:34Z</time></trkpt><trkpt lat="42.51075063116764" lon="11.411086113955552"><ele>105.0</ele><time>2026-04-18T11:07:35Z</time></trkpt><trkpt lat="42.51064518625415" lon="11.410936355661851"><ele>105.0</ele><time>2026-04-18T11:07:36Z</time></trkpt><trkpt lat="42.5105388370668" lon="11.41078098609807"><ele>105.0</ele><time>2026-04-18T11:07:37Z</time></trkpt><trkpt lat="42.51044906623045" lon="11.410585696170088"><ele>108.66666666666666</ele><time>2026-04-18T11:07:38Z</time></trkpt><trkpt lat="42.51035593747853" lon="11.410404989038248"><ele>112.33333333333333</ele><time>2026-04-18T11:07:39Z</time></trkpt><trkpt lat="42.51026753939621" lon="11.410249651188177"><ele>116.0</ele><time>2026-04-18T11:07:40Z</time></trkpt><trkpt lat="42.510165994962634" lon="11.410105875330558"><ele>116.0</ele><time>2026-04-18T11:07:41Z</time></trkpt><trkpt lat="42.51006492903887" lon="11.409968562170874"><ele>116.0</ele><time>2026-04-18T11:07:42Z</time></trkpt><trkpt lat="42.509952434480475" lon="11.409853354847524"><ele>116.0</ele><time>2026-04-18T11:07:43Z</time></trkpt><trkpt lat="42.5098538749191" lon="11.409767524877747"><ele>116.0</ele><time>2026-04-18T11:07:44Z</time></trkpt><trkpt lat="42.509753301387946" lon="11.409701333236063"><ele>117.0</ele><time>2026-04-18T11:07:45Z</time></trkpt><trkpt lat="42.50965709733001" lon="11.409609860615287"><ele>118.0</ele><time>2026-04-18T11:07:46Z</time></trkpt><trkpt lat="42.50955549717507" lon="11.409528011816624"><ele>119.0</ele><time>2026-04-18T11:07:47Z</time></trkpt><trkpt lat="42.50943203643451" lon="11.40944541741098"><ele>120.0</ele><time>2026-04-18T11:07:48Z</time></trkpt><trkpt lat="42.50934412723903" lon="11.409359644243601"><ele>120.0</ele><time>2026-04-18T11:07:49Z</time></trkpt><trkpt lat="42.50925623263948" lon="11.409295798577803"><ele>120.0</ele><time>2026-04-18T11:07:50Z</time></trkpt><trkpt lat="42.509169004268585" lon="11.409251118709449"><ele>120.0</ele><time>2026-04-18T11:07:51Z</time></trkpt><trkpt lat="42.50907808394412" lon="11.409235974455594"><ele>120.0</ele><time>2026-04-18T11:07:52Z</time></trkpt><trkpt lat="42.5089704080958" lon="11.409225032354746"><ele>120.0</ele><time>2026-04-18T11:07:53Z</time></trkpt><trkpt lat="42.508868226144195" lon="11.409230138375387"><ele>120.0</ele><time>2026-04-18T11:07:54Z</time></trkpt><trkpt lat="42.50876527554792" lon="11.409242960282002"><ele>120.0</ele><time>2026-04-18T11:07:55Z</time></trkpt><trkpt lat="42.5086660005559" lon="11.409253709391958"><ele>120.0</ele><time>2026-04-18T11:07:56Z</time></trkpt><trkpt lat="42.50856954899125" lon="11.409283523081337"><ele>120.0</ele><time>2026-04-18T11:07:57Z</time></trkpt><trkpt lat="42.50847047776491" lon="11.409317953899437"><ele>120.0</ele><time>2026-04-18T11:07:58Z</time></trkpt><trkpt lat="42.50836537383473" lon="11.409374792289555"><ele>120.5</ele><time>2026-04-18T11:07:59Z</time></trkpt><trkpt lat="42.50825188043732" lon="11.409407584319181"><ele>121.0</ele><time>2026-04-18T11:08:00Z</time></trkpt><trkpt lat="42.50814045769519" lon="11.409432814925863"><ele>121.5</ele><time>2026-04-18T11:08:01Z</time></trkpt><trkpt lat="42.508028404665794" lon="11.409435421793635"><ele>122.0</ele><time>2026-04-18T11:08:02Z</time></trkpt><trkpt lat="42.50790752294309" lon="11.409432197640015"><ele>122.0</ele><time>2026-04-18T11:08:03Z</time></trkpt><trkpt lat="42.50779087041198" lon="11.409432300879322"><ele>122.0</ele><time>2026-04-18T11:08:04Z</time></trkpt><trkpt lat="42.507669054749364" lon="11.409468535728967"><ele>122.0</ele><time>2026-04-18T11:08:05Z</time></trkpt><trkpt lat="42.50755055225861" lon="11.409492606897038"><ele>122.0</ele><time>2026-04-18T11:08:06Z</time></trkpt><trkpt lat="42.5074312266749" lon="11.409516490806993"><ele>122.0</ele><time>2026-04-18T11:08:07Z</time></trkpt><trkpt lat="42.50731055082903" lon="11.409549846651565"><ele>122.0</ele><time>2026-04-18T11:08:08Z</time></trkpt><trkpt lat="42.50717361112129" lon="11.409572849915573"><ele>122.0</ele><time>2026-04-18T11:08:09Z</time></trkpt><trkpt lat="42.50704583309133" lon="11.409595480254099"><ele>122.0</ele><time>2026-04-18T11:08:10Z</time></trkpt><trkpt lat="42.506921174439206" lon="11.409626850403885"><ele>123.0</ele><time>2026-04-18T11:08:11Z</time></trkpt><trkpt lat="42.506797346678994" lon="11.40965598284709"><ele>124.0</ele><time>2026-04-18T11:08:12Z</time></trkpt><trkpt lat="42.50666965994411" lon="11.409683941787529"><ele>125.0</ele><time>2026-04-18T11:08:13Z</time></trkpt><trkpt lat="42.50654089100378" lon="11.409720925686441"><ele>126.0</ele><time>2026-04-18T11:08:14Z</time></trkpt><trkpt lat="42.506404485267566" lon="11.409770013879221"><ele>128.5</ele><time>2026-04-18T11:08:15Z</time></trkpt><trkpt lat="42.506275247355624" lon="11.409836171450753"><ele>131.0</ele><time>2026-04-18T11:08:16Z</time></trkpt><trkpt lat="42.50615317789535" lon="11.409902301582814"><ele>133.5</ele><time>2026-04-18T11:08:17Z</time></trkpt><trkpt lat="42.506054520267845" lon="11.409957569709821"><ele>136.0</ele><time>2026-04-18T11:08:18Z</time></trkpt><trkpt lat="42.505959021594414" lon="11.409996230694201"><ele>136.16666666666669</ele><time>2026-04-18T11:08:19Z</time></trkpt><trkpt lat="42.50588255625517" lon="11.410029764128145"><ele>136.33333333333334</ele><time>2026-04-18T11:08:20Z</time></trkpt><trkpt lat="42.50580979587633" lon="11.410072284250933"><ele>136.5</ele><time>2026-04-18T11:08:21Z</time></trkpt><trkpt lat="42.50574333809444" lon="11.410075410647817"><ele>136.66666666666666</ele><time>2026-04-18T11:08:22Z</time></trkpt><trkpt lat="42.50565554663874" lon="11.410085897481894"><ele>136.83333333333331</ele><time>2026-04-18T11:08:24Z</time></trkpt><trkpt lat="42.505585203481935" lon="11.40999561469913"><ele>137.0</ele><time>2026-04-18T11:08:26Z</time></trkpt><trkpt lat="42.5055039193161" lon="11.409927280164348"><ele>137.75</ele><time>2026-04-18T11:08:28Z</time></trkpt><trkpt lat="42.50553550489565" lon="11.409615911079854"><ele>138.5</ele><time>2026-04-18T11:08:29Z</time></trkpt><trkpt lat="42.50551385916467" lon="11.409474812863966"><ele>139.25</ele><time>2026-04-18T11:08:30Z</time></trkpt><trkpt lat="42.505495302119385" lon="11.409354521877715"><ele>140.0</ele><time>2026-04-18T11:08:31Z</time></trkpt><trkpt lat="42.50547546579531" lon="11.409238094432906"><ele>140.0</ele><time>2026-04-18T11:08:32Z</time></trkpt><trkpt lat="42.5054610472651" lon="11.409113550412723"><ele>140.0</ele><time>2026-04-18T11:08:33Z</time></trkpt><trkpt lat="42.5054342565249" lon="11.408983985565577"><ele>140.0</ele><time>2026-04-18T11:08:34Z</time></trkpt><trkpt lat="42.50540480589483" lon="11.408848281536873"><ele>140.0</ele><time>2026-04-18T11:08:35Z</time></trkpt><trkpt lat="42.5053885330705" lon="11.408685603493804"><ele>140.0</ele><time>2026-04-18T11:08:36Z</time></trkpt><trkpt lat="42.505365614282894" lon="11.40853402015877"><ele>139.5</ele><time>2026-04-18T11:08:37Z</time></trkpt><trkpt lat="42.505335805707" lon="11.408361278873256"><ele>139.0</ele><time>2026-04-18T11:08:38Z</time></trkpt><trkpt lat="42.505308187099274" lon="11.408187400852935"><ele>138.5</ele><time>2026-04-18T11:08:39Z</time></trkpt><trkpt lat="42.505283309496534" lon="11.40801010043702"><ele>138.0</ele><time>2026-04-18T11:08:40Z</time></trkpt><trkpt lat="42.50525499763117" lon="11.407815151836395"><ele>137.66666666666666</ele><time>2026-04-18T11:08:41Z</time></trkpt><trkpt lat="42.50522462288317" lon="11.407617323678986"><ele>137.33333333333331</ele><time>2026-04-18T11:08:42Z</time></trkpt><trkpt lat="42.505193854248915" lon="11.4074128056156"><ele>137.0</ele><time>2026-04-18T11:08:43Z</time></trkpt><trkpt lat="42.50516004123974" lon="11.40719378082318"><ele>136.33333333333331</ele><time>2026-04-18T11:08:44Z</time></trkpt><trkpt lat="42.50511697854393" lon="11.406961207689383"><ele>135.66666666666666</ele><time>2026-04-18T11:08:45Z</time></trkpt><trkpt lat="42.505078813751545" lon="11.406709177823092"><ele>135.0</ele><time>2026-04-18T11:08:46Z</time></trkpt><trkpt lat="42.505033549464514" lon="11.406463965077812"><ele>135.66666666666666</ele><time>2026-04-18T11:08:47Z</time></trkpt><trkpt lat="42.50499469407504" lon="11.406241553838793"><ele>136.33333333333331</ele><time>2026-04-18T11:08:48Z</time></trkpt><trkpt lat="42.50495983415428" lon="11.406016321625641"><ele>137.0</ele><time>2026-04-18T11:08:49Z</time></trkpt><trkpt lat="42.50492238867318" lon="11.40579404418889"><ele>137.0</ele><time>2026-04-18T11:08:50Z</time></trkpt><trkpt lat="42.50488212754003" lon="11.40557095931709"><ele>137.0</ele><time>2026-04-18T11:08:51Z</time></trkpt><trkpt lat="42.50484272012308" lon="11.405368001879904"><ele>137.0</ele><time>2026-04-18T11:08:52Z</time></trkpt><trkpt lat="42.50477531879713" lon="11.40515025332684"><ele>138.66666666666666</ele><time>2026-04-18T11:08:53Z</time></trkpt><trkpt lat="42.50469826032182" lon="11.404912740636714"><ele>140.33333333333334</ele><time>2026-04-18T11:08:54Z</time></trkpt><trkpt lat="42.50468992304323" lon="11.404680249615629"><ele>142.0</ele><time>2026-04-18T11:08:56Z</time></trkpt><trkpt lat="42.50465347988364" lon="11.404516351006329"><ele>145.33333333333334</ele><time>2026-04-18T11:08:57Z</time></trkpt><trkpt lat="42.50462070186459" lon="11.404315469570411"><ele>148.66666666666666</ele><time>2026-04-18T11:08:58Z</time></trkpt><trkpt lat="42.50459279625287" lon="11.404116331418763"><ele>152.0</ele><time>2026-04-18T11:08:59Z</time></trkpt><trkpt lat="42.50456091199934" lon="11.403892894627381"><ele>154.0</ele><time>2026-04-18T11:09:00Z</time></trkpt><trkpt lat="42.50452221319937" lon="11.403666622858108"><ele>156.0</ele><time>2026-04-18T11:09:01Z</time></trkpt><trkpt lat="42.504489927156264" lon="11.403488065069634"><ele>158.0</ele><time>2026-04-18T11:09:02Z</time></trkpt><trkpt lat="42.504461583337196" lon="11.403342688034458"><ele>160.0</ele><time>2026-04-18T11:09:03Z</time></trkpt><trkpt lat="42.50444293926229" lon="11.403214838970758"><ele>160.0</ele><time>2026-04-18T11:09:04Z</time></trkpt><trkpt lat="42.50442548609654" lon="11.403111728100185"><ele>160.0</ele><time>2026-04-18T11:09:05Z</time></trkpt><trkpt lat="42.50440709870215" lon="11.403024326648005"><ele>160.0</ele><time>2026-04-18T11:09:06Z</time></trkpt><trkpt lat="42.50432650248152" lon="11.4029635605404"><ele>160.0</ele><time>2026-04-18T11:09:07.999Z</time></trkpt><trkpt lat="42.50421961371614" lon="11.403031516965397"><ele>160.0</ele><time>2026-04-18T11:09:09.999Z</time></trkpt><trkpt lat="42.50414714564515" lon="11.403094640315365"><ele>160.0</ele><time>2026-04-18T11:09:11Z</time></trkpt><trkpt lat="42.504057217567215" lon="11.403149687508137"><ele>160.0</ele><time>2026-04-18T11:09:12Z</time></trkpt><trkpt lat="42.503961289079115" lon="11.40319115664279"><ele>160.0</ele><time>2026-04-18T11:09:13Z</time></trkpt><trkpt lat="42.503880114423644" lon="11.403222202205699"><ele>160.0</ele><time>2026-04-18T11:09:14Z</time></trkpt><trkpt lat="42.50378971848627" lon="11.403245684628956"><ele>160.0</ele><time>2026-04-18T11:09:15Z</time></trkpt><trkpt lat="42.503690612646565" lon="11.403249214124777"><ele>160.0</ele><time>2026-04-18T11:09:16Z</time></trkpt><trkpt lat="42.503590007104556" lon="11.403231949043938"><ele>161.8</ele><time>2026-04-18T11:09:17Z</time></trkpt><trkpt lat="42.503489835753804" lon="11.40320823076882"><ele>163.6</ele><time>2026-04-18T11:09:18Z</time></trkpt><trkpt lat="42.50340647925741" lon="11.40317671368399"><ele>165.39999999999998</ele><time>2026-04-18T11:09:19Z</time></trkpt><trkpt lat="42.50331044645447" lon="11.403127048432566"><ele>167.2</ele><time>2026-04-18T11:09:20Z</time></trkpt><trkpt lat="42.50320634877735" lon="11.403081749596042"><ele>169.0</ele><time>2026-04-18T11:09:21Z</time></trkpt><trkpt lat="42.503077556032984" lon="11.403055087962887"><ele>169.0</ele><time>2026-04-18T11:09:22Z</time></trkpt><trkpt lat="42.50294127908215" lon="11.403048374290421"><ele>169.0</ele><time>2026-04-18T11:09:23Z</time></trkpt><trkpt lat="42.50281269214155" lon="11.403075593270705"><ele>169.0</ele><time>2026-04-18T11:09:24Z</time></trkpt><trkpt lat="42.50271567137869" lon="11.403122376875036"><ele>169.0</ele><time>2026-04-18T11:09:25Z</time></trkpt><trkpt lat="42.502626611377174" lon="11.403149570027796"><ele>170.0</ele><time>2026-04-18T11:09:26Z</time></trkpt><trkpt lat="42.50255409078797" lon="11.403132400200068"><ele>171.0</ele><time>2026-04-18T11:09:27Z</time></trkpt><trkpt lat="42.50248278064667" lon="11.403088337892346"><ele>172.0</ele><time>2026-04-18T11:09:28Z</time></trkpt><trkpt lat="42.502403787176874" lon="11.403015621274173"><ele>173.0</ele><time>2026-04-18T11:09:29Z</time></trkpt><trkpt lat="42.50230083628653" lon="11.402933564543249"><ele>174.0</ele><time>2026-04-18T11:09:30Z</time></trkpt><trkpt lat="42.50220027821809" lon="11.402886601131026"><ele>176.6</ele><time>2026-04-18T11:09:31Z</time></trkpt><trkpt lat="42.502099860408094" lon="11.402867100512259"><ele>179.2</ele><time>2026-04-18T11:09:32Z</time></trkpt><trkpt lat="42.50198978646589" lon="11.402836006264451"><ele>181.79999999999998</ele><time>2026-04-18T11:09:33Z</time></trkpt><trkpt lat="42.501909865789294" lon="11.402825429389154"><ele>184.39999999999998</ele><time>2026-04-18T11:09:34Z</time></trkpt><trkpt lat="42.50184368217176" lon="11.402857674409844"><ele>187.0</ele><time>2026-04-18T11:09:35Z</time></trkpt><trkpt lat="42.50175018460383" lon="11.402953357996372"><ele>185.83333333333334</ele><time>2026-04-18T11:09:37Z</time></trkpt><trkpt lat="42.501690677523065" lon="11.40302040003486"><ele>184.66666666666669</ele><time>2026-04-18T11:09:38Z</time></trkpt><trkpt lat="42.50163834837079" lon="11.403101393914813"><ele>183.5</ele><time>2026-04-18T11:09:39Z</time></trkpt><trkpt lat="42.501587908426934" lon="11.403192505622277"><ele>182.33333333333334</ele><time>2026-04-18T11:09:40Z</time></trkpt><trkpt lat="42.50153456843026" lon="11.403276625054115"><ele>181.16666666666666</ele><time>2026-04-18T11:09:41Z</time></trkpt><trkpt lat="42.50145937496483" lon="11.403340619641739"><ele>180.0</ele><time>2026-04-18T11:09:42Z</time></trkpt><trkpt lat="42.50136391814286" lon="11.403382192289937"><ele>180.0</ele><time>2026-04-18T11:09:43Z</time></trkpt><trkpt lat="42.501253025224656" lon="11.403412364034663"><ele>180.0</ele><time>2026-04-18T11:09:44Z</time></trkpt><trkpt lat="42.50112785970576" lon="11.403428090094607"><ele>180.0</ele><time>2026-04-18T11:09:45Z</time></trkpt><trkpt lat="42.50104140065925" lon="11.403440847247754"><ele>180.0</ele><time>2026-04-18T11:09:46Z</time></trkpt><trkpt lat="42.501092756922134" lon="11.403380700202703"><ele>180.0</ele><time>2026-04-18T11:10:12Z</time></trkpt><trkpt lat="42.50113315715238" lon="11.40330051235523"><ele>180.0</ele><time>2026-04-18T11:10:13Z</time></trkpt><trkpt lat="42.5011791706943" lon="11.403218231691676"><ele>180.0</ele><time>2026-04-18T11:10:14Z</time></trkpt><trkpt lat="42.50123820379081" lon="11.40312267686438"><ele>180.0</ele><time>2026-04-18T11:10:15Z</time></trkpt><trkpt lat="42.5012912021736" lon="11.403016532571895"><ele>180.0</ele><time>2026-04-18T11:10:16Z</time></trkpt><trkpt lat="42.50134149119172" lon="11.402900104231328"><ele>180.0</ele><time>2026-04-18T11:10:17Z</time></trkpt><trkpt lat="42.501384775835156" lon="11.4027729231511"><ele>182.6</ele><time>2026-04-18T11:10:18Z</time></trkpt><trkpt lat="42.50141001686832" lon="11.402648673220616"><ele>185.2</ele><time>2026-04-18T11:10:19Z</time></trkpt><trkpt lat="42.50142144595536" lon="11.402505292602738"><ele>187.8</ele><time>2026-04-18T11:10:20Z</time></trkpt><trkpt lat="42.501420991455966" lon="11.402344585123538"><ele>190.4</ele><time>2026-04-18T11:10:21Z</time></trkpt><trkpt lat="42.50142402207614" lon="11.402176357626171"><ele>193.0</ele><time>2026-04-18T11:10:22Z</time></trkpt><trkpt lat="42.50144087647877" lon="11.402029133468009"><ele>193.60000000000002</ele><time>2026-04-18T11:10:23Z</time></trkpt><trkpt lat="42.50144980527131" lon="11.401871724194617"><ele>194.20000000000002</ele><time>2026-04-18T11:10:24Z</time></trkpt><trkpt lat="42.5014580441281" lon="11.401765622394311"><ele>194.8</ele><time>2026-04-18T11:10:25Z</time></trkpt><trkpt lat="42.5014760844922" lon="11.40168071301336"><ele>195.4</ele><time>2026-04-18T11:10:26Z</time></trkpt><trkpt lat="42.50156690794282" lon="11.401543451761507"><ele>196.0</ele><time>2026-04-18T11:10:28Z</time></trkpt><trkpt lat="42.501639604948025" lon="11.401494559626716"><ele>196.0</ele><time>2026-04-18T11:10:29Z</time></trkpt><trkpt lat="42.5017164409987" lon="11.401452729354423"><ele>196.0</ele><time>2026-04-18T11:10:30Z</time></trkpt><trkpt lat="42.501824016992266" lon="11.401384713094643"><ele>196.0</ele><time>2026-04-18T11:10:31Z</time></trkpt><trkpt lat="42.50191255463886" lon="11.401317713549375"><ele>196.0</ele><time>2026-04-18T11:10:32Z</time></trkpt><trkpt lat="42.50201669972962" lon="11.401271371054484"><ele>196.0</ele><time>2026-04-18T11:10:33Z</time></trkpt><trkpt lat="42.502088818949154" lon="11.401202286202732"><ele>192.8</ele><time>2026-04-18T11:10:34Z</time></trkpt><trkpt lat="42.50215469719462" lon="11.401113846856559"><ele>189.60000000000002</ele><time>2026-04-18T11:10:35Z</time></trkpt><trkpt lat="42.5022470837861" lon="11.401024315098171"><ele>186.4</ele><time>2026-04-18T11:10:36Z</time></trkpt><trkpt lat="42.50232778883973" lon="11.40093791190188"><ele>183.2</ele><time>2026-04-18T11:10:37Z</time></trkpt><trkpt lat="42.50240050896913" lon="11.40085031367024"><ele>180.0</ele><time>2026-04-18T11:10:38Z</time></trkpt><trkpt lat="42.502470736897" lon="11.400743851326666"><ele>180.0</ele><time>2026-04-18T11:10:39Z</time></trkpt><trkpt lat="42.502535857146405" lon="11.400624912613361"><ele>180.0</ele><time>2026-04-18T11:10:40Z</time></trkpt><trkpt lat="42.5025974491053" lon="11.40050814147862"><ele>180.0</ele><time>2026-04-18T11:10:41Z</time></trkpt><trkpt lat="42.50266617454276" lon="11.40035800870667"><ele>180.0</ele><time>2026-04-18T11:10:42Z</time></trkpt><trkpt lat="42.50273157465653" lon="11.400260148380903"><ele>180.0</ele><time>2026-04-18T11:10:43Z</time></trkpt><trkpt lat="42.502790116625526" lon="11.400178532963622"><ele>180.0</ele><time>2026-04-18T11:10:44Z</time></trkpt><trkpt lat="42.50285212281033" lon="11.400068651577572"><ele>180.0</ele><time>2026-04-18T11:10:46Z</time></trkpt><trkpt lat="42.50289445387528" lon="11.400001423819434"><ele>180.0</ele><time>2026-04-18T11:10:48Z</time></trkpt><trkpt lat="42.502949594210264" lon="11.399895044458397"><ele>180.0</ele><time>2026-04-18T11:10:50Z</time></trkpt><trkpt lat="42.502987478883476" lon="11.399821765392739"><ele>180.0</ele><time>2026-04-18T11:10:51Z</time></trkpt><trkpt lat="42.50303834306399" lon="11.399747519670958"><ele>180.0</ele><time>2026-04-18T11:10:52Z</time></trkpt><trkpt lat="42.50312731170218" lon="11.399630296435912"><ele>180.0</ele><time>2026-04-18T11:10:54Z</time></trkpt><trkpt lat="42.50318597526851" lon="11.39955584617967"><ele>180.0</ele><time>2026-04-18T11:10:55Z</time></trkpt><trkpt lat="42.50323744238522" lon="11.399474445056104"><ele>180.0</ele><time>2026-04-18T11:10:56Z</time></trkpt><trkpt lat="42.50328953688781" lon="11.39939172651007"><ele>180.0</ele><time>2026-04-18T11:10:57Z</time></trkpt><trkpt lat="42.5033714299184" lon="11.399291955565335"><ele>180.0</ele><time>2026-04-18T11:10:59Z</time></trkpt><trkpt lat="42.50342910670009" lon="11.399241306352925"><ele>180.0</ele><time>2026-04-18T11:11:00Z</time></trkpt><trkpt lat="42.50354927687833" lon="11.399175719386749"><ele>180.0</ele><time>2026-04-18T11:11:02Z</time></trkpt><trkpt lat="42.503607442145196" lon="11.399127394029149"><ele>180.0</ele><time>2026-04-18T11:11:03Z</time></trkpt><trkpt lat="42.503662957894186" lon="11.399071463666576"><ele>180.0</ele><time>2026-04-18T11:11:04Z</time></trkpt><trkpt lat="42.50373995681241" lon="11.399005846320332"><ele>180.0</ele><time>2026-04-18T11:11:05Z</time></trkpt><trkpt lat="42.50379556335563" lon="11.398943776266254"><ele>180.0</ele><time>2026-04-18T11:11:06Z</time></trkpt><trkpt lat="42.50385622657128" lon="11.39887271011213"><ele>180.0</ele><time>2026-04-18T11:11:07Z</time></trkpt><trkpt lat="42.50393009888811" lon="11.398776275399745"><ele>179.33333333333334</ele><time>2026-04-18T11:11:09Z</time></trkpt><trkpt lat="42.50400656979343" lon="11.398689880584046"><ele>178.66666666666666</ele><time>2026-04-18T11:11:11Z</time></trkpt><trkpt lat="42.50406389368134" lon="11.398634713582382"><ele>178.0</ele><time>2026-04-18T11:11:13Z</time></trkpt><trkpt lat="42.50414630102234" lon="11.398551089263213"><ele>177.33333333333331</ele><time>2026-04-18T11:11:15Z</time></trkpt><trkpt lat="42.50420264017864" lon="11.398496682869508"><ele>176.66666666666666</ele><time>2026-04-18T11:11:16Z</time></trkpt><trkpt lat="42.50426267848445" lon="11.398445790853291"><ele>176.0</ele><time>2026-04-18T11:11:17Z</time></trkpt><trkpt lat="42.50432589498704" lon="11.39838081662327"><ele>176.0</ele><time>2026-04-18T11:11:18Z</time></trkpt><trkpt lat="42.50439585452269" lon="11.398292981384408"><ele>176.0</ele><time>2026-04-18T11:11:19Z</time></trkpt><trkpt lat="42.504449203345295" lon="11.398198375049795"><ele>176.0</ele><time>2026-04-18T11:11:20Z</time></trkpt><trkpt lat="42.504536504178624" lon="11.398065631994521"><ele>176.0</ele><time>2026-04-18T11:11:22Z</time></trkpt><trkpt lat="42.504620834512274" lon="11.398001870585109"><ele>176.0</ele><time>2026-04-18T11:11:23Z</time></trkpt><trkpt lat="42.50471183202037" lon="11.397983939396408"><ele>174.83333333333331</ele><time>2026-04-18T11:11:24Z</time></trkpt><trkpt lat="42.50478937032435" lon="11.39798255284362"><ele>173.66666666666666</ele><time>2026-04-18T11:11:25Z</time></trkpt><trkpt lat="42.50486624545221" lon="11.397938152713976"><ele>172.5</ele><time>2026-04-18T11:11:26Z</time></trkpt><trkpt lat="42.504936956371054" lon="11.397867301948661"><ele>171.33333333333334</ele><time>2026-04-18T11:11:27Z</time></trkpt><trkpt lat="42.50499823022108" lon="11.397812026920173"><ele>170.16666666666669</ele><time>2026-04-18T11:11:28Z</time></trkpt><trkpt lat="42.505065164241785" lon="11.397760569110249"><ele>169.0</ele><time>2026-04-18T11:11:29Z</time></trkpt><trkpt lat="42.50512477421897" lon="11.397731817168552"><ele>169.0</ele><time>2026-04-18T11:11:30Z</time></trkpt><trkpt lat="42.50521408997084" lon="11.397693874778156"><ele>169.0</ele><time>2026-04-18T11:11:31Z</time></trkpt><trkpt lat="42.50530089437611" lon="11.39762505203738"><ele>169.0</ele><time>2026-04-18T11:11:32Z</time></trkpt><trkpt lat="42.50538142418533" lon="11.39754199003231"><ele>169.0</ele><time>2026-04-18T11:11:33Z</time></trkpt><trkpt lat="42.50544999383664" lon="11.39743968400029"><ele>169.0</ele><time>2026-04-18T11:11:34Z</time></trkpt><trkpt lat="42.505496705811375" lon="11.397324432755399"><ele>168.83333333333334</ele><time>2026-04-18T11:11:35Z</time></trkpt><trkpt lat="42.505545328780315" lon="11.397217722297384"><ele>168.66666666666669</ele><time>2026-04-18T11:11:36Z</time></trkpt><trkpt lat="42.50560669295182" lon="11.397122972982313"><ele>168.5</ele><time>2026-04-18T11:11:37Z</time></trkpt><trkpt lat="42.50565646276736" lon="11.397044501311031"><ele>168.33333333333334</ele><time>2026-04-18T11:11:38Z</time></trkpt><trkpt lat="42.505723786408005" lon="11.396963115701082"><ele>168.16666666666666</ele><time>2026-04-18T11:11:39Z</time></trkpt><trkpt lat="42.505799631370806" lon="11.396882921984522"><ele>168.0</ele><time>2026-04-18T11:11:40Z</time></trkpt><trkpt lat="42.50586097374312" lon="11.39681921670365"><ele>167.16666666666666</ele><time>2026-04-18T11:11:41Z</time></trkpt><trkpt lat="42.50591713931978" lon="11.396724159424053"><ele>166.33333333333334</ele><time>2026-04-18T11:11:42Z</time></trkpt><trkpt lat="42.50596007783679" lon="11.396614987593614"><ele>165.5</ele><time>2026-04-18T11:11:43Z</time></trkpt><trkpt lat="42.50597552627101" lon="11.396501776040102"><ele>164.66666666666669</ele><time>2026-04-18T11:11:44Z</time></trkpt><trkpt lat="42.505995325156775" lon="11.396403327198074"><ele>163.83333333333334</ele><time>2026-04-18T11:11:45Z</time></trkpt><trkpt lat="42.506025615792936" lon="11.396305087098161"><ele>163.0</ele><time>2026-04-18T11:11:46Z</time></trkpt><trkpt lat="42.5060646811728" lon="11.396207037492148"><ele>162.16666666666669</ele><time>2026-04-18T11:11:47Z</time></trkpt><trkpt lat="42.50611469196352" lon="11.396142406429574"><ele>161.33333333333334</ele><time>2026-04-18T11:11:48Z</time></trkpt><trkpt lat="42.506168880526594" lon="11.396040387974613"><ele>160.5</ele><time>2026-04-18T11:11:49Z</time></trkpt><trkpt lat="42.506223131646266" lon="11.395939936219118"><ele>159.66666666666666</ele><time>2026-04-18T11:11:50Z</time></trkpt><trkpt lat="42.506281051930365" lon="11.395843082557105"><ele>158.83333333333331</ele><time>2026-04-18T11:11:51Z</time></trkpt><trkpt lat="42.50633348060535" lon="11.3957578888094"><ele>158.0</ele><time>2026-04-18T11:11:52Z</time></trkpt><trkpt lat="42.50639609889239" lon="11.395665188254354"><ele>158.0</ele><time>2026-04-18T11:11:53Z</time></trkpt><trkpt lat="42.5064600076876" lon="11.395582057944429"><ele>158.0</ele><time>2026-04-18T11:11:54Z</time></trkpt><trkpt lat="42.50653065719777" lon="11.395505174841158"><ele>158.0</ele><time>2026-04-18T11:11:55Z</time></trkpt><trkpt lat="42.50660728736118" lon="11.39544906652253"><ele>158.0</ele><time>2026-04-18T11:11:56Z</time></trkpt><trkpt lat="42.50668257832724" lon="11.395427157251305"><ele>158.0</ele><time>2026-04-18T11:11:57Z</time></trkpt><trkpt lat="42.506752136023835" lon="11.395421904399138"><ele>158.0</ele><time>2026-04-18T11:11:58Z</time></trkpt><trkpt lat="42.50682996548504" lon="11.39540131365655"><ele>157.20000000000002</ele><time>2026-04-18T11:11:59Z</time></trkpt><trkpt lat="42.5069334983858" lon="11.395373842853544"><ele>156.4</ele><time>2026-04-18T11:12:00Z</time></trkpt><trkpt lat="42.507008645748655" lon="11.395352599298748"><ele>155.60000000000002</ele><time>2026-04-18T11:12:01Z</time></trkpt><trkpt lat="42.50709906318692" lon="11.395299241028294"><ele>154.8</ele><time>2026-04-18T11:12:03Z</time></trkpt><trkpt lat="42.50717019250542" lon="11.395222410496403"><ele>154.0</ele><time>2026-04-18T11:12:05Z</time></trkpt><trkpt lat="42.507243021986426" lon="11.395164510557164"><ele>154.0</ele><time>2026-04-18T11:12:07Z</time></trkpt><trkpt lat="42.50732360049138" lon="11.395085477767594"><ele>154.0</ele><time>2026-04-18T11:12:09Z</time></trkpt><trkpt lat="42.5074358327314" lon="11.39498762424433"><ele>154.0</ele><time>2026-04-18T11:12:11Z</time></trkpt><trkpt lat="42.507502706395535" lon="11.394917698676222"><ele>154.0</ele><time>2026-04-18T11:12:12Z</time></trkpt><trkpt lat="42.50757446295942" lon="11.394839214395388"><ele>154.0</ele><time>2026-04-18T11:12:13Z</time></trkpt><trkpt lat="42.507642241049176" lon="11.394752419193317"><ele>154.0</ele><time>2026-04-18T11:12:14Z</time></trkpt><trkpt lat="42.507716868013915" lon="11.39465511423314"><ele>154.0</ele><time>2026-04-18T11:12:15Z</time></trkpt><trkpt lat="42.5077863997689" lon="11.394547526512039"><ele>154.0</ele><time>2026-04-18T11:12:16Z</time></trkpt><trkpt lat="42.5078508045921" lon="11.394432726262345"><ele>154.0</ele><time>2026-04-18T11:12:17Z</time></trkpt><trkpt lat="42.50791852772367" lon="11.39432304408882"><ele>154.0</ele><time>2026-04-18T11:12:18Z</time></trkpt><trkpt lat="42.507980582620576" lon="11.39421420953376"><ele>154.8</ele><time>2026-04-18T11:12:19Z</time></trkpt><trkpt lat="42.50803049997842" lon="11.394083804917175"><ele>155.60000000000002</ele><time>2026-04-18T11:12:20Z</time></trkpt><trkpt lat="42.50805652651831" lon="11.393974042425773"><ele>156.4</ele><time>2026-04-18T11:12:21Z</time></trkpt><trkpt lat="42.50807862330684" lon="11.393864166708989"><ele>157.20000000000002</ele><time>2026-04-18T11:12:22Z</time></trkpt><trkpt lat="42.508093054299" lon="11.39375442096136"><ele>158.0</ele><time>2026-04-18T11:12:23Z</time></trkpt><trkpt lat="42.50811582514707" lon="11.393618326419988"><ele>158.0</ele><time>2026-04-18T11:12:24Z</time></trkpt><trkpt lat="42.50814181343175" lon="11.393496613695334"><ele>158.0</ele><time>2026-04-18T11:12:25Z</time></trkpt><trkpt lat="42.50815406484162" lon="11.393371375292952"><ele>158.0</ele><time>2026-04-18T11:12:26Z</time></trkpt><trkpt lat="42.508151244693586" lon="11.393222525516064"><ele>158.0</ele><time>2026-04-18T11:12:27Z</time></trkpt><trkpt lat="42.508138488646814" lon="11.393065550731182"><ele>158.0</ele><time>2026-04-18T11:12:28Z</time></trkpt><trkpt lat="42.50812029877057" lon="11.392903485244611"><ele>158.20000000000002</ele><time>2026-04-18T11:12:29Z</time></trkpt><trkpt lat="42.508111582853616" lon="11.392765128813974"><ele>158.4</ele><time>2026-04-18T11:12:30Z</time></trkpt><trkpt lat="42.50811191109185" lon="11.392635598998154"><ele>158.60000000000002</ele><time>2026-04-18T11:12:31Z</time></trkpt><trkpt lat="42.508125936724824" lon="11.392482327268173"><ele>158.8</ele><time>2026-04-18T11:12:32Z</time></trkpt><trkpt lat="42.50816286316233" lon="11.392338659922741"><ele>159.0</ele><time>2026-04-18T11:12:33Z</time></trkpt><trkpt lat="42.50819217345797" lon="11.392226151013777"><ele>160.5</ele><time>2026-04-18T11:12:34Z</time></trkpt><trkpt lat="42.50820954879603" lon="11.392128345192825"><ele>162.0</ele><time>2026-04-18T11:12:35Z</time></trkpt><trkpt lat="42.508235679114996" lon="11.391974710231384"><ele>163.5</ele><time>2026-04-18T11:12:37Z</time></trkpt><trkpt lat="42.50822686990913" lon="11.391888303751491"><ele>165.0</ele><time>2026-04-18T11:12:38Z</time></trkpt><trkpt lat="42.50818883412129" lon="11.391817251627332"><ele>166.5</ele><time>2026-04-18T11:12:39Z</time></trkpt><trkpt lat="42.508120127400964" lon="11.391741993740279"><ele>168.0</ele><time>2026-04-18T11:12:40Z</time></trkpt><trkpt lat="42.50805204256162" lon="11.391668628885341"><ele>168.0</ele><time>2026-04-18T11:12:41Z</time></trkpt><trkpt lat="42.507996720505645" lon="11.391591576011717"><ele>168.0</ele><time>2026-04-18T11:12:42Z</time></trkpt><trkpt lat="42.507932933005044" lon="11.391507355143993"><ele>168.0</ele><time>2026-04-18T11:12:43Z</time></trkpt><trkpt lat="42.50783874478532" lon="11.39141902937457"><ele>168.0</ele><time>2026-04-18T11:12:44Z</time></trkpt><trkpt lat="42.507731290232265" lon="11.391329839004598"><ele>168.0</ele><time>2026-04-18T11:12:45Z</time></trkpt><trkpt lat="42.50763329480174" lon="11.391236202911632"><ele>168.8</ele><time>2026-04-18T11:12:46Z</time></trkpt><trkpt lat="42.50753427694995" lon="11.391139957898767"><ele>169.60000000000002</ele><time>2026-04-18T11:12:47Z</time></trkpt><trkpt lat="42.50743654212047" lon="11.391050312072078"><ele>170.39999999999998</ele><time>2026-04-18T11:12:48Z</time></trkpt><trkpt lat="42.50733686951692" lon="11.390984342945682"><ele>171.2</ele><time>2026-04-18T11:12:49Z</time></trkpt><trkpt lat="42.50725271104387" lon="11.390930499897223"><ele>172.0</ele><time>2026-04-18T11:12:50Z</time></trkpt><trkpt lat="42.50716794948806" lon="11.390863254294684"><ele>172.0</ele><time>2026-04-18T11:12:51Z</time></trkpt><trkpt lat="42.507100810011906" lon="11.390800267786949"><ele>172.0</ele><time>2026-04-18T11:12:52Z</time></trkpt><trkpt lat="42.507024763860024" lon="11.390719722890557"><ele>172.0</ele><time>2026-04-18T11:12:53Z</time></trkpt><trkpt lat="42.50694571110533" lon="11.390630313488916"><ele>172.0</ele><time>2026-04-18T11:12:54Z</time></trkpt><trkpt lat="42.506873158656646" lon="11.39055105820895"><ele>172.0</ele><time>2026-04-18T11:12:55Z</time></trkpt><trkpt lat="42.5068124407024" lon="11.390469504436133"><ele>170.66666666666669</ele><time>2026-04-18T11:12:56Z</time></trkpt><trkpt lat="42.50674500059364" lon="11.390380830021218"><ele>169.33333333333334</ele><time>2026-04-18T11:12:57Z</time></trkpt><trkpt lat="42.50668903973619" lon="11.39030514651482"><ele>168.0</ele><time>2026-04-18T11:12:58Z</time></trkpt><trkpt lat="42.50662254153815" lon="11.390254292774431"><ele>166.66666666666666</ele><time>2026-04-18T11:12:59Z</time></trkpt><trkpt lat="42.5065433677258" lon="11.390204488307866"><ele>165.33333333333331</ele><time>2026-04-18T11:13:00Z</time></trkpt><trkpt lat="42.50646547050148" lon="11.39016155109524"><ele>164.0</ele><time>2026-04-18T11:13:01Z</time></trkpt><trkpt lat="42.50638708691647" lon="11.390086868393395"><ele>164.0</ele><time>2026-04-18T11:13:02Z</time></trkpt><trkpt lat="42.50630132875582" lon="11.389992480302219"><ele>164.0</ele><time>2026-04-18T11:13:03Z</time></trkpt><trkpt lat="42.50620428199017" lon="11.389915034166844"><ele>164.0</ele><time>2026-04-18T11:13:04Z</time></trkpt><trkpt lat="42.50611428445619" lon="11.38985783021023"><ele>164.0</ele><time>2026-04-18T11:13:05Z</time></trkpt><trkpt lat="42.50602878486686" lon="11.389812878063935"><ele>164.0</ele><time>2026-04-18T11:13:06Z</time></trkpt><trkpt lat="42.50596228464143" lon="11.389740430335786"><ele>162.33333333333331</ele><time>2026-04-18T11:13:07Z</time></trkpt><trkpt lat="42.50589797904258" lon="11.389652672386424"><ele>160.66666666666666</ele><time>2026-04-18T11:13:08Z</time></trkpt><trkpt lat="42.50583982860912" lon="11.38955840658545"><ele>159.0</ele><time>2026-04-18T11:13:09Z</time></trkpt><trkpt lat="42.5057765509573" lon="11.389469854434864"><ele>157.33333333333334</ele><time>2026-04-18T11:13:10Z</time></trkpt><trkpt lat="42.505709616283156" lon="11.389391708306027"><ele>155.66666666666669</ele><time>2026-04-18T11:13:11Z</time></trkpt><trkpt lat="42.50565222893885" lon="11.389322150440773"><ele>154.0</ele><time>2026-04-18T11:13:12Z</time></trkpt><trkpt lat="42.50559946785729" lon="11.389263704273612"><ele>154.0</ele><time>2026-04-18T11:13:13Z</time></trkpt><trkpt lat="42.50555181459706" lon="11.38918109883624"><ele>154.0</ele><time>2026-04-18T11:13:14Z</time></trkpt><trkpt lat="42.50552063281991" lon="11.38900652001783"><ele>154.0</ele><time>2026-04-18T11:13:16Z</time></trkpt><trkpt lat="42.50551122292424" lon="11.388899182894244"><ele>154.0</ele><time>2026-04-18T11:13:17Z</time></trkpt><trkpt lat="42.50552589782501" lon="11.388767340571563"><ele>154.0</ele><time>2026-04-18T11:13:18Z</time></trkpt><trkpt lat="42.50556631856857" lon="11.388628686991538"><ele>153.16666666666669</ele><time>2026-04-18T11:13:19Z</time></trkpt><trkpt lat="42.50560137373183" lon="11.388506485515514"><ele>152.33333333333334</ele><time>2026-04-18T11:13:20Z</time></trkpt><trkpt lat="42.505648127341445" lon="11.388408266610533"><ele>151.5</ele><time>2026-04-18T11:13:21Z</time></trkpt><trkpt lat="42.50570250529876" lon="11.388313798722995"><ele>150.66666666666666</ele><time>2026-04-18T11:13:22Z</time></trkpt><trkpt lat="42.50576351561868" lon="11.388228434757448"><ele>149.83333333333331</ele><time>2026-04-18T11:13:23Z</time></trkpt><trkpt lat="42.505820524311886" lon="11.388180427376868"><ele>149.0</ele><time>2026-04-18T11:13:24Z</time></trkpt><trkpt lat="42.50588453675165" lon="11.38813513505012"><ele>149.0</ele><time>2026-04-18T11:13:25Z</time></trkpt><trkpt lat="42.50594782229059" lon="11.388102300639336"><ele>149.0</ele><time>2026-04-18T11:13:26Z</time></trkpt><trkpt lat="42.50601060201443" lon="11.388049185871163"><ele>149.0</ele><time>2026-04-18T11:13:27Z</time></trkpt><trkpt lat="42.506073959993664" lon="11.3879761906447"><ele>149.0</ele><time>2026-04-18T11:13:28Z</time></trkpt><trkpt lat="42.50613325438761" lon="11.387876164383364"><ele>149.0</ele><time>2026-04-18T11:13:29Z</time></trkpt><trkpt lat="42.50617078220493" lon="11.387765687495898"><ele>149.0</ele><time>2026-04-18T11:13:30Z</time></trkpt><trkpt lat="42.50618690853918" lon="11.387640768591844"><ele>147.2</ele><time>2026-04-18T11:13:31Z</time></trkpt><trkpt lat="42.50619303393644" lon="11.38751409358077"><ele>145.4</ele><time>2026-04-18T11:13:32Z</time></trkpt><trkpt lat="42.50619517475205" lon="11.387348647932972"><ele>143.6</ele><time>2026-04-18T11:13:33Z</time></trkpt><trkpt lat="42.506215192491304" lon="11.38721482262116"><ele>141.8</ele><time>2026-04-18T11:13:34Z</time></trkpt><trkpt lat="42.506222114848285" lon="11.387095633706256"><ele>140.0</ele><time>2026-04-18T11:13:35Z</time></trkpt><trkpt lat="42.506225435353684" lon="11.38699583453641"><ele>139.33333333333331</ele><time>2026-04-18T11:13:36Z</time></trkpt><trkpt lat="42.50622193617073" lon="11.386897925389071"><ele>138.66666666666666</ele><time>2026-04-18T11:13:37Z</time></trkpt><trkpt lat="42.506198232543476" lon="11.386810346136507"><ele>138.0</ele><time>2026-04-18T11:13:38Z</time></trkpt><trkpt lat="42.50615244835499" lon="11.386748574299803"><ele>137.33333333333334</ele><time>2026-04-18T11:13:39Z</time></trkpt><trkpt lat="42.50607376822437" lon="11.386694561168492"><ele>136.66666666666669</ele><time>2026-04-18T11:13:40Z</time></trkpt><trkpt lat="42.50598381540398" lon="11.386650227547015"><ele>136.0</ele><time>2026-04-18T11:13:41Z</time></trkpt><trkpt lat="42.50591252898419" lon="11.38660604996263"><ele>136.0</ele><time>2026-04-18T11:13:42Z</time></trkpt><trkpt lat="42.50585132193185" lon="11.386529983734029"><ele>136.0</ele><time>2026-04-18T11:13:43Z</time></trkpt><trkpt lat="42.50580017380403" lon="11.38640955468961"><ele>136.0</ele><time>2026-04-18T11:13:44Z</time></trkpt><trkpt lat="42.50575845626393" lon="11.386288280413803"><ele>136.0</ele><time>2026-04-18T11:13:45Z</time></trkpt><trkpt lat="42.50573403501527" lon="11.3861730527675"><ele>136.0</ele><time>2026-04-18T11:13:46Z</time></trkpt><trkpt lat="42.505731157848835" lon="11.386043842908405"><ele>135.33333333333334</ele><time>2026-04-18T11:13:47Z</time></trkpt><trkpt lat="42.505730559690164" lon="11.385855596030186"><ele>134.66666666666666</ele><time>2026-04-18T11:13:48Z</time></trkpt><trkpt lat="42.50571157354504" lon="11.385631529682215"><ele>134.0</ele><time>2026-04-18T11:13:49Z</time></trkpt><trkpt lat="42.50570859443169" lon="11.385404653341157"><ele>132.5</ele><time>2026-04-18T11:13:50Z</time></trkpt><trkpt lat="42.50570502436386" lon="11.385176352913344"><ele>131.0</ele><time>2026-04-18T11:13:51Z</time></trkpt><trkpt lat="42.505705870157556" lon="11.38509015461955"><ele>129.5</ele><time>2026-04-18T11:13:52Z</time></trkpt><trkpt lat="42.50570872065222" lon="11.384923939343231"><ele>128.0</ele><time>2026-04-18T11:13:53Z</time></trkpt><trkpt lat="42.50571516543611" lon="11.38474379086674"><ele>127.2</ele><time>2026-04-18T11:13:54Z</time></trkpt><trkpt lat="42.505716791735175" lon="11.38461046347354"><ele>126.4</ele><time>2026-04-18T11:13:55Z</time></trkpt><trkpt lat="42.50572607887437" lon="11.384506544925664"><ele>125.60000000000001</ele><time>2026-04-18T11:13:56Z</time></trkpt><trkpt lat="42.505682239710644" lon="11.384330163726524"><ele>124.80000000000001</ele><time>2026-04-18T11:13:58Z</time></trkpt><trkpt lat="42.50561420463477" lon="11.384211293550049"><ele>124.0</ele><time>2026-04-18T11:13:59Z</time></trkpt><trkpt lat="42.50554001231811" lon="11.38405854109037"><ele>124.0</ele><time>2026-04-18T11:14:00Z</time></trkpt><trkpt lat="42.5054750082822" lon="11.383922768709374"><ele>124.0</ele><time>2026-04-18T11:14:01Z</time></trkpt><trkpt lat="42.5054037841364" lon="11.383804052306889"><ele>124.0</ele><time>2026-04-18T11:14:02Z</time></trkpt><trkpt lat="42.505333178460575" lon="11.38368560127775"><ele>124.0</ele><time>2026-04-18T11:14:03Z</time></trkpt><trkpt lat="42.50527328628248" lon="11.38359323834709"><ele>124.0</ele><time>2026-04-18T11:14:04Z</time></trkpt><trkpt lat="42.505220009386974" lon="11.383489387007353"><ele>122.83333333333334</ele><time>2026-04-18T11:14:05Z</time></trkpt><trkpt lat="42.50516951082241" lon="11.383397464421298"><ele>121.66666666666667</ele><time>2026-04-18T11:14:06Z</time></trkpt><trkpt lat="42.50511154841415" lon="11.3833047987188"><ele>120.5</ele><time>2026-04-18T11:14:07Z</time></trkpt><trkpt lat="42.50506458151766" lon="11.383209395288121"><ele>119.33333333333334</ele><time>2026-04-18T11:14:08Z</time></trkpt><trkpt lat="42.505015082892506" lon="11.38312145188919"><ele>118.16666666666667</ele><time>2026-04-18T11:14:09Z</time></trkpt><trkpt lat="42.50496383705121" lon="11.383046034397342"><ele>117.0</ele><time>2026-04-18T11:14:10Z</time></trkpt><trkpt lat="42.5048968567291" lon="11.38299309600222"><ele>114.5</ele><time>2026-04-18T11:14:11Z</time></trkpt><trkpt lat="42.504815159842785" lon="11.382948204664185"><ele>112.0</ele><time>2026-04-18T11:14:12Z</time></trkpt><trkpt lat="42.50470500463621" lon="11.382904852700996"><ele>109.5</ele><time>2026-04-18T11:14:13Z</time></trkpt><trkpt lat="42.504556919722965" lon="11.382841799189036"><ele>107.0</ele><time>2026-04-18T11:14:14Z</time></trkpt><trkpt lat="42.504395310724206" lon="11.382763073481376"><ele>105.66666666666666</ele><time>2026-04-18T11:14:15Z</time></trkpt><trkpt lat="42.5042703805268" lon="11.382686541758627"><ele>104.33333333333334</ele><time>2026-04-18T11:14:16Z</time></trkpt><trkpt lat="42.50412435232274" lon="11.382618692755038"><ele>103.0</ele><time>2026-04-18T11:14:17Z</time></trkpt><trkpt lat="42.503979035838015" lon="11.382523656581577"><ele>103.0</ele><time>2026-04-18T11:14:18Z</time></trkpt><trkpt lat="42.503853411021204" lon="11.38244301178598"><ele>103.0</ele><time>2026-04-18T11:14:19Z</time></trkpt><trkpt lat="42.50373244538447" lon="11.382369791393844"><ele>103.0</ele><time>2026-04-18T11:14:20Z</time></trkpt><trkpt lat="42.503613533375145" lon="11.382290236775846"><ele>103.0</ele><time>2026-04-18T11:14:21Z</time></trkpt><trkpt lat="42.503472366152984" lon="11.382175996945694"><ele>101.0</ele><time>2026-04-18T11:14:22Z</time></trkpt><trkpt lat="42.503345425184364" lon="11.382060365040592"><ele>99.0</ele><time>2026-04-18T11:14:23Z</time></trkpt><trkpt lat="42.50325451912654" lon="11.381967751231931"><ele>97.0</ele><time>2026-04-18T11:14:24Z</time></trkpt><trkpt lat="42.50317695249949" lon="11.381904143317776"><ele>95.0</ele><time>2026-04-18T11:14:25Z</time></trkpt><trkpt lat="42.50310601804749" lon="11.381858382792691"><ele>93.0</ele><time>2026-04-18T11:14:26Z</time></trkpt><trkpt lat="42.5030224059274" lon="11.381830595777425"><ele>93.0</ele><time>2026-04-18T11:14:27Z</time></trkpt><trkpt lat="42.5029260252666" lon="11.381819689560821"><ele>93.0</ele><time>2026-04-18T11:14:28Z</time></trkpt><trkpt lat="42.50283194782963" lon="11.381836695611852"><ele>93.0</ele><time>2026-04-18T11:14:29Z</time></trkpt><trkpt lat="42.50273561661144" lon="11.381879217249477"><ele>93.0</ele><time>2026-04-18T11:14:30Z</time></trkpt><trkpt lat="42.50265903471047" lon="11.381897404799087"><ele>93.0</ele><time>2026-04-18T11:14:31Z</time></trkpt><trkpt lat="42.50258900187054" lon="11.381901350566137"><ele>93.0</ele><time>2026-04-18T11:14:32Z</time></trkpt><trkpt lat="42.502501603733144" lon="11.381917241098563"><ele>92.2</ele><time>2026-04-18T11:14:33Z</time></trkpt><trkpt lat="42.502409404842766" lon="11.381922037096968"><ele>91.4</ele><time>2026-04-18T11:14:34Z</time></trkpt><trkpt lat="42.50231803097282" lon="11.381908381190506"><ele>90.60000000000001</ele><time>2026-04-18T11:14:35Z</time></trkpt><trkpt lat="42.5022211155437" lon="11.381892835553364"><ele>89.80000000000001</ele><time>2026-04-18T11:14:36Z</time></trkpt><trkpt lat="42.50210554106875" lon="11.381867064942455"><ele>89.0</ele><time>2026-04-18T11:14:37Z</time></trkpt><trkpt lat="42.501998413762266" lon="11.38184269962704"><ele>89.0</ele><time>2026-04-18T11:14:38Z</time></trkpt><trkpt lat="42.50189633223321" lon="11.381808107284513"><ele>89.0</ele><time>2026-04-18T11:14:39Z</time></trkpt><trkpt lat="42.501794163780346" lon="11.381767852525263"><ele>89.0</ele><time>2026-04-18T11:14:40Z</time></trkpt><trkpt lat="42.50167481035225" lon="11.381746054937082"><ele>89.0</ele><time>2026-04-18T11:14:41Z</time></trkpt><trkpt lat="42.5015492952779" lon="11.38176201214531"><ele>89.0</ele><time>2026-04-18T11:14:42Z</time></trkpt><trkpt lat="42.50143670821588" lon="11.38179090258984"><ele>89.0</ele><time>2026-04-18T11:14:43Z</time></trkpt><trkpt lat="42.50133709998048" lon="11.381799096440755"><ele>89.0</ele><time>2026-04-18T11:14:44Z</time></trkpt><trkpt lat="42.501235718420666" lon="11.3817660368508"><ele>89.0</ele><time>2026-04-18T11:14:45Z</time></trkpt><trkpt lat="42.501114504537654" lon="11.381719287548806"><ele>89.0</ele><time>2026-04-18T11:14:46Z</time></trkpt><trkpt lat="42.50095248874841" lon="11.381681906125152"><ele>87.33333333333334</ele><time>2026-04-18T11:14:47Z</time></trkpt><trkpt lat="42.50076513844757" lon="11.381641784059877"><ele>85.66666666666667</ele><time>2026-04-18T11:14:48Z</time></trkpt><trkpt lat="42.50061409948683" lon="11.381590342635056"><ele>84.0</ele><time>2026-04-18T11:14:49Z</time></trkpt><trkpt lat="42.50048165030112" lon="11.38156940706332"><ele>82.5</ele><time>2026-04-18T11:14:50Z</time></trkpt><trkpt lat="42.50035319592395" lon="11.381526091937054"><ele>81.0</ele><time>2026-04-18T11:14:51Z</time></trkpt><trkpt lat="42.50023056770328" lon="11.381455868945114"><ele>79.5</ele><time>2026-04-18T11:14:52Z</time></trkpt><trkpt lat="42.50010746849633" lon="11.381388826919768"><ele>78.0</ele><time>2026-04-18T11:14:53Z</time></trkpt><trkpt lat="42.49999108924506" lon="11.381390011474391"><ele>78.0</ele><time>2026-04-18T11:14:54Z</time></trkpt><trkpt lat="42.49987827188216" lon="11.381362766251762"><ele>78.0</ele><time>2026-04-18T11:14:55Z</time></trkpt><trkpt lat="42.49974783121958" lon="11.381304989948848"><ele>78.0</ele><time>2026-04-18T11:14:56Z</time></trkpt><trkpt lat="42.4996390610938" lon="11.381226975905223"><ele>78.0</ele><time>2026-04-18T11:14:57Z</time></trkpt><trkpt lat="42.499536832157474" lon="11.381118317518421"><ele>77.2</ele><time>2026-04-18T11:14:58Z</time></trkpt><trkpt lat="42.49941503965106" lon="11.381017630030106"><ele>76.4</ele><time>2026-04-18T11:14:59Z</time></trkpt><trkpt lat="42.499318854340586" lon="11.3809567689869"><ele>75.60000000000001</ele><time>2026-04-18T11:15:00Z</time></trkpt><trkpt lat="42.49924947226113" lon="11.380909628032015"><ele>74.8</ele><time>2026-04-18T11:15:01Z</time></trkpt><trkpt lat="42.49915242085942" lon="11.380877243220585"><ele>74.0</ele><time>2026-04-18T11:15:03Z</time></trkpt><trkpt lat="42.49912201246309" lon="11.380793698195943"><ele>74.0</ele><time>2026-04-18T11:15:05Z</time></trkpt><trkpt lat="42.49911337374593" lon="11.38063554274192"><ele>74.0</ele><time>2026-04-18T11:15:07Z</time></trkpt><trkpt lat="42.499078469176986" lon="11.380539177285018"><ele>74.0</ele><time>2026-04-18T11:15:08Z</time></trkpt><trkpt lat="42.499080799894685" lon="11.38043118327038"><ele>74.0</ele><time>2026-04-18T11:15:09Z</time></trkpt><trkpt lat="42.49907658393618" lon="11.380322091379982"><ele>74.0</ele><time>2026-04-18T11:15:10Z</time></trkpt><trkpt lat="42.49907367133489" lon="11.380203912399764"><ele>74.0</ele><time>2026-04-18T11:15:11Z</time></trkpt><trkpt lat="42.499053988774506" lon="11.380079291372306"><ele>73.60000000000001</ele><time>2026-04-18T11:15:12Z</time></trkpt><trkpt lat="42.499026682020364" lon="11.379938126612828"><ele>73.2</ele><time>2026-04-18T11:15:13Z</time></trkpt><trkpt lat="42.49898179774411" lon="11.379806181537647"><ele>72.80000000000001</ele><time>2026-04-18T11:15:14Z</time></trkpt><trkpt lat="42.49895422006052" lon="11.379663827940313"><ele>72.4</ele><time>2026-04-18T11:15:15Z</time></trkpt><trkpt lat="42.498908445699755" lon="11.379510718424589"><ele>72.0</ele><time>2026-04-18T11:15:16Z</time></trkpt><trkpt lat="42.4988547025341" lon="11.379370046514286"><ele>70.0</ele><time>2026-04-18T11:15:17Z</time></trkpt><trkpt lat="42.49880180391968" lon="11.379209008118073"><ele>68.0</ele><time>2026-04-18T11:15:18Z</time></trkpt><trkpt lat="42.49875255434602" lon="11.379044815945656"><ele>66.0</ele><time>2026-04-18T11:15:19Z</time></trkpt><trkpt lat="42.498694636345704" lon="11.378893904590608"><ele>64.0</ele><time>2026-04-18T11:15:20Z</time></trkpt><trkpt lat="42.49862629357807" lon="11.378756573407744"><ele>63.25</ele><time>2026-04-18T11:15:21Z</time></trkpt><trkpt lat="42.4985332277743" lon="11.378624519375022"><ele>62.5</ele><time>2026-04-18T11:15:22Z</time></trkpt><trkpt lat="42.49843111534202" lon="11.378490758737428"><ele>61.75</ele><time>2026-04-18T11:15:23Z</time></trkpt><trkpt lat="42.49833261051185" lon="11.378361183407423"><ele>61.0</ele><time>2026-04-18T11:15:24Z</time></trkpt><trkpt lat="42.498216192398836" lon="11.378207199354607"><ele>61.0</ele><time>2026-04-18T11:15:25Z</time></trkpt><trkpt lat="42.49809705035085" lon="11.378043325691944"><ele>61.0</ele><time>2026-04-18T11:15:26Z</time></trkpt><trkpt lat="42.49797329621607" lon="11.377885600481072"><ele>61.0</ele><time>2026-04-18T11:15:27Z</time></trkpt><trkpt lat="42.49787188382756" lon="11.377762327433581"><ele>59.75</ele><time>2026-04-18T11:15:28Z</time></trkpt><trkpt lat="42.49776649398956" lon="11.377630722999115"><ele>58.5</ele><time>2026-04-18T11:15:29Z</time></trkpt><trkpt lat="42.49765682573594" lon="11.37749906578355"><ele>57.25</ele><time>2026-04-18T11:15:30Z</time></trkpt><trkpt lat="42.49754556647424" lon="11.37738298597899"><ele>56.0</ele><time>2026-04-18T11:15:31Z</time></trkpt><trkpt lat="42.497435460812035" lon="11.377246867369099"><ele>54.66666666666667</ele><time>2026-04-18T11:15:32Z</time></trkpt><trkpt lat="42.49731536635125" lon="11.377116167246353"><ele>53.33333333333333</ele><time>2026-04-18T11:15:33Z</time></trkpt><trkpt lat="42.497200407949315" lon="11.37698692449522"><ele>52.0</ele><time>2026-04-18T11:15:34Z</time></trkpt><trkpt lat="42.497084391704476" lon="11.376844848205298"><ele>51.25</ele><time>2026-04-18T11:15:35Z</time></trkpt><trkpt lat="42.49698107679744" lon="11.376704711867259"><ele>50.5</ele><time>2026-04-18T11:15:36Z</time></trkpt><trkpt lat="42.496867171114346" lon="11.376584749797976"><ele>49.75</ele><time>2026-04-18T11:15:37Z</time></trkpt><trkpt lat="42.49675998388094" lon="11.37645780622444"><ele>49.0</ele><time>2026-04-18T11:15:38Z</time></trkpt><trkpt lat="42.49666722627502" lon="11.376325937908415"><ele>48.25</ele><time>2026-04-18T11:15:39Z</time></trkpt><trkpt lat="42.49655660195547" lon="11.376232101146329"><ele>47.5</ele><time>2026-04-18T11:15:40Z</time></trkpt><trkpt lat="42.49644599444485" lon="11.376116120483355"><ele>46.75</ele><time>2026-04-18T11:15:41Z</time></trkpt><trkpt lat="42.49634806480043" lon="11.376016052723788"><ele>46.0</ele><time>2026-04-18T11:15:42Z</time></trkpt><trkpt lat="42.49627566752375" lon="11.375897282566465"><ele>45.75</ele><time>2026-04-18T11:15:43Z</time></trkpt><trkpt lat="42.496191279245615" lon="11.3757607775422"><ele>45.5</ele><time>2026-04-18T11:15:44Z</time></trkpt><trkpt lat="42.4961285254374" lon="11.37560846076057"><ele>45.25</ele><time>2026-04-18T11:15:45Z</time></trkpt><trkpt lat="42.49607021338657" lon="11.375443097761782"><ele>45.0</ele><time>2026-04-18T11:15:46Z</time></trkpt><trkpt lat="42.49601567987687" lon="11.375270428529973"><ele>45.0</ele><time>2026-04-18T11:15:47Z</time></trkpt><trkpt lat="42.49598968253276" lon="11.375086927789248"><ele>45.0</ele><time>2026-04-18T11:15:48Z</time></trkpt><trkpt lat="42.495975024682096" lon="11.374893261799807"><ele>45.0</ele><time>2026-04-18T11:15:49Z</time></trkpt><trkpt lat="42.49596183447581" lon="11.37467530940229"><ele>45.0</ele><time>2026-04-18T11:15:50Z</time></trkpt><trkpt lat="42.49595546008574" lon="11.3744645839182"><ele>45.0</ele><time>2026-04-18T11:15:51Z</time></trkpt><trkpt lat="42.49592468285213" lon="11.374255247718438"><ele>45.0</ele><time>2026-04-18T11:15:52Z</time></trkpt><trkpt lat="42.495896191552056" lon="11.374052524678781"><ele>45.0</ele><time>2026-04-18T11:15:53Z</time></trkpt><trkpt lat="42.49584947259492" lon="11.37385178352824"><ele>45.0</ele><time>2026-04-18T11:15:54Z</time></trkpt><trkpt lat="42.49578141315326" lon="11.373652663199243"><ele>45.0</ele><time>2026-04-18T11:15:55Z</time></trkpt><trkpt lat="42.49573014371713" lon="11.373445988751103"><ele>45.0</ele><time>2026-04-18T11:15:56Z</time></trkpt><trkpt lat="42.495675589057385" lon="11.373232591234238"><ele>45.333333333333336</ele><time>2026-04-18T11:15:57Z</time></trkpt><trkpt lat="42.49562388462609" lon="11.373013883335028"><ele>45.66666666666667</ele><time>2026-04-18T11:15:58Z</time></trkpt><trkpt lat="42.49555781030551" lon="11.372794087010009"><ele>46.0</ele><time>2026-04-18T11:15:59Z</time></trkpt><trkpt lat="42.49552635130159" lon="11.372558487181834"><ele>46.0</ele><time>2026-04-18T11:16:00Z</time></trkpt><trkpt lat="42.495469491716555" lon="11.372337535388642"><ele>46.0</ele><time>2026-04-18T11:16:01Z</time></trkpt><trkpt lat="42.4954147896347" lon="11.37212197586121"><ele>46.0</ele><time>2026-04-18T11:16:02Z</time></trkpt><trkpt lat="42.49533802622889" lon="11.371919795917298"><ele>44.333333333333336</ele><time>2026-04-18T11:16:03Z</time></trkpt><trkpt lat="42.49524545996123" lon="11.371720966385285"><ele>42.666666666666664</ele><time>2026-04-18T11:16:04Z</time></trkpt><trkpt lat="42.495150008307995" lon="11.371523643330235"><ele>41.0</ele><time>2026-04-18T11:16:05Z</time></trkpt><trkpt lat="42.49505837578652" lon="11.371307582188582"><ele>41.0</ele><time>2026-04-18T11:16:06Z</time></trkpt><trkpt lat="42.494966843533184" lon="11.371087769346593"><ele>41.0</ele><time>2026-04-18T11:16:07Z</time></trkpt><trkpt lat="42.4948679477601" lon="11.37086042119428"><ele>41.0</ele><time>2026-04-18T11:16:08Z</time></trkpt><trkpt lat="42.49477283231359" lon="11.37064259399555"><ele>40.33333333333333</ele><time>2026-04-18T11:16:09Z</time></trkpt><trkpt lat="42.494697786779284" lon="11.370408411345279"><ele>39.666666666666664</ele><time>2026-04-18T11:16:10Z</time></trkpt><trkpt lat="42.49461244347704" lon="11.370172864251916"><ele>39.0</ele><time>2026-04-18T11:16:11Z</time></trkpt><trkpt lat="42.49452843803764" lon="11.36993670968123"><ele>38.0</ele><time>2026-04-18T11:16:12Z</time></trkpt><trkpt lat="42.49442780641682" lon="11.36970888704244"><ele>37.0</ele><time>2026-04-18T11:16:13Z</time></trkpt><trkpt lat="42.49434167409677" lon="11.369477097538187"><ele>36.0</ele><time>2026-04-18T11:16:14Z</time></trkpt><trkpt lat="42.49426301680837" lon="11.369276797397555"><ele>36.0</ele><time>2026-04-18T11:16:15Z</time></trkpt><trkpt lat="42.49418313975138" lon="11.36908738119878"><ele>36.0</ele><time>2026-04-18T11:16:16Z</time></trkpt><trkpt lat="42.49412490122346" lon="11.36889726502754"><ele>36.0</ele><time>2026-04-18T11:16:17Z</time></trkpt><trkpt lat="42.49405479029942" lon="11.368709963491446"><ele>36.666666666666664</ele><time>2026-04-18T11:16:18Z</time></trkpt><trkpt lat="42.494001801154134" lon="11.368514534853304"><ele>37.33333333333333</ele><time>2026-04-18T11:16:19Z</time></trkpt><trkpt lat="42.493969247518486" lon="11.368304414091929"><ele>38.0</ele><time>2026-04-18T11:16:20Z</time></trkpt><trkpt lat="42.49394071061031" lon="11.36808234648649"><ele>38.666666666666664</ele><time>2026-04-18T11:16:21Z</time></trkpt><trkpt lat="42.49389400210859" lon="11.367856274051857"><ele>39.333333333333336</ele><time>2026-04-18T11:16:22Z</time></trkpt><trkpt lat="42.49385427661768" lon="11.367620450182658"><ele>40.0</ele><time>2026-04-18T11:16:23Z</time></trkpt><trkpt lat="42.49380395203712" lon="11.367397324476007"><ele>38.333333333333336</ele><time>2026-04-18T11:16:24Z</time></trkpt><trkpt lat="42.49374592486717" lon="11.367165987291864"><ele>36.666666666666664</ele><time>2026-04-18T11:16:25Z</time></trkpt><trkpt lat="42.49368555118863" lon="11.366915191182255"><ele>35.0</ele><time>2026-04-18T11:16:26Z</time></trkpt><trkpt lat="42.49363034221094" lon="11.366676951061054"><ele>35.0</ele><time>2026-04-18T11:16:27Z</time></trkpt><trkpt lat="42.493587201233005" lon="11.36646622648033"><ele>35.0</ele><time>2026-04-18T11:16:28Z</time></trkpt><trkpt lat="42.49354903434995" lon="11.366269764527871"><ele>35.0</ele><time>2026-04-18T11:16:29Z</time></trkpt><trkpt lat="42.493511043393376" lon="11.366086735081783"><ele>35.25</ele><time>2026-04-18T11:16:30Z</time></trkpt><trkpt lat="42.49346385876725" lon="11.365922832906357"><ele>35.5</ele><time>2026-04-18T11:16:31Z</time></trkpt><trkpt lat="42.49337161456108" lon="11.365726193975425"><ele>35.75</ele><time>2026-04-18T11:16:32Z</time></trkpt><trkpt lat="42.493283458208424" lon="11.365568616105485"><ele>36.0</ele><time>2026-04-18T11:16:33Z</time></trkpt><trkpt lat="42.49319827694044" lon="11.36542890253006"><ele>36.25</ele><time>2026-04-18T11:16:34Z</time></trkpt><trkpt lat="42.493138897554594" lon="11.365314520967935"><ele>36.5</ele><time>2026-04-18T11:16:35Z</time></trkpt><trkpt lat="42.49310746531178" lon="11.365175866587899"><ele>36.75</ele><time>2026-04-18T11:16:36Z</time></trkpt><trkpt lat="42.493061884744094" lon="11.365026065027807"><ele>37.0</ele><time>2026-04-18T11:16:37Z</time></trkpt><trkpt lat="42.49304220077917" lon="11.364824854297206"><ele>37.0</ele><time>2026-04-18T11:16:38Z</time></trkpt><trkpt lat="42.493034525729165" lon="11.364630468076646"><ele>37.0</ele><time>2026-04-18T11:16:39Z</time></trkpt><trkpt lat="42.49302812896548" lon="11.364451711130034"><ele>37.0</ele><time>2026-04-18T11:16:40Z</time></trkpt><trkpt lat="42.49299370008636" lon="11.364290382597234"><ele>37.0</ele><time>2026-04-18T11:16:41Z</time></trkpt><trkpt lat="42.49293295689623" lon="11.364138949302104"><ele>35.5</ele><time>2026-04-18T11:16:42Z</time></trkpt><trkpt lat="42.49285481525145" lon="11.363947232663405"><ele>34.0</ele><time>2026-04-18T11:16:43Z</time></trkpt><trkpt lat="42.49281152835208" lon="11.36375536128077"><ele>32.5</ele><time>2026-04-18T11:16:44Z</time></trkpt><trkpt lat="42.492747428983854" lon="11.363598981490949"><ele>31.0</ele><time>2026-04-18T11:16:45Z</time></trkpt><trkpt lat="42.49269122805361" lon="11.363444251659757"><ele>30.5</ele><time>2026-04-18T11:16:46Z</time></trkpt><trkpt lat="42.49263668489847" lon="11.363292561850006"><ele>30.0</ele><time>2026-04-18T11:16:47Z</time></trkpt><trkpt lat="42.49259940203705" lon="11.363159798103574"><ele>29.5</ele><time>2026-04-18T11:16:48Z</time></trkpt><trkpt lat="42.49258024955029" lon="11.362991203344418"><ele>29.0</ele><time>2026-04-18T11:16:49Z</time></trkpt><trkpt lat="42.492540883214716" lon="11.362852984232783"><ele>28.2</ele><time>2026-04-18T11:16:50Z</time></trkpt><trkpt lat="42.49252850701698" lon="11.362694962313254"><ele>27.4</ele><time>2026-04-18T11:16:51Z</time></trkpt><trkpt lat="42.49250211590413" lon="11.362554735031843"><ele>26.6</ele><time>2026-04-18T11:16:52Z</time></trkpt><trkpt lat="42.492458963378" lon="11.36244034530928"><ele>25.8</ele><time>2026-04-18T11:16:53Z</time></trkpt><trkpt lat="42.49238719495431" lon="11.362336305362028"><ele>25.0</ele><time>2026-04-18T11:16:54Z</time></trkpt><trkpt lat="42.492310492263925" lon="11.362232009150478"><ele>24.6</ele><time>2026-04-18T11:16:55Z</time></trkpt><trkpt lat="42.49228390900539" lon="11.362106933642876"><ele>24.2</ele><time>2026-04-18T11:16:56Z</time></trkpt><trkpt lat="42.49232829983273" lon="11.36197720388878"><ele>23.799999999999997</ele><time>2026-04-18T11:16:57Z</time></trkpt><trkpt lat="42.49233751015256" lon="11.361824597092351"><ele>23.4</ele><time>2026-04-18T11:16:58Z</time></trkpt><trkpt lat="42.492364869678816" lon="11.361689629272183"><ele>23.0</ele><time>2026-04-18T11:16:59Z</time></trkpt><trkpt lat="42.49238069045107" lon="11.361538529860189"><ele>23.0</ele><time>2026-04-18T11:17:00Z</time></trkpt><trkpt lat="42.492371481739795" lon="11.361373246267762"><ele>23.0</ele><time>2026-04-18T11:17:01Z</time></trkpt><trkpt lat="42.49234186756258" lon="11.361201805655217"><ele>23.0</ele><time>2026-04-18T11:17:02Z</time></trkpt><trkpt lat="42.49230127365238" lon="11.361017774207818"><ele>23.0</ele><time>2026-04-18T11:17:03Z</time></trkpt><trkpt lat="42.49225568657385" lon="11.360834166822212"><ele>22.75</ele><time>2026-04-18T11:17:04Z</time></trkpt><trkpt lat="42.49221510758476" lon="11.360638540128301"><ele>22.5</ele><time>2026-04-18T11:17:05Z</time></trkpt><trkpt lat="42.49218251762883" lon="11.360444360127083"><ele>22.25</ele><time>2026-04-18T11:17:06Z</time></trkpt><trkpt lat="42.49216814054141" lon="11.360260960020748"><ele>22.0</ele><time>2026-04-18T11:17:07Z</time></trkpt><trkpt lat="42.492142288265526" lon="11.360091595857071"><ele>23.333333333333332</ele><time>2026-04-18T11:17:08Z</time></trkpt><trkpt lat="42.49208614340419" lon="11.359840172657638"><ele>24.666666666666664</ele><time>2026-04-18T11:17:09Z</time></trkpt><trkpt lat="42.492049529520905" lon="11.359618938855062"><ele>26.0</ele><time>2026-04-18T11:17:10Z</time></trkpt><trkpt lat="42.49201009609307" lon="11.35939721503837"><ele>26.0</ele><time>2026-04-18T11:17:11Z</time></trkpt><trkpt lat="42.49197214132982" lon="11.359166511871374"><ele>26.0</ele><time>2026-04-18T11:17:12Z</time></trkpt><trkpt lat="42.491935374414375" lon="11.358939109103234"><ele>26.0</ele><time>2026-04-18T11:17:13Z</time></trkpt><trkpt lat="42.491892422906986" lon="11.35871921188989"><ele>25.666666666666664</ele><time>2026-04-18T11:17:14Z</time></trkpt><trkpt lat="42.49184979115099" lon="11.358499558785944"><ele>25.333333333333336</ele><time>2026-04-18T11:17:15Z</time></trkpt><trkpt lat="42.491811251638474" lon="11.358280385223951"><ele>25.0</ele><time>2026-04-18T11:17:16Z</time></trkpt><trkpt lat="42.49177396382427" lon="11.358067151746166"><ele>24.333333333333336</ele><time>2026-04-18T11:17:17Z</time></trkpt><trkpt lat="42.491756667176865" lon="11.357849282209536"><ele>23.666666666666668</ele><time>2026-04-18T11:17:18Z</time></trkpt><trkpt lat="42.49172742831447" lon="11.3576316309848"><ele>23.0</ele><time>2026-04-18T11:17:19Z</time></trkpt><trkpt lat="42.49167542443606" lon="11.3574313654065"><ele>23.0</ele><time>2026-04-18T11:17:20Z</time></trkpt><trkpt lat="42.491629992408726" lon="11.357235964344415"><ele>23.0</ele><time>2026-04-18T11:17:21Z</time></trkpt><trkpt lat="42.49159958171734" lon="11.357035989377474"><ele>23.0</ele><time>2026-04-18T11:17:22Z</time></trkpt><trkpt lat="42.491562276054616" lon="11.356837046831368"><ele>23.0</ele><time>2026-04-18T11:17:23Z</time></trkpt><trkpt lat="42.491509754753906" lon="11.35663807475274"><ele>23.0</ele><time>2026-04-18T11:17:24Z</time></trkpt><trkpt lat="42.491473382943106" lon="11.356431719561941"><ele>23.0</ele><time>2026-04-18T11:17:25Z</time></trkpt><trkpt lat="42.491456515574434" lon="11.35623036943693"><ele>23.25</ele><time>2026-04-18T11:17:26Z</time></trkpt><trkpt lat="42.49142702021393" lon="11.356044842417226"><ele>23.5</ele><time>2026-04-18T11:17:27Z</time></trkpt><trkpt lat="42.491396905571484" lon="11.355860840669923"><ele>23.75</ele><time>2026-04-18T11:17:28Z</time></trkpt><trkpt lat="42.4913685844813" lon="11.355687797421805"><ele>24.0</ele><time>2026-04-18T11:17:29Z</time></trkpt><trkpt lat="42.49134210418229" lon="11.355526001641447"><ele>24.0</ele><time>2026-04-18T11:17:30Z</time></trkpt><trkpt lat="42.49131668169641" lon="11.355370669070709"><ele>24.0</ele><time>2026-04-18T11:17:31Z</time></trkpt><trkpt lat="42.49128100322187" lon="11.355223994492576"><ele>24.0</ele><time>2026-04-18T11:17:32Z</time></trkpt><trkpt lat="42.49126187250999" lon="11.35508740126217"><ele>24.0</ele><time>2026-04-18T11:17:33Z</time></trkpt><trkpt lat="42.491241177932594" lon="11.35496478077475"><ele>24.0</ele><time>2026-04-18T11:17:34Z</time></trkpt><trkpt lat="42.49121914828109" lon="11.354855168774343"><ele>24.333333333333332</ele><time>2026-04-18T11:17:35Z</time></trkpt><trkpt lat="42.491188687295" lon="11.354698660391527"><ele>24.666666666666664</ele><time>2026-04-18T11:17:37Z</time></trkpt><trkpt lat="42.49116886159616" lon="11.354597737238898"><ele>25.0</ele><time>2026-04-18T11:17:40Z</time></trkpt><trkpt lat="42.49119530025814" lon="11.354476137632838"><ele>25.333333333333332</ele><time>2026-04-18T11:18:04Z</time></trkpt><trkpt lat="42.491228395947466" lon="11.354397414907158"><ele>25.666666666666664</ele><time>2026-04-18T11:18:05Z</time></trkpt><trkpt lat="42.49128134927064" lon="11.354303469109665"><ele>26.0</ele><time>2026-04-18T11:18:06Z</time></trkpt><trkpt lat="42.49134314526833" lon="11.35418670022114"><ele>25.0</ele><time>2026-04-18T11:18:07Z</time></trkpt><trkpt lat="42.49140424780012" lon="11.354062750911297"><ele>24.0</ele><time>2026-04-18T11:18:08Z</time></trkpt><trkpt lat="42.491471568657154" lon="11.35392416576641"><ele>23.0</ele><time>2026-04-18T11:18:09Z</time></trkpt><trkpt lat="42.491541380224696" lon="11.353773251462988"><ele>22.0</ele><time>2026-04-18T11:18:10Z</time></trkpt><trkpt lat="42.491619633050774" lon="11.353608000511372"><ele>22.0</ele><time>2026-04-18T11:18:11Z</time></trkpt><trkpt lat="42.4917070730382" lon="11.353427563112763"><ele>22.0</ele><time>2026-04-18T11:18:12Z</time></trkpt><trkpt lat="42.491788132036234" lon="11.353258016490194"><ele>22.0</ele><time>2026-04-18T11:18:13Z</time></trkpt><trkpt lat="42.49187952350237" lon="11.353070320711266"><ele>22.333333333333332</ele><time>2026-04-18T11:18:14Z</time></trkpt><trkpt lat="42.491969296179064" lon="11.352885260664559"><ele>22.666666666666668</ele><time>2026-04-18T11:18:15Z</time></trkpt><trkpt lat="42.49207119222858" lon="11.352674196042452"><ele>23.0</ele><time>2026-04-18T11:18:16Z</time></trkpt><trkpt lat="42.49216830482068" lon="11.352463298991102"><ele>22.666666666666668</ele><time>2026-04-18T11:18:17Z</time></trkpt><trkpt lat="42.49226728557392" lon="11.35225825282886"><ele>22.333333333333332</ele><time>2026-04-18T11:18:18Z</time></trkpt><trkpt lat="42.49236797380523" lon="11.352050960447412"><ele>22.0</ele><time>2026-04-18T11:18:19Z</time></trkpt><trkpt lat="42.492470871811314" lon="11.35183481045664"><ele>22.0</ele><time>2026-04-18T11:18:20Z</time></trkpt><trkpt lat="42.492576270422795" lon="11.35162532205527"><ele>22.0</ele><time>2026-04-18T11:18:21Z</time></trkpt><trkpt lat="42.49267551553218" lon="11.351422667192661"><ele>22.0</ele><time>2026-04-18T11:18:22Z</time></trkpt><trkpt lat="42.49277547853686" lon="11.35120813947909"><ele>21.666666666666664</ele><time>2026-04-18T11:18:23Z</time></trkpt><trkpt lat="42.492877538814724" lon="11.350987703952446"><ele>21.333333333333332</ele><time>2026-04-18T11:18:24Z</time></trkpt><trkpt lat="42.49297979849588" lon="11.3507753627668"><ele>21.0</ele><time>2026-04-18T11:18:25Z</time></trkpt><trkpt lat="42.49308059065911" lon="11.350579349773422"><ele>21.666666666666668</ele><time>2026-04-18T11:18:26Z</time></trkpt><trkpt lat="42.49318110201624" lon="11.350368124258855"><ele>22.333333333333336</ele><time>2026-04-18T11:18:27Z</time></trkpt><trkpt lat="42.4932854717754" lon="11.350157625067359"><ele>23.0</ele><time>2026-04-18T11:18:28Z</time></trkpt><trkpt lat="42.493384479915264" lon="11.349954158626044"><ele>23.0</ele><time>2026-04-18T11:18:29Z</time></trkpt><trkpt lat="42.493485011765394" lon="11.349745457873277"><ele>23.0</ele><time>2026-04-18T11:18:30Z</time></trkpt><trkpt lat="42.49358623694103" lon="11.349534961523979"><ele>23.0</ele><time>2026-04-18T11:18:31Z</time></trkpt><trkpt lat="42.49369320568354" lon="11.34931285541369"><ele>22.333333333333336</ele><time>2026-04-18T11:18:32Z</time></trkpt><trkpt lat="42.49379528956978" lon="11.349093056649144"><ele>21.666666666666668</ele><time>2026-04-18T11:18:33Z</time></trkpt><trkpt lat="42.493890966656686" lon="11.348876356383084"><ele>21.0</ele><time>2026-04-18T11:18:34Z</time></trkpt><trkpt lat="42.49398478700872" lon="11.348677323624676"><ele>21.0</ele><time>2026-04-18T11:18:35Z</time></trkpt><trkpt lat="42.494108157943174" lon="11.348499594259495"><ele>21.0</ele><time>2026-04-18T11:18:36Z</time></trkpt><trkpt lat="42.49426937487557" lon="11.348382110468682"><ele>21.0</ele><time>2026-04-18T11:18:37Z</time></trkpt><trkpt lat="42.494431609209144" lon="11.348260188463396"><ele>21.0</ele><time>2026-04-18T11:18:38Z</time></trkpt><trkpt lat="42.49458444883654" lon="11.34813265243838"><ele>21.0</ele><time>2026-04-18T11:18:39Z</time></trkpt><trkpt lat="42.49475859358293" lon="11.348026046571533"><ele>21.0</ele><time>2026-04-18T11:18:40Z</time></trkpt><trkpt lat="42.49492554299923" lon="11.347910299379679"><ele>20.0</ele><time>2026-04-18T11:18:41Z</time></trkpt><trkpt lat="42.49508459117524" lon="11.347792905574726"><ele>19.0</ele><time>2026-04-18T11:18:42Z</time></trkpt><trkpt lat="42.49524864516412" lon="11.347681814059385"><ele>18.0</ele><time>2026-04-18T11:18:43Z</time></trkpt><trkpt lat="42.49541612689799" lon="11.34756177146545"><ele>18.333333333333332</ele><time>2026-04-18T11:18:44Z</time></trkpt><trkpt lat="42.495576338188165" lon="11.347448059027231"><ele>18.666666666666664</ele><time>2026-04-18T11:18:45Z</time></trkpt><trkpt lat="42.49573045214994" lon="11.347310802409309"><ele>19.0</ele><time>2026-04-18T11:18:46Z</time></trkpt><trkpt lat="42.49587101385876" lon="11.3471470054322"><ele>19.0</ele><time>2026-04-18T11:18:47Z</time></trkpt><trkpt lat="42.49599789553412" lon="11.346999522376795"><ele>19.0</ele><time>2026-04-18T11:18:48Z</time></trkpt><trkpt lat="42.496112114124855" lon="11.346860268800208"><ele>19.0</ele><time>2026-04-18T11:18:49Z</time></trkpt><trkpt lat="42.49620488903099" lon="11.346716306362136"><ele>22.5</ele><time>2026-04-18T11:18:50Z</time></trkpt><trkpt lat="42.49627800243374" lon="11.346560577565862"><ele>26.0</ele><time>2026-04-18T11:18:51Z</time></trkpt><trkpt lat="42.49630915995077" lon="11.34638786913423"><ele>29.5</ele><time>2026-04-18T11:18:52Z</time></trkpt><trkpt lat="42.49630724744836" lon="11.346201836593156"><ele>33.0</ele><time>2026-04-18T11:18:53Z</time></trkpt><trkpt lat="42.49629146204519" lon="11.345995924633542"><ele>33.0</ele><time>2026-04-18T11:18:54Z</time></trkpt><trkpt lat="42.496304572407674" lon="11.345797897865989"><ele>33.0</ele><time>2026-04-18T11:18:55Z</time></trkpt><trkpt lat="42.496339314759524" lon="11.345595042723538"><ele>33.0</ele><time>2026-04-18T11:18:56Z</time></trkpt><trkpt lat="42.496371841299094" lon="11.345407031090152"><ele>33.0</ele><time>2026-04-18T11:18:57Z</time></trkpt><trkpt lat="42.49645700216437" lon="11.345216140197483"><ele>32.0</ele><time>2026-04-18T11:18:58Z</time></trkpt><trkpt lat="42.49654191428192" lon="11.345021322293864"><ele>31.0</ele><time>2026-04-18T11:18:59Z</time></trkpt><trkpt lat="42.496639454534204" lon="11.344838133711521"><ele>30.0</ele><time>2026-04-18T11:19:00Z</time></trkpt><trkpt lat="42.496747004087446" lon="11.34464796052467"><ele>30.333333333333336</ele><time>2026-04-18T11:19:01Z</time></trkpt><trkpt lat="42.49685250337882" lon="11.34444372201147"><ele>30.666666666666668</ele><time>2026-04-18T11:19:02Z</time></trkpt><trkpt lat="42.49697825220859" lon="11.344260401483377"><ele>31.0</ele><time>2026-04-18T11:19:03Z</time></trkpt><trkpt lat="42.497103802217964" lon="11.344076572207017"><ele>31.0</ele><time>2026-04-18T11:19:04Z</time></trkpt><trkpt lat="42.49724006689693" lon="11.343892813160998"><ele>31.0</ele><time>2026-04-18T11:19:05Z</time></trkpt><trkpt lat="42.497398234363956" lon="11.343755036464803"><ele>31.0</ele><time>2026-04-18T11:19:06Z</time></trkpt><trkpt lat="42.49755156224428" lon="11.343616273324878"><ele>28.0</ele><time>2026-04-18T11:19:07Z</time></trkpt><trkpt lat="42.497707467091516" lon="11.343476937649479"><ele>25.0</ele><time>2026-04-18T11:19:08Z</time></trkpt><trkpt lat="42.49786744445286" lon="11.343333867857018"><ele>22.0</ele><time>2026-04-18T11:19:09Z</time></trkpt><trkpt lat="42.49802759070854" lon="11.343189691259317"><ele>20.666666666666664</ele><time>2026-04-18T11:19:10Z</time></trkpt><trkpt lat="42.49818579513688" lon="11.343031091309049"><ele>19.333333333333332</ele><time>2026-04-18T11:19:11Z</time></trkpt><trkpt lat="42.49835196365475" lon="11.342887118542484"><ele>18.0</ele><time>2026-04-18T11:19:12Z</time></trkpt><trkpt lat="42.49851941807203" lon="11.342737545952339"><ele>18.0</ele><time>2026-04-18T11:19:13Z</time></trkpt><trkpt lat="42.49868533410762" lon="11.342585183622433"><ele>18.0</ele><time>2026-04-18T11:19:14Z</time></trkpt><trkpt lat="42.49885053737146" lon="11.34243501678307"><ele>18.0</ele><time>2026-04-18T11:19:15Z</time></trkpt><trkpt lat="42.49901510859066" lon="11.342285295289534"><ele>17.666666666666668</ele><time>2026-04-18T11:19:16Z</time></trkpt><trkpt lat="42.49917446948678" lon="11.342141431851385"><ele>17.333333333333336</ele><time>2026-04-18T11:19:17Z</time></trkpt><trkpt lat="42.49932853724524" lon="11.342004394821583"><ele>17.0</ele><time>2026-04-18T11:19:18Z</time></trkpt><trkpt lat="42.49948016144156" lon="11.341865442393445"><ele>17.333333333333336</ele><time>2026-04-18T11:19:19Z</time></trkpt><trkpt lat="42.49962955313939" lon="11.341723728985295"><ele>17.666666666666668</ele><time>2026-04-18T11:19:20Z</time></trkpt><trkpt lat="42.499774144521176" lon="11.34158870993876"><ele>18.0</ele><time>2026-04-18T11:19:21Z</time></trkpt><trkpt lat="42.499927589838066" lon="11.341462320844947"><ele>17.333333333333332</ele><time>2026-04-18T11:19:22Z</time></trkpt><trkpt lat="42.50007599505071" lon="11.341327544411014"><ele>16.666666666666664</ele><time>2026-04-18T11:19:23Z</time></trkpt><trkpt lat="42.50022565077444" lon="11.341193987549094"><ele>16.0</ele><time>2026-04-18T11:19:24Z</time></trkpt><trkpt lat="42.500371170710025" lon="11.341057492946439"><ele>15.666666666666666</ele><time>2026-04-18T11:19:25Z</time></trkpt><trkpt lat="42.5005177883192" lon="11.340924586417977"><ele>15.333333333333332</ele><time>2026-04-18T11:19:26Z</time></trkpt><trkpt lat="42.50066535299145" lon="11.340792789138625"><ele>15.0</ele><time>2026-04-18T11:19:27Z</time></trkpt><trkpt lat="42.50081188019425" lon="11.340662457780175"><ele>15.333333333333332</ele><time>2026-04-18T11:19:28Z</time></trkpt><trkpt lat="42.500956563946204" lon="11.340527404823945"><ele>15.666666666666666</ele><time>2026-04-18T11:19:29Z</time></trkpt><trkpt lat="42.50110289827135" lon="11.34039838566438"><ele>16.0</ele><time>2026-04-18T11:19:30Z</time></trkpt><trkpt lat="42.50125628118561" lon="11.340254287856313"><ele>16.666666666666664</ele><time>2026-04-18T11:19:31Z</time></trkpt><trkpt lat="42.501404589345746" lon="11.34011683158368"><ele>17.333333333333332</ele><time>2026-04-18T11:19:32Z</time></trkpt><trkpt lat="42.50154923737871" lon="11.339986321870356"><ele>18.0</ele><time>2026-04-18T11:19:33Z</time></trkpt><trkpt lat="42.50169883972908" lon="11.33984974362688"><ele>18.0</ele><time>2026-04-18T11:19:34Z</time></trkpt><trkpt lat="42.50184872065911" lon="11.339717449267445"><ele>18.0</ele><time>2026-04-18T11:19:35Z</time></trkpt><trkpt lat="42.50199108280859" lon="11.339590954604674"><ele>18.0</ele><time>2026-04-18T11:19:36Z</time></trkpt><trkpt lat="42.50213840220569" lon="11.339453044081129"><ele>18.666666666666668</ele><time>2026-04-18T11:19:37Z</time></trkpt><trkpt lat="42.50229460437654" lon="11.339315803871683"><ele>19.333333333333336</ele><time>2026-04-18T11:19:38Z</time></trkpt><trkpt lat="42.50243933271432" lon="11.33918339817931"><ele>20.0</ele><time>2026-04-18T11:19:39Z</time></trkpt><trkpt lat="42.50258742481038" lon="11.339051085210201"><ele>20.0</ele><time>2026-04-18T11:19:40Z</time></trkpt><trkpt lat="42.50273838056158" lon="11.338915919791207"><ele>20.0</ele><time>2026-04-18T11:19:41.001Z</time></trkpt><trkpt lat="42.50288818134965" lon="11.338779503571644"><ele>20.0</ele><time>2026-04-18T11:19:42Z</time></trkpt><trkpt lat="42.50304653569179" lon="11.33863376506351"><ele>19.666666666666668</ele><time>2026-04-18T11:19:43Z</time></trkpt><trkpt lat="42.50319733945277" lon="11.338495245246047"><ele>19.333333333333332</ele><time>2026-04-18T11:19:44Z</time></trkpt><trkpt lat="42.50335187606156" lon="11.338352705485528"><ele>19.0</ele><time>2026-04-18T11:19:45Z</time></trkpt><trkpt lat="42.50349799799279" lon="11.33821743817238"><ele>19.0</ele><time>2026-04-18T11:19:46Z</time></trkpt><trkpt lat="42.50365849443019" lon="11.338082320119748"><ele>19.0</ele><time>2026-04-18T11:19:47Z</time></trkpt><trkpt lat="42.50381599144386" lon="11.337939854426613"><ele>19.0</ele><time>2026-04-18T11:19:48Z</time></trkpt><trkpt lat="42.50396670809227" lon="11.337797991811534"><ele>19.333333333333332</ele><time>2026-04-18T11:19:49Z</time></trkpt><trkpt lat="42.50411823828164" lon="11.337654031640064"><ele>19.666666666666668</ele><time>2026-04-18T11:19:50Z</time></trkpt><trkpt lat="42.504277776712186" lon="11.337514049541447"><ele>20.0</ele><time>2026-04-18T11:19:51Z</time></trkpt><trkpt lat="42.50443414202494" lon="11.337369556453709"><ele>20.666666666666668</ele><time>2026-04-18T11:19:52Z</time></trkpt><trkpt lat="42.50458328077302" lon="11.337234893036413"><ele>21.333333333333332</ele><time>2026-04-18T11:19:53Z</time></trkpt><trkpt lat="42.50473638753344" lon="11.337093815228798"><ele>22.0</ele><time>2026-04-18T11:19:54Z</time></trkpt><trkpt lat="42.50488216965596" lon="11.336958759914332"><ele>22.0</ele><time>2026-04-18T11:19:55Z</time></trkpt><trkpt lat="42.505035569121105" lon="11.336820600669636"><ele>22.0</ele><time>2026-04-18T11:19:56Z</time></trkpt><trkpt lat="42.50518099378042" lon="11.336684535492326"><ele>22.0</ele><time>2026-04-18T11:19:57Z</time></trkpt><trkpt lat="42.50532916238071" lon="11.336554030207767"><ele>22.0</ele><time>2026-04-18T11:19:58Z</time></trkpt><trkpt lat="42.50547754120657" lon="11.33641413824683"><ele>22.0</ele><time>2026-04-18T11:19:59Z</time></trkpt><trkpt lat="42.505626151732415" lon="11.336278332539662"><ele>22.0</ele><time>2026-04-18T11:20:00Z</time></trkpt><trkpt lat="42.50578258825153" lon="11.336147263946545"><ele>22.0</ele><time>2026-04-18T11:20:01Z</time></trkpt><trkpt lat="42.50593320334827" lon="11.336012028517384"><ele>22.0</ele><time>2026-04-18T11:20:02Z</time></trkpt><trkpt lat="42.50608347781406" lon="11.335870348997837"><ele>22.0</ele><time>2026-04-18T11:20:03Z</time></trkpt><trkpt lat="42.50623422506292" lon="11.335729194576173"><ele>21.666666666666664</ele><time>2026-04-18T11:20:04Z</time></trkpt><trkpt lat="42.50638550297734" lon="11.335593632227482"><ele>21.333333333333332</ele><time>2026-04-18T11:20:05Z</time></trkpt><trkpt lat="42.50653451578954" lon="11.335482006029816"><ele>21.0</ele><time>2026-04-18T11:20:06Z</time></trkpt><trkpt lat="42.506696301788594" lon="11.335335604894894"><ele>21.0</ele><time>2026-04-18T11:20:07Z</time></trkpt><trkpt lat="42.50684790992509" lon="11.335198245107184"><ele>21.0</ele><time>2026-04-18T11:20:08Z</time></trkpt><trkpt lat="42.507002247183976" lon="11.335058247711014"><ele>21.0</ele><time>2026-04-18T11:20:09Z</time></trkpt><trkpt lat="42.50714857799841" lon="11.33490241333226"><ele>21.666666666666668</ele><time>2026-04-18T11:20:10Z</time></trkpt><trkpt lat="42.50729850892327" lon="11.334766209681748"><ele>22.333333333333336</ele><time>2026-04-18T11:20:11Z</time></trkpt><trkpt lat="42.50745750392771" lon="11.334645290113729"><ele>23.0</ele><time>2026-04-18T11:20:12Z</time></trkpt><trkpt lat="42.50761514630748" lon="11.334502294683869"><ele>23.0</ele><time>2026-04-18T11:20:13Z</time></trkpt><trkpt lat="42.50776355047057" lon="11.33434366033193"><ele>23.0</ele><time>2026-04-18T11:20:14Z</time></trkpt><trkpt lat="42.507929780968304" lon="11.334200773992249"><ele>23.0</ele><time>2026-04-18T11:20:15Z</time></trkpt><trkpt lat="42.5080967725407" lon="11.334051504289421"><ele>22.666666666666668</ele><time>2026-04-18T11:20:16Z</time></trkpt><trkpt lat="42.50826325489842" lon="11.333900160529154"><ele>22.333333333333332</ele><time>2026-04-18T11:20:17Z</time></trkpt><trkpt lat="42.50842552595519" lon="11.33374644359287"><ele>22.0</ele><time>2026-04-18T11:20:18Z</time></trkpt><trkpt lat="42.50858263032559" lon="11.333601671038407"><ele>22.0</ele><time>2026-04-18T11:20:19Z</time></trkpt><trkpt lat="42.50874218239463" lon="11.333457314772229"><ele>22.0</ele><time>2026-04-18T11:20:20Z</time></trkpt><trkpt lat="42.50889949302029" lon="11.333310339604223"><ele>22.0</ele><time>2026-04-18T11:20:21Z</time></trkpt><trkpt lat="42.50906343104493" lon="11.333186418651001"><ele>22.333333333333332</ele><time>2026-04-18T11:20:22Z</time></trkpt><trkpt lat="42.50921982793968" lon="11.333045136498335"><ele>22.666666666666668</ele><time>2026-04-18T11:20:23Z</time></trkpt><trkpt lat="42.5093675014185" lon="11.332884862953913"><ele>23.0</ele><time>2026-04-18T11:20:24Z</time></trkpt><trkpt lat="42.50952936824089" lon="11.332748102106798"><ele>24.0</ele><time>2026-04-18T11:20:25Z</time></trkpt><trkpt lat="42.50968729564935" lon="11.332618511467336"><ele>25.0</ele><time>2026-04-18T11:20:26Z</time></trkpt><trkpt lat="42.509830326984215" lon="11.332470384812162"><ele>26.0</ele><time>2026-04-18T11:20:27Z</time></trkpt><trkpt lat="42.509985557092264" lon="11.332327102729584"><ele>24.333333333333332</ele><time>2026-04-18T11:20:28Z</time></trkpt><trkpt lat="42.51013974281118" lon="11.332188811567628"><ele>22.666666666666664</ele><time>2026-04-18T11:20:29Z</time></trkpt><trkpt lat="42.510291167610355" lon="11.332053411308024"><ele>21.0</ele><time>2026-04-18T11:20:30Z</time></trkpt><trkpt lat="42.510455125749885" lon="11.331927543992888"><ele>21.0</ele><time>2026-04-18T11:20:31Z</time></trkpt><trkpt lat="42.51060761516804" lon="11.33176431560285"><ele>21.0</ele><time>2026-04-18T11:20:32Z</time></trkpt><trkpt lat="42.510774377777096" lon="11.33161848240634"><ele>21.0</ele><time>2026-04-18T11:20:33Z</time></trkpt><trkpt lat="42.510929904787154" lon="11.33148251427351"><ele>20.333333333333332</ele><time>2026-04-18T11:20:34Z</time></trkpt><trkpt lat="42.51107750276453" lon="11.33134729360721"><ele>19.666666666666664</ele><time>2026-04-18T11:20:35Z</time></trkpt><trkpt lat="42.51124075670403" lon="11.33120765117213"><ele>19.0</ele><time>2026-04-18T11:20:36Z</time></trkpt><trkpt lat="42.51138733027928" lon="11.331069330709342"><ele>19.0</ele><time>2026-04-18T11:20:37Z</time></trkpt><trkpt lat="42.51153585294385" lon="11.330931180569904"><ele>19.0</ele><time>2026-04-18T11:20:38Z</time></trkpt><trkpt lat="42.511683866896924" lon="11.330794409147149"><ele>19.0</ele><time>2026-04-18T11:20:39Z</time></trkpt><trkpt lat="42.511838482484826" lon="11.330678552638012"><ele>18.666666666666664</ele><time>2026-04-18T11:20:40Z</time></trkpt><trkpt lat="42.51198704319339" lon="11.330544536802563"><ele>18.333333333333332</ele><time>2026-04-18T11:20:41Z</time></trkpt><trkpt lat="42.51212488503153" lon="11.330395257881595"><ele>18.0</ele><time>2026-04-18T11:20:42Z</time></trkpt><trkpt lat="42.51227454538955" lon="11.330266417086197"><ele>18.666666666666668</ele><time>2026-04-18T11:20:43Z</time></trkpt><trkpt lat="42.51240778172374" lon="11.330145940562014"><ele>19.333333333333336</ele><time>2026-04-18T11:20:44Z</time></trkpt><trkpt lat="42.512533244429704" lon="11.330032621714741"><ele>20.0</ele><time>2026-04-18T11:20:45Z</time></trkpt><trkpt lat="42.51265724272136" lon="11.329917591323724"><ele>20.0</ele><time>2026-04-18T11:20:46Z</time></trkpt><trkpt lat="42.51278008536481" lon="11.329804822238009"><ele>20.0</ele><time>2026-04-18T11:20:47Z</time></trkpt><trkpt lat="42.512905022555366" lon="11.329694609566154"><ele>20.0</ele><time>2026-04-18T11:20:48Z</time></trkpt><trkpt lat="42.51303091830712" lon="11.329582974929266"><ele>20.0</ele><time>2026-04-18T11:20:49Z</time></trkpt><trkpt lat="42.51314779773331" lon="11.329481963999955"><ele>20.5</ele><time>2026-04-18T11:20:50Z</time></trkpt><trkpt lat="42.51325366487863" lon="11.32940773576798"><ele>21.0</ele><time>2026-04-18T11:20:51Z</time></trkpt><trkpt lat="42.513360851735314" lon="11.32935152176452"><ele>21.5</ele><time>2026-04-18T11:20:52Z</time></trkpt><trkpt lat="42.51346708793051" lon="11.329370361053337"><ele>22.0</ele><time>2026-04-18T11:20:53Z</time></trkpt><trkpt lat="42.5135837360895" lon="11.329362936804797"><ele>22.0</ele><time>2026-04-18T11:20:54Z</time></trkpt><trkpt lat="42.513701345097914" lon="11.329416898654438"><ele>22.0</ele><time>2026-04-18T11:20:55Z</time></trkpt><trkpt lat="42.513809549423414" lon="11.329511467347224"><ele>22.0</ele><time>2026-04-18T11:20:56Z</time></trkpt><trkpt lat="42.51389714421996" lon="11.32964150595357"><ele>22.0</ele><time>2026-04-18T11:20:57Z</time></trkpt><trkpt lat="42.51398362641519" lon="11.32978130979033"><ele>22.333333333333332</ele><time>2026-04-18T11:20:58Z</time></trkpt><trkpt lat="42.51408637866357" lon="11.329915341467078"><ele>22.666666666666668</ele><time>2026-04-18T11:20:59Z</time></trkpt><trkpt lat="42.51419754557783" lon="11.330047217758286"><ele>23.0</ele><time>2026-04-18T11:21:00Z</time></trkpt><trkpt lat="42.51432041255398" lon="11.330204545761392"><ele>23.0</ele><time>2026-04-18T11:21:01Z</time></trkpt><trkpt lat="42.51443754577928" lon="11.330359324772338"><ele>23.0</ele><time>2026-04-18T11:21:02Z</time></trkpt><trkpt lat="42.51455860294728" lon="11.330513945639144"><ele>23.0</ele><time>2026-04-18T11:21:03Z</time></trkpt><trkpt lat="42.5146860376428" lon="11.330679288002617"><ele>24.333333333333336</ele><time>2026-04-18T11:21:04Z</time></trkpt><trkpt lat="42.514809585440254" lon="11.330840041075046"><ele>25.666666666666668</ele><time>2026-04-18T11:21:05Z</time></trkpt><trkpt lat="42.514956537223284" lon="11.331003625747377"><ele>27.0</ele><time>2026-04-18T11:21:06Z</time></trkpt><trkpt lat="42.515114752814185" lon="11.33114965764116"><ele>27.0</ele><time>2026-04-18T11:21:07Z</time></trkpt><trkpt lat="42.515286124404724" lon="11.33128256474718"><ele>27.0</ele><time>2026-04-18T11:21:08Z</time></trkpt><trkpt lat="42.51545988881229" lon="11.33139871191957"><ele>27.0</ele><time>2026-04-18T11:21:09Z</time></trkpt><trkpt lat="42.515632024439746" lon="11.331514028326525"><ele>28.333333333333336</ele><time>2026-04-18T11:21:10Z</time></trkpt><trkpt lat="42.51580627124277" lon="11.331631073088865"><ele>29.666666666666668</ele><time>2026-04-18T11:21:11Z</time></trkpt><trkpt lat="42.51598515233145" lon="11.331744893887747"><ele>31.0</ele><time>2026-04-18T11:21:12Z</time></trkpt><trkpt lat="42.51616848530508" lon="11.331860277926987"><ele>30.333333333333336</ele><time>2026-04-18T11:21:13Z</time></trkpt><trkpt lat="42.51635186096472" lon="11.331979066842777"><ele>29.666666666666664</ele><time>2026-04-18T11:21:14Z</time></trkpt><trkpt lat="42.51652593027169" lon="11.332100656318387"><ele>29.0</ele><time>2026-04-18T11:21:15Z</time></trkpt><trkpt lat="42.516705448481474" lon="11.33222466202256"><ele>30.333333333333332</ele><time>2026-04-18T11:21:16Z</time></trkpt><trkpt lat="42.516882120995916" lon="11.332343969783384"><ele>31.666666666666664</ele><time>2026-04-18T11:21:17Z</time></trkpt><trkpt lat="42.51705739049448" lon="11.33246619571932"><ele>33.0</ele><time>2026-04-18T11:21:18Z</time></trkpt><trkpt lat="42.51723832718759" lon="11.332589550535504"><ele>33.0</ele><time>2026-04-18T11:21:19Z</time></trkpt><trkpt lat="42.517415809826815" lon="11.332712942713133"><ele>33.0</ele><time>2026-04-18T11:21:20Z</time></trkpt><trkpt lat="42.517587819945646" lon="11.332836466512665"><ele>33.0</ele><time>2026-04-18T11:21:21Z</time></trkpt><trkpt lat="42.51775451967593" lon="11.332963836067652"><ele>32.666666666666664</ele><time>2026-04-18T11:21:22Z</time></trkpt><trkpt lat="42.517918130652106" lon="11.333112871353327"><ele>32.33333333333333</ele><time>2026-04-18T11:21:23Z</time></trkpt><trkpt lat="42.51808314340232" lon="11.333255806130005"><ele>32.0</ele><time>2026-04-18T11:21:24Z</time></trkpt><trkpt lat="42.51824706330373" lon="11.3333925135644"><ele>32.0</ele><time>2026-04-18T11:21:25Z</time></trkpt><trkpt lat="42.518412241149065" lon="11.333535813287178"><ele>32.0</ele><time>2026-04-18T11:21:26Z</time></trkpt><trkpt lat="42.51856901018594" lon="11.333676371585897"><ele>32.0</ele><time>2026-04-18T11:21:27Z</time></trkpt><trkpt lat="42.518726653244386" lon="11.333815735885992"><ele>31.666666666666664</ele><time>2026-04-18T11:21:28Z</time></trkpt><trkpt lat="42.5188917693899" lon="11.333961110100164"><ele>31.333333333333336</ele><time>2026-04-18T11:21:29Z</time></trkpt><trkpt lat="42.51906050470436" lon="11.334106018445116"><ele>31.0</ele><time>2026-04-18T11:21:30Z</time></trkpt><trkpt lat="42.519219606595094" lon="11.334247550260717"><ele>31.0</ele><time>2026-04-18T11:21:31Z</time></trkpt><trkpt lat="42.51938583925006" lon="11.334395402121707"><ele>31.0</ele><time>2026-04-18T11:21:32Z</time></trkpt><trkpt lat="42.51954649694856" lon="11.33452285197707"><ele>31.0</ele><time>2026-04-18T11:21:33Z</time></trkpt><trkpt lat="42.51971215532885" lon="11.334636453514436"><ele>34.333333333333336</ele><time>2026-04-18T11:21:34Z</time></trkpt><trkpt lat="42.519881380665396" lon="11.334742137284122"><ele>37.666666666666664</ele><time>2026-04-18T11:21:35Z</time></trkpt><trkpt lat="42.52005372164421" lon="11.334838995970545"><ele>41.0</ele><time>2026-04-18T11:21:36Z</time></trkpt><trkpt lat="42.52023694990663" lon="11.334940764905333"><ele>38.666666666666664</ele><time>2026-04-18T11:21:37Z</time></trkpt><trkpt lat="42.520417344484585" lon="11.335040690278495"><ele>36.333333333333336</ele><time>2026-04-18T11:21:38Z</time></trkpt><trkpt lat="42.52059758401322" lon="11.335132356581076"><ele>34.0</ele><time>2026-04-18T11:21:39Z</time></trkpt><trkpt lat="42.5207768806554" lon="11.335241934071611"><ele>34.0</ele><time>2026-04-18T11:21:40Z</time></trkpt><trkpt lat="42.52096139147694" lon="11.335349935151944"><ele>34.0</ele><time>2026-04-18T11:21:41Z</time></trkpt><trkpt lat="42.52114296665155" lon="11.33543876194448"><ele>34.0</ele><time>2026-04-18T11:21:42Z</time></trkpt><trkpt lat="42.52131346769055" lon="11.335528367744436"><ele>36.66666666666667</ele><time>2026-04-18T11:21:43Z</time></trkpt><trkpt lat="42.52148224810179" lon="11.335620398931933"><ele>39.333333333333336</ele><time>2026-04-18T11:21:44Z</time></trkpt><trkpt lat="42.521651574668354" lon="11.33571101055406"><ele>42.0</ele><time>2026-04-18T11:21:45Z</time></trkpt><trkpt lat="42.5218262509986" lon="11.335807828690527"><ele>42.0</ele><time>2026-04-18T11:21:46Z</time></trkpt><trkpt lat="42.52199208585047" lon="11.335904042555017"><ele>42.0</ele><time>2026-04-18T11:21:47Z</time></trkpt><trkpt lat="42.522166883043596" lon="11.336010858556463"><ele>42.0</ele><time>2026-04-18T11:21:48Z</time></trkpt><trkpt lat="42.52233980331146" lon="11.33612633091545"><ele>40.666666666666664</ele><time>2026-04-18T11:21:49Z</time></trkpt><trkpt lat="42.522497476370404" lon="11.33624911499495"><ele>39.33333333333333</ele><time>2026-04-18T11:21:50Z</time></trkpt><trkpt lat="42.52263758518509" lon="11.336393703058738"><ele>38.0</ele><time>2026-04-18T11:21:51Z</time></trkpt><trkpt lat="42.52278532891741" lon="11.336564446494576"><ele>36.666666666666664</ele><time>2026-04-18T11:21:52Z</time></trkpt><trkpt lat="42.52292940130452" lon="11.336730682722928"><ele>35.333333333333336</ele><time>2026-04-18T11:21:53Z</time></trkpt><trkpt lat="42.52307812360576" lon="11.336894508835728"><ele>34.0</ele><time>2026-04-18T11:21:54Z</time></trkpt><trkpt lat="42.523230584695256" lon="11.337059946044116"><ele>35.333333333333336</ele><time>2026-04-18T11:21:55Z</time></trkpt><trkpt lat="42.52338147104034" lon="11.337227969733224"><ele>36.666666666666664</ele><time>2026-04-18T11:21:56Z</time></trkpt><trkpt lat="42.52353121728652" lon="11.337391071007941"><ele>38.0</ele><time>2026-04-18T11:21:57Z</time></trkpt><trkpt lat="42.52368030181365" lon="11.337537841898484"><ele>38.0</ele><time>2026-04-18T11:21:58Z</time></trkpt><trkpt lat="42.52383128653997" lon="11.337658125075041"><ele>38.0</ele><time>2026-04-18T11:21:59Z</time></trkpt><trkpt lat="42.52400586998751" lon="11.337752252595044"><ele>38.0</ele><time>2026-04-18T11:22:00Z</time></trkpt><trkpt lat="42.524191628394284" lon="11.337821619344426"><ele>38.0</ele><time>2026-04-18T11:22:01Z</time></trkpt><trkpt lat="42.524370731013406" lon="11.337892645557417"><ele>38.0</ele><time>2026-04-18T11:22:02Z</time></trkpt><trkpt lat="42.52455300488827" lon="11.33797327163547"><ele>38.0</ele><time>2026-04-18T11:22:03Z</time></trkpt><trkpt lat="42.52473904077445" lon="11.338059583587661"><ele>41.33333333333333</ele><time>2026-04-18T11:22:04Z</time></trkpt><trkpt lat="42.52491887496577" lon="11.33814177533954"><ele>44.666666666666664</ele><time>2026-04-18T11:22:05Z</time></trkpt><trkpt lat="42.52510675590031" lon="11.338222958120355"><ele>48.0</ele><time>2026-04-18T11:22:06Z</time></trkpt><trkpt lat="42.5252898169184" lon="11.338296480767326"><ele>48.33333333333333</ele><time>2026-04-18T11:22:07Z</time></trkpt><trkpt lat="42.52547087257556" lon="11.33837525983692"><ele>48.666666666666664</ele><time>2026-04-18T11:22:08Z</time></trkpt><trkpt lat="42.52565926725443" lon="11.338453440024804"><ele>49.0</ele><time>2026-04-18T11:22:09Z</time></trkpt><trkpt lat="42.52584021491981" lon="11.338528069464221"><ele>49.0</ele><time>2026-04-18T11:22:10Z</time></trkpt><trkpt lat="42.52602182934323" lon="11.338606801546552"><ele>49.0</ele><time>2026-04-18T11:22:11Z</time></trkpt><trkpt lat="42.52620503529025" lon="11.338683349335527"><ele>49.0</ele><time>2026-04-18T11:22:12Z</time></trkpt><trkpt lat="42.52639238253709" lon="11.33876156713682"><ele>48.33333333333333</ele><time>2026-04-18T11:22:13Z</time></trkpt><trkpt lat="42.5265787810749" lon="11.338835707666163"><ele>47.666666666666664</ele><time>2026-04-18T11:22:14Z</time></trkpt><trkpt lat="42.52676226952966" lon="11.338913167269524"><ele>47.0</ele><time>2026-04-18T11:22:15Z</time></trkpt><trkpt lat="42.52695188551928" lon="11.338991955865023"><ele>49.0</ele><time>2026-04-18T11:22:16Z</time></trkpt><trkpt lat="42.527146280425264" lon="11.339073793522854"><ele>51.0</ele><time>2026-04-18T11:22:17Z</time></trkpt><trkpt lat="42.52733843121527" lon="11.339151611147086"><ele>53.0</ele><time>2026-04-18T11:22:18Z</time></trkpt><trkpt lat="42.52752418251239" lon="11.339233031175258"><ele>53.0</ele><time>2026-04-18T11:22:19Z</time></trkpt><trkpt lat="42.5277133662064" lon="11.339311307204206"><ele>53.0</ele><time>2026-04-18T11:22:20Z</time></trkpt><trkpt lat="42.527899361039914" lon="11.339394455990558"><ele>53.0</ele><time>2026-04-18T11:22:21Z</time></trkpt><trkpt lat="42.528083654351576" lon="11.339477523657074"><ele>49.333333333333336</ele><time>2026-04-18T11:22:22Z</time></trkpt><trkpt lat="42.528270789001894" lon="11.33955751688581"><ele>45.66666666666667</ele><time>2026-04-18T11:22:23Z</time></trkpt><trkpt lat="42.52846105115074" lon="11.339645842552033"><ele>42.0</ele><time>2026-04-18T11:22:24Z</time></trkpt><trkpt lat="42.52864888314125" lon="11.339732383650432"><ele>43.666666666666664</ele><time>2026-04-18T11:22:25Z</time></trkpt><trkpt lat="42.52882868960259" lon="11.3398092051427"><ele>45.33333333333333</ele><time>2026-04-18T11:22:26Z</time></trkpt><trkpt lat="42.529015098629415" lon="11.339891357702474"><ele>47.0</ele><time>2026-04-18T11:22:27Z</time></trkpt><trkpt lat="42.52920820686297" lon="11.339980786460702"><ele>47.0</ele><time>2026-04-18T11:22:28Z</time></trkpt><trkpt lat="42.529396272484846" lon="11.340058674241517"><ele>47.0</ele><time>2026-04-18T11:22:29Z</time></trkpt><trkpt lat="42.52958286028864" lon="11.34014077172619"><ele>47.0</ele><time>2026-04-18T11:22:30Z</time></trkpt><trkpt lat="42.52976575016902" lon="11.34022955148513"><ele>43.33333333333333</ele><time>2026-04-18T11:22:31Z</time></trkpt><trkpt lat="42.52994926241635" lon="11.340317264095162"><ele>39.666666666666664</ele><time>2026-04-18T11:22:32Z</time></trkpt><trkpt lat="42.53014027745108" lon="11.340396490579275"><ele>36.0</ele><time>2026-04-18T11:22:33Z</time></trkpt><trkpt lat="42.5303219827131" lon="11.340473796087597"><ele>36.0</ele><time>2026-04-18T11:22:34Z</time></trkpt><trkpt lat="42.53049498829638" lon="11.340547996734715"><ele>36.0</ele><time>2026-04-18T11:22:35Z</time></trkpt><trkpt lat="42.53065884152405" lon="11.340619280481848"><ele>36.0</ele><time>2026-04-18T11:22:36Z</time></trkpt><trkpt lat="42.53083023765846" lon="11.340671057290468"><ele>36.0</ele><time>2026-04-18T11:22:37Z</time></trkpt><trkpt lat="42.531008626602976" lon="11.340697729638082"><ele>36.0</ele><time>2026-04-18T11:22:38Z</time></trkpt><trkpt lat="42.53118890371382" lon="11.34069021321052"><ele>36.0</ele><time>2026-04-18T11:22:39Z</time></trkpt><trkpt lat="42.53137297662073" lon="11.340660253128977"><ele>36.333333333333336</ele><time>2026-04-18T11:22:40Z</time></trkpt><trkpt lat="42.53155903074623" lon="11.340611985073231"><ele>36.66666666666667</ele><time>2026-04-18T11:22:41Z</time></trkpt><trkpt lat="42.53174383472641" lon="11.340549938044825"><ele>37.0</ele><time>2026-04-18T11:22:42Z</time></trkpt><trkpt lat="42.53193219788988" lon="11.340486005828762"><ele>36.333333333333336</ele><time>2026-04-18T11:22:43Z</time></trkpt><trkpt lat="42.53213297044791" lon="11.340422557050607"><ele>35.666666666666664</ele><time>2026-04-18T11:22:44Z</time></trkpt><trkpt lat="42.532329827425784" lon="11.34035524400109"><ele>35.0</ele><time>2026-04-18T11:22:45Z</time></trkpt><trkpt lat="42.5325196814417" lon="11.34028444351663"><ele>35.0</ele><time>2026-04-18T11:22:46Z</time></trkpt><trkpt lat="42.53268920741436" lon="11.340233358574887"><ele>35.0</ele><time>2026-04-18T11:22:47Z</time></trkpt><trkpt lat="42.53286348957577" lon="11.34019582571026"><ele>35.0</ele><time>2026-04-18T11:22:48Z</time></trkpt><trkpt lat="42.533016533407846" lon="11.34017046187749"><ele>35.25</ele><time>2026-04-18T11:22:49Z</time></trkpt><trkpt lat="42.53316183239982" lon="11.340157786003"><ele>35.5</ele><time>2026-04-18T11:22:50Z</time></trkpt><trkpt lat="42.53330552311514" lon="11.34016078302312"><ele>35.75</ele><time>2026-04-18T11:22:51Z</time></trkpt><trkpt lat="42.53344191594241" lon="11.340162076882732"><ele>36.0</ele><time>2026-04-18T11:22:52Z</time></trkpt><trkpt lat="42.533566228697914" lon="11.340163271881485"><ele>36.0</ele><time>2026-04-18T11:22:53Z</time></trkpt><trkpt lat="42.53370383561264" lon="11.34015718570034"><ele>36.0</ele><time>2026-04-18T11:22:54Z</time></trkpt><trkpt lat="42.53384320932038" lon="11.340151300389973"><ele>36.0</ele><time>2026-04-18T11:22:55Z</time></trkpt><trkpt lat="42.533965950524774" lon="11.34014870400818"><ele>36.0</ele><time>2026-04-18T11:22:56Z</time></trkpt><trkpt lat="42.53408179213075" lon="11.340148536232267"><ele>35.75</ele><time>2026-04-18T11:22:57Z</time></trkpt><trkpt lat="42.534204081825095" lon="11.340145024964281"><ele>35.5</ele><time>2026-04-18T11:22:58Z</time></trkpt><trkpt lat="42.53432217689736" lon="11.340140488843858"><ele>35.25</ele><time>2026-04-18T11:22:59Z</time></trkpt><trkpt lat="42.534434318595466" lon="11.340142745448912"><ele>35.0</ele><time>2026-04-18T11:23:00Z</time></trkpt><trkpt lat="42.53453608516002" lon="11.340141986914468"><ele>34.6</ele><time>2026-04-18T11:23:01Z</time></trkpt><trkpt lat="42.534637856068706" lon="11.340138129548869"><ele>34.2</ele><time>2026-04-18T11:23:02Z</time></trkpt><trkpt lat="42.53473835815822" lon="11.340136552069081"><ele>33.8</ele><time>2026-04-18T11:23:03Z</time></trkpt><trkpt lat="42.534820604943185" lon="11.34013111807163"><ele>33.4</ele><time>2026-04-18T11:23:04Z</time></trkpt><trkpt lat="42.5348923348789" lon="11.340122101102844"><ele>33.0</ele><time>2026-04-18T11:23:05Z</time></trkpt><trkpt lat="42.53500697631606" lon="11.34011081722182"><ele>33.0</ele><time>2026-04-18T11:23:07Z</time></trkpt><trkpt lat="42.535088178908815" lon="11.340119023396722"><ele>33.0</ele><time>2026-04-18T11:23:09Z</time></trkpt><trkpt lat="42.53507298962191" lon="11.340212713654317"><ele>33.0</ele><time>2026-04-18T11:23:17Z</time></trkpt><trkpt lat="42.53511318709953" lon="11.340146252312202"><ele>33.0</ele><time>2026-04-18T11:25:19.999Z</time></trkpt><trkpt lat="42.535203759499545" lon="11.340110542332644"><ele>33.0</ele><time>2026-04-18T11:25:21.999Z</time></trkpt><trkpt lat="42.535271314918894" lon="11.340117538154457"><ele>33.0</ele><time>2026-04-18T11:25:22.999Z</time></trkpt><trkpt lat="42.53539847719499" lon="11.34009011626125"><ele>33.0</ele><time>2026-04-18T11:25:24.999Z</time></trkpt><trkpt lat="42.535518037198756" lon="11.340049577097734"><ele>33.0</ele><time>2026-04-18T11:25:26.999Z</time></trkpt><trkpt lat="42.535595490875515" lon="11.34001250750092"><ele>33.0</ele><time>2026-04-18T11:25:27.999Z</time></trkpt><trkpt lat="42.535672125943066" lon="11.33996082614305"><ele>33.0</ele><time>2026-04-18T11:25:28.999Z</time></trkpt><trkpt lat="42.53575362788225" lon="11.339909782041754"><ele>33.0</ele><time>2026-04-18T11:25:29.999Z</time></trkpt><trkpt lat="42.53587790565915" lon="11.339836678884279"><ele>33.0</ele><time>2026-04-18T11:25:31.999Z</time></trkpt><trkpt lat="42.535960328973495" lon="11.339835396813754"><ele>33.0</ele><time>2026-04-18T11:25:32.999Z</time></trkpt><trkpt lat="42.53604320216233" lon="11.339871096374113"><ele>33.0</ele><time>2026-04-18T11:25:33.999Z</time></trkpt><trkpt lat="42.536122997209354" lon="11.33991284676118"><ele>33.0</ele><time>2026-04-18T11:25:34.999Z</time></trkpt><trkpt lat="42.536200840205765" lon="11.339917243311103"><ele>33.0</ele><time>2026-04-18T11:25:35.999Z</time></trkpt><trkpt lat="42.53626890859188" lon="11.339882348568361"><ele>33.0</ele><time>2026-04-18T11:25:36.999Z</time></trkpt><trkpt lat="42.53633498863606" lon="11.33984528677501"><ele>32.6</ele><time>2026-04-18T11:25:37.999Z</time></trkpt><trkpt lat="42.53636955970575" lon="11.339719583648083"><ele>32.199999999999996</ele><time>2026-04-18T11:25:38.999Z</time></trkpt><trkpt lat="42.53637662066545" lon="11.339604321170041"><ele>31.8</ele><time>2026-04-18T11:25:39.999Z</time></trkpt><trkpt lat="42.536350040220675" lon="11.339484833015373"><ele>31.4</ele><time>2026-04-18T11:25:40.999Z</time></trkpt><trkpt lat="42.53628904273483" lon="11.339385777690374"><ele>31.0</ele><time>2026-04-18T11:25:41.999Z</time></trkpt><trkpt lat="42.53620892539066" lon="11.339318718025396"><ele>31.0</ele><time>2026-04-18T11:25:42.999Z</time></trkpt><trkpt lat="42.53610902018792" lon="11.339266583741807"><ele>31.0</ele><time>2026-04-18T11:25:43.999Z</time></trkpt><trkpt lat="42.53601192856382" lon="11.339195757207243"><ele>31.0</ele><time>2026-04-18T11:25:44.999Z</time></trkpt><trkpt lat="42.53590025564251" lon="11.339100576430726"><ele>31.0</ele><time>2026-04-18T11:25:45.999Z</time></trkpt><trkpt lat="42.535833507295806" lon="11.338939516155282"><ele>30.5</ele><time>2026-04-18T11:25:46.999Z</time></trkpt><trkpt lat="42.535769953039164" lon="11.338776177684592"><ele>30.0</ele><time>2026-04-18T11:25:47.999Z</time></trkpt><trkpt lat="42.535728675030256" lon="11.338585425136122"><ele>29.5</ele><time>2026-04-18T11:25:48.999Z</time></trkpt><trkpt lat="42.535681425919186" lon="11.338394712781433"><ele>29.0</ele><time>2026-04-18T11:25:49.999Z</time></trkpt><trkpt lat="42.53562243870185" lon="11.338216155834493"><ele>28.333333333333332</ele><time>2026-04-18T11:25:50.999Z</time></trkpt><trkpt lat="42.535577057452635" lon="11.338017363003908"><ele>27.666666666666664</ele><time>2026-04-18T11:25:51.999Z</time></trkpt><trkpt lat="42.53552986144952" lon="11.337800763712982"><ele>27.0</ele><time>2026-04-18T11:25:52.999Z</time></trkpt><trkpt lat="42.53547089335527" lon="11.337586690765942"><ele>27.0</ele><time>2026-04-18T11:25:53.999Z</time></trkpt><trkpt lat="42.53541169806247" lon="11.337370180977187"><ele>27.0</ele><time>2026-04-18T11:25:54.999Z</time></trkpt><trkpt lat="42.535356928654934" lon="11.337150648016173"><ele>27.0</ele><time>2026-04-18T11:25:55.999Z</time></trkpt><trkpt lat="42.53530163804967" lon="11.336922973207601"><ele>27.333333333333336</ele><time>2026-04-18T11:25:56.999Z</time></trkpt><trkpt lat="42.5352399481513" lon="11.336682531348028"><ele>27.666666666666668</ele><time>2026-04-18T11:25:57.999Z</time></trkpt><trkpt lat="42.535178843899594" lon="11.336446970293963"><ele>28.0</ele><time>2026-04-18T11:25:58.999Z</time></trkpt><trkpt lat="42.53511610731008" lon="11.336207044917291"><ele>28.0</ele><time>2026-04-18T11:25:59.999Z</time></trkpt><trkpt lat="42.53505671488112" lon="11.33596602978382"><ele>28.0</ele><time>2026-04-18T11:26:00.999Z</time></trkpt><trkpt lat="42.534996262865036" lon="11.33572004736911"><ele>28.0</ele><time>2026-04-18T11:26:01.999Z</time></trkpt><trkpt lat="42.5349316021126" lon="11.33546014873668"><ele>27.333333333333336</ele><time>2026-04-18T11:26:02.999Z</time></trkpt><trkpt lat="42.53486548623924" lon="11.335196808128904"><ele>26.666666666666664</ele><time>2026-04-18T11:26:03.999Z</time></trkpt><trkpt lat="42.534798342892344" lon="11.334936357600828"><ele>26.0</ele><time>2026-04-18T11:26:04.999Z</time></trkpt><trkpt lat="42.53472901532466" lon="11.334676205418887"><ele>26.0</ele><time>2026-04-18T11:26:05.999Z</time></trkpt><trkpt lat="42.5346603447216" lon="11.334420196710152"><ele>26.0</ele><time>2026-04-18T11:26:06.999Z</time></trkpt><trkpt lat="42.53459610942083" lon="11.33415626397195"><ele>26.0</ele><time>2026-04-18T11:26:08Z</time></trkpt><trkpt lat="42.534531348754676" lon="11.333892165628681"><ele>25.666666666666664</ele><time>2026-04-18T11:26:09Z</time></trkpt><trkpt lat="42.534462289315954" lon="11.333622742413207"><ele>25.333333333333336</ele><time>2026-04-18T11:26:10Z</time></trkpt><trkpt lat="42.53439960673483" lon="11.33335615894319"><ele>25.0</ele><time>2026-04-18T11:26:11Z</time></trkpt><trkpt lat="42.53433140064507" lon="11.33311483242801"><ele>25.666666666666668</ele><time>2026-04-18T11:26:12Z</time></trkpt><trkpt lat="42.53428144209649" lon="11.332857478030636"><ele>26.333333333333336</ele><time>2026-04-18T11:26:13Z</time></trkpt><trkpt lat="42.53420172279124" lon="11.332605556352549"><ele>27.0</ele><time>2026-04-18T11:26:14Z</time></trkpt><trkpt lat="42.534134375732464" lon="11.33233802121751"><ele>26.666666666666664</ele><time>2026-04-18T11:26:15Z</time></trkpt><trkpt lat="42.534067126360135" lon="11.33207261874236"><ele>26.333333333333332</ele><time>2026-04-18T11:26:16Z</time></trkpt><trkpt lat="42.533995529129015" lon="11.331797559609495"><ele>26.0</ele><time>2026-04-18T11:26:17Z</time></trkpt><trkpt lat="42.533939231737484" lon="11.331512619650763"><ele>25.333333333333332</ele><time>2026-04-18T11:26:18Z</time></trkpt><trkpt lat="42.533855189655554" lon="11.331244496852555"><ele>24.666666666666664</ele><time>2026-04-18T11:26:19Z</time></trkpt><trkpt lat="42.533785474203924" lon="11.33096283940442"><ele>24.0</ele><time>2026-04-18T11:26:20Z</time></trkpt><trkpt lat="42.53371872059352" lon="11.330685356783258"><ele>23.666666666666668</ele><time>2026-04-18T11:26:21Z</time></trkpt><trkpt lat="42.533648142653064" lon="11.330413192186276"><ele>23.333333333333336</ele><time>2026-04-18T11:26:22Z</time></trkpt><trkpt lat="42.53357834057171" lon="11.330142132224953"><ele>23.0</ele><time>2026-04-18T11:26:23Z</time></trkpt><trkpt lat="42.53350857363158" lon="11.329873205580801"><ele>22.666666666666668</ele><time>2026-04-18T11:26:24Z</time></trkpt><trkpt lat="42.533454228349825" lon="11.329598604998136"><ele>22.333333333333332</ele><time>2026-04-18T11:26:25Z</time></trkpt><trkpt lat="42.533386601697075" lon="11.329331938832937"><ele>22.0</ele><time>2026-04-18T11:26:26Z</time></trkpt><trkpt lat="42.53331968481791" lon="11.329068071450022"><ele>21.666666666666664</ele><time>2026-04-18T11:26:27Z</time></trkpt><trkpt lat="42.53325210665081" lon="11.328801737341847"><ele>21.333333333333332</ele><time>2026-04-18T11:26:28Z</time></trkpt><trkpt lat="42.53318359498621" lon="11.32853219825507"><ele>21.0</ele><time>2026-04-18T11:26:29Z</time></trkpt><trkpt lat="42.53311684536643" lon="11.328269591439254"><ele>20.333333333333332</ele><time>2026-04-18T11:26:30Z</time></trkpt><trkpt lat="42.53304847806618" lon="11.328000620310378"><ele>19.666666666666664</ele><time>2026-04-18T11:26:31Z</time></trkpt><trkpt lat="42.53298025746202" lon="11.327732226323779"><ele>19.0</ele><time>2026-04-18T11:26:32Z</time></trkpt><trkpt lat="42.532911331398765" lon="11.327461056914872"><ele>19.333333333333332</ele><time>2026-04-18T11:26:33Z</time></trkpt><trkpt lat="42.53282574488972" lon="11.327187122305721"><ele>19.666666666666668</ele><time>2026-04-18T11:26:34Z</time></trkpt><trkpt lat="42.53275254208287" lon="11.326906365763506"><ele>20.0</ele><time>2026-04-18T11:26:35Z</time></trkpt><trkpt lat="42.53268230317993" lon="11.32662301328109"><ele>20.666666666666668</ele><time>2026-04-18T11:26:36Z</time></trkpt><trkpt lat="42.53261018068072" lon="11.326338920503952"><ele>21.333333333333332</ele><time>2026-04-18T11:26:37Z</time></trkpt><trkpt lat="42.532536810068706" lon="11.326051735685855"><ele>22.0</ele><time>2026-04-18T11:26:38Z</time></trkpt><trkpt lat="42.53246491033623" lon="11.325760651635825"><ele>22.0</ele><time>2026-04-18T11:26:39Z</time></trkpt><trkpt lat="42.53239265472337" lon="11.325472030989078"><ele>22.0</ele><time>2026-04-18T11:26:40Z</time></trkpt><trkpt lat="42.53231965186741" lon="11.325185071335975"><ele>22.0</ele><time>2026-04-18T11:26:41Z</time></trkpt><trkpt lat="42.53224705185424" lon="11.324902350832232"><ele>21.666666666666664</ele><time>2026-04-18T11:26:42Z</time></trkpt><trkpt lat="42.53217288276163" lon="11.324613337054918"><ele>21.333333333333332</ele><time>2026-04-18T11:26:43Z</time></trkpt><trkpt lat="42.53210315089106" lon="11.324332917126513"><ele>21.0</ele><time>2026-04-18T11:26:44Z</time></trkpt><trkpt lat="42.532031353819825" lon="11.324050419000889"><ele>21.666666666666668</ele><time>2026-04-18T11:26:45Z</time></trkpt><trkpt lat="42.5319595224713" lon="11.323771313992589"><ele>22.333333333333336</ele><time>2026-04-18T11:26:46Z</time></trkpt><trkpt lat="42.53188718082959" lon="11.323490520334472"><ele>23.0</ele><time>2026-04-18T11:26:47Z</time></trkpt><trkpt lat="42.53183377346522" lon="11.32320741478237"><ele>23.0</ele><time>2026-04-18T11:26:48Z</time></trkpt><trkpt lat="42.53176346250751" lon="11.322926748165138"><ele>23.0</ele><time>2026-04-18T11:26:49Z</time></trkpt><trkpt lat="42.53169344179677" lon="11.322647247735503"><ele>23.0</ele><time>2026-04-18T11:26:50Z</time></trkpt><trkpt lat="42.53162316005068" lon="11.322366705338721"><ele>23.0</ele><time>2026-04-18T11:26:51Z</time></trkpt><trkpt lat="42.53155528388955" lon="11.322090682147104"><ele>23.0</ele><time>2026-04-18T11:26:52Z</time></trkpt><trkpt lat="42.531486765586806" lon="11.32181073003254"><ele>23.0</ele><time>2026-04-18T11:26:53Z</time></trkpt><trkpt lat="42.53140251006338" lon="11.321537020925712"><ele>23.0</ele><time>2026-04-18T11:26:54Z</time></trkpt><trkpt lat="42.53133416967582" lon="11.321254023374987"><ele>23.0</ele><time>2026-04-18T11:26:55Z</time></trkpt><trkpt lat="42.53126687620498" lon="11.320972242873777"><ele>23.0</ele><time>2026-04-18T11:26:56Z</time></trkpt><trkpt lat="42.53119875577179" lon="11.320697426477402"><ele>22.333333333333336</ele><time>2026-04-18T11:26:57Z</time></trkpt><trkpt lat="42.53112808130587" lon="11.320418608191083"><ele>21.666666666666668</ele><time>2026-04-18T11:26:58Z</time></trkpt><trkpt lat="42.531057836961054" lon="11.32014557393852"><ele>21.0</ele><time>2026-04-18T11:26:59Z</time></trkpt><trkpt lat="42.53098967149212" lon="11.319866896720294"><ele>20.333333333333332</ele><time>2026-04-18T11:27:00Z</time></trkpt><trkpt lat="42.53092060633142" lon="11.319590588852627"><ele>19.666666666666664</ele><time>2026-04-18T11:27:01Z</time></trkpt><trkpt lat="42.53084897945957" lon="11.319312416320857"><ele>19.0</ele><time>2026-04-18T11:27:02Z</time></trkpt><trkpt lat="42.53078042325307" lon="11.319034006880926"><ele>18.666666666666664</ele><time>2026-04-18T11:27:03Z</time></trkpt><trkpt lat="42.530709273000305" lon="11.318760143336906"><ele>18.333333333333332</ele><time>2026-04-18T11:27:04Z</time></trkpt><trkpt lat="42.53063490246465" lon="11.3184814914756"><ele>18.0</ele><time>2026-04-18T11:27:05Z</time></trkpt><trkpt lat="42.53056196108685" lon="11.318202453149997"><ele>18.0</ele><time>2026-04-18T11:27:06Z</time></trkpt><trkpt lat="42.53049333621606" lon="11.317926085191823"><ele>18.0</ele><time>2026-04-18T11:27:07Z</time></trkpt><trkpt lat="42.53042325315932" lon="11.31764401316579"><ele>18.0</ele><time>2026-04-18T11:27:08Z</time></trkpt><trkpt lat="42.53035500262708" lon="11.317368672213616"><ele>18.333333333333332</ele><time>2026-04-18T11:27:09Z</time></trkpt><trkpt lat="42.5302833320567" lon="11.317087785405553"><ele>18.666666666666664</ele><time>2026-04-18T11:27:10Z</time></trkpt><trkpt lat="42.53021248271058" lon="11.316802907754964"><ele>19.0</ele><time>2026-04-18T11:27:11Z</time></trkpt><trkpt lat="42.530144262490495" lon="11.316528132615788"><ele>19.666666666666664</ele><time>2026-04-18T11:27:12Z</time></trkpt><trkpt lat="42.53007496977777" lon="11.316246597851109"><ele>20.333333333333332</ele><time>2026-04-18T11:27:13Z</time></trkpt><trkpt lat="42.530002370489385" lon="11.315972715565119"><ele>21.0</ele><time>2026-04-18T11:27:14Z</time></trkpt><trkpt lat="42.52992885192385" lon="11.315694014192458"><ele>21.0</ele><time>2026-04-18T11:27:15Z</time></trkpt><trkpt lat="42.52985660839685" lon="11.315426304974975"><ele>21.0</ele><time>2026-04-18T11:27:16Z</time></trkpt><trkpt lat="42.52978830618837" lon="11.315148776735208"><ele>21.0</ele><time>2026-04-18T11:27:17Z</time></trkpt><trkpt lat="42.529720246019025" lon="11.314871745772349"><ele>20.333333333333332</ele><time>2026-04-18T11:27:18Z</time></trkpt><trkpt lat="42.52964918973902" lon="11.314593375787496"><ele>19.666666666666664</ele><time>2026-04-18T11:27:19Z</time></trkpt><trkpt lat="42.52958124261853" lon="11.314322517806934"><ele>19.0</ele><time>2026-04-18T11:27:20Z</time></trkpt><trkpt lat="42.529509495837885" lon="11.314044453570164"><ele>18.666666666666664</ele><time>2026-04-18T11:27:21Z</time></trkpt><trkpt lat="42.529440045207764" lon="11.313774702301348"><ele>18.333333333333332</ele><time>2026-04-18T11:27:22Z</time></trkpt><trkpt lat="42.52936721786154" lon="11.313501118429182"><ele>18.0</ele><time>2026-04-18T11:27:23Z</time></trkpt><trkpt lat="42.52929321351185" lon="11.313229452096206"><ele>18.666666666666668</ele><time>2026-04-18T11:27:24Z</time></trkpt><trkpt lat="42.52922028839164" lon="11.312951220453815"><ele>19.333333333333336</ele><time>2026-04-18T11:27:25Z</time></trkpt><trkpt lat="42.52915369152927" lon="11.312678039761204"><ele>20.0</ele><time>2026-04-18T11:27:26Z</time></trkpt><trkpt lat="42.52908614065518" lon="11.31240072198844"><ele>20.0</ele><time>2026-04-18T11:27:27Z</time></trkpt><trkpt lat="42.52901594727361" lon="11.312121285166214"><ele>20.0</ele><time>2026-04-18T11:27:28Z</time></trkpt><trkpt lat="42.52894724539809" lon="11.311852214892408"><ele>20.0</ele><time>2026-04-18T11:27:29Z</time></trkpt><trkpt lat="42.52887780275534" lon="11.311576096249171"><ele>19.666666666666668</ele><time>2026-04-18T11:27:30Z</time></trkpt><trkpt lat="42.528809189406225" lon="11.311303556930804"><ele>19.333333333333332</ele><time>2026-04-18T11:27:31Z</time></trkpt><trkpt lat="42.5287405688733" lon="11.311026336174592"><ele>19.0</ele><time>2026-04-18T11:27:32Z</time></trkpt><trkpt lat="42.52867185810919" lon="11.310750137949578"><ele>19.333333333333332</ele><time>2026-04-18T11:27:33Z</time></trkpt><trkpt lat="42.528600724975" lon="11.31047687236621"><ele>19.666666666666668</ele><time>2026-04-18T11:27:34Z</time></trkpt><trkpt lat="42.528528878988915" lon="11.310205472371107"><ele>20.0</ele><time>2026-04-18T11:27:35Z</time></trkpt><trkpt lat="42.52845940244524" lon="11.3099340836654"><ele>19.666666666666668</ele><time>2026-04-18T11:27:36Z</time></trkpt><trkpt lat="42.52838986892228" lon="11.309660232729273"><ele>19.333333333333332</ele><time>2026-04-18T11:27:37Z</time></trkpt><trkpt lat="42.52832162462427" lon="11.30938374777345"><ele>19.0</ele><time>2026-04-18T11:27:38Z</time></trkpt><trkpt lat="42.5282528054586" lon="11.309109686930913"><ele>19.0</ele><time>2026-04-18T11:27:39Z</time></trkpt><trkpt lat="42.52818279488192" lon="11.308838037759378"><ele>19.0</ele><time>2026-04-18T11:27:40Z</time></trkpt><trkpt lat="42.52811238464391" lon="11.308564352560987"><ele>19.0</ele><time>2026-04-18T11:27:41Z</time></trkpt><trkpt lat="42.52804416787308" lon="11.308290990941416"><ele>18.666666666666664</ele><time>2026-04-18T11:27:42Z</time></trkpt><trkpt lat="42.52797345268858" lon="11.308018825085208"><ele>18.333333333333332</ele><time>2026-04-18T11:27:43Z</time></trkpt><trkpt lat="42.52790821541703" lon="11.307747050923581"><ele>18.0</ele><time>2026-04-18T11:27:44Z</time></trkpt><trkpt lat="42.52784835576541" lon="11.307474286654411"><ele>18.0</ele><time>2026-04-18T11:27:45Z</time></trkpt><trkpt lat="42.527795927700254" lon="11.307188853844282"><ele>18.0</ele><time>2026-04-18T11:27:46Z</time></trkpt><trkpt lat="42.52774904790525" lon="11.306909705470003"><ele>18.0</ele><time>2026-04-18T11:27:47Z</time></trkpt><trkpt lat="42.5276931368669" lon="11.306632205690983"><ele>17.333333333333332</ele><time>2026-04-18T11:27:48Z</time></trkpt><trkpt lat="42.527640650839196" lon="11.30635909128464"><ele>16.666666666666664</ele><time>2026-04-18T11:27:49Z</time></trkpt><trkpt lat="42.52758246255317" lon="11.306096465092223"><ele>16.0</ele><time>2026-04-18T11:27:50Z</time></trkpt><trkpt lat="42.52751553642823" lon="11.305818978656195"><ele>15.333333333333332</ele><time>2026-04-18T11:27:51Z</time></trkpt><trkpt lat="42.52744887818824" lon="11.305541685454598"><ele>14.666666666666668</ele><time>2026-04-18T11:27:52Z</time></trkpt><trkpt lat="42.52737386622849" lon="11.305274168452577"><ele>14.0</ele><time>2026-04-18T11:27:53Z</time></trkpt><trkpt lat="42.52729875941319" lon="11.304991905819042"><ele>14.0</ele><time>2026-04-18T11:27:54Z</time></trkpt><trkpt lat="42.527225511381225" lon="11.304717954307748"><ele>14.0</ele><time>2026-04-18T11:27:55Z</time></trkpt><trkpt lat="42.527167720566815" lon="11.30444869723613"><ele>14.0</ele><time>2026-04-18T11:27:56Z</time></trkpt><trkpt lat="42.527086185637486" lon="11.304166923609385"><ele>13.666666666666668</ele><time>2026-04-18T11:27:57Z</time></trkpt><trkpt lat="42.527013069152645" lon="11.303897309832955"><ele>13.333333333333332</ele><time>2026-04-18T11:27:58Z</time></trkpt><trkpt lat="42.52693938103311" lon="11.303625098395743"><ele>13.0</ele><time>2026-04-18T11:27:59Z</time></trkpt><trkpt lat="42.52686831265513" lon="11.303342603992354"><ele>12.666666666666666</ele><time>2026-04-18T11:28:00Z</time></trkpt><trkpt lat="42.52679630966911" lon="11.303062427042486"><ele>12.333333333333332</ele><time>2026-04-18T11:28:01Z</time></trkpt><trkpt lat="42.52672894812356" lon="11.30279534311414"><ele>12.0</ele><time>2026-04-18T11:28:02Z</time></trkpt><trkpt lat="42.52665526893479" lon="11.302516307800333"><ele>12.333333333333332</ele><time>2026-04-18T11:28:03Z</time></trkpt><trkpt lat="42.52657864972945" lon="11.302235126448128"><ele>12.666666666666666</ele><time>2026-04-18T11:28:04Z</time></trkpt><trkpt lat="42.52650238532185" lon="11.301958518633848"><ele>13.0</ele><time>2026-04-18T11:28:05Z</time></trkpt><trkpt lat="42.52642958890205" lon="11.301690126052234"><ele>12.666666666666666</ele><time>2026-04-18T11:28:06Z</time></trkpt><trkpt lat="42.526356197404" lon="11.301409783892348"><ele>12.333333333333332</ele><time>2026-04-18T11:28:07Z</time></trkpt><trkpt lat="42.52628418166307" lon="11.301127376723326"><ele>12.0</ele><time>2026-04-18T11:28:08Z</time></trkpt><trkpt lat="42.526211055780024" lon="11.30084542607699"><ele>12.0</ele><time>2026-04-18T11:28:09Z</time></trkpt><trkpt lat="42.52613527077435" lon="11.300556266561056"><ele>12.0</ele><time>2026-04-18T11:28:10Z</time></trkpt><trkpt lat="42.52606256593697" lon="11.300272395478192"><ele>12.0</ele><time>2026-04-18T11:28:11Z</time></trkpt><trkpt lat="42.525985299405434" lon="11.299995114701721"><ele>12.0</ele><time>2026-04-18T11:28:12Z</time></trkpt><trkpt lat="42.52591384396466" lon="11.299714065859789"><ele>12.0</ele><time>2026-04-18T11:28:13Z</time></trkpt><trkpt lat="42.52584256943754" lon="11.299439746793093"><ele>12.0</ele><time>2026-04-18T11:28:14Z</time></trkpt><trkpt lat="42.525769339512834" lon="11.299163582222542"><ele>12.333333333333332</ele><time>2026-04-18T11:28:15Z</time></trkpt><trkpt lat="42.52569909101692" lon="11.298890391162962"><ele>12.666666666666666</ele><time>2026-04-18T11:28:16Z</time></trkpt><trkpt lat="42.525630539599725" lon="11.2986111405552"><ele>13.0</ele><time>2026-04-18T11:28:17Z</time></trkpt><trkpt lat="42.52556339267115" lon="11.298339585801232"><ele>13.333333333333332</ele><time>2026-04-18T11:28:18Z</time></trkpt><trkpt lat="42.52549457902989" lon="11.29806462843357"><ele>13.666666666666668</ele><time>2026-04-18T11:28:19Z</time></trkpt><trkpt lat="42.525428861166624" lon="11.29778947120227"><ele>14.0</ele><time>2026-04-18T11:28:20Z</time></trkpt><trkpt lat="42.52535789651186" lon="11.297524546482776"><ele>14.333333333333334</ele><time>2026-04-18T11:28:21Z</time></trkpt><trkpt lat="42.5252873057567" lon="11.297241258827661"><ele>14.666666666666668</ele><time>2026-04-18T11:28:22Z</time></trkpt><trkpt lat="42.52521781545816" lon="11.296963676047524"><ele>15.0</ele><time>2026-04-18T11:28:23Z</time></trkpt><trkpt lat="42.525147640225185" lon="11.296695256475402"><ele>15.666666666666668</ele><time>2026-04-18T11:28:24Z</time></trkpt><trkpt lat="42.525094602384236" lon="11.29641299561689"><ele>16.333333333333336</ele><time>2026-04-18T11:28:25Z</time></trkpt><trkpt lat="42.5250129472703" lon="11.296135828892135"><ele>17.0</ele><time>2026-04-18T11:28:26Z</time></trkpt><trkpt lat="42.52494204773676" lon="11.295855409688535"><ele>16.666666666666668</ele><time>2026-04-18T11:28:27Z</time></trkpt><trkpt lat="42.524878522896906" lon="11.295584059262726"><ele>16.333333333333332</ele><time>2026-04-18T11:28:28Z</time></trkpt><trkpt lat="42.524809162993996" lon="11.29530233505743"><ele>16.0</ele><time>2026-04-18T11:28:29Z</time></trkpt><trkpt lat="42.52474184544687" lon="11.295017128743076"><ele>15.666666666666666</ele><time>2026-04-18T11:28:30Z</time></trkpt><trkpt lat="42.524672631457314" lon="11.294729490809043"><ele>15.333333333333332</ele><time>2026-04-18T11:28:31Z</time></trkpt><trkpt lat="42.52460677851961" lon="11.29444451456843"><ele>15.0</ele><time>2026-04-18T11:28:32Z</time></trkpt><trkpt lat="42.524531772883314" lon="11.294158822541512"><ele>15.333333333333332</ele><time>2026-04-18T11:28:33Z</time></trkpt><trkpt lat="42.52445923230678" lon="11.29387645190614"><ele>15.666666666666666</ele><time>2026-04-18T11:28:34Z</time></trkpt><trkpt lat="42.52438567615904" lon="11.293590198288264"><ele>16.0</ele><time>2026-04-18T11:28:35Z</time></trkpt><trkpt lat="42.52431557421074" lon="11.293304967395757"><ele>16.333333333333332</ele><time>2026-04-18T11:28:36Z</time></trkpt><trkpt lat="42.52425131065577" lon="11.293022066943664"><ele>16.666666666666668</ele><time>2026-04-18T11:28:37Z</time></trkpt><trkpt lat="42.52417754886716" lon="11.292732131030306"><ele>17.0</ele><time>2026-04-18T11:28:38Z</time></trkpt><trkpt lat="42.52410518026885" lon="11.29244576182728"><ele>16.666666666666668</ele><time>2026-04-18T11:28:39Z</time></trkpt><trkpt lat="42.524051237993085" lon="11.292170284866527"><ele>16.333333333333332</ele><time>2026-04-18T11:28:40Z</time></trkpt><trkpt lat="42.523992877161085" lon="11.291888673469506"><ele>16.0</ele><time>2026-04-18T11:28:41Z</time></trkpt><trkpt lat="42.5239043863837" lon="11.291598176764403"><ele>16.0</ele><time>2026-04-18T11:28:42Z</time></trkpt><trkpt lat="42.523835076442985" lon="11.291309677512219"><ele>16.0</ele><time>2026-04-18T11:28:43Z</time></trkpt><trkpt lat="42.52376670392772" lon="11.291031619615985"><ele>16.0</ele><time>2026-04-18T11:28:44Z</time></trkpt><trkpt lat="42.52370223791914" lon="11.290758347273783"><ele>15.333333333333332</ele><time>2026-04-18T11:28:45Z</time></trkpt><trkpt lat="42.523627761760146" lon="11.290473397470443"><ele>14.666666666666668</ele><time>2026-04-18T11:28:46Z</time></trkpt><trkpt lat="42.523562427009715" lon="11.290193665859098"><ele>14.0</ele><time>2026-04-18T11:28:47Z</time></trkpt><trkpt lat="42.52349623435455" lon="11.289913736422198"><ele>13.333333333333334</ele><time>2026-04-18T11:28:48Z</time></trkpt><trkpt lat="42.52342342323552" lon="11.289624588029817"><ele>12.666666666666668</ele><time>2026-04-18T11:28:49Z</time></trkpt><trkpt lat="42.52335734435" lon="11.289340369981575"><ele>12.0</ele><time>2026-04-18T11:28:50Z</time></trkpt><trkpt lat="42.52329022699586" lon="11.289059174762102"><ele>12.0</ele><time>2026-04-18T11:28:51Z</time></trkpt><trkpt lat="42.52322128816983" lon="11.28877323768624"><ele>12.0</ele><time>2026-04-18T11:28:52Z</time></trkpt><trkpt lat="42.52314545323188" lon="11.288487349849298"><ele>12.0</ele><time>2026-04-18T11:28:53Z</time></trkpt><trkpt lat="42.52307634868329" lon="11.288208093286778"><ele>12.0</ele><time>2026-04-18T11:28:54Z</time></trkpt><trkpt lat="42.52300532515897" lon="11.287925684710054"><ele>12.0</ele><time>2026-04-18T11:28:55Z</time></trkpt><trkpt lat="42.52293834714959" lon="11.287644227884273"><ele>12.0</ele><time>2026-04-18T11:28:56Z</time></trkpt><trkpt lat="42.52286832619263" lon="11.287353796915854"><ele>11.0</ele><time>2026-04-18T11:28:57Z</time></trkpt><trkpt lat="42.522803864855724" lon="11.287071441607251"><ele>10.0</ele><time>2026-04-18T11:28:58Z</time></trkpt><trkpt lat="42.522735641437855" lon="11.286788282117634"><ele>9.0</ele><time>2026-04-18T11:28:59Z</time></trkpt><trkpt lat="42.522666825147226" lon="11.286507976490125"><ele>10.0</ele><time>2026-04-18T11:29:00Z</time></trkpt><trkpt lat="42.522593834841736" lon="11.286228781956897"><ele>11.0</ele><time>2026-04-18T11:29:01Z</time></trkpt><trkpt lat="42.52252666150428" lon="11.28595284928153"><ele>12.0</ele><time>2026-04-18T11:29:02Z</time></trkpt><trkpt lat="42.52245620574812" lon="11.28567438055544"><ele>12.0</ele><time>2026-04-18T11:29:03Z</time></trkpt><trkpt lat="42.522383040869066" lon="11.285403151747149"><ele>12.0</ele><time>2026-04-18T11:29:04Z</time></trkpt><trkpt lat="42.522311033186945" lon="11.285123285533379"><ele>12.0</ele><time>2026-04-18T11:29:05Z</time></trkpt><trkpt lat="42.522264842487445" lon="11.284835510822539"><ele>11.333333333333334</ele><time>2026-04-18T11:29:06Z</time></trkpt><trkpt lat="42.52218066530755" lon="11.284562672999598"><ele>10.666666666666668</ele><time>2026-04-18T11:29:07Z</time></trkpt><trkpt lat="42.52211516802045" lon="11.284281958824252"><ele>10.0</ele><time>2026-04-18T11:29:08Z</time></trkpt><trkpt lat="42.52204454431148" lon="11.28399911318943"><ele>10.0</ele><time>2026-04-18T11:29:09Z</time></trkpt><trkpt lat="42.52197716347548" lon="11.283722701475863"><ele>10.0</ele><time>2026-04-18T11:29:10Z</time></trkpt><trkpt lat="42.521908030341514" lon="11.283444287806347"><ele>10.0</ele><time>2026-04-18T11:29:11Z</time></trkpt><trkpt lat="42.52184045847656" lon="11.283170392178233"><ele>10.0</ele><time>2026-04-18T11:29:12Z</time></trkpt><trkpt lat="42.52177726831534" lon="11.282891968589892"><ele>10.0</ele><time>2026-04-18T11:29:13Z</time></trkpt><trkpt lat="42.521707931303496" lon="11.282626147419778"><ele>10.0</ele><time>2026-04-18T11:29:14Z</time></trkpt><trkpt lat="42.52165889060066" lon="11.282353751146301"><ele>9.333333333333334</ele><time>2026-04-18T11:29:15Z</time></trkpt><trkpt lat="42.52159589691939" lon="11.282093558033848"><ele>8.666666666666666</ele><time>2026-04-18T11:29:16Z</time></trkpt><trkpt lat="42.52153539996374" lon="11.281843677575045"><ele>8.0</ele><time>2026-04-18T11:29:17Z</time></trkpt><trkpt lat="42.52148045913315" lon="11.28161674647235"><ele>8.0</ele><time>2026-04-18T11:29:18Z</time></trkpt><trkpt lat="42.52141369414212" lon="11.281407160648815"><ele>8.0</ele><time>2026-04-18T11:29:19Z</time></trkpt><trkpt lat="42.52137622314586" lon="11.281186203516844"><ele>8.0</ele><time>2026-04-18T11:29:20Z</time></trkpt><trkpt lat="42.521319876844025" lon="11.281005383594028"><ele>8.0</ele><time>2026-04-18T11:29:21Z</time></trkpt><trkpt lat="42.52127714965309" lon="11.280845083160193"><ele>8.0</ele><time>2026-04-18T11:29:22Z</time></trkpt><trkpt lat="42.52125881775133" lon="11.280701264806643"><ele>8.0</ele><time>2026-04-18T11:29:23Z</time></trkpt><trkpt lat="42.52123073293167" lon="11.280585261509465"><ele>8.0</ele><time>2026-04-18T11:29:24Z</time></trkpt><trkpt lat="42.521203462229295" lon="11.280497829158499"><ele>8.0</ele><time>2026-04-18T11:29:25Z</time></trkpt><trkpt lat="42.52124813717646" lon="11.280388854323395"><ele>8.0</ele><time>2026-04-18T11:29:27Z</time></trkpt><trkpt lat="42.52132801584594" lon="11.280342426783637"><ele>8.0</ele><time>2026-04-18T11:29:27.999Z</time></trkpt><trkpt lat="42.521400517957744" lon="11.280319269646698"><ele>8.0</ele><time>2026-04-18T11:29:29.999Z</time></trkpt><trkpt lat="42.52146307909189" lon="11.28028344904818"><ele>8.0</ele><time>2026-04-18T11:29:34.999Z</time></trkpt></trkseg></trk></gpx>